<?xml version="1.0" encoding="UTF-8" standalone="no" ?>
<gpx xmlns="http://www.topografix.com/GPX/1/1" xmlns:xsi="http://www.w3.org/2001/XMLSchema-instance" xsi:schemaLocation="http://www.topografix.com/GPX/1/1 http://www.topografix.com/GPX/1/1/gpx.xsd" version="1.1" creator="VisuGPX - https://www.visugpx.com">
  <metadata>
    <name>Tour d'Europe: étape 820</name>
    <desc><![CDATA[Étape 820]]></desc>
  </metadata>
  <trk>
    <name><![CDATA[Tour d'Europe: étape 820]]></name>
    <trkseg>
      <trkpt lat="46.81634" lon="15.38439">
        <ele>388.506355</ele>
        <time>2022-09-26T07:27:30.391Z</time>
      </trkpt>
      <trkpt lat="46.81639" lon="15.38412">
        <ele>388.506355</ele>
        <time>2022-09-26T07:27:31.399Z</time>
      </trkpt>
      <trkpt lat="46.8163" lon="15.38427">
        <ele>388.506355</ele>
        <time>2022-09-26T07:38:39.394Z</time>
      </trkpt>
      <trkpt lat="46.81623" lon="15.38445">
        <ele>388.506355</ele>
        <time>2022-09-26T07:38:41.393Z</time>
      </trkpt>
      <trkpt lat="46.81615" lon="15.38467">
        <ele>388.506355</ele>
        <time>2022-09-26T07:38:43.403Z</time>
      </trkpt>
      <trkpt lat="46.81609" lon="15.38478">
        <ele>388.506355</ele>
        <time>2022-09-26T07:38:44.408Z</time>
      </trkpt>
      <trkpt lat="46.81601" lon="15.38498">
        <ele>388.506355</ele>
        <time>2022-09-26T07:38:46.390Z</time>
      </trkpt>
      <trkpt lat="46.81594" lon="15.3852">
        <ele>385.586312</ele>
        <time>2022-09-26T07:38:48.403Z</time>
      </trkpt>
      <trkpt lat="46.81589" lon="15.38544">
        <ele>382.472438</ele>
        <time>2022-09-26T07:38:50.434Z</time>
      </trkpt>
      <trkpt lat="46.81583" lon="15.38566">
        <ele>379.482685</ele>
        <time>2022-09-26T07:38:52.392Z</time>
      </trkpt>
      <trkpt lat="46.81577" lon="15.38588">
        <ele>376.570235</ele>
        <time>2022-09-26T07:38:54.400Z</time>
      </trkpt>
      <trkpt lat="46.8157" lon="15.38609">
        <ele>373.61986</ele>
        <time>2022-09-26T07:38:56.475Z</time>
      </trkpt>
      <trkpt lat="46.81562" lon="15.3863">
        <ele>370.619524</ele>
        <time>2022-09-26T07:38:58.429Z</time>
      </trkpt>
      <trkpt lat="46.81553" lon="15.3865">
        <ele>367.665406</ele>
        <time>2022-09-26T07:39:00.400Z</time>
      </trkpt>
      <trkpt lat="46.81544" lon="15.38668">
        <ele>364.844064</ele>
        <time>2022-09-26T07:39:02.398Z</time>
      </trkpt>
      <trkpt lat="46.81536" lon="15.38685">
        <ele>362.28139</ele>
        <time>2022-09-26T07:39:04.407Z</time>
      </trkpt>
      <trkpt lat="46.81527" lon="15.38702">
        <ele>359.631249</ele>
        <time>2022-09-26T07:39:06.382Z</time>
      </trkpt>
      <trkpt lat="46.81518" lon="15.38718">
        <ele>356.951579</ele>
        <time>2022-09-26T07:39:08.400Z</time>
      </trkpt>
      <trkpt lat="46.81509" lon="15.38736">
        <ele>355.081801</ele>
        <time>2022-09-26T07:39:10.404Z</time>
      </trkpt>
      <trkpt lat="46.81499" lon="15.38753">
        <ele>353.986373</ele>
        <time>2022-09-26T07:39:12.424Z</time>
      </trkpt>
      <trkpt lat="46.8149" lon="15.38772">
        <ele>352.845458</ele>
        <time>2022-09-26T07:39:14.402Z</time>
      </trkpt>
      <trkpt lat="46.81481" lon="15.38794">
        <ele>351.612663</ele>
        <time>2022-09-26T07:39:16.370Z</time>
      </trkpt>
      <trkpt lat="46.81473" lon="15.38817">
        <ele>350.387888</ele>
        <time>2022-09-26T07:39:18.386Z</time>
      </trkpt>
      <trkpt lat="46.81468" lon="15.38838">
        <ele>349.286299</ele>
        <time>2022-09-26T07:39:20.397Z</time>
      </trkpt>
      <trkpt lat="46.81465" lon="15.38859">
        <ele>348.248514</ele>
        <time>2022-09-26T07:39:22.384Z</time>
      </trkpt>
      <trkpt lat="46.81461" lon="15.38879">
        <ele>347.255102</ele>
        <time>2022-09-26T07:39:24.406Z</time>
      </trkpt>
      <trkpt lat="46.81456" lon="15.38899">
        <ele>346.244608</ele>
        <time>2022-09-26T07:39:26.395Z</time>
      </trkpt>
      <trkpt lat="46.81449" lon="15.38915">
        <ele>345.283249</ele>
        <time>2022-09-26T07:39:28.408Z</time>
      </trkpt>
      <trkpt lat="46.81438" lon="15.38928">
        <ele>344.316224</ele>
        <time>2022-09-26T07:39:30.408Z</time>
      </trkpt>
      <trkpt lat="46.81425" lon="15.38938">
        <ele>343.283636</ele>
        <time>2022-09-26T07:39:32.409Z</time>
      </trkpt>
      <trkpt lat="46.81412" lon="15.38945">
        <ele>342.781</ele>
        <time>2022-09-26T07:39:34.394Z</time>
      </trkpt>
      <trkpt lat="46.81399" lon="15.38952">
        <ele>342.556091</ele>
        <time>2022-09-26T07:39:36.452Z</time>
      </trkpt>
      <trkpt lat="46.81385" lon="15.38958">
        <ele>342.317896</ele>
        <time>2022-09-26T07:39:38.382Z</time>
      </trkpt>
      <trkpt lat="46.8137" lon="15.38961">
        <ele>342.08161</ele>
        <time>2022-09-26T07:39:40.399Z</time>
      </trkpt>
      <trkpt lat="46.81356" lon="15.38961">
        <ele>341.839731</ele>
        <time>2022-09-26T07:39:42.404Z</time>
      </trkpt>
      <trkpt lat="46.8134" lon="15.38959">
        <ele>341.593878</ele>
        <time>2022-09-26T07:39:44.453Z</time>
      </trkpt>
      <trkpt lat="46.81326" lon="15.38956">
        <ele>341.351757</ele>
        <time>2022-09-26T07:39:46.393Z</time>
      </trkpt>
      <trkpt lat="46.8131" lon="15.38953">
        <ele>341.091994</ele>
        <time>2022-09-26T07:39:48.407Z</time>
      </trkpt>
      <trkpt lat="46.81294" lon="15.38948">
        <ele>340.830463</ele>
        <time>2022-09-26T07:39:50.379Z</time>
      </trkpt>
      <trkpt lat="46.8128" lon="15.38943">
        <ele>340.6004</ele>
        <time>2022-09-26T07:39:52.407Z</time>
      </trkpt>
      <trkpt lat="46.81269" lon="15.38939">
        <ele>340.418327</ele>
        <time>2022-09-26T07:39:54.411Z</time>
      </trkpt>
      <trkpt lat="46.81261" lon="15.38945">
        <ele>340.27038</ele>
        <time>2022-09-26T07:39:56.386Z</time>
      </trkpt>
      <trkpt lat="46.81254" lon="15.38955">
        <ele>340.106807</ele>
        <time>2022-09-26T07:39:58.404Z</time>
      </trkpt>
      <trkpt lat="46.81247" lon="15.38966">
        <ele>339.953985</ele>
        <time>2022-09-26T07:40:00.431Z</time>
      </trkpt>
      <trkpt lat="46.81239" lon="15.38975">
        <ele>339.834957</ele>
        <time>2022-09-26T07:40:02.403Z</time>
      </trkpt>
      <trkpt lat="46.81232" lon="15.38984">
        <ele>339.720027</ele>
        <time>2022-09-26T07:40:04.393Z</time>
      </trkpt>
      <trkpt lat="46.81224" lon="15.38997">
        <ele>339.564682</ele>
        <time>2022-09-26T07:40:07.415Z</time>
      </trkpt>
      <trkpt lat="46.81217" lon="15.3901">
        <ele>339.42513</ele>
        <time>2022-09-26T07:40:10.404Z</time>
      </trkpt>
      <trkpt lat="46.8121" lon="15.39019">
        <ele>339.30832</ele>
        <time>2022-09-26T07:40:13.399Z</time>
      </trkpt>
      <trkpt lat="46.81201" lon="15.39028">
        <ele>339.177302</ele>
        <time>2022-09-26T07:40:16.402Z</time>
      </trkpt>
      <trkpt lat="46.81192" lon="15.3904">
        <ele>339.031179</ele>
        <time>2022-09-26T07:40:19.391Z</time>
      </trkpt>
      <trkpt lat="46.81184" lon="15.39053">
        <ele>338.875907</ele>
        <time>2022-09-26T07:40:22.391Z</time>
      </trkpt>
      <trkpt lat="46.81175" lon="15.39066">
        <ele>338.725062</ele>
        <time>2022-09-26T07:40:25.391Z</time>
      </trkpt>
      <trkpt lat="46.81167" lon="15.39077">
        <ele>338.582802</ele>
        <time>2022-09-26T07:40:28.414Z</time>
      </trkpt>
      <trkpt lat="46.81158" lon="15.3909">
        <ele>338.431617</ele>
        <time>2022-09-26T07:40:31.407Z</time>
      </trkpt>
      <trkpt lat="46.81149" lon="15.39104">
        <ele>338.269244</ele>
        <time>2022-09-26T07:40:34.414Z</time>
      </trkpt>
      <trkpt lat="46.81142" lon="15.39113">
        <ele>338.158004</ele>
        <time>2022-09-26T07:40:36.451Z</time>
      </trkpt>
      <trkpt lat="46.81133" lon="15.39126">
        <ele>337.994974</ele>
        <time>2022-09-26T07:40:39.404Z</time>
      </trkpt>
      <trkpt lat="46.81126" lon="15.39135">
        <ele>337.882577</ele>
        <time>2022-09-26T07:40:41.382Z</time>
      </trkpt>
      <trkpt lat="46.81118" lon="15.3915">
        <ele>337.937877</ele>
        <time>2022-09-26T07:40:44.402Z</time>
      </trkpt>
      <trkpt lat="46.81114" lon="15.39167">
        <ele>338.36994</ele>
        <time>2022-09-26T07:40:47.405Z</time>
      </trkpt>
      <trkpt lat="46.81118" lon="15.39184">
        <ele>338.821731</ele>
        <time>2022-09-26T07:40:50.395Z</time>
      </trkpt>
      <trkpt lat="46.81127" lon="15.39198">
        <ele>339.276972</ele>
        <time>2022-09-26T07:40:53.436Z</time>
      </trkpt>
      <trkpt lat="46.81136" lon="15.3921">
        <ele>339.730083</ele>
        <time>2022-09-26T07:40:56.432Z</time>
      </trkpt>
      <trkpt lat="46.81145" lon="15.39223">
        <ele>340.177205</ele>
        <time>2022-09-26T07:40:59.384Z</time>
      </trkpt>
      <trkpt lat="46.81153" lon="15.39234">
        <ele>340.567917</ele>
        <time>2022-09-26T07:41:02.410Z</time>
      </trkpt>
      <trkpt lat="46.81161" lon="15.39246">
        <ele>340.988503</ele>
        <time>2022-09-26T07:41:05.398Z</time>
      </trkpt>
      <trkpt lat="46.8117" lon="15.39258">
        <ele>341.423642</ele>
        <time>2022-09-26T07:41:08.434Z</time>
      </trkpt>
      <trkpt lat="46.81178" lon="15.39271">
        <ele>341.855479</ele>
        <time>2022-09-26T07:41:11.404Z</time>
      </trkpt>
      <trkpt lat="46.81185" lon="15.3928">
        <ele>342.184388</ele>
        <time>2022-09-26T07:41:13.408Z</time>
      </trkpt>
      <trkpt lat="46.81191" lon="15.3929">
        <ele>342.512689</ele>
        <time>2022-09-26T07:41:15.412Z</time>
      </trkpt>
      <trkpt lat="46.81199" lon="15.39302">
        <ele>342.941022</ele>
        <time>2022-09-26T07:41:18.400Z</time>
      </trkpt>
      <trkpt lat="46.81207" lon="15.39314">
        <ele>343.343625</ele>
        <time>2022-09-26T07:41:21.406Z</time>
      </trkpt>
      <trkpt lat="46.81214" lon="15.39327">
        <ele>343.764811</ele>
        <time>2022-09-26T07:41:24.396Z</time>
      </trkpt>
      <trkpt lat="46.81222" lon="15.39341">
        <ele>344.193459</ele>
        <time>2022-09-26T07:41:27.404Z</time>
      </trkpt>
      <trkpt lat="46.8123" lon="15.39353">
        <ele>344.438942</ele>
        <time>2022-09-26T07:41:30.394Z</time>
      </trkpt>
      <trkpt lat="46.81238" lon="15.39365">
        <ele>344.665965</ele>
        <time>2022-09-26T07:41:33.407Z</time>
      </trkpt>
      <trkpt lat="46.81246" lon="15.39377">
        <ele>344.915483</ele>
        <time>2022-09-26T07:41:36.382Z</time>
      </trkpt>
      <trkpt lat="46.81255" lon="15.3939">
        <ele>345.171825</ele>
        <time>2022-09-26T07:41:39.403Z</time>
      </trkpt>
      <trkpt lat="46.81264" lon="15.39401">
        <ele>345.408624</ele>
        <time>2022-09-26T07:41:42.407Z</time>
      </trkpt>
      <trkpt lat="46.81273" lon="15.39413">
        <ele>345.665265</ele>
        <time>2022-09-26T07:41:45.404Z</time>
      </trkpt>
      <trkpt lat="46.81283" lon="15.39421">
        <ele>345.899113</ele>
        <time>2022-09-26T07:41:47.403Z</time>
      </trkpt>
      <trkpt lat="46.81292" lon="15.3943">
        <ele>346.123464</ele>
        <time>2022-09-26T07:41:49.431Z</time>
      </trkpt>
      <trkpt lat="46.813" lon="15.39439">
        <ele>346.316682</ele>
        <time>2022-09-26T07:41:51.403Z</time>
      </trkpt>
      <trkpt lat="46.81309" lon="15.39451">
        <ele>346.583202</ele>
        <time>2022-09-26T07:41:54.402Z</time>
      </trkpt>
      <trkpt lat="46.81319" lon="15.39463">
        <ele>346.83191</ele>
        <time>2022-09-26T07:41:57.408Z</time>
      </trkpt>
      <trkpt lat="46.81327" lon="15.39475">
        <ele>347.08141</ele>
        <time>2022-09-26T07:42:00.406Z</time>
      </trkpt>
      <trkpt lat="46.81337" lon="15.39487">
        <ele>347.336866</ele>
        <time>2022-09-26T07:42:03.402Z</time>
      </trkpt>
      <trkpt lat="46.8135" lon="15.39504">
        <ele>347.690582</ele>
        <time>2022-09-26T07:42:07.462Z</time>
      </trkpt>
      <trkpt lat="46.81357" lon="15.39513">
        <ele>347.882367</ele>
        <time>2022-09-26T07:42:09.404Z</time>
      </trkpt>
      <trkpt lat="46.81364" lon="15.39523">
        <ele>347.67294</ele>
        <time>2022-09-26T07:42:11.399Z</time>
      </trkpt>
      <trkpt lat="46.81372" lon="15.39532">
        <ele>347.400339</ele>
        <time>2022-09-26T07:42:13.411Z</time>
      </trkpt>
      <trkpt lat="46.8138" lon="15.39542">
        <ele>347.118679</ele>
        <time>2022-09-26T07:42:15.397Z</time>
      </trkpt>
      <trkpt lat="46.81388" lon="15.39553">
        <ele>346.81257</ele>
        <time>2022-09-26T07:42:17.406Z</time>
      </trkpt>
      <trkpt lat="46.81395" lon="15.39564">
        <ele>346.510874</ele>
        <time>2022-09-26T07:42:19.407Z</time>
      </trkpt>
      <trkpt lat="46.81402" lon="15.39576">
        <ele>346.223769</ele>
        <time>2022-09-26T07:42:21.412Z</time>
      </trkpt>
      <trkpt lat="46.81408" lon="15.39588">
        <ele>345.951774</ele>
        <time>2022-09-26T07:42:23.446Z</time>
      </trkpt>
      <trkpt lat="46.81413" lon="15.396">
        <ele>345.676478</ele>
        <time>2022-09-26T07:42:25.390Z</time>
      </trkpt>
      <trkpt lat="46.81419" lon="15.39611">
        <ele>345.42018</ele>
        <time>2022-09-26T07:42:27.451Z</time>
      </trkpt>
      <trkpt lat="46.81425" lon="15.39628">
        <ele>345.057493</ele>
        <time>2022-09-26T07:42:30.393Z</time>
      </trkpt>
      <trkpt lat="46.81433" lon="15.39642">
        <ele>344.707832</ele>
        <time>2022-09-26T07:42:33.414Z</time>
      </trkpt>
      <trkpt lat="46.8144" lon="15.39651">
        <ele>344.460096</ele>
        <time>2022-09-26T07:42:35.408Z</time>
      </trkpt>
      <trkpt lat="46.81449" lon="15.39659">
        <ele>344.18437</ele>
        <time>2022-09-26T07:42:37.417Z</time>
      </trkpt>
      <trkpt lat="46.81459" lon="15.39664">
        <ele>343.876017</ele>
        <time>2022-09-26T07:42:39.403Z</time>
      </trkpt>
      <trkpt lat="46.8147" lon="15.39666">
        <ele>343.569288</ele>
        <time>2022-09-26T07:42:41.413Z</time>
      </trkpt>
      <trkpt lat="46.81481" lon="15.39669">
        <ele>343.260443</ele>
        <time>2022-09-26T07:42:43.419Z</time>
      </trkpt>
      <trkpt lat="46.81492" lon="15.39672">
        <ele>342.964731</ele>
        <time>2022-09-26T07:42:45.414Z</time>
      </trkpt>
      <trkpt lat="46.81502" lon="15.39675">
        <ele>342.987126</ele>
        <time>2022-09-26T07:42:47.399Z</time>
      </trkpt>
      <trkpt lat="46.81513" lon="15.39679">
        <ele>343.010094</ele>
        <time>2022-09-26T07:42:49.398Z</time>
      </trkpt>
      <trkpt lat="46.81523" lon="15.39682">
        <ele>343.032647</ele>
        <time>2022-09-26T07:42:51.409Z</time>
      </trkpt>
      <trkpt lat="46.81533" lon="15.39686">
        <ele>343.054895</ele>
        <time>2022-09-26T07:42:53.391Z</time>
      </trkpt>
      <trkpt lat="46.81544" lon="15.39689">
        <ele>343.077351</ele>
        <time>2022-09-26T07:42:55.403Z</time>
      </trkpt>
      <trkpt lat="46.81553" lon="15.39692">
        <ele>343.098215</ele>
        <time>2022-09-26T07:42:57.412Z</time>
      </trkpt>
      <trkpt lat="46.81563" lon="15.39696">
        <ele>343.119665</ele>
        <time>2022-09-26T07:42:59.396Z</time>
      </trkpt>
      <trkpt lat="46.81573" lon="15.39699">
        <ele>343.141356</ele>
        <time>2022-09-26T07:43:01.406Z</time>
      </trkpt>
      <trkpt lat="46.81583" lon="15.39703">
        <ele>343.163812</ele>
        <time>2022-09-26T07:43:03.410Z</time>
      </trkpt>
      <trkpt lat="46.81593" lon="15.39706">
        <ele>343.186237</ele>
        <time>2022-09-26T07:43:05.448Z</time>
      </trkpt>
      <trkpt lat="46.81604" lon="15.39709">
        <ele>343.208724</ele>
        <time>2022-09-26T07:43:07.409Z</time>
      </trkpt>
      <trkpt lat="46.81614" lon="15.39713">
        <ele>343.231277</ele>
        <time>2022-09-26T07:43:09.419Z</time>
      </trkpt>
      <trkpt lat="46.81624" lon="15.39716">
        <ele>343.253078</ele>
        <time>2022-09-26T07:43:11.403Z</time>
      </trkpt>
      <trkpt lat="46.81634" lon="15.39719">
        <ele>343.274761</ele>
        <time>2022-09-26T07:43:13.409Z</time>
      </trkpt>
      <trkpt lat="46.81644" lon="15.39721">
        <ele>343.296576</ele>
        <time>2022-09-26T07:43:15.400Z</time>
      </trkpt>
      <trkpt lat="46.81654" lon="15.39724">
        <ele>343.318626</ele>
        <time>2022-09-26T07:43:17.399Z</time>
      </trkpt>
      <trkpt lat="46.81665" lon="15.39726">
        <ele>343.340735</ele>
        <time>2022-09-26T07:43:19.423Z</time>
      </trkpt>
      <trkpt lat="46.81675" lon="15.39728">
        <ele>343.315885</ele>
        <time>2022-09-26T07:43:21.407Z</time>
      </trkpt>
      <trkpt lat="46.81686" lon="15.3973">
        <ele>343.270851</ele>
        <time>2022-09-26T07:43:23.408Z</time>
      </trkpt>
      <trkpt lat="46.81697" lon="15.39732">
        <ele>343.224011</ele>
        <time>2022-09-26T07:43:25.406Z</time>
      </trkpt>
      <trkpt lat="46.81708" lon="15.39735">
        <ele>343.176751</ele>
        <time>2022-09-26T07:43:27.400Z</time>
      </trkpt>
      <trkpt lat="46.81719" lon="15.39737">
        <ele>343.128981</ele>
        <time>2022-09-26T07:43:29.398Z</time>
      </trkpt>
      <trkpt lat="46.8173" lon="15.3974">
        <ele>343.079533</ele>
        <time>2022-09-26T07:43:31.404Z</time>
      </trkpt>
      <trkpt lat="46.81742" lon="15.39742">
        <ele>343.030549</ele>
        <time>2022-09-26T07:43:33.443Z</time>
      </trkpt>
      <trkpt lat="46.81753" lon="15.39745">
        <ele>342.981564</ele>
        <time>2022-09-26T07:43:35.404Z</time>
      </trkpt>
      <trkpt lat="46.81765" lon="15.39747">
        <ele>342.931859</ele>
        <time>2022-09-26T07:43:37.407Z</time>
      </trkpt>
      <trkpt lat="46.81776" lon="15.39749">
        <ele>342.881694</ele>
        <time>2022-09-26T07:43:39.442Z</time>
      </trkpt>
      <trkpt lat="46.81788" lon="15.39752">
        <ele>342.83229</ele>
        <time>2022-09-26T07:43:41.417Z</time>
      </trkpt>
      <trkpt lat="46.81799" lon="15.39754">
        <ele>342.782125</ele>
        <time>2022-09-26T07:43:43.411Z</time>
      </trkpt>
      <trkpt lat="46.81811" lon="15.39756">
        <ele>342.730835</ele>
        <time>2022-09-26T07:43:45.401Z</time>
      </trkpt>
      <trkpt lat="46.81824" lon="15.39758">
        <ele>342.679123</ele>
        <time>2022-09-26T07:43:47.405Z</time>
      </trkpt>
      <trkpt lat="46.81836" lon="15.3976">
        <ele>342.626534</ele>
        <time>2022-09-26T07:43:49.474Z</time>
      </trkpt>
      <trkpt lat="46.81848" lon="15.39762">
        <ele>342.60097</ele>
        <time>2022-09-26T07:43:51.397Z</time>
      </trkpt>
      <trkpt lat="46.8186" lon="15.39765">
        <ele>342.707684</ele>
        <time>2022-09-26T07:43:53.412Z</time>
      </trkpt>
      <trkpt lat="46.81872" lon="15.39767">
        <ele>342.819846</ele>
        <time>2022-09-26T07:43:55.415Z</time>
      </trkpt>
      <trkpt lat="46.81884" lon="15.39771">
        <ele>342.9257</ele>
        <time>2022-09-26T07:43:57.431Z</time>
      </trkpt>
      <trkpt lat="46.81895" lon="15.39774">
        <ele>343.020982</ele>
        <time>2022-09-26T07:43:59.408Z</time>
      </trkpt>
      <trkpt lat="46.81905" lon="15.39777">
        <ele>343.116896</ele>
        <time>2022-09-26T07:44:01.416Z</time>
      </trkpt>
      <trkpt lat="46.81916" lon="15.3978">
        <ele>343.218515</ele>
        <time>2022-09-26T07:44:03.406Z</time>
      </trkpt>
      <trkpt lat="46.81928" lon="15.39782">
        <ele>343.324113</ele>
        <time>2022-09-26T07:44:05.401Z</time>
      </trkpt>
      <trkpt lat="46.8194" lon="15.39783">
        <ele>343.428623</ele>
        <time>2022-09-26T07:44:07.442Z</time>
      </trkpt>
      <trkpt lat="46.81952" lon="15.39786">
        <ele>343.53334</ele>
        <time>2022-09-26T07:44:09.410Z</time>
      </trkpt>
      <trkpt lat="46.81963" lon="15.39788">
        <ele>343.639014</ele>
        <time>2022-09-26T07:44:11.462Z</time>
      </trkpt>
      <trkpt lat="46.81975" lon="15.3979">
        <ele>343.745022</ele>
        <time>2022-09-26T07:44:13.443Z</time>
      </trkpt>
      <trkpt lat="46.81986" lon="15.39792">
        <ele>343.842538</ele>
        <time>2022-09-26T07:44:15.408Z</time>
      </trkpt>
      <trkpt lat="46.81998" lon="15.39793">
        <ele>343.944785</ele>
        <time>2022-09-26T07:44:17.392Z</time>
      </trkpt>
      <trkpt lat="46.82008" lon="15.39794">
        <ele>344.036679</ele>
        <time>2022-09-26T07:44:19.424Z</time>
      </trkpt>
      <trkpt lat="46.82017" lon="15.39797">
        <ele>344.121781</ele>
        <time>2022-09-26T07:44:21.407Z</time>
      </trkpt>
      <trkpt lat="46.82024" lon="15.39813">
        <ele>344.056566</ele>
        <time>2022-09-26T07:44:24.411Z</time>
      </trkpt>
      <trkpt lat="46.82025" lon="15.3983">
        <ele>343.833548</ele>
        <time>2022-09-26T07:44:26.445Z</time>
      </trkpt>
      <trkpt lat="46.82025" lon="15.39844">
        <ele>343.644288</ele>
        <time>2022-09-26T07:44:28.396Z</time>
      </trkpt>
      <trkpt lat="46.82025" lon="15.39863">
        <ele>343.389835</ele>
        <time>2022-09-26T07:44:31.401Z</time>
      </trkpt>
      <trkpt lat="46.82025" lon="15.39876">
        <ele>343.213891</ele>
        <time>2022-09-26T07:44:33.410Z</time>
      </trkpt>
      <trkpt lat="46.82025" lon="15.3989">
        <ele>343.037947</ele>
        <time>2022-09-26T07:44:35.412Z</time>
      </trkpt>
      <trkpt lat="46.82025" lon="15.39904">
        <ele>342.851402</ele>
        <time>2022-09-26T07:44:37.404Z</time>
      </trkpt>
      <trkpt lat="46.82026" lon="15.39918">
        <ele>342.660741</ele>
        <time>2022-09-26T07:44:39.399Z</time>
      </trkpt>
      <trkpt lat="46.82026" lon="15.39932">
        <ele>342.469605</ele>
        <time>2022-09-26T07:44:41.401Z</time>
      </trkpt>
      <trkpt lat="46.82027" lon="15.39946">
        <ele>342.279064</ele>
        <time>2022-09-26T07:44:43.399Z</time>
      </trkpt>
      <trkpt lat="46.82027" lon="15.39962">
        <ele>342.076115</ele>
        <time>2022-09-26T07:44:45.403Z</time>
      </trkpt>
      <trkpt lat="46.82028" lon="15.39977">
        <ele>341.87037</ele>
        <time>2022-09-26T07:44:47.408Z</time>
      </trkpt>
      <trkpt lat="46.82029" lon="15.39992">
        <ele>341.665953</ele>
        <time>2022-09-26T07:44:49.404Z</time>
      </trkpt>
      <trkpt lat="46.82029" lon="15.40007">
        <ele>341.464785</ele>
        <time>2022-09-26T07:44:51.401Z</time>
      </trkpt>
      <trkpt lat="46.82029" lon="15.40022">
        <ele>341.264949</ele>
        <time>2022-09-26T07:44:53.450Z</time>
      </trkpt>
      <trkpt lat="46.82029" lon="15.40037">
        <ele>341.069081</ele>
        <time>2022-09-26T07:44:55.408Z</time>
      </trkpt>
      <trkpt lat="46.82029" lon="15.40052">
        <ele>340.874544</ele>
        <time>2022-09-26T07:44:57.411Z</time>
      </trkpt>
      <trkpt lat="46.82029" lon="15.40067">
        <ele>340.68631</ele>
        <time>2022-09-26T07:44:59.408Z</time>
      </trkpt>
      <trkpt lat="46.8203" lon="15.40082">
        <ele>340.825814</ele>
        <time>2022-09-26T07:45:01.400Z</time>
      </trkpt>
      <trkpt lat="46.8203" lon="15.40097">
        <ele>340.963524</ele>
        <time>2022-09-26T07:45:03.442Z</time>
      </trkpt>
      <trkpt lat="46.8203" lon="15.40112">
        <ele>341.102203</ele>
        <time>2022-09-26T07:45:05.423Z</time>
      </trkpt>
      <trkpt lat="46.82031" lon="15.40127">
        <ele>341.23899</ele>
        <time>2022-09-26T07:45:07.401Z</time>
      </trkpt>
      <trkpt lat="46.82031" lon="15.40142">
        <ele>341.373875</ele>
        <time>2022-09-26T07:45:09.419Z</time>
      </trkpt>
      <trkpt lat="46.82031" lon="15.40156">
        <ele>341.507939</ele>
        <time>2022-09-26T07:45:11.421Z</time>
      </trkpt>
      <trkpt lat="46.82032" lon="15.40171">
        <ele>341.645913</ele>
        <time>2022-09-26T07:45:13.414Z</time>
      </trkpt>
      <trkpt lat="46.82032" lon="15.40185">
        <ele>341.780038</ele>
        <time>2022-09-26T07:45:15.452Z</time>
      </trkpt>
      <trkpt lat="46.82033" lon="15.40199">
        <ele>341.908797</ele>
        <time>2022-09-26T07:45:17.400Z</time>
      </trkpt>
      <trkpt lat="46.82034" lon="15.40213">
        <ele>342.037465</ele>
        <time>2022-09-26T07:45:19.409Z</time>
      </trkpt>
      <trkpt lat="46.82035" lon="15.40226">
        <ele>342.161308</ele>
        <time>2022-09-26T07:45:21.424Z</time>
      </trkpt>
      <trkpt lat="46.82038" lon="15.40246">
        <ele>342.341216</ele>
        <time>2022-09-26T07:45:24.408Z</time>
      </trkpt>
      <trkpt lat="46.8204" lon="15.40265">
        <ele>342.520488</ele>
        <time>2022-09-26T07:45:27.409Z</time>
      </trkpt>
      <trkpt lat="46.82044" lon="15.40283">
        <ele>342.693191</ele>
        <time>2022-09-26T07:45:30.416Z</time>
      </trkpt>
      <trkpt lat="46.82047" lon="15.40299">
        <ele>342.853938</ele>
        <time>2022-09-26T07:45:33.396Z</time>
      </trkpt>
      <trkpt lat="46.8205" lon="15.40316">
        <ele>343.008449</ele>
        <time>2022-09-26T07:45:36.395Z</time>
      </trkpt>
      <trkpt lat="46.82053" lon="15.4033">
        <ele>343.134616</ele>
        <time>2022-09-26T07:45:39.413Z</time>
      </trkpt>
      <trkpt lat="46.82057" lon="15.40344">
        <ele>343.217892</ele>
        <time>2022-09-26T07:45:42.406Z</time>
      </trkpt>
      <trkpt lat="46.8206" lon="15.40359">
        <ele>343.302817</ele>
        <time>2022-09-26T07:45:45.407Z</time>
      </trkpt>
      <trkpt lat="46.82063" lon="15.40373">
        <ele>343.389827</ele>
        <time>2022-09-26T07:45:48.405Z</time>
      </trkpt>
      <trkpt lat="46.82067" lon="15.40388">
        <ele>343.478778</ele>
        <time>2022-09-26T07:45:51.407Z</time>
      </trkpt>
      <trkpt lat="46.82071" lon="15.40402">
        <ele>343.566152</ele>
        <time>2022-09-26T07:45:54.442Z</time>
      </trkpt>
      <trkpt lat="46.82076" lon="15.40417">
        <ele>343.659928</ele>
        <time>2022-09-26T07:45:57.407Z</time>
      </trkpt>
      <trkpt lat="46.82081" lon="15.40433">
        <ele>343.757283</ele>
        <time>2022-09-26T07:46:00.444Z</time>
      </trkpt>
      <trkpt lat="46.82086" lon="15.40449">
        <ele>343.857548</ele>
        <time>2022-09-26T07:46:03.408Z</time>
      </trkpt>
      <trkpt lat="46.82091" lon="15.40466">
        <ele>343.959027</ele>
        <time>2022-09-26T07:46:06.386Z</time>
      </trkpt>
      <trkpt lat="46.82095" lon="15.40483">
        <ele>344.063154</ele>
        <time>2022-09-26T07:46:09.434Z</time>
      </trkpt>
      <trkpt lat="46.821" lon="15.40501">
        <ele>344.170667</ele>
        <time>2022-09-26T07:46:12.415Z</time>
      </trkpt>
      <trkpt lat="46.82105" lon="15.40519">
        <ele>344.280485</ele>
        <time>2022-09-26T07:46:15.421Z</time>
      </trkpt>
      <trkpt lat="46.8211" lon="15.40536">
        <ele>344.387901</ele>
        <time>2022-09-26T07:46:18.410Z</time>
      </trkpt>
      <trkpt lat="46.82114" lon="15.40553">
        <ele>344.490514</ele>
        <time>2022-09-26T07:46:21.409Z</time>
      </trkpt>
      <trkpt lat="46.82119" lon="15.4057">
        <ele>344.601998</ele>
        <time>2022-09-26T07:46:24.408Z</time>
      </trkpt>
      <trkpt lat="46.82123" lon="15.40588">
        <ele>344.910512</ele>
        <time>2022-09-26T07:46:27.409Z</time>
      </trkpt>
      <trkpt lat="46.82128" lon="15.40605">
        <ele>345.230465</ele>
        <time>2022-09-26T07:46:30.408Z</time>
      </trkpt>
      <trkpt lat="46.82131" lon="15.40618">
        <ele>345.453405</ele>
        <time>2022-09-26T07:46:32.400Z</time>
      </trkpt>
      <trkpt lat="46.82136" lon="15.40635">
        <ele>345.781223</ele>
        <time>2022-09-26T07:46:35.408Z</time>
      </trkpt>
      <trkpt lat="46.82141" lon="15.40653">
        <ele>346.106157</ele>
        <time>2022-09-26T07:46:38.384Z</time>
      </trkpt>
      <trkpt lat="46.82146" lon="15.40671">
        <ele>346.427369</ele>
        <time>2022-09-26T07:46:41.397Z</time>
      </trkpt>
      <trkpt lat="46.82151" lon="15.40687">
        <ele>346.725756</ele>
        <time>2022-09-26T07:46:44.435Z</time>
      </trkpt>
      <trkpt lat="46.82155" lon="15.40703">
        <ele>347.011115</ele>
        <time>2022-09-26T07:46:47.409Z</time>
      </trkpt>
      <trkpt lat="46.82159" lon="15.40718">
        <ele>347.27555</ele>
        <time>2022-09-26T07:46:50.409Z</time>
      </trkpt>
      <trkpt lat="46.82162" lon="15.40731">
        <ele>347.527686</ele>
        <time>2022-09-26T07:46:53.401Z</time>
      </trkpt>
      <trkpt lat="46.82166" lon="15.40744">
        <ele>347.751706</ele>
        <time>2022-09-26T07:46:56.387Z</time>
      </trkpt>
      <trkpt lat="46.8217" lon="15.40759">
        <ele>348.03197</ele>
        <time>2022-09-26T07:47:00.406Z</time>
      </trkpt>
      <trkpt lat="46.82174" lon="15.40774">
        <ele>348.296916</ele>
        <time>2022-09-26T07:47:04.412Z</time>
      </trkpt>
      <trkpt lat="46.82179" lon="15.40787">
        <ele>348.54838</ele>
        <time>2022-09-26T07:47:08.415Z</time>
      </trkpt>
      <trkpt lat="46.82183" lon="15.40801">
        <ele>348.810205</ele>
        <time>2022-09-26T07:47:12.443Z</time>
      </trkpt>
      <trkpt lat="46.82187" lon="15.40815">
        <ele>349.048168</ele>
        <time>2022-09-26T07:47:16.406Z</time>
      </trkpt>
      <trkpt lat="46.82191" lon="15.40828">
        <ele>349.195396</ele>
        <time>2022-09-26T07:47:20.427Z</time>
      </trkpt>
      <trkpt lat="46.82195" lon="15.40842">
        <ele>349.340909</ele>
        <time>2022-09-26T07:47:24.390Z</time>
      </trkpt>
      <trkpt lat="46.82197" lon="15.40856">
        <ele>349.480141</ele>
        <time>2022-09-26T07:47:28.410Z</time>
      </trkpt>
      <trkpt lat="46.822" lon="15.4087">
        <ele>349.625711</ele>
        <time>2022-09-26T07:47:32.414Z</time>
      </trkpt>
      <trkpt lat="46.82201" lon="15.40884">
        <ele>349.765866</ele>
        <time>2022-09-26T07:47:36.397Z</time>
      </trkpt>
      <trkpt lat="46.82202" lon="15.409">
        <ele>349.92804</ele>
        <time>2022-09-26T07:47:41.402Z</time>
      </trkpt>
      <trkpt lat="46.82202" lon="15.40915">
        <ele>350.075358</ele>
        <time>2022-09-26T07:47:46.392Z</time>
      </trkpt>
      <trkpt lat="46.82201" lon="15.40928">
        <ele>350.204911</ele>
        <time>2022-09-26T07:47:51.445Z</time>
      </trkpt>
      <trkpt lat="46.82203" lon="15.40943">
        <ele>350.352837</ele>
        <time>2022-09-26T07:47:57.412Z</time>
      </trkpt>
      <trkpt lat="46.82202" lon="15.40959">
        <ele>350.507751</ele>
        <time>2022-09-26T07:48:03.393Z</time>
      </trkpt>
      <trkpt lat="46.82203" lon="15.40972">
        <ele>350.638907</ele>
        <time>2022-09-26T07:48:07.406Z</time>
      </trkpt>
      <trkpt lat="46.82204" lon="15.40986">
        <ele>350.777808</ele>
        <time>2022-09-26T07:48:10.397Z</time>
      </trkpt>
      <trkpt lat="46.82205" lon="15.41006">
        <ele>350.9787</ele>
        <time>2022-09-26T07:48:13.484Z</time>
      </trkpt>
      <trkpt lat="46.82206" lon="15.41024">
        <ele>351.156955</ele>
        <time>2022-09-26T07:48:15.439Z</time>
      </trkpt>
      <trkpt lat="46.82206" lon="15.41044">
        <ele>351.356862</ele>
        <time>2022-09-26T07:48:17.422Z</time>
      </trkpt>
      <trkpt lat="46.82206" lon="15.41065">
        <ele>351.560541</ele>
        <time>2022-09-26T07:48:19.404Z</time>
      </trkpt>
      <trkpt lat="46.82207" lon="15.41085">
        <ele>351.667097</ele>
        <time>2022-09-26T07:48:21.409Z</time>
      </trkpt>
      <trkpt lat="46.8221" lon="15.41104">
        <ele>351.726695</ele>
        <time>2022-09-26T07:48:23.412Z</time>
      </trkpt>
      <trkpt lat="46.82217" lon="15.41124">
        <ele>351.792045</ele>
        <time>2022-09-26T07:48:25.410Z</time>
      </trkpt>
      <trkpt lat="46.82225" lon="15.41143">
        <ele>351.859245</ele>
        <time>2022-09-26T07:48:27.386Z</time>
      </trkpt>
      <trkpt lat="46.82234" lon="15.41163">
        <ele>351.930615</ele>
        <time>2022-09-26T07:48:29.396Z</time>
      </trkpt>
      <trkpt lat="46.82242" lon="15.41184">
        <ele>352.002518</ele>
        <time>2022-09-26T07:48:31.464Z</time>
      </trkpt>
      <trkpt lat="46.82249" lon="15.41206">
        <ele>352.075931</ele>
        <time>2022-09-26T07:48:33.390Z</time>
      </trkpt>
      <trkpt lat="46.82255" lon="15.41225">
        <ele>352.138621</ele>
        <time>2022-09-26T07:48:35.412Z</time>
      </trkpt>
      <trkpt lat="46.8226" lon="15.41239">
        <ele>352.187695</ele>
        <time>2022-09-26T07:48:37.410Z</time>
      </trkpt>
      <trkpt lat="46.82267" lon="15.41252">
        <ele>352.236755</ele>
        <time>2022-09-26T07:48:40.408Z</time>
      </trkpt>
      <trkpt lat="46.82276" lon="15.41262">
        <ele>352.285894</ele>
        <time>2022-09-26T07:48:45.380Z</time>
      </trkpt>
      <trkpt lat="46.82284" lon="15.41269">
        <ele>352.325491</ele>
        <time>2022-09-26T07:48:49.404Z</time>
      </trkpt>
      <trkpt lat="46.82291" lon="15.41278">
        <ele>352.367013</ele>
        <time>2022-09-26T07:48:54.441Z</time>
      </trkpt>
      <trkpt lat="46.82297" lon="15.41289">
        <ele>352.408589</ele>
        <time>2022-09-26T07:49:00.399Z</time>
      </trkpt>
      <trkpt lat="46.823" lon="15.41302">
        <ele>352.638456</ele>
        <time>2022-09-26T07:49:07.409Z</time>
      </trkpt>
      <trkpt lat="46.82302" lon="15.41316">
        <ele>352.899437</ele>
        <time>2022-09-26T07:49:15.381Z</time>
      </trkpt>
      <trkpt lat="46.82302" lon="15.41329">
        <ele>353.155809</ele>
        <time>2022-09-26T07:49:22.395Z</time>
      </trkpt>
      <trkpt lat="46.82302" lon="15.41344">
        <ele>353.431087</ele>
        <time>2022-09-26T07:49:29.404Z</time>
      </trkpt>
      <trkpt lat="46.82303" lon="15.41358">
        <ele>353.689579</ele>
        <time>2022-09-26T07:49:36.400Z</time>
      </trkpt>
      <trkpt lat="46.82302" lon="15.41372">
        <ele>353.952315</ele>
        <time>2022-09-26T07:49:43.400Z</time>
      </trkpt>
      <trkpt lat="46.82301" lon="15.41386">
        <ele>354.219537</ele>
        <time>2022-09-26T07:49:50.398Z</time>
      </trkpt>
      <trkpt lat="46.823" lon="15.41401">
        <ele>354.498748</ele>
        <time>2022-09-26T07:49:58.414Z</time>
      </trkpt>
      <trkpt lat="46.82301" lon="15.41414">
        <ele>354.753294</ele>
        <time>2022-09-26T07:50:05.410Z</time>
      </trkpt>
      <trkpt lat="46.82304" lon="15.41429">
        <ele>355.042292</ele>
        <time>2022-09-26T07:50:12.408Z</time>
      </trkpt>
      <trkpt lat="46.82312" lon="15.41441">
        <ele>355.362616</ele>
        <time>2022-09-26T07:50:17.440Z</time>
      </trkpt>
      <trkpt lat="46.82326" lon="15.41447">
        <ele>355.749275</ele>
        <time>2022-09-26T07:50:20.401Z</time>
      </trkpt>
      <trkpt lat="46.82337" lon="15.4145">
        <ele>356.073281</ele>
        <time>2022-09-26T07:50:22.435Z</time>
      </trkpt>
      <trkpt lat="46.8235" lon="15.41454">
        <ele>356.431595</ele>
        <time>2022-09-26T07:50:24.398Z</time>
      </trkpt>
      <trkpt lat="46.82364" lon="15.4146">
        <ele>356.840952</ele>
        <time>2022-09-26T07:50:26.398Z</time>
      </trkpt>
      <trkpt lat="46.82378" lon="15.41467">
        <ele>357.252038</ele>
        <time>2022-09-26T07:50:28.400Z</time>
      </trkpt>
      <trkpt lat="46.82393" lon="15.41473">
        <ele>356.566281</ele>
        <time>2022-09-26T07:50:30.417Z</time>
      </trkpt>
      <trkpt lat="46.82411" lon="15.41481">
        <ele>355.262473</ele>
        <time>2022-09-26T07:50:32.404Z</time>
      </trkpt>
      <trkpt lat="46.8242" lon="15.41485">
        <ele>354.550877</ele>
        <time>2022-09-26T07:50:33.455Z</time>
      </trkpt>
      <trkpt lat="46.8243" lon="15.41489">
        <ele>353.811717</ele>
        <time>2022-09-26T07:50:34.391Z</time>
      </trkpt>
      <trkpt lat="46.8244" lon="15.41492">
        <ele>353.109579</ele>
        <time>2022-09-26T07:50:35.392Z</time>
      </trkpt>
      <trkpt lat="46.82456" lon="15.41499">
        <ele>351.868834</ele>
        <time>2022-09-26T07:50:37.412Z</time>
      </trkpt>
      <trkpt lat="46.82472" lon="15.41505">
        <ele>350.733082</ele>
        <time>2022-09-26T07:50:39.403Z</time>
      </trkpt>
      <trkpt lat="46.82487" lon="15.41508">
        <ele>349.64341</ele>
        <time>2022-09-26T07:50:41.402Z</time>
      </trkpt>
      <trkpt lat="46.82503" lon="15.4151">
        <ele>348.523151</ele>
        <time>2022-09-26T07:50:43.410Z</time>
      </trkpt>
      <trkpt lat="46.82519" lon="15.41512">
        <ele>347.369981</ele>
        <time>2022-09-26T07:50:45.407Z</time>
      </trkpt>
      <trkpt lat="46.82535" lon="15.41514">
        <ele>346.192887</ele>
        <time>2022-09-26T07:50:47.395Z</time>
      </trkpt>
      <trkpt lat="46.82551" lon="15.41516">
        <ele>345.033615</ele>
        <time>2022-09-26T07:50:49.416Z</time>
      </trkpt>
      <trkpt lat="46.82568" lon="15.41516">
        <ele>344.23783</ele>
        <time>2022-09-26T07:50:51.409Z</time>
      </trkpt>
      <trkpt lat="46.82584" lon="15.41516">
        <ele>343.734445</ele>
        <time>2022-09-26T07:50:53.403Z</time>
      </trkpt>
      <trkpt lat="46.82599" lon="15.41515">
        <ele>343.258993</ele>
        <time>2022-09-26T07:50:55.437Z</time>
      </trkpt>
      <trkpt lat="46.82614" lon="15.41515">
        <ele>342.787142</ele>
        <time>2022-09-26T07:50:57.423Z</time>
      </trkpt>
      <trkpt lat="46.82628" lon="15.41516">
        <ele>342.335703</ele>
        <time>2022-09-26T07:50:59.438Z</time>
      </trkpt>
      <trkpt lat="46.82642" lon="15.41519">
        <ele>341.912095</ele>
        <time>2022-09-26T07:51:01.411Z</time>
      </trkpt>
      <trkpt lat="46.82655" lon="15.41524">
        <ele>341.486448</ele>
        <time>2022-09-26T07:51:03.402Z</time>
      </trkpt>
      <trkpt lat="46.82668" lon="15.41527">
        <ele>341.082603</ele>
        <time>2022-09-26T07:51:05.410Z</time>
      </trkpt>
      <trkpt lat="46.82678" lon="15.4153">
        <ele>340.746741</ele>
        <time>2022-09-26T07:51:07.406Z</time>
      </trkpt>
      <trkpt lat="46.82689" lon="15.41532">
        <ele>340.414648</ele>
        <time>2022-09-26T07:51:09.399Z</time>
      </trkpt>
      <trkpt lat="46.82699" lon="15.41534">
        <ele>340.084294</ele>
        <time>2022-09-26T07:51:11.388Z</time>
      </trkpt>
      <trkpt lat="46.82709" lon="15.41535">
        <ele>339.779263</ele>
        <time>2022-09-26T07:51:13.397Z</time>
      </trkpt>
      <trkpt lat="46.82719" lon="15.41538">
        <ele>339.476845</ele>
        <time>2022-09-26T07:51:15.415Z</time>
      </trkpt>
      <trkpt lat="46.82728" lon="15.4154">
        <ele>339.166691</ele>
        <time>2022-09-26T07:51:17.407Z</time>
      </trkpt>
      <trkpt lat="46.82738" lon="15.41542">
        <ele>338.92205</ele>
        <time>2022-09-26T07:51:19.438Z</time>
      </trkpt>
      <trkpt lat="46.8275" lon="15.41544">
        <ele>339.200942</ele>
        <time>2022-09-26T07:51:22.405Z</time>
      </trkpt>
      <trkpt lat="46.82762" lon="15.41547">
        <ele>339.500306</ele>
        <time>2022-09-26T07:51:25.408Z</time>
      </trkpt>
      <trkpt lat="46.82774" lon="15.41551">
        <ele>339.774904</ele>
        <time>2022-09-26T07:51:28.410Z</time>
      </trkpt>
      <trkpt lat="46.82784" lon="15.41554">
        <ele>340.001683</ele>
        <time>2022-09-26T07:51:31.408Z</time>
      </trkpt>
      <trkpt lat="46.82794" lon="15.41555">
        <ele>340.23957</ele>
        <time>2022-09-26T07:51:34.479Z</time>
      </trkpt>
      <trkpt lat="46.82804" lon="15.41557">
        <ele>340.47097</ele>
        <time>2022-09-26T07:51:37.419Z</time>
      </trkpt>
      <trkpt lat="46.82815" lon="15.41559">
        <ele>340.71168</ele>
        <time>2022-09-26T07:51:40.436Z</time>
      </trkpt>
      <trkpt lat="46.82825" lon="15.4156">
        <ele>340.956263</ele>
        <time>2022-09-26T07:51:43.399Z</time>
      </trkpt>
      <trkpt lat="46.82836" lon="15.41562">
        <ele>341.201003</ele>
        <time>2022-09-26T07:51:46.378Z</time>
      </trkpt>
      <trkpt lat="46.82847" lon="15.41565">
        <ele>341.467605</ele>
        <time>2022-09-26T07:51:49.411Z</time>
      </trkpt>
      <trkpt lat="46.82859" lon="15.41569">
        <ele>341.741271</ele>
        <time>2022-09-26T07:51:52.402Z</time>
      </trkpt>
      <trkpt lat="46.82871" lon="15.41572">
        <ele>342.015238</ele>
        <time>2022-09-26T07:51:55.407Z</time>
      </trkpt>
      <trkpt lat="46.82882" lon="15.41576">
        <ele>342.282262</ele>
        <time>2022-09-26T07:51:58.412Z</time>
      </trkpt>
      <trkpt lat="46.82893" lon="15.4158">
        <ele>342.554497</ele>
        <time>2022-09-26T07:52:01.408Z</time>
      </trkpt>
      <trkpt lat="46.82904" lon="15.41584">
        <ele>342.804076</ele>
        <time>2022-09-26T07:52:04.414Z</time>
      </trkpt>
      <trkpt lat="46.82915" lon="15.41587">
        <ele>343.029202</ele>
        <time>2022-09-26T07:52:07.404Z</time>
      </trkpt>
      <trkpt lat="46.82925" lon="15.41591">
        <ele>342.958862</ele>
        <time>2022-09-26T07:52:10.408Z</time>
      </trkpt>
      <trkpt lat="46.82936" lon="15.41594">
        <ele>342.891379</ele>
        <time>2022-09-26T07:52:13.413Z</time>
      </trkpt>
      <trkpt lat="46.82948" lon="15.41597">
        <ele>342.815819</ele>
        <time>2022-09-26T07:52:16.390Z</time>
      </trkpt>
      <trkpt lat="46.82959" lon="15.41602">
        <ele>342.739424</ele>
        <time>2022-09-26T07:52:19.406Z</time>
      </trkpt>
      <trkpt lat="46.82972" lon="15.41606">
        <ele>342.656857</ele>
        <time>2022-09-26T07:52:22.436Z</time>
      </trkpt>
      <trkpt lat="46.82984" lon="15.41612">
        <ele>342.574633</ele>
        <time>2022-09-26T07:52:25.408Z</time>
      </trkpt>
      <trkpt lat="46.82997" lon="15.41619">
        <ele>342.489905</ele>
        <time>2022-09-26T07:52:28.398Z</time>
      </trkpt>
      <trkpt lat="46.83006" lon="15.41622">
        <ele>342.430403</ele>
        <time>2022-09-26T07:52:30.406Z</time>
      </trkpt>
      <trkpt lat="46.83016" lon="15.41624">
        <ele>342.367394</ele>
        <time>2022-09-26T07:52:32.383Z</time>
      </trkpt>
      <trkpt lat="46.83025" lon="15.41627">
        <ele>342.305941</ele>
        <time>2022-09-26T07:52:34.396Z</time>
      </trkpt>
      <trkpt lat="46.83035" lon="15.4163">
        <ele>342.24378</ele>
        <time>2022-09-26T07:52:36.396Z</time>
      </trkpt>
      <trkpt lat="46.83044" lon="15.41633">
        <ele>342.185245</ele>
        <time>2022-09-26T07:52:38.392Z</time>
      </trkpt>
      <trkpt lat="46.83057" lon="15.41637">
        <ele>342.101625</ele>
        <time>2022-09-26T07:52:41.382Z</time>
      </trkpt>
      <trkpt lat="46.83065" lon="15.4164">
        <ele>342.04452</ele>
        <time>2022-09-26T07:52:43.405Z</time>
      </trkpt>
      <trkpt lat="46.83074" lon="15.41643">
        <ele>341.986603</ele>
        <time>2022-09-26T07:52:45.407Z</time>
      </trkpt>
      <trkpt lat="46.83083" lon="15.41646">
        <ele>341.927869</ele>
        <time>2022-09-26T07:52:47.393Z</time>
      </trkpt>
      <trkpt lat="46.83092" lon="15.41651">
        <ele>341.880806</ele>
        <time>2022-09-26T07:52:49.405Z</time>
      </trkpt>
      <trkpt lat="46.83101" lon="15.41657">
        <ele>341.848979</ele>
        <time>2022-09-26T07:52:51.408Z</time>
      </trkpt>
      <trkpt lat="46.83109" lon="15.41665">
        <ele>341.817706</ele>
        <time>2022-09-26T07:52:53.404Z</time>
      </trkpt>
      <trkpt lat="46.83117" lon="15.41675">
        <ele>341.786294</ele>
        <time>2022-09-26T07:52:55.409Z</time>
      </trkpt>
      <trkpt lat="46.83123" lon="15.41685">
        <ele>341.755787</ele>
        <time>2022-09-26T07:52:57.396Z</time>
      </trkpt>
      <trkpt lat="46.83129" lon="15.41695">
        <ele>341.726302</ele>
        <time>2022-09-26T07:52:59.407Z</time>
      </trkpt>
      <trkpt lat="46.83138" lon="15.41711">
        <ele>341.68342</ele>
        <time>2022-09-26T07:53:02.410Z</time>
      </trkpt>
      <trkpt lat="46.83145" lon="15.41726">
        <ele>341.640965</ele>
        <time>2022-09-26T07:53:05.416Z</time>
      </trkpt>
      <trkpt lat="46.83153" lon="15.41742">
        <ele>341.599031</ele>
        <time>2022-09-26T07:53:08.403Z</time>
      </trkpt>
      <trkpt lat="46.8316" lon="15.41756">
        <ele>341.559616</ele>
        <time>2022-09-26T07:53:11.402Z</time>
      </trkpt>
      <trkpt lat="46.83168" lon="15.4177">
        <ele>341.520758</ele>
        <time>2022-09-26T07:53:14.410Z</time>
      </trkpt>
      <trkpt lat="46.83175" lon="15.41784">
        <ele>341.482384</ele>
        <time>2022-09-26T07:53:17.379Z</time>
      </trkpt>
      <trkpt lat="46.83183" lon="15.41797">
        <ele>341.445</ele>
        <time>2022-09-26T07:53:20.403Z</time>
      </trkpt>
      <trkpt lat="46.8319" lon="15.41809">
        <ele>341.408616</ele>
        <time>2022-09-26T07:53:23.452Z</time>
      </trkpt>
      <trkpt lat="46.83198" lon="15.41821">
        <ele>341.372928</ele>
        <time>2022-09-26T07:53:26.387Z</time>
      </trkpt>
      <trkpt lat="46.83206" lon="15.41833">
        <ele>341.337838</ele>
        <time>2022-09-26T07:53:29.395Z</time>
      </trkpt>
      <trkpt lat="46.83213" lon="15.41843">
        <ele>341.394588</ele>
        <time>2022-09-26T07:53:32.420Z</time>
      </trkpt>
      <trkpt lat="46.83221" lon="15.41855">
        <ele>341.57365</ele>
        <time>2022-09-26T07:53:35.399Z</time>
      </trkpt>
      <trkpt lat="46.83229" lon="15.41866">
        <ele>341.752391</ele>
        <time>2022-09-26T07:53:38.392Z</time>
      </trkpt>
      <trkpt lat="46.83237" lon="15.41877">
        <ele>341.933315</ele>
        <time>2022-09-26T07:53:41.409Z</time>
      </trkpt>
      <trkpt lat="46.83245" lon="15.41889">
        <ele>342.118504</ele>
        <time>2022-09-26T07:53:44.404Z</time>
      </trkpt>
      <trkpt lat="46.83254" lon="15.41901">
        <ele>342.310866</ele>
        <time>2022-09-26T07:53:47.429Z</time>
      </trkpt>
      <trkpt lat="46.83263" lon="15.41912">
        <ele>342.500844</ele>
        <time>2022-09-26T07:53:50.406Z</time>
      </trkpt>
      <trkpt lat="46.83273" lon="15.41922">
        <ele>342.694382</ele>
        <time>2022-09-26T07:53:53.406Z</time>
      </trkpt>
      <trkpt lat="46.83281" lon="15.41934">
        <ele>342.879998</ele>
        <time>2022-09-26T07:53:56.434Z</time>
      </trkpt>
      <trkpt lat="46.83289" lon="15.41946">
        <ele>343.064182</ele>
        <time>2022-09-26T07:53:59.405Z</time>
      </trkpt>
      <trkpt lat="46.83296" lon="15.41958">
        <ele>343.24385</ele>
        <time>2022-09-26T07:54:02.432Z</time>
      </trkpt>
      <trkpt lat="46.83302" lon="15.41971">
        <ele>343.414169</ele>
        <time>2022-09-26T07:54:05.414Z</time>
      </trkpt>
      <trkpt lat="46.83308" lon="15.41983">
        <ele>343.582562</ele>
        <time>2022-09-26T07:54:08.406Z</time>
      </trkpt>
      <trkpt lat="46.83312" lon="15.41998">
        <ele>343.753949</ele>
        <time>2022-09-26T07:54:11.411Z</time>
      </trkpt>
      <trkpt lat="46.83317" lon="15.42011">
        <ele>343.919824</ele>
        <time>2022-09-26T07:54:14.411Z</time>
      </trkpt>
      <trkpt lat="46.83323" lon="15.42023">
        <ele>344.082614</ele>
        <time>2022-09-26T07:54:17.406Z</time>
      </trkpt>
      <trkpt lat="46.83329" lon="15.42034">
        <ele>344.24114</ele>
        <time>2022-09-26T07:54:20.407Z</time>
      </trkpt>
      <trkpt lat="46.8334" lon="15.4204">
        <ele>344.35822</ele>
        <time>2022-09-26T07:54:23.411Z</time>
      </trkpt>
      <trkpt lat="46.83351" lon="15.42039">
        <ele>344.479086</ele>
        <time>2022-09-26T07:54:26.388Z</time>
      </trkpt>
      <trkpt lat="46.83361" lon="15.42035">
        <ele>344.588466</ele>
        <time>2022-09-26T07:54:29.432Z</time>
      </trkpt>
      <trkpt lat="46.83371" lon="15.42032">
        <ele>344.68897</ele>
        <time>2022-09-26T07:54:32.419Z</time>
      </trkpt>
      <trkpt lat="46.8338" lon="15.42027">
        <ele>344.793266</ele>
        <time>2022-09-26T07:54:35.406Z</time>
      </trkpt>
      <trkpt lat="46.83391" lon="15.42021">
        <ele>344.911843</ele>
        <time>2022-09-26T07:54:38.424Z</time>
      </trkpt>
      <trkpt lat="46.83401" lon="15.42013">
        <ele>345.031928</ele>
        <time>2022-09-26T07:54:41.403Z</time>
      </trkpt>
      <trkpt lat="46.8341" lon="15.42004">
        <ele>345.149163</ele>
        <time>2022-09-26T07:54:44.417Z</time>
      </trkpt>
      <trkpt lat="46.83419" lon="15.41992">
        <ele>345.272645</ele>
        <time>2022-09-26T07:54:47.479Z</time>
      </trkpt>
      <trkpt lat="46.83428" lon="15.4198">
        <ele>345.399149</ele>
        <time>2022-09-26T07:54:50.470Z</time>
      </trkpt>
      <trkpt lat="46.83436" lon="15.41966">
        <ele>345.529448</ele>
        <time>2022-09-26T07:54:53.421Z</time>
      </trkpt>
      <trkpt lat="46.83445" lon="15.41956">
        <ele>345.64597</ele>
        <time>2022-09-26T07:54:56.397Z</time>
      </trkpt>
      <trkpt lat="46.83455" lon="15.41953">
        <ele>345.757721</ele>
        <time>2022-09-26T07:54:59.403Z</time>
      </trkpt>
      <trkpt lat="46.83465" lon="15.41958">
        <ele>345.864306</ele>
        <time>2022-09-26T07:55:02.442Z</time>
      </trkpt>
      <trkpt lat="46.83473" lon="15.41965">
        <ele>345.960983</ele>
        <time>2022-09-26T07:55:05.434Z</time>
      </trkpt>
      <trkpt lat="46.83482" lon="15.41973">
        <ele>346.068095</ele>
        <time>2022-09-26T07:55:09.416Z</time>
      </trkpt>
      <trkpt lat="46.8349" lon="15.4198">
        <ele>346.14321</ele>
        <time>2022-09-26T07:55:13.396Z</time>
      </trkpt>
      <trkpt lat="46.83498" lon="15.41988">
        <ele>346.21138</ele>
        <time>2022-09-26T07:55:17.394Z</time>
      </trkpt>
      <trkpt lat="46.83507" lon="15.41999">
        <ele>346.288412</ele>
        <time>2022-09-26T07:55:21.405Z</time>
      </trkpt>
      <trkpt lat="46.83513" lon="15.42012">
        <ele>346.360815</ele>
        <time>2022-09-26T07:55:25.434Z</time>
      </trkpt>
      <trkpt lat="46.83519" lon="15.42025">
        <ele>346.433275</ele>
        <time>2022-09-26T07:55:29.394Z</time>
      </trkpt>
      <trkpt lat="46.83525" lon="15.42038">
        <ele>346.50732</ele>
        <time>2022-09-26T07:55:33.402Z</time>
      </trkpt>
      <trkpt lat="46.83532" lon="15.4205">
        <ele>346.581836</ele>
        <time>2022-09-26T07:55:37.408Z</time>
      </trkpt>
      <trkpt lat="46.8354" lon="15.42063">
        <ele>346.660866</ele>
        <time>2022-09-26T07:55:41.426Z</time>
      </trkpt>
      <trkpt lat="46.83549" lon="15.42072">
        <ele>346.734712</ele>
        <time>2022-09-26T07:55:45.410Z</time>
      </trkpt>
      <trkpt lat="46.83557" lon="15.42081">
        <ele>346.804183</ele>
        <time>2022-09-26T07:55:49.410Z</time>
      </trkpt>
      <trkpt lat="46.83565" lon="15.42091">
        <ele>346.874559</ele>
        <time>2022-09-26T07:55:53.414Z</time>
      </trkpt>
      <trkpt lat="46.83573" lon="15.421">
        <ele>346.940637</ele>
        <time>2022-09-26T07:55:57.463Z</time>
      </trkpt>
      <trkpt lat="46.8358" lon="15.4211">
        <ele>347.007916</ele>
        <time>2022-09-26T07:56:01.404Z</time>
      </trkpt>
      <trkpt lat="46.83588" lon="15.42119">
        <ele>347.074892</ele>
        <time>2022-09-26T07:56:05.415Z</time>
      </trkpt>
      <trkpt lat="46.83594" lon="15.42131">
        <ele>347.140856</ele>
        <time>2022-09-26T07:56:09.398Z</time>
      </trkpt>
      <trkpt lat="46.83598" lon="15.42145">
        <ele>347.213108</ele>
        <time>2022-09-26T07:56:13.407Z</time>
      </trkpt>
      <trkpt lat="46.83606" lon="15.42154">
        <ele>347.282621</ele>
        <time>2022-09-26T07:56:17.400Z</time>
      </trkpt>
      <trkpt lat="46.83615" lon="15.42165">
        <ele>347.382925</ele>
        <time>2022-09-26T07:56:21.453Z</time>
      </trkpt>
      <trkpt lat="46.83623" lon="15.42175">
        <ele>347.483164</ele>
        <time>2022-09-26T07:56:24.421Z</time>
      </trkpt>
      <trkpt lat="46.83631" lon="15.42184">
        <ele>347.586479</ele>
        <time>2022-09-26T07:56:27.398Z</time>
      </trkpt>
      <trkpt lat="46.8364" lon="15.42193">
        <ele>347.692227</ele>
        <time>2022-09-26T07:56:30.395Z</time>
      </trkpt>
      <trkpt lat="46.83649" lon="15.42201">
        <ele>347.797479</ele>
        <time>2022-09-26T07:56:33.414Z</time>
      </trkpt>
      <trkpt lat="46.83658" lon="15.42208">
        <ele>347.903052</ele>
        <time>2022-09-26T07:56:36.394Z</time>
      </trkpt>
      <trkpt lat="46.83668" lon="15.42216">
        <ele>348.01317</ele>
        <time>2022-09-26T07:56:39.395Z</time>
      </trkpt>
      <trkpt lat="46.83679" lon="15.42222">
        <ele>348.131505</ele>
        <time>2022-09-26T07:56:42.406Z</time>
      </trkpt>
      <trkpt lat="46.8369" lon="15.42228">
        <ele>348.250085</ele>
        <time>2022-09-26T07:56:45.407Z</time>
      </trkpt>
      <trkpt lat="46.83702" lon="15.42235">
        <ele>348.371016</ele>
        <time>2022-09-26T07:56:48.386Z</time>
      </trkpt>
      <trkpt lat="46.83713" lon="15.4224">
        <ele>348.488678</ele>
        <time>2022-09-26T07:56:51.399Z</time>
      </trkpt>
      <trkpt lat="46.83724" lon="15.42245">
        <ele>348.603074</ele>
        <time>2022-09-26T07:56:54.421Z</time>
      </trkpt>
      <trkpt lat="46.83735" lon="15.4225">
        <ele>348.720648</ele>
        <time>2022-09-26T07:56:57.422Z</time>
      </trkpt>
      <trkpt lat="46.83746" lon="15.42255">
        <ele>348.834622</ele>
        <time>2022-09-26T07:57:00.392Z</time>
      </trkpt>
      <trkpt lat="46.83757" lon="15.42261">
        <ele>348.946913</ele>
        <time>2022-09-26T07:57:03.407Z</time>
      </trkpt>
      <trkpt lat="46.83768" lon="15.42266">
        <ele>349.062469</ele>
        <time>2022-09-26T07:57:06.419Z</time>
      </trkpt>
      <trkpt lat="46.83779" lon="15.42272">
        <ele>348.941743</ele>
        <time>2022-09-26T07:57:09.423Z</time>
      </trkpt>
      <trkpt lat="46.83788" lon="15.42276">
        <ele>348.736286</ele>
        <time>2022-09-26T07:57:11.420Z</time>
      </trkpt>
      <trkpt lat="46.83797" lon="15.4228">
        <ele>348.523455</ele>
        <time>2022-09-26T07:57:13.414Z</time>
      </trkpt>
      <trkpt lat="46.83806" lon="15.42284">
        <ele>348.304176</ele>
        <time>2022-09-26T07:57:15.419Z</time>
      </trkpt>
      <trkpt lat="46.83816" lon="15.42289">
        <ele>348.069203</ele>
        <time>2022-09-26T07:57:17.386Z</time>
      </trkpt>
      <trkpt lat="46.83827" lon="15.42294">
        <ele>347.80929</ele>
        <time>2022-09-26T07:57:19.411Z</time>
      </trkpt>
      <trkpt lat="46.83838" lon="15.42298">
        <ele>347.545178</ele>
        <time>2022-09-26T07:57:21.402Z</time>
      </trkpt>
      <trkpt lat="46.8385" lon="15.42303">
        <ele>347.278757</ele>
        <time>2022-09-26T07:57:23.470Z</time>
      </trkpt>
      <trkpt lat="46.83862" lon="15.42308">
        <ele>346.982055</ele>
        <time>2022-09-26T07:57:25.393Z</time>
      </trkpt>
      <trkpt lat="46.83876" lon="15.42315">
        <ele>346.656119</ele>
        <time>2022-09-26T07:57:27.402Z</time>
      </trkpt>
      <trkpt lat="46.83891" lon="15.42325">
        <ele>346.285473</ele>
        <time>2022-09-26T07:57:29.413Z</time>
      </trkpt>
      <trkpt lat="46.83905" lon="15.4234">
        <ele>345.898021</ele>
        <time>2022-09-26T07:57:31.400Z</time>
      </trkpt>
      <trkpt lat="46.8391" lon="15.4235">
        <ele>345.695267</ele>
        <time>2022-09-26T07:57:32.409Z</time>
      </trkpt>
      <trkpt lat="46.83915" lon="15.42361">
        <ele>345.487946</ele>
        <time>2022-09-26T07:57:33.442Z</time>
      </trkpt>
      <trkpt lat="46.83919" lon="15.42374">
        <ele>345.283701</ele>
        <time>2022-09-26T07:57:34.424Z</time>
      </trkpt>
      <trkpt lat="46.83923" lon="15.42387">
        <ele>345.056645</ele>
        <time>2022-09-26T07:57:35.419Z</time>
      </trkpt>
      <trkpt lat="46.83926" lon="15.42401">
        <ele>344.712441</ele>
        <time>2022-09-26T07:57:36.407Z</time>
      </trkpt>
      <trkpt lat="46.83927" lon="15.42414">
        <ele>344.392601</ele>
        <time>2022-09-26T07:57:37.410Z</time>
      </trkpt>
      <trkpt lat="46.8393" lon="15.42439">
        <ele>343.781601</ele>
        <time>2022-09-26T07:57:39.407Z</time>
      </trkpt>
      <trkpt lat="46.83934" lon="15.42461">
        <ele>343.21713</ele>
        <time>2022-09-26T07:57:41.410Z</time>
      </trkpt>
      <trkpt lat="46.83939" lon="15.42482">
        <ele>342.695807</ele>
        <time>2022-09-26T07:57:43.392Z</time>
      </trkpt>
      <trkpt lat="46.83947" lon="15.42498">
        <ele>342.20705</ele>
        <time>2022-09-26T07:57:45.403Z</time>
      </trkpt>
      <trkpt lat="46.83959" lon="15.42507">
        <ele>341.716958</ele>
        <time>2022-09-26T07:57:47.407Z</time>
      </trkpt>
      <trkpt lat="46.83971" lon="15.42514">
        <ele>341.279006</ele>
        <time>2022-09-26T07:57:49.483Z</time>
      </trkpt>
      <trkpt lat="46.83982" lon="15.42522">
        <ele>340.852432</ele>
        <time>2022-09-26T07:57:51.401Z</time>
      </trkpt>
      <trkpt lat="46.83991" lon="15.42531">
        <ele>340.46452</ele>
        <time>2022-09-26T07:57:53.405Z</time>
      </trkpt>
      <trkpt lat="46.83999" lon="15.42541">
        <ele>340.093245</ele>
        <time>2022-09-26T07:57:55.384Z</time>
      </trkpt>
      <trkpt lat="46.84005" lon="15.42551">
        <ele>339.749105</ele>
        <time>2022-09-26T07:57:57.402Z</time>
      </trkpt>
      <trkpt lat="46.84015" lon="15.42565">
        <ele>339.282473</ele>
        <time>2022-09-26T07:58:00.411Z</time>
      </trkpt>
      <trkpt lat="46.84023" lon="15.42577">
        <ele>338.874347</ele>
        <time>2022-09-26T07:58:03.397Z</time>
      </trkpt>
      <trkpt lat="46.84032" lon="15.42589">
        <ele>338.655295</ele>
        <time>2022-09-26T07:58:06.397Z</time>
      </trkpt>
      <trkpt lat="46.84042" lon="15.42599">
        <ele>338.579662</ele>
        <time>2022-09-26T07:58:09.417Z</time>
      </trkpt>
      <trkpt lat="46.84054" lon="15.42606">
        <ele>338.497053</ele>
        <time>2022-09-26T07:58:12.405Z</time>
      </trkpt>
      <trkpt lat="46.84063" lon="15.4261">
        <ele>338.43437</ele>
        <time>2022-09-26T07:58:14.410Z</time>
      </trkpt>
      <trkpt lat="46.84073" lon="15.42613">
        <ele>338.371067</ele>
        <time>2022-09-26T07:58:16.392Z</time>
      </trkpt>
      <trkpt lat="46.84083" lon="15.42618">
        <ele>338.30234</ele>
        <time>2022-09-26T07:58:18.410Z</time>
      </trkpt>
      <trkpt lat="46.84093" lon="15.42623">
        <ele>338.231406</ele>
        <time>2022-09-26T07:58:20.400Z</time>
      </trkpt>
      <trkpt lat="46.84105" lon="15.42628">
        <ele>338.150577</ele>
        <time>2022-09-26T07:58:22.440Z</time>
      </trkpt>
      <trkpt lat="46.84118" lon="15.42634">
        <ele>338.063472</ele>
        <time>2022-09-26T07:58:24.402Z</time>
      </trkpt>
      <trkpt lat="46.84132" lon="15.4264">
        <ele>337.97191</ele>
        <time>2022-09-26T07:58:26.390Z</time>
      </trkpt>
      <trkpt lat="46.84146" lon="15.42647">
        <ele>337.875595</ele>
        <time>2022-09-26T07:58:28.436Z</time>
      </trkpt>
      <trkpt lat="46.84161" lon="15.42656">
        <ele>337.773113</ele>
        <time>2022-09-26T07:58:30.408Z</time>
      </trkpt>
      <trkpt lat="46.84176" lon="15.42663">
        <ele>337.672451</ele>
        <time>2022-09-26T07:58:32.425Z</time>
      </trkpt>
      <trkpt lat="46.8419" lon="15.42672">
        <ele>337.574331</ele>
        <time>2022-09-26T07:58:34.399Z</time>
      </trkpt>
      <trkpt lat="46.84203" lon="15.42683">
        <ele>337.458681</ele>
        <time>2022-09-26T07:58:36.389Z</time>
      </trkpt>
      <trkpt lat="46.84212" lon="15.42692">
        <ele>337.366455</ele>
        <time>2022-09-26T07:58:38.409Z</time>
      </trkpt>
      <trkpt lat="46.84221" lon="15.42703">
        <ele>337.272316</ele>
        <time>2022-09-26T07:58:42.412Z</time>
      </trkpt>
      <trkpt lat="46.84228" lon="15.42713">
        <ele>337.191909</ele>
        <time>2022-09-26T07:58:45.398Z</time>
      </trkpt>
      <trkpt lat="46.84236" lon="15.42723">
        <ele>337.106496</ele>
        <time>2022-09-26T07:58:48.398Z</time>
      </trkpt>
      <trkpt lat="46.84244" lon="15.42734">
        <ele>337.019083</ele>
        <time>2022-09-26T07:58:51.413Z</time>
      </trkpt>
      <trkpt lat="46.84251" lon="15.42745">
        <ele>336.930695</ele>
        <time>2022-09-26T07:58:54.406Z</time>
      </trkpt>
      <trkpt lat="46.8426" lon="15.42757">
        <ele>336.835271</ele>
        <time>2022-09-26T07:58:57.393Z</time>
      </trkpt>
      <trkpt lat="46.84266" lon="15.42766">
        <ele>336.760891</ele>
        <time>2022-09-26T07:58:59.400Z</time>
      </trkpt>
      <trkpt lat="46.84272" lon="15.42777">
        <ele>336.681843</ele>
        <time>2022-09-26T07:59:01.433Z</time>
      </trkpt>
      <trkpt lat="46.84278" lon="15.42788">
        <ele>336.60646</ele>
        <time>2022-09-26T07:59:03.425Z</time>
      </trkpt>
      <trkpt lat="46.84285" lon="15.42804">
        <ele>336.498467</ele>
        <time>2022-09-26T07:59:06.393Z</time>
      </trkpt>
      <trkpt lat="46.84291" lon="15.42819">
        <ele>336.398707</ele>
        <time>2022-09-26T07:59:09.416Z</time>
      </trkpt>
      <trkpt lat="46.84295" lon="15.42835">
        <ele>336.306919</ele>
        <time>2022-09-26T07:59:12.446Z</time>
      </trkpt>
      <trkpt lat="46.84298" lon="15.42851">
        <ele>336.213297</ele>
        <time>2022-09-26T07:59:15.398Z</time>
      </trkpt>
      <trkpt lat="46.84301" lon="15.42869">
        <ele>336.109751</ele>
        <time>2022-09-26T07:59:18.422Z</time>
      </trkpt>
      <trkpt lat="46.84305" lon="15.42885">
        <ele>336.057721</ele>
        <time>2022-09-26T07:59:21.400Z</time>
      </trkpt>
      <trkpt lat="46.84308" lon="15.429">
        <ele>336.028027</ele>
        <time>2022-09-26T07:59:24.430Z</time>
      </trkpt>
      <trkpt lat="46.84313" lon="15.42917">
        <ele>335.994437</ele>
        <time>2022-09-26T07:59:27.412Z</time>
      </trkpt>
      <trkpt lat="46.84317" lon="15.42929">
        <ele>335.970284</ele>
        <time>2022-09-26T07:59:29.400Z</time>
      </trkpt>
      <trkpt lat="46.84324" lon="15.42945">
        <ele>335.936184</ele>
        <time>2022-09-26T07:59:32.396Z</time>
      </trkpt>
      <trkpt lat="46.84331" lon="15.4296">
        <ele>335.903903</ele>
        <time>2022-09-26T07:59:35.391Z</time>
      </trkpt>
      <trkpt lat="46.84338" lon="15.42971">
        <ele>335.876397</ele>
        <time>2022-09-26T07:59:38.401Z</time>
      </trkpt>
      <trkpt lat="46.84344" lon="15.42982">
        <ele>335.850412</ele>
        <time>2022-09-26T07:59:41.404Z</time>
      </trkpt>
      <trkpt lat="46.84352" lon="15.42993">
        <ele>335.822419</ele>
        <time>2022-09-26T07:59:44.395Z</time>
      </trkpt>
      <trkpt lat="46.8436" lon="15.43004">
        <ele>335.792335</ele>
        <time>2022-09-26T07:59:47.411Z</time>
      </trkpt>
      <trkpt lat="46.84368" lon="15.43014">
        <ele>335.763556</ele>
        <time>2022-09-26T07:59:50.411Z</time>
      </trkpt>
      <trkpt lat="46.84377" lon="15.43024">
        <ele>335.733184</ele>
        <time>2022-09-26T07:59:53.412Z</time>
      </trkpt>
      <trkpt lat="46.84387" lon="15.43033">
        <ele>335.702444</ele>
        <time>2022-09-26T07:59:56.433Z</time>
      </trkpt>
      <trkpt lat="46.84397" lon="15.43045">
        <ele>335.668807</ele>
        <time>2022-09-26T07:59:59.421Z</time>
      </trkpt>
      <trkpt lat="46.84407" lon="15.43058">
        <ele>335.633014</ele>
        <time>2022-09-26T08:00:02.407Z</time>
      </trkpt>
      <trkpt lat="46.84413" lon="15.43069">
        <ele>335.606678</ele>
        <time>2022-09-26T08:00:04.406Z</time>
      </trkpt>
      <trkpt lat="46.84421" lon="15.43084">
        <ele>335.461055</ele>
        <time>2022-09-26T08:00:07.429Z</time>
      </trkpt>
      <trkpt lat="46.84427" lon="15.43097">
        <ele>335.293738</ele>
        <time>2022-09-26T08:00:10.407Z</time>
      </trkpt>
      <trkpt lat="46.84434" lon="15.4311">
        <ele>335.128327</ele>
        <time>2022-09-26T08:00:13.402Z</time>
      </trkpt>
      <trkpt lat="46.84441" lon="15.43123">
        <ele>334.96842</ele>
        <time>2022-09-26T08:00:16.396Z</time>
      </trkpt>
      <trkpt lat="46.84447" lon="15.43137">
        <ele>334.808487</ele>
        <time>2022-09-26T08:00:19.416Z</time>
      </trkpt>
      <trkpt lat="46.84454" lon="15.4315">
        <ele>334.640978</ele>
        <time>2022-09-26T08:00:22.405Z</time>
      </trkpt>
      <trkpt lat="46.84461" lon="15.43165">
        <ele>334.463852</ele>
        <time>2022-09-26T08:00:25.406Z</time>
      </trkpt>
      <trkpt lat="46.84467" lon="15.43179">
        <ele>334.293969</ele>
        <time>2022-09-26T08:00:28.392Z</time>
      </trkpt>
      <trkpt lat="46.84473" lon="15.43194">
        <ele>334.11825</ele>
        <time>2022-09-26T08:00:31.408Z</time>
      </trkpt>
      <trkpt lat="46.8448" lon="15.4321">
        <ele>333.939386</ele>
        <time>2022-09-26T08:00:34.403Z</time>
      </trkpt>
      <trkpt lat="46.84487" lon="15.43225">
        <ele>333.748327</ele>
        <time>2022-09-26T08:00:37.400Z</time>
      </trkpt>
      <trkpt lat="46.84494" lon="15.43237">
        <ele>333.597661</ele>
        <time>2022-09-26T08:00:39.410Z</time>
      </trkpt>
      <trkpt lat="46.84501" lon="15.43247">
        <ele>333.463831</ele>
        <time>2022-09-26T08:00:41.408Z</time>
      </trkpt>
      <trkpt lat="46.8451" lon="15.43259">
        <ele>333.277529</ele>
        <time>2022-09-26T08:00:44.411Z</time>
      </trkpt>
      <trkpt lat="46.84517" lon="15.43269">
        <ele>333.130864</ele>
        <time>2022-09-26T08:00:47.430Z</time>
      </trkpt>
      <trkpt lat="46.84524" lon="15.4328">
        <ele>332.987396</ele>
        <time>2022-09-26T08:00:50.408Z</time>
      </trkpt>
      <trkpt lat="46.84529" lon="15.43293">
        <ele>333.498554</ele>
        <time>2022-09-26T08:00:53.394Z</time>
      </trkpt>
      <trkpt lat="46.84536" lon="15.43304">
        <ele>334.024748</ele>
        <time>2022-09-26T08:00:56.392Z</time>
      </trkpt>
      <trkpt lat="46.84542" lon="15.43317">
        <ele>334.581783</ele>
        <time>2022-09-26T08:01:00.395Z</time>
      </trkpt>
      <trkpt lat="46.84547" lon="15.43329">
        <ele>335.047809</ele>
        <time>2022-09-26T08:01:04.403Z</time>
      </trkpt>
      <trkpt lat="46.84555" lon="15.43343">
        <ele>335.697587</ele>
        <time>2022-09-26T08:01:08.415Z</time>
      </trkpt>
      <trkpt lat="46.8456" lon="15.43358">
        <ele>336.278057</ele>
        <time>2022-09-26T08:01:11.408Z</time>
      </trkpt>
      <trkpt lat="46.84564" lon="15.43375">
        <ele>336.883849</ele>
        <time>2022-09-26T08:01:14.414Z</time>
      </trkpt>
      <trkpt lat="46.84566" lon="15.43393">
        <ele>337.524262</ele>
        <time>2022-09-26T08:01:17.411Z</time>
      </trkpt>
      <trkpt lat="46.84566" lon="15.43412">
        <ele>338.202908</ele>
        <time>2022-09-26T08:01:20.388Z</time>
      </trkpt>
      <trkpt lat="46.84565" lon="15.43431">
        <ele>338.846389</ele>
        <time>2022-09-26T08:01:23.394Z</time>
      </trkpt>
      <trkpt lat="46.84565" lon="15.43448">
        <ele>339.462135</ele>
        <time>2022-09-26T08:01:26.391Z</time>
      </trkpt>
      <trkpt lat="46.84566" lon="15.43465">
        <ele>340.043967</ele>
        <time>2022-09-26T08:01:29.402Z</time>
      </trkpt>
      <trkpt lat="46.84569" lon="15.43479">
        <ele>340.550672</ele>
        <time>2022-09-26T08:01:32.411Z</time>
      </trkpt>
      <trkpt lat="46.84572" lon="15.43493">
        <ele>341.058506</ele>
        <time>2022-09-26T08:01:36.435Z</time>
      </trkpt>
      <trkpt lat="46.84578" lon="15.43505">
        <ele>341.552674</ele>
        <time>2022-09-26T08:01:40.414Z</time>
      </trkpt>
      <trkpt lat="46.84583" lon="15.43517">
        <ele>342.084001</ele>
        <time>2022-09-26T08:01:45.412Z</time>
      </trkpt>
      <trkpt lat="46.8459" lon="15.43541">
        <ele>342.704984</ele>
        <time>2022-09-26T08:03:55.424Z</time>
      </trkpt>
      <trkpt lat="46.84597" lon="15.43552">
        <ele>343.076531</ele>
        <time>2022-09-26T08:04:00.397Z</time>
      </trkpt>
      <trkpt lat="46.84603" lon="15.43563">
        <ele>343.414172</ele>
        <time>2022-09-26T08:04:06.389Z</time>
      </trkpt>
      <trkpt lat="46.84609" lon="15.43576">
        <ele>343.798879</ele>
        <time>2022-09-26T08:04:13.415Z</time>
      </trkpt>
      <trkpt lat="46.84616" lon="15.43587">
        <ele>344.162146</ele>
        <time>2022-09-26T08:04:17.405Z</time>
      </trkpt>
      <trkpt lat="46.84625" lon="15.43596">
        <ele>344.536395</ele>
        <time>2022-09-26T08:04:20.410Z</time>
      </trkpt>
      <trkpt lat="46.84633" lon="15.43606">
        <ele>344.909204</ele>
        <time>2022-09-26T08:04:23.410Z</time>
      </trkpt>
      <trkpt lat="46.84641" lon="15.43614">
        <ele>345.262147</ele>
        <time>2022-09-26T08:04:26.388Z</time>
      </trkpt>
      <trkpt lat="46.84651" lon="15.43623">
        <ele>345.643515</ele>
        <time>2022-09-26T08:04:29.415Z</time>
      </trkpt>
      <trkpt lat="46.8466" lon="15.43628">
        <ele>345.987351</ele>
        <time>2022-09-26T08:04:32.431Z</time>
      </trkpt>
      <trkpt lat="46.84669" lon="15.43636">
        <ele>346.376573</ele>
        <time>2022-09-26T08:04:35.400Z</time>
      </trkpt>
      <trkpt lat="46.84679" lon="15.43645">
        <ele>346.780598</ele>
        <time>2022-09-26T08:04:38.405Z</time>
      </trkpt>
      <trkpt lat="46.84686" lon="15.43654">
        <ele>347.098324</ele>
        <time>2022-09-26T08:04:40.403Z</time>
      </trkpt>
      <trkpt lat="46.84694" lon="15.43665">
        <ele>347.498994</ele>
        <time>2022-09-26T08:04:43.395Z</time>
      </trkpt>
      <trkpt lat="46.847" lon="15.43678">
        <ele>347.883602</ele>
        <time>2022-09-26T08:04:46.388Z</time>
      </trkpt>
      <trkpt lat="46.84706" lon="15.43691">
        <ele>348.246724</ele>
        <time>2022-09-26T08:04:49.420Z</time>
      </trkpt>
      <trkpt lat="46.84712" lon="15.43702">
        <ele>348.496569</ele>
        <time>2022-09-26T08:04:52.408Z</time>
      </trkpt>
      <trkpt lat="46.84718" lon="15.43716">
        <ele>348.634844</ele>
        <time>2022-09-26T08:04:56.388Z</time>
      </trkpt>
      <trkpt lat="46.84723" lon="15.43728">
        <ele>348.743123</ele>
        <time>2022-09-26T08:04:59.413Z</time>
      </trkpt>
      <trkpt lat="46.84727" lon="15.4374">
        <ele>348.851221</ele>
        <time>2022-09-26T08:05:02.404Z</time>
      </trkpt>
      <trkpt lat="46.84732" lon="15.43753">
        <ele>348.975713</ele>
        <time>2022-09-26T08:05:05.400Z</time>
      </trkpt>
      <trkpt lat="46.84737" lon="15.43767">
        <ele>349.10318</ele>
        <time>2022-09-26T08:05:09.441Z</time>
      </trkpt>
      <trkpt lat="46.84743" lon="15.43781">
        <ele>349.237387</ele>
        <time>2022-09-26T08:05:14.415Z</time>
      </trkpt>
      <trkpt lat="46.84748" lon="15.43793">
        <ele>349.350262</ele>
        <time>2022-09-26T08:05:18.404Z</time>
      </trkpt>
      <trkpt lat="46.84753" lon="15.43807">
        <ele>349.478444</ele>
        <time>2022-09-26T08:05:22.404Z</time>
      </trkpt>
      <trkpt lat="46.84759" lon="15.4382">
        <ele>349.601284</ele>
        <time>2022-09-26T08:05:27.401Z</time>
      </trkpt>
      <trkpt lat="46.84763" lon="15.43833">
        <ele>349.722807</ele>
        <time>2022-09-26T08:05:32.405Z</time>
      </trkpt>
      <trkpt lat="46.84768" lon="15.43846">
        <ele>349.843194</ele>
        <time>2022-09-26T08:05:38.401Z</time>
      </trkpt>
      <trkpt lat="46.84772" lon="15.43859">
        <ele>349.954386</ele>
        <time>2022-09-26T08:05:46.397Z</time>
      </trkpt>
      <trkpt lat="46.84776" lon="15.43871">
        <ele>350.064328</ele>
        <time>2022-09-26T08:05:53.442Z</time>
      </trkpt>
      <trkpt lat="46.84781" lon="15.43884">
        <ele>350.184949</ele>
        <time>2022-09-26T08:05:59.431Z</time>
      </trkpt>
      <trkpt lat="46.84785" lon="15.43896">
        <ele>350.296159</ele>
        <time>2022-09-26T08:06:05.395Z</time>
      </trkpt>
      <trkpt lat="46.84788" lon="15.4391">
        <ele>350.415724</ele>
        <time>2022-09-26T08:06:11.412Z</time>
      </trkpt>
      <trkpt lat="46.84791" lon="15.43925">
        <ele>350.545214</ele>
        <time>2022-09-26T08:06:15.409Z</time>
      </trkpt>
      <trkpt lat="46.84795" lon="15.43939">
        <ele>350.580965</ele>
        <time>2022-09-26T08:06:18.397Z</time>
      </trkpt>
      <trkpt lat="46.84801" lon="15.4395">
        <ele>350.57066</ele>
        <time>2022-09-26T08:06:22.437Z</time>
      </trkpt>
      <trkpt lat="46.84809" lon="15.43964">
        <ele>350.55816</ele>
        <time>2022-09-26T08:06:26.400Z</time>
      </trkpt>
      <trkpt lat="46.84814" lon="15.43977">
        <ele>350.546839</ele>
        <time>2022-09-26T08:06:30.403Z</time>
      </trkpt>
      <trkpt lat="46.84818" lon="15.4399">
        <ele>350.536712</ele>
        <time>2022-09-26T08:06:34.414Z</time>
      </trkpt>
      <trkpt lat="46.84821" lon="15.44004">
        <ele>350.526122</ele>
        <time>2022-09-26T08:06:43.412Z</time>
      </trkpt>
      <trkpt lat="46.84825" lon="15.44018">
        <ele>350.515801</ele>
        <time>2022-09-26T08:06:49.412Z</time>
      </trkpt>
      <trkpt lat="46.84826" lon="15.44032">
        <ele>350.505275</ele>
        <time>2022-09-26T08:06:56.395Z</time>
      </trkpt>
      <trkpt lat="46.84828" lon="15.44047">
        <ele>350.494543</ele>
        <time>2022-09-26T08:07:03.403Z</time>
      </trkpt>
      <trkpt lat="46.84828" lon="15.44061">
        <ele>350.484355</ele>
        <time>2022-09-26T08:07:08.414Z</time>
      </trkpt>
      <trkpt lat="46.84829" lon="15.44076">
        <ele>350.473275</ele>
        <time>2022-09-26T08:07:11.399Z</time>
      </trkpt>
      <trkpt lat="46.84831" lon="15.4409">
        <ele>350.46369</ele>
        <time>2022-09-26T08:07:13.402Z</time>
      </trkpt>
      <trkpt lat="46.84831" lon="15.44104">
        <ele>350.453562</ele>
        <time>2022-09-26T08:07:16.393Z</time>
      </trkpt>
      <trkpt lat="46.84833" lon="15.44119">
        <ele>350.442403</ele>
        <time>2022-09-26T08:07:19.398Z</time>
      </trkpt>
      <trkpt lat="46.84834" lon="15.44133">
        <ele>350.431882</ele>
        <time>2022-09-26T08:07:22.451Z</time>
      </trkpt>
      <trkpt lat="46.84837" lon="15.44147">
        <ele>350.422021</ele>
        <time>2022-09-26T08:07:25.413Z</time>
      </trkpt>
      <trkpt lat="46.84837" lon="15.44161">
        <ele>350.411743</ele>
        <time>2022-09-26T08:07:28.427Z</time>
      </trkpt>
      <trkpt lat="46.84837" lon="15.44177">
        <ele>350.400472</ele>
        <time>2022-09-26T08:07:31.396Z</time>
      </trkpt>
      <trkpt lat="46.84836" lon="15.44193">
        <ele>349.257238</ele>
        <time>2022-09-26T08:07:34.411Z</time>
      </trkpt>
      <trkpt lat="46.84838" lon="15.44209">
        <ele>348.010523</ele>
        <time>2022-09-26T08:07:37.411Z</time>
      </trkpt>
      <trkpt lat="46.84838" lon="15.44224">
        <ele>346.893097</ele>
        <time>2022-09-26T08:07:40.408Z</time>
      </trkpt>
      <trkpt lat="46.8484" lon="15.44241">
        <ele>345.547428</ele>
        <time>2022-09-26T08:07:43.408Z</time>
      </trkpt>
      <trkpt lat="46.84842" lon="15.44254">
        <ele>344.512797</ele>
        <time>2022-09-26T08:07:45.420Z</time>
      </trkpt>
      <trkpt lat="46.84843" lon="15.44268">
        <ele>343.403837</ele>
        <time>2022-09-26T08:07:47.410Z</time>
      </trkpt>
      <trkpt lat="46.84844" lon="15.44281">
        <ele>342.366177</ele>
        <time>2022-09-26T08:07:49.415Z</time>
      </trkpt>
      <trkpt lat="46.84843" lon="15.44296">
        <ele>341.218105</ele>
        <time>2022-09-26T08:07:51.412Z</time>
      </trkpt>
      <trkpt lat="46.84838" lon="15.44308">
        <ele>340.099231</ele>
        <time>2022-09-26T08:07:53.425Z</time>
      </trkpt>
      <trkpt lat="46.84832" lon="15.44319">
        <ele>339.034654</ele>
        <time>2022-09-26T08:07:55.444Z</time>
      </trkpt>
      <trkpt lat="46.84831" lon="15.44333">
        <ele>337.926422</ele>
        <time>2022-09-26T08:07:59.406Z</time>
      </trkpt>
      <trkpt lat="46.84841" lon="15.44339">
        <ele>336.620085</ele>
        <time>2022-09-26T08:08:02.396Z</time>
      </trkpt>
      <trkpt lat="46.8485" lon="15.44346">
        <ele>335.510432</ele>
        <time>2022-09-26T08:08:04.464Z</time>
      </trkpt>
      <trkpt lat="46.84857" lon="15.44355">
        <ele>334.395189</ele>
        <time>2022-09-26T08:08:06.400Z</time>
      </trkpt>
      <trkpt lat="46.84865" lon="15.44365">
        <ele>333.233974</ele>
        <time>2022-09-26T08:08:08.402Z</time>
      </trkpt>
      <trkpt lat="46.84874" lon="15.44374">
        <ele>332.04089</ele>
        <time>2022-09-26T08:08:10.442Z</time>
      </trkpt>
      <trkpt lat="46.84883" lon="15.44382">
        <ele>330.838083</ele>
        <time>2022-09-26T08:08:12.406Z</time>
      </trkpt>
      <trkpt lat="46.84892" lon="15.44387">
        <ele>330.02366</ele>
        <time>2022-09-26T08:08:14.401Z</time>
      </trkpt>
      <trkpt lat="46.84901" lon="15.44389">
        <ele>330.003808</ele>
        <time>2022-09-26T08:08:16.401Z</time>
      </trkpt>
      <trkpt lat="46.84914" lon="15.4439">
        <ele>329.977264</ele>
        <time>2022-09-26T08:08:19.414Z</time>
      </trkpt>
      <trkpt lat="46.84925" lon="15.44388">
        <ele>329.952217</ele>
        <time>2022-09-26T08:08:22.393Z</time>
      </trkpt>
      <trkpt lat="46.84935" lon="15.44385">
        <ele>329.931166</ele>
        <time>2022-09-26T08:08:25.398Z</time>
      </trkpt>
      <trkpt lat="46.84947" lon="15.4438">
        <ele>329.905391</ele>
        <time>2022-09-26T08:08:29.442Z</time>
      </trkpt>
      <trkpt lat="46.84958" lon="15.44375">
        <ele>329.880806</ele>
        <time>2022-09-26T08:08:33.409Z</time>
      </trkpt>
      <trkpt lat="46.84967" lon="15.44371">
        <ele>329.860689</ele>
        <time>2022-09-26T08:08:36.400Z</time>
      </trkpt>
      <trkpt lat="46.84977" lon="15.44365">
        <ele>329.836587</ele>
        <time>2022-09-26T08:08:40.442Z</time>
      </trkpt>
      <trkpt lat="46.84987" lon="15.44362">
        <ele>329.81521</ele>
        <time>2022-09-26T08:08:44.402Z</time>
      </trkpt>
      <trkpt lat="46.84998" lon="15.44357">
        <ele>329.791114</ele>
        <time>2022-09-26T08:10:39.407Z</time>
      </trkpt>
      <trkpt lat="46.85009" lon="15.4435">
        <ele>329.765693</ele>
        <time>2022-09-26T08:10:43.404Z</time>
      </trkpt>
      <trkpt lat="46.8502" lon="15.44345">
        <ele>329.740073</ele>
        <time>2022-09-26T08:10:46.398Z</time>
      </trkpt>
      <trkpt lat="46.85033" lon="15.44338">
        <ele>329.711459</ele>
        <time>2022-09-26T08:10:49.422Z</time>
      </trkpt>
      <trkpt lat="46.85041" lon="15.44335">
        <ele>329.691792</ele>
        <time>2022-09-26T08:10:51.430Z</time>
      </trkpt>
      <trkpt lat="46.8505" lon="15.44331">
        <ele>329.671928</ele>
        <time>2022-09-26T08:10:53.410Z</time>
      </trkpt>
      <trkpt lat="46.85059" lon="15.44326">
        <ele>329.651647</ele>
        <time>2022-09-26T08:10:55.419Z</time>
      </trkpt>
      <trkpt lat="46.85068" lon="15.44321">
        <ele>329.689502</ele>
        <time>2022-09-26T08:10:57.414Z</time>
      </trkpt>
      <trkpt lat="46.8508" lon="15.44315">
        <ele>329.788813</ele>
        <time>2022-09-26T08:11:00.407Z</time>
      </trkpt>
      <trkpt lat="46.85089" lon="15.44311">
        <ele>329.857799</ele>
        <time>2022-09-26T08:11:02.438Z</time>
      </trkpt>
      <trkpt lat="46.85099" lon="15.44307">
        <ele>329.931737</ele>
        <time>2022-09-26T08:11:04.408Z</time>
      </trkpt>
      <trkpt lat="46.85108" lon="15.44302">
        <ele>330.004404</ele>
        <time>2022-09-26T08:11:06.398Z</time>
      </trkpt>
      <trkpt lat="46.85118" lon="15.44298">
        <ele>330.076826</ele>
        <time>2022-09-26T08:11:08.409Z</time>
      </trkpt>
      <trkpt lat="46.85127" lon="15.44293">
        <ele>330.149571</ele>
        <time>2022-09-26T08:11:10.414Z</time>
      </trkpt>
      <trkpt lat="46.85136" lon="15.44289">
        <ele>330.22053</ele>
        <time>2022-09-26T08:11:12.406Z</time>
      </trkpt>
      <trkpt lat="46.85146" lon="15.44285">
        <ele>330.292907</ele>
        <time>2022-09-26T08:11:14.484Z</time>
      </trkpt>
      <trkpt lat="46.85155" lon="15.44281">
        <ele>330.367285</ele>
        <time>2022-09-26T08:11:16.401Z</time>
      </trkpt>
      <trkpt lat="46.85165" lon="15.44276">
        <ele>330.44127</ele>
        <time>2022-09-26T08:11:18.405Z</time>
      </trkpt>
      <trkpt lat="46.85174" lon="15.4427">
        <ele>330.517977</ele>
        <time>2022-09-26T08:11:20.419Z</time>
      </trkpt>
      <trkpt lat="46.85184" lon="15.44266">
        <ele>330.592058</ele>
        <time>2022-09-26T08:11:22.412Z</time>
      </trkpt>
      <trkpt lat="46.85193" lon="15.44263">
        <ele>330.661496</ele>
        <time>2022-09-26T08:11:24.451Z</time>
      </trkpt>
      <trkpt lat="46.85205" lon="15.44259">
        <ele>330.756096</ele>
        <time>2022-09-26T08:11:27.393Z</time>
      </trkpt>
      <trkpt lat="46.85216" lon="15.44255">
        <ele>330.839431</ele>
        <time>2022-09-26T08:11:30.391Z</time>
      </trkpt>
      <trkpt lat="46.85228" lon="15.44252">
        <ele>330.929191</ele>
        <time>2022-09-26T08:11:33.398Z</time>
      </trkpt>
      <trkpt lat="46.85241" lon="15.44251">
        <ele>331.015298</ele>
        <time>2022-09-26T08:11:36.414Z</time>
      </trkpt>
      <trkpt lat="46.85255" lon="15.44248">
        <ele>331.098103</ele>
        <time>2022-09-26T08:11:39.424Z</time>
      </trkpt>
      <trkpt lat="46.85264" lon="15.44246">
        <ele>331.154664</ele>
        <time>2022-09-26T08:11:41.399Z</time>
      </trkpt>
      <trkpt lat="46.85276" lon="15.44245">
        <ele>331.22673</ele>
        <time>2022-09-26T08:11:44.401Z</time>
      </trkpt>
      <trkpt lat="46.85283" lon="15.44256">
        <ele>331.289455</ele>
        <time>2022-09-26T08:11:47.384Z</time>
      </trkpt>
      <trkpt lat="46.85285" lon="15.44268">
        <ele>331.344343</ele>
        <time>2022-09-26T08:11:49.412Z</time>
      </trkpt>
      <trkpt lat="46.85291" lon="15.44285">
        <ele>331.423996</ele>
        <time>2022-09-26T08:11:52.453Z</time>
      </trkpt>
      <trkpt lat="46.85299" lon="15.44293">
        <ele>331.482683</ele>
        <time>2022-09-26T08:11:54.434Z</time>
      </trkpt>
      <trkpt lat="46.85308" lon="15.44295">
        <ele>331.539308</ele>
        <time>2022-09-26T08:11:56.427Z</time>
      </trkpt>
      <trkpt lat="46.85318" lon="15.44291">
        <ele>331.597444</ele>
        <time>2022-09-26T08:11:58.398Z</time>
      </trkpt>
      <trkpt lat="46.85326" lon="15.44282">
        <ele>331.657089</ele>
        <time>2022-09-26T08:12:00.411Z</time>
      </trkpt>
      <trkpt lat="46.85333" lon="15.44274">
        <ele>331.713959</ele>
        <time>2022-09-26T08:12:02.407Z</time>
      </trkpt>
      <trkpt lat="46.85343" lon="15.44262">
        <ele>331.793273</ele>
        <time>2022-09-26T08:12:05.392Z</time>
      </trkpt>
      <trkpt lat="46.85354" lon="15.44254">
        <ele>331.865612</ele>
        <time>2022-09-26T08:12:08.409Z</time>
      </trkpt>
      <trkpt lat="46.85366" lon="15.44251">
        <ele>331.941814</ele>
        <time>2022-09-26T08:12:11.408Z</time>
      </trkpt>
      <trkpt lat="46.85377" lon="15.4425">
        <ele>332.011159</ele>
        <time>2022-09-26T08:12:14.405Z</time>
      </trkpt>
      <trkpt lat="46.85389" lon="15.44259">
        <ele>332.013382</ele>
        <time>2022-09-26T08:12:17.426Z</time>
      </trkpt>
      <trkpt lat="46.85396" lon="15.44271">
        <ele>331.855857</ele>
        <time>2022-09-26T08:12:19.408Z</time>
      </trkpt>
      <trkpt lat="46.85403" lon="15.44284">
        <ele>331.689454</ele>
        <time>2022-09-26T08:12:21.410Z</time>
      </trkpt>
      <trkpt lat="46.85409" lon="15.44297">
        <ele>331.532829</ele>
        <time>2022-09-26T08:12:23.415Z</time>
      </trkpt>
      <trkpt lat="46.85416" lon="15.44309">
        <ele>331.37699</ele>
        <time>2022-09-26T08:12:25.402Z</time>
      </trkpt>
      <trkpt lat="46.85423" lon="15.44321">
        <ele>331.224267</ele>
        <time>2022-09-26T08:12:27.406Z</time>
      </trkpt>
      <trkpt lat="46.8543" lon="15.44332">
        <ele>331.074747</ele>
        <time>2022-09-26T08:12:29.414Z</time>
      </trkpt>
      <trkpt lat="46.85436" lon="15.44344">
        <ele>330.922797</ele>
        <time>2022-09-26T08:12:31.419Z</time>
      </trkpt>
      <trkpt lat="46.85443" lon="15.44356">
        <ele>330.768986</ele>
        <time>2022-09-26T08:12:33.411Z</time>
      </trkpt>
      <trkpt lat="46.85449" lon="15.44368">
        <ele>330.618083</ele>
        <time>2022-09-26T08:12:35.443Z</time>
      </trkpt>
      <trkpt lat="46.85456" lon="15.4438">
        <ele>330.463808</ele>
        <time>2022-09-26T08:12:37.396Z</time>
      </trkpt>
      <trkpt lat="46.85462" lon="15.44392">
        <ele>330.312221</ele>
        <time>2022-09-26T08:12:39.427Z</time>
      </trkpt>
      <trkpt lat="46.85469" lon="15.44404">
        <ele>330.161318</ele>
        <time>2022-09-26T08:12:41.442Z</time>
      </trkpt>
      <trkpt lat="46.85475" lon="15.44416">
        <ele>330.004576</ele>
        <time>2022-09-26T08:12:43.414Z</time>
      </trkpt>
      <trkpt lat="46.85482" lon="15.44428">
        <ele>329.848738</ele>
        <time>2022-09-26T08:12:45.421Z</time>
      </trkpt>
      <trkpt lat="46.85489" lon="15.44441">
        <ele>329.692774</ele>
        <time>2022-09-26T08:12:47.403Z</time>
      </trkpt>
      <trkpt lat="46.85495" lon="15.44453">
        <ele>329.537041</ele>
        <time>2022-09-26T08:12:49.402Z</time>
      </trkpt>
      <trkpt lat="46.85501" lon="15.44465">
        <ele>329.419389</ele>
        <time>2022-09-26T08:12:51.407Z</time>
      </trkpt>
      <trkpt lat="46.85508" lon="15.44477">
        <ele>329.351123</ele>
        <time>2022-09-26T08:12:53.410Z</time>
      </trkpt>
      <trkpt lat="46.85514" lon="15.44488">
        <ele>329.282083</ele>
        <time>2022-09-26T08:12:55.411Z</time>
      </trkpt>
      <trkpt lat="46.8552" lon="15.445">
        <ele>329.215248</ele>
        <time>2022-09-26T08:12:57.417Z</time>
      </trkpt>
      <trkpt lat="46.85527" lon="15.44511">
        <ele>329.147559</ele>
        <time>2022-09-26T08:12:59.416Z</time>
      </trkpt>
      <trkpt lat="46.85533" lon="15.44522">
        <ele>329.081162</ele>
        <time>2022-09-26T08:13:01.402Z</time>
      </trkpt>
      <trkpt lat="46.8554" lon="15.44533">
        <ele>329.015738</ele>
        <time>2022-09-26T08:13:03.407Z</time>
      </trkpt>
      <trkpt lat="46.85546" lon="15.44544">
        <ele>328.948125</ele>
        <time>2022-09-26T08:13:05.407Z</time>
      </trkpt>
      <trkpt lat="46.85552" lon="15.44555">
        <ele>328.881712</ele>
        <time>2022-09-26T08:13:07.403Z</time>
      </trkpt>
      <trkpt lat="46.85559" lon="15.44567">
        <ele>328.814165</ele>
        <time>2022-09-26T08:13:09.407Z</time>
      </trkpt>
      <trkpt lat="46.85565" lon="15.44578">
        <ele>328.746975</ele>
        <time>2022-09-26T08:13:11.420Z</time>
      </trkpt>
      <trkpt lat="46.85571" lon="15.44589">
        <ele>328.681697</ele>
        <time>2022-09-26T08:13:13.405Z</time>
      </trkpt>
      <trkpt lat="46.85578" lon="15.446">
        <ele>328.614476</ele>
        <time>2022-09-26T08:13:15.399Z</time>
      </trkpt>
      <trkpt lat="46.85585" lon="15.44611">
        <ele>328.54818</ele>
        <time>2022-09-26T08:13:17.420Z</time>
      </trkpt>
      <trkpt lat="46.85591" lon="15.44622">
        <ele>328.481883</ele>
        <time>2022-09-26T08:13:19.408Z</time>
      </trkpt>
      <trkpt lat="46.85597" lon="15.44632">
        <ele>328.417942</ele>
        <time>2022-09-26T08:13:21.416Z</time>
      </trkpt>
      <trkpt lat="46.85606" lon="15.44647">
        <ele>328.330301</ele>
        <time>2022-09-26T08:13:24.417Z</time>
      </trkpt>
      <trkpt lat="46.85614" lon="15.4466">
        <ele>328.250767</ele>
        <time>2022-09-26T08:13:27.402Z</time>
      </trkpt>
      <trkpt lat="46.85622" lon="15.44675">
        <ele>328.757273</ele>
        <time>2022-09-26T08:13:30.418Z</time>
      </trkpt>
      <trkpt lat="46.85627" lon="15.44686">
        <ele>329.160973</ele>
        <time>2022-09-26T08:13:32.414Z</time>
      </trkpt>
      <trkpt lat="46.85633" lon="15.44697">
        <ele>329.564107</ele>
        <time>2022-09-26T08:13:34.407Z</time>
      </trkpt>
      <trkpt lat="46.85641" lon="15.44712">
        <ele>330.148121</ele>
        <time>2022-09-26T08:13:37.413Z</time>
      </trkpt>
      <trkpt lat="46.85646" lon="15.44723">
        <ele>330.54206</ele>
        <time>2022-09-26T08:13:39.415Z</time>
      </trkpt>
      <trkpt lat="46.85652" lon="15.44733">
        <ele>330.94341</ele>
        <time>2022-09-26T08:13:41.432Z</time>
      </trkpt>
      <trkpt lat="46.85658" lon="15.44744">
        <ele>331.351833</ele>
        <time>2022-09-26T08:13:43.410Z</time>
      </trkpt>
      <trkpt lat="46.85664" lon="15.44755">
        <ele>331.765662</ele>
        <time>2022-09-26T08:13:45.411Z</time>
      </trkpt>
      <trkpt lat="46.8567" lon="15.44766">
        <ele>332.184186</ele>
        <time>2022-09-26T08:13:47.414Z</time>
      </trkpt>
      <trkpt lat="46.85678" lon="15.44781">
        <ele>332.76379</ele>
        <time>2022-09-26T08:13:50.400Z</time>
      </trkpt>
      <trkpt lat="46.85685" lon="15.44795">
        <ele>333.280796</ele>
        <time>2022-09-26T08:13:53.408Z</time>
      </trkpt>
      <trkpt lat="46.8569" lon="15.44805">
        <ele>333.68153</ele>
        <time>2022-09-26T08:13:56.414Z</time>
      </trkpt>
      <trkpt lat="46.85696" lon="15.44817">
        <ele>334.096697</ele>
        <time>2022-09-26T08:14:00.409Z</time>
      </trkpt>
      <trkpt lat="46.85701" lon="15.44828">
        <ele>334.50199</ele>
        <time>2022-09-26T08:14:05.410Z</time>
      </trkpt>
      <trkpt lat="46.85708" lon="15.44841">
        <ele>334.97689</ele>
        <time>2022-09-26T08:14:12.408Z</time>
      </trkpt>
      <trkpt lat="46.85714" lon="15.44852">
        <ele>335.403201</ele>
        <time>2022-09-26T08:14:17.409Z</time>
      </trkpt>
      <trkpt lat="46.8572" lon="15.44863">
        <ele>335.829512</ele>
        <time>2022-09-26T08:14:22.408Z</time>
      </trkpt>
      <trkpt lat="46.85726" lon="15.44874">
        <ele>336.248421</ele>
        <time>2022-09-26T08:14:27.427Z</time>
      </trkpt>
      <trkpt lat="46.85733" lon="15.44885">
        <ele>336.718404</ele>
        <time>2022-09-26T08:14:32.410Z</time>
      </trkpt>
      <trkpt lat="46.85739" lon="15.44895">
        <ele>337.149433</ele>
        <time>2022-09-26T08:14:36.399Z</time>
      </trkpt>
      <trkpt lat="46.85746" lon="15.44908">
        <ele>337.636914</ele>
        <time>2022-09-26T08:14:40.414Z</time>
      </trkpt>
      <trkpt lat="46.85753" lon="15.4492">
        <ele>338.14342</ele>
        <time>2022-09-26T08:14:44.414Z</time>
      </trkpt>
      <trkpt lat="46.85758" lon="15.44931">
        <ele>338.556901</ele>
        <time>2022-09-26T08:14:47.406Z</time>
      </trkpt>
      <trkpt lat="46.85766" lon="15.44945">
        <ele>339.109015</ele>
        <time>2022-09-26T08:14:51.487Z</time>
      </trkpt>
      <trkpt lat="46.85772" lon="15.44955">
        <ele>339.541187</ele>
        <time>2022-09-26T08:14:54.419Z</time>
      </trkpt>
      <trkpt lat="46.85779" lon="15.44965">
        <ele>339.9809</ele>
        <time>2022-09-26T08:14:57.403Z</time>
      </trkpt>
      <trkpt lat="46.85786" lon="15.44976">
        <ele>340.427292</ele>
        <time>2022-09-26T08:15:00.410Z</time>
      </trkpt>
      <trkpt lat="46.85793" lon="15.44986">
        <ele>340.86693</ele>
        <time>2022-09-26T08:15:03.420Z</time>
      </trkpt>
      <trkpt lat="46.85799" lon="15.44998">
        <ele>341.34994</ele>
        <time>2022-09-26T08:15:06.388Z</time>
      </trkpt>
      <trkpt lat="46.85805" lon="15.45009">
        <ele>341.798132</ele>
        <time>2022-09-26T08:15:09.414Z</time>
      </trkpt>
      <trkpt lat="46.85808" lon="15.45022">
        <ele>342.209105</ele>
        <time>2022-09-26T08:15:12.422Z</time>
      </trkpt>
      <trkpt lat="46.85804" lon="15.45039">
        <ele>342.756643</ele>
        <time>2022-09-26T08:15:16.397Z</time>
      </trkpt>
      <trkpt lat="46.858" lon="15.45052">
        <ele>343.213074</ele>
        <time>2022-09-26T08:15:19.402Z</time>
      </trkpt>
      <trkpt lat="46.85798" lon="15.45068">
        <ele>343.708578</ele>
        <time>2022-09-26T08:15:22.409Z</time>
      </trkpt>
      <trkpt lat="46.85801" lon="15.45084">
        <ele>344.210683</ele>
        <time>2022-09-26T08:15:25.404Z</time>
      </trkpt>
      <trkpt lat="46.85807" lon="15.451">
        <ele>343.753257</ele>
        <time>2022-09-26T08:15:28.408Z</time>
      </trkpt>
      <trkpt lat="46.85811" lon="15.45113">
        <ele>343.284941</ele>
        <time>2022-09-26T08:15:30.410Z</time>
      </trkpt>
      <trkpt lat="46.85816" lon="15.45126">
        <ele>342.797934</ele>
        <time>2022-09-26T08:15:32.444Z</time>
      </trkpt>
      <trkpt lat="46.85816" lon="15.45146">
        <ele>342.159632</ele>
        <time>2022-09-26T08:15:35.418Z</time>
      </trkpt>
      <trkpt lat="46.85813" lon="15.45163">
        <ele>341.584502</ele>
        <time>2022-09-26T08:15:37.486Z</time>
      </trkpt>
      <trkpt lat="46.8581" lon="15.45188">
        <ele>340.793154</ele>
        <time>2022-09-26T08:15:40.414Z</time>
      </trkpt>
      <trkpt lat="46.85809" lon="15.45206">
        <ele>340.190478</ele>
        <time>2022-09-26T08:15:43.394Z</time>
      </trkpt>
      <trkpt lat="46.85809" lon="15.4522">
        <ele>339.738809</ele>
        <time>2022-09-26T08:15:45.428Z</time>
      </trkpt>
      <trkpt lat="46.85812" lon="15.45235">
        <ele>339.230628</ele>
        <time>2022-09-26T08:15:47.392Z</time>
      </trkpt>
      <trkpt lat="46.85816" lon="15.4525">
        <ele>338.720063</ele>
        <time>2022-09-26T08:15:49.404Z</time>
      </trkpt>
      <trkpt lat="46.85825" lon="15.45261">
        <ele>338.169408</ele>
        <time>2022-09-26T08:15:51.397Z</time>
      </trkpt>
      <trkpt lat="46.85834" lon="15.45263">
        <ele>337.743679</ele>
        <time>2022-09-26T08:15:53.393Z</time>
      </trkpt>
      <trkpt lat="46.85846" lon="15.45257">
        <ele>337.144655</ele>
        <time>2022-09-26T08:15:56.454Z</time>
      </trkpt>
      <trkpt lat="46.85858" lon="15.45253">
        <ele>336.568153</ele>
        <time>2022-09-26T08:15:59.422Z</time>
      </trkpt>
      <trkpt lat="46.85868" lon="15.45248">
        <ele>336.064033</ele>
        <time>2022-09-26T08:16:02.442Z</time>
      </trkpt>
      <trkpt lat="46.85879" lon="15.45242">
        <ele>335.740224</ele>
        <time>2022-09-26T08:16:05.415Z</time>
      </trkpt>
      <trkpt lat="46.8589" lon="15.45238">
        <ele>335.626801</ele>
        <time>2022-09-26T08:16:08.442Z</time>
      </trkpt>
      <trkpt lat="46.85901" lon="15.45234">
        <ele>335.524825</ele>
        <time>2022-09-26T08:16:11.426Z</time>
      </trkpt>
      <trkpt lat="46.85912" lon="15.45231">
        <ele>335.418995</ele>
        <time>2022-09-26T08:16:14.439Z</time>
      </trkpt>
      <trkpt lat="46.85922" lon="15.45228">
        <ele>335.313978</ele>
        <time>2022-09-26T08:16:17.409Z</time>
      </trkpt>
      <trkpt lat="46.85931" lon="15.45233">
        <ele>335.224587</ele>
        <time>2022-09-26T08:16:20.412Z</time>
      </trkpt>
      <trkpt lat="46.85938" lon="15.45243">
        <ele>335.129592</ele>
        <time>2022-09-26T08:16:23.407Z</time>
      </trkpt>
      <trkpt lat="46.85945" lon="15.45253">
        <ele>335.040194</ele>
        <time>2022-09-26T08:16:26.458Z</time>
      </trkpt>
      <trkpt lat="46.85953" lon="15.45265">
        <ele>334.926554</ele>
        <time>2022-09-26T08:16:30.430Z</time>
      </trkpt>
      <trkpt lat="46.85961" lon="15.45276">
        <ele>334.822708</ele>
        <time>2022-09-26T08:16:34.410Z</time>
      </trkpt>
      <trkpt lat="46.85968" lon="15.45287">
        <ele>334.726604</ele>
        <time>2022-09-26T08:16:38.415Z</time>
      </trkpt>
      <trkpt lat="46.85976" lon="15.45297">
        <ele>334.626845</ele>
        <time>2022-09-26T08:16:42.404Z</time>
      </trkpt>
      <trkpt lat="46.85983" lon="15.45308">
        <ele>334.525955</ele>
        <time>2022-09-26T08:16:46.400Z</time>
      </trkpt>
      <trkpt lat="46.8599" lon="15.45319">
        <ele>334.429687</ele>
        <time>2022-09-26T08:16:50.387Z</time>
      </trkpt>
      <trkpt lat="46.85997" lon="15.4533">
        <ele>334.329007</ele>
        <time>2022-09-26T08:16:54.426Z</time>
      </trkpt>
      <trkpt lat="46.86004" lon="15.45341">
        <ele>334.231661</ele>
        <time>2022-09-26T08:16:58.443Z</time>
      </trkpt>
      <trkpt lat="46.86011" lon="15.45353">
        <ele>334.129105</ele>
        <time>2022-09-26T08:17:02.428Z</time>
      </trkpt>
      <trkpt lat="46.8602" lon="15.45365">
        <ele>334.226155</ele>
        <time>2022-09-26T08:17:06.399Z</time>
      </trkpt>
      <trkpt lat="46.86028" lon="15.45376">
        <ele>334.466402</ele>
        <time>2022-09-26T08:17:10.416Z</time>
      </trkpt>
      <trkpt lat="46.86036" lon="15.45388">
        <ele>334.706136</ele>
        <time>2022-09-26T08:17:14.419Z</time>
      </trkpt>
      <trkpt lat="46.86045" lon="15.45399">
        <ele>334.952438</ele>
        <time>2022-09-26T08:17:18.439Z</time>
      </trkpt>
      <trkpt lat="46.86053" lon="15.45411">
        <ele>335.188146</ele>
        <time>2022-09-26T08:17:22.421Z</time>
      </trkpt>
      <trkpt lat="46.8606" lon="15.45422">
        <ele>335.415278</ele>
        <time>2022-09-26T08:17:26.400Z</time>
      </trkpt>
      <trkpt lat="46.86068" lon="15.45434">
        <ele>335.65052</ele>
        <time>2022-09-26T08:17:30.420Z</time>
      </trkpt>
      <trkpt lat="46.86074" lon="15.45447">
        <ele>335.883334</ele>
        <time>2022-09-26T08:17:34.411Z</time>
      </trkpt>
      <trkpt lat="46.86076" lon="15.45462">
        <ele>336.108434</ele>
        <time>2022-09-26T08:17:38.420Z</time>
      </trkpt>
      <trkpt lat="46.86078" lon="15.45478">
        <ele>336.33255</ele>
        <time>2022-09-26T08:17:42.428Z</time>
      </trkpt>
      <trkpt lat="46.86079" lon="15.45494">
        <ele>336.57638</ele>
        <time>2022-09-26T08:17:46.392Z</time>
      </trkpt>
      <trkpt lat="46.86081" lon="15.45508">
        <ele>336.781282</ele>
        <time>2022-09-26T08:17:49.425Z</time>
      </trkpt>
      <trkpt lat="46.86083" lon="15.45524">
        <ele>337.018133</ele>
        <time>2022-09-26T08:17:52.421Z</time>
      </trkpt>
      <trkpt lat="46.86085" lon="15.45541">
        <ele>337.262266</ele>
        <time>2022-09-26T08:17:55.413Z</time>
      </trkpt>
      <trkpt lat="46.86087" lon="15.45558">
        <ele>337.509013</ele>
        <time>2022-09-26T08:17:58.407Z</time>
      </trkpt>
      <trkpt lat="46.86089" lon="15.45574">
        <ele>337.752038</ele>
        <time>2022-09-26T08:18:01.413Z</time>
      </trkpt>
      <trkpt lat="46.86091" lon="15.4559">
        <ele>337.819927</ele>
        <time>2022-09-26T08:18:04.425Z</time>
      </trkpt>
      <trkpt lat="46.86092" lon="15.45605">
        <ele>337.668874</ele>
        <time>2022-09-26T08:18:07.404Z</time>
      </trkpt>
      <trkpt lat="46.86094" lon="15.4562">
        <ele>337.521689</ele>
        <time>2022-09-26T08:18:10.421Z</time>
      </trkpt>
      <trkpt lat="46.86096" lon="15.45634">
        <ele>337.38699</ele>
        <time>2022-09-26T08:18:13.412Z</time>
      </trkpt>
      <trkpt lat="46.86097" lon="15.45647">
        <ele>337.256447</ele>
        <time>2022-09-26T08:18:16.400Z</time>
      </trkpt>
      <trkpt lat="46.86098" lon="15.4566">
        <ele>337.125833</ele>
        <time>2022-09-26T08:18:19.413Z</time>
      </trkpt>
      <trkpt lat="46.86099" lon="15.45673">
        <ele>336.996468</ele>
        <time>2022-09-26T08:18:22.407Z</time>
      </trkpt>
      <trkpt lat="46.86101" lon="15.4569">
        <ele>336.833603</ele>
        <time>2022-09-26T08:18:26.405Z</time>
      </trkpt>
      <trkpt lat="46.86102" lon="15.45703">
        <ele>336.701128</ele>
        <time>2022-09-26T08:18:29.423Z</time>
      </trkpt>
      <trkpt lat="46.86103" lon="15.45717">
        <ele>336.562437</ele>
        <time>2022-09-26T08:18:32.423Z</time>
      </trkpt>
      <trkpt lat="46.86105" lon="15.45732">
        <ele>336.415253</ele>
        <time>2022-09-26T08:18:35.414Z</time>
      </trkpt>
      <trkpt lat="46.86107" lon="15.45748">
        <ele>336.25918</ele>
        <time>2022-09-26T08:18:38.416Z</time>
      </trkpt>
      <trkpt lat="46.86109" lon="15.45766">
        <ele>336.078037</ele>
        <time>2022-09-26T08:18:41.531Z</time>
      </trkpt>
      <trkpt lat="46.86112" lon="15.45786">
        <ele>335.881684</ele>
        <time>2022-09-26T08:18:44.407Z</time>
      </trkpt>
      <trkpt lat="46.86117" lon="15.458">
        <ele>335.730373</ele>
        <time>2022-09-26T08:18:46.403Z</time>
      </trkpt>
      <trkpt lat="46.86125" lon="15.4581">
        <ele>335.579515</ele>
        <time>2022-09-26T08:18:48.431Z</time>
      </trkpt>
      <trkpt lat="46.86134" lon="15.45815">
        <ele>335.431489</ele>
        <time>2022-09-26T08:18:50.420Z</time>
      </trkpt>
      <trkpt lat="46.86144" lon="15.45815">
        <ele>335.378162</ele>
        <time>2022-09-26T08:18:52.395Z</time>
      </trkpt>
      <trkpt lat="46.86154" lon="15.45812">
        <ele>335.719244</ele>
        <time>2022-09-26T08:18:54.446Z</time>
      </trkpt>
      <trkpt lat="46.86166" lon="15.45807">
        <ele>336.159168</ele>
        <time>2022-09-26T08:18:57.422Z</time>
      </trkpt>
      <trkpt lat="46.86176" lon="15.45803">
        <ele>336.530319</ele>
        <time>2022-09-26T08:19:00.416Z</time>
      </trkpt>
      <trkpt lat="46.86185" lon="15.45803">
        <ele>336.855004</ele>
        <time>2022-09-26T08:19:04.393Z</time>
      </trkpt>
      <trkpt lat="46.86191" lon="15.45814">
        <ele>337.211884</ele>
        <time>2022-09-26T08:19:08.410Z</time>
      </trkpt>
      <trkpt lat="46.86194" lon="15.45828">
        <ele>337.548667</ele>
        <time>2022-09-26T08:19:11.412Z</time>
      </trkpt>
      <trkpt lat="46.86198" lon="15.45842">
        <ele>337.911664</ele>
        <time>2022-09-26T08:19:14.428Z</time>
      </trkpt>
      <trkpt lat="46.86203" lon="15.45855">
        <ele>338.269662</ele>
        <time>2022-09-26T08:19:17.432Z</time>
      </trkpt>
      <trkpt lat="46.86207" lon="15.45869">
        <ele>338.632135</ele>
        <time>2022-09-26T08:19:20.490Z</time>
      </trkpt>
      <trkpt lat="46.86211" lon="15.45882">
        <ele>338.979707</ele>
        <time>2022-09-26T08:19:23.407Z</time>
      </trkpt>
      <trkpt lat="46.86216" lon="15.45897">
        <ele>339.380127</ele>
        <time>2022-09-26T08:19:27.404Z</time>
      </trkpt>
      <trkpt lat="46.86219" lon="15.45912">
        <ele>339.754603</ele>
        <time>2022-09-26T08:19:31.411Z</time>
      </trkpt>
      <trkpt lat="46.86222" lon="15.45926">
        <ele>340.125724</ele>
        <time>2022-09-26T08:19:35.439Z</time>
      </trkpt>
      <trkpt lat="46.86226" lon="15.4594">
        <ele>340.490076</ele>
        <time>2022-09-26T08:19:39.409Z</time>
      </trkpt>
      <trkpt lat="46.86232" lon="15.45951">
        <ele>340.833991</ele>
        <time>2022-09-26T08:19:43.411Z</time>
      </trkpt>
      <trkpt lat="46.86241" lon="15.45955">
        <ele>341.161803</ele>
        <time>2022-09-26T08:19:47.400Z</time>
      </trkpt>
      <trkpt lat="46.86253" lon="15.45954">
        <ele>341.572902</ele>
        <time>2022-09-26T08:19:51.412Z</time>
      </trkpt>
      <trkpt lat="46.86262" lon="15.45947">
        <ele>341.920223</ele>
        <time>2022-09-26T08:19:55.422Z</time>
      </trkpt>
      <trkpt lat="46.8627" lon="15.45941">
        <ele>342.23329</ele>
        <time>2022-09-26T08:19:59.404Z</time>
      </trkpt>
      <trkpt lat="46.8628" lon="15.45937">
        <ele>342.56616</ele>
        <time>2022-09-26T08:20:03.423Z</time>
      </trkpt>
      <trkpt lat="46.86289" lon="15.45933">
        <ele>342.880485</ele>
        <time>2022-09-26T08:20:08.400Z</time>
      </trkpt>
      <trkpt lat="46.86298" lon="15.45929">
        <ele>343.18063</ele>
        <time>2022-09-26T08:20:17.425Z</time>
      </trkpt>
      <trkpt lat="46.86308" lon="15.45924">
        <ele>343.534311</ele>
        <time>2022-09-26T08:20:23.453Z</time>
      </trkpt>
      <trkpt lat="46.86317" lon="15.45919">
        <ele>343.86151</ele>
        <time>2022-09-26T08:20:27.424Z</time>
      </trkpt>
      <trkpt lat="46.86328" lon="15.45913">
        <ele>344.226264</ele>
        <time>2022-09-26T08:20:31.428Z</time>
      </trkpt>
      <trkpt lat="46.86337" lon="15.45909">
        <ele>344.545258</ele>
        <time>2022-09-26T08:20:34.413Z</time>
      </trkpt>
      <trkpt lat="46.86349" lon="15.45905">
        <ele>344.938616</ele>
        <time>2022-09-26T08:20:37.418Z</time>
      </trkpt>
      <trkpt lat="46.86358" lon="15.45903">
        <ele>345.241127</ele>
        <time>2022-09-26T08:20:39.426Z</time>
      </trkpt>
      <trkpt lat="46.86368" lon="15.45906">
        <ele>345.597235</ele>
        <time>2022-09-26T08:20:41.408Z</time>
      </trkpt>
      <trkpt lat="46.86374" lon="15.45918">
        <ele>345.924859</ele>
        <time>2022-09-26T08:20:43.394Z</time>
      </trkpt>
      <trkpt lat="46.8638" lon="15.45932">
        <ele>346.295286</ele>
        <time>2022-09-26T08:20:45.410Z</time>
      </trkpt>
      <trkpt lat="46.86386" lon="15.45944">
        <ele>346.637412</ele>
        <time>2022-09-26T08:20:47.404Z</time>
      </trkpt>
      <trkpt lat="46.86393" lon="15.45954">
        <ele>346.951474</ele>
        <time>2022-09-26T08:20:49.416Z</time>
      </trkpt>
      <trkpt lat="46.86403" lon="15.45964">
        <ele>347.343077</ele>
        <time>2022-09-26T08:20:52.419Z</time>
      </trkpt>
      <trkpt lat="46.86412" lon="15.45964">
        <ele>347.673969</ele>
        <time>2022-09-26T08:20:55.403Z</time>
      </trkpt>
      <trkpt lat="46.86423" lon="15.45957">
        <ele>348.122203</ele>
        <time>2022-09-26T08:20:59.403Z</time>
      </trkpt>
      <trkpt lat="46.86432" lon="15.45952">
        <ele>348.534258</ele>
        <time>2022-09-26T08:21:04.412Z</time>
      </trkpt>
      <trkpt lat="46.86442" lon="15.45953">
        <ele>348.920315</ele>
        <time>2022-09-26T08:21:09.419Z</time>
      </trkpt>
      <trkpt lat="46.86451" lon="15.45957">
        <ele>349.298174</ele>
        <time>2022-09-26T08:21:14.410Z</time>
      </trkpt>
      <trkpt lat="46.8646" lon="15.45967">
        <ele>349.723767</ele>
        <time>2022-09-26T08:21:19.431Z</time>
      </trkpt>
      <trkpt lat="46.86469" lon="15.45977">
        <ele>350.160488</ele>
        <time>2022-09-26T08:21:24.420Z</time>
      </trkpt>
      <trkpt lat="46.86477" lon="15.45986">
        <ele>350.563335</ele>
        <time>2022-09-26T08:21:29.451Z</time>
      </trkpt>
      <trkpt lat="46.86484" lon="15.45994">
        <ele>350.930199</ele>
        <time>2022-09-26T08:21:34.417Z</time>
      </trkpt>
      <trkpt lat="46.86492" lon="15.46004">
        <ele>351.345538</ele>
        <time>2022-09-26T08:21:40.407Z</time>
      </trkpt>
      <trkpt lat="46.865" lon="15.46013">
        <ele>351.738457</ele>
        <time>2022-09-26T08:21:46.486Z</time>
      </trkpt>
      <trkpt lat="46.86508" lon="15.46024">
        <ele>352.144311</ele>
        <time>2022-09-26T08:21:52.421Z</time>
      </trkpt>
      <trkpt lat="46.86515" lon="15.46031">
        <ele>352.504788</ele>
        <time>2022-09-26T08:21:57.374Z</time>
      </trkpt>
      <trkpt lat="46.86523" lon="15.46038">
        <ele>352.872724</ele>
        <time>2022-09-26T08:22:03.404Z</time>
      </trkpt>
      <trkpt lat="46.8654" lon="15.46034">
        <ele>353.526483</ele>
        <time>2022-09-26T08:26:18.420Z</time>
      </trkpt>
      <trkpt lat="46.86549" lon="15.46032">
        <ele>353.892063</ele>
        <time>2022-09-26T08:26:23.418Z</time>
      </trkpt>
      <trkpt lat="46.86553" lon="15.46045">
        <ele>354.286177</ele>
        <time>2022-09-26T08:26:29.402Z</time>
      </trkpt>
      <trkpt lat="46.86556" lon="15.46058">
        <ele>354.646882</ele>
        <time>2022-09-26T08:26:33.436Z</time>
      </trkpt>
      <trkpt lat="46.86558" lon="15.46071">
        <ele>354.556741</ele>
        <time>2022-09-26T08:26:37.420Z</time>
      </trkpt>
      <trkpt lat="46.86562" lon="15.46084">
        <ele>354.434775</ele>
        <time>2022-09-26T08:26:41.410Z</time>
      </trkpt>
      <trkpt lat="46.86566" lon="15.46099">
        <ele>354.302305</ele>
        <time>2022-09-26T08:26:45.396Z</time>
      </trkpt>
      <trkpt lat="46.86569" lon="15.46115">
        <ele>354.163694</ele>
        <time>2022-09-26T08:26:49.410Z</time>
      </trkpt>
      <trkpt lat="46.86573" lon="15.46128">
        <ele>354.0452</ele>
        <time>2022-09-26T08:26:52.429Z</time>
      </trkpt>
      <trkpt lat="46.86577" lon="15.46142">
        <ele>353.920571</ele>
        <time>2022-09-26T08:26:55.404Z</time>
      </trkpt>
      <trkpt lat="46.8658" lon="15.46158">
        <ele>353.784795</ele>
        <time>2022-09-26T08:26:58.404Z</time>
      </trkpt>
      <trkpt lat="46.86584" lon="15.46175">
        <ele>353.636095</ele>
        <time>2022-09-26T08:27:01.391Z</time>
      </trkpt>
      <trkpt lat="46.86588" lon="15.4619">
        <ele>353.499964</ele>
        <time>2022-09-26T08:27:04.423Z</time>
      </trkpt>
      <trkpt lat="46.86592" lon="15.46207">
        <ele>353.350078</ele>
        <time>2022-09-26T08:27:07.417Z</time>
      </trkpt>
      <trkpt lat="46.86597" lon="15.46223">
        <ele>353.202989</ele>
        <time>2022-09-26T08:27:10.408Z</time>
      </trkpt>
      <trkpt lat="46.86602" lon="15.4624">
        <ele>353.055452</ele>
        <time>2022-09-26T08:27:13.409Z</time>
      </trkpt>
      <trkpt lat="46.86607" lon="15.46256">
        <ele>352.901099</ele>
        <time>2022-09-26T08:27:16.399Z</time>
      </trkpt>
      <trkpt lat="46.86612" lon="15.46273">
        <ele>352.751296</ele>
        <time>2022-09-26T08:27:19.397Z</time>
      </trkpt>
      <trkpt lat="46.86617" lon="15.46289">
        <ele>352.605906</ele>
        <time>2022-09-26T08:27:22.408Z</time>
      </trkpt>
      <trkpt lat="46.86622" lon="15.46305">
        <ele>352.435696</ele>
        <time>2022-09-26T08:27:25.442Z</time>
      </trkpt>
      <trkpt lat="46.86626" lon="15.46321">
        <ele>352.055399</ele>
        <time>2022-09-26T08:27:28.401Z</time>
      </trkpt>
      <trkpt lat="46.86631" lon="15.46337">
        <ele>351.695199</ele>
        <time>2022-09-26T08:27:31.406Z</time>
      </trkpt>
      <trkpt lat="46.86634" lon="15.46351">
        <ele>351.356348</ele>
        <time>2022-09-26T08:27:34.408Z</time>
      </trkpt>
      <trkpt lat="46.86639" lon="15.46366">
        <ele>351.004187</ele>
        <time>2022-09-26T08:27:37.407Z</time>
      </trkpt>
      <trkpt lat="46.86645" lon="15.46382">
        <ele>350.608175</ele>
        <time>2022-09-26T08:27:40.412Z</time>
      </trkpt>
      <trkpt lat="46.86651" lon="15.46398">
        <ele>350.222415</ele>
        <time>2022-09-26T08:27:43.414Z</time>
      </trkpt>
      <trkpt lat="46.86656" lon="15.46413">
        <ele>349.847171</ele>
        <time>2022-09-26T08:27:46.499Z</time>
      </trkpt>
      <trkpt lat="46.8666" lon="15.46429">
        <ele>349.476115</ele>
        <time>2022-09-26T08:27:49.405Z</time>
      </trkpt>
      <trkpt lat="46.86664" lon="15.46445">
        <ele>349.108522</ele>
        <time>2022-09-26T08:27:52.411Z</time>
      </trkpt>
      <trkpt lat="46.86668" lon="15.4646">
        <ele>348.756309</ele>
        <time>2022-09-26T08:27:55.423Z</time>
      </trkpt>
      <trkpt lat="46.86671" lon="15.46475">
        <ele>348.419238</ele>
        <time>2022-09-26T08:27:58.413Z</time>
      </trkpt>
      <trkpt lat="46.86673" lon="15.46491">
        <ele>348.074358</ele>
        <time>2022-09-26T08:28:01.412Z</time>
      </trkpt>
      <trkpt lat="46.86675" lon="15.46507">
        <ele>347.716543</ele>
        <time>2022-09-26T08:28:04.398Z</time>
      </trkpt>
      <trkpt lat="46.86678" lon="15.46523">
        <ele>347.36177</ele>
        <time>2022-09-26T08:28:07.428Z</time>
      </trkpt>
      <trkpt lat="46.8668" lon="15.46538">
        <ele>347.013986</ele>
        <time>2022-09-26T08:28:10.435Z</time>
      </trkpt>
      <trkpt lat="46.86683" lon="15.46554">
        <ele>346.749217</ele>
        <time>2022-09-26T08:28:13.428Z</time>
      </trkpt>
      <trkpt lat="46.86683" lon="15.46568">
        <ele>346.693911</ele>
        <time>2022-09-26T08:28:16.427Z</time>
      </trkpt>
      <trkpt lat="46.86679" lon="15.46583">
        <ele>346.632459</ele>
        <time>2022-09-26T08:28:19.400Z</time>
      </trkpt>
      <trkpt lat="46.86682" lon="15.46601">
        <ele>346.561432</ele>
        <time>2022-09-26T08:28:22.417Z</time>
      </trkpt>
      <trkpt lat="46.86689" lon="15.46613">
        <ele>346.500707</ele>
        <time>2022-09-26T08:28:25.390Z</time>
      </trkpt>
      <trkpt lat="46.86692" lon="15.46628">
        <ele>346.440376</ele>
        <time>2022-09-26T08:28:28.466Z</time>
      </trkpt>
      <trkpt lat="46.86694" lon="15.46645">
        <ele>346.373738</ele>
        <time>2022-09-26T08:28:31.391Z</time>
      </trkpt>
      <trkpt lat="46.86695" lon="15.46665">
        <ele>346.298194</ele>
        <time>2022-09-26T08:28:34.423Z</time>
      </trkpt>
      <trkpt lat="46.86697" lon="15.46684">
        <ele>346.221451</ele>
        <time>2022-09-26T08:28:37.407Z</time>
      </trkpt>
      <trkpt lat="46.86698" lon="15.46699">
        <ele>346.166452</ele>
        <time>2022-09-26T08:28:39.434Z</time>
      </trkpt>
      <trkpt lat="46.86698" lon="15.46713">
        <ele>346.112634</ele>
        <time>2022-09-26T08:28:41.435Z</time>
      </trkpt>
      <trkpt lat="46.86699" lon="15.46727">
        <ele>346.057634</ele>
        <time>2022-09-26T08:28:43.520Z</time>
      </trkpt>
      <trkpt lat="46.86699" lon="15.46741">
        <ele>346.005412</ele>
        <time>2022-09-26T08:28:45.414Z</time>
      </trkpt>
      <trkpt lat="46.867" lon="15.46755">
        <ele>345.951237</ele>
        <time>2022-09-26T08:28:47.438Z</time>
      </trkpt>
      <trkpt lat="46.867" lon="15.4677">
        <ele>345.892405</ele>
        <time>2022-09-26T08:28:49.400Z</time>
      </trkpt>
      <trkpt lat="46.86701" lon="15.46785">
        <ele>345.833401</ele>
        <time>2022-09-26T08:28:51.430Z</time>
      </trkpt>
      <trkpt lat="46.86702" lon="15.468">
        <ele>345.777283</ele>
        <time>2022-09-26T08:28:53.428Z</time>
      </trkpt>
      <trkpt lat="46.86702" lon="15.46814">
        <ele>345.697945</ele>
        <time>2022-09-26T08:28:55.388Z</time>
      </trkpt>
      <trkpt lat="46.86702" lon="15.46828">
        <ele>345.599743</ele>
        <time>2022-09-26T08:28:57.464Z</time>
      </trkpt>
      <trkpt lat="46.86702" lon="15.46843">
        <ele>345.502227</ele>
        <time>2022-09-26T08:28:59.439Z</time>
      </trkpt>
      <trkpt lat="46.86701" lon="15.46857">
        <ele>345.402541</ele>
        <time>2022-09-26T08:29:01.405Z</time>
      </trkpt>
      <trkpt lat="46.86701" lon="15.46871">
        <ele>345.311844</ele>
        <time>2022-09-26T08:29:03.425Z</time>
      </trkpt>
      <trkpt lat="46.86701" lon="15.46886">
        <ele>345.203413</ele>
        <time>2022-09-26T08:29:05.444Z</time>
      </trkpt>
      <trkpt lat="46.86701" lon="15.46903">
        <ele>345.093623</ele>
        <time>2022-09-26T08:29:07.407Z</time>
      </trkpt>
      <trkpt lat="46.86701" lon="15.46918">
        <ele>344.986561</ele>
        <time>2022-09-26T08:29:09.421Z</time>
      </trkpt>
      <trkpt lat="46.867" lon="15.46934">
        <ele>344.879331</ele>
        <time>2022-09-26T08:29:11.395Z</time>
      </trkpt>
      <trkpt lat="46.867" lon="15.46949">
        <ele>344.778386</ele>
        <time>2022-09-26T08:29:13.402Z</time>
      </trkpt>
      <trkpt lat="46.867" lon="15.46963">
        <ele>344.679461</ele>
        <time>2022-09-26T08:29:15.427Z</time>
      </trkpt>
      <trkpt lat="46.867" lon="15.46978">
        <ele>344.576413</ele>
        <time>2022-09-26T08:29:17.419Z</time>
      </trkpt>
      <trkpt lat="46.86701" lon="15.46994">
        <ele>344.467616</ele>
        <time>2022-09-26T08:29:19.412Z</time>
      </trkpt>
      <trkpt lat="46.86702" lon="15.47011">
        <ele>344.352262</ele>
        <time>2022-09-26T08:29:21.456Z</time>
      </trkpt>
      <trkpt lat="46.86702" lon="15.47028">
        <ele>344.239058</ele>
        <time>2022-09-26T08:29:23.434Z</time>
      </trkpt>
      <trkpt lat="46.86702" lon="15.47044">
        <ele>344.128586</ele>
        <time>2022-09-26T08:29:25.415Z</time>
      </trkpt>
      <trkpt lat="46.86701" lon="15.4706">
        <ele>344.018573</ele>
        <time>2022-09-26T08:29:27.410Z</time>
      </trkpt>
      <trkpt lat="46.86701" lon="15.47075">
        <ele>343.900139</ele>
        <time>2022-09-26T08:29:29.408Z</time>
      </trkpt>
      <trkpt lat="46.86701" lon="15.47091">
        <ele>343.763247</ele>
        <time>2022-09-26T08:29:31.427Z</time>
      </trkpt>
      <trkpt lat="46.867" lon="15.47107">
        <ele>343.627131</ele>
        <time>2022-09-26T08:29:33.412Z</time>
      </trkpt>
      <trkpt lat="46.867" lon="15.47123">
        <ele>343.486746</ele>
        <time>2022-09-26T08:29:35.421Z</time>
      </trkpt>
      <trkpt lat="46.86701" lon="15.47139">
        <ele>343.347215</ele>
        <time>2022-09-26T08:29:37.420Z</time>
      </trkpt>
      <trkpt lat="46.86701" lon="15.47155">
        <ele>343.205092</ele>
        <time>2022-09-26T08:29:39.414Z</time>
      </trkpt>
      <trkpt lat="46.86701" lon="15.47171">
        <ele>343.063696</ele>
        <time>2022-09-26T08:29:41.419Z</time>
      </trkpt>
      <trkpt lat="46.867" lon="15.47188">
        <ele>342.921367</ele>
        <time>2022-09-26T08:29:43.415Z</time>
      </trkpt>
      <trkpt lat="46.86699" lon="15.47205">
        <ele>342.770338</ele>
        <time>2022-09-26T08:29:45.483Z</time>
      </trkpt>
      <trkpt lat="46.86697" lon="15.47222">
        <ele>342.617765</ele>
        <time>2022-09-26T08:29:47.434Z</time>
      </trkpt>
      <trkpt lat="46.86695" lon="15.47239">
        <ele>342.470938</ele>
        <time>2022-09-26T08:29:49.418Z</time>
      </trkpt>
      <trkpt lat="46.86692" lon="15.47255">
        <ele>342.326695</ele>
        <time>2022-09-26T08:29:51.432Z</time>
      </trkpt>
      <trkpt lat="46.86689" lon="15.47271">
        <ele>342.178995</ele>
        <time>2022-09-26T08:29:53.427Z</time>
      </trkpt>
      <trkpt lat="46.86686" lon="15.47287">
        <ele>342.033825</ele>
        <time>2022-09-26T08:29:55.437Z</time>
      </trkpt>
      <trkpt lat="46.86683" lon="15.47303">
        <ele>341.891091</ele>
        <time>2022-09-26T08:29:57.420Z</time>
      </trkpt>
      <trkpt lat="46.8668" lon="15.47319">
        <ele>341.742223</ele>
        <time>2022-09-26T08:29:59.418Z</time>
      </trkpt>
      <trkpt lat="46.86677" lon="15.47336">
        <ele>341.630997</ele>
        <time>2022-09-26T08:30:01.422Z</time>
      </trkpt>
      <trkpt lat="46.86675" lon="15.47352">
        <ele>341.554558</ele>
        <time>2022-09-26T08:30:03.423Z</time>
      </trkpt>
      <trkpt lat="46.86672" lon="15.47368">
        <ele>341.48308</ele>
        <time>2022-09-26T08:30:05.531Z</time>
      </trkpt>
      <trkpt lat="46.8667" lon="15.47384">
        <ele>341.408414</ele>
        <time>2022-09-26T08:30:07.427Z</time>
      </trkpt>
      <trkpt lat="46.86669" lon="15.474">
        <ele>341.338264</ele>
        <time>2022-09-26T08:30:09.418Z</time>
      </trkpt>
      <trkpt lat="46.86668" lon="15.47414">
        <ele>341.272968</ele>
        <time>2022-09-26T08:30:11.429Z</time>
      </trkpt>
      <trkpt lat="46.86668" lon="15.47428">
        <ele>341.212194</ele>
        <time>2022-09-26T08:30:13.418Z</time>
      </trkpt>
      <trkpt lat="46.86668" lon="15.47447">
        <ele>341.127266</ele>
        <time>2022-09-26T08:30:16.420Z</time>
      </trkpt>
      <trkpt lat="46.86668" lon="15.47463">
        <ele>341.053976</ele>
        <time>2022-09-26T08:30:19.417Z</time>
      </trkpt>
      <trkpt lat="46.86669" lon="15.4748">
        <ele>340.979311</ele>
        <time>2022-09-26T08:30:22.417Z</time>
      </trkpt>
      <trkpt lat="46.8667" lon="15.47497">
        <ele>340.901457</ele>
        <time>2022-09-26T08:30:25.416Z</time>
      </trkpt>
      <trkpt lat="46.86673" lon="15.47514">
        <ele>340.823901</ele>
        <time>2022-09-26T08:30:28.432Z</time>
      </trkpt>
      <trkpt lat="46.86675" lon="15.47531">
        <ele>340.746768</ele>
        <time>2022-09-26T08:30:31.412Z</time>
      </trkpt>
      <trkpt lat="46.86677" lon="15.47545">
        <ele>340.683446</ele>
        <time>2022-09-26T08:30:34.418Z</time>
      </trkpt>
      <trkpt lat="46.86678" lon="15.47562">
        <ele>340.607341</ele>
        <time>2022-09-26T08:30:38.419Z</time>
      </trkpt>
      <trkpt lat="46.8668" lon="15.4758">
        <ele>340.527388</ele>
        <time>2022-09-26T08:30:41.428Z</time>
      </trkpt>
      <trkpt lat="46.86682" lon="15.47597">
        <ele>340.402064</ele>
        <time>2022-09-26T08:30:44.422Z</time>
      </trkpt>
      <trkpt lat="46.86682" lon="15.47615">
        <ele>340.22601</ele>
        <time>2022-09-26T08:30:47.417Z</time>
      </trkpt>
      <trkpt lat="46.86684" lon="15.47633">
        <ele>340.059878</ele>
        <time>2022-09-26T08:30:50.423Z</time>
      </trkpt>
      <trkpt lat="46.86686" lon="15.47651">
        <ele>339.882725</ele>
        <time>2022-09-26T08:30:53.417Z</time>
      </trkpt>
      <trkpt lat="46.8669" lon="15.4767">
        <ele>339.698123</ele>
        <time>2022-09-26T08:30:56.401Z</time>
      </trkpt>
      <trkpt lat="46.86694" lon="15.47689">
        <ele>339.511869</ele>
        <time>2022-09-26T08:30:59.417Z</time>
      </trkpt>
      <trkpt lat="46.86698" lon="15.47701">
        <ele>339.385286</ele>
        <time>2022-09-26T08:31:01.400Z</time>
      </trkpt>
      <trkpt lat="46.86704" lon="15.47716">
        <ele>339.22057</ele>
        <time>2022-09-26T08:31:04.411Z</time>
      </trkpt>
      <trkpt lat="46.86712" lon="15.47728">
        <ele>339.064392</ele>
        <time>2022-09-26T08:31:07.444Z</time>
      </trkpt>
      <trkpt lat="46.86722" lon="15.47735">
        <ele>338.902924</ele>
        <time>2022-09-26T08:31:10.418Z</time>
      </trkpt>
      <trkpt lat="46.86735" lon="15.47737">
        <ele>338.727063</ele>
        <time>2022-09-26T08:31:13.415Z</time>
      </trkpt>
      <trkpt lat="46.86748" lon="15.47738">
        <ele>338.551198</ele>
        <time>2022-09-26T08:31:16.410Z</time>
      </trkpt>
      <trkpt lat="46.86759" lon="15.4774">
        <ele>338.397782</ele>
        <time>2022-09-26T08:31:20.426Z</time>
      </trkpt>
      <trkpt lat="46.86769" lon="15.4774">
        <ele>338.25243</ele>
        <time>2022-09-26T08:31:24.420Z</time>
      </trkpt>
      <trkpt lat="46.8678" lon="15.47741">
        <ele>338.098449</ele>
        <time>2022-09-26T08:31:28.406Z</time>
      </trkpt>
      <trkpt lat="46.8679" lon="15.47743">
        <ele>338.094928</ele>
        <time>2022-09-26T08:31:32.409Z</time>
      </trkpt>
      <trkpt lat="46.868" lon="15.47744">
        <ele>338.366359</ele>
        <time>2022-09-26T08:31:36.409Z</time>
      </trkpt>
      <trkpt lat="46.8681" lon="15.47746">
        <ele>338.64118</ele>
        <time>2022-09-26T08:31:40.413Z</time>
      </trkpt>
      <trkpt lat="46.8682" lon="15.47747">
        <ele>338.937418</ele>
        <time>2022-09-26T08:31:44.411Z</time>
      </trkpt>
      <trkpt lat="46.86831" lon="15.47748">
        <ele>339.233338</ele>
        <time>2022-09-26T08:31:48.419Z</time>
      </trkpt>
      <trkpt lat="46.8684" lon="15.47749">
        <ele>339.504297</ele>
        <time>2022-09-26T08:31:52.418Z</time>
      </trkpt>
      <trkpt lat="46.86851" lon="15.47749">
        <ele>339.797101</ele>
        <time>2022-09-26T08:31:56.408Z</time>
      </trkpt>
      <trkpt lat="46.86862" lon="15.47749">
        <ele>340.112444</ele>
        <time>2022-09-26T08:32:01.413Z</time>
      </trkpt>
      <trkpt lat="46.86871" lon="15.47748">
        <ele>340.377787</ele>
        <time>2022-09-26T08:32:05.428Z</time>
      </trkpt>
      <trkpt lat="46.86882" lon="15.47745">
        <ele>340.675161</ele>
        <time>2022-09-26T08:32:10.413Z</time>
      </trkpt>
      <trkpt lat="46.86893" lon="15.47745">
        <ele>340.979274</ele>
        <time>2022-09-26T08:32:16.415Z</time>
      </trkpt>
      <trkpt lat="46.86902" lon="15.47747">
        <ele>341.244205</ele>
        <time>2022-09-26T08:32:21.411Z</time>
      </trkpt>
      <trkpt lat="46.86911" lon="15.47747">
        <ele>341.497587</ele>
        <time>2022-09-26T08:32:26.410Z</time>
      </trkpt>
      <trkpt lat="46.86922" lon="15.47745">
        <ele>341.800602</ele>
        <time>2022-09-26T08:32:31.422Z</time>
      </trkpt>
      <trkpt lat="46.86931" lon="15.47744">
        <ele>342.058881</ele>
        <time>2022-09-26T08:32:35.419Z</time>
      </trkpt>
      <trkpt lat="46.86941" lon="15.47744">
        <ele>342.343232</ele>
        <time>2022-09-26T08:32:41.428Z</time>
      </trkpt>
      <trkpt lat="46.86951" lon="15.47742">
        <ele>342.62852</ele>
        <time>2022-09-26T08:32:52.417Z</time>
      </trkpt>
      <trkpt lat="46.86961" lon="15.47741">
        <ele>342.908937</ele>
        <time>2022-09-26T08:32:58.425Z</time>
      </trkpt>
      <trkpt lat="46.86971" lon="15.47742">
        <ele>343.470851</ele>
        <time>2022-09-26T08:33:04.421Z</time>
      </trkpt>
      <trkpt lat="46.86981" lon="15.47747">
        <ele>344.441093</ele>
        <time>2022-09-26T08:33:11.414Z</time>
      </trkpt>
      <trkpt lat="46.8699" lon="15.47747">
        <ele>345.284029</ele>
        <time>2022-09-26T08:33:16.417Z</time>
      </trkpt>
      <trkpt lat="46.87" lon="15.47745">
        <ele>346.244229</ele>
        <time>2022-09-26T08:33:23.393Z</time>
      </trkpt>
      <trkpt lat="46.8701" lon="15.47747">
        <ele>347.128705</ele>
        <time>2022-09-26T08:33:29.422Z</time>
      </trkpt>
      <trkpt lat="46.8702" lon="15.47749">
        <ele>348.098861</ele>
        <time>2022-09-26T08:33:36.403Z</time>
      </trkpt>
      <trkpt lat="46.8703" lon="15.47748">
        <ele>349.043787</ele>
        <time>2022-09-26T08:33:43.436Z</time>
      </trkpt>
      <trkpt lat="46.87039" lon="15.47749">
        <ele>349.877737</ele>
        <time>2022-09-26T08:33:49.415Z</time>
      </trkpt>
      <trkpt lat="46.87048" lon="15.47743">
        <ele>350.799116</ele>
        <time>2022-09-26T08:33:55.436Z</time>
      </trkpt>
      <trkpt lat="46.87058" lon="15.47742">
        <ele>351.725113</ele>
        <time>2022-09-26T08:34:02.432Z</time>
      </trkpt>
      <trkpt lat="46.87069" lon="15.47742">
        <ele>352.687809</ele>
        <time>2022-09-26T08:34:08.422Z</time>
      </trkpt>
      <trkpt lat="46.87079" lon="15.47745">
        <ele>353.632727</ele>
        <time>2022-09-26T08:34:14.420Z</time>
      </trkpt>
      <trkpt lat="46.87088" lon="15.47747">
        <ele>354.511106</ele>
        <time>2022-09-26T08:34:20.412Z</time>
      </trkpt>
      <trkpt lat="46.87097" lon="15.47751">
        <ele>355.374778</ele>
        <time>2022-09-26T08:34:25.424Z</time>
      </trkpt>
      <trkpt lat="46.87108" lon="15.47753">
        <ele>356.402467</ele>
        <time>2022-09-26T08:34:30.431Z</time>
      </trkpt>
      <trkpt lat="46.87119" lon="15.47753">
        <ele>357.383677</ele>
        <time>2022-09-26T08:34:35.418Z</time>
      </trkpt>
      <trkpt lat="46.87129" lon="15.47753">
        <ele>358.290814</ele>
        <time>2022-09-26T08:34:42.427Z</time>
      </trkpt>
      <trkpt lat="46.87139" lon="15.47757">
        <ele>359.264515</ele>
        <time>2022-09-26T08:34:50.418Z</time>
      </trkpt>
      <trkpt lat="46.87149" lon="15.47759">
        <ele>360.394276</ele>
        <time>2022-09-26T08:34:56.408Z</time>
      </trkpt>
      <trkpt lat="46.87159" lon="15.47761">
        <ele>361.589018</ele>
        <time>2022-09-26T08:35:02.423Z</time>
      </trkpt>
      <trkpt lat="46.87168" lon="15.47766">
        <ele>362.646982</ele>
        <time>2022-09-26T08:35:08.416Z</time>
      </trkpt>
      <trkpt lat="46.87176" lon="15.47773">
        <ele>363.79441</ele>
        <time>2022-09-26T08:35:15.432Z</time>
      </trkpt>
      <trkpt lat="46.87186" lon="15.47778">
        <ele>365.034975</ele>
        <time>2022-09-26T08:35:22.404Z</time>
      </trkpt>
      <trkpt lat="46.87195" lon="15.47784">
        <ele>366.210246</ele>
        <time>2022-09-26T08:35:28.418Z</time>
      </trkpt>
      <trkpt lat="46.87204" lon="15.47792">
        <ele>367.366376</ele>
        <time>2022-09-26T08:35:34.420Z</time>
      </trkpt>
      <trkpt lat="46.87211" lon="15.47799">
        <ele>368.428577</ele>
        <time>2022-09-26T08:35:40.417Z</time>
      </trkpt>
      <trkpt lat="46.87218" lon="15.47809">
        <ele>369.581543</ele>
        <time>2022-09-26T08:35:47.418Z</time>
      </trkpt>
      <trkpt lat="46.87224" lon="15.4782">
        <ele>370.669742</ele>
        <time>2022-09-26T08:35:53.409Z</time>
      </trkpt>
      <trkpt lat="46.8723" lon="15.4783">
        <ele>371.771297</ele>
        <time>2022-09-26T08:35:59.508Z</time>
      </trkpt>
      <trkpt lat="46.87237" lon="15.47839">
        <ele>372.866149</ele>
        <time>2022-09-26T08:36:05.423Z</time>
      </trkpt>
      <trkpt lat="46.87243" lon="15.4785">
        <ele>374.007273</ele>
        <time>2022-09-26T08:36:11.418Z</time>
      </trkpt>
      <trkpt lat="46.8725" lon="15.4786">
        <ele>375.12148</ele>
        <time>2022-09-26T08:36:17.411Z</time>
      </trkpt>
      <trkpt lat="46.87255" lon="15.47871">
        <ele>376.258507</ele>
        <time>2022-09-26T08:36:24.418Z</time>
      </trkpt>
      <trkpt lat="46.87259" lon="15.47883">
        <ele>377.324432</ele>
        <time>2022-09-26T08:36:30.414Z</time>
      </trkpt>
      <trkpt lat="46.87263" lon="15.47897">
        <ele>378.491025</ele>
        <time>2022-09-26T08:36:37.433Z</time>
      </trkpt>
      <trkpt lat="46.87266" lon="15.47911">
        <ele>379.701577</ele>
        <time>2022-09-26T08:36:44.422Z</time>
      </trkpt>
      <trkpt lat="46.87269" lon="15.47924">
        <ele>380.766992</ele>
        <time>2022-09-26T08:36:50.469Z</time>
      </trkpt>
      <trkpt lat="46.87271" lon="15.47937">
        <ele>381.537555</ele>
        <time>2022-09-26T08:36:56.406Z</time>
      </trkpt>
      <trkpt lat="46.87273" lon="15.47951">
        <ele>382.29205</ele>
        <time>2022-09-26T08:37:03.411Z</time>
      </trkpt>
      <trkpt lat="46.87273" lon="15.47966">
        <ele>383.090507</ele>
        <time>2022-09-26T08:37:10.411Z</time>
      </trkpt>
      <trkpt lat="46.87272" lon="15.47982">
        <ele>383.940206</ele>
        <time>2022-09-26T08:37:16.413Z</time>
      </trkpt>
      <trkpt lat="46.87273" lon="15.47996">
        <ele>384.662703</ele>
        <time>2022-09-26T08:37:22.428Z</time>
      </trkpt>
      <trkpt lat="46.87276" lon="15.4801">
        <ele>385.408566</ele>
        <time>2022-09-26T08:37:28.437Z</time>
      </trkpt>
      <trkpt lat="46.87276" lon="15.48024">
        <ele>386.148167</ele>
        <time>2022-09-26T08:37:34.407Z</time>
      </trkpt>
      <trkpt lat="46.87278" lon="15.48037">
        <ele>386.852892</ele>
        <time>2022-09-26T08:37:40.417Z</time>
      </trkpt>
      <trkpt lat="46.87281" lon="15.48051">
        <ele>387.626676</ele>
        <time>2022-09-26T08:37:47.425Z</time>
      </trkpt>
      <trkpt lat="46.87284" lon="15.48065">
        <ele>388.389674</ele>
        <time>2022-09-26T08:37:53.406Z</time>
      </trkpt>
      <trkpt lat="46.87289" lon="15.48077">
        <ele>389.148611</ele>
        <time>2022-09-26T08:37:57.401Z</time>
      </trkpt>
      <trkpt lat="46.87295" lon="15.4809">
        <ele>389.971924</ele>
        <time>2022-09-26T08:38:02.460Z</time>
      </trkpt>
      <trkpt lat="46.87301" lon="15.48103">
        <ele>390.813522</ele>
        <time>2022-09-26T08:38:08.415Z</time>
      </trkpt>
      <trkpt lat="46.87308" lon="15.48115">
        <ele>391.666116</ele>
        <time>2022-09-26T08:38:14.463Z</time>
      </trkpt>
      <trkpt lat="46.87315" lon="15.48125">
        <ele>392.417941</ele>
        <time>2022-09-26T08:38:19.421Z</time>
      </trkpt>
      <trkpt lat="46.87321" lon="15.48136">
        <ele>393.146136</ele>
        <time>2022-09-26T08:38:25.429Z</time>
      </trkpt>
      <trkpt lat="46.87329" lon="15.48143">
        <ele>393.888786</ele>
        <time>2022-09-26T08:38:29.411Z</time>
      </trkpt>
      <trkpt lat="46.87339" lon="15.48151">
        <ele>394.749369</ele>
        <time>2022-09-26T08:38:34.408Z</time>
      </trkpt>
      <trkpt lat="46.87348" lon="15.48159">
        <ele>394.148828</ele>
        <time>2022-09-26T08:38:40.423Z</time>
      </trkpt>
      <trkpt lat="46.87357" lon="15.48165">
        <ele>393.610928</ele>
        <time>2022-09-26T08:38:45.413Z</time>
      </trkpt>
      <trkpt lat="46.87366" lon="15.48171">
        <ele>393.065276</ele>
        <time>2022-09-26T08:38:50.434Z</time>
      </trkpt>
      <trkpt lat="46.87376" lon="15.48174">
        <ele>392.462861</ele>
        <time>2022-09-26T08:38:55.433Z</time>
      </trkpt>
      <trkpt lat="46.87386" lon="15.48174">
        <ele>391.924151</ele>
        <time>2022-09-26T08:38:59.421Z</time>
      </trkpt>
      <trkpt lat="46.87398" lon="15.48171">
        <ele>391.248786</ele>
        <time>2022-09-26T08:39:03.425Z</time>
      </trkpt>
      <trkpt lat="46.87408" lon="15.48166">
        <ele>390.665326</ele>
        <time>2022-09-26T08:39:06.427Z</time>
      </trkpt>
      <trkpt lat="46.87418" lon="15.48157">
        <ele>390.006854</ele>
        <time>2022-09-26T08:39:09.419Z</time>
      </trkpt>
      <trkpt lat="46.87429" lon="15.48148">
        <ele>389.307742</ele>
        <time>2022-09-26T08:39:12.435Z</time>
      </trkpt>
      <trkpt lat="46.8744" lon="15.48141">
        <ele>388.608154</ele>
        <time>2022-09-26T08:39:15.450Z</time>
      </trkpt>
      <trkpt lat="46.8745" lon="15.48134">
        <ele>387.989688</ele>
        <time>2022-09-26T08:39:18.422Z</time>
      </trkpt>
      <trkpt lat="46.87459" lon="15.48129">
        <ele>387.456275</ele>
        <time>2022-09-26T08:39:21.457Z</time>
      </trkpt>
      <trkpt lat="46.87468" lon="15.48124">
        <ele>386.884297</ele>
        <time>2022-09-26T08:39:24.426Z</time>
      </trkpt>
      <trkpt lat="46.87479" lon="15.48115">
        <ele>386.192715</ele>
        <time>2022-09-26T08:39:27.440Z</time>
      </trkpt>
      <trkpt lat="46.87486" lon="15.48107">
        <ele>385.678088</ele>
        <time>2022-09-26T08:39:29.431Z</time>
      </trkpt>
      <trkpt lat="46.87495" lon="15.48095">
        <ele>384.996548</ele>
        <time>2022-09-26T08:39:32.423Z</time>
      </trkpt>
      <trkpt lat="46.87504" lon="15.48089">
        <ele>384.464893</ele>
        <time>2022-09-26T08:39:34.409Z</time>
      </trkpt>
      <trkpt lat="46.87513" lon="15.48081">
        <ele>383.855872</ele>
        <time>2022-09-26T08:39:36.412Z</time>
      </trkpt>
      <trkpt lat="46.87521" lon="15.4807">
        <ele>383.221726</ele>
        <time>2022-09-26T08:39:38.460Z</time>
      </trkpt>
      <trkpt lat="46.8753" lon="15.4806">
        <ele>382.60632</ele>
        <time>2022-09-26T08:39:40.428Z</time>
      </trkpt>
      <trkpt lat="46.87539" lon="15.48049">
        <ele>381.9604</ele>
        <time>2022-09-26T08:39:42.410Z</time>
      </trkpt>
      <trkpt lat="46.87547" lon="15.48036">
        <ele>381.233395</ele>
        <time>2022-09-26T08:39:44.427Z</time>
      </trkpt>
      <trkpt lat="46.87556" lon="15.48019">
        <ele>380.42943</ele>
        <time>2022-09-26T08:39:46.403Z</time>
      </trkpt>
      <trkpt lat="46.87564" lon="15.47998">
        <ele>379.490765</ele>
        <time>2022-09-26T08:39:48.415Z</time>
      </trkpt>
      <trkpt lat="46.8757" lon="15.47977">
        <ele>378.590124</ele>
        <time>2022-09-26T08:39:50.443Z</time>
      </trkpt>
      <trkpt lat="46.87578" lon="15.4796">
        <ele>377.824509</ele>
        <time>2022-09-26T08:39:52.426Z</time>
      </trkpt>
      <trkpt lat="46.87586" lon="15.47947">
        <ele>377.133916</ele>
        <time>2022-09-26T08:39:54.439Z</time>
      </trkpt>
      <trkpt lat="46.87596" lon="15.4794">
        <ele>376.516783</ele>
        <time>2022-09-26T08:39:56.479Z</time>
      </trkpt>
      <trkpt lat="46.87605" lon="15.47936">
        <ele>375.968622</ele>
        <time>2022-09-26T08:39:59.383Z</time>
      </trkpt>
      <trkpt lat="46.87594" lon="15.47937">
        <ele>375.350489</ele>
        <time>2022-09-26T08:41:00.526Z</time>
      </trkpt>
      <trkpt lat="46.87586" lon="15.47943">
        <ele>374.814073</ele>
        <time>2022-09-26T08:41:03.409Z</time>
      </trkpt>
      <trkpt lat="46.87577" lon="15.47953">
        <ele>374.512869</ele>
        <time>2022-09-26T08:41:06.406Z</time>
      </trkpt>
      <trkpt lat="46.87571" lon="15.47966">
        <ele>374.629632</ele>
        <time>2022-09-26T08:41:09.415Z</time>
      </trkpt>
      <trkpt lat="46.87566" lon="15.47982">
        <ele>374.753444</ele>
        <time>2022-09-26T08:41:12.416Z</time>
      </trkpt>
      <trkpt lat="46.8756" lon="15.47996">
        <ele>374.869974</ele>
        <time>2022-09-26T08:41:15.422Z</time>
      </trkpt>
      <trkpt lat="46.87556" lon="15.4801">
        <ele>374.976238</ele>
        <time>2022-09-26T08:41:18.419Z</time>
      </trkpt>
      <trkpt lat="46.87551" lon="15.48021">
        <ele>375.072077</ele>
        <time>2022-09-26T08:41:21.416Z</time>
      </trkpt>
      <trkpt lat="46.87543" lon="15.48032">
        <ele>375.185743</ele>
        <time>2022-09-26T08:41:24.403Z</time>
      </trkpt>
      <trkpt lat="46.87536" lon="15.48041">
        <ele>375.285138</ele>
        <time>2022-09-26T08:41:27.428Z</time>
      </trkpt>
      <trkpt lat="46.87529" lon="15.48052">
        <ele>375.387635</ele>
        <time>2022-09-26T08:41:31.413Z</time>
      </trkpt>
      <trkpt lat="46.87521" lon="15.48061">
        <ele>375.493617</ele>
        <time>2022-09-26T08:41:36.396Z</time>
      </trkpt>
      <trkpt lat="46.87526" lon="15.48073">
        <ele>375.592963</ele>
        <time>2022-09-26T08:41:41.404Z</time>
      </trkpt>
      <trkpt lat="46.87538" lon="15.48068">
        <ele>375.721889</ele>
        <time>2022-09-26T08:41:44.421Z</time>
      </trkpt>
      <trkpt lat="46.87548" lon="15.48058">
        <ele>375.845775</ele>
        <time>2022-09-26T08:41:46.404Z</time>
      </trkpt>
      <trkpt lat="46.87559" lon="15.48049">
        <ele>375.977692</ele>
        <time>2022-09-26T08:41:48.416Z</time>
      </trkpt>
      <trkpt lat="46.87571" lon="15.48039">
        <ele>376.122306</ele>
        <time>2022-09-26T08:41:50.420Z</time>
      </trkpt>
      <trkpt lat="46.87585" lon="15.4803">
        <ele>376.285397</ele>
        <time>2022-09-26T08:41:52.438Z</time>
      </trkpt>
      <trkpt lat="46.87601" lon="15.48021">
        <ele>375.684632</ele>
        <time>2022-09-26T08:41:54.416Z</time>
      </trkpt>
      <trkpt lat="46.87618" lon="15.48014">
        <ele>374.703843</ele>
        <time>2022-09-26T08:41:56.436Z</time>
      </trkpt>
      <trkpt lat="46.87627" lon="15.48011">
        <ele>374.199149</ele>
        <time>2022-09-26T08:41:57.419Z</time>
      </trkpt>
      <trkpt lat="46.87636" lon="15.48009">
        <ele>373.692759</ele>
        <time>2022-09-26T08:41:58.432Z</time>
      </trkpt>
      <trkpt lat="46.87646" lon="15.48007">
        <ele>373.178508</ele>
        <time>2022-09-26T08:41:59.470Z</time>
      </trkpt>
      <trkpt lat="46.87655" lon="15.48006">
        <ele>372.650164</ele>
        <time>2022-09-26T08:42:00.420Z</time>
      </trkpt>
      <trkpt lat="46.87665" lon="15.48005">
        <ele>372.101243</ele>
        <time>2022-09-26T08:42:01.411Z</time>
      </trkpt>
      <trkpt lat="46.87675" lon="15.48004">
        <ele>371.547667</ele>
        <time>2022-09-26T08:42:02.428Z</time>
      </trkpt>
      <trkpt lat="46.87686" lon="15.48004">
        <ele>370.972592</ele>
        <time>2022-09-26T08:42:03.411Z</time>
      </trkpt>
      <trkpt lat="46.87696" lon="15.48006">
        <ele>370.394832</ele>
        <time>2022-09-26T08:42:04.426Z</time>
      </trkpt>
      <trkpt lat="46.87707" lon="15.48007">
        <ele>369.822141</ele>
        <time>2022-09-26T08:42:05.429Z</time>
      </trkpt>
      <trkpt lat="46.87717" lon="15.48011">
        <ele>369.226201</ele>
        <time>2022-09-26T08:42:06.451Z</time>
      </trkpt>
      <trkpt lat="46.87728" lon="15.48015">
        <ele>368.613411</ele>
        <time>2022-09-26T08:42:07.417Z</time>
      </trkpt>
      <trkpt lat="46.87738" lon="15.4802">
        <ele>368.048209</ele>
        <time>2022-09-26T08:42:08.429Z</time>
      </trkpt>
      <trkpt lat="46.87746" lon="15.48027">
        <ele>367.534629</ele>
        <time>2022-09-26T08:42:09.407Z</time>
      </trkpt>
      <trkpt lat="46.87754" lon="15.48031">
        <ele>367.044735</ele>
        <time>2022-09-26T08:42:10.434Z</time>
      </trkpt>
      <trkpt lat="46.8777" lon="15.48041">
        <ele>366.092051</ele>
        <time>2022-09-26T08:42:12.411Z</time>
      </trkpt>
      <trkpt lat="46.87781" lon="15.4805">
        <ele>365.271724</ele>
        <time>2022-09-26T08:42:14.466Z</time>
      </trkpt>
      <trkpt lat="46.87792" lon="15.48062">
        <ele>364.435815</ele>
        <time>2022-09-26T08:42:16.404Z</time>
      </trkpt>
      <trkpt lat="46.87804" lon="15.48069">
        <ele>363.660068</ele>
        <time>2022-09-26T08:42:18.424Z</time>
      </trkpt>
      <trkpt lat="46.87815" lon="15.48069">
        <ele>362.940373</ele>
        <time>2022-09-26T08:42:20.443Z</time>
      </trkpt>
      <trkpt lat="46.87827" lon="15.48061">
        <ele>362.154421</ele>
        <time>2022-09-26T08:42:22.459Z</time>
      </trkpt>
      <trkpt lat="46.87837" lon="15.48056">
        <ele>361.494518</ele>
        <time>2022-09-26T08:42:24.438Z</time>
      </trkpt>
      <trkpt lat="46.8785" lon="15.48058">
        <ele>360.676777</ele>
        <time>2022-09-26T08:42:26.414Z</time>
      </trkpt>
      <trkpt lat="46.87866" lon="15.4806">
        <ele>359.656191</ele>
        <time>2022-09-26T08:42:28.401Z</time>
      </trkpt>
      <trkpt lat="46.87876" lon="15.48061">
        <ele>359.077889</ele>
        <time>2022-09-26T08:42:29.420Z</time>
      </trkpt>
      <trkpt lat="46.87885" lon="15.48063">
        <ele>358.484348</ele>
        <time>2022-09-26T08:42:30.436Z</time>
      </trkpt>
      <trkpt lat="46.87894" lon="15.48065">
        <ele>357.904107</ele>
        <time>2022-09-26T08:42:31.414Z</time>
      </trkpt>
      <trkpt lat="46.87904" lon="15.48066">
        <ele>357.31856</ele>
        <time>2022-09-26T08:42:32.435Z</time>
      </trkpt>
      <trkpt lat="46.87913" lon="15.48067">
        <ele>356.733397</ele>
        <time>2022-09-26T08:42:33.423Z</time>
      </trkpt>
      <trkpt lat="46.87923" lon="15.48068">
        <ele>356.136222</ele>
        <time>2022-09-26T08:42:34.424Z</time>
      </trkpt>
      <trkpt lat="46.87941" lon="15.48072">
        <ele>355.053847</ele>
        <time>2022-09-26T08:42:36.420Z</time>
      </trkpt>
      <trkpt lat="46.8795" lon="15.48073">
        <ele>354.534437</ele>
        <time>2022-09-26T08:42:37.404Z</time>
      </trkpt>
      <trkpt lat="46.87959" lon="15.48075">
        <ele>354.016367</ele>
        <time>2022-09-26T08:42:38.415Z</time>
      </trkpt>
      <trkpt lat="46.87975" lon="15.48077">
        <ele>353.108608</ele>
        <time>2022-09-26T08:42:40.424Z</time>
      </trkpt>
      <trkpt lat="46.87989" lon="15.48077">
        <ele>352.317663</ele>
        <time>2022-09-26T08:42:42.416Z</time>
      </trkpt>
      <trkpt lat="46.88002" lon="15.48077">
        <ele>351.621367</ele>
        <time>2022-09-26T08:42:44.420Z</time>
      </trkpt>
      <trkpt lat="46.88012" lon="15.48077">
        <ele>351.041884</ele>
        <time>2022-09-26T08:42:46.418Z</time>
      </trkpt>
      <trkpt lat="46.88023" lon="15.48075">
        <ele>350.457109</ele>
        <time>2022-09-26T08:42:48.407Z</time>
      </trkpt>
      <trkpt lat="46.88032" lon="15.48074">
        <ele>349.937963</ele>
        <time>2022-09-26T08:42:50.434Z</time>
      </trkpt>
      <trkpt lat="46.88041" lon="15.48073">
        <ele>349.418818</ele>
        <time>2022-09-26T08:42:52.474Z</time>
      </trkpt>
      <trkpt lat="46.88053" lon="15.4807">
        <ele>348.781668</ele>
        <time>2022-09-26T08:42:54.414Z</time>
      </trkpt>
      <trkpt lat="46.88065" lon="15.48068">
        <ele>348.092335</ele>
        <time>2022-09-26T08:42:56.424Z</time>
      </trkpt>
      <trkpt lat="46.88078" lon="15.48069">
        <ele>347.366791</ele>
        <time>2022-09-26T08:42:58.404Z</time>
      </trkpt>
      <trkpt lat="46.88089" lon="15.48074">
        <ele>346.733565</ele>
        <time>2022-09-26T08:43:00.439Z</time>
      </trkpt>
      <trkpt lat="46.88098" lon="15.4808">
        <ele>346.182669</ele>
        <time>2022-09-26T08:43:03.415Z</time>
      </trkpt>
      <trkpt lat="46.88103" lon="15.48066">
        <ele>345.589948</ele>
        <time>2022-09-26T08:43:11.414Z</time>
      </trkpt>
      <trkpt lat="46.88115" lon="15.48063">
        <ele>345.224081</ele>
        <time>2022-09-26T08:43:14.468Z</time>
      </trkpt>
      <trkpt lat="46.88125" lon="15.48062">
        <ele>345.110293</ele>
        <time>2022-09-26T08:43:16.422Z</time>
      </trkpt>
      <trkpt lat="46.88134" lon="15.48059">
        <ele>344.999274</ele>
        <time>2022-09-26T08:43:18.419Z</time>
      </trkpt>
      <trkpt lat="46.88143" lon="15.48057">
        <ele>344.883898</ele>
        <time>2022-09-26T08:43:20.403Z</time>
      </trkpt>
      <trkpt lat="46.88152" lon="15.48053">
        <ele>344.773508</ele>
        <time>2022-09-26T08:43:22.411Z</time>
      </trkpt>
      <trkpt lat="46.88161" lon="15.4805">
        <ele>344.66371</ele>
        <time>2022-09-26T08:43:24.414Z</time>
      </trkpt>
      <trkpt lat="46.88169" lon="15.48047">
        <ele>344.55309</ele>
        <time>2022-09-26T08:43:26.419Z</time>
      </trkpt>
      <trkpt lat="46.88178" lon="15.48044">
        <ele>344.441919</ele>
        <time>2022-09-26T08:43:28.412Z</time>
      </trkpt>
      <trkpt lat="46.88191" lon="15.4804">
        <ele>344.281684</ele>
        <time>2022-09-26T08:43:31.558Z</time>
      </trkpt>
      <trkpt lat="46.882" lon="15.48037">
        <ele>344.172988</ele>
        <time>2022-09-26T08:43:33.405Z</time>
      </trkpt>
      <trkpt lat="46.88209" lon="15.48033">
        <ele>344.060242</ele>
        <time>2022-09-26T08:43:35.413Z</time>
      </trkpt>
      <trkpt lat="46.88218" lon="15.48029">
        <ele>343.946407</ele>
        <time>2022-09-26T08:43:37.414Z</time>
      </trkpt>
      <trkpt lat="46.88227" lon="15.48023">
        <ele>343.825457</ele>
        <time>2022-09-26T08:43:39.421Z</time>
      </trkpt>
      <trkpt lat="46.88236" lon="15.48017">
        <ele>343.705316</ele>
        <time>2022-09-26T08:43:41.424Z</time>
      </trkpt>
      <trkpt lat="46.88244" lon="15.48009">
        <ele>343.591617</ele>
        <time>2022-09-26T08:43:43.412Z</time>
      </trkpt>
      <trkpt lat="46.88254" lon="15.47998">
        <ele>343.434205</ele>
        <time>2022-09-26T08:43:46.399Z</time>
      </trkpt>
      <trkpt lat="46.88264" lon="15.47987">
        <ele>343.283962</ele>
        <time>2022-09-26T08:43:49.405Z</time>
      </trkpt>
      <trkpt lat="46.88274" lon="15.47978">
        <ele>343.14042</ele>
        <time>2022-09-26T08:43:52.406Z</time>
      </trkpt>
      <trkpt lat="46.88284" lon="15.47971">
        <ele>343.23987</ele>
        <time>2022-09-26T08:43:55.419Z</time>
      </trkpt>
      <trkpt lat="46.88296" lon="15.47968">
        <ele>343.377591</ele>
        <time>2022-09-26T08:43:58.420Z</time>
      </trkpt>
      <trkpt lat="46.88307" lon="15.47972">
        <ele>343.498678</ele>
        <time>2022-09-26T08:44:01.428Z</time>
      </trkpt>
      <trkpt lat="46.88318" lon="15.47978">
        <ele>343.626556</ele>
        <time>2022-09-26T08:44:04.462Z</time>
      </trkpt>
      <trkpt lat="46.88329" lon="15.47984">
        <ele>343.758041</ele>
        <time>2022-09-26T08:44:07.415Z</time>
      </trkpt>
      <trkpt lat="46.8834" lon="15.47989">
        <ele>343.894335</ele>
        <time>2022-09-26T08:44:10.440Z</time>
      </trkpt>
      <trkpt lat="46.88352" lon="15.47995">
        <ele>344.034695</ele>
        <time>2022-09-26T08:44:13.412Z</time>
      </trkpt>
      <trkpt lat="46.88362" lon="15.47993">
        <ele>344.141041</ele>
        <time>2022-09-26T08:44:15.419Z</time>
      </trkpt>
      <trkpt lat="46.88372" lon="15.47987">
        <ele>344.26085</ele>
        <time>2022-09-26T08:44:17.413Z</time>
      </trkpt>
      <trkpt lat="46.88381" lon="15.4798">
        <ele>344.377409</ele>
        <time>2022-09-26T08:44:19.429Z</time>
      </trkpt>
      <trkpt lat="46.88391" lon="15.47972">
        <ele>344.500596</ele>
        <time>2022-09-26T08:44:21.437Z</time>
      </trkpt>
      <trkpt lat="46.88399" lon="15.47961">
        <ele>344.625748</ele>
        <time>2022-09-26T08:44:23.407Z</time>
      </trkpt>
      <trkpt lat="46.88408" lon="15.47951">
        <ele>344.744002</ele>
        <time>2022-09-26T08:44:25.430Z</time>
      </trkpt>
      <trkpt lat="46.88415" lon="15.47942">
        <ele>344.853124</ele>
        <time>2022-09-26T08:44:27.426Z</time>
      </trkpt>
      <trkpt lat="46.88423" lon="15.47933">
        <ele>344.963586</ele>
        <time>2022-09-26T08:44:29.434Z</time>
      </trkpt>
      <trkpt lat="46.8843" lon="15.47924">
        <ele>345.074164</ele>
        <time>2022-09-26T08:44:31.417Z</time>
      </trkpt>
      <trkpt lat="46.88439" lon="15.47915">
        <ele>345.09097</ele>
        <time>2022-09-26T08:44:33.448Z</time>
      </trkpt>
      <trkpt lat="46.88447" lon="15.47909">
        <ele>345.02999</ele>
        <time>2022-09-26T08:44:35.428Z</time>
      </trkpt>
      <trkpt lat="46.88457" lon="15.47904">
        <ele>344.961569</ele>
        <time>2022-09-26T08:44:37.411Z</time>
      </trkpt>
      <trkpt lat="46.88468" lon="15.479">
        <ele>344.890591</ele>
        <time>2022-09-26T08:44:39.452Z</time>
      </trkpt>
      <trkpt lat="46.8848" lon="15.47897">
        <ele>344.816676</ele>
        <time>2022-09-26T08:44:41.423Z</time>
      </trkpt>
      <trkpt lat="46.88491" lon="15.47895">
        <ele>344.746322</ele>
        <time>2022-09-26T08:44:43.427Z</time>
      </trkpt>
      <trkpt lat="46.88501" lon="15.47894">
        <ele>344.679712</ele>
        <time>2022-09-26T08:44:45.428Z</time>
      </trkpt>
      <trkpt lat="46.88511" lon="15.47891">
        <ele>344.616583</ele>
        <time>2022-09-26T08:44:47.416Z</time>
      </trkpt>
      <trkpt lat="46.88521" lon="15.47889">
        <ele>344.552449</ele>
        <time>2022-09-26T08:44:49.468Z</time>
      </trkpt>
      <trkpt lat="46.88531" lon="15.47886">
        <ele>344.4891</ele>
        <time>2022-09-26T08:44:51.421Z</time>
      </trkpt>
      <trkpt lat="46.8854" lon="15.47884">
        <ele>344.42959</ele>
        <time>2022-09-26T08:44:53.427Z</time>
      </trkpt>
      <trkpt lat="46.8855" lon="15.47884">
        <ele>344.368491</ele>
        <time>2022-09-26T08:44:55.432Z</time>
      </trkpt>
      <trkpt lat="46.88559" lon="15.47886">
        <ele>344.306985</ele>
        <time>2022-09-26T08:44:57.420Z</time>
      </trkpt>
      <trkpt lat="46.88569" lon="15.47888">
        <ele>344.243988</ele>
        <time>2022-09-26T08:44:59.414Z</time>
      </trkpt>
      <trkpt lat="46.88578" lon="15.47891">
        <ele>344.182503</ele>
        <time>2022-09-26T08:45:01.437Z</time>
      </trkpt>
      <trkpt lat="46.88587" lon="15.47896">
        <ele>344.123811</ele>
        <time>2022-09-26T08:45:03.429Z</time>
      </trkpt>
      <trkpt lat="46.88595" lon="15.47902">
        <ele>344.064285</ele>
        <time>2022-09-26T08:45:05.439Z</time>
      </trkpt>
      <trkpt lat="46.88603" lon="15.4791">
        <ele>344.004718</ele>
        <time>2022-09-26T08:45:07.418Z</time>
      </trkpt>
      <trkpt lat="46.8861" lon="15.47919">
        <ele>343.878527</ele>
        <time>2022-09-26T08:45:09.423Z</time>
      </trkpt>
      <trkpt lat="46.88616" lon="15.47929">
        <ele>343.713064</ele>
        <time>2022-09-26T08:45:11.451Z</time>
      </trkpt>
      <trkpt lat="46.88622" lon="15.47939">
        <ele>343.543433</ele>
        <time>2022-09-26T08:45:13.458Z</time>
      </trkpt>
      <trkpt lat="46.8863" lon="15.47947">
        <ele>343.368497</ele>
        <time>2022-09-26T08:45:15.434Z</time>
      </trkpt>
      <trkpt lat="46.88638" lon="15.47955">
        <ele>343.191765</ele>
        <time>2022-09-26T08:45:17.411Z</time>
      </trkpt>
      <trkpt lat="46.88646" lon="15.47961">
        <ele>343.017821</ele>
        <time>2022-09-26T08:45:19.417Z</time>
      </trkpt>
      <trkpt lat="46.88655" lon="15.47968">
        <ele>342.833479</ele>
        <time>2022-09-26T08:45:21.428Z</time>
      </trkpt>
      <trkpt lat="46.88664" lon="15.47974">
        <ele>342.65134</ele>
        <time>2022-09-26T08:45:23.414Z</time>
      </trkpt>
      <trkpt lat="46.88673" lon="15.4798">
        <ele>342.469752</ele>
        <time>2022-09-26T08:45:25.421Z</time>
      </trkpt>
      <trkpt lat="46.88682" lon="15.47987">
        <ele>342.289815</ele>
        <time>2022-09-26T08:45:27.432Z</time>
      </trkpt>
      <trkpt lat="46.8869" lon="15.47993">
        <ele>342.12086</ele>
        <time>2022-09-26T08:45:29.420Z</time>
      </trkpt>
      <trkpt lat="46.88699" lon="15.47999">
        <ele>341.939814</ele>
        <time>2022-09-26T08:45:31.431Z</time>
      </trkpt>
      <trkpt lat="46.88708" lon="15.48004">
        <ele>341.752168</ele>
        <time>2022-09-26T08:45:33.412Z</time>
      </trkpt>
      <trkpt lat="46.88718" lon="15.48009">
        <ele>341.56716</ele>
        <time>2022-09-26T08:45:35.420Z</time>
      </trkpt>
      <trkpt lat="46.88728" lon="15.48014">
        <ele>341.379247</ele>
        <time>2022-09-26T08:45:37.423Z</time>
      </trkpt>
      <trkpt lat="46.88737" lon="15.48018">
        <ele>341.197331</ele>
        <time>2022-09-26T08:45:39.451Z</time>
      </trkpt>
      <trkpt lat="46.88747" lon="15.48022">
        <ele>341.012233</ele>
        <time>2022-09-26T08:45:41.405Z</time>
      </trkpt>
      <trkpt lat="46.88757" lon="15.48025">
        <ele>340.828121</ele>
        <time>2022-09-26T08:45:43.422Z</time>
      </trkpt>
      <trkpt lat="46.88766" lon="15.48029">
        <ele>340.740463</ele>
        <time>2022-09-26T08:45:45.436Z</time>
      </trkpt>
      <trkpt lat="46.88776" lon="15.48033">
        <ele>341.04798</ele>
        <time>2022-09-26T08:45:47.420Z</time>
      </trkpt>
      <trkpt lat="46.88785" lon="15.48037">
        <ele>341.35059</ele>
        <time>2022-09-26T08:45:49.419Z</time>
      </trkpt>
      <trkpt lat="46.88793" lon="15.48041">
        <ele>341.638654</ele>
        <time>2022-09-26T08:45:51.432Z</time>
      </trkpt>
      <trkpt lat="46.88806" lon="15.48049">
        <ele>342.079011</ele>
        <time>2022-09-26T08:45:54.427Z</time>
      </trkpt>
      <trkpt lat="46.88815" lon="15.48054">
        <ele>342.383418</ele>
        <time>2022-09-26T08:45:56.451Z</time>
      </trkpt>
      <trkpt lat="46.88824" lon="15.48059">
        <ele>342.68331</ele>
        <time>2022-09-26T08:45:58.439Z</time>
      </trkpt>
      <trkpt lat="46.88833" lon="15.48062">
        <ele>342.991691</ele>
        <time>2022-09-26T08:46:00.495Z</time>
      </trkpt>
      <trkpt lat="46.88843" lon="15.48063">
        <ele>343.300891</ele>
        <time>2022-09-26T08:46:02.475Z</time>
      </trkpt>
      <trkpt lat="46.88852" lon="15.48059">
        <ele>343.610863</ele>
        <time>2022-09-26T08:46:04.406Z</time>
      </trkpt>
      <trkpt lat="46.88862" lon="15.48053">
        <ele>343.932829</ele>
        <time>2022-09-26T08:46:06.402Z</time>
      </trkpt>
      <trkpt lat="46.88871" lon="15.48048">
        <ele>344.239425</ele>
        <time>2022-09-26T08:46:08.455Z</time>
      </trkpt>
      <trkpt lat="46.88879" lon="15.48043">
        <ele>344.532006</ele>
        <time>2022-09-26T08:46:10.423Z</time>
      </trkpt>
      <trkpt lat="46.8889" lon="15.48035">
        <ele>344.931798</ele>
        <time>2022-09-26T08:46:13.405Z</time>
      </trkpt>
      <trkpt lat="46.889" lon="15.48028">
        <ele>345.277687</ele>
        <time>2022-09-26T08:46:16.415Z</time>
      </trkpt>
      <trkpt lat="46.88909" lon="15.48024">
        <ele>345.572297</ele>
        <time>2022-09-26T08:46:19.456Z</time>
      </trkpt>
      <trkpt lat="46.88919" lon="15.48018">
        <ele>345.912739</ele>
        <time>2022-09-26T08:46:23.451Z</time>
      </trkpt>
      <trkpt lat="46.88929" lon="15.48015">
        <ele>346.25076</ele>
        <time>2022-09-26T08:46:28.420Z</time>
      </trkpt>
      <trkpt lat="46.88942" lon="15.48019">
        <ele>346.673952</ele>
        <time>2022-09-26T08:46:33.505Z</time>
      </trkpt>
      <trkpt lat="46.88952" lon="15.48021">
        <ele>347.000212</ele>
        <time>2022-09-26T08:46:35.423Z</time>
      </trkpt>
      <trkpt lat="46.88962" lon="15.48024">
        <ele>347.362852</ele>
        <time>2022-09-26T08:46:39.423Z</time>
      </trkpt>
      <trkpt lat="46.88974" lon="15.48021">
        <ele>347.769482</ele>
        <time>2022-09-26T08:46:43.434Z</time>
      </trkpt>
      <trkpt lat="46.88983" lon="15.48013">
        <ele>348.112813</ele>
        <time>2022-09-26T08:46:46.458Z</time>
      </trkpt>
      <trkpt lat="46.88989" lon="15.47999">
        <ele>348.501668</ele>
        <time>2022-09-26T08:46:49.420Z</time>
      </trkpt>
      <trkpt lat="46.88993" lon="15.47986">
        <ele>348.840011</ele>
        <time>2022-09-26T08:46:52.421Z</time>
      </trkpt>
      <trkpt lat="46.88999" lon="15.47972">
        <ele>349.21387</ele>
        <time>2022-09-26T08:46:55.429Z</time>
      </trkpt>
      <trkpt lat="46.89005" lon="15.4796">
        <ele>349.556882</ele>
        <time>2022-09-26T08:46:58.479Z</time>
      </trkpt>
      <trkpt lat="46.89012" lon="15.47948">
        <ele>349.917015</ele>
        <time>2022-09-26T08:47:01.420Z</time>
      </trkpt>
      <trkpt lat="46.8902" lon="15.47937">
        <ele>350.29119</ele>
        <time>2022-09-26T08:47:04.427Z</time>
      </trkpt>
      <trkpt lat="46.89025" lon="15.47924">
        <ele>350.632251</ele>
        <time>2022-09-26T08:47:07.462Z</time>
      </trkpt>
      <trkpt lat="46.89033" lon="15.47913">
        <ele>350.996755</ele>
        <time>2022-09-26T08:47:10.410Z</time>
      </trkpt>
      <trkpt lat="46.89041" lon="15.47903">
        <ele>351.354044</ele>
        <time>2022-09-26T08:47:13.414Z</time>
      </trkpt>
      <trkpt lat="46.89051" lon="15.47891">
        <ele>351.792828</ele>
        <time>2022-09-26T08:47:16.412Z</time>
      </trkpt>
      <trkpt lat="46.89059" lon="15.47879">
        <ele>352.193363</ele>
        <time>2022-09-26T08:47:19.423Z</time>
      </trkpt>
      <trkpt lat="46.89069" lon="15.47865">
        <ele>352.418794</ele>
        <time>2022-09-26T08:47:22.439Z</time>
      </trkpt>
      <trkpt lat="46.89079" lon="15.47854">
        <ele>352.25763</ele>
        <time>2022-09-26T08:47:25.413Z</time>
      </trkpt>
      <trkpt lat="46.89087" lon="15.47846">
        <ele>352.140686</ele>
        <time>2022-09-26T08:47:27.423Z</time>
      </trkpt>
      <trkpt lat="46.89098" lon="15.47834">
        <ele>351.972019</ele>
        <time>2022-09-26T08:47:30.475Z</time>
      </trkpt>
      <trkpt lat="46.89108" lon="15.47825">
        <ele>351.817754</ele>
        <time>2022-09-26T08:47:33.422Z</time>
      </trkpt>
      <trkpt lat="46.89119" lon="15.47816">
        <ele>351.660975</ele>
        <time>2022-09-26T08:47:36.408Z</time>
      </trkpt>
      <trkpt lat="46.89129" lon="15.47807">
        <ele>351.513505</ele>
        <time>2022-09-26T08:47:39.414Z</time>
      </trkpt>
      <trkpt lat="46.89139" lon="15.47798">
        <ele>351.366667</ele>
        <time>2022-09-26T08:47:42.455Z</time>
      </trkpt>
      <trkpt lat="46.89147" lon="15.47787">
        <ele>351.226559</ele>
        <time>2022-09-26T08:47:45.424Z</time>
      </trkpt>
      <trkpt lat="46.89155" lon="15.47778">
        <ele>351.096762</ele>
        <time>2022-09-26T08:47:48.467Z</time>
      </trkpt>
      <trkpt lat="46.89163" lon="15.47769">
        <ele>350.974753</ele>
        <time>2022-09-26T08:47:51.435Z</time>
      </trkpt>
      <trkpt lat="46.89172" lon="15.47759">
        <ele>350.8297</ele>
        <time>2022-09-26T08:47:54.407Z</time>
      </trkpt>
      <trkpt lat="46.89181" lon="15.47749">
        <ele>350.693514</ele>
        <time>2022-09-26T08:47:57.394Z</time>
      </trkpt>
      <trkpt lat="46.89191" lon="15.47743">
        <ele>350.559907</ele>
        <time>2022-09-26T08:48:00.414Z</time>
      </trkpt>
      <trkpt lat="46.89203" lon="15.47736">
        <ele>350.392011</ele>
        <time>2022-09-26T08:48:03.396Z</time>
      </trkpt>
      <trkpt lat="46.89213" lon="15.47735">
        <ele>350.273384</ele>
        <time>2022-09-26T08:48:05.414Z</time>
      </trkpt>
      <trkpt lat="46.89225" lon="15.47734">
        <ele>350.12268</ele>
        <time>2022-09-26T08:48:08.427Z</time>
      </trkpt>
      <trkpt lat="46.89237" lon="15.47733">
        <ele>349.970593</ele>
        <time>2022-09-26T08:48:11.426Z</time>
      </trkpt>
      <trkpt lat="46.8925" lon="15.47732">
        <ele>349.811224</ele>
        <time>2022-09-26T08:48:14.415Z</time>
      </trkpt>
      <trkpt lat="46.89262" lon="15.47733">
        <ele>349.665461</ele>
        <time>2022-09-26T08:48:17.424Z</time>
      </trkpt>
      <trkpt lat="46.89274" lon="15.47732">
        <ele>349.51228</ele>
        <time>2022-09-26T08:48:20.410Z</time>
      </trkpt>
      <trkpt lat="46.89287" lon="15.47731">
        <ele>349.358715</ele>
        <time>2022-09-26T08:48:23.404Z</time>
      </trkpt>
      <trkpt lat="46.89299" lon="15.47729">
        <ele>349.204209</ele>
        <time>2022-09-26T08:48:26.432Z</time>
      </trkpt>
      <trkpt lat="46.89312" lon="15.47728">
        <ele>349.047057</ele>
        <time>2022-09-26T08:48:29.462Z</time>
      </trkpt>
      <trkpt lat="46.89325" lon="15.47727">
        <ele>348.882661</ele>
        <time>2022-09-26T08:48:32.428Z</time>
      </trkpt>
      <trkpt lat="46.89339" lon="15.47727">
        <ele>348.715882</ele>
        <time>2022-09-26T08:48:35.414Z</time>
      </trkpt>
      <trkpt lat="46.89351" lon="15.47726">
        <ele>348.563935</ele>
        <time>2022-09-26T08:48:38.425Z</time>
      </trkpt>
      <trkpt lat="46.89363" lon="15.47727">
        <ele>348.411977</ele>
        <time>2022-09-26T08:48:41.437Z</time>
      </trkpt>
      <trkpt lat="46.89375" lon="15.47727">
        <ele>348.26002</ele>
        <time>2022-09-26T08:48:44.423Z</time>
      </trkpt>
      <trkpt lat="46.89388" lon="15.47728">
        <ele>348.105425</ele>
        <time>2022-09-26T08:48:47.420Z</time>
      </trkpt>
      <trkpt lat="46.89401" lon="15.47729">
        <ele>348.105759</ele>
        <time>2022-09-26T08:48:50.421Z</time>
      </trkpt>
      <trkpt lat="46.89414" lon="15.4773">
        <ele>348.389392</ele>
        <time>2022-09-26T08:48:53.412Z</time>
      </trkpt>
      <trkpt lat="46.89427" lon="15.47732">
        <ele>348.675733</ele>
        <time>2022-09-26T08:48:56.418Z</time>
      </trkpt>
      <trkpt lat="46.89439" lon="15.47732">
        <ele>348.956896</ele>
        <time>2022-09-26T08:48:59.418Z</time>
      </trkpt>
      <trkpt lat="46.89452" lon="15.47733">
        <ele>349.235847</ele>
        <time>2022-09-26T08:49:02.460Z</time>
      </trkpt>
      <trkpt lat="46.89464" lon="15.47732">
        <ele>349.51033</ele>
        <time>2022-09-26T08:49:05.430Z</time>
      </trkpt>
      <trkpt lat="46.89477" lon="15.47729">
        <ele>349.793564</ele>
        <time>2022-09-26T08:49:08.400Z</time>
      </trkpt>
      <trkpt lat="46.89486" lon="15.47724">
        <ele>350.003972</ele>
        <time>2022-09-26T08:49:10.429Z</time>
      </trkpt>
      <trkpt lat="46.89497" lon="15.47715">
        <ele>350.287433</ele>
        <time>2022-09-26T08:49:13.419Z</time>
      </trkpt>
      <trkpt lat="46.89507" lon="15.47703">
        <ele>350.572464</ele>
        <time>2022-09-26T08:49:16.411Z</time>
      </trkpt>
      <trkpt lat="46.89518" lon="15.47693">
        <ele>350.848504</ele>
        <time>2022-09-26T08:49:19.413Z</time>
      </trkpt>
      <trkpt lat="46.89526" lon="15.47687">
        <ele>351.059973</ele>
        <time>2022-09-26T08:49:21.441Z</time>
      </trkpt>
      <trkpt lat="46.89536" lon="15.47682">
        <ele>351.285959</ele>
        <time>2022-09-26T08:49:23.417Z</time>
      </trkpt>
      <trkpt lat="46.89545" lon="15.47677">
        <ele>351.509953</ele>
        <time>2022-09-26T08:49:25.446Z</time>
      </trkpt>
      <trkpt lat="46.89554" lon="15.47673">
        <ele>351.717222</ele>
        <time>2022-09-26T08:49:27.431Z</time>
      </trkpt>
      <trkpt lat="46.89563" lon="15.47671">
        <ele>351.918342</ele>
        <time>2022-09-26T08:49:29.496Z</time>
      </trkpt>
      <trkpt lat="46.89572" lon="15.47668">
        <ele>351.996008</ele>
        <time>2022-09-26T08:49:31.411Z</time>
      </trkpt>
      <trkpt lat="46.89581" lon="15.47666">
        <ele>352.016829</ele>
        <time>2022-09-26T08:49:33.452Z</time>
      </trkpt>
      <trkpt lat="46.89594" lon="15.47662">
        <ele>352.048169</ele>
        <time>2022-09-26T08:49:36.423Z</time>
      </trkpt>
      <trkpt lat="46.89604" lon="15.4766">
        <ele>352.070299</ele>
        <time>2022-09-26T08:49:38.395Z</time>
      </trkpt>
      <trkpt lat="46.89613" lon="15.47657">
        <ele>352.09203</ele>
        <time>2022-09-26T08:49:40.426Z</time>
      </trkpt>
      <trkpt lat="46.89626" lon="15.47653">
        <ele>352.122579</ele>
        <time>2022-09-26T08:49:43.422Z</time>
      </trkpt>
      <trkpt lat="46.89635" lon="15.4765">
        <ele>352.143648</ele>
        <time>2022-09-26T08:49:45.435Z</time>
      </trkpt>
      <trkpt lat="46.89647" lon="15.47646">
        <ele>352.172967</ele>
        <time>2022-09-26T08:49:48.433Z</time>
      </trkpt>
      <trkpt lat="46.89657" lon="15.47642">
        <ele>352.197362</ele>
        <time>2022-09-26T08:49:51.402Z</time>
      </trkpt>
      <trkpt lat="46.89668" lon="15.47637">
        <ele>352.224297</ele>
        <time>2022-09-26T08:49:54.397Z</time>
      </trkpt>
      <trkpt lat="46.8968" lon="15.47634">
        <ele>352.251589</ele>
        <time>2022-09-26T08:49:57.407Z</time>
      </trkpt>
      <trkpt lat="46.8969" lon="15.47632">
        <ele>352.274583</ele>
        <time>2022-09-26T08:49:59.499Z</time>
      </trkpt>
      <trkpt lat="46.89699" lon="15.47631">
        <ele>352.29576</ele>
        <time>2022-09-26T08:50:01.416Z</time>
      </trkpt>
      <trkpt lat="46.89712" lon="15.4763">
        <ele>352.325497</ele>
        <time>2022-09-26T08:50:04.417Z</time>
      </trkpt>
      <trkpt lat="46.89724" lon="15.47629">
        <ele>352.353836</ele>
        <time>2022-09-26T08:50:07.453Z</time>
      </trkpt>
      <trkpt lat="46.89736" lon="15.47627">
        <ele>352.381829</ele>
        <time>2022-09-26T08:50:10.454Z</time>
      </trkpt>
      <trkpt lat="46.89749" lon="15.47625">
        <ele>352.221831</ele>
        <time>2022-09-26T08:50:13.428Z</time>
      </trkpt>
      <trkpt lat="46.89758" lon="15.47623">
        <ele>351.95801</ele>
        <time>2022-09-26T08:50:15.438Z</time>
      </trkpt>
      <trkpt lat="46.89771" lon="15.4762">
        <ele>351.564204</ele>
        <time>2022-09-26T08:50:18.464Z</time>
      </trkpt>
      <trkpt lat="46.89781" lon="15.47619">
        <ele>351.295083</ele>
        <time>2022-09-26T08:50:20.475Z</time>
      </trkpt>
      <trkpt lat="46.89794" lon="15.47616">
        <ele>350.904153</ele>
        <time>2022-09-26T08:50:23.420Z</time>
      </trkpt>
      <trkpt lat="46.89806" lon="15.47613">
        <ele>350.540517</ele>
        <time>2022-09-26T08:50:26.424Z</time>
      </trkpt>
      <trkpt lat="46.89819" lon="15.4761">
        <ele>350.173747</ele>
        <time>2022-09-26T08:50:29.404Z</time>
      </trkpt>
      <trkpt lat="46.89832" lon="15.47608">
        <ele>349.794301</ele>
        <time>2022-09-26T08:50:32.411Z</time>
      </trkpt>
      <trkpt lat="46.89845" lon="15.4761">
        <ele>349.408065</ele>
        <time>2022-09-26T08:50:35.420Z</time>
      </trkpt>
      <trkpt lat="46.89854" lon="15.47613">
        <ele>349.145379</ele>
        <time>2022-09-26T08:50:37.428Z</time>
      </trkpt>
      <trkpt lat="46.89867" lon="15.47619">
        <ele>348.754755</ele>
        <time>2022-09-26T08:50:40.482Z</time>
      </trkpt>
      <trkpt lat="46.89879" lon="15.47623">
        <ele>348.387561</ele>
        <time>2022-09-26T08:50:43.427Z</time>
      </trkpt>
      <trkpt lat="46.89891" lon="15.47626">
        <ele>348.017343</ele>
        <time>2022-09-26T08:50:46.408Z</time>
      </trkpt>
      <trkpt lat="46.89901" lon="15.47627">
        <ele>347.751884</ele>
        <time>2022-09-26T08:50:48.422Z</time>
      </trkpt>
      <trkpt lat="46.8991" lon="15.47628">
        <ele>347.481045</ele>
        <time>2022-09-26T08:50:50.432Z</time>
      </trkpt>
      <trkpt lat="46.89919" lon="15.47628">
        <ele>347.219273</ele>
        <time>2022-09-26T08:50:52.431Z</time>
      </trkpt>
      <trkpt lat="46.89932" lon="15.47629">
        <ele>347.240838</ele>
        <time>2022-09-26T08:50:55.426Z</time>
      </trkpt>
      <trkpt lat="46.89941" lon="15.4763">
        <ele>347.30085</ele>
        <time>2022-09-26T08:50:57.427Z</time>
      </trkpt>
      <trkpt lat="46.8995" lon="15.4763">
        <ele>347.360129</ele>
        <time>2022-09-26T08:50:59.409Z</time>
      </trkpt>
      <trkpt lat="46.89961" lon="15.47629">
        <ele>347.42551</ele>
        <time>2022-09-26T08:51:01.408Z</time>
      </trkpt>
      <trkpt lat="46.89971" lon="15.47624">
        <ele>347.49512</ele>
        <time>2022-09-26T08:51:03.424Z</time>
      </trkpt>
      <trkpt lat="46.89982" lon="15.47618">
        <ele>347.567282</ele>
        <time>2022-09-26T08:51:05.431Z</time>
      </trkpt>
      <trkpt lat="46.89993" lon="15.47614">
        <ele>347.641696</ele>
        <time>2022-09-26T08:51:07.402Z</time>
      </trkpt>
      <trkpt lat="46.90004" lon="15.47613">
        <ele>347.713728</ele>
        <time>2022-09-26T08:51:09.413Z</time>
      </trkpt>
      <trkpt lat="46.90014" lon="15.47617">
        <ele>347.780192</ele>
        <time>2022-09-26T08:51:11.407Z</time>
      </trkpt>
      <trkpt lat="46.90023" lon="15.47623">
        <ele>347.839425</ele>
        <time>2022-09-26T08:51:13.472Z</time>
      </trkpt>
      <trkpt lat="46.90033" lon="15.47632">
        <ele>347.916331</ele>
        <time>2022-09-26T08:51:16.417Z</time>
      </trkpt>
      <trkpt lat="46.90043" lon="15.47641">
        <ele>347.990189</ele>
        <time>2022-09-26T08:51:19.416Z</time>
      </trkpt>
      <trkpt lat="46.90053" lon="15.4765">
        <ele>348.065984</ele>
        <time>2022-09-26T08:51:22.434Z</time>
      </trkpt>
      <trkpt lat="46.90065" lon="15.47655">
        <ele>348.142581</ele>
        <time>2022-09-26T08:51:25.416Z</time>
      </trkpt>
      <trkpt lat="46.90078" lon="15.47656">
        <ele>348.22644</ele>
        <time>2022-09-26T08:51:28.410Z</time>
      </trkpt>
      <trkpt lat="46.90087" lon="15.47658">
        <ele>348.285982</ele>
        <time>2022-09-26T08:51:30.424Z</time>
      </trkpt>
      <trkpt lat="46.90097" lon="15.4766">
        <ele>348.309257</ele>
        <time>2022-09-26T08:51:32.422Z</time>
      </trkpt>
      <trkpt lat="46.90108" lon="15.47662">
        <ele>348.295493</ele>
        <time>2022-09-26T08:51:35.474Z</time>
      </trkpt>
      <trkpt lat="46.9012" lon="15.47663">
        <ele>348.281909</ele>
        <time>2022-09-26T08:51:38.417Z</time>
      </trkpt>
      <trkpt lat="46.9013" lon="15.47665">
        <ele>348.268754</ele>
        <time>2022-09-26T08:51:41.433Z</time>
      </trkpt>
      <trkpt lat="46.90143" lon="15.47668">
        <ele>348.253567</ele>
        <time>2022-09-26T08:51:44.447Z</time>
      </trkpt>
      <trkpt lat="46.90156" lon="15.47672">
        <ele>348.237356</ele>
        <time>2022-09-26T08:51:47.413Z</time>
      </trkpt>
      <trkpt lat="46.90165" lon="15.47674">
        <ele>348.226105</ele>
        <time>2022-09-26T08:51:49.426Z</time>
      </trkpt>
      <trkpt lat="46.90174" lon="15.47676">
        <ele>348.214746</ele>
        <time>2022-09-26T08:51:51.419Z</time>
      </trkpt>
      <trkpt lat="46.90184" lon="15.47678">
        <ele>348.203638</ele>
        <time>2022-09-26T08:51:53.434Z</time>
      </trkpt>
      <trkpt lat="46.90197" lon="15.4768">
        <ele>348.187663</ele>
        <time>2022-09-26T08:51:56.414Z</time>
      </trkpt>
      <trkpt lat="46.9021" lon="15.47682">
        <ele>348.171266</ele>
        <time>2022-09-26T08:51:59.442Z</time>
      </trkpt>
      <trkpt lat="46.90219" lon="15.47684">
        <ele>348.160061</ele>
        <time>2022-09-26T08:52:01.432Z</time>
      </trkpt>
      <trkpt lat="46.90233" lon="15.47686">
        <ele>348.143913</ele>
        <time>2022-09-26T08:52:04.431Z</time>
      </trkpt>
      <trkpt lat="46.90242" lon="15.47687">
        <ele>348.133096</ele>
        <time>2022-09-26T08:52:06.420Z</time>
      </trkpt>
      <trkpt lat="46.90254" lon="15.4769">
        <ele>348.117312</ele>
        <time>2022-09-26T08:52:09.458Z</time>
      </trkpt>
      <trkpt lat="46.90267" lon="15.47694">
        <ele>348.102138</ele>
        <time>2022-09-26T08:52:12.423Z</time>
      </trkpt>
      <trkpt lat="46.90279" lon="15.477">
        <ele>348.04097</ele>
        <time>2022-09-26T08:52:15.431Z</time>
      </trkpt>
      <trkpt lat="46.90291" lon="15.47706">
        <ele>347.964581</ele>
        <time>2022-09-26T08:52:18.418Z</time>
      </trkpt>
      <trkpt lat="46.90304" lon="15.47712">
        <ele>347.889163</ele>
        <time>2022-09-26T08:52:21.418Z</time>
      </trkpt>
      <trkpt lat="46.90315" lon="15.47719">
        <ele>347.815378</ele>
        <time>2022-09-26T08:52:24.433Z</time>
      </trkpt>
      <trkpt lat="46.90328" lon="15.47725">
        <ele>347.737077</ele>
        <time>2022-09-26T08:52:27.424Z</time>
      </trkpt>
      <trkpt lat="46.90337" lon="15.4773">
        <ele>347.683967</ele>
        <time>2022-09-26T08:52:29.452Z</time>
      </trkpt>
      <trkpt lat="46.90349" lon="15.47736">
        <ele>347.608964</ele>
        <time>2022-09-26T08:52:32.418Z</time>
      </trkpt>
      <trkpt lat="46.90361" lon="15.47742">
        <ele>347.53252</ele>
        <time>2022-09-26T08:52:35.423Z</time>
      </trkpt>
      <trkpt lat="46.9037" lon="15.47745">
        <ele>347.480105</ele>
        <time>2022-09-26T08:52:37.448Z</time>
      </trkpt>
      <trkpt lat="46.90379" lon="15.47747">
        <ele>347.426547</ele>
        <time>2022-09-26T08:52:39.426Z</time>
      </trkpt>
      <trkpt lat="46.90388" lon="15.47749">
        <ele>347.371628</ele>
        <time>2022-09-26T08:52:41.436Z</time>
      </trkpt>
      <trkpt lat="46.90397" lon="15.47752">
        <ele>347.318499</ele>
        <time>2022-09-26T08:52:43.422Z</time>
      </trkpt>
      <trkpt lat="46.90407" lon="15.47754">
        <ele>347.261971</ele>
        <time>2022-09-26T08:52:45.421Z</time>
      </trkpt>
      <trkpt lat="46.90417" lon="15.47756">
        <ele>347.20602</ele>
        <time>2022-09-26T08:52:47.478Z</time>
      </trkpt>
      <trkpt lat="46.90425" lon="15.47757">
        <ele>347.153696</ele>
        <time>2022-09-26T08:52:49.414Z</time>
      </trkpt>
      <trkpt lat="46.90435" lon="15.47759">
        <ele>347.100164</ele>
        <time>2022-09-26T08:52:51.433Z</time>
      </trkpt>
      <trkpt lat="46.90444" lon="15.47761">
        <ele>347.059682</ele>
        <time>2022-09-26T08:52:53.439Z</time>
      </trkpt>
      <trkpt lat="46.90452" lon="15.47763">
        <ele>347.25471</ele>
        <time>2022-09-26T08:52:55.463Z</time>
      </trkpt>
      <trkpt lat="46.90466" lon="15.47765">
        <ele>347.540308</ele>
        <time>2022-09-26T08:52:58.462Z</time>
      </trkpt>
      <trkpt lat="46.90475" lon="15.47766">
        <ele>347.740244</ele>
        <time>2022-09-26T08:53:00.420Z</time>
      </trkpt>
      <trkpt lat="46.90484" lon="15.47765">
        <ele>347.939784</ele>
        <time>2022-09-26T08:53:02.435Z</time>
      </trkpt>
      <trkpt lat="46.90493" lon="15.47765">
        <ele>348.143611</ele>
        <time>2022-09-26T08:53:04.454Z</time>
      </trkpt>
      <trkpt lat="46.90507" lon="15.47765">
        <ele>348.434208</ele>
        <time>2022-09-26T08:53:07.473Z</time>
      </trkpt>
      <trkpt lat="46.90516" lon="15.47765">
        <ele>348.629451</ele>
        <time>2022-09-26T08:53:09.423Z</time>
      </trkpt>
      <trkpt lat="46.90525" lon="15.47765">
        <ele>348.829294</ele>
        <time>2022-09-26T08:53:11.433Z</time>
      </trkpt>
      <trkpt lat="46.90538" lon="15.47766">
        <ele>349.115581</ele>
        <time>2022-09-26T08:53:14.425Z</time>
      </trkpt>
      <trkpt lat="46.90551" lon="15.47768">
        <ele>349.399892</ele>
        <time>2022-09-26T08:53:17.431Z</time>
      </trkpt>
      <trkpt lat="46.9056" lon="15.47781">
        <ele>349.673559</ele>
        <time>2022-09-26T08:53:20.431Z</time>
      </trkpt>
      <trkpt lat="46.90563" lon="15.47796">
        <ele>349.898804</ele>
        <time>2022-09-26T08:53:23.425Z</time>
      </trkpt>
      <trkpt lat="46.90565" lon="15.47811">
        <ele>350.129576</ele>
        <time>2022-09-26T08:53:26.422Z</time>
      </trkpt>
      <trkpt lat="46.90567" lon="15.47828">
        <ele>350.382331</ele>
        <time>2022-09-26T08:53:31.416Z</time>
      </trkpt>
      <trkpt lat="46.90568" lon="15.47841">
        <ele>350.582394</ele>
        <time>2022-09-26T08:53:34.429Z</time>
      </trkpt>
      <trkpt lat="46.90569" lon="15.47855">
        <ele>350.786878</ele>
        <time>2022-09-26T08:53:37.413Z</time>
      </trkpt>
      <trkpt lat="46.9057" lon="15.47871">
        <ele>351.024341</ele>
        <time>2022-09-26T08:53:40.416Z</time>
      </trkpt>
      <trkpt lat="46.90571" lon="15.47887">
        <ele>351.29238</ele>
        <time>2022-09-26T08:53:43.431Z</time>
      </trkpt>
      <trkpt lat="46.90572" lon="15.47904">
        <ele>351.567287</ele>
        <time>2022-09-26T08:53:46.410Z</time>
      </trkpt>
      <trkpt lat="46.90572" lon="15.47921">
        <ele>351.835462</ele>
        <time>2022-09-26T08:53:49.446Z</time>
      </trkpt>
      <trkpt lat="46.90574" lon="15.47938">
        <ele>352.11129</ele>
        <time>2022-09-26T08:53:52.430Z</time>
      </trkpt>
      <trkpt lat="46.90576" lon="15.47955">
        <ele>352.385476</ele>
        <time>2022-09-26T08:53:55.426Z</time>
      </trkpt>
      <trkpt lat="46.90577" lon="15.47973">
        <ele>352.665421</ele>
        <time>2022-09-26T08:53:58.433Z</time>
      </trkpt>
      <trkpt lat="46.9058" lon="15.4799">
        <ele>352.947879</ele>
        <time>2022-09-26T08:54:01.444Z</time>
      </trkpt>
      <trkpt lat="46.90581" lon="15.48009">
        <ele>353.249319</ele>
        <time>2022-09-26T08:54:04.421Z</time>
      </trkpt>
      <trkpt lat="46.90583" lon="15.48027">
        <ele>353.539224</ele>
        <time>2022-09-26T08:54:07.410Z</time>
      </trkpt>
      <trkpt lat="46.90585" lon="15.48044">
        <ele>353.814575</ele>
        <time>2022-09-26T08:54:10.412Z</time>
      </trkpt>
      <trkpt lat="46.90587" lon="15.48063">
        <ele>354.128687</ele>
        <time>2022-09-26T08:54:13.426Z</time>
      </trkpt>
      <trkpt lat="46.90588" lon="15.48078">
        <ele>354.361314</ele>
        <time>2022-09-26T08:54:15.435Z</time>
      </trkpt>
      <trkpt lat="46.90588" lon="15.48093">
        <ele>354.612616</ele>
        <time>2022-09-26T08:54:17.419Z</time>
      </trkpt>
      <trkpt lat="46.90589" lon="15.48108">
        <ele>354.85456</ele>
        <time>2022-09-26T08:54:19.426Z</time>
      </trkpt>
      <trkpt lat="46.90588" lon="15.48123">
        <ele>355.086964</ele>
        <time>2022-09-26T08:54:21.464Z</time>
      </trkpt>
      <trkpt lat="46.9059" lon="15.48136">
        <ele>354.812968</ele>
        <time>2022-09-26T08:54:23.452Z</time>
      </trkpt>
      <trkpt lat="46.90591" lon="15.4815">
        <ele>354.278481</ele>
        <time>2022-09-26T08:54:25.426Z</time>
      </trkpt>
      <trkpt lat="46.90593" lon="15.48165">
        <ele>353.736659</ele>
        <time>2022-09-26T08:54:27.427Z</time>
      </trkpt>
      <trkpt lat="46.90595" lon="15.48179">
        <ele>353.190166</ele>
        <time>2022-09-26T08:54:29.415Z</time>
      </trkpt>
      <trkpt lat="46.90598" lon="15.48194">
        <ele>352.638985</ele>
        <time>2022-09-26T08:54:31.425Z</time>
      </trkpt>
      <trkpt lat="46.90602" lon="15.48209">
        <ele>352.040094</ele>
        <time>2022-09-26T08:54:33.434Z</time>
      </trkpt>
      <trkpt lat="46.90608" lon="15.48222">
        <ele>351.457439</ele>
        <time>2022-09-26T08:54:35.418Z</time>
      </trkpt>
      <trkpt lat="46.90615" lon="15.48233">
        <ele>350.876494</ele>
        <time>2022-09-26T08:54:37.407Z</time>
      </trkpt>
      <trkpt lat="46.90623" lon="15.48242">
        <ele>350.341824</ele>
        <time>2022-09-26T08:54:39.417Z</time>
      </trkpt>
      <trkpt lat="46.90632" lon="15.48249">
        <ele>349.829377</ele>
        <time>2022-09-26T08:54:41.463Z</time>
      </trkpt>
      <trkpt lat="46.9064" lon="15.48256">
        <ele>349.321545</ele>
        <time>2022-09-26T08:54:43.418Z</time>
      </trkpt>
      <trkpt lat="46.90651" lon="15.48265">
        <ele>348.617604</ele>
        <time>2022-09-26T08:54:46.429Z</time>
      </trkpt>
      <trkpt lat="46.90662" lon="15.48273">
        <ele>347.97767</ele>
        <time>2022-09-26T08:54:49.436Z</time>
      </trkpt>
      <trkpt lat="46.90671" lon="15.48278">
        <ele>347.434528</ele>
        <time>2022-09-26T08:54:52.406Z</time>
      </trkpt>
      <trkpt lat="46.90681" lon="15.48281">
        <ele>346.886559</ele>
        <time>2022-09-26T08:54:55.419Z</time>
      </trkpt>
      <trkpt lat="46.90692" lon="15.48276">
        <ele>346.247126</ele>
        <time>2022-09-26T08:54:58.453Z</time>
      </trkpt>
      <trkpt lat="46.90701" lon="15.4827">
        <ele>345.723278</ele>
        <time>2022-09-26T08:55:00.455Z</time>
      </trkpt>
      <trkpt lat="46.90711" lon="15.48265">
        <ele>345.467197</ele>
        <time>2022-09-26T08:55:02.417Z</time>
      </trkpt>
      <trkpt lat="46.90721" lon="15.48258">
        <ele>345.555636</ele>
        <time>2022-09-26T08:55:04.405Z</time>
      </trkpt>
      <trkpt lat="46.9073" lon="15.48252">
        <ele>345.642631</ele>
        <time>2022-09-26T08:55:06.425Z</time>
      </trkpt>
      <trkpt lat="46.90741" lon="15.48246">
        <ele>345.731104</ele>
        <time>2022-09-26T08:55:08.442Z</time>
      </trkpt>
      <trkpt lat="46.9075" lon="15.4824">
        <ele>345.814953</ele>
        <time>2022-09-26T08:55:10.446Z</time>
      </trkpt>
      <trkpt lat="46.90759" lon="15.48234">
        <ele>345.895368</ele>
        <time>2022-09-26T08:55:12.440Z</time>
      </trkpt>
      <trkpt lat="46.90768" lon="15.48228">
        <ele>345.974769</ele>
        <time>2022-09-26T08:55:14.424Z</time>
      </trkpt>
      <trkpt lat="46.90777" lon="15.48222">
        <ele>346.057739</ele>
        <time>2022-09-26T08:55:16.403Z</time>
      </trkpt>
      <trkpt lat="46.90786" lon="15.48216">
        <ele>346.139743</ele>
        <time>2022-09-26T08:55:18.417Z</time>
      </trkpt>
      <trkpt lat="46.90795" lon="15.48211">
        <ele>346.215755</ele>
        <time>2022-09-26T08:55:20.432Z</time>
      </trkpt>
      <trkpt lat="46.90803" lon="15.48205">
        <ele>346.291539</ele>
        <time>2022-09-26T08:55:22.418Z</time>
      </trkpt>
      <trkpt lat="46.90812" lon="15.482">
        <ele>346.370318</ele>
        <time>2022-09-26T08:55:24.405Z</time>
      </trkpt>
      <trkpt lat="46.90821" lon="15.48196">
        <ele>346.445971</ele>
        <time>2022-09-26T08:55:26.400Z</time>
      </trkpt>
      <trkpt lat="46.9083" lon="15.48191">
        <ele>346.519727</ele>
        <time>2022-09-26T08:55:28.435Z</time>
      </trkpt>
      <trkpt lat="46.90839" lon="15.4819">
        <ele>346.598723</ele>
        <time>2022-09-26T08:55:30.436Z</time>
      </trkpt>
      <trkpt lat="46.90853" lon="15.48188">
        <ele>346.706732</ele>
        <time>2022-09-26T08:55:33.436Z</time>
      </trkpt>
      <trkpt lat="46.90862" lon="15.48187">
        <ele>346.780295</ele>
        <time>2022-09-26T08:55:35.423Z</time>
      </trkpt>
      <trkpt lat="46.90871" lon="15.48186">
        <ele>346.857344</ele>
        <time>2022-09-26T08:55:37.461Z</time>
      </trkpt>
      <trkpt lat="46.90884" lon="15.48185">
        <ele>346.902913</ele>
        <time>2022-09-26T08:55:40.436Z</time>
      </trkpt>
      <trkpt lat="46.90896" lon="15.48187">
        <ele>346.917524</ele>
        <time>2022-09-26T08:55:43.452Z</time>
      </trkpt>
      <trkpt lat="46.90905" lon="15.4819">
        <ele>346.928284</ele>
        <time>2022-09-26T08:55:45.421Z</time>
      </trkpt>
      <trkpt lat="46.90914" lon="15.48195">
        <ele>346.939225</ele>
        <time>2022-09-26T08:55:47.433Z</time>
      </trkpt>
      <trkpt lat="46.90922" lon="15.48201">
        <ele>346.950579</ele>
        <time>2022-09-26T08:55:49.422Z</time>
      </trkpt>
      <trkpt lat="46.90931" lon="15.48207">
        <ele>346.962036</ele>
        <time>2022-09-26T08:55:51.417Z</time>
      </trkpt>
      <trkpt lat="46.90939" lon="15.48214">
        <ele>346.97285</ele>
        <time>2022-09-26T08:55:53.423Z</time>
      </trkpt>
      <trkpt lat="46.90949" lon="15.48225">
        <ele>346.98737</ele>
        <time>2022-09-26T08:55:56.486Z</time>
      </trkpt>
      <trkpt lat="46.90956" lon="15.48236">
        <ele>347.000163</ele>
        <time>2022-09-26T08:55:59.426Z</time>
      </trkpt>
      <trkpt lat="46.90963" lon="15.4825">
        <ele>347.013474</ele>
        <time>2022-09-26T08:56:02.414Z</time>
      </trkpt>
      <trkpt lat="46.9097" lon="15.48267">
        <ele>347.029665</ele>
        <time>2022-09-26T08:56:05.455Z</time>
      </trkpt>
      <trkpt lat="46.90975" lon="15.4828">
        <ele>347.041929</ele>
        <time>2022-09-26T08:56:07.431Z</time>
      </trkpt>
      <trkpt lat="46.90981" lon="15.48294">
        <ele>347.054783</ele>
        <time>2022-09-26T08:56:09.431Z</time>
      </trkpt>
      <trkpt lat="46.90986" lon="15.48307">
        <ele>347.067591</ele>
        <time>2022-09-26T08:56:11.401Z</time>
      </trkpt>
      <trkpt lat="46.90991" lon="15.4832">
        <ele>347.079476</ele>
        <time>2022-09-26T08:56:13.410Z</time>
      </trkpt>
      <trkpt lat="46.90996" lon="15.48333">
        <ele>347.09092</ele>
        <time>2022-09-26T08:56:15.420Z</time>
      </trkpt>
      <trkpt lat="46.91001" lon="15.48345">
        <ele>347.101954</ele>
        <time>2022-09-26T08:56:17.428Z</time>
      </trkpt>
      <trkpt lat="46.91005" lon="15.48357">
        <ele>347.14929</ele>
        <time>2022-09-26T08:56:19.436Z</time>
      </trkpt>
      <trkpt lat="46.91012" lon="15.48373">
        <ele>347.229814</ele>
        <time>2022-09-26T08:56:22.427Z</time>
      </trkpt>
      <trkpt lat="46.91022" lon="15.48383">
        <ele>347.308624</ele>
        <time>2022-09-26T08:56:25.423Z</time>
      </trkpt>
      <trkpt lat="46.91034" lon="15.48379">
        <ele>347.392143</ele>
        <time>2022-09-26T08:56:28.426Z</time>
      </trkpt>
      <trkpt lat="46.91044" lon="15.48374">
        <ele>347.455392</ele>
        <time>2022-09-26T08:56:31.455Z</time>
      </trkpt>
      <trkpt lat="46.91053" lon="15.48368">
        <ele>347.522903</ele>
        <time>2022-09-26T08:56:36.436Z</time>
      </trkpt>
      <trkpt lat="46.91063" lon="15.48365">
        <ele>347.586339</ele>
        <time>2022-09-26T08:56:42.415Z</time>
      </trkpt>
      <trkpt lat="46.91075" lon="15.48361">
        <ele>347.663438</ele>
        <time>2022-09-26T08:56:46.436Z</time>
      </trkpt>
      <trkpt lat="46.91084" lon="15.48359">
        <ele>347.723431</ele>
        <time>2022-09-26T08:56:48.444Z</time>
      </trkpt>
      <trkpt lat="46.91096" lon="15.48356">
        <ele>347.800316</ele>
        <time>2022-09-26T08:56:50.425Z</time>
      </trkpt>
      <trkpt lat="46.91108" lon="15.48354">
        <ele>347.884277</ele>
        <time>2022-09-26T08:56:52.433Z</time>
      </trkpt>
      <trkpt lat="46.9112" lon="15.48351">
        <ele>347.960808</ele>
        <time>2022-09-26T08:56:54.463Z</time>
      </trkpt>
      <trkpt lat="46.9113" lon="15.48347">
        <ele>348.025599</ele>
        <time>2022-09-26T08:56:56.404Z</time>
      </trkpt>
      <trkpt lat="46.91143" lon="15.48345">
        <ele>348.109969</ele>
        <time>2022-09-26T08:56:59.427Z</time>
      </trkpt>
      <trkpt lat="46.91155" lon="15.48342">
        <ele>348.187456</ele>
        <time>2022-09-26T08:57:02.435Z</time>
      </trkpt>
      <trkpt lat="46.91166" lon="15.48339">
        <ele>348.260963</ele>
        <time>2022-09-26T08:57:05.439Z</time>
      </trkpt>
      <trkpt lat="46.91178" lon="15.48336">
        <ele>348.034172</ele>
        <time>2022-09-26T08:57:08.419Z</time>
      </trkpt>
      <trkpt lat="46.9119" lon="15.48334">
        <ele>347.798664</ele>
        <time>2022-09-26T08:57:11.454Z</time>
      </trkpt>
      <trkpt lat="46.91202" lon="15.48332">
        <ele>347.568402</ele>
        <time>2022-09-26T08:57:14.427Z</time>
      </trkpt>
      <trkpt lat="46.91214" lon="15.48329">
        <ele>347.32739</ele>
        <time>2022-09-26T08:57:17.437Z</time>
      </trkpt>
      <trkpt lat="46.91228" lon="15.48326">
        <ele>347.071695</ele>
        <time>2022-09-26T08:57:20.435Z</time>
      </trkpt>
      <trkpt lat="46.9124" lon="15.48323">
        <ele>346.819236</ele>
        <time>2022-09-26T08:57:23.488Z</time>
      </trkpt>
      <trkpt lat="46.91253" lon="15.4832">
        <ele>346.571381</ele>
        <time>2022-09-26T08:57:26.445Z</time>
      </trkpt>
      <trkpt lat="46.91266" lon="15.48318">
        <ele>346.318591</ele>
        <time>2022-09-26T08:57:29.403Z</time>
      </trkpt>
      <trkpt lat="46.91279" lon="15.48316">
        <ele>346.06388</ele>
        <time>2022-09-26T08:57:32.421Z</time>
      </trkpt>
      <trkpt lat="46.91292" lon="15.48315">
        <ele>345.821573</ele>
        <time>2022-09-26T08:57:35.434Z</time>
      </trkpt>
      <trkpt lat="46.91303" lon="15.48318">
        <ele>345.594813</ele>
        <time>2022-09-26T08:57:38.419Z</time>
      </trkpt>
      <trkpt lat="46.91316" lon="15.48325">
        <ele>345.337526</ele>
        <time>2022-09-26T08:57:41.420Z</time>
      </trkpt>
      <trkpt lat="46.91324" lon="15.4833">
        <ele>345.160206</ele>
        <time>2022-09-26T08:57:43.424Z</time>
      </trkpt>
      <trkpt lat="46.91333" lon="15.48335">
        <ele>344.984942</ele>
        <time>2022-09-26T08:57:45.403Z</time>
      </trkpt>
      <trkpt lat="46.91345" lon="15.4834">
        <ele>344.805328</ele>
        <time>2022-09-26T08:57:48.431Z</time>
      </trkpt>
      <trkpt lat="46.91358" lon="15.48342">
        <ele>344.891534</ele>
        <time>2022-09-26T08:57:51.438Z</time>
      </trkpt>
      <trkpt lat="46.91368" lon="15.48343">
        <ele>344.951465</ele>
        <time>2022-09-26T08:57:53.430Z</time>
      </trkpt>
      <trkpt lat="46.91381" lon="15.48345">
        <ele>345.037026</ele>
        <time>2022-09-26T08:57:56.455Z</time>
      </trkpt>
      <trkpt lat="46.91394" lon="15.48346">
        <ele>345.123633</ele>
        <time>2022-09-26T08:57:59.421Z</time>
      </trkpt>
      <trkpt lat="46.91407" lon="15.48348">
        <ele>345.208204</ele>
        <time>2022-09-26T08:58:02.425Z</time>
      </trkpt>
      <trkpt lat="46.9142" lon="15.48348">
        <ele>345.291319</ele>
        <time>2022-09-26T08:58:05.416Z</time>
      </trkpt>
      <trkpt lat="46.91432" lon="15.48347">
        <ele>345.371975</ele>
        <time>2022-09-26T08:58:08.435Z</time>
      </trkpt>
      <trkpt lat="46.91444" lon="15.48346">
        <ele>345.451263</ele>
        <time>2022-09-26T08:58:11.437Z</time>
      </trkpt>
      <trkpt lat="46.91457" lon="15.48346">
        <ele>345.536321</ele>
        <time>2022-09-26T08:58:14.454Z</time>
      </trkpt>
      <trkpt lat="46.91467" lon="15.48347">
        <ele>345.595642</ele>
        <time>2022-09-26T08:58:16.422Z</time>
      </trkpt>
      <trkpt lat="46.91476" lon="15.48349">
        <ele>345.654404</ele>
        <time>2022-09-26T08:58:18.460Z</time>
      </trkpt>
      <trkpt lat="46.91485" lon="15.48352">
        <ele>345.715606</ele>
        <time>2022-09-26T08:58:20.438Z</time>
      </trkpt>
      <trkpt lat="46.91494" lon="15.48357">
        <ele>345.777341</ele>
        <time>2022-09-26T08:58:22.414Z</time>
      </trkpt>
      <trkpt lat="46.91505" lon="15.48364">
        <ele>345.859675</ele>
        <time>2022-09-26T08:58:25.437Z</time>
      </trkpt>
      <trkpt lat="46.91517" lon="15.48371">
        <ele>345.942295</ele>
        <time>2022-09-26T08:58:28.422Z</time>
      </trkpt>
      <trkpt lat="46.91529" lon="15.48377">
        <ele>346.089106</ele>
        <time>2022-09-26T08:58:31.434Z</time>
      </trkpt>
      <trkpt lat="46.9154" lon="15.48385">
        <ele>346.253044</ele>
        <time>2022-09-26T08:58:34.525Z</time>
      </trkpt>
      <trkpt lat="46.91551" lon="15.48395">
        <ele>346.42748</ele>
        <time>2022-09-26T08:58:37.428Z</time>
      </trkpt>
      <trkpt lat="46.91561" lon="15.48407">
        <ele>346.596374</ele>
        <time>2022-09-26T08:58:40.424Z</time>
      </trkpt>
      <trkpt lat="46.91569" lon="15.48421">
        <ele>346.76072</ele>
        <time>2022-09-26T08:58:43.463Z</time>
      </trkpt>
      <trkpt lat="46.91577" lon="15.48437">
        <ele>346.932389</ele>
        <time>2022-09-26T08:58:46.421Z</time>
      </trkpt>
      <trkpt lat="46.91586" lon="15.48451">
        <ele>347.10918</ele>
        <time>2022-09-26T08:58:49.419Z</time>
      </trkpt>
      <trkpt lat="46.91595" lon="15.48463">
        <ele>347.275165</ele>
        <time>2022-09-26T08:58:52.486Z</time>
      </trkpt>
      <trkpt lat="46.91604" lon="15.48476">
        <ele>347.435469</ele>
        <time>2022-09-26T08:58:55.403Z</time>
      </trkpt>
      <trkpt lat="46.91613" lon="15.48489">
        <ele>347.604609</ele>
        <time>2022-09-26T08:58:58.410Z</time>
      </trkpt>
      <trkpt lat="46.91622" lon="15.48503">
        <ele>347.781569</ele>
        <time>2022-09-26T08:59:01.408Z</time>
      </trkpt>
      <trkpt lat="46.91629" lon="15.48512">
        <ele>347.903835</ele>
        <time>2022-09-26T08:59:03.425Z</time>
      </trkpt>
      <trkpt lat="46.91636" lon="15.48521">
        <ele>348.02548</ele>
        <time>2022-09-26T08:59:05.419Z</time>
      </trkpt>
      <trkpt lat="46.91645" lon="15.48531">
        <ele>348.174856</ele>
        <time>2022-09-26T08:59:08.423Z</time>
      </trkpt>
      <trkpt lat="46.91656" lon="15.48538">
        <ele>348.333458</ele>
        <time>2022-09-26T08:59:12.427Z</time>
      </trkpt>
      <trkpt lat="46.91667" lon="15.48541">
        <ele>348.733329</ele>
        <time>2022-09-26T08:59:17.437Z</time>
      </trkpt>
      <trkpt lat="46.91678" lon="15.48543">
        <ele>349.132081</ele>
        <time>2022-09-26T08:59:21.432Z</time>
      </trkpt>
      <trkpt lat="46.91688" lon="15.48543">
        <ele>349.497196</ele>
        <time>2022-09-26T08:59:24.407Z</time>
      </trkpt>
      <trkpt lat="46.91699" lon="15.48539">
        <ele>349.900076</ele>
        <time>2022-09-26T08:59:27.423Z</time>
      </trkpt>
      <trkpt lat="46.91709" lon="15.48532">
        <ele>350.325782</ele>
        <time>2022-09-26T08:59:30.439Z</time>
      </trkpt>
      <trkpt lat="46.9172" lon="15.48521">
        <ele>350.792821</ele>
        <time>2022-09-26T08:59:33.430Z</time>
      </trkpt>
      <trkpt lat="46.9173" lon="15.48511">
        <ele>351.236379</ele>
        <time>2022-09-26T08:59:36.420Z</time>
      </trkpt>
      <trkpt lat="46.9174" lon="15.485">
        <ele>351.688514</ele>
        <time>2022-09-26T08:59:39.426Z</time>
      </trkpt>
      <trkpt lat="46.9175" lon="15.48491">
        <ele>352.12859</ele>
        <time>2022-09-26T08:59:42.431Z</time>
      </trkpt>
      <trkpt lat="46.91761" lon="15.48486">
        <ele>352.521654</ele>
        <time>2022-09-26T08:59:45.421Z</time>
      </trkpt>
      <trkpt lat="46.9177" lon="15.48483">
        <ele>352.871969</ele>
        <time>2022-09-26T08:59:48.438Z</time>
      </trkpt>
      <trkpt lat="46.9178" lon="15.4848">
        <ele>353.234414</ele>
        <time>2022-09-26T08:59:52.422Z</time>
      </trkpt>
      <trkpt lat="46.91792" lon="15.48476">
        <ele>353.663483</ele>
        <time>2022-09-26T08:59:56.413Z</time>
      </trkpt>
      <trkpt lat="46.91802" lon="15.4847">
        <ele>354.079342</ele>
        <time>2022-09-26T09:00:00.453Z</time>
      </trkpt>
      <trkpt lat="46.91812" lon="15.48466">
        <ele>354.437377</ele>
        <time>2022-09-26T09:00:03.423Z</time>
      </trkpt>
      <trkpt lat="46.91821" lon="15.48461">
        <ele>354.806559</ele>
        <time>2022-09-26T09:00:06.438Z</time>
      </trkpt>
      <trkpt lat="46.91831" lon="15.48456">
        <ele>354.661073</ele>
        <time>2022-09-26T09:00:09.420Z</time>
      </trkpt>
      <trkpt lat="46.9184" lon="15.4845">
        <ele>354.484836</ele>
        <time>2022-09-26T09:00:12.411Z</time>
      </trkpt>
      <trkpt lat="46.9185" lon="15.48445">
        <ele>354.289818</ele>
        <time>2022-09-26T09:00:15.416Z</time>
      </trkpt>
      <trkpt lat="46.91859" lon="15.48441">
        <ele>354.10626</ele>
        <time>2022-09-26T09:00:18.504Z</time>
      </trkpt>
      <trkpt lat="46.91868" lon="15.48437">
        <ele>353.932801</ele>
        <time>2022-09-26T09:00:21.426Z</time>
      </trkpt>
      <trkpt lat="46.91877" lon="15.48432">
        <ele>353.759606</ele>
        <time>2022-09-26T09:00:24.426Z</time>
      </trkpt>
      <trkpt lat="46.91886" lon="15.48427">
        <ele>353.579804</ele>
        <time>2022-09-26T09:00:27.456Z</time>
      </trkpt>
      <trkpt lat="46.91895" lon="15.48422">
        <ele>353.41386</ele>
        <time>2022-09-26T09:00:30.425Z</time>
      </trkpt>
      <trkpt lat="46.91904" lon="15.4843">
        <ele>353.225552</ele>
        <time>2022-09-26T09:00:34.419Z</time>
      </trkpt>
      <trkpt lat="46.9191" lon="15.48441">
        <ele>353.051197</ele>
        <time>2022-09-26T09:00:37.439Z</time>
      </trkpt>
      <trkpt lat="46.91918" lon="15.48452">
        <ele>352.855496</ele>
        <time>2022-09-26T09:00:40.419Z</time>
      </trkpt>
      <trkpt lat="46.91926" lon="15.48462">
        <ele>352.651527</ele>
        <time>2022-09-26T09:00:43.433Z</time>
      </trkpt>
      <trkpt lat="46.91936" lon="15.48472">
        <ele>352.439127</ele>
        <time>2022-09-26T09:00:46.401Z</time>
      </trkpt>
      <trkpt lat="46.91945" lon="15.48482">
        <ele>352.22821</ele>
        <time>2022-09-26T09:00:49.443Z</time>
      </trkpt>
      <trkpt lat="46.91954" lon="15.48493">
        <ele>352.015003</ele>
        <time>2022-09-26T09:00:52.435Z</time>
      </trkpt>
      <trkpt lat="46.91962" lon="15.48504">
        <ele>351.817633</ele>
        <time>2022-09-26T09:00:55.426Z</time>
      </trkpt>
      <trkpt lat="46.91969" lon="15.48516">
        <ele>351.620761</ele>
        <time>2022-09-26T09:00:58.467Z</time>
      </trkpt>
      <trkpt lat="46.91976" lon="15.48529">
        <ele>351.594368</ele>
        <time>2022-09-26T09:01:01.424Z</time>
      </trkpt>
      <trkpt lat="46.91983" lon="15.4854">
        <ele>351.655348</ele>
        <time>2022-09-26T09:01:04.422Z</time>
      </trkpt>
      <trkpt lat="46.9199" lon="15.48552">
        <ele>351.718963</ele>
        <time>2022-09-26T09:01:07.425Z</time>
      </trkpt>
      <trkpt lat="46.91998" lon="15.48565">
        <ele>351.785508</ele>
        <time>2022-09-26T09:01:10.423Z</time>
      </trkpt>
      <trkpt lat="46.92005" lon="15.48577">
        <ele>351.848827</ele>
        <time>2022-09-26T09:01:13.426Z</time>
      </trkpt>
      <trkpt lat="46.92013" lon="15.48588">
        <ele>351.912862</ele>
        <time>2022-09-26T09:01:16.454Z</time>
      </trkpt>
      <trkpt lat="46.92021" lon="15.486">
        <ele>351.97884</ele>
        <time>2022-09-26T09:01:19.436Z</time>
      </trkpt>
      <trkpt lat="46.92029" lon="15.48612">
        <ele>352.042309</ele>
        <time>2022-09-26T09:01:22.405Z</time>
      </trkpt>
      <trkpt lat="46.92036" lon="15.48623">
        <ele>352.103838</ele>
        <time>2022-09-26T09:01:25.431Z</time>
      </trkpt>
      <trkpt lat="46.92045" lon="15.48636">
        <ele>352.174393</ele>
        <time>2022-09-26T09:01:28.436Z</time>
      </trkpt>
      <trkpt lat="46.92053" lon="15.48648">
        <ele>352.244219</ele>
        <time>2022-09-26T09:01:31.422Z</time>
      </trkpt>
      <trkpt lat="46.92062" lon="15.4866">
        <ele>352.313225</ele>
        <time>2022-09-26T09:01:34.426Z</time>
      </trkpt>
      <trkpt lat="46.9207" lon="15.48672">
        <ele>352.381159</ele>
        <time>2022-09-26T09:01:37.424Z</time>
      </trkpt>
      <trkpt lat="46.92079" lon="15.48684">
        <ele>352.450295</ele>
        <time>2022-09-26T09:01:40.442Z</time>
      </trkpt>
      <trkpt lat="46.92087" lon="15.48696">
        <ele>352.520121</ele>
        <time>2022-09-26T09:01:43.423Z</time>
      </trkpt>
      <trkpt lat="46.92096" lon="15.48709">
        <ele>352.589133</ele>
        <time>2022-09-26T09:01:46.404Z</time>
      </trkpt>
      <trkpt lat="46.92104" lon="15.48722">
        <ele>352.540282</ele>
        <time>2022-09-26T09:01:49.425Z</time>
      </trkpt>
      <trkpt lat="46.92114" lon="15.48735">
        <ele>352.483783</ele>
        <time>2022-09-26T09:01:52.438Z</time>
      </trkpt>
      <trkpt lat="46.9212" lon="15.48744">
        <ele>352.443794</ele>
        <time>2022-09-26T09:01:54.435Z</time>
      </trkpt>
      <trkpt lat="46.92128" lon="15.48753">
        <ele>352.402167</ele>
        <time>2022-09-26T09:01:56.422Z</time>
      </trkpt>
      <trkpt lat="46.92135" lon="15.48761">
        <ele>352.360193</ele>
        <time>2022-09-26T09:01:58.475Z</time>
      </trkpt>
      <trkpt lat="46.92143" lon="15.4877">
        <ele>352.31803</ele>
        <time>2022-09-26T09:02:00.429Z</time>
      </trkpt>
      <trkpt lat="46.9215" lon="15.48779">
        <ele>352.276108</ele>
        <time>2022-09-26T09:02:02.415Z</time>
      </trkpt>
      <trkpt lat="46.92157" lon="15.48789">
        <ele>352.2334</ele>
        <time>2022-09-26T09:02:04.442Z</time>
      </trkpt>
      <trkpt lat="46.92163" lon="15.48798">
        <ele>352.19291</ele>
        <time>2022-09-26T09:02:06.418Z</time>
      </trkpt>
      <trkpt lat="46.92169" lon="15.48809">
        <ele>352.152404</ele>
        <time>2022-09-26T09:02:08.440Z</time>
      </trkpt>
      <trkpt lat="46.92177" lon="15.48824">
        <ele>352.091808</ele>
        <time>2022-09-26T09:02:11.437Z</time>
      </trkpt>
      <trkpt lat="46.92183" lon="15.48835">
        <ele>352.050442</ele>
        <time>2022-09-26T09:02:13.424Z</time>
      </trkpt>
      <trkpt lat="46.92188" lon="15.48846">
        <ele>352.009348</ele>
        <time>2022-09-26T09:02:15.469Z</time>
      </trkpt>
      <trkpt lat="46.92193" lon="15.48858">
        <ele>351.967754</ele>
        <time>2022-09-26T09:02:17.439Z</time>
      </trkpt>
      <trkpt lat="46.92199" lon="15.48868">
        <ele>351.926339</ele>
        <time>2022-09-26T09:02:19.458Z</time>
      </trkpt>
      <trkpt lat="46.92207" lon="15.48883">
        <ele>351.868622</ele>
        <time>2022-09-26T09:02:22.427Z</time>
      </trkpt>
      <trkpt lat="46.92213" lon="15.48894">
        <ele>351.827881</ele>
        <time>2022-09-26T09:02:24.422Z</time>
      </trkpt>
      <trkpt lat="46.92222" lon="15.48907">
        <ele>351.905492</ele>
        <time>2022-09-26T09:02:27.459Z</time>
      </trkpt>
      <trkpt lat="46.9223" lon="15.48915">
        <ele>352.084996</ele>
        <time>2022-09-26T09:02:29.432Z</time>
      </trkpt>
      <trkpt lat="46.92238" lon="15.48923">
        <ele>352.271547</ele>
        <time>2022-09-26T09:02:31.402Z</time>
      </trkpt>
      <trkpt lat="46.92246" lon="15.48931">
        <ele>352.458097</ele>
        <time>2022-09-26T09:02:33.418Z</time>
      </trkpt>
      <trkpt lat="46.92254" lon="15.48944">
        <ele>352.695758</ele>
        <time>2022-09-26T09:02:36.427Z</time>
      </trkpt>
      <trkpt lat="46.92263" lon="15.48957">
        <ele>352.940038</ele>
        <time>2022-09-26T09:02:39.420Z</time>
      </trkpt>
      <trkpt lat="46.92272" lon="15.48971">
        <ele>353.197002</ele>
        <time>2022-09-26T09:02:42.434Z</time>
      </trkpt>
      <trkpt lat="46.92282" lon="15.48985">
        <ele>353.456005</ele>
        <time>2022-09-26T09:02:45.419Z</time>
      </trkpt>
      <trkpt lat="46.92289" lon="15.48999">
        <ele>353.686354</ele>
        <time>2022-09-26T09:02:48.483Z</time>
      </trkpt>
      <trkpt lat="46.92291" lon="15.49015">
        <ele>353.905361</ele>
        <time>2022-09-26T09:02:51.428Z</time>
      </trkpt>
      <trkpt lat="46.92298" lon="15.49028">
        <ele>354.128083</ele>
        <time>2022-09-26T09:02:54.458Z</time>
      </trkpt>
      <trkpt lat="46.92311" lon="15.49029">
        <ele>354.371462</ele>
        <time>2022-09-26T09:02:57.467Z</time>
      </trkpt>
      <trkpt lat="46.92324" lon="15.49029">
        <ele>354.622124</ele>
        <time>2022-09-26T09:03:00.556Z</time>
      </trkpt>
      <trkpt lat="46.92333" lon="15.49029">
        <ele>354.806631</ele>
        <time>2022-09-26T09:03:02.438Z</time>
      </trkpt>
      <trkpt lat="46.92343" lon="15.49031">
        <ele>355.006163</ele>
        <time>2022-09-26T09:03:05.476Z</time>
      </trkpt>
      <trkpt lat="46.92353" lon="15.49033">
        <ele>355.186608</ele>
        <time>2022-09-26T09:03:08.443Z</time>
      </trkpt>
      <trkpt lat="46.92363" lon="15.49033">
        <ele>355.388932</ele>
        <time>2022-09-26T09:03:11.415Z</time>
      </trkpt>
      <trkpt lat="46.92373" lon="15.49033">
        <ele>355.597373</ele>
        <time>2022-09-26T09:03:14.412Z</time>
      </trkpt>
      <trkpt lat="46.92382" lon="15.49031">
        <ele>355.796733</ele>
        <time>2022-09-26T09:03:18.422Z</time>
      </trkpt>
      <trkpt lat="46.92392" lon="15.49033">
        <ele>355.988439</ele>
        <time>2022-09-26T09:03:24.420Z</time>
      </trkpt>
      <trkpt lat="46.92403" lon="15.49035">
        <ele>356.214088</ele>
        <time>2022-09-26T09:03:30.428Z</time>
      </trkpt>
      <trkpt lat="46.92414" lon="15.49033">
        <ele>356.44452</ele>
        <time>2022-09-26T09:03:35.425Z</time>
      </trkpt>
      <trkpt lat="46.92423" lon="15.49033">
        <ele>356.644907</ele>
        <time>2022-09-26T09:03:39.432Z</time>
      </trkpt>
      <trkpt lat="46.92435" lon="15.49033">
        <ele>356.882192</ele>
        <time>2022-09-26T09:03:43.418Z</time>
      </trkpt>
      <trkpt lat="46.92446" lon="15.49034">
        <ele>357.107167</ele>
        <time>2022-09-26T09:03:46.406Z</time>
      </trkpt>
      <trkpt lat="46.92456" lon="15.49034">
        <ele>357.309394</ele>
        <time>2022-09-26T09:03:49.462Z</time>
      </trkpt>
      <trkpt lat="46.92467" lon="15.49035">
        <ele>357.553198</ele>
        <time>2022-09-26T09:03:53.410Z</time>
      </trkpt>
      <trkpt lat="46.92479" lon="15.49036">
        <ele>357.784503</ele>
        <time>2022-09-26T09:03:57.409Z</time>
      </trkpt>
      <trkpt lat="46.92489" lon="15.49035">
        <ele>358.00969</ele>
        <time>2022-09-26T09:04:00.496Z</time>
      </trkpt>
      <trkpt lat="46.92499" lon="15.49035">
        <ele>358.197475</ele>
        <time>2022-09-26T09:04:02.416Z</time>
      </trkpt>
      <trkpt lat="46.9251" lon="15.49035">
        <ele>358.438886</ele>
        <time>2022-09-26T09:04:05.406Z</time>
      </trkpt>
      <trkpt lat="46.92521" lon="15.49035">
        <ele>358.651485</ele>
        <time>2022-09-26T09:04:08.412Z</time>
      </trkpt>
      <trkpt lat="46.9253" lon="15.49035">
        <ele>358.853693</ele>
        <time>2022-09-26T09:04:11.477Z</time>
      </trkpt>
      <trkpt lat="46.92541" lon="15.49035">
        <ele>358.98247</ele>
        <time>2022-09-26T09:04:14.423Z</time>
      </trkpt>
      <trkpt lat="46.92552" lon="15.49035">
        <ele>358.923877</ele>
        <time>2022-09-26T09:04:17.411Z</time>
      </trkpt>
      <trkpt lat="46.92563" lon="15.49034">
        <ele>358.867341</ele>
        <time>2022-09-26T09:04:20.407Z</time>
      </trkpt>
      <trkpt lat="46.92574" lon="15.49032">
        <ele>358.808322</ele>
        <time>2022-09-26T09:04:23.452Z</time>
      </trkpt>
      <trkpt lat="46.92584" lon="15.49028">
        <ele>358.75388</ele>
        <time>2022-09-26T09:04:26.415Z</time>
      </trkpt>
      <trkpt lat="46.92595" lon="15.49024">
        <ele>358.695254</ele>
        <time>2022-09-26T09:04:29.423Z</time>
      </trkpt>
      <trkpt lat="46.92607" lon="15.49021">
        <ele>358.630487</ele>
        <time>2022-09-26T09:04:32.422Z</time>
      </trkpt>
      <trkpt lat="46.9262" lon="15.49021">
        <ele>358.564093</ele>
        <time>2022-09-26T09:04:35.446Z</time>
      </trkpt>
      <trkpt lat="46.92633" lon="15.4902">
        <ele>358.499762</ele>
        <time>2022-09-26T09:04:38.418Z</time>
      </trkpt>
      <trkpt lat="46.92645" lon="15.4902">
        <ele>358.435442</ele>
        <time>2022-09-26T09:04:41.424Z</time>
      </trkpt>
      <trkpt lat="46.92654" lon="15.49019">
        <ele>358.388582</ele>
        <time>2022-09-26T09:04:43.432Z</time>
      </trkpt>
      <trkpt lat="46.92667" lon="15.49017">
        <ele>358.321281</ele>
        <time>2022-09-26T09:04:46.421Z</time>
      </trkpt>
      <trkpt lat="46.92679" lon="15.49015">
        <ele>358.256794</ele>
        <time>2022-09-26T09:04:49.432Z</time>
      </trkpt>
      <trkpt lat="46.92693" lon="15.49013">
        <ele>358.186536</ele>
        <time>2022-09-26T09:04:52.427Z</time>
      </trkpt>
      <trkpt lat="46.92702" lon="15.49013">
        <ele>358.137266</ele>
        <time>2022-09-26T09:04:54.436Z</time>
      </trkpt>
      <trkpt lat="46.92712" lon="15.49013">
        <ele>358.089011</ele>
        <time>2022-09-26T09:04:56.468Z</time>
      </trkpt>
      <trkpt lat="46.92725" lon="15.49012">
        <ele>357.896463</ele>
        <time>2022-09-26T09:04:59.431Z</time>
      </trkpt>
      <trkpt lat="46.92735" lon="15.49012">
        <ele>357.719458</ele>
        <time>2022-09-26T09:05:01.434Z</time>
      </trkpt>
      <trkpt lat="46.92747" lon="15.49011">
        <ele>357.480848</ele>
        <time>2022-09-26T09:05:04.434Z</time>
      </trkpt>
      <trkpt lat="46.9276" lon="15.4901">
        <ele>357.254977</ele>
        <time>2022-09-26T09:05:07.460Z</time>
      </trkpt>
      <trkpt lat="46.92771" lon="15.49009">
        <ele>357.034911</ele>
        <time>2022-09-26T09:05:10.421Z</time>
      </trkpt>
      <trkpt lat="46.92783" lon="15.49008">
        <ele>356.822349</ele>
        <time>2022-09-26T09:05:13.419Z</time>
      </trkpt>
      <trkpt lat="46.92794" lon="15.49008">
        <ele>356.610026</ele>
        <time>2022-09-26T09:05:16.412Z</time>
      </trkpt>
      <trkpt lat="46.92807" lon="15.49006">
        <ele>356.377544</ele>
        <time>2022-09-26T09:05:19.432Z</time>
      </trkpt>
      <trkpt lat="46.9282" lon="15.49004">
        <ele>356.133666</ele>
        <time>2022-09-26T09:05:22.422Z</time>
      </trkpt>
      <trkpt lat="46.92832" lon="15.49002">
        <ele>355.901828</ele>
        <time>2022-09-26T09:05:25.407Z</time>
      </trkpt>
      <trkpt lat="46.92845" lon="15.49001">
        <ele>355.667037</ele>
        <time>2022-09-26T09:05:28.429Z</time>
      </trkpt>
      <trkpt lat="46.92857" lon="15.49">
        <ele>355.431694</ele>
        <time>2022-09-26T09:05:31.423Z</time>
      </trkpt>
      <trkpt lat="46.9287" lon="15.48999">
        <ele>355.19254</ele>
        <time>2022-09-26T09:05:34.406Z</time>
      </trkpt>
      <trkpt lat="46.92882" lon="15.48997">
        <ele>354.964295</ele>
        <time>2022-09-26T09:05:37.444Z</time>
      </trkpt>
      <trkpt lat="46.92895" lon="15.48995">
        <ele>354.719468</ele>
        <time>2022-09-26T09:05:40.408Z</time>
      </trkpt>
      <trkpt lat="46.92905" lon="15.48995">
        <ele>354.714488</ele>
        <time>2022-09-26T09:05:42.416Z</time>
      </trkpt>
      <trkpt lat="46.92914" lon="15.48994">
        <ele>354.712557</ele>
        <time>2022-09-26T09:05:44.424Z</time>
      </trkpt>
      <trkpt lat="46.92923" lon="15.48993">
        <ele>354.71059</ele>
        <time>2022-09-26T09:05:46.424Z</time>
      </trkpt>
      <trkpt lat="46.92932" lon="15.48993">
        <ele>354.708706</ele>
        <time>2022-09-26T09:05:48.447Z</time>
      </trkpt>
      <trkpt lat="46.92946" lon="15.48993">
        <ele>354.705953</ele>
        <time>2022-09-26T09:05:51.426Z</time>
      </trkpt>
      <trkpt lat="46.92958" lon="15.48992">
        <ele>354.703344</ele>
        <time>2022-09-26T09:05:54.413Z</time>
      </trkpt>
      <trkpt lat="46.92971" lon="15.48994">
        <ele>354.700648</ele>
        <time>2022-09-26T09:05:57.424Z</time>
      </trkpt>
      <trkpt lat="46.92985" lon="15.48994">
        <ele>354.697915</ele>
        <time>2022-09-26T09:06:00.418Z</time>
      </trkpt>
      <trkpt lat="46.92994" lon="15.48995">
        <ele>354.69603</ele>
        <time>2022-09-26T09:06:02.421Z</time>
      </trkpt>
      <trkpt lat="46.93003" lon="15.48996">
        <ele>354.694142</ele>
        <time>2022-09-26T09:06:04.428Z</time>
      </trkpt>
      <trkpt lat="46.93012" lon="15.48997">
        <ele>354.692274</ele>
        <time>2022-09-26T09:06:06.423Z</time>
      </trkpt>
      <trkpt lat="46.93025" lon="15.48998">
        <ele>354.689616</ele>
        <time>2022-09-26T09:06:09.529Z</time>
      </trkpt>
      <trkpt lat="46.93037" lon="15.49">
        <ele>354.686959</ele>
        <time>2022-09-26T09:06:12.430Z</time>
      </trkpt>
      <trkpt lat="46.93051" lon="15.49">
        <ele>354.684204</ele>
        <time>2022-09-26T09:06:15.431Z</time>
      </trkpt>
      <trkpt lat="46.93064" lon="15.49">
        <ele>354.681511</ele>
        <time>2022-09-26T09:06:18.423Z</time>
      </trkpt>
      <trkpt lat="46.93077" lon="15.48998">
        <ele>354.714509</ele>
        <time>2022-09-26T09:06:21.424Z</time>
      </trkpt>
      <trkpt lat="46.9309" lon="15.48995">
        <ele>354.976041</ele>
        <time>2022-09-26T09:06:24.415Z</time>
      </trkpt>
      <trkpt lat="46.93102" lon="15.48992">
        <ele>355.23462</ele>
        <time>2022-09-26T09:06:27.425Z</time>
      </trkpt>
      <trkpt lat="46.93115" lon="15.48989">
        <ele>355.493918</ele>
        <time>2022-09-26T09:06:30.427Z</time>
      </trkpt>
      <trkpt lat="46.93128" lon="15.48985">
        <ele>355.759095</ele>
        <time>2022-09-26T09:06:33.434Z</time>
      </trkpt>
      <trkpt lat="46.9314" lon="15.4898">
        <ele>356.019608</ele>
        <time>2022-09-26T09:06:36.413Z</time>
      </trkpt>
      <trkpt lat="46.93152" lon="15.48976">
        <ele>356.278157</ele>
        <time>2022-09-26T09:06:39.421Z</time>
      </trkpt>
      <trkpt lat="46.93164" lon="15.48971">
        <ele>356.52444</ele>
        <time>2022-09-26T09:06:42.421Z</time>
      </trkpt>
      <trkpt lat="46.93175" lon="15.48967">
        <ele>356.756507</ele>
        <time>2022-09-26T09:06:45.424Z</time>
      </trkpt>
      <trkpt lat="46.93186" lon="15.48964">
        <ele>356.98348</ele>
        <time>2022-09-26T09:06:48.461Z</time>
      </trkpt>
      <trkpt lat="46.93197" lon="15.48961">
        <ele>357.197742</ele>
        <time>2022-09-26T09:06:51.439Z</time>
      </trkpt>
      <trkpt lat="46.93208" lon="15.48959">
        <ele>357.426631</ele>
        <time>2022-09-26T09:06:54.434Z</time>
      </trkpt>
      <trkpt lat="46.9322" lon="15.48957">
        <ele>357.672513</ele>
        <time>2022-09-26T09:06:57.440Z</time>
      </trkpt>
      <trkpt lat="46.93232" lon="15.48957">
        <ele>357.921542</ele>
        <time>2022-09-26T09:07:00.420Z</time>
      </trkpt>
      <trkpt lat="46.93244" lon="15.48956">
        <ele>358.16649</ele>
        <time>2022-09-26T09:07:03.436Z</time>
      </trkpt>
      <trkpt lat="46.93256" lon="15.48956">
        <ele>358.313666</ele>
        <time>2022-09-26T09:07:06.420Z</time>
      </trkpt>
      <trkpt lat="46.93268" lon="15.48956">
        <ele>358.298056</ele>
        <time>2022-09-26T09:07:09.438Z</time>
      </trkpt>
      <trkpt lat="46.9328" lon="15.48956">
        <ele>358.28152</ele>
        <time>2022-09-26T09:07:12.431Z</time>
      </trkpt>
      <trkpt lat="46.93293" lon="15.48955">
        <ele>358.265238</ele>
        <time>2022-09-26T09:07:15.432Z</time>
      </trkpt>
      <trkpt lat="46.93304" lon="15.48954">
        <ele>358.249874</ele>
        <time>2022-09-26T09:07:18.413Z</time>
      </trkpt>
      <trkpt lat="46.93315" lon="15.48954">
        <ele>358.234937</ele>
        <time>2022-09-26T09:07:21.428Z</time>
      </trkpt>
      <trkpt lat="46.93327" lon="15.48954">
        <ele>358.218927</ele>
        <time>2022-09-26T09:07:24.440Z</time>
      </trkpt>
      <trkpt lat="46.93339" lon="15.48952">
        <ele>358.203425</ele>
        <time>2022-09-26T09:07:27.426Z</time>
      </trkpt>
      <trkpt lat="46.93351" lon="15.48952">
        <ele>358.18768</ele>
        <time>2022-09-26T09:07:30.434Z</time>
      </trkpt>
      <trkpt lat="46.93363" lon="15.48951">
        <ele>358.171397</ele>
        <time>2022-09-26T09:07:33.418Z</time>
      </trkpt>
      <trkpt lat="46.93375" lon="15.48951">
        <ele>358.15539</ele>
        <time>2022-09-26T09:07:36.424Z</time>
      </trkpt>
      <trkpt lat="46.93386" lon="15.4895">
        <ele>358.139894</ele>
        <time>2022-09-26T09:07:39.432Z</time>
      </trkpt>
      <trkpt lat="46.93398" lon="15.48949">
        <ele>358.124414</ele>
        <time>2022-09-26T09:07:42.459Z</time>
      </trkpt>
      <trkpt lat="46.9341" lon="15.48948">
        <ele>358.108665</ele>
        <time>2022-09-26T09:07:45.463Z</time>
      </trkpt>
      <trkpt lat="46.93421" lon="15.48947">
        <ele>358.093401</ele>
        <time>2022-09-26T09:07:48.422Z</time>
      </trkpt>
      <trkpt lat="46.93432" lon="15.48946">
        <ele>358.066053</ele>
        <time>2022-09-26T09:07:51.456Z</time>
      </trkpt>
      <trkpt lat="46.93445" lon="15.48944">
        <ele>357.856882</ele>
        <time>2022-09-26T09:07:54.425Z</time>
      </trkpt>
      <trkpt lat="46.93457" lon="15.48941">
        <ele>357.635812</ele>
        <time>2022-09-26T09:07:57.414Z</time>
      </trkpt>
      <trkpt lat="46.9347" lon="15.48936">
        <ele>357.421846</ele>
        <time>2022-09-26T09:08:00.454Z</time>
      </trkpt>
      <trkpt lat="46.93481" lon="15.48932">
        <ele>357.212362</ele>
        <time>2022-09-26T09:08:03.415Z</time>
      </trkpt>
      <trkpt lat="46.93494" lon="15.48927">
        <ele>356.998088</ele>
        <time>2022-09-26T09:08:06.409Z</time>
      </trkpt>
      <trkpt lat="46.93505" lon="15.48921">
        <ele>356.788356</ele>
        <time>2022-09-26T09:08:09.424Z</time>
      </trkpt>
      <trkpt lat="46.93517" lon="15.48916">
        <ele>356.582231</ele>
        <time>2022-09-26T09:08:12.424Z</time>
      </trkpt>
      <trkpt lat="46.93528" lon="15.4891">
        <ele>356.377032</ele>
        <time>2022-09-26T09:08:15.433Z</time>
      </trkpt>
      <trkpt lat="46.9354" lon="15.48903">
        <ele>356.164665</ele>
        <time>2022-09-26T09:08:18.445Z</time>
      </trkpt>
      <trkpt lat="46.93551" lon="15.48897">
        <ele>355.953849</ele>
        <time>2022-09-26T09:08:21.431Z</time>
      </trkpt>
      <trkpt lat="46.93563" lon="15.4889">
        <ele>355.737414</ele>
        <time>2022-09-26T09:08:24.467Z</time>
      </trkpt>
      <trkpt lat="46.93571" lon="15.48885">
        <ele>355.58176</ele>
        <time>2022-09-26T09:08:26.411Z</time>
      </trkpt>
      <trkpt lat="46.9358" lon="15.48879">
        <ele>355.422052</ele>
        <time>2022-09-26T09:08:28.418Z</time>
      </trkpt>
      <trkpt lat="46.93588" lon="15.48874">
        <ele>355.264038</ele>
        <time>2022-09-26T09:08:30.419Z</time>
      </trkpt>
      <trkpt lat="46.93597" lon="15.48868">
        <ele>355.097772</ele>
        <time>2022-09-26T09:08:32.427Z</time>
      </trkpt>
      <trkpt lat="46.93605" lon="15.48861">
        <ele>355.024546</ele>
        <time>2022-09-26T09:08:34.428Z</time>
      </trkpt>
      <trkpt lat="46.93616" lon="15.48851">
        <ele>355.070532</ele>
        <time>2022-09-26T09:08:37.425Z</time>
      </trkpt>
      <trkpt lat="46.93627" lon="15.4884">
        <ele>355.116683</ele>
        <time>2022-09-26T09:08:40.415Z</time>
      </trkpt>
      <trkpt lat="46.93635" lon="15.48834">
        <ele>355.149464</ele>
        <time>2022-09-26T09:08:42.458Z</time>
      </trkpt>
      <trkpt lat="46.93644" lon="15.4883">
        <ele>355.185161</ele>
        <time>2022-09-26T09:08:44.426Z</time>
      </trkpt>
      <trkpt lat="46.93654" lon="15.48826">
        <ele>355.222746</ele>
        <time>2022-09-26T09:08:46.464Z</time>
      </trkpt>
      <trkpt lat="46.93664" lon="15.48822">
        <ele>355.259285</ele>
        <time>2022-09-26T09:08:48.438Z</time>
      </trkpt>
      <trkpt lat="46.93673" lon="15.48819">
        <ele>355.294654</ele>
        <time>2022-09-26T09:08:50.439Z</time>
      </trkpt>
      <trkpt lat="46.93683" lon="15.48815">
        <ele>355.329734</ele>
        <time>2022-09-26T09:08:52.440Z</time>
      </trkpt>
      <trkpt lat="46.93696" lon="15.48811">
        <ele>355.376716</ele>
        <time>2022-09-26T09:08:55.420Z</time>
      </trkpt>
      <trkpt lat="46.93708" lon="15.48808">
        <ele>355.423604</ele>
        <time>2022-09-26T09:08:58.435Z</time>
      </trkpt>
      <trkpt lat="46.93721" lon="15.48804">
        <ele>355.469265</ele>
        <time>2022-09-26T09:09:01.425Z</time>
      </trkpt>
      <trkpt lat="46.93734" lon="15.488">
        <ele>355.518679</ele>
        <time>2022-09-26T09:09:04.436Z</time>
      </trkpt>
      <trkpt lat="46.93743" lon="15.48799">
        <ele>355.551634</ele>
        <time>2022-09-26T09:09:06.421Z</time>
      </trkpt>
      <trkpt lat="46.93752" lon="15.48797">
        <ele>355.584606</ele>
        <time>2022-09-26T09:09:08.464Z</time>
      </trkpt>
      <trkpt lat="46.93762" lon="15.48794">
        <ele>355.620023</ele>
        <time>2022-09-26T09:09:10.434Z</time>
      </trkpt>
      <trkpt lat="46.93775" lon="15.48791">
        <ele>355.758438</ele>
        <time>2022-09-26T09:09:13.418Z</time>
      </trkpt>
      <trkpt lat="46.93788" lon="15.48786">
        <ele>356.207554</ele>
        <time>2022-09-26T09:09:16.453Z</time>
      </trkpt>
      <trkpt lat="46.93796" lon="15.48781">
        <ele>356.52732</ele>
        <time>2022-09-26T09:09:18.435Z</time>
      </trkpt>
      <trkpt lat="46.93806" lon="15.4877">
        <ele>356.968879</ele>
        <time>2022-09-26T09:09:21.428Z</time>
      </trkpt>
      <trkpt lat="46.93817" lon="15.48758">
        <ele>357.435876</ele>
        <time>2022-09-26T09:09:24.423Z</time>
      </trkpt>
      <trkpt lat="46.93827" lon="15.48748">
        <ele>357.882905</ele>
        <time>2022-09-26T09:09:27.428Z</time>
      </trkpt>
      <trkpt lat="46.93837" lon="15.48738">
        <ele>358.278993</ele>
        <time>2022-09-26T09:09:30.507Z</time>
      </trkpt>
      <trkpt lat="46.93845" lon="15.48731">
        <ele>358.628991</ele>
        <time>2022-09-26T09:09:33.424Z</time>
      </trkpt>
      <trkpt lat="46.93854" lon="15.48725">
        <ele>358.963025</ele>
        <time>2022-09-26T09:09:36.424Z</time>
      </trkpt>
      <trkpt lat="46.93863" lon="15.48718">
        <ele>359.308802</ele>
        <time>2022-09-26T09:09:39.435Z</time>
      </trkpt>
      <trkpt lat="46.93872" lon="15.48712">
        <ele>359.68504</ele>
        <time>2022-09-26T09:09:43.419Z</time>
      </trkpt>
      <trkpt lat="46.93881" lon="15.48707">
        <ele>360.009479</ele>
        <time>2022-09-26T09:09:46.423Z</time>
      </trkpt>
      <trkpt lat="46.93892" lon="15.48701">
        <ele>360.420736</ele>
        <time>2022-09-26T09:09:50.429Z</time>
      </trkpt>
      <trkpt lat="46.93903" lon="15.48698">
        <ele>360.796004</ele>
        <time>2022-09-26T09:09:54.429Z</time>
      </trkpt>
      <trkpt lat="46.93914" lon="15.48692">
        <ele>361.228775</ele>
        <time>2022-09-26T09:09:58.427Z</time>
      </trkpt>
      <trkpt lat="46.93926" lon="15.48689">
        <ele>361.635306</ele>
        <time>2022-09-26T09:10:01.418Z</time>
      </trkpt>
      <trkpt lat="46.93937" lon="15.48687">
        <ele>361.943101</ele>
        <time>2022-09-26T09:10:04.430Z</time>
      </trkpt>
      <trkpt lat="46.93949" lon="15.48686">
        <ele>361.807836</ele>
        <time>2022-09-26T09:10:07.434Z</time>
      </trkpt>
      <trkpt lat="46.9396" lon="15.48686">
        <ele>361.68088</ele>
        <time>2022-09-26T09:10:10.423Z</time>
      </trkpt>
      <trkpt lat="46.9397" lon="15.48685">
        <ele>361.561562</ele>
        <time>2022-09-26T09:10:13.411Z</time>
      </trkpt>
      <trkpt lat="46.93981" lon="15.48686">
        <ele>361.433297</ele>
        <time>2022-09-26T09:10:16.425Z</time>
      </trkpt>
      <trkpt lat="46.93993" lon="15.48686">
        <ele>361.297087</ele>
        <time>2022-09-26T09:10:19.459Z</time>
      </trkpt>
      <trkpt lat="46.94005" lon="15.48687">
        <ele>361.155964</ele>
        <time>2022-09-26T09:10:22.435Z</time>
      </trkpt>
      <trkpt lat="46.94017" lon="15.48689">
        <ele>361.011274</ele>
        <time>2022-09-26T09:10:25.424Z</time>
      </trkpt>
      <trkpt lat="46.94029" lon="15.48691">
        <ele>360.871383</ele>
        <time>2022-09-26T09:10:28.436Z</time>
      </trkpt>
      <trkpt lat="46.94038" lon="15.48692">
        <ele>360.767149</ele>
        <time>2022-09-26T09:10:30.439Z</time>
      </trkpt>
      <trkpt lat="46.94048" lon="15.48693">
        <ele>360.659325</ele>
        <time>2022-09-26T09:10:32.416Z</time>
      </trkpt>
      <trkpt lat="46.94057" lon="15.48694">
        <ele>360.54839</ele>
        <time>2022-09-26T09:10:34.424Z</time>
      </trkpt>
      <trkpt lat="46.94067" lon="15.48696">
        <ele>360.432107</ele>
        <time>2022-09-26T09:10:36.445Z</time>
      </trkpt>
      <trkpt lat="46.94077" lon="15.48698">
        <ele>360.320405</ele>
        <time>2022-09-26T09:10:38.424Z</time>
      </trkpt>
      <trkpt lat="46.94087" lon="15.487">
        <ele>360.208491</ele>
        <time>2022-09-26T09:10:40.427Z</time>
      </trkpt>
      <trkpt lat="46.94096" lon="15.48702">
        <ele>360.09772</ele>
        <time>2022-09-26T09:10:42.438Z</time>
      </trkpt>
      <trkpt lat="46.94105" lon="15.48704">
        <ele>359.989117</ele>
        <time>2022-09-26T09:10:44.422Z</time>
      </trkpt>
      <trkpt lat="46.94115" lon="15.48705">
        <ele>359.877098</ele>
        <time>2022-09-26T09:10:46.482Z</time>
      </trkpt>
      <trkpt lat="46.94124" lon="15.48708">
        <ele>359.688643</ele>
        <time>2022-09-26T09:10:48.425Z</time>
      </trkpt>
      <trkpt lat="46.94133" lon="15.4871">
        <ele>359.499703</ele>
        <time>2022-09-26T09:10:50.443Z</time>
      </trkpt>
      <trkpt lat="46.94142" lon="15.48713">
        <ele>359.309673</ele>
        <time>2022-09-26T09:10:52.452Z</time>
      </trkpt>
      <trkpt lat="46.94154" lon="15.48718">
        <ele>359.038778</ele>
        <time>2022-09-26T09:10:55.518Z</time>
      </trkpt>
      <trkpt lat="46.94167" lon="15.48724">
        <ele>358.763167</ele>
        <time>2022-09-26T09:10:58.460Z</time>
      </trkpt>
      <trkpt lat="46.94176" lon="15.48728">
        <ele>358.55901</ele>
        <time>2022-09-26T09:11:00.430Z</time>
      </trkpt>
      <trkpt lat="46.94186" lon="15.48731">
        <ele>358.359596</ele>
        <time>2022-09-26T09:11:02.427Z</time>
      </trkpt>
      <trkpt lat="46.94195" lon="15.48736">
        <ele>358.162251</ele>
        <time>2022-09-26T09:11:04.419Z</time>
      </trkpt>
      <trkpt lat="46.94204" lon="15.48741">
        <ele>357.965732</ele>
        <time>2022-09-26T09:11:06.435Z</time>
      </trkpt>
      <trkpt lat="46.94212" lon="15.48746">
        <ele>357.778082</ele>
        <time>2022-09-26T09:11:08.423Z</time>
      </trkpt>
      <trkpt lat="46.94221" lon="15.48751">
        <ele>357.585919</ele>
        <time>2022-09-26T09:11:10.436Z</time>
      </trkpt>
      <trkpt lat="46.94232" lon="15.48759">
        <ele>357.324032</ele>
        <time>2022-09-26T09:11:13.433Z</time>
      </trkpt>
      <trkpt lat="46.94243" lon="15.48766">
        <ele>357.083689</ele>
        <time>2022-09-26T09:11:16.417Z</time>
      </trkpt>
      <trkpt lat="46.94254" lon="15.4877">
        <ele>356.840902</ele>
        <time>2022-09-26T09:11:19.426Z</time>
      </trkpt>
      <trkpt lat="46.94263" lon="15.48773">
        <ele>356.652891</ele>
        <time>2022-09-26T09:11:21.413Z</time>
      </trkpt>
      <trkpt lat="46.94273" lon="15.48774">
        <ele>356.453336</ele>
        <time>2022-09-26T09:11:23.442Z</time>
      </trkpt>
      <trkpt lat="46.94282" lon="15.48776">
        <ele>356.253935</ele>
        <time>2022-09-26T09:11:25.425Z</time>
      </trkpt>
      <trkpt lat="46.94293" lon="15.48776">
        <ele>356.292458</ele>
        <time>2022-09-26T09:11:27.419Z</time>
      </trkpt>
      <trkpt lat="46.94303" lon="15.48775">
        <ele>356.477809</ele>
        <time>2022-09-26T09:11:29.437Z</time>
      </trkpt>
      <trkpt lat="46.94312" lon="15.48772">
        <ele>356.658342</ele>
        <time>2022-09-26T09:11:31.417Z</time>
      </trkpt>
      <trkpt lat="46.94322" lon="15.48769">
        <ele>356.835904</ele>
        <time>2022-09-26T09:11:33.459Z</time>
      </trkpt>
      <trkpt lat="46.94333" lon="15.48763">
        <ele>357.067302</ele>
        <time>2022-09-26T09:11:36.408Z</time>
      </trkpt>
      <trkpt lat="46.94346" lon="15.4876">
        <ele>357.293098</ele>
        <time>2022-09-26T09:11:39.426Z</time>
      </trkpt>
      <trkpt lat="46.94357" lon="15.4876">
        <ele>357.503941</ele>
        <time>2022-09-26T09:11:42.439Z</time>
      </trkpt>
      <trkpt lat="46.94368" lon="15.48762">
        <ele>357.717139</ele>
        <time>2022-09-26T09:11:45.464Z</time>
      </trkpt>
      <trkpt lat="46.9438" lon="15.48762">
        <ele>357.937325</ele>
        <time>2022-09-26T09:11:48.447Z</time>
      </trkpt>
      <trkpt lat="46.94392" lon="15.48764">
        <ele>358.16168</ele>
        <time>2022-09-26T09:11:51.481Z</time>
      </trkpt>
      <trkpt lat="46.94405" lon="15.48765">
        <ele>358.391402</ele>
        <time>2022-09-26T09:11:54.426Z</time>
      </trkpt>
      <trkpt lat="46.94419" lon="15.48766">
        <ele>358.647041</ele>
        <time>2022-09-26T09:11:57.434Z</time>
      </trkpt>
      <trkpt lat="46.94428" lon="15.48768">
        <ele>358.826534</ele>
        <time>2022-09-26T09:11:59.497Z</time>
      </trkpt>
      <trkpt lat="46.94441" lon="15.48771">
        <ele>359.0622</ele>
        <time>2022-09-26T09:12:02.424Z</time>
      </trkpt>
      <trkpt lat="46.94453" lon="15.48773">
        <ele>359.2825</ele>
        <time>2022-09-26T09:12:05.486Z</time>
      </trkpt>
      <trkpt lat="46.94462" lon="15.4878">
        <ele>359.484678</ele>
        <time>2022-09-26T09:12:08.434Z</time>
      </trkpt>
      <trkpt lat="46.94471" lon="15.48792">
        <ele>359.344313</ele>
        <time>2022-09-26T09:12:11.432Z</time>
      </trkpt>
      <trkpt lat="46.94479" lon="15.48799">
        <ele>359.209323</ele>
        <time>2022-09-26T09:12:13.466Z</time>
      </trkpt>
      <trkpt lat="46.94488" lon="15.48804">
        <ele>359.075594</ele>
        <time>2022-09-26T09:12:15.449Z</time>
      </trkpt>
      <trkpt lat="46.94499" lon="15.48806">
        <ele>358.925339</ele>
        <time>2022-09-26T09:12:17.424Z</time>
      </trkpt>
      <trkpt lat="46.94509" lon="15.48808">
        <ele>358.77762</ele>
        <time>2022-09-26T09:12:19.460Z</time>
      </trkpt>
      <trkpt lat="46.94519" lon="15.48811">
        <ele>358.638967</ele>
        <time>2022-09-26T09:12:21.439Z</time>
      </trkpt>
      <trkpt lat="46.94532" lon="15.48814">
        <ele>358.454228</ele>
        <time>2022-09-26T09:12:24.459Z</time>
      </trkpt>
      <trkpt lat="46.94543" lon="15.48818">
        <ele>358.284669</ele>
        <time>2022-09-26T09:12:27.438Z</time>
      </trkpt>
      <trkpt lat="46.94553" lon="15.48822">
        <ele>358.149944</ele>
        <time>2022-09-26T09:12:29.429Z</time>
      </trkpt>
      <trkpt lat="46.94562" lon="15.48826">
        <ele>358.018448</ele>
        <time>2022-09-26T09:12:31.445Z</time>
      </trkpt>
      <trkpt lat="46.94571" lon="15.48831">
        <ele>357.876136</ele>
        <time>2022-09-26T09:12:33.441Z</time>
      </trkpt>
      <trkpt lat="46.94581" lon="15.48835">
        <ele>357.737079</ele>
        <time>2022-09-26T09:12:35.418Z</time>
      </trkpt>
      <trkpt lat="46.9459" lon="15.48839">
        <ele>357.595048</ele>
        <time>2022-09-26T09:12:37.419Z</time>
      </trkpt>
      <trkpt lat="46.946" lon="15.4884">
        <ele>357.450654</ele>
        <time>2022-09-26T09:12:39.421Z</time>
      </trkpt>
      <trkpt lat="46.94611" lon="15.48841">
        <ele>357.302509</ele>
        <time>2022-09-26T09:12:41.505Z</time>
      </trkpt>
      <trkpt lat="46.94621" lon="15.48843">
        <ele>357.166098</ele>
        <time>2022-09-26T09:12:43.430Z</time>
      </trkpt>
      <trkpt lat="46.94633" lon="15.48844">
        <ele>356.988133</ele>
        <time>2022-09-26T09:12:46.431Z</time>
      </trkpt>
      <trkpt lat="46.94644" lon="15.48844">
        <ele>357.016403</ele>
        <time>2022-09-26T09:12:49.416Z</time>
      </trkpt>
      <trkpt lat="46.94654" lon="15.48844">
        <ele>357.072833</ele>
        <time>2022-09-26T09:12:52.420Z</time>
      </trkpt>
      <trkpt lat="46.94664" lon="15.48847">
        <ele>357.125883</ele>
        <time>2022-09-26T09:12:55.419Z</time>
      </trkpt>
      <trkpt lat="46.94673" lon="15.4885">
        <ele>357.180505</ele>
        <time>2022-09-26T09:12:58.507Z</time>
      </trkpt>
      <trkpt lat="46.94684" lon="15.48856">
        <ele>357.243993</ele>
        <time>2022-09-26T09:13:01.470Z</time>
      </trkpt>
      <trkpt lat="46.94692" lon="15.48861">
        <ele>357.294219</ele>
        <time>2022-09-26T09:13:03.420Z</time>
      </trkpt>
      <trkpt lat="46.94701" lon="15.48867">
        <ele>357.345105</ele>
        <time>2022-09-26T09:13:05.416Z</time>
      </trkpt>
      <trkpt lat="46.9471" lon="15.48873">
        <ele>357.401096</ele>
        <time>2022-09-26T09:13:07.419Z</time>
      </trkpt>
      <trkpt lat="46.94718" lon="15.48879">
        <ele>357.453278</ele>
        <time>2022-09-26T09:13:09.444Z</time>
      </trkpt>
      <trkpt lat="46.94731" lon="15.48887">
        <ele>357.527763</ele>
        <time>2022-09-26T09:13:12.423Z</time>
      </trkpt>
      <trkpt lat="46.94741" lon="15.48891">
        <ele>357.584087</ele>
        <time>2022-09-26T09:13:14.427Z</time>
      </trkpt>
      <trkpt lat="46.9475" lon="15.48893">
        <ele>357.637606</ele>
        <time>2022-09-26T09:13:16.407Z</time>
      </trkpt>
      <trkpt lat="46.94759" lon="15.48895">
        <ele>357.688722</ele>
        <time>2022-09-26T09:13:18.407Z</time>
      </trkpt>
      <trkpt lat="46.94773" lon="15.48894">
        <ele>357.761219</ele>
        <time>2022-09-26T09:13:21.428Z</time>
      </trkpt>
      <trkpt lat="46.94785" lon="15.48893">
        <ele>357.831578</ele>
        <time>2022-09-26T09:13:24.426Z</time>
      </trkpt>
      <trkpt lat="46.94798" lon="15.48894">
        <ele>357.903668</ele>
        <time>2022-09-26T09:13:27.420Z</time>
      </trkpt>
      <trkpt lat="46.94808" lon="15.48897">
        <ele>357.956253</ele>
        <time>2022-09-26T09:13:29.424Z</time>
      </trkpt>
      <trkpt lat="46.94816" lon="15.48901">
        <ele>358.004105</ele>
        <time>2022-09-26T09:13:31.414Z</time>
      </trkpt>
      <trkpt lat="46.94828" lon="15.48909">
        <ele>358.069573</ele>
        <time>2022-09-26T09:13:34.419Z</time>
      </trkpt>
      <trkpt lat="46.94839" lon="15.48918">
        <ele>358.137922</ele>
        <time>2022-09-26T09:13:37.457Z</time>
      </trkpt>
      <trkpt lat="46.9485" lon="15.48927">
        <ele>358.203136</ele>
        <time>2022-09-26T09:13:40.418Z</time>
      </trkpt>
      <trkpt lat="46.94862" lon="15.48936">
        <ele>358.269855</ele>
        <time>2022-09-26T09:13:43.439Z</time>
      </trkpt>
      <trkpt lat="46.94873" lon="15.48943">
        <ele>358.335646</ele>
        <time>2022-09-26T09:13:46.411Z</time>
      </trkpt>
      <trkpt lat="46.94885" lon="15.48951">
        <ele>358.404008</ele>
        <time>2022-09-26T09:13:49.452Z</time>
      </trkpt>
      <trkpt lat="46.94898" lon="15.48958">
        <ele>358.473542</ele>
        <time>2022-09-26T09:13:52.411Z</time>
      </trkpt>
      <trkpt lat="46.9491" lon="15.48966">
        <ele>358.541767</ele>
        <time>2022-09-26T09:13:55.414Z</time>
      </trkpt>
      <trkpt lat="46.94922" lon="15.48973">
        <ele>358.609032</ele>
        <time>2022-09-26T09:13:58.424Z</time>
      </trkpt>
      <trkpt lat="46.94933" lon="15.4898">
        <ele>358.67568</ele>
        <time>2022-09-26T09:14:01.425Z</time>
      </trkpt>
      <trkpt lat="46.94945" lon="15.48988">
        <ele>358.74275</ele>
        <time>2022-09-26T09:14:04.432Z</time>
      </trkpt>
      <trkpt lat="46.94957" lon="15.48995">
        <ele>358.80878</ele>
        <time>2022-09-26T09:14:07.414Z</time>
      </trkpt>
      <trkpt lat="46.94968" lon="15.49002">
        <ele>358.872343</ele>
        <time>2022-09-26T09:14:10.466Z</time>
      </trkpt>
      <trkpt lat="46.9498" lon="15.49008">
        <ele>358.869428</ele>
        <time>2022-09-26T09:14:13.422Z</time>
      </trkpt>
      <trkpt lat="46.94993" lon="15.49014">
        <ele>358.829483</ele>
        <time>2022-09-26T09:14:16.427Z</time>
      </trkpt>
      <trkpt lat="46.95006" lon="15.49019">
        <ele>358.789923</ele>
        <time>2022-09-26T09:14:19.430Z</time>
      </trkpt>
      <trkpt lat="46.95015" lon="15.49022">
        <ele>358.762568</ele>
        <time>2022-09-26T09:14:21.442Z</time>
      </trkpt>
      <trkpt lat="46.95024" lon="15.49025">
        <ele>358.735432</ele>
        <time>2022-09-26T09:14:23.414Z</time>
      </trkpt>
      <trkpt lat="46.95033" lon="15.49027">
        <ele>358.707334</ele>
        <time>2022-09-26T09:14:25.421Z</time>
      </trkpt>
      <trkpt lat="46.95042" lon="15.4903">
        <ele>358.67946</ele>
        <time>2022-09-26T09:14:27.458Z</time>
      </trkpt>
      <trkpt lat="46.95052" lon="15.49031">
        <ele>358.651139</ele>
        <time>2022-09-26T09:14:29.439Z</time>
      </trkpt>
      <trkpt lat="46.95061" lon="15.49033">
        <ele>358.623756</ele>
        <time>2022-09-26T09:14:31.434Z</time>
      </trkpt>
      <trkpt lat="46.9507" lon="15.49036">
        <ele>358.596286</ele>
        <time>2022-09-26T09:14:33.424Z</time>
      </trkpt>
      <trkpt lat="46.95079" lon="15.49037">
        <ele>358.568236</ele>
        <time>2022-09-26T09:14:35.419Z</time>
      </trkpt>
      <trkpt lat="46.95089" lon="15.49038">
        <ele>358.539144</ele>
        <time>2022-09-26T09:14:37.424Z</time>
      </trkpt>
      <trkpt lat="46.95098" lon="15.49039">
        <ele>358.510067</ele>
        <time>2022-09-26T09:14:39.425Z</time>
      </trkpt>
      <trkpt lat="46.95108" lon="15.4904">
        <ele>358.480164</ele>
        <time>2022-09-26T09:14:41.426Z</time>
      </trkpt>
      <trkpt lat="46.95118" lon="15.49039">
        <ele>358.451148</ele>
        <time>2022-09-26T09:14:43.439Z</time>
      </trkpt>
      <trkpt lat="46.95128" lon="15.49038">
        <ele>358.422895</ele>
        <time>2022-09-26T09:14:45.429Z</time>
      </trkpt>
      <trkpt lat="46.95136" lon="15.49034">
        <ele>358.395733</ele>
        <time>2022-09-26T09:14:47.446Z</time>
      </trkpt>
      <trkpt lat="46.95145" lon="15.4903">
        <ele>358.368493</ele>
        <time>2022-09-26T09:14:49.432Z</time>
      </trkpt>
      <trkpt lat="46.95154" lon="15.49023">
        <ele>358.336377</ele>
        <time>2022-09-26T09:14:51.419Z</time>
      </trkpt>
      <trkpt lat="46.95162" lon="15.49015">
        <ele>358.302081</ele>
        <time>2022-09-26T09:14:53.430Z</time>
      </trkpt>
      <trkpt lat="46.9517" lon="15.49007">
        <ele>358.268256</ele>
        <time>2022-09-26T09:14:55.425Z</time>
      </trkpt>
      <trkpt lat="46.95177" lon="15.48997">
        <ele>358.234758</ele>
        <time>2022-09-26T09:14:57.436Z</time>
      </trkpt>
      <trkpt lat="46.95184" lon="15.48988">
        <ele>358.202132</ele>
        <time>2022-09-26T09:14:59.440Z</time>
      </trkpt>
      <trkpt lat="46.95191" lon="15.48979">
        <ele>358.170803</ele>
        <time>2022-09-26T09:15:01.421Z</time>
      </trkpt>
      <trkpt lat="46.95198" lon="15.4897">
        <ele>358.139729</ele>
        <time>2022-09-26T09:15:03.429Z</time>
      </trkpt>
      <trkpt lat="46.95208" lon="15.48958">
        <ele>358.095582</ele>
        <time>2022-09-26T09:15:06.438Z</time>
      </trkpt>
      <trkpt lat="46.95219" lon="15.48947">
        <ele>358.04881</ele>
        <time>2022-09-26T09:15:09.432Z</time>
      </trkpt>
      <trkpt lat="46.95227" lon="15.4894">
        <ele>358.016625</ele>
        <time>2022-09-26T09:15:11.441Z</time>
      </trkpt>
      <trkpt lat="46.95235" lon="15.48933">
        <ele>357.983422</ele>
        <time>2022-09-26T09:15:13.439Z</time>
      </trkpt>
      <trkpt lat="46.95244" lon="15.48925">
        <ele>357.949917</ele>
        <time>2022-09-26T09:15:15.425Z</time>
      </trkpt>
      <trkpt lat="46.95252" lon="15.48918">
        <ele>357.91624</ele>
        <time>2022-09-26T09:15:17.435Z</time>
      </trkpt>
      <trkpt lat="46.95263" lon="15.48907">
        <ele>357.869559</ele>
        <time>2022-09-26T09:15:20.428Z</time>
      </trkpt>
      <trkpt lat="46.95272" lon="15.489">
        <ele>357.836713</ele>
        <time>2022-09-26T09:15:22.443Z</time>
      </trkpt>
      <trkpt lat="46.9528" lon="15.48893">
        <ele>357.802266</ele>
        <time>2022-09-26T09:15:24.443Z</time>
      </trkpt>
      <trkpt lat="46.95289" lon="15.48885">
        <ele>357.767759</ele>
        <time>2022-09-26T09:15:26.422Z</time>
      </trkpt>
      <trkpt lat="46.95298" lon="15.48877">
        <ele>357.743837</ele>
        <time>2022-09-26T09:15:28.441Z</time>
      </trkpt>
      <trkpt lat="46.95306" lon="15.4887">
        <ele>357.766571</ele>
        <time>2022-09-26T09:15:30.421Z</time>
      </trkpt>
      <trkpt lat="46.95315" lon="15.48863">
        <ele>357.787055</ele>
        <time>2022-09-26T09:15:32.416Z</time>
      </trkpt>
      <trkpt lat="46.95323" lon="15.48857">
        <ele>357.808518</ele>
        <time>2022-09-26T09:15:34.423Z</time>
      </trkpt>
      <trkpt lat="46.95335" lon="15.48847">
        <ele>357.838041</ele>
        <time>2022-09-26T09:15:37.435Z</time>
      </trkpt>
      <trkpt lat="46.95343" lon="15.48841">
        <ele>357.858404</ele>
        <time>2022-09-26T09:15:39.426Z</time>
      </trkpt>
      <trkpt lat="46.95354" lon="15.48831">
        <ele>357.886849</ele>
        <time>2022-09-26T09:15:42.421Z</time>
      </trkpt>
      <trkpt lat="46.95365" lon="15.4882">
        <ele>357.915617</ele>
        <time>2022-09-26T09:15:45.437Z</time>
      </trkpt>
      <trkpt lat="46.95375" lon="15.48809">
        <ele>357.94506</ele>
        <time>2022-09-26T09:15:48.424Z</time>
      </trkpt>
      <trkpt lat="46.95382" lon="15.48799">
        <ele>357.966083</ele>
        <time>2022-09-26T09:15:50.458Z</time>
      </trkpt>
      <trkpt lat="46.95389" lon="15.4879">
        <ele>357.986307</ele>
        <time>2022-09-26T09:15:52.407Z</time>
      </trkpt>
      <trkpt lat="46.95398" lon="15.48778">
        <ele>358.013995</ele>
        <time>2022-09-26T09:15:55.452Z</time>
      </trkpt>
      <trkpt lat="46.95409" lon="15.48766">
        <ele>358.043263</ele>
        <time>2022-09-26T09:15:58.428Z</time>
      </trkpt>
      <trkpt lat="46.95416" lon="15.48759">
        <ele>358.063757</ele>
        <time>2022-09-26T09:16:00.438Z</time>
      </trkpt>
      <trkpt lat="46.95424" lon="15.48751">
        <ele>358.08524</ele>
        <time>2022-09-26T09:16:02.422Z</time>
      </trkpt>
      <trkpt lat="46.95432" lon="15.48742">
        <ele>358.107427</ele>
        <time>2022-09-26T09:16:04.418Z</time>
      </trkpt>
      <trkpt lat="46.95441" lon="15.48734">
        <ele>358.129731</ele>
        <time>2022-09-26T09:16:06.413Z</time>
      </trkpt>
      <trkpt lat="46.95449" lon="15.48726">
        <ele>358.245858</ele>
        <time>2022-09-26T09:16:08.426Z</time>
      </trkpt>
      <trkpt lat="46.95457" lon="15.48717">
        <ele>358.415446</ele>
        <time>2022-09-26T09:16:10.423Z</time>
      </trkpt>
      <trkpt lat="46.95465" lon="15.4871">
        <ele>358.575684</ele>
        <time>2022-09-26T09:16:12.453Z</time>
      </trkpt>
      <trkpt lat="46.95473" lon="15.48701">
        <ele>358.741114</ele>
        <time>2022-09-26T09:16:14.429Z</time>
      </trkpt>
      <trkpt lat="46.95481" lon="15.48694">
        <ele>358.899687</ele>
        <time>2022-09-26T09:16:16.406Z</time>
      </trkpt>
      <trkpt lat="46.95489" lon="15.48685">
        <ele>359.080352</ele>
        <time>2022-09-26T09:16:18.434Z</time>
      </trkpt>
      <trkpt lat="46.95498" lon="15.48677">
        <ele>359.245995</ele>
        <time>2022-09-26T09:16:20.432Z</time>
      </trkpt>
      <trkpt lat="46.95506" lon="15.48669">
        <ele>359.423276</ele>
        <time>2022-09-26T09:16:22.435Z</time>
      </trkpt>
      <trkpt lat="46.95514" lon="15.48661">
        <ele>359.581182</ele>
        <time>2022-09-26T09:16:24.425Z</time>
      </trkpt>
      <trkpt lat="46.95525" lon="15.48651">
        <ele>359.803253</ele>
        <time>2022-09-26T09:16:27.444Z</time>
      </trkpt>
      <trkpt lat="46.95536" lon="15.48641">
        <ele>360.030353</ele>
        <time>2022-09-26T09:16:30.436Z</time>
      </trkpt>
      <trkpt lat="46.95545" lon="15.48636">
        <ele>360.188676</ele>
        <time>2022-09-26T09:16:32.424Z</time>
      </trkpt>
      <trkpt lat="46.95558" lon="15.4863">
        <ele>360.415321</ele>
        <time>2022-09-26T09:16:35.426Z</time>
      </trkpt>
      <trkpt lat="46.95567" lon="15.48626">
        <ele>360.575837</ele>
        <time>2022-09-26T09:16:37.438Z</time>
      </trkpt>
      <trkpt lat="46.95575" lon="15.48622">
        <ele>360.733997</ele>
        <time>2022-09-26T09:16:39.429Z</time>
      </trkpt>
      <trkpt lat="46.95584" lon="15.48618">
        <ele>360.88952</ele>
        <time>2022-09-26T09:16:41.430Z</time>
      </trkpt>
      <trkpt lat="46.95597" lon="15.48614">
        <ele>361.106497</ele>
        <time>2022-09-26T09:16:44.434Z</time>
      </trkpt>
      <trkpt lat="46.95608" lon="15.48612">
        <ele>361.272706</ele>
        <time>2022-09-26T09:16:47.428Z</time>
      </trkpt>
      <trkpt lat="46.95622" lon="15.48611">
        <ele>361.410719</ele>
        <time>2022-09-26T09:16:50.420Z</time>
      </trkpt>
      <trkpt lat="46.95631" lon="15.48612">
        <ele>361.508566</ele>
        <time>2022-09-26T09:16:52.419Z</time>
      </trkpt>
      <trkpt lat="46.95641" lon="15.48611">
        <ele>361.607481</ele>
        <time>2022-09-26T09:16:54.436Z</time>
      </trkpt>
      <trkpt lat="46.9565" lon="15.4861">
        <ele>361.70261</ele>
        <time>2022-09-26T09:16:56.423Z</time>
      </trkpt>
      <trkpt lat="46.95663" lon="15.48607">
        <ele>361.832412</ele>
        <time>2022-09-26T09:16:59.426Z</time>
      </trkpt>
      <trkpt lat="46.95673" lon="15.48606">
        <ele>361.943826</ele>
        <time>2022-09-26T09:17:02.453Z</time>
      </trkpt>
      <trkpt lat="46.95683" lon="15.48604">
        <ele>362.046572</ele>
        <time>2022-09-26T09:17:05.417Z</time>
      </trkpt>
      <trkpt lat="46.95694" lon="15.48603">
        <ele>362.161111</ele>
        <time>2022-09-26T09:17:09.442Z</time>
      </trkpt>
      <trkpt lat="46.95704" lon="15.48609">
        <ele>362.269166</ele>
        <time>2022-09-26T09:17:13.437Z</time>
      </trkpt>
      <trkpt lat="46.95707" lon="15.48622">
        <ele>362.368649</ele>
        <time>2022-09-26T09:17:17.433Z</time>
      </trkpt>
      <trkpt lat="46.95702" lon="15.48611">
        <ele>362.462712</ele>
        <time>2022-09-26T09:18:09.430Z</time>
      </trkpt>
      <trkpt lat="46.95692" lon="15.48612">
        <ele>362.569847</ele>
        <time>2022-09-26T09:18:15.432Z</time>
      </trkpt>
      <trkpt lat="46.95678" lon="15.48609">
        <ele>362.709064</ele>
        <time>2022-09-26T09:19:20.431Z</time>
      </trkpt>
      <trkpt lat="46.95691" lon="15.48606">
        <ele>362.83716</ele>
        <time>2022-09-26T09:21:00.429Z</time>
      </trkpt>
      <trkpt lat="46.95699" lon="15.4861">
        <ele>362.931851</ele>
        <time>2022-09-26T09:21:11.409Z</time>
      </trkpt>
      <trkpt lat="46.95712" lon="15.48605">
        <ele>363.066682</ele>
        <time>2022-09-26T09:24:12.434Z</time>
      </trkpt>
      <trkpt lat="46.95724" lon="15.48602">
        <ele>363.144372</ele>
        <time>2022-09-26T09:24:16.427Z</time>
      </trkpt>
      <trkpt lat="46.95735" lon="15.48598">
        <ele>363.221687</ele>
        <time>2022-09-26T09:24:19.428Z</time>
      </trkpt>
      <trkpt lat="46.95747" lon="15.48594">
        <ele>363.304082</ele>
        <time>2022-09-26T09:24:22.418Z</time>
      </trkpt>
      <trkpt lat="46.95759" lon="15.4859">
        <ele>363.379666</ele>
        <time>2022-09-26T09:24:25.425Z</time>
      </trkpt>
      <trkpt lat="46.95769" lon="15.48586">
        <ele>363.451745</ele>
        <time>2022-09-26T09:24:28.446Z</time>
      </trkpt>
      <trkpt lat="46.9578" lon="15.48584">
        <ele>363.522913</ele>
        <time>2022-09-26T09:24:31.451Z</time>
      </trkpt>
      <trkpt lat="46.95791" lon="15.48581">
        <ele>363.59552</ele>
        <time>2022-09-26T09:24:34.434Z</time>
      </trkpt>
      <trkpt lat="46.95802" lon="15.4858">
        <ele>363.669862</ele>
        <time>2022-09-26T09:24:37.449Z</time>
      </trkpt>
      <trkpt lat="46.95814" lon="15.48579">
        <ele>363.749517</ele>
        <time>2022-09-26T09:24:40.440Z</time>
      </trkpt>
      <trkpt lat="46.95825" lon="15.48578">
        <ele>363.822992</ele>
        <time>2022-09-26T09:24:43.433Z</time>
      </trkpt>
      <trkpt lat="46.95837" lon="15.48575">
        <ele>363.90036</ele>
        <time>2022-09-26T09:24:46.419Z</time>
      </trkpt>
      <trkpt lat="46.95847" lon="15.48568">
        <ele>363.975129</ele>
        <time>2022-09-26T09:24:49.443Z</time>
      </trkpt>
      <trkpt lat="46.95857" lon="15.48559">
        <ele>364.049924</ele>
        <time>2022-09-26T09:24:52.433Z</time>
      </trkpt>
      <trkpt lat="46.95865" lon="15.48546">
        <ele>364.128961</ele>
        <time>2022-09-26T09:24:55.412Z</time>
      </trkpt>
      <trkpt lat="46.95874" lon="15.48532">
        <ele>364.214824</ele>
        <time>2022-09-26T09:24:58.430Z</time>
      </trkpt>
      <trkpt lat="46.9588" lon="15.48521">
        <ele>364.228707</ele>
        <time>2022-09-26T09:25:00.430Z</time>
      </trkpt>
      <trkpt lat="46.95887" lon="15.48511">
        <ele>364.191643</ele>
        <time>2022-09-26T09:25:02.429Z</time>
      </trkpt>
      <trkpt lat="46.95894" lon="15.485">
        <ele>364.152834</ele>
        <time>2022-09-26T09:25:04.426Z</time>
      </trkpt>
      <trkpt lat="46.95902" lon="15.48491">
        <ele>364.114693</ele>
        <time>2022-09-26T09:25:06.419Z</time>
      </trkpt>
      <trkpt lat="46.95913" lon="15.48479">
        <ele>364.06146</ele>
        <time>2022-09-26T09:25:09.439Z</time>
      </trkpt>
      <trkpt lat="46.9592" lon="15.48471">
        <ele>364.027009</ele>
        <time>2022-09-26T09:25:11.474Z</time>
      </trkpt>
      <trkpt lat="46.95928" lon="15.48463">
        <ele>363.989075</ele>
        <time>2022-09-26T09:25:13.422Z</time>
      </trkpt>
      <trkpt lat="46.9594" lon="15.48454">
        <ele>363.938794</ele>
        <time>2022-09-26T09:25:16.415Z</time>
      </trkpt>
      <trkpt lat="46.95951" lon="15.48446">
        <ele>363.889016</ele>
        <time>2022-09-26T09:25:19.438Z</time>
      </trkpt>
      <trkpt lat="46.95959" lon="15.48439">
        <ele>363.853232</ele>
        <time>2022-09-26T09:25:21.432Z</time>
      </trkpt>
      <trkpt lat="46.95968" lon="15.48433">
        <ele>363.815898</ele>
        <time>2022-09-26T09:25:23.436Z</time>
      </trkpt>
      <trkpt lat="46.95977" lon="15.48426">
        <ele>363.776836</ele>
        <time>2022-09-26T09:25:25.420Z</time>
      </trkpt>
      <trkpt lat="46.95986" lon="15.48419">
        <ele>363.736248</ele>
        <time>2022-09-26T09:25:27.422Z</time>
      </trkpt>
      <trkpt lat="46.95995" lon="15.48412">
        <ele>363.698096</ele>
        <time>2022-09-26T09:25:29.442Z</time>
      </trkpt>
      <trkpt lat="46.96004" lon="15.48406">
        <ele>363.660301</ele>
        <time>2022-09-26T09:25:31.496Z</time>
      </trkpt>
      <trkpt lat="46.96013" lon="15.484">
        <ele>363.622331</ele>
        <time>2022-09-26T09:25:33.442Z</time>
      </trkpt>
      <trkpt lat="46.96022" lon="15.48395">
        <ele>363.584485</ele>
        <time>2022-09-26T09:25:35.419Z</time>
      </trkpt>
      <trkpt lat="46.96032" lon="15.48392">
        <ele>363.547185</ele>
        <time>2022-09-26T09:25:37.461Z</time>
      </trkpt>
      <trkpt lat="46.96042" lon="15.48389">
        <ele>363.508602</ele>
        <time>2022-09-26T09:25:39.436Z</time>
      </trkpt>
      <trkpt lat="46.96051" lon="15.48387">
        <ele>363.472578</ele>
        <time>2022-09-26T09:25:41.457Z</time>
      </trkpt>
      <trkpt lat="46.96061" lon="15.48385">
        <ele>363.436512</ele>
        <time>2022-09-26T09:25:43.419Z</time>
      </trkpt>
      <trkpt lat="46.9607" lon="15.48382">
        <ele>363.400201</ele>
        <time>2022-09-26T09:25:45.435Z</time>
      </trkpt>
      <trkpt lat="46.96083" lon="15.48379">
        <ele>363.351908</ele>
        <time>2022-09-26T09:25:48.419Z</time>
      </trkpt>
      <trkpt lat="46.96095" lon="15.48375">
        <ele>363.304175</ele>
        <time>2022-09-26T09:25:51.509Z</time>
      </trkpt>
      <trkpt lat="46.96108" lon="15.48372">
        <ele>363.255964</ele>
        <time>2022-09-26T09:25:54.425Z</time>
      </trkpt>
      <trkpt lat="46.9612" lon="15.48368">
        <ele>363.208593</ele>
        <time>2022-09-26T09:25:57.442Z</time>
      </trkpt>
      <trkpt lat="46.96131" lon="15.48364">
        <ele>363.163794</ele>
        <time>2022-09-26T09:26:00.423Z</time>
      </trkpt>
      <trkpt lat="46.96142" lon="15.48357">
        <ele>363.121091</ele>
        <time>2022-09-26T09:26:03.439Z</time>
      </trkpt>
      <trkpt lat="46.96151" lon="15.48347">
        <ele>363.077169</ele>
        <time>2022-09-26T09:26:06.428Z</time>
      </trkpt>
      <trkpt lat="46.96159" lon="15.48334">
        <ele>363.032394</ele>
        <time>2022-09-26T09:26:09.484Z</time>
      </trkpt>
      <trkpt lat="46.96166" lon="15.48319">
        <ele>362.985293</ele>
        <time>2022-09-26T09:26:12.419Z</time>
      </trkpt>
      <trkpt lat="46.96171" lon="15.48305">
        <ele>362.945591</ele>
        <time>2022-09-26T09:26:14.442Z</time>
      </trkpt>
      <trkpt lat="46.96176" lon="15.48293">
        <ele>362.9085</ele>
        <time>2022-09-26T09:26:16.424Z</time>
      </trkpt>
      <trkpt lat="46.96181" lon="15.48281">
        <ele>362.866014</ele>
        <time>2022-09-26T09:26:18.440Z</time>
      </trkpt>
      <trkpt lat="46.96186" lon="15.48269">
        <ele>362.681221</ele>
        <time>2022-09-26T09:26:20.435Z</time>
      </trkpt>
      <trkpt lat="46.96191" lon="15.48258">
        <ele>362.502109</ele>
        <time>2022-09-26T09:26:22.436Z</time>
      </trkpt>
      <trkpt lat="46.96195" lon="15.48247">
        <ele>362.321764</ele>
        <time>2022-09-26T09:26:24.460Z</time>
      </trkpt>
      <trkpt lat="46.96201" lon="15.48236">
        <ele>362.132143</ele>
        <time>2022-09-26T09:26:26.428Z</time>
      </trkpt>
      <trkpt lat="46.96207" lon="15.48225">
        <ele>361.945114</ele>
        <time>2022-09-26T09:26:28.425Z</time>
      </trkpt>
      <trkpt lat="46.96214" lon="15.48214">
        <ele>361.751167</ele>
        <time>2022-09-26T09:26:30.444Z</time>
      </trkpt>
      <trkpt lat="46.96221" lon="15.48204">
        <ele>361.562731</ele>
        <time>2022-09-26T09:26:32.424Z</time>
      </trkpt>
      <trkpt lat="46.96231" lon="15.48191">
        <ele>361.306791</ele>
        <time>2022-09-26T09:26:35.426Z</time>
      </trkpt>
      <trkpt lat="46.96238" lon="15.48184">
        <ele>361.126279</ele>
        <time>2022-09-26T09:26:37.427Z</time>
      </trkpt>
      <trkpt lat="46.96246" lon="15.48177">
        <ele>360.949348</ele>
        <time>2022-09-26T09:26:39.421Z</time>
      </trkpt>
      <trkpt lat="46.96257" lon="15.48167">
        <ele>360.686102</ele>
        <time>2022-09-26T09:26:42.486Z</time>
      </trkpt>
      <trkpt lat="46.96269" lon="15.48158">
        <ele>360.426587</ele>
        <time>2022-09-26T09:26:45.431Z</time>
      </trkpt>
      <trkpt lat="46.96281" lon="15.4815">
        <ele>360.165812</ele>
        <time>2022-09-26T09:26:48.447Z</time>
      </trkpt>
      <trkpt lat="46.9629" lon="15.48145">
        <ele>359.980304</ele>
        <time>2022-09-26T09:26:50.417Z</time>
      </trkpt>
      <trkpt lat="46.96299" lon="15.4814">
        <ele>359.785176</ele>
        <time>2022-09-26T09:26:52.460Z</time>
      </trkpt>
      <trkpt lat="46.96308" lon="15.48135">
        <ele>359.602468</ele>
        <time>2022-09-26T09:26:54.431Z</time>
      </trkpt>
      <trkpt lat="46.96317" lon="15.48131">
        <ele>359.416901</ele>
        <time>2022-09-26T09:26:56.439Z</time>
      </trkpt>
      <trkpt lat="46.96326" lon="15.48127">
        <ele>359.446537</ele>
        <time>2022-09-26T09:26:58.426Z</time>
      </trkpt>
      <trkpt lat="46.96335" lon="15.48122">
        <ele>359.601672</ele>
        <time>2022-09-26T09:27:00.492Z</time>
      </trkpt>
      <trkpt lat="46.96344" lon="15.48117">
        <ele>359.756425</ele>
        <time>2022-09-26T09:27:02.423Z</time>
      </trkpt>
      <trkpt lat="46.96356" lon="15.48111">
        <ele>359.967626</ele>
        <time>2022-09-26T09:27:05.419Z</time>
      </trkpt>
      <trkpt lat="46.96367" lon="15.48106">
        <ele>360.147886</ele>
        <time>2022-09-26T09:27:08.418Z</time>
      </trkpt>
      <trkpt lat="46.96374" lon="15.48121">
        <ele>360.361828</ele>
        <time>2022-09-26T09:27:12.418Z</time>
      </trkpt>
      <trkpt lat="46.96374" lon="15.48136">
        <ele>360.520429</ele>
        <time>2022-09-26T09:27:15.394Z</time>
      </trkpt>
      <trkpt lat="46.96376" lon="15.48155">
        <ele>360.735824</ele>
        <time>2022-09-26T09:27:18.443Z</time>
      </trkpt>
      <trkpt lat="46.96377" lon="15.48169">
        <ele>360.892672</ele>
        <time>2022-09-26T09:27:20.455Z</time>
      </trkpt>
      <trkpt lat="46.9638" lon="15.48182">
        <ele>361.051966</ele>
        <time>2022-09-26T09:27:22.451Z</time>
      </trkpt>
      <trkpt lat="46.96383" lon="15.48196">
        <ele>361.217058</ele>
        <time>2022-09-26T09:27:24.422Z</time>
      </trkpt>
      <trkpt lat="46.96389" lon="15.48209">
        <ele>361.390497</ele>
        <time>2022-09-26T09:27:26.422Z</time>
      </trkpt>
      <trkpt lat="46.96397" lon="15.4822">
        <ele>361.566818</ele>
        <time>2022-09-26T09:27:28.427Z</time>
      </trkpt>
      <trkpt lat="46.96405" lon="15.4823">
        <ele>361.742324</ele>
        <time>2022-09-26T09:27:30.489Z</time>
      </trkpt>
      <trkpt lat="46.96414" lon="15.48238">
        <ele>361.913518</ele>
        <time>2022-09-26T09:27:32.557Z</time>
      </trkpt>
      <trkpt lat="46.96423" lon="15.48245">
        <ele>362.074684</ele>
        <time>2022-09-26T09:27:34.424Z</time>
      </trkpt>
      <trkpt lat="46.96431" lon="15.48252">
        <ele>362.228539</ele>
        <time>2022-09-26T09:27:36.507Z</time>
      </trkpt>
      <trkpt lat="46.96442" lon="15.48259">
        <ele>362.293919</ele>
        <time>2022-09-26T09:27:39.431Z</time>
      </trkpt>
      <trkpt lat="46.9645" lon="15.48267">
        <ele>362.296337</ele>
        <time>2022-09-26T09:27:43.437Z</time>
      </trkpt>
      <trkpt lat="46.9646" lon="15.48276">
        <ele>362.299432</ele>
        <time>2022-09-26T09:27:47.465Z</time>
      </trkpt>
      <trkpt lat="46.9647" lon="15.48279">
        <ele>362.302125</ele>
        <time>2022-09-26T09:27:50.435Z</time>
      </trkpt>
      <trkpt lat="46.96483" lon="15.48274">
        <ele>362.305575</ele>
        <time>2022-09-26T09:27:53.423Z</time>
      </trkpt>
      <trkpt lat="46.96492" lon="15.48269">
        <ele>362.307903</ele>
        <time>2022-09-26T09:27:55.426Z</time>
      </trkpt>
      <trkpt lat="46.96503" lon="15.48263">
        <ele>362.31117</ele>
        <time>2022-09-26T09:27:58.408Z</time>
      </trkpt>
      <trkpt lat="46.96514" lon="15.48255">
        <ele>362.314264</ele>
        <time>2022-09-26T09:28:01.443Z</time>
      </trkpt>
      <trkpt lat="46.96526" lon="15.48247">
        <ele>362.317539</ele>
        <time>2022-09-26T09:28:04.435Z</time>
      </trkpt>
      <trkpt lat="46.96536" lon="15.4824">
        <ele>362.320509</ele>
        <time>2022-09-26T09:28:07.433Z</time>
      </trkpt>
      <trkpt lat="46.96547" lon="15.48235">
        <ele>362.323473</ele>
        <time>2022-09-26T09:28:10.441Z</time>
      </trkpt>
      <trkpt lat="46.96556" lon="15.48233">
        <ele>362.325823</ele>
        <time>2022-09-26T09:28:13.421Z</time>
      </trkpt>
      <trkpt lat="46.96568" lon="15.48228">
        <ele>362.32918</ele>
        <time>2022-09-26T09:28:16.430Z</time>
      </trkpt>
      <trkpt lat="46.96577" lon="15.48223">
        <ele>362.331691</ele>
        <time>2022-09-26T09:28:18.506Z</time>
      </trkpt>
      <trkpt lat="46.96587" lon="15.48218">
        <ele>362.334482</ele>
        <time>2022-09-26T09:28:20.432Z</time>
      </trkpt>
      <trkpt lat="46.96596" lon="15.48214">
        <ele>362.336879</ele>
        <time>2022-09-26T09:28:22.430Z</time>
      </trkpt>
      <trkpt lat="46.96608" lon="15.48209">
        <ele>362.27757</ele>
        <time>2022-09-26T09:28:25.422Z</time>
      </trkpt>
      <trkpt lat="46.96617" lon="15.48205">
        <ele>362.192262</ele>
        <time>2022-09-26T09:28:27.439Z</time>
      </trkpt>
      <trkpt lat="46.96629" lon="15.48201">
        <ele>362.075785</ele>
        <time>2022-09-26T09:28:30.437Z</time>
      </trkpt>
      <trkpt lat="46.96641" lon="15.48197">
        <ele>361.958721</ele>
        <time>2022-09-26T09:28:33.442Z</time>
      </trkpt>
      <trkpt lat="46.96653" lon="15.48192">
        <ele>361.833022</ele>
        <time>2022-09-26T09:28:36.409Z</time>
      </trkpt>
      <trkpt lat="46.96662" lon="15.48188">
        <ele>361.745902</ele>
        <time>2022-09-26T09:28:38.434Z</time>
      </trkpt>
      <trkpt lat="46.96675" lon="15.48182">
        <ele>361.621318</ele>
        <time>2022-09-26T09:28:41.446Z</time>
      </trkpt>
      <trkpt lat="46.96687" lon="15.48179">
        <ele>361.500344</ele>
        <time>2022-09-26T09:28:44.429Z</time>
      </trkpt>
      <trkpt lat="46.967" lon="15.48175">
        <ele>361.379053</ele>
        <time>2022-09-26T09:28:47.469Z</time>
      </trkpt>
      <trkpt lat="46.96713" lon="15.48174">
        <ele>361.25282</ele>
        <time>2022-09-26T09:28:50.436Z</time>
      </trkpt>
      <trkpt lat="46.96726" lon="15.48174">
        <ele>361.12772</ele>
        <time>2022-09-26T09:28:53.532Z</time>
      </trkpt>
      <trkpt lat="46.9674" lon="15.48174">
        <ele>360.99979</ele>
        <time>2022-09-26T09:28:56.410Z</time>
      </trkpt>
      <trkpt lat="46.96753" lon="15.48174">
        <ele>360.874699</ele>
        <time>2022-09-26T09:28:59.430Z</time>
      </trkpt>
      <trkpt lat="46.96766" lon="15.48173">
        <ele>360.747638</ele>
        <time>2022-09-26T09:29:02.430Z</time>
      </trkpt>
      <trkpt lat="46.9678" lon="15.48172">
        <ele>360.636</ele>
        <time>2022-09-26T09:29:05.421Z</time>
      </trkpt>
      <trkpt lat="46.96793" lon="15.48171">
        <ele>360.658102</ele>
        <time>2022-09-26T09:29:08.427Z</time>
      </trkpt>
      <trkpt lat="46.96802" lon="15.4817">
        <ele>360.672971</ele>
        <time>2022-09-26T09:29:10.424Z</time>
      </trkpt>
      <trkpt lat="46.96811" lon="15.48168">
        <ele>360.687944</ele>
        <time>2022-09-26T09:29:12.428Z</time>
      </trkpt>
      <trkpt lat="46.9682" lon="15.48166">
        <ele>360.703146</ele>
        <time>2022-09-26T09:29:14.439Z</time>
      </trkpt>
      <trkpt lat="46.96829" lon="15.48164">
        <ele>360.718205</ele>
        <time>2022-09-26T09:29:16.425Z</time>
      </trkpt>
      <trkpt lat="46.96838" lon="15.48161">
        <ele>360.73337</ele>
        <time>2022-09-26T09:29:18.444Z</time>
      </trkpt>
      <trkpt lat="46.96847" lon="15.48159">
        <ele>360.748491</ele>
        <time>2022-09-26T09:29:20.438Z</time>
      </trkpt>
      <trkpt lat="46.96856" lon="15.48156">
        <ele>360.763311</ele>
        <time>2022-09-26T09:29:22.426Z</time>
      </trkpt>
      <trkpt lat="46.96865" lon="15.48154">
        <ele>360.778788</ele>
        <time>2022-09-26T09:29:24.436Z</time>
      </trkpt>
      <trkpt lat="46.96874" lon="15.48152">
        <ele>360.794087</ele>
        <time>2022-09-26T09:29:26.421Z</time>
      </trkpt>
      <trkpt lat="46.96884" lon="15.48151">
        <ele>360.809182</ele>
        <time>2022-09-26T09:29:28.438Z</time>
      </trkpt>
      <trkpt lat="46.96892" lon="15.48149">
        <ele>360.823948</ele>
        <time>2022-09-26T09:29:30.484Z</time>
      </trkpt>
      <trkpt lat="46.96901" lon="15.48147">
        <ele>360.83897</ele>
        <time>2022-09-26T09:29:32.433Z</time>
      </trkpt>
      <trkpt lat="46.96915" lon="15.48145">
        <ele>360.860833</ele>
        <time>2022-09-26T09:29:35.438Z</time>
      </trkpt>
      <trkpt lat="46.96928" lon="15.48143">
        <ele>360.883058</ele>
        <time>2022-09-26T09:29:38.465Z</time>
      </trkpt>
      <trkpt lat="46.96941" lon="15.48141">
        <ele>360.904418</ele>
        <time>2022-09-26T09:29:41.454Z</time>
      </trkpt>
      <trkpt lat="46.96954" lon="15.4814">
        <ele>360.926397</ele>
        <time>2022-09-26T09:29:44.426Z</time>
      </trkpt>
      <trkpt lat="46.96968" lon="15.48138">
        <ele>361.072732</ele>
        <time>2022-09-26T09:29:47.447Z</time>
      </trkpt>
      <trkpt lat="46.96977" lon="15.48136">
        <ele>361.190731</ele>
        <time>2022-09-26T09:29:49.438Z</time>
      </trkpt>
      <trkpt lat="46.96986" lon="15.48134">
        <ele>361.304966</ele>
        <time>2022-09-26T09:29:51.440Z</time>
      </trkpt>
      <trkpt lat="46.96998" lon="15.48129">
        <ele>361.465671</ele>
        <time>2022-09-26T09:29:54.433Z</time>
      </trkpt>
      <trkpt lat="46.97008" lon="15.4812">
        <ele>361.620026</ele>
        <time>2022-09-26T09:29:57.430Z</time>
      </trkpt>
      <trkpt lat="46.97017" lon="15.48107">
        <ele>361.775488</ele>
        <time>2022-09-26T09:30:00.443Z</time>
      </trkpt>
      <trkpt lat="46.97022" lon="15.48096">
        <ele>361.890974</ele>
        <time>2022-09-26T09:30:02.491Z</time>
      </trkpt>
      <trkpt lat="46.97028" lon="15.48084">
        <ele>362.017212</ele>
        <time>2022-09-26T09:30:04.461Z</time>
      </trkpt>
      <trkpt lat="46.97033" lon="15.48072">
        <ele>362.139155</ele>
        <time>2022-09-26T09:30:06.429Z</time>
      </trkpt>
      <trkpt lat="46.97038" lon="15.48061">
        <ele>362.257523</ele>
        <time>2022-09-26T09:30:08.438Z</time>
      </trkpt>
      <trkpt lat="46.97044" lon="15.48043">
        <ele>362.42588</ele>
        <time>2022-09-26T09:30:11.434Z</time>
      </trkpt>
      <trkpt lat="46.97047" lon="15.48024">
        <ele>362.59677</ele>
        <time>2022-09-26T09:30:14.466Z</time>
      </trkpt>
      <trkpt lat="46.9705" lon="15.48011">
        <ele>362.718748</ele>
        <time>2022-09-26T09:30:16.418Z</time>
      </trkpt>
      <trkpt lat="46.97052" lon="15.47996">
        <ele>362.848766</ele>
        <time>2022-09-26T09:30:18.418Z</time>
      </trkpt>
      <trkpt lat="46.97056" lon="15.47983">
        <ele>362.97477</ele>
        <time>2022-09-26T09:30:20.436Z</time>
      </trkpt>
      <trkpt lat="46.97062" lon="15.47972">
        <ele>363.09666</ele>
        <time>2022-09-26T09:30:22.409Z</time>
      </trkpt>
      <trkpt lat="46.97071" lon="15.47966">
        <ele>363.218486</ele>
        <time>2022-09-26T09:30:24.463Z</time>
      </trkpt>
      <trkpt lat="46.97081" lon="15.47964">
        <ele>363.160558</ele>
        <time>2022-09-26T09:30:26.417Z</time>
      </trkpt>
      <trkpt lat="46.9709" lon="15.47966">
        <ele>363.105421</ele>
        <time>2022-09-26T09:30:28.430Z</time>
      </trkpt>
      <trkpt lat="46.97102" lon="15.47968">
        <ele>363.030842</ele>
        <time>2022-09-26T09:30:31.435Z</time>
      </trkpt>
      <trkpt lat="46.97113" lon="15.47966">
        <ele>362.970411</ele>
        <time>2022-09-26T09:30:34.442Z</time>
      </trkpt>
      <trkpt lat="46.97121" lon="15.4796">
        <ele>362.912607</ele>
        <time>2022-09-26T09:30:37.426Z</time>
      </trkpt>
      <trkpt lat="46.97128" lon="15.47951">
        <ele>362.859303</ele>
        <time>2022-09-26T09:30:39.427Z</time>
      </trkpt>
      <trkpt lat="46.97134" lon="15.47941">
        <ele>362.804153</ele>
        <time>2022-09-26T09:30:41.430Z</time>
      </trkpt>
      <trkpt lat="46.97143" lon="15.47929">
        <ele>362.730844</ele>
        <time>2022-09-26T09:30:44.441Z</time>
      </trkpt>
      <trkpt lat="46.97155" lon="15.47924">
        <ele>362.659201</ele>
        <time>2022-09-26T09:30:47.400Z</time>
      </trkpt>
      <trkpt lat="46.97167" lon="15.47923">
        <ele>362.586152</ele>
        <time>2022-09-26T09:30:50.435Z</time>
      </trkpt>
      <trkpt lat="46.9718" lon="15.47919">
        <ele>362.510046</ele>
        <time>2022-09-26T09:30:53.461Z</time>
      </trkpt>
      <trkpt lat="46.97192" lon="15.47912">
        <ele>362.433397</ele>
        <time>2022-09-26T09:30:56.412Z</time>
      </trkpt>
      <trkpt lat="46.97204" lon="15.47905">
        <ele>362.355896</ele>
        <time>2022-09-26T09:30:59.456Z</time>
      </trkpt>
      <trkpt lat="46.97215" lon="15.47897">
        <ele>362.282227</ele>
        <time>2022-09-26T09:31:02.431Z</time>
      </trkpt>
      <trkpt lat="46.97222" lon="15.47885">
        <ele>362.218298</ele>
        <time>2022-09-26T09:31:05.432Z</time>
      </trkpt>
      <trkpt lat="46.97224" lon="15.4787">
        <ele>362.154502</ele>
        <time>2022-09-26T09:31:07.436Z</time>
      </trkpt>
      <trkpt lat="46.97222" lon="15.47855">
        <ele>362.134328</ele>
        <time>2022-09-26T09:31:09.429Z</time>
      </trkpt>
      <trkpt lat="46.9722" lon="15.47838">
        <ele>362.111276</ele>
        <time>2022-09-26T09:31:12.415Z</time>
      </trkpt>
      <trkpt lat="46.97222" lon="15.47822">
        <ele>362.091159</ele>
        <time>2022-09-26T09:31:15.447Z</time>
      </trkpt>
      <trkpt lat="46.97233" lon="15.47812">
        <ele>362.066143</ele>
        <time>2022-09-26T09:31:18.423Z</time>
      </trkpt>
      <trkpt lat="46.97245" lon="15.47805">
        <ele>362.043154</ele>
        <time>2022-09-26T09:31:21.428Z</time>
      </trkpt>
      <trkpt lat="46.97256" lon="15.47798">
        <ele>362.020319</ele>
        <time>2022-09-26T09:31:24.432Z</time>
      </trkpt>
      <trkpt lat="46.97267" lon="15.47792">
        <ele>361.998607</ele>
        <time>2022-09-26T09:31:27.434Z</time>
      </trkpt>
      <trkpt lat="46.97278" lon="15.47783">
        <ele>361.975514</ele>
        <time>2022-09-26T09:31:30.440Z</time>
      </trkpt>
      <trkpt lat="46.97289" lon="15.47775">
        <ele>361.952802</ele>
        <time>2022-09-26T09:31:33.426Z</time>
      </trkpt>
      <trkpt lat="46.97301" lon="15.47767">
        <ele>361.928601</ele>
        <time>2022-09-26T09:31:36.419Z</time>
      </trkpt>
      <trkpt lat="46.97313" lon="15.47758">
        <ele>361.904012</ele>
        <time>2022-09-26T09:31:39.417Z</time>
      </trkpt>
      <trkpt lat="46.97324" lon="15.47751">
        <ele>361.881023</ele>
        <time>2022-09-26T09:31:42.426Z</time>
      </trkpt>
      <trkpt lat="46.97336" lon="15.47744">
        <ele>361.857107</ele>
        <time>2022-09-26T09:31:45.439Z</time>
      </trkpt>
      <trkpt lat="46.97349" lon="15.47736">
        <ele>361.832546</ele>
        <time>2022-09-26T09:31:48.488Z</time>
      </trkpt>
      <trkpt lat="46.97361" lon="15.47729">
        <ele>361.84353</ele>
        <time>2022-09-26T09:31:51.496Z</time>
      </trkpt>
      <trkpt lat="46.97373" lon="15.4772">
        <ele>361.897099</ele>
        <time>2022-09-26T09:31:54.427Z</time>
      </trkpt>
      <trkpt lat="46.97381" lon="15.47714">
        <ele>361.933617</ele>
        <time>2022-09-26T09:31:56.422Z</time>
      </trkpt>
      <trkpt lat="46.97388" lon="15.47705">
        <ele>361.970997</ele>
        <time>2022-09-26T09:31:58.439Z</time>
      </trkpt>
      <trkpt lat="46.97395" lon="15.47695">
        <ele>362.00887</ele>
        <time>2022-09-26T09:32:00.436Z</time>
      </trkpt>
      <trkpt lat="46.97401" lon="15.47685">
        <ele>362.045232</ele>
        <time>2022-09-26T09:32:02.431Z</time>
      </trkpt>
      <trkpt lat="46.97411" lon="15.47672">
        <ele>362.098378</ele>
        <time>2022-09-26T09:32:05.448Z</time>
      </trkpt>
      <trkpt lat="46.9742" lon="15.4766">
        <ele>362.148779</ele>
        <time>2022-09-26T09:32:08.429Z</time>
      </trkpt>
      <trkpt lat="46.9743" lon="15.47648">
        <ele>362.200819</ele>
        <time>2022-09-26T09:32:11.463Z</time>
      </trkpt>
      <trkpt lat="46.9744" lon="15.47637">
        <ele>362.249873</ele>
        <time>2022-09-26T09:32:14.456Z</time>
      </trkpt>
      <trkpt lat="46.97448" lon="15.47626">
        <ele>362.294349</ele>
        <time>2022-09-26T09:32:17.438Z</time>
      </trkpt>
      <trkpt lat="46.97456" lon="15.47615">
        <ele>362.337471</ele>
        <time>2022-09-26T09:32:20.432Z</time>
      </trkpt>
      <trkpt lat="46.97465" lon="15.47606">
        <ele>362.381702</ele>
        <time>2022-09-26T09:32:23.432Z</time>
      </trkpt>
      <trkpt lat="46.97477" lon="15.47602">
        <ele>362.429715</ele>
        <time>2022-09-26T09:32:26.520Z</time>
      </trkpt>
      <trkpt lat="46.9749" lon="15.47602">
        <ele>362.484134</ele>
        <time>2022-09-26T09:32:29.448Z</time>
      </trkpt>
      <trkpt lat="46.97499" lon="15.47601">
        <ele>362.52117</ele>
        <time>2022-09-26T09:32:31.426Z</time>
      </trkpt>
      <trkpt lat="46.97509" lon="15.47597">
        <ele>362.612831</ele>
        <time>2022-09-26T09:32:33.448Z</time>
      </trkpt>
      <trkpt lat="46.97518" lon="15.47593">
        <ele>362.743542</ele>
        <time>2022-09-26T09:32:35.450Z</time>
      </trkpt>
      <trkpt lat="46.97527" lon="15.4758">
        <ele>362.924387</ele>
        <time>2022-09-26T09:32:38.445Z</time>
      </trkpt>
      <trkpt lat="46.97533" lon="15.47563">
        <ele>363.109304</ele>
        <time>2022-09-26T09:32:41.452Z</time>
      </trkpt>
      <trkpt lat="46.97534" lon="15.4755">
        <ele>363.238672</ele>
        <time>2022-09-26T09:32:43.463Z</time>
      </trkpt>
      <trkpt lat="46.97534" lon="15.47536">
        <ele>363.372775</ele>
        <time>2022-09-26T09:32:45.446Z</time>
      </trkpt>
      <trkpt lat="46.97534" lon="15.47522">
        <ele>363.507806</ele>
        <time>2022-09-26T09:32:47.437Z</time>
      </trkpt>
      <trkpt lat="46.97535" lon="15.47509">
        <ele>363.635081</ele>
        <time>2022-09-26T09:32:49.468Z</time>
      </trkpt>
      <trkpt lat="46.97536" lon="15.47489">
        <ele>363.82461</ele>
        <time>2022-09-26T09:32:52.434Z</time>
      </trkpt>
      <trkpt lat="46.97538" lon="15.4747">
        <ele>364.004768</ele>
        <time>2022-09-26T09:32:55.430Z</time>
      </trkpt>
      <trkpt lat="46.97539" lon="15.47452">
        <ele>364.180957</ele>
        <time>2022-09-26T09:32:58.438Z</time>
      </trkpt>
      <trkpt lat="46.9754" lon="15.47433">
        <ele>364.365791</ele>
        <time>2022-09-26T09:33:01.431Z</time>
      </trkpt>
      <trkpt lat="46.97541" lon="15.4742">
        <ele>364.492901</ele>
        <time>2022-09-26T09:33:03.429Z</time>
      </trkpt>
      <trkpt lat="46.97543" lon="15.47406">
        <ele>364.62649</ele>
        <time>2022-09-26T09:33:05.426Z</time>
      </trkpt>
      <trkpt lat="46.97552" lon="15.47395">
        <ele>364.79757</ele>
        <time>2022-09-26T09:33:08.433Z</time>
      </trkpt>
      <trkpt lat="46.97563" lon="15.47389">
        <ele>364.966771</ele>
        <time>2022-09-26T09:33:11.434Z</time>
      </trkpt>
      <trkpt lat="46.97574" lon="15.47381">
        <ele>365.044858</ele>
        <time>2022-09-26T09:33:14.439Z</time>
      </trkpt>
      <trkpt lat="46.97586" lon="15.47374">
        <ele>364.939455</ele>
        <time>2022-09-26T09:33:17.432Z</time>
      </trkpt>
      <trkpt lat="46.97597" lon="15.47367">
        <ele>364.8356</ele>
        <time>2022-09-26T09:33:20.428Z</time>
      </trkpt>
      <trkpt lat="46.97609" lon="15.4736">
        <ele>364.727307</ele>
        <time>2022-09-26T09:33:23.445Z</time>
      </trkpt>
      <trkpt lat="46.9762" lon="15.47353">
        <ele>364.62807</ele>
        <time>2022-09-26T09:33:26.405Z</time>
      </trkpt>
      <trkpt lat="46.9763" lon="15.47346">
        <ele>364.531774</ele>
        <time>2022-09-26T09:33:29.431Z</time>
      </trkpt>
      <trkpt lat="46.97641" lon="15.47339">
        <ele>364.427455</ele>
        <time>2022-09-26T09:33:32.443Z</time>
      </trkpt>
      <trkpt lat="46.97653" lon="15.4733">
        <ele>364.322187</ele>
        <time>2022-09-26T09:33:35.424Z</time>
      </trkpt>
      <trkpt lat="46.97664" lon="15.47322">
        <ele>364.215655</ele>
        <time>2022-09-26T09:33:38.442Z</time>
      </trkpt>
      <trkpt lat="46.97676" lon="15.47314">
        <ele>364.106345</ele>
        <time>2022-09-26T09:33:41.437Z</time>
      </trkpt>
      <trkpt lat="46.97687" lon="15.47306">
        <ele>363.997768</ele>
        <time>2022-09-26T09:33:44.450Z</time>
      </trkpt>
      <trkpt lat="46.97699" lon="15.47298">
        <ele>363.889957</ele>
        <time>2022-09-26T09:33:47.457Z</time>
      </trkpt>
      <trkpt lat="46.97711" lon="15.47291">
        <ele>363.785001</ele>
        <time>2022-09-26T09:33:50.423Z</time>
      </trkpt>
      <trkpt lat="46.97719" lon="15.47286">
        <ele>363.709514</ele>
        <time>2022-09-26T09:33:52.443Z</time>
      </trkpt>
      <trkpt lat="46.97727" lon="15.47281">
        <ele>363.631102</ele>
        <time>2022-09-26T09:33:54.440Z</time>
      </trkpt>
      <trkpt lat="46.97736" lon="15.47275">
        <ele>363.579599</ele>
        <time>2022-09-26T09:33:56.441Z</time>
      </trkpt>
      <trkpt lat="46.97745" lon="15.4727">
        <ele>363.657106</ele>
        <time>2022-09-26T09:33:58.437Z</time>
      </trkpt>
      <trkpt lat="46.97753" lon="15.47264">
        <ele>363.734379</ele>
        <time>2022-09-26T09:34:00.438Z</time>
      </trkpt>
      <trkpt lat="46.97765" lon="15.47256">
        <ele>363.845669</ele>
        <time>2022-09-26T09:34:03.432Z</time>
      </trkpt>
      <trkpt lat="46.97777" lon="15.47248">
        <ele>363.953302</ele>
        <time>2022-09-26T09:34:06.414Z</time>
      </trkpt>
      <trkpt lat="46.97789" lon="15.47242">
        <ele>364.054519</ele>
        <time>2022-09-26T09:34:09.418Z</time>
      </trkpt>
      <trkpt lat="46.978" lon="15.47237">
        <ele>364.154309</ele>
        <time>2022-09-26T09:34:12.428Z</time>
      </trkpt>
      <trkpt lat="46.97812" lon="15.47231">
        <ele>364.256542</ele>
        <time>2022-09-26T09:34:15.436Z</time>
      </trkpt>
      <trkpt lat="46.97824" lon="15.47225">
        <ele>364.361858</ele>
        <time>2022-09-26T09:34:18.427Z</time>
      </trkpt>
      <trkpt lat="46.97837" lon="15.4722">
        <ele>364.47246</ele>
        <time>2022-09-26T09:34:21.469Z</time>
      </trkpt>
      <trkpt lat="46.97849" lon="15.47214">
        <ele>364.577232</ele>
        <time>2022-09-26T09:34:24.419Z</time>
      </trkpt>
      <trkpt lat="46.9786" lon="15.47208">
        <ele>364.679031</ele>
        <time>2022-09-26T09:34:27.438Z</time>
      </trkpt>
      <trkpt lat="46.97872" lon="15.47202">
        <ele>364.780299</ele>
        <time>2022-09-26T09:34:30.418Z</time>
      </trkpt>
      <trkpt lat="46.97883" lon="15.47196">
        <ele>364.879175</ele>
        <time>2022-09-26T09:34:33.422Z</time>
      </trkpt>
      <trkpt lat="46.97895" lon="15.4719">
        <ele>364.981173</ele>
        <time>2022-09-26T09:34:36.424Z</time>
      </trkpt>
      <trkpt lat="46.97907" lon="15.47183">
        <ele>365.044772</ele>
        <time>2022-09-26T09:34:39.439Z</time>
      </trkpt>
      <trkpt lat="46.97919" lon="15.47177">
        <ele>365.005853</ele>
        <time>2022-09-26T09:34:42.434Z</time>
      </trkpt>
      <trkpt lat="46.97931" lon="15.4717">
        <ele>364.967284</ele>
        <time>2022-09-26T09:34:45.459Z</time>
      </trkpt>
      <trkpt lat="46.97943" lon="15.47164">
        <ele>364.929351</ele>
        <time>2022-09-26T09:34:48.451Z</time>
      </trkpt>
      <trkpt lat="46.97954" lon="15.47158">
        <ele>364.892822</ele>
        <time>2022-09-26T09:34:51.424Z</time>
      </trkpt>
      <trkpt lat="46.97966" lon="15.47153">
        <ele>364.85544</ele>
        <time>2022-09-26T09:34:54.446Z</time>
      </trkpt>
      <trkpt lat="46.97978" lon="15.47146">
        <ele>364.817637</ele>
        <time>2022-09-26T09:34:57.440Z</time>
      </trkpt>
      <trkpt lat="46.9799" lon="15.47143">
        <ele>364.781287</ele>
        <time>2022-09-26T09:35:00.438Z</time>
      </trkpt>
      <trkpt lat="46.98" lon="15.47154">
        <ele>364.743493</ele>
        <time>2022-09-26T09:35:03.440Z</time>
      </trkpt>
      <trkpt lat="46.98008" lon="15.4717">
        <ele>364.704518</ele>
        <time>2022-09-26T09:35:06.500Z</time>
      </trkpt>
      <trkpt lat="46.98013" lon="15.47181">
        <ele>364.677081</ele>
        <time>2022-09-26T09:35:08.444Z</time>
      </trkpt>
      <trkpt lat="46.98016" lon="15.47193">
        <ele>364.650075</ele>
        <time>2022-09-26T09:35:10.437Z</time>
      </trkpt>
      <trkpt lat="46.98019" lon="15.47212">
        <ele>364.610494</ele>
        <time>2022-09-26T09:35:13.444Z</time>
      </trkpt>
      <trkpt lat="46.98025" lon="15.47228">
        <ele>364.573506</ele>
        <time>2022-09-26T09:35:16.432Z</time>
      </trkpt>
      <trkpt lat="46.98037" lon="15.47227">
        <ele>364.538956</ele>
        <time>2022-09-26T09:35:19.455Z</time>
      </trkpt>
      <trkpt lat="46.98045" lon="15.47223">
        <ele>364.507455</ele>
        <time>2022-09-26T09:35:21.439Z</time>
      </trkpt>
      <trkpt lat="46.98058" lon="15.47215">
        <ele>364.444114</ele>
        <time>2022-09-26T09:35:24.427Z</time>
      </trkpt>
      <trkpt lat="46.9807" lon="15.47208">
        <ele>364.38009</ele>
        <time>2022-09-26T09:35:27.433Z</time>
      </trkpt>
      <trkpt lat="46.98079" lon="15.47203">
        <ele>364.335484</ele>
        <time>2022-09-26T09:35:29.482Z</time>
      </trkpt>
      <trkpt lat="46.98088" lon="15.47199">
        <ele>364.291178</ele>
        <time>2022-09-26T09:35:31.433Z</time>
      </trkpt>
      <trkpt lat="46.98097" lon="15.47195">
        <ele>364.245965</ele>
        <time>2022-09-26T09:35:33.429Z</time>
      </trkpt>
      <trkpt lat="46.9811" lon="15.47189">
        <ele>364.183698</ele>
        <time>2022-09-26T09:35:36.427Z</time>
      </trkpt>
      <trkpt lat="46.98121" lon="15.47184">
        <ele>364.125363</ele>
        <time>2022-09-26T09:35:39.435Z</time>
      </trkpt>
      <trkpt lat="46.98131" lon="15.47181">
        <ele>364.079843</ele>
        <time>2022-09-26T09:35:42.429Z</time>
      </trkpt>
      <trkpt lat="46.98142" lon="15.4718">
        <ele>364.026162</ele>
        <time>2022-09-26T09:35:45.440Z</time>
      </trkpt>
      <trkpt lat="46.98153" lon="15.47181">
        <ele>363.975222</ele>
        <time>2022-09-26T09:35:48.432Z</time>
      </trkpt>
      <trkpt lat="46.98164" lon="15.47184">
        <ele>363.9186</ele>
        <time>2022-09-26T09:35:51.456Z</time>
      </trkpt>
      <trkpt lat="46.98176" lon="15.47185">
        <ele>363.861565</ele>
        <time>2022-09-26T09:35:54.442Z</time>
      </trkpt>
      <trkpt lat="46.98188" lon="15.4719">
        <ele>363.803861</ele>
        <time>2022-09-26T09:35:57.469Z</time>
      </trkpt>
      <trkpt lat="46.982" lon="15.47197">
        <ele>363.742101</ele>
        <time>2022-09-26T09:36:00.444Z</time>
      </trkpt>
      <trkpt lat="46.98209" lon="15.47201">
        <ele>363.696792</ele>
        <time>2022-09-26T09:36:02.439Z</time>
      </trkpt>
      <trkpt lat="46.98219" lon="15.47205">
        <ele>363.710275</ele>
        <time>2022-09-26T09:36:04.438Z</time>
      </trkpt>
      <trkpt lat="46.98229" lon="15.47207">
        <ele>363.89358</ele>
        <time>2022-09-26T09:36:06.442Z</time>
      </trkpt>
      <trkpt lat="46.98239" lon="15.47207">
        <ele>364.068966</ele>
        <time>2022-09-26T09:36:08.459Z</time>
      </trkpt>
      <trkpt lat="46.98253" lon="15.47205">
        <ele>364.316501</ele>
        <time>2022-09-26T09:36:11.435Z</time>
      </trkpt>
      <trkpt lat="46.98266" lon="15.47202">
        <ele>364.549505</ele>
        <time>2022-09-26T09:36:14.424Z</time>
      </trkpt>
      <trkpt lat="46.98275" lon="15.472">
        <ele>364.709111</ele>
        <time>2022-09-26T09:36:16.432Z</time>
      </trkpt>
      <trkpt lat="46.98284" lon="15.47198">
        <ele>364.873005</ele>
        <time>2022-09-26T09:36:18.433Z</time>
      </trkpt>
      <trkpt lat="46.98297" lon="15.47196">
        <ele>365.104315</ele>
        <time>2022-09-26T09:36:21.406Z</time>
      </trkpt>
      <trkpt lat="46.98309" lon="15.47198">
        <ele>365.316127</ele>
        <time>2022-09-26T09:36:24.414Z</time>
      </trkpt>
      <trkpt lat="46.98322" lon="15.47202">
        <ele>365.55801</ele>
        <time>2022-09-26T09:36:27.429Z</time>
      </trkpt>
      <trkpt lat="46.98333" lon="15.47202">
        <ele>365.747472</ele>
        <time>2022-09-26T09:36:29.432Z</time>
      </trkpt>
      <trkpt lat="46.98342" lon="15.47199">
        <ele>365.916336</ele>
        <time>2022-09-26T09:36:31.424Z</time>
      </trkpt>
      <trkpt lat="46.98351" lon="15.47195">
        <ele>366.078893</ele>
        <time>2022-09-26T09:36:33.419Z</time>
      </trkpt>
      <trkpt lat="46.9836" lon="15.47191">
        <ele>366.241665</ele>
        <time>2022-09-26T09:36:36.415Z</time>
      </trkpt>
      <trkpt lat="46.98373" lon="15.47192">
        <ele>366.474409</ele>
        <time>2022-09-26T09:36:40.478Z</time>
      </trkpt>
      <trkpt lat="46.98383" lon="15.47194">
        <ele>366.650754</ele>
        <time>2022-09-26T09:36:42.462Z</time>
      </trkpt>
      <trkpt lat="46.98399" lon="15.47196">
        <ele>366.937658</ele>
        <time>2022-09-26T09:36:45.458Z</time>
      </trkpt>
      <trkpt lat="46.98409" lon="15.47193">
        <ele>367.109328</ele>
        <time>2022-09-26T09:36:47.418Z</time>
      </trkpt>
      <trkpt lat="46.98419" lon="15.47183">
        <ele>367.327626</ele>
        <time>2022-09-26T09:36:50.431Z</time>
      </trkpt>
      <trkpt lat="46.98427" lon="15.47167">
        <ele>367.561444</ele>
        <time>2022-09-26T09:36:53.431Z</time>
      </trkpt>
      <trkpt lat="46.98432" lon="15.47156">
        <ele>367.726041</ele>
        <time>2022-09-26T09:36:55.435Z</time>
      </trkpt>
      <trkpt lat="46.98437" lon="15.47143">
        <ele>367.903982</ele>
        <time>2022-09-26T09:36:57.431Z</time>
      </trkpt>
      <trkpt lat="46.98442" lon="15.47131">
        <ele>368.078186</ele>
        <time>2022-09-26T09:36:59.430Z</time>
      </trkpt>
      <trkpt lat="46.98451" lon="15.47119">
        <ele>368.281675</ele>
        <time>2022-09-26T09:37:02.460Z</time>
      </trkpt>
      <trkpt lat="46.98458" lon="15.47108">
        <ele>368.457208</ele>
        <time>2022-09-26T09:37:05.419Z</time>
      </trkpt>
      <trkpt lat="46.98464" lon="15.47095">
        <ele>368.649345</ele>
        <time>2022-09-26T09:37:08.434Z</time>
      </trkpt>
      <trkpt lat="46.98471" lon="15.47081">
        <ele>368.854219</ele>
        <time>2022-09-26T09:37:11.439Z</time>
      </trkpt>
      <trkpt lat="46.98478" lon="15.47071">
        <ele>369.034709</ele>
        <time>2022-09-26T09:37:13.461Z</time>
      </trkpt>
      <trkpt lat="46.98485" lon="15.47062">
        <ele>369.195699</ele>
        <time>2022-09-26T09:37:15.419Z</time>
      </trkpt>
      <trkpt lat="46.98496" lon="15.47051">
        <ele>369.421657</ele>
        <time>2022-09-26T09:37:18.440Z</time>
      </trkpt>
      <trkpt lat="46.98506" lon="15.4704">
        <ele>369.646358</ele>
        <time>2022-09-26T09:37:21.459Z</time>
      </trkpt>
      <trkpt lat="46.98516" lon="15.4703">
        <ele>369.862664</ele>
        <time>2022-09-26T09:37:24.464Z</time>
      </trkpt>
      <trkpt lat="46.98527" lon="15.47021">
        <ele>369.989227</ele>
        <time>2022-09-26T09:37:27.434Z</time>
      </trkpt>
      <trkpt lat="46.98537" lon="15.47014">
        <ele>369.94435</ele>
        <time>2022-09-26T09:37:30.430Z</time>
      </trkpt>
      <trkpt lat="46.98548" lon="15.47009">
        <ele>369.896963</ele>
        <time>2022-09-26T09:37:33.432Z</time>
      </trkpt>
      <trkpt lat="46.98562" lon="15.47007">
        <ele>369.844418</ele>
        <time>2022-09-26T09:37:36.423Z</time>
      </trkpt>
      <trkpt lat="46.98571" lon="15.47006">
        <ele>369.808298</ele>
        <time>2022-09-26T09:37:38.442Z</time>
      </trkpt>
      <trkpt lat="46.9858" lon="15.47005">
        <ele>369.772324</ele>
        <time>2022-09-26T09:37:40.446Z</time>
      </trkpt>
      <trkpt lat="46.98589" lon="15.47003">
        <ele>369.736012</ele>
        <time>2022-09-26T09:37:42.421Z</time>
      </trkpt>
      <trkpt lat="46.98601" lon="15.47002">
        <ele>369.686979</ele>
        <time>2022-09-26T09:37:45.428Z</time>
      </trkpt>
      <trkpt lat="46.98614" lon="15.47001">
        <ele>369.637433</ele>
        <time>2022-09-26T09:37:48.426Z</time>
      </trkpt>
      <trkpt lat="46.98627" lon="15.47001">
        <ele>369.586466</ele>
        <time>2022-09-26T09:37:51.427Z</time>
      </trkpt>
      <trkpt lat="46.9864" lon="15.46999">
        <ele>369.53422</ele>
        <time>2022-09-26T09:37:54.435Z</time>
      </trkpt>
      <trkpt lat="46.98653" lon="15.46998">
        <ele>369.482635</ele>
        <time>2022-09-26T09:37:57.421Z</time>
      </trkpt>
      <trkpt lat="46.98662" lon="15.46994">
        <ele>369.445851</ele>
        <time>2022-09-26T09:37:59.428Z</time>
      </trkpt>
      <trkpt lat="46.98671" lon="15.4699">
        <ele>369.410126</ele>
        <time>2022-09-26T09:38:01.418Z</time>
      </trkpt>
      <trkpt lat="46.98682" lon="15.46983">
        <ele>369.362065</ele>
        <time>2022-09-26T09:38:04.448Z</time>
      </trkpt>
      <trkpt lat="46.98692" lon="15.46976">
        <ele>369.315631</ele>
        <time>2022-09-26T09:38:07.428Z</time>
      </trkpt>
      <trkpt lat="46.98704" lon="15.46969">
        <ele>369.327151</ele>
        <time>2022-09-26T09:38:10.429Z</time>
      </trkpt>
      <trkpt lat="46.98716" lon="15.46961">
        <ele>369.386717</ele>
        <time>2022-09-26T09:38:13.429Z</time>
      </trkpt>
      <trkpt lat="46.98728" lon="15.46954">
        <ele>369.443361</ele>
        <time>2022-09-26T09:38:16.415Z</time>
      </trkpt>
      <trkpt lat="46.98738" lon="15.46945">
        <ele>369.497276</ele>
        <time>2022-09-26T09:38:19.424Z</time>
      </trkpt>
      <trkpt lat="46.98748" lon="15.46934">
        <ele>369.554654</ele>
        <time>2022-09-26T09:38:22.436Z</time>
      </trkpt>
      <trkpt lat="46.98758" lon="15.46923">
        <ele>369.609544</ele>
        <time>2022-09-26T09:38:25.421Z</time>
      </trkpt>
      <trkpt lat="46.98768" lon="15.46913">
        <ele>369.664794</ele>
        <time>2022-09-26T09:38:28.432Z</time>
      </trkpt>
      <trkpt lat="46.98779" lon="15.46904">
        <ele>369.721467</ele>
        <time>2022-09-26T09:38:31.426Z</time>
      </trkpt>
      <trkpt lat="46.98791" lon="15.46897">
        <ele>369.779284</ele>
        <time>2022-09-26T09:38:34.419Z</time>
      </trkpt>
      <trkpt lat="46.98803" lon="15.4689">
        <ele>369.837631</ele>
        <time>2022-09-26T09:38:37.416Z</time>
      </trkpt>
      <trkpt lat="46.98812" lon="15.46885">
        <ele>369.879755</ele>
        <time>2022-09-26T09:38:39.407Z</time>
      </trkpt>
      <trkpt lat="46.9882" lon="15.4688">
        <ele>369.920768</ele>
        <time>2022-09-26T09:38:41.491Z</time>
      </trkpt>
      <trkpt lat="46.98833" lon="15.46873">
        <ele>369.980334</ele>
        <time>2022-09-26T09:38:44.427Z</time>
      </trkpt>
      <trkpt lat="46.98844" lon="15.46864">
        <ele>370.038452</ele>
        <time>2022-09-26T09:38:47.438Z</time>
      </trkpt>
      <trkpt lat="46.98852" lon="15.46858">
        <ele>370.08009</ele>
        <time>2022-09-26T09:38:49.425Z</time>
      </trkpt>
      <trkpt lat="46.9886" lon="15.4685">
        <ele>370.014722</ele>
        <time>2022-09-26T09:38:51.416Z</time>
      </trkpt>
      <trkpt lat="46.98867" lon="15.46842">
        <ele>369.791729</ele>
        <time>2022-09-26T09:38:53.436Z</time>
      </trkpt>
      <trkpt lat="46.98874" lon="15.46833">
        <ele>369.57103</ele>
        <time>2022-09-26T09:38:55.431Z</time>
      </trkpt>
      <trkpt lat="46.98881" lon="15.46825">
        <ele>369.351072</ele>
        <time>2022-09-26T09:38:57.413Z</time>
      </trkpt>
      <trkpt lat="46.9889" lon="15.46811">
        <ele>369.03658</ele>
        <time>2022-09-26T09:39:00.423Z</time>
      </trkpt>
      <trkpt lat="46.98899" lon="15.46797">
        <ele>368.713514</ele>
        <time>2022-09-26T09:39:03.504Z</time>
      </trkpt>
      <trkpt lat="46.98907" lon="15.46782">
        <ele>368.398835</ele>
        <time>2022-09-26T09:39:06.428Z</time>
      </trkpt>
      <trkpt lat="46.98914" lon="15.46766">
        <ele>368.081707</ele>
        <time>2022-09-26T09:39:09.427Z</time>
      </trkpt>
      <trkpt lat="46.98919" lon="15.46755">
        <ele>367.858692</ele>
        <time>2022-09-26T09:39:11.429Z</time>
      </trkpt>
      <trkpt lat="46.98924" lon="15.46743">
        <ele>367.632848</ele>
        <time>2022-09-26T09:39:13.427Z</time>
      </trkpt>
      <trkpt lat="46.98929" lon="15.46731">
        <ele>367.407779</ele>
        <time>2022-09-26T09:39:15.420Z</time>
      </trkpt>
      <trkpt lat="46.98935" lon="15.46715">
        <ele>367.094398</ele>
        <time>2022-09-26T09:39:18.410Z</time>
      </trkpt>
      <trkpt lat="46.98942" lon="15.46698">
        <ele>366.768892</ele>
        <time>2022-09-26T09:39:21.416Z</time>
      </trkpt>
      <trkpt lat="46.98949" lon="15.46682">
        <ele>366.455142</ele>
        <time>2022-09-26T09:39:24.524Z</time>
      </trkpt>
      <trkpt lat="46.98955" lon="15.46666">
        <ele>366.154281</ele>
        <time>2022-09-26T09:39:27.418Z</time>
      </trkpt>
      <trkpt lat="46.9896" lon="15.46651">
        <ele>365.87408</ele>
        <time>2022-09-26T09:39:30.414Z</time>
      </trkpt>
      <trkpt lat="46.98965" lon="15.46635">
        <ele>365.649689</ele>
        <time>2022-09-26T09:39:33.416Z</time>
      </trkpt>
      <trkpt lat="46.9897" lon="15.4662">
        <ele>365.486468</ele>
        <time>2022-09-26T09:39:36.424Z</time>
      </trkpt>
      <trkpt lat="46.98978" lon="15.46608">
        <ele>365.311617</ele>
        <time>2022-09-26T09:39:39.418Z</time>
      </trkpt>
      <trkpt lat="46.98985" lon="15.46599">
        <ele>365.176098</ele>
        <time>2022-09-26T09:39:41.536Z</time>
      </trkpt>
      <trkpt lat="46.98992" lon="15.46589">
        <ele>365.033909</ele>
        <time>2022-09-26T09:39:43.429Z</time>
      </trkpt>
      <trkpt lat="46.98998" lon="15.46579">
        <ele>364.900082</ele>
        <time>2022-09-26T09:39:45.417Z</time>
      </trkpt>
      <trkpt lat="46.99004" lon="15.46569">
        <ele>364.763332</ele>
        <time>2022-09-26T09:39:47.451Z</time>
      </trkpt>
      <trkpt lat="46.99011" lon="15.46559">
        <ele>364.624106</ele>
        <time>2022-09-26T09:39:49.427Z</time>
      </trkpt>
      <trkpt lat="46.99017" lon="15.46549">
        <ele>364.486066</ele>
        <time>2022-09-26T09:39:51.421Z</time>
      </trkpt>
      <trkpt lat="46.99024" lon="15.46539">
        <ele>364.347386</ele>
        <time>2022-09-26T09:39:53.432Z</time>
      </trkpt>
      <trkpt lat="46.9903" lon="15.4653">
        <ele>364.210807</ele>
        <time>2022-09-26T09:39:55.433Z</time>
      </trkpt>
      <trkpt lat="46.99037" lon="15.46521">
        <ele>364.075002</ele>
        <time>2022-09-26T09:39:57.462Z</time>
      </trkpt>
      <trkpt lat="46.99044" lon="15.46512">
        <ele>363.935595</ele>
        <time>2022-09-26T09:39:59.434Z</time>
      </trkpt>
      <trkpt lat="46.99054" lon="15.46498">
        <ele>363.741068</ele>
        <time>2022-09-26T09:40:02.443Z</time>
      </trkpt>
      <trkpt lat="46.99062" lon="15.46483">
        <ele>363.54073</ele>
        <time>2022-09-26T09:40:05.430Z</time>
      </trkpt>
      <trkpt lat="46.99067" lon="15.46471">
        <ele>363.404626</ele>
        <time>2022-09-26T09:40:07.423Z</time>
      </trkpt>
      <trkpt lat="46.99073" lon="15.4646">
        <ele>363.264161</ele>
        <time>2022-09-26T09:40:09.425Z</time>
      </trkpt>
      <trkpt lat="46.99079" lon="15.4645">
        <ele>363.127131</ele>
        <time>2022-09-26T09:40:11.432Z</time>
      </trkpt>
      <trkpt lat="46.99086" lon="15.46441">
        <ele>363.313828</ele>
        <time>2022-09-26T09:40:13.418Z</time>
      </trkpt>
      <trkpt lat="46.99095" lon="15.46431">
        <ele>363.654707</ele>
        <time>2022-09-26T09:40:15.419Z</time>
      </trkpt>
      <trkpt lat="46.99105" lon="15.46424">
        <ele>363.996625</ele>
        <time>2022-09-26T09:40:17.427Z</time>
      </trkpt>
      <trkpt lat="46.99115" lon="15.46419">
        <ele>364.338687</ele>
        <time>2022-09-26T09:40:19.464Z</time>
      </trkpt>
      <trkpt lat="46.99125" lon="15.46414">
        <ele>364.666</ele>
        <time>2022-09-26T09:40:21.435Z</time>
      </trkpt>
      <trkpt lat="46.99134" lon="15.46407">
        <ele>364.990162</ele>
        <time>2022-09-26T09:40:23.431Z</time>
      </trkpt>
      <trkpt lat="46.99143" lon="15.46399">
        <ele>365.29317</ele>
        <time>2022-09-26T09:40:25.419Z</time>
      </trkpt>
      <trkpt lat="46.99151" lon="15.46393">
        <ele>365.586685</ele>
        <time>2022-09-26T09:40:27.433Z</time>
      </trkpt>
      <trkpt lat="46.99159" lon="15.46387">
        <ele>365.873696</ele>
        <time>2022-09-26T09:40:29.436Z</time>
      </trkpt>
      <trkpt lat="46.99167" lon="15.4638">
        <ele>366.160513</ele>
        <time>2022-09-26T09:40:31.437Z</time>
      </trkpt>
      <trkpt lat="46.99179" lon="15.46372">
        <ele>366.55788</ele>
        <time>2022-09-26T09:40:34.437Z</time>
      </trkpt>
      <trkpt lat="46.99188" lon="15.46361">
        <ele>366.942866</ele>
        <time>2022-09-26T09:40:37.446Z</time>
      </trkpt>
      <trkpt lat="46.99199" lon="15.4635">
        <ele>367.34708</ele>
        <time>2022-09-26T09:40:40.420Z</time>
      </trkpt>
      <trkpt lat="46.99207" lon="15.46342">
        <ele>367.631463</ele>
        <time>2022-09-26T09:40:42.434Z</time>
      </trkpt>
      <trkpt lat="46.99218" lon="15.46333">
        <ele>368.038303</ele>
        <time>2022-09-26T09:40:45.444Z</time>
      </trkpt>
      <trkpt lat="46.99229" lon="15.46325">
        <ele>368.428349</ele>
        <time>2022-09-26T09:40:48.432Z</time>
      </trkpt>
      <trkpt lat="46.99242" lon="15.4632">
        <ele>368.733676</ele>
        <time>2022-09-26T09:40:51.448Z</time>
      </trkpt>
      <trkpt lat="46.99255" lon="15.46315">
        <ele>368.818317</ele>
        <time>2022-09-26T09:40:54.430Z</time>
      </trkpt>
      <trkpt lat="46.99268" lon="15.46311">
        <ele>368.901763</ele>
        <time>2022-09-26T09:40:57.436Z</time>
      </trkpt>
      <trkpt lat="46.99281" lon="15.46311">
        <ele>368.983978</ele>
        <time>2022-09-26T09:41:00.437Z</time>
      </trkpt>
      <trkpt lat="46.99294" lon="15.46312">
        <ele>369.069408</ele>
        <time>2022-09-26T09:41:03.466Z</time>
      </trkpt>
      <trkpt lat="46.99303" lon="15.46311">
        <ele>369.126819</ele>
        <time>2022-09-26T09:41:05.428Z</time>
      </trkpt>
      <trkpt lat="46.99313" lon="15.46309">
        <ele>369.188177</ele>
        <time>2022-09-26T09:41:07.433Z</time>
      </trkpt>
      <trkpt lat="46.99322" lon="15.46305">
        <ele>369.248532</ele>
        <time>2022-09-26T09:41:09.443Z</time>
      </trkpt>
      <trkpt lat="46.99331" lon="15.46301">
        <ele>369.307781</ele>
        <time>2022-09-26T09:41:11.438Z</time>
      </trkpt>
      <trkpt lat="46.9934" lon="15.46296">
        <ele>369.367767</ele>
        <time>2022-09-26T09:41:13.431Z</time>
      </trkpt>
      <trkpt lat="46.99348" lon="15.46291">
        <ele>369.427752</ele>
        <time>2022-09-26T09:41:15.443Z</time>
      </trkpt>
      <trkpt lat="46.99357" lon="15.46286">
        <ele>369.485975</ele>
        <time>2022-09-26T09:41:17.434Z</time>
      </trkpt>
      <trkpt lat="46.99365" lon="15.46279">
        <ele>369.544406</ele>
        <time>2022-09-26T09:41:19.448Z</time>
      </trkpt>
      <trkpt lat="46.99373" lon="15.46272">
        <ele>369.602783</ele>
        <time>2022-09-26T09:41:21.451Z</time>
      </trkpt>
      <trkpt lat="46.99382" lon="15.46258">
        <ele>369.687281</ele>
        <time>2022-09-26T09:41:24.427Z</time>
      </trkpt>
      <trkpt lat="46.99386" lon="15.46245">
        <ele>369.751774</ele>
        <time>2022-09-26T09:41:26.429Z</time>
      </trkpt>
      <trkpt lat="46.9939" lon="15.46231">
        <ele>369.817844</ele>
        <time>2022-09-26T09:41:28.435Z</time>
      </trkpt>
      <trkpt lat="46.99393" lon="15.46216">
        <ele>369.783662</ele>
        <time>2022-09-26T09:41:30.439Z</time>
      </trkpt>
      <trkpt lat="46.99395" lon="15.46201">
        <ele>369.660454</ele>
        <time>2022-09-26T09:41:32.427Z</time>
      </trkpt>
      <trkpt lat="46.99396" lon="15.46187">
        <ele>369.545438</ele>
        <time>2022-09-26T09:41:34.432Z</time>
      </trkpt>
      <trkpt lat="46.99396" lon="15.46174">
        <ele>369.434073</ele>
        <time>2022-09-26T09:41:36.424Z</time>
      </trkpt>
      <trkpt lat="46.99396" lon="15.4616">
        <ele>369.325183</ele>
        <time>2022-09-26T09:41:38.470Z</time>
      </trkpt>
      <trkpt lat="46.99395" lon="15.46147">
        <ele>369.214636</ele>
        <time>2022-09-26T09:41:40.434Z</time>
      </trkpt>
      <trkpt lat="46.99396" lon="15.46133">
        <ele>369.104109</ele>
        <time>2022-09-26T09:41:42.435Z</time>
      </trkpt>
      <trkpt lat="46.99396" lon="15.4612">
        <ele>368.995718</ele>
        <time>2022-09-26T09:41:44.433Z</time>
      </trkpt>
      <trkpt lat="46.99399" lon="15.46102">
        <ele>368.841635</ele>
        <time>2022-09-26T09:41:47.437Z</time>
      </trkpt>
      <trkpt lat="46.99405" lon="15.46084">
        <ele>368.680163</ele>
        <time>2022-09-26T09:41:50.424Z</time>
      </trkpt>
      <trkpt lat="46.9941" lon="15.46072">
        <ele>368.565839</ele>
        <time>2022-09-26T09:41:52.462Z</time>
      </trkpt>
      <trkpt lat="46.99415" lon="15.46061">
        <ele>368.454913</ele>
        <time>2022-09-26T09:41:54.442Z</time>
      </trkpt>
      <trkpt lat="46.9942" lon="15.4605">
        <ele>368.343995</ele>
        <time>2022-09-26T09:41:56.424Z</time>
      </trkpt>
      <trkpt lat="46.99425" lon="15.46038">
        <ele>368.231596</ele>
        <time>2022-09-26T09:41:58.426Z</time>
      </trkpt>
      <trkpt lat="46.9943" lon="15.46026">
        <ele>368.115075</ele>
        <time>2022-09-26T09:42:00.432Z</time>
      </trkpt>
      <trkpt lat="46.99436" lon="15.46015">
        <ele>368.003457</ele>
        <time>2022-09-26T09:42:02.429Z</time>
      </trkpt>
      <trkpt lat="46.99442" lon="15.46004">
        <ele>367.888788</ele>
        <time>2022-09-26T09:42:04.427Z</time>
      </trkpt>
      <trkpt lat="46.99448" lon="15.45993">
        <ele>367.777274</ele>
        <time>2022-09-26T09:42:06.433Z</time>
      </trkpt>
      <trkpt lat="46.99454" lon="15.45983">
        <ele>367.694182</ele>
        <time>2022-09-26T09:42:08.437Z</time>
      </trkpt>
      <trkpt lat="46.9946" lon="15.45973">
        <ele>367.705411</ele>
        <time>2022-09-26T09:42:10.428Z</time>
      </trkpt>
      <trkpt lat="46.99465" lon="15.45962">
        <ele>367.716618</ele>
        <time>2022-09-26T09:42:12.435Z</time>
      </trkpt>
      <trkpt lat="46.9947" lon="15.4595">
        <ele>367.728153</ele>
        <time>2022-09-26T09:42:14.441Z</time>
      </trkpt>
      <trkpt lat="46.99474" lon="15.45937">
        <ele>367.739851</ele>
        <time>2022-09-26T09:42:16.419Z</time>
      </trkpt>
      <trkpt lat="46.99476" lon="15.45923">
        <ele>367.751914</ele>
        <time>2022-09-26T09:42:18.435Z</time>
      </trkpt>
      <trkpt lat="46.99477" lon="15.45909">
        <ele>367.763834</ele>
        <time>2022-09-26T09:42:20.442Z</time>
      </trkpt>
      <trkpt lat="46.99476" lon="15.45895">
        <ele>367.775302</ele>
        <time>2022-09-26T09:42:22.463Z</time>
      </trkpt>
      <trkpt lat="46.99476" lon="15.45876">
        <ele>367.791534</ele>
        <time>2022-09-26T09:42:25.428Z</time>
      </trkpt>
      <trkpt lat="46.99478" lon="15.45857">
        <ele>367.807581</ele>
        <time>2022-09-26T09:42:28.478Z</time>
      </trkpt>
      <trkpt lat="46.99481" lon="15.45838">
        <ele>367.82405</ele>
        <time>2022-09-26T09:42:31.443Z</time>
      </trkpt>
      <trkpt lat="46.99485" lon="15.45825">
        <ele>367.835483</ele>
        <time>2022-09-26T09:42:33.424Z</time>
      </trkpt>
      <trkpt lat="46.99489" lon="15.45813">
        <ele>367.846831</ele>
        <time>2022-09-26T09:42:35.419Z</time>
      </trkpt>
      <trkpt lat="46.99494" lon="15.45802">
        <ele>367.858091</ele>
        <time>2022-09-26T09:42:37.437Z</time>
      </trkpt>
      <trkpt lat="46.99501" lon="15.45793">
        <ele>367.869252</ele>
        <time>2022-09-26T09:42:39.487Z</time>
      </trkpt>
      <trkpt lat="46.99511" lon="15.45784">
        <ele>367.884235</ele>
        <time>2022-09-26T09:42:42.443Z</time>
      </trkpt>
      <trkpt lat="46.9952" lon="15.45779">
        <ele>367.895356</ele>
        <time>2022-09-26T09:42:44.456Z</time>
      </trkpt>
      <trkpt lat="46.99528" lon="15.45773">
        <ele>367.906596</ele>
        <time>2022-09-26T09:42:46.416Z</time>
      </trkpt>
      <trkpt lat="46.99537" lon="15.45767">
        <ele>367.985666</ele>
        <time>2022-09-26T09:42:48.432Z</time>
      </trkpt>
      <trkpt lat="46.99545" lon="15.45761">
        <ele>368.110923</ele>
        <time>2022-09-26T09:42:50.452Z</time>
      </trkpt>
      <trkpt lat="46.99554" lon="15.45755">
        <ele>368.242317</ele>
        <time>2022-09-26T09:42:52.459Z</time>
      </trkpt>
      <trkpt lat="46.99563" lon="15.45749">
        <ele>368.377382</ele>
        <time>2022-09-26T09:42:54.436Z</time>
      </trkpt>
      <trkpt lat="46.99571" lon="15.45743">
        <ele>368.500988</ele>
        <time>2022-09-26T09:42:56.419Z</time>
      </trkpt>
      <trkpt lat="46.99583" lon="15.45735">
        <ele>368.682772</ele>
        <time>2022-09-26T09:42:59.435Z</time>
      </trkpt>
      <trkpt lat="46.99595" lon="15.45727">
        <ele>368.859285</ele>
        <time>2022-09-26T09:43:02.470Z</time>
      </trkpt>
      <trkpt lat="46.99603" lon="15.45721">
        <ele>368.991079</ele>
        <time>2022-09-26T09:43:04.439Z</time>
      </trkpt>
      <trkpt lat="46.99612" lon="15.45715">
        <ele>369.126964</ele>
        <time>2022-09-26T09:43:06.423Z</time>
      </trkpt>
      <trkpt lat="46.99621" lon="15.45708">
        <ele>369.259008</ele>
        <time>2022-09-26T09:43:08.423Z</time>
      </trkpt>
      <trkpt lat="46.99629" lon="15.45699">
        <ele>369.396251</ele>
        <time>2022-09-26T09:43:10.424Z</time>
      </trkpt>
      <trkpt lat="46.99637" lon="15.4569">
        <ele>369.534627</ele>
        <time>2022-09-26T09:43:12.462Z</time>
      </trkpt>
      <trkpt lat="46.99644" lon="15.45681">
        <ele>369.667405</ele>
        <time>2022-09-26T09:43:14.439Z</time>
      </trkpt>
      <trkpt lat="46.99652" lon="15.45671">
        <ele>369.80244</ele>
        <time>2022-09-26T09:43:16.426Z</time>
      </trkpt>
      <trkpt lat="46.99658" lon="15.45662">
        <ele>369.931797</ele>
        <time>2022-09-26T09:43:18.422Z</time>
      </trkpt>
      <trkpt lat="46.99665" lon="15.45653">
        <ele>370.055417</ele>
        <time>2022-09-26T09:43:20.432Z</time>
      </trkpt>
      <trkpt lat="46.99672" lon="15.45644">
        <ele>370.181012</ele>
        <time>2022-09-26T09:43:22.487Z</time>
      </trkpt>
      <trkpt lat="46.99682" lon="15.45632">
        <ele>370.361815</ele>
        <time>2022-09-26T09:43:25.433Z</time>
      </trkpt>
      <trkpt lat="46.99691" lon="15.45621">
        <ele>370.824731</ele>
        <time>2022-09-26T09:43:28.443Z</time>
      </trkpt>
      <trkpt lat="46.99698" lon="15.45613">
        <ele>371.235627</ele>
        <time>2022-09-26T09:43:31.413Z</time>
      </trkpt>
      <trkpt lat="46.99708" lon="15.45605">
        <ele>371.716596</ele>
        <time>2022-09-26T09:43:35.432Z</time>
      </trkpt>
      <trkpt lat="46.99717" lon="15.456">
        <ele>372.138722</ele>
        <time>2022-09-26T09:43:38.442Z</time>
      </trkpt>
      <trkpt lat="46.99727" lon="15.45596">
        <ele>372.61126</ele>
        <time>2022-09-26T09:43:41.428Z</time>
      </trkpt>
      <trkpt lat="46.99739" lon="15.45591">
        <ele>373.139321</ele>
        <time>2022-09-26T09:43:44.435Z</time>
      </trkpt>
      <trkpt lat="46.99751" lon="15.45587">
        <ele>373.714205</ele>
        <time>2022-09-26T09:43:47.424Z</time>
      </trkpt>
      <trkpt lat="46.9976" lon="15.45583">
        <ele>374.10927</ele>
        <time>2022-09-26T09:43:49.435Z</time>
      </trkpt>
      <trkpt lat="46.99769" lon="15.45579">
        <ele>374.513525</ele>
        <time>2022-09-26T09:43:51.434Z</time>
      </trkpt>
      <trkpt lat="46.99778" lon="15.45575">
        <ele>374.941998</ele>
        <time>2022-09-26T09:43:53.449Z</time>
      </trkpt>
      <trkpt lat="46.99786" lon="15.45568">
        <ele>375.353476</ele>
        <time>2022-09-26T09:43:55.440Z</time>
      </trkpt>
      <trkpt lat="46.99795" lon="15.45562">
        <ele>375.778012</ele>
        <time>2022-09-26T09:43:57.437Z</time>
      </trkpt>
      <trkpt lat="46.99804" lon="15.45555">
        <ele>376.199839</ele>
        <time>2022-09-26T09:43:59.426Z</time>
      </trkpt>
      <trkpt lat="46.99812" lon="15.4555">
        <ele>376.607237</ele>
        <time>2022-09-26T09:44:01.449Z</time>
      </trkpt>
      <trkpt lat="46.9982" lon="15.45544">
        <ele>377.00415</ele>
        <time>2022-09-26T09:44:03.435Z</time>
      </trkpt>
      <trkpt lat="46.99828" lon="15.45538">
        <ele>377.407881</ele>
        <time>2022-09-26T09:44:05.438Z</time>
      </trkpt>
      <trkpt lat="46.99837" lon="15.45532">
        <ele>377.812766</ele>
        <time>2022-09-26T09:44:07.444Z</time>
      </trkpt>
      <trkpt lat="46.9985" lon="15.45527">
        <ele>378.178574</ele>
        <time>2022-09-26T09:44:10.529Z</time>
      </trkpt>
      <trkpt lat="46.99863" lon="15.45525">
        <ele>377.852058</ele>
        <time>2022-09-26T09:44:13.453Z</time>
      </trkpt>
      <trkpt lat="46.99872" lon="15.45523">
        <ele>377.617466</ele>
        <time>2022-09-26T09:44:15.431Z</time>
      </trkpt>
      <trkpt lat="46.99881" lon="15.45521">
        <ele>377.391507</ele>
        <time>2022-09-26T09:44:17.436Z</time>
      </trkpt>
      <trkpt lat="46.9989" lon="15.45517">
        <ele>377.162716</ele>
        <time>2022-09-26T09:44:19.434Z</time>
      </trkpt>
      <trkpt lat="46.99898" lon="15.45512">
        <ele>376.929463</ele>
        <time>2022-09-26T09:44:21.436Z</time>
      </trkpt>
      <trkpt lat="46.99911" lon="15.45505">
        <ele>376.596082</ele>
        <time>2022-09-26T09:44:24.432Z</time>
      </trkpt>
      <trkpt lat="46.99924" lon="15.45499">
        <ele>376.257819</ele>
        <time>2022-09-26T09:44:27.437Z</time>
      </trkpt>
      <trkpt lat="46.99937" lon="15.45495">
        <ele>375.923031</ele>
        <time>2022-09-26T09:44:30.431Z</time>
      </trkpt>
      <trkpt lat="46.99945" lon="15.45492">
        <ele>375.69626</ele>
        <time>2022-09-26T09:44:32.457Z</time>
      </trkpt>
      <trkpt lat="46.99954" lon="15.4549">
        <ele>375.467581</ele>
        <time>2022-09-26T09:44:34.449Z</time>
      </trkpt>
      <trkpt lat="46.99963" lon="15.45488">
        <ele>375.238338</ele>
        <time>2022-09-26T09:44:36.407Z</time>
      </trkpt>
      <trkpt lat="46.99976" lon="15.45485">
        <ele>374.909108</ele>
        <time>2022-09-26T09:44:39.428Z</time>
      </trkpt>
      <trkpt lat="46.99989" lon="15.45483">
        <ele>374.599755</ele>
        <time>2022-09-26T09:44:42.515Z</time>
      </trkpt>
      <trkpt lat="47.00001" lon="15.45483">
        <ele>374.293386</ele>
        <time>2022-09-26T09:44:45.427Z</time>
      </trkpt>
      <trkpt lat="47.00008" lon="15.45493">
        <ele>374.042703</ele>
        <time>2022-09-26T09:44:48.430Z</time>
      </trkpt>
      <trkpt lat="47.00013" lon="15.45511">
        <ele>373.742691</ele>
        <time>2022-09-26T09:44:51.468Z</time>
      </trkpt>
      <trkpt lat="47.00018" lon="15.45522">
        <ele>373.692554</ele>
        <time>2022-09-26T09:44:53.472Z</time>
      </trkpt>
      <trkpt lat="47.00023" lon="15.45534">
        <ele>373.638463</ele>
        <time>2022-09-26T09:44:55.464Z</time>
      </trkpt>
      <trkpt lat="47.00035" lon="15.45544">
        <ele>373.565405</ele>
        <time>2022-09-26T09:44:58.425Z</time>
      </trkpt>
      <trkpt lat="47.00048" lon="15.45551">
        <ele>373.485934</ele>
        <time>2022-09-26T09:45:01.427Z</time>
      </trkpt>
      <trkpt lat="47.00056" lon="15.45561">
        <ele>373.431358</ele>
        <time>2022-09-26T09:45:03.467Z</time>
      </trkpt>
      <trkpt lat="47.00062" lon="15.45572">
        <ele>373.379555</ele>
        <time>2022-09-26T09:45:05.434Z</time>
      </trkpt>
      <trkpt lat="47.00073" lon="15.45582">
        <ele>373.30718</ele>
        <time>2022-09-26T09:45:08.437Z</time>
      </trkpt>
      <trkpt lat="47.00085" lon="15.45586">
        <ele>373.235168</ele>
        <time>2022-09-26T09:45:11.426Z</time>
      </trkpt>
      <trkpt lat="47.00095" lon="15.45584">
        <ele>373.183442</ele>
        <time>2022-09-26T09:45:13.440Z</time>
      </trkpt>
      <trkpt lat="47.00104" lon="15.4558">
        <ele>373.132223</ele>
        <time>2022-09-26T09:45:15.440Z</time>
      </trkpt>
      <trkpt lat="47.00115" lon="15.45572">
        <ele>373.060717</ele>
        <time>2022-09-26T09:45:18.437Z</time>
      </trkpt>
      <trkpt lat="47.00127" lon="15.45563">
        <ele>372.986565</ele>
        <time>2022-09-26T09:45:21.416Z</time>
      </trkpt>
      <trkpt lat="47.00135" lon="15.45557">
        <ele>372.935285</ele>
        <time>2022-09-26T09:45:23.429Z</time>
      </trkpt>
      <trkpt lat="47.00143" lon="15.4555">
        <ele>372.885213</ele>
        <time>2022-09-26T09:45:25.438Z</time>
      </trkpt>
      <trkpt lat="47.00155" lon="15.45542">
        <ele>372.813859</ele>
        <time>2022-09-26T09:45:28.444Z</time>
      </trkpt>
      <trkpt lat="47.00167" lon="15.45533">
        <ele>372.735487</ele>
        <time>2022-09-26T09:45:31.438Z</time>
      </trkpt>
      <trkpt lat="47.00179" lon="15.45526">
        <ele>372.642397</ele>
        <time>2022-09-26T09:45:34.439Z</time>
      </trkpt>
      <trkpt lat="47.00187" lon="15.45522">
        <ele>372.577117</ele>
        <time>2022-09-26T09:45:36.423Z</time>
      </trkpt>
      <trkpt lat="47.00196" lon="15.45517">
        <ele>372.509668</ele>
        <time>2022-09-26T09:45:38.459Z</time>
      </trkpt>
      <trkpt lat="47.00205" lon="15.45514">
        <ele>372.441093</ele>
        <time>2022-09-26T09:45:40.441Z</time>
      </trkpt>
      <trkpt lat="47.00215" lon="15.45513">
        <ele>372.37115</ele>
        <time>2022-09-26T09:45:42.420Z</time>
      </trkpt>
      <trkpt lat="47.00229" lon="15.45511">
        <ele>372.274286</ele>
        <time>2022-09-26T09:45:45.431Z</time>
      </trkpt>
      <trkpt lat="47.00241" lon="15.45509">
        <ele>372.183064</ele>
        <time>2022-09-26T09:45:48.438Z</time>
      </trkpt>
      <trkpt lat="47.00253" lon="15.45508">
        <ele>372.094372</ele>
        <time>2022-09-26T09:45:51.444Z</time>
      </trkpt>
      <trkpt lat="47.00266" lon="15.45507">
        <ele>372.004906</ele>
        <time>2022-09-26T09:45:54.418Z</time>
      </trkpt>
      <trkpt lat="47.00278" lon="15.45506">
        <ele>371.91544</ele>
        <time>2022-09-26T09:45:57.440Z</time>
      </trkpt>
      <trkpt lat="47.00291" lon="15.45507">
        <ele>371.82459</ele>
        <time>2022-09-26T09:46:00.439Z</time>
      </trkpt>
      <trkpt lat="47.00304" lon="15.45509">
        <ele>371.731219</ele>
        <time>2022-09-26T09:46:03.444Z</time>
      </trkpt>
      <trkpt lat="47.00316" lon="15.45511">
        <ele>371.63912</ele>
        <time>2022-09-26T09:46:06.427Z</time>
      </trkpt>
      <trkpt lat="47.00329" lon="15.45513">
        <ele>371.547021</ele>
        <time>2022-09-26T09:46:09.436Z</time>
      </trkpt>
      <trkpt lat="47.00342" lon="15.45515">
        <ele>371.473463</ele>
        <time>2022-09-26T09:46:12.489Z</time>
      </trkpt>
      <trkpt lat="47.00356" lon="15.45518">
        <ele>371.587765</ele>
        <time>2022-09-26T09:46:15.438Z</time>
      </trkpt>
      <trkpt lat="47.00365" lon="15.45517">
        <ele>371.668283</ele>
        <time>2022-09-26T09:46:17.431Z</time>
      </trkpt>
      <trkpt lat="47.00374" lon="15.45514">
        <ele>371.748664</ele>
        <time>2022-09-26T09:46:19.430Z</time>
      </trkpt>
      <trkpt lat="47.00385" lon="15.45501">
        <ele>371.862403</ele>
        <time>2022-09-26T09:46:22.431Z</time>
      </trkpt>
      <trkpt lat="47.00384" lon="15.45481">
        <ele>371.978106</ele>
        <time>2022-09-26T09:46:25.436Z</time>
      </trkpt>
      <trkpt lat="47.0038" lon="15.45465">
        <ele>372.073269</ele>
        <time>2022-09-26T09:46:27.428Z</time>
      </trkpt>
      <trkpt lat="47.00376" lon="15.45451">
        <ele>372.160017</ele>
        <time>2022-09-26T09:46:29.466Z</time>
      </trkpt>
      <trkpt lat="47.00373" lon="15.45438">
        <ele>372.242921</ele>
        <time>2022-09-26T09:46:31.438Z</time>
      </trkpt>
      <trkpt lat="47.0037" lon="15.45426">
        <ele>372.320061</ele>
        <time>2022-09-26T09:46:33.438Z</time>
      </trkpt>
      <trkpt lat="47.00366" lon="15.45413">
        <ele>372.396741</ele>
        <time>2022-09-26T09:46:35.423Z</time>
      </trkpt>
      <trkpt lat="47.00363" lon="15.45396">
        <ele>372.502851</ele>
        <time>2022-09-26T09:46:38.427Z</time>
      </trkpt>
      <trkpt lat="47.00369" lon="15.45384">
        <ele>372.590489</ele>
        <time>2022-09-26T09:46:41.429Z</time>
      </trkpt>
      <trkpt lat="47.00382" lon="15.45381">
        <ele>372.700807</ele>
        <time>2022-09-26T09:46:44.439Z</time>
      </trkpt>
      <trkpt lat="47.00395" lon="15.45382">
        <ele>372.810195</ele>
        <time>2022-09-26T09:46:47.428Z</time>
      </trkpt>
      <trkpt lat="47.00406" lon="15.45391">
        <ele>372.918284</ele>
        <time>2022-09-26T09:46:50.434Z</time>
      </trkpt>
      <trkpt lat="47.00417" lon="15.45402">
        <ele>373.098976</ele>
        <time>2022-09-26T09:46:53.439Z</time>
      </trkpt>
      <trkpt lat="47.00424" lon="15.45409">
        <ele>373.302799</ele>
        <time>2022-09-26T09:46:55.440Z</time>
      </trkpt>
      <trkpt lat="47.00432" lon="15.45416">
        <ele>373.503692</ele>
        <time>2022-09-26T09:46:57.439Z</time>
      </trkpt>
      <trkpt lat="47.00443" lon="15.45425">
        <ele>373.771209</ele>
        <time>2022-09-26T09:47:00.436Z</time>
      </trkpt>
      <trkpt lat="47.00454" lon="15.4543">
        <ele>374.038243</ele>
        <time>2022-09-26T09:47:03.446Z</time>
      </trkpt>
      <trkpt lat="47.00466" lon="15.45432">
        <ele>374.303249</ele>
        <time>2022-09-26T09:47:06.419Z</time>
      </trkpt>
      <trkpt lat="47.00478" lon="15.45432">
        <ele>374.577081</ele>
        <time>2022-09-26T09:47:09.466Z</time>
      </trkpt>
      <trkpt lat="47.00491" lon="15.45429">
        <ele>374.858363</ele>
        <time>2022-09-26T09:47:12.421Z</time>
      </trkpt>
      <trkpt lat="47.00504" lon="15.45424">
        <ele>375.154464</ele>
        <time>2022-09-26T09:47:15.448Z</time>
      </trkpt>
      <trkpt lat="47.00512" lon="15.45419">
        <ele>375.358259</ele>
        <time>2022-09-26T09:47:17.430Z</time>
      </trkpt>
      <trkpt lat="47.00524" lon="15.45412">
        <ele>375.646411</ele>
        <time>2022-09-26T09:47:20.424Z</time>
      </trkpt>
      <trkpt lat="47.00536" lon="15.45404">
        <ele>375.940689</ele>
        <time>2022-09-26T09:47:23.432Z</time>
      </trkpt>
      <trkpt lat="47.00545" lon="15.454">
        <ele>376.15389</ele>
        <time>2022-09-26T09:47:25.430Z</time>
      </trkpt>
      <trkpt lat="47.00555" lon="15.45394">
        <ele>376.387494</ele>
        <time>2022-09-26T09:47:27.424Z</time>
      </trkpt>
      <trkpt lat="47.00565" lon="15.45389">
        <ele>376.62372</ele>
        <time>2022-09-26T09:47:29.425Z</time>
      </trkpt>
      <trkpt lat="47.00575" lon="15.45383">
        <ele>376.863572</ele>
        <time>2022-09-26T09:47:31.459Z</time>
      </trkpt>
      <trkpt lat="47.00585" lon="15.45377">
        <ele>376.919232</ele>
        <time>2022-09-26T09:47:33.436Z</time>
      </trkpt>
      <trkpt lat="47.00594" lon="15.45372">
        <ele>376.77209</ele>
        <time>2022-09-26T09:47:35.428Z</time>
      </trkpt>
      <trkpt lat="47.00603" lon="15.45367">
        <ele>376.627724</ele>
        <time>2022-09-26T09:47:37.441Z</time>
      </trkpt>
      <trkpt lat="47.00613" lon="15.45363">
        <ele>376.482639</ele>
        <time>2022-09-26T09:47:39.424Z</time>
      </trkpt>
      <trkpt lat="47.00625" lon="15.45356">
        <ele>376.285645</ele>
        <time>2022-09-26T09:47:42.462Z</time>
      </trkpt>
      <trkpt lat="47.00637" lon="15.45348">
        <ele>376.09675</ele>
        <time>2022-09-26T09:47:45.442Z</time>
      </trkpt>
      <trkpt lat="47.00645" lon="15.45342">
        <ele>375.96422</ele>
        <time>2022-09-26T09:47:47.448Z</time>
      </trkpt>
      <trkpt lat="47.00653" lon="15.45336">
        <ele>375.827735</ele>
        <time>2022-09-26T09:47:49.439Z</time>
      </trkpt>
      <trkpt lat="47.00662" lon="15.4533">
        <ele>375.688117</ele>
        <time>2022-09-26T09:47:51.469Z</time>
      </trkpt>
      <trkpt lat="47.0067" lon="15.45324">
        <ele>375.548961</ele>
        <time>2022-09-26T09:47:53.437Z</time>
      </trkpt>
      <trkpt lat="47.00678" lon="15.45318">
        <ele>375.414683</ele>
        <time>2022-09-26T09:47:55.426Z</time>
      </trkpt>
      <trkpt lat="47.0069" lon="15.4531">
        <ele>375.221182</ele>
        <time>2022-09-26T09:47:58.425Z</time>
      </trkpt>
      <trkpt lat="47.00702" lon="15.45302">
        <ele>375.02607</ele>
        <time>2022-09-26T09:48:01.450Z</time>
      </trkpt>
      <trkpt lat="47.00714" lon="15.45295">
        <ele>374.835425</ele>
        <time>2022-09-26T09:48:04.439Z</time>
      </trkpt>
      <trkpt lat="47.00726" lon="15.45287">
        <ele>374.643987</ele>
        <time>2022-09-26T09:48:07.471Z</time>
      </trkpt>
      <trkpt lat="47.00738" lon="15.45279">
        <ele>374.450957</ele>
        <time>2022-09-26T09:48:10.443Z</time>
      </trkpt>
      <trkpt lat="47.00749" lon="15.45269">
        <ele>374.308789</ele>
        <time>2022-09-26T09:48:13.437Z</time>
      </trkpt>
      <trkpt lat="47.0076" lon="15.45257">
        <ele>374.244238</ele>
        <time>2022-09-26T09:48:16.469Z</time>
      </trkpt>
      <trkpt lat="47.00766" lon="15.45248">
        <ele>374.198578</ele>
        <time>2022-09-26T09:48:18.435Z</time>
      </trkpt>
      <trkpt lat="47.0077" lon="15.4523">
        <ele>374.137259</ele>
        <time>2022-09-26T09:48:21.417Z</time>
      </trkpt>
      <trkpt lat="47.00773" lon="15.45216">
        <ele>374.087201</ele>
        <time>2022-09-26T09:48:24.438Z</time>
      </trkpt>
      <trkpt lat="47.00782" lon="15.45211">
        <ele>374.039696</ele>
        <time>2022-09-26T09:48:28.437Z</time>
      </trkpt>
      <trkpt lat="47.00793" lon="15.45207">
        <ele>373.983432</ele>
        <time>2022-09-26T09:48:32.512Z</time>
      </trkpt>
      <trkpt lat="47.00804" lon="15.45204">
        <ele>373.924899</ele>
        <time>2022-09-26T09:48:35.439Z</time>
      </trkpt>
      <trkpt lat="47.00816" lon="15.452">
        <ele>373.862962</ele>
        <time>2022-09-26T09:48:38.459Z</time>
      </trkpt>
      <trkpt lat="47.00828" lon="15.45196">
        <ele>373.803596</ele>
        <time>2022-09-26T09:48:41.431Z</time>
      </trkpt>
      <trkpt lat="47.0084" lon="15.45195">
        <ele>373.744153</ele>
        <time>2022-09-26T09:48:44.439Z</time>
      </trkpt>
      <trkpt lat="47.00853" lon="15.45195">
        <ele>373.682007</ele>
        <time>2022-09-26T09:48:47.444Z</time>
      </trkpt>
      <trkpt lat="47.00865" lon="15.45196">
        <ele>373.617744</ele>
        <time>2022-09-26T09:48:50.432Z</time>
      </trkpt>
      <trkpt lat="47.00879" lon="15.45198">
        <ele>373.551836</ele>
        <time>2022-09-26T09:48:53.433Z</time>
      </trkpt>
      <trkpt lat="47.00888" lon="15.45202">
        <ele>373.504982</ele>
        <time>2022-09-26T09:48:55.423Z</time>
      </trkpt>
      <trkpt lat="47.00895" lon="15.4521">
        <ele>373.458473</ele>
        <time>2022-09-26T09:48:57.428Z</time>
      </trkpt>
      <trkpt lat="47.00899" lon="15.45224">
        <ele>373.487106</ele>
        <time>2022-09-26T09:48:59.425Z</time>
      </trkpt>
      <trkpt lat="47.00903" lon="15.45239">
        <ele>373.555117</ele>
        <time>2022-09-26T09:49:01.432Z</time>
      </trkpt>
      <trkpt lat="47.00906" lon="15.45254">
        <ele>373.622112</ele>
        <time>2022-09-26T09:49:03.450Z</time>
      </trkpt>
      <trkpt lat="47.0091" lon="15.45268">
        <ele>373.688856</ele>
        <time>2022-09-26T09:49:05.477Z</time>
      </trkpt>
      <trkpt lat="47.00916" lon="15.45281">
        <ele>373.755015</ele>
        <time>2022-09-26T09:49:07.531Z</time>
      </trkpt>
      <trkpt lat="47.00921" lon="15.45293">
        <ele>373.815521</ele>
        <time>2022-09-26T09:49:09.427Z</time>
      </trkpt>
      <trkpt lat="47.00925" lon="15.45305">
        <ele>373.874822</ele>
        <time>2022-09-26T09:49:11.441Z</time>
      </trkpt>
      <trkpt lat="47.00931" lon="15.45323">
        <ele>373.959585</ele>
        <time>2022-09-26T09:49:14.452Z</time>
      </trkpt>
      <trkpt lat="47.00935" lon="15.45339">
        <ele>374.0327</ele>
        <time>2022-09-26T09:49:17.432Z</time>
      </trkpt>
      <trkpt lat="47.00938" lon="15.45355">
        <ele>374.105922</ele>
        <time>2022-09-26T09:49:20.448Z</time>
      </trkpt>
      <trkpt lat="47.00941" lon="15.45373">
        <ele>374.185455</ele>
        <time>2022-09-26T09:49:23.447Z</time>
      </trkpt>
      <trkpt lat="47.00944" lon="15.45386">
        <ele>374.245031</ele>
        <time>2022-09-26T09:49:25.432Z</time>
      </trkpt>
      <trkpt lat="47.00946" lon="15.454">
        <ele>374.30447</ele>
        <time>2022-09-26T09:49:27.425Z</time>
      </trkpt>
      <trkpt lat="47.00947" lon="15.45413">
        <ele>374.363357</ele>
        <time>2022-09-26T09:49:29.436Z</time>
      </trkpt>
      <trkpt lat="47.0095" lon="15.45432">
        <ele>374.447127</ele>
        <time>2022-09-26T09:49:32.438Z</time>
      </trkpt>
      <trkpt lat="47.00953" lon="15.45452">
        <ele>374.532998</ele>
        <time>2022-09-26T09:49:35.436Z</time>
      </trkpt>
      <trkpt lat="47.00956" lon="15.45465">
        <ele>374.596466</ele>
        <time>2022-09-26T09:49:37.432Z</time>
      </trkpt>
      <trkpt lat="47.00965" lon="15.45476">
        <ele>374.705226</ele>
        <time>2022-09-26T09:49:40.442Z</time>
      </trkpt>
      <trkpt lat="47.00977" lon="15.45474">
        <ele>374.823652</ele>
        <time>2022-09-26T09:49:43.427Z</time>
      </trkpt>
      <trkpt lat="47.0099" lon="15.45472">
        <ele>374.945231</ele>
        <time>2022-09-26T09:49:46.435Z</time>
      </trkpt>
      <trkpt lat="47.01003" lon="15.45472">
        <ele>375.06694</ele>
        <time>2022-09-26T09:49:49.443Z</time>
      </trkpt>
      <trkpt lat="47.01016" lon="15.4547">
        <ele>375.184337</ele>
        <time>2022-09-26T09:49:52.420Z</time>
      </trkpt>
      <trkpt lat="47.01029" lon="15.45469">
        <ele>375.301953</ele>
        <time>2022-09-26T09:49:55.423Z</time>
      </trkpt>
      <trkpt lat="47.01042" lon="15.45467">
        <ele>375.422284</ele>
        <time>2022-09-26T09:49:58.438Z</time>
      </trkpt>
      <trkpt lat="47.01054" lon="15.45464">
        <ele>375.540499</ele>
        <time>2022-09-26T09:50:01.430Z</time>
      </trkpt>
      <trkpt lat="47.01068" lon="15.45462">
        <ele>375.665636</ele>
        <time>2022-09-26T09:50:04.457Z</time>
      </trkpt>
      <trkpt lat="47.01076" lon="15.45461">
        <ele>375.748519</ele>
        <time>2022-09-26T09:50:06.417Z</time>
      </trkpt>
      <trkpt lat="47.01086" lon="15.45462">
        <ele>375.833066</ele>
        <time>2022-09-26T09:50:08.421Z</time>
      </trkpt>
      <trkpt lat="47.01098" lon="15.45461">
        <ele>375.949214</ele>
        <time>2022-09-26T09:50:11.416Z</time>
      </trkpt>
      <trkpt lat="47.01111" lon="15.45461">
        <ele>376.06907</ele>
        <time>2022-09-26T09:50:14.438Z</time>
      </trkpt>
      <trkpt lat="47.0112" lon="15.4546">
        <ele>376.153731</ele>
        <time>2022-09-26T09:50:16.423Z</time>
      </trkpt>
      <trkpt lat="47.0113" lon="15.4546">
        <ele>376.243959</ele>
        <time>2022-09-26T09:50:18.432Z</time>
      </trkpt>
      <trkpt lat="47.01139" lon="15.45459">
        <ele>376.520145</ele>
        <time>2022-09-26T09:50:20.443Z</time>
      </trkpt>
      <trkpt lat="47.01149" lon="15.45458">
        <ele>376.800116</ele>
        <time>2022-09-26T09:50:22.439Z</time>
      </trkpt>
      <trkpt lat="47.01161" lon="15.45456">
        <ele>377.189704</ele>
        <time>2022-09-26T09:50:25.449Z</time>
      </trkpt>
      <trkpt lat="47.01173" lon="15.45455">
        <ele>377.527831</ele>
        <time>2022-09-26T09:50:28.437Z</time>
      </trkpt>
      <trkpt lat="47.01184" lon="15.45453">
        <ele>377.88152</ele>
        <time>2022-09-26T09:50:31.429Z</time>
      </trkpt>
      <trkpt lat="47.01197" lon="15.45451">
        <ele>378.27729</ele>
        <time>2022-09-26T09:50:34.443Z</time>
      </trkpt>
      <trkpt lat="47.01206" lon="15.4545">
        <ele>378.548254</ele>
        <time>2022-09-26T09:50:36.451Z</time>
      </trkpt>
      <trkpt lat="47.01216" lon="15.4545">
        <ele>378.83423</ele>
        <time>2022-09-26T09:50:38.440Z</time>
      </trkpt>
      <trkpt lat="47.01226" lon="15.45449">
        <ele>379.129215</ele>
        <time>2022-09-26T09:50:40.437Z</time>
      </trkpt>
      <trkpt lat="47.01235" lon="15.45448">
        <ele>379.407092</ele>
        <time>2022-09-26T09:50:42.425Z</time>
      </trkpt>
      <trkpt lat="47.01248" lon="15.45446">
        <ele>379.787326</ele>
        <time>2022-09-26T09:50:45.436Z</time>
      </trkpt>
      <trkpt lat="47.01259" lon="15.45446">
        <ele>380.145103</ele>
        <time>2022-09-26T09:50:48.470Z</time>
      </trkpt>
      <trkpt lat="47.01271" lon="15.45448">
        <ele>380.50385</ele>
        <time>2022-09-26T09:50:51.457Z</time>
      </trkpt>
      <trkpt lat="47.0128" lon="15.45452">
        <ele>380.779077</ele>
        <time>2022-09-26T09:50:53.445Z</time>
      </trkpt>
      <trkpt lat="47.01289" lon="15.45458">
        <ele>381.068301</ele>
        <time>2022-09-26T09:50:55.436Z</time>
      </trkpt>
      <trkpt lat="47.01297" lon="15.45464">
        <ele>381.354623</ele>
        <time>2022-09-26T09:50:57.431Z</time>
      </trkpt>
      <trkpt lat="47.01309" lon="15.45472">
        <ele>381.709187</ele>
        <time>2022-09-26T09:51:00.441Z</time>
      </trkpt>
      <trkpt lat="47.0132" lon="15.45481">
        <ele>381.961658</ele>
        <time>2022-09-26T09:51:03.442Z</time>
      </trkpt>
      <trkpt lat="47.0133" lon="15.45486">
        <ele>382.178434</ele>
        <time>2022-09-26T09:51:06.438Z</time>
      </trkpt>
      <trkpt lat="47.0134" lon="15.45494">
        <ele>382.413919</ele>
        <time>2022-09-26T09:51:09.470Z</time>
      </trkpt>
      <trkpt lat="47.01347" lon="15.45506">
        <ele>382.620268</ele>
        <time>2022-09-26T09:51:12.495Z</time>
      </trkpt>
      <trkpt lat="47.0135" lon="15.45522">
        <ele>382.850008</ele>
        <time>2022-09-26T09:51:15.431Z</time>
      </trkpt>
      <trkpt lat="47.01354" lon="15.45537">
        <ele>383.063592</ele>
        <time>2022-09-26T09:51:18.440Z</time>
      </trkpt>
      <trkpt lat="47.01358" lon="15.45552">
        <ele>383.298893</ele>
        <time>2022-09-26T09:51:21.434Z</time>
      </trkpt>
      <trkpt lat="47.01362" lon="15.45567">
        <ele>383.502667</ele>
        <time>2022-09-26T09:51:25.413Z</time>
      </trkpt>
      <trkpt lat="47.01366" lon="15.45579">
        <ele>383.697711</ele>
        <time>2022-09-26T09:51:31.409Z</time>
      </trkpt>
      <trkpt lat="47.01369" lon="15.45593">
        <ele>383.894992</ele>
        <time>2022-09-26T09:51:37.425Z</time>
      </trkpt>
      <trkpt lat="47.01368" lon="15.45578">
        <ele>384.094393</ele>
        <time>2022-09-26T09:52:19.442Z</time>
      </trkpt>
      <trkpt lat="47.01365" lon="15.45562">
        <ele>384.321936</ele>
        <time>2022-09-26T09:52:23.472Z</time>
      </trkpt>
      <trkpt lat="47.01371" lon="15.45552">
        <ele>384.512403</ele>
        <time>2022-09-26T09:52:27.439Z</time>
      </trkpt>
      <trkpt lat="47.0138" lon="15.45547">
        <ele>384.709355</ele>
        <time>2022-09-26T09:52:39.486Z</time>
      </trkpt>
      <trkpt lat="47.01393" lon="15.45541">
        <ele>384.984578</ele>
        <time>2022-09-26T09:52:46.412Z</time>
      </trkpt>
      <trkpt lat="47.01404" lon="15.45533">
        <ele>385.225488</ele>
        <time>2022-09-26T09:52:48.421Z</time>
      </trkpt>
      <trkpt lat="47.0142" lon="15.45525">
        <ele>385.457183</ele>
        <time>2022-09-26T09:52:50.400Z</time>
      </trkpt>
      <trkpt lat="47.01427" lon="15.45514">
        <ele>385.592431</ele>
        <time>2022-09-26T09:52:56.421Z</time>
      </trkpt>
      <trkpt lat="47.01435" lon="15.45505">
        <ele>385.715738</ele>
        <time>2022-09-26T09:52:59.443Z</time>
      </trkpt>
      <trkpt lat="47.01443" lon="15.45498">
        <ele>385.844339</ele>
        <time>2022-09-26T09:53:02.441Z</time>
      </trkpt>
      <trkpt lat="47.01452" lon="15.45491">
        <ele>385.969884</ele>
        <time>2022-09-26T09:53:05.448Z</time>
      </trkpt>
      <trkpt lat="47.01462" lon="15.45481">
        <ele>386.11985</ele>
        <time>2022-09-26T09:53:09.431Z</time>
      </trkpt>
      <trkpt lat="47.01468" lon="15.45471">
        <ele>386.238798</ele>
        <time>2022-09-26T09:53:12.442Z</time>
      </trkpt>
      <trkpt lat="47.01475" lon="15.45457">
        <ele>386.386104</ele>
        <time>2022-09-26T09:53:15.446Z</time>
      </trkpt>
      <trkpt lat="47.01482" lon="15.45442">
        <ele>386.543704</ele>
        <time>2022-09-26T09:53:18.452Z</time>
      </trkpt>
      <trkpt lat="47.01491" lon="15.45433">
        <ele>386.678843</ele>
        <time>2022-09-26T09:53:21.445Z</time>
      </trkpt>
      <trkpt lat="47.01502" lon="15.45423">
        <ele>386.837171</ele>
        <time>2022-09-26T09:53:24.458Z</time>
      </trkpt>
      <trkpt lat="47.01511" lon="15.45411">
        <ele>387.000896</ele>
        <time>2022-09-26T09:53:27.428Z</time>
      </trkpt>
      <trkpt lat="47.0152" lon="15.454">
        <ele>387.148981</ele>
        <time>2022-09-26T09:53:30.425Z</time>
      </trkpt>
      <trkpt lat="47.01528" lon="15.45392">
        <ele>387.274108</ele>
        <time>2022-09-26T09:53:33.426Z</time>
      </trkpt>
      <trkpt lat="47.01538" lon="15.45387">
        <ele>387.39895</ele>
        <time>2022-09-26T09:53:36.432Z</time>
      </trkpt>
      <trkpt lat="47.01548" lon="15.45381">
        <ele>387.53577</ele>
        <time>2022-09-26T09:53:39.443Z</time>
      </trkpt>
      <trkpt lat="47.01557" lon="15.45375">
        <ele>387.67766</ele>
        <time>2022-09-26T09:53:42.441Z</time>
      </trkpt>
      <trkpt lat="47.01568" lon="15.45369">
        <ele>387.843455</ele>
        <time>2022-09-26T09:53:45.463Z</time>
      </trkpt>
      <trkpt lat="47.01579" lon="15.45362">
        <ele>388.013552</ele>
        <time>2022-09-26T09:53:48.442Z</time>
      </trkpt>
      <trkpt lat="47.01592" lon="15.45356">
        <ele>388.203603</ele>
        <time>2022-09-26T09:53:51.434Z</time>
      </trkpt>
      <trkpt lat="47.01604" lon="15.45353">
        <ele>388.376581</ele>
        <time>2022-09-26T09:53:54.418Z</time>
      </trkpt>
      <trkpt lat="47.01615" lon="15.45352">
        <ele>388.537665</ele>
        <time>2022-09-26T09:53:57.446Z</time>
      </trkpt>
      <trkpt lat="47.01629" lon="15.45352">
        <ele>388.728338</ele>
        <time>2022-09-26T09:54:00.439Z</time>
      </trkpt>
      <trkpt lat="47.01638" lon="15.45353">
        <ele>388.857016</ele>
        <time>2022-09-26T09:54:02.443Z</time>
      </trkpt>
      <trkpt lat="47.01649" lon="15.45356">
        <ele>389.023269</ele>
        <time>2022-09-26T09:54:05.439Z</time>
      </trkpt>
      <trkpt lat="47.01661" lon="15.45359">
        <ele>389.183706</ele>
        <time>2022-09-26T09:54:08.440Z</time>
      </trkpt>
      <trkpt lat="47.01674" lon="15.45361">
        <ele>389.368728</ele>
        <time>2022-09-26T09:54:11.423Z</time>
      </trkpt>
      <trkpt lat="47.01686" lon="15.45364">
        <ele>389.542016</ele>
        <time>2022-09-26T09:54:14.434Z</time>
      </trkpt>
      <trkpt lat="47.01696" lon="15.45367">
        <ele>389.695016</ele>
        <time>2022-09-26T09:54:17.442Z</time>
      </trkpt>
      <trkpt lat="47.01706" lon="15.4537">
        <ele>389.832877</ele>
        <time>2022-09-26T09:54:20.467Z</time>
      </trkpt>
      <trkpt lat="47.01716" lon="15.45371">
        <ele>389.982671</ele>
        <time>2022-09-26T09:54:23.435Z</time>
      </trkpt>
      <trkpt lat="47.01728" lon="15.45369">
        <ele>390.067156</ele>
        <time>2022-09-26T09:54:26.435Z</time>
      </trkpt>
      <trkpt lat="47.01737" lon="15.45366">
        <ele>389.979082</ele>
        <time>2022-09-26T09:54:29.437Z</time>
      </trkpt>
      <trkpt lat="47.01748" lon="15.45363">
        <ele>389.885004</ele>
        <time>2022-09-26T09:54:32.456Z</time>
      </trkpt>
      <trkpt lat="47.01759" lon="15.45358">
        <ele>389.778858</ele>
        <time>2022-09-26T09:54:35.439Z</time>
      </trkpt>
      <trkpt lat="47.01771" lon="15.45353">
        <ele>389.674637</ele>
        <time>2022-09-26T09:54:38.446Z</time>
      </trkpt>
      <trkpt lat="47.01782" lon="15.45347">
        <ele>389.565715</ele>
        <time>2022-09-26T09:54:41.436Z</time>
      </trkpt>
      <trkpt lat="47.01791" lon="15.45344">
        <ele>389.484123</ele>
        <time>2022-09-26T09:54:43.437Z</time>
      </trkpt>
      <trkpt lat="47.018" lon="15.4534">
        <ele>389.401363</ele>
        <time>2022-09-26T09:54:45.448Z</time>
      </trkpt>
      <trkpt lat="47.01809" lon="15.45339">
        <ele>389.319242</ele>
        <time>2022-09-26T09:54:47.419Z</time>
      </trkpt>
      <trkpt lat="47.01822" lon="15.45339">
        <ele>389.208306</ele>
        <time>2022-09-26T09:54:50.502Z</time>
      </trkpt>
      <trkpt lat="47.01835" lon="15.45338">
        <ele>389.093669</ele>
        <time>2022-09-26T09:54:53.458Z</time>
      </trkpt>
      <trkpt lat="47.01846" lon="15.45336">
        <ele>388.995094</ele>
        <time>2022-09-26T09:54:56.426Z</time>
      </trkpt>
      <trkpt lat="47.01856" lon="15.45336">
        <ele>388.903717</ele>
        <time>2022-09-26T09:54:59.430Z</time>
      </trkpt>
      <trkpt lat="47.01862" lon="15.45346">
        <ele>388.820852</ele>
        <time>2022-09-26T09:55:03.445Z</time>
      </trkpt>
      <trkpt lat="47.01868" lon="15.45361">
        <ele>388.716552</ele>
        <time>2022-09-26T09:55:07.433Z</time>
      </trkpt>
      <trkpt lat="47.01872" lon="15.45376">
        <ele>388.619989</ele>
        <time>2022-09-26T09:55:11.423Z</time>
      </trkpt>
      <trkpt lat="47.01878" lon="15.4539">
        <ele>388.521843</ele>
        <time>2022-09-26T09:55:15.441Z</time>
      </trkpt>
      <trkpt lat="47.01883" lon="15.45401">
        <ele>388.418182</ele>
        <time>2022-09-26T09:55:18.436Z</time>
      </trkpt>
      <trkpt lat="47.01886" lon="15.45415">
        <ele>388.300485</ele>
        <time>2022-09-26T09:55:21.474Z</time>
      </trkpt>
      <trkpt lat="47.01891" lon="15.45432">
        <ele>388.159868</ele>
        <time>2022-09-26T09:55:25.438Z</time>
      </trkpt>
      <trkpt lat="47.01896" lon="15.45449">
        <ele>388.009106</ele>
        <time>2022-09-26T09:55:29.435Z</time>
      </trkpt>
      <trkpt lat="47.019" lon="15.45463">
        <ele>387.88662</ele>
        <time>2022-09-26T09:55:32.469Z</time>
      </trkpt>
      <trkpt lat="47.01905" lon="15.45479">
        <ele>387.748195</ele>
        <time>2022-09-26T09:55:36.424Z</time>
      </trkpt>
      <trkpt lat="47.01908" lon="15.45494">
        <ele>387.628767</ele>
        <time>2022-09-26T09:55:39.498Z</time>
      </trkpt>
      <trkpt lat="47.0191" lon="15.45509">
        <ele>387.505795</ele>
        <time>2022-09-26T09:55:42.417Z</time>
      </trkpt>
      <trkpt lat="47.0191" lon="15.45523">
        <ele>387.396049</ele>
        <time>2022-09-26T09:55:45.422Z</time>
      </trkpt>
      <trkpt lat="47.01908" lon="15.4554">
        <ele>387.258391</ele>
        <time>2022-09-26T09:55:48.439Z</time>
      </trkpt>
      <trkpt lat="47.01904" lon="15.45556">
        <ele>387.121518</ele>
        <time>2022-09-26T09:55:51.502Z</time>
      </trkpt>
      <trkpt lat="47.01901" lon="15.45572">
        <ele>386.990122</ele>
        <time>2022-09-26T09:55:54.487Z</time>
      </trkpt>
      <trkpt lat="47.01896" lon="15.45585">
        <ele>386.870703</ele>
        <time>2022-09-26T09:55:58.478Z</time>
      </trkpt>
      <trkpt lat="47.01907" lon="15.45592">
        <ele>386.736936</ele>
        <time>2022-09-26T09:56:04.450Z</time>
      </trkpt>
      <trkpt lat="47.01917" lon="15.45598">
        <ele>386.602564</ele>
        <time>2022-09-26T09:56:07.439Z</time>
      </trkpt>
      <trkpt lat="47.01927" lon="15.45607">
        <ele>386.467466</ele>
        <time>2022-09-26T09:56:10.480Z</time>
      </trkpt>
      <trkpt lat="47.01938" lon="15.45619">
        <ele>386.288978</ele>
        <time>2022-09-26T09:56:13.440Z</time>
      </trkpt>
      <trkpt lat="47.01949" lon="15.45617">
        <ele>386.123677</ele>
        <time>2022-09-26T09:56:17.448Z</time>
      </trkpt>
      <trkpt lat="47.0196" lon="15.4561">
        <ele>385.952439</ele>
        <time>2022-09-26T09:56:20.422Z</time>
      </trkpt>
      <trkpt lat="47.01971" lon="15.45603">
        <ele>385.785154</ele>
        <time>2022-09-26T09:56:23.447Z</time>
      </trkpt>
      <trkpt lat="47.01981" lon="15.45598">
        <ele>385.62362</ele>
        <time>2022-09-26T09:56:26.414Z</time>
      </trkpt>
      <trkpt lat="47.01991" lon="15.45592">
        <ele>385.467527</ele>
        <time>2022-09-26T09:56:29.436Z</time>
      </trkpt>
      <trkpt lat="47.02002" lon="15.45587">
        <ele>385.304682</ele>
        <time>2022-09-26T09:56:32.434Z</time>
      </trkpt>
      <trkpt lat="47.02012" lon="15.4558">
        <ele>385.151337</ele>
        <time>2022-09-26T09:56:35.445Z</time>
      </trkpt>
      <trkpt lat="47.02021" lon="15.45571">
        <ele>384.992235</ele>
        <time>2022-09-26T09:56:38.438Z</time>
      </trkpt>
      <trkpt lat="47.02032" lon="15.45564">
        <ele>384.81849</ele>
        <time>2022-09-26T09:56:41.432Z</time>
      </trkpt>
      <trkpt lat="47.02044" lon="15.45564">
        <ele>384.646819</ele>
        <time>2022-09-26T09:56:44.433Z</time>
      </trkpt>
      <trkpt lat="47.02056" lon="15.45563">
        <ele>384.477027</ele>
        <time>2022-09-26T09:56:47.433Z</time>
      </trkpt>
      <trkpt lat="47.02067" lon="15.4556">
        <ele>384.315992</ele>
        <time>2022-09-26T09:56:50.450Z</time>
      </trkpt>
      <trkpt lat="47.02077" lon="15.45556">
        <ele>384.153924</ele>
        <time>2022-09-26T09:56:53.443Z</time>
      </trkpt>
      <trkpt lat="47.02088" lon="15.45551">
        <ele>383.994073</ele>
        <time>2022-09-26T09:56:56.416Z</time>
      </trkpt>
      <trkpt lat="47.02099" lon="15.45545">
        <ele>383.823397</ele>
        <time>2022-09-26T09:56:59.444Z</time>
      </trkpt>
      <trkpt lat="47.02111" lon="15.45539">
        <ele>383.476645</ele>
        <time>2022-09-26T09:57:02.474Z</time>
      </trkpt>
      <trkpt lat="47.02122" lon="15.45532">
        <ele>383.124571</ele>
        <time>2022-09-26T09:57:05.450Z</time>
      </trkpt>
      <trkpt lat="47.02134" lon="15.45525">
        <ele>382.753871</ele>
        <time>2022-09-26T09:57:08.447Z</time>
      </trkpt>
      <trkpt lat="47.02144" lon="15.4552">
        <ele>382.466701</ele>
        <time>2022-09-26T09:57:10.439Z</time>
      </trkpt>
      <trkpt lat="47.02154" lon="15.45518">
        <ele>382.170768</ele>
        <time>2022-09-26T09:57:12.466Z</time>
      </trkpt>
      <trkpt lat="47.02164" lon="15.45515">
        <ele>381.87372</ele>
        <time>2022-09-26T09:57:14.431Z</time>
      </trkpt>
      <trkpt lat="47.02174" lon="15.45511">
        <ele>381.581018</ele>
        <time>2022-09-26T09:57:16.416Z</time>
      </trkpt>
      <trkpt lat="47.02183" lon="15.45506">
        <ele>381.302686</ele>
        <time>2022-09-26T09:57:18.433Z</time>
      </trkpt>
      <trkpt lat="47.02191" lon="15.45502">
        <ele>381.037447</ele>
        <time>2022-09-26T09:57:20.432Z</time>
      </trkpt>
      <trkpt lat="47.02204" lon="15.45495">
        <ele>380.653147</ele>
        <time>2022-09-26T09:57:23.436Z</time>
      </trkpt>
      <trkpt lat="47.02213" lon="15.4549">
        <ele>380.381118</ele>
        <time>2022-09-26T09:57:25.444Z</time>
      </trkpt>
      <trkpt lat="47.02221" lon="15.45485">
        <ele>380.121966</ele>
        <time>2022-09-26T09:57:27.444Z</time>
      </trkpt>
      <trkpt lat="47.0223" lon="15.4548">
        <ele>379.832921</ele>
        <time>2022-09-26T09:57:29.439Z</time>
      </trkpt>
      <trkpt lat="47.0224" lon="15.45474">
        <ele>379.548008</ele>
        <time>2022-09-26T09:57:31.439Z</time>
      </trkpt>
      <trkpt lat="47.02248" lon="15.45469">
        <ele>379.280073</ele>
        <time>2022-09-26T09:57:33.445Z</time>
      </trkpt>
      <trkpt lat="47.0226" lon="15.45462">
        <ele>378.899522</ele>
        <time>2022-09-26T09:57:36.438Z</time>
      </trkpt>
      <trkpt lat="47.02273" lon="15.45455">
        <ele>378.657363</ele>
        <time>2022-09-26T09:57:39.448Z</time>
      </trkpt>
      <trkpt lat="47.02285" lon="15.45448">
        <ele>378.766665</ele>
        <time>2022-09-26T09:57:42.446Z</time>
      </trkpt>
      <trkpt lat="47.02296" lon="15.45442">
        <ele>378.870818</ele>
        <time>2022-09-26T09:57:45.422Z</time>
      </trkpt>
      <trkpt lat="47.02308" lon="15.45436">
        <ele>378.977961</ele>
        <time>2022-09-26T09:57:48.434Z</time>
      </trkpt>
      <trkpt lat="47.02321" lon="15.45429">
        <ele>379.087655</ele>
        <time>2022-09-26T09:57:51.442Z</time>
      </trkpt>
      <trkpt lat="47.02333" lon="15.45422">
        <ele>379.197579</ele>
        <time>2022-09-26T09:57:54.432Z</time>
      </trkpt>
      <trkpt lat="47.02345" lon="15.45416">
        <ele>379.308671</ele>
        <time>2022-09-26T09:57:57.443Z</time>
      </trkpt>
      <trkpt lat="47.02358" lon="15.45409">
        <ele>379.420348</ele>
        <time>2022-09-26T09:58:00.443Z</time>
      </trkpt>
      <trkpt lat="47.0237" lon="15.45403">
        <ele>379.534892</ele>
        <time>2022-09-26T09:58:03.440Z</time>
      </trkpt>
      <trkpt lat="47.02379" lon="15.45399">
        <ele>379.613729</ele>
        <time>2022-09-26T09:58:05.450Z</time>
      </trkpt>
      <trkpt lat="47.02392" lon="15.45394">
        <ele>379.727455</ele>
        <time>2022-09-26T09:58:08.442Z</time>
      </trkpt>
      <trkpt lat="47.02404" lon="15.4539">
        <ele>379.82843</ele>
        <time>2022-09-26T09:58:11.430Z</time>
      </trkpt>
      <trkpt lat="47.02414" lon="15.45386">
        <ele>379.915061</ele>
        <time>2022-09-26T09:58:14.448Z</time>
      </trkpt>
      <trkpt lat="47.02424" lon="15.45382">
        <ele>380.004413</ele>
        <time>2022-09-26T09:58:17.451Z</time>
      </trkpt>
      <trkpt lat="47.02435" lon="15.45378">
        <ele>380.102253</ele>
        <time>2022-09-26T09:58:20.437Z</time>
      </trkpt>
      <trkpt lat="47.02448" lon="15.45374">
        <ele>380.25656</ele>
        <time>2022-09-26T09:58:23.448Z</time>
      </trkpt>
      <trkpt lat="47.02457" lon="15.4537">
        <ele>380.384948</ele>
        <time>2022-09-26T09:58:25.447Z</time>
      </trkpt>
      <trkpt lat="47.02469" lon="15.45363">
        <ele>380.579309</ele>
        <time>2022-09-26T09:58:28.443Z</time>
      </trkpt>
      <trkpt lat="47.02477" lon="15.45357">
        <ele>380.707366</ele>
        <time>2022-09-26T09:58:30.440Z</time>
      </trkpt>
      <trkpt lat="47.02486" lon="15.45351">
        <ele>380.840924</ele>
        <time>2022-09-26T09:58:32.430Z</time>
      </trkpt>
      <trkpt lat="47.02497" lon="15.45344">
        <ele>381.014032</ele>
        <time>2022-09-26T09:58:35.441Z</time>
      </trkpt>
      <trkpt lat="47.02509" lon="15.45336">
        <ele>381.203297</ele>
        <time>2022-09-26T09:58:38.451Z</time>
      </trkpt>
      <trkpt lat="47.02521" lon="15.45329">
        <ele>381.38912</ele>
        <time>2022-09-26T09:58:41.444Z</time>
      </trkpt>
      <trkpt lat="47.02534" lon="15.4532">
        <ele>381.58182</ele>
        <time>2022-09-26T09:58:44.424Z</time>
      </trkpt>
      <trkpt lat="47.02542" lon="15.45315">
        <ele>381.710286</ele>
        <time>2022-09-26T09:58:46.436Z</time>
      </trkpt>
      <trkpt lat="47.0255" lon="15.4531">
        <ele>381.838324</ele>
        <time>2022-09-26T09:58:48.485Z</time>
      </trkpt>
      <trkpt lat="47.02562" lon="15.45303">
        <ele>382.022015</ele>
        <time>2022-09-26T09:58:51.435Z</time>
      </trkpt>
      <trkpt lat="47.02574" lon="15.45298">
        <ele>382.193513</ele>
        <time>2022-09-26T09:58:54.441Z</time>
      </trkpt>
      <trkpt lat="47.02585" lon="15.45291">
        <ele>382.364866</ele>
        <time>2022-09-26T09:58:57.421Z</time>
      </trkpt>
      <trkpt lat="47.02597" lon="15.45284">
        <ele>382.542076</ele>
        <time>2022-09-26T09:59:00.448Z</time>
      </trkpt>
      <trkpt lat="47.02607" lon="15.45279">
        <ele>382.701314</ele>
        <time>2022-09-26T09:59:03.466Z</time>
      </trkpt>
      <trkpt lat="47.02618" lon="15.45273">
        <ele>382.773564</ele>
        <time>2022-09-26T09:59:06.428Z</time>
      </trkpt>
      <trkpt lat="47.02628" lon="15.45268">
        <ele>382.844012</ele>
        <time>2022-09-26T09:59:09.455Z</time>
      </trkpt>
      <trkpt lat="47.02639" lon="15.45262">
        <ele>382.918648</ele>
        <time>2022-09-26T09:59:12.462Z</time>
      </trkpt>
      <trkpt lat="47.02651" lon="15.45257">
        <ele>382.995593</ele>
        <time>2022-09-26T09:59:15.434Z</time>
      </trkpt>
      <trkpt lat="47.02663" lon="15.45251">
        <ele>383.074625</ele>
        <time>2022-09-26T09:59:18.419Z</time>
      </trkpt>
      <trkpt lat="47.02674" lon="15.45247">
        <ele>383.149558</ele>
        <time>2022-09-26T09:59:21.460Z</time>
      </trkpt>
      <trkpt lat="47.02685" lon="15.45245">
        <ele>383.215825</ele>
        <time>2022-09-26T09:59:24.474Z</time>
      </trkpt>
      <trkpt lat="47.02696" lon="15.4524">
        <ele>383.293482</ele>
        <time>2022-09-26T09:59:27.433Z</time>
      </trkpt>
      <trkpt lat="47.02705" lon="15.45236">
        <ele>383.351847</ele>
        <time>2022-09-26T09:59:29.467Z</time>
      </trkpt>
      <trkpt lat="47.02714" lon="15.45231">
        <ele>383.414071</ele>
        <time>2022-09-26T09:59:31.446Z</time>
      </trkpt>
      <trkpt lat="47.02725" lon="15.45225">
        <ele>383.49126</ele>
        <time>2022-09-26T09:59:34.444Z</time>
      </trkpt>
      <trkpt lat="47.02737" lon="15.45218">
        <ele>383.57119</ele>
        <time>2022-09-26T09:59:37.433Z</time>
      </trkpt>
      <trkpt lat="47.02748" lon="15.45212">
        <ele>383.64644</ele>
        <time>2022-09-26T09:59:40.433Z</time>
      </trkpt>
      <trkpt lat="47.02758" lon="15.45205">
        <ele>383.718416</ele>
        <time>2022-09-26T09:59:43.438Z</time>
      </trkpt>
      <trkpt lat="47.02769" lon="15.45198">
        <ele>383.792315</ele>
        <time>2022-09-26T09:59:46.424Z</time>
      </trkpt>
      <trkpt lat="47.02779" lon="15.45192">
        <ele>383.876689</ele>
        <time>2022-09-26T09:59:49.446Z</time>
      </trkpt>
      <trkpt lat="47.02789" lon="15.45186">
        <ele>384.001135</ele>
        <time>2022-09-26T09:59:52.456Z</time>
      </trkpt>
      <trkpt lat="47.02798" lon="15.45182">
        <ele>384.107088</ele>
        <time>2022-09-26T09:59:54.440Z</time>
      </trkpt>
      <trkpt lat="47.02807" lon="15.45179">
        <ele>384.215926</ele>
        <time>2022-09-26T09:59:56.487Z</time>
      </trkpt>
      <trkpt lat="47.02816" lon="15.45175">
        <ele>384.326085</ele>
        <time>2022-09-26T09:59:58.463Z</time>
      </trkpt>
      <trkpt lat="47.02825" lon="15.45171">
        <ele>384.433603</ele>
        <time>2022-09-26T10:00:00.449Z</time>
      </trkpt>
      <trkpt lat="47.02838" lon="15.45165">
        <ele>384.584594</ele>
        <time>2022-09-26T10:00:03.449Z</time>
      </trkpt>
      <trkpt lat="47.0285" lon="15.4516">
        <ele>384.725727</ele>
        <time>2022-09-26T10:00:06.442Z</time>
      </trkpt>
      <trkpt lat="47.02861" lon="15.45155">
        <ele>384.863749</ele>
        <time>2022-09-26T10:00:09.434Z</time>
      </trkpt>
      <trkpt lat="47.02873" lon="15.45149">
        <ele>385.010623</ele>
        <time>2022-09-26T10:00:12.431Z</time>
      </trkpt>
      <trkpt lat="47.02885" lon="15.45144">
        <ele>385.153809</ele>
        <time>2022-09-26T10:00:15.449Z</time>
      </trkpt>
      <trkpt lat="47.02898" lon="15.45138">
        <ele>385.307758</ele>
        <time>2022-09-26T10:00:18.445Z</time>
      </trkpt>
      <trkpt lat="47.02906" lon="15.45134">
        <ele>385.411099</ele>
        <time>2022-09-26T10:00:20.460Z</time>
      </trkpt>
      <trkpt lat="47.02918" lon="15.45127">
        <ele>385.555075</ele>
        <time>2022-09-26T10:00:23.458Z</time>
      </trkpt>
      <trkpt lat="47.02927" lon="15.45118">
        <ele>385.682757</ele>
        <time>2022-09-26T10:00:26.420Z</time>
      </trkpt>
      <trkpt lat="47.02936" lon="15.4511">
        <ele>385.806125</ele>
        <time>2022-09-26T10:00:30.459Z</time>
      </trkpt>
      <trkpt lat="47.02943" lon="15.45101">
        <ele>385.915147</ele>
        <time>2022-09-26T10:00:36.454Z</time>
      </trkpt>
      <trkpt lat="47.02943" lon="15.45115">
        <ele>385.943434</ele>
        <time>2022-09-26T10:00:46.422Z</time>
      </trkpt>
      <trkpt lat="47.02947" lon="15.45127">
        <ele>385.967571</ele>
        <time>2022-09-26T10:00:50.429Z</time>
      </trkpt>
      <trkpt lat="47.02952" lon="15.45143">
        <ele>385.997422</ele>
        <time>2022-09-26T10:00:54.480Z</time>
      </trkpt>
      <trkpt lat="47.02957" lon="15.45156">
        <ele>386.023505</ele>
        <time>2022-09-26T10:00:57.442Z</time>
      </trkpt>
      <trkpt lat="47.02961" lon="15.45171">
        <ele>386.051589</ele>
        <time>2022-09-26T10:01:00.455Z</time>
      </trkpt>
      <trkpt lat="47.02966" lon="15.45185">
        <ele>386.079495</ele>
        <time>2022-09-26T10:01:03.488Z</time>
      </trkpt>
      <trkpt lat="47.02971" lon="15.45199">
        <ele>386.106901</ele>
        <time>2022-09-26T10:01:07.441Z</time>
      </trkpt>
      <trkpt lat="47.02975" lon="15.45211">
        <ele>386.13128</ele>
        <time>2022-09-26T10:01:11.452Z</time>
      </trkpt>
      <trkpt lat="47.0298" lon="15.45227">
        <ele>386.160638</ele>
        <time>2022-09-26T10:01:17.438Z</time>
      </trkpt>
      <trkpt lat="47.02993" lon="15.45222">
        <ele>386.195184</ele>
        <time>2022-09-26T10:01:22.434Z</time>
      </trkpt>
      <trkpt lat="47.02994" lon="15.45238">
        <ele>386.223663</ele>
        <time>2022-09-26T10:01:28.431Z</time>
      </trkpt>
      <trkpt lat="47.02993" lon="15.45253">
        <ele>386.248838</ele>
        <time>2022-09-26T10:01:31.442Z</time>
      </trkpt>
      <trkpt lat="47.02995" lon="15.45268">
        <ele>386.27552</ele>
        <time>2022-09-26T10:01:34.424Z</time>
      </trkpt>
      <trkpt lat="47.02997" lon="15.45285">
        <ele>386.305905</ele>
        <time>2022-09-26T10:01:37.400Z</time>
      </trkpt>
      <trkpt lat="47.02999" lon="15.45303">
        <ele>386.337835</ele>
        <time>2022-09-26T10:01:40.430Z</time>
      </trkpt>
      <trkpt lat="47.03001" lon="15.4532">
        <ele>386.367419</ele>
        <time>2022-09-26T10:01:43.426Z</time>
      </trkpt>
      <trkpt lat="47.03002" lon="15.45335">
        <ele>386.391553</ele>
        <time>2022-09-26T10:01:46.423Z</time>
      </trkpt>
      <trkpt lat="47.02999" lon="15.45351">
        <ele>386.41729</ele>
        <time>2022-09-26T10:01:55.443Z</time>
      </trkpt>
      <trkpt lat="47.03006" lon="15.45365">
        <ele>386.441589</ele>
        <time>2022-09-26T10:02:00.436Z</time>
      </trkpt>
      <trkpt lat="47.0301" lon="15.4538">
        <ele>386.466655</ele>
        <time>2022-09-26T10:02:04.446Z</time>
      </trkpt>
      <trkpt lat="47.03013" lon="15.45396">
        <ele>386.490488</ele>
        <time>2022-09-26T10:02:07.402Z</time>
      </trkpt>
      <trkpt lat="47.03016" lon="15.45411">
        <ele>386.512806</ele>
        <time>2022-09-26T10:02:10.406Z</time>
      </trkpt>
      <trkpt lat="47.03019" lon="15.45428">
        <ele>386.538595</ele>
        <time>2022-09-26T10:02:13.422Z</time>
      </trkpt>
      <trkpt lat="47.03023" lon="15.45446">
        <ele>386.567164</ele>
        <time>2022-09-26T10:02:16.439Z</time>
      </trkpt>
      <trkpt lat="47.03026" lon="15.45459">
        <ele>386.587049</ele>
        <time>2022-09-26T10:02:18.439Z</time>
      </trkpt>
      <trkpt lat="47.0303" lon="15.45471">
        <ele>386.606928</ele>
        <time>2022-09-26T10:02:20.408Z</time>
      </trkpt>
      <trkpt lat="47.03033" lon="15.45486">
        <ele>386.629121</ele>
        <time>2022-09-26T10:02:23.416Z</time>
      </trkpt>
      <trkpt lat="47.03036" lon="15.45502">
        <ele>386.65369</ele>
        <time>2022-09-26T10:02:26.437Z</time>
      </trkpt>
      <trkpt lat="47.03039" lon="15.45517">
        <ele>386.677678</ele>
        <time>2022-09-26T10:02:29.467Z</time>
      </trkpt>
      <trkpt lat="47.03042" lon="15.45533">
        <ele>386.701624</ele>
        <time>2022-09-26T10:02:32.455Z</time>
      </trkpt>
      <trkpt lat="47.03046" lon="15.45547">
        <ele>386.723813</ele>
        <time>2022-09-26T10:02:35.452Z</time>
      </trkpt>
      <trkpt lat="47.03049" lon="15.45561">
        <ele>386.745239</ele>
        <time>2022-09-26T10:02:38.433Z</time>
      </trkpt>
      <trkpt lat="47.03053" lon="15.45574">
        <ele>386.766578</ele>
        <time>2022-09-26T10:02:41.487Z</time>
      </trkpt>
      <trkpt lat="47.03055" lon="15.45587">
        <ele>386.550378</ele>
        <time>2022-09-26T10:02:44.450Z</time>
      </trkpt>
      <trkpt lat="47.03057" lon="15.45601">
        <ele>386.308907</ele>
        <time>2022-09-26T10:02:47.457Z</time>
      </trkpt>
      <trkpt lat="47.03061" lon="15.45617">
        <ele>386.029085</ele>
        <time>2022-09-26T10:02:50.432Z</time>
      </trkpt>
      <trkpt lat="47.03064" lon="15.45634">
        <ele>385.730659</ele>
        <time>2022-09-26T10:02:53.513Z</time>
      </trkpt>
      <trkpt lat="47.03068" lon="15.45649">
        <ele>385.447551</ele>
        <time>2022-09-26T10:02:56.424Z</time>
      </trkpt>
      <trkpt lat="47.03072" lon="15.45666">
        <ele>385.155489</ele>
        <time>2022-09-26T10:02:59.438Z</time>
      </trkpt>
      <trkpt lat="47.03075" lon="15.45683">
        <ele>384.853631</ele>
        <time>2022-09-26T10:03:02.447Z</time>
      </trkpt>
      <trkpt lat="47.03077" lon="15.457">
        <ele>384.554992</ele>
        <time>2022-09-26T10:03:05.441Z</time>
      </trkpt>
      <trkpt lat="47.03072" lon="15.45714">
        <ele>384.276988</ele>
        <time>2022-09-26T10:03:08.436Z</time>
      </trkpt>
      <trkpt lat="47.0306" lon="15.4572">
        <ele>383.961325</ele>
        <time>2022-09-26T10:03:11.443Z</time>
      </trkpt>
      <trkpt lat="47.03048" lon="15.45724">
        <ele>383.649916</ele>
        <time>2022-09-26T10:03:14.440Z</time>
      </trkpt>
      <trkpt lat="47.03037" lon="15.45729">
        <ele>383.346234</ele>
        <time>2022-09-26T10:03:17.436Z</time>
      </trkpt>
      <trkpt lat="47.03023" lon="15.45734">
        <ele>383.008717</ele>
        <time>2022-09-26T10:03:20.442Z</time>
      </trkpt>
      <trkpt lat="47.03014" lon="15.45738">
        <ele>382.756385</ele>
        <time>2022-09-26T10:03:22.467Z</time>
      </trkpt>
      <trkpt lat="47.03004" lon="15.45742">
        <ele>382.495417</ele>
        <time>2022-09-26T10:03:24.429Z</time>
      </trkpt>
      <trkpt lat="47.02992" lon="15.45743">
        <ele>382.270748</ele>
        <time>2022-09-26T10:03:27.446Z</time>
      </trkpt>
      <trkpt lat="47.02979" lon="15.45743">
        <ele>382.267419</ele>
        <time>2022-09-26T10:03:30.443Z</time>
      </trkpt>
      <trkpt lat="47.0297" lon="15.45752">
        <ele>382.264448</ele>
        <time>2022-09-26T10:03:33.435Z</time>
      </trkpt>
      <trkpt lat="47.02971" lon="15.45765">
        <ele>382.262001</ele>
        <time>2022-09-26T10:03:36.436Z</time>
      </trkpt>
      <trkpt lat="47.02974" lon="15.45778">
        <ele>382.259578</ele>
        <time>2022-09-26T10:03:38.512Z</time>
      </trkpt>
      <trkpt lat="47.02976" lon="15.45791">
        <ele>382.25714</ele>
        <time>2022-09-26T10:03:40.427Z</time>
      </trkpt>
      <trkpt lat="47.02979" lon="15.45804">
        <ele>382.254688</ele>
        <time>2022-09-26T10:03:42.437Z</time>
      </trkpt>
      <trkpt lat="47.02983" lon="15.45822">
        <ele>382.25114</ele>
        <time>2022-09-26T10:03:45.448Z</time>
      </trkpt>
      <trkpt lat="47.02987" lon="15.45839">
        <ele>382.247799</ele>
        <time>2022-09-26T10:03:48.457Z</time>
      </trkpt>
      <trkpt lat="47.02991" lon="15.45856">
        <ele>382.244615</ele>
        <time>2022-09-26T10:03:51.433Z</time>
      </trkpt>
      <trkpt lat="47.02995" lon="15.45873">
        <ele>382.241282</ele>
        <time>2022-09-26T10:03:54.443Z</time>
      </trkpt>
      <trkpt lat="47.02998" lon="15.45891">
        <ele>382.23795</ele>
        <time>2022-09-26T10:03:57.437Z</time>
      </trkpt>
      <trkpt lat="47.03002" lon="15.45909">
        <ele>382.234454</ele>
        <time>2022-09-26T10:04:00.427Z</time>
      </trkpt>
      <trkpt lat="47.03006" lon="15.45927">
        <ele>382.231046</ele>
        <time>2022-09-26T10:04:03.454Z</time>
      </trkpt>
      <trkpt lat="47.0301" lon="15.45944">
        <ele>382.227636</ele>
        <time>2022-09-26T10:04:06.522Z</time>
      </trkpt>
      <trkpt lat="47.03013" lon="15.45962">
        <ele>382.224197</ele>
        <time>2022-09-26T10:04:09.470Z</time>
      </trkpt>
      <trkpt lat="47.03018" lon="15.4598">
        <ele>382.411363</ele>
        <time>2022-09-26T10:04:12.438Z</time>
      </trkpt>
      <trkpt lat="47.03022" lon="15.45999">
        <ele>382.67124</ele>
        <time>2022-09-26T10:04:15.467Z</time>
      </trkpt>
      <trkpt lat="47.03026" lon="15.46016">
        <ele>382.911988</ele>
        <time>2022-09-26T10:04:18.436Z</time>
      </trkpt>
      <trkpt lat="47.0303" lon="15.46033">
        <ele>383.141567</ele>
        <time>2022-09-26T10:04:21.437Z</time>
      </trkpt>
      <trkpt lat="47.03033" lon="15.4605">
        <ele>383.362552</ele>
        <time>2022-09-26T10:04:24.453Z</time>
      </trkpt>
      <trkpt lat="47.03035" lon="15.46065">
        <ele>383.57231</ele>
        <time>2022-09-26T10:04:27.446Z</time>
      </trkpt>
      <trkpt lat="47.03037" lon="15.4608">
        <ele>383.771657</ele>
        <time>2022-09-26T10:04:30.440Z</time>
      </trkpt>
      <trkpt lat="47.0304" lon="15.46094">
        <ele>383.958341</ele>
        <time>2022-09-26T10:04:33.468Z</time>
      </trkpt>
      <trkpt lat="47.03046" lon="15.46105">
        <ele>384.150216</ele>
        <time>2022-09-26T10:04:36.434Z</time>
      </trkpt>
      <trkpt lat="47.03055" lon="15.4611">
        <ele>384.341996</ele>
        <time>2022-09-26T10:04:40.483Z</time>
      </trkpt>
      <trkpt lat="47.03063" lon="15.46117">
        <ele>384.522702</ele>
        <time>2022-09-26T10:04:45.443Z</time>
      </trkpt>
      <trkpt lat="47.03071" lon="15.46127">
        <ele>384.72542</ele>
        <time>2022-09-26T10:08:30.465Z</time>
      </trkpt>
      <trkpt lat="47.03072" lon="15.46143">
        <ele>384.930271</ele>
        <time>2022-09-26T10:08:39.444Z</time>
      </trkpt>
      <trkpt lat="47.03074" lon="15.46156">
        <ele>385.103667</ele>
        <time>2022-09-26T10:08:43.471Z</time>
      </trkpt>
      <trkpt lat="47.03074" lon="15.4617">
        <ele>385.289315</ele>
        <time>2022-09-26T10:08:47.439Z</time>
      </trkpt>
      <trkpt lat="47.0307" lon="15.46185">
        <ele>385.499215</ele>
        <time>2022-09-26T10:08:51.435Z</time>
      </trkpt>
      <trkpt lat="47.03065" lon="15.46198">
        <ele>385.665566</ele>
        <time>2022-09-26T10:08:54.438Z</time>
      </trkpt>
      <trkpt lat="47.0306" lon="15.46211">
        <ele>385.585871</ele>
        <time>2022-09-26T10:08:57.424Z</time>
      </trkpt>
      <trkpt lat="47.03056" lon="15.46223">
        <ele>385.516053</ele>
        <time>2022-09-26T10:09:00.429Z</time>
      </trkpt>
      <trkpt lat="47.03053" lon="15.46235">
        <ele>385.444618</ele>
        <time>2022-09-26T10:09:03.472Z</time>
      </trkpt>
      <trkpt lat="47.0305" lon="15.46249">
        <ele>385.365533</ele>
        <time>2022-09-26T10:09:06.459Z</time>
      </trkpt>
      <trkpt lat="47.03047" lon="15.46264">
        <ele>385.287569</ele>
        <time>2022-09-26T10:09:09.426Z</time>
      </trkpt>
      <trkpt lat="47.03046" lon="15.46278">
        <ele>385.209492</ele>
        <time>2022-09-26T10:09:12.472Z</time>
      </trkpt>
      <trkpt lat="47.03044" lon="15.46293">
        <ele>385.131281</ele>
        <time>2022-09-26T10:09:15.440Z</time>
      </trkpt>
      <trkpt lat="47.03042" lon="15.46307">
        <ele>385.05433</ele>
        <time>2022-09-26T10:09:18.480Z</time>
      </trkpt>
      <trkpt lat="47.03041" lon="15.46322">
        <ele>384.97524</ele>
        <time>2022-09-26T10:09:21.432Z</time>
      </trkpt>
      <trkpt lat="47.0304" lon="15.46339">
        <ele>384.888509</ele>
        <time>2022-09-26T10:09:24.438Z</time>
      </trkpt>
      <trkpt lat="47.03039" lon="15.46355">
        <ele>384.804566</ele>
        <time>2022-09-26T10:09:27.435Z</time>
      </trkpt>
      <trkpt lat="47.03039" lon="15.4637">
        <ele>384.724964</ele>
        <time>2022-09-26T10:09:30.452Z</time>
      </trkpt>
      <trkpt lat="47.03039" lon="15.46385">
        <ele>384.644839</ele>
        <time>2022-09-26T10:09:33.439Z</time>
      </trkpt>
      <trkpt lat="47.03039" lon="15.464">
        <ele>384.564172</ele>
        <time>2022-09-26T10:09:36.423Z</time>
      </trkpt>
      <trkpt lat="47.0304" lon="15.46416">
        <ele>384.482959</ele>
        <time>2022-09-26T10:09:39.478Z</time>
      </trkpt>
      <trkpt lat="47.0304" lon="15.46431">
        <ele>384.403361</ele>
        <time>2022-09-26T10:09:42.435Z</time>
      </trkpt>
      <trkpt lat="47.03037" lon="15.46444">
        <ele>384.330635</ele>
        <time>2022-09-26T10:09:45.437Z</time>
      </trkpt>
      <trkpt lat="47.03035" lon="15.4646">
        <ele>384.520048</ele>
        <time>2022-09-26T10:09:49.456Z</time>
      </trkpt>
      <trkpt lat="47.03036" lon="15.46476">
        <ele>385.048941</ele>
        <time>2022-09-26T10:09:53.474Z</time>
      </trkpt>
      <trkpt lat="47.03038" lon="15.46494">
        <ele>385.629828</ele>
        <time>2022-09-26T10:09:57.486Z</time>
      </trkpt>
      <trkpt lat="47.03047" lon="15.46505">
        <ele>386.187264</ele>
        <time>2022-09-26T10:10:01.437Z</time>
      </trkpt>
      <trkpt lat="47.03056" lon="15.46511">
        <ele>386.620911</ele>
        <time>2022-09-26T10:10:05.437Z</time>
      </trkpt>
      <trkpt lat="47.03059" lon="15.46523">
        <ele>387.074668</ele>
        <time>2022-09-26T10:10:11.442Z</time>
      </trkpt>
      <trkpt lat="47.03058" lon="15.4654">
        <ele>387.613042</ele>
        <time>2022-09-26T10:10:15.433Z</time>
      </trkpt>
      <trkpt lat="47.03055" lon="15.46557">
        <ele>388.185376</ele>
        <time>2022-09-26T10:10:19.479Z</time>
      </trkpt>
      <trkpt lat="47.03055" lon="15.46572">
        <ele>388.670852</ele>
        <time>2022-09-26T10:10:22.457Z</time>
      </trkpt>
      <trkpt lat="47.03056" lon="15.46586">
        <ele>389.131333</ele>
        <time>2022-09-26T10:10:25.448Z</time>
      </trkpt>
      <trkpt lat="47.03057" lon="15.466">
        <ele>389.563884</ele>
        <time>2022-09-26T10:10:28.433Z</time>
      </trkpt>
      <trkpt lat="47.03059" lon="15.46613">
        <ele>390.01154</ele>
        <time>2022-09-26T10:10:31.465Z</time>
      </trkpt>
      <trkpt lat="47.0306" lon="15.46628">
        <ele>390.483207</ele>
        <time>2022-09-26T10:10:34.448Z</time>
      </trkpt>
      <trkpt lat="47.0306" lon="15.46644">
        <ele>390.994572</ele>
        <time>2022-09-26T10:10:37.466Z</time>
      </trkpt>
      <trkpt lat="47.03061" lon="15.46661">
        <ele>391.555762</ele>
        <time>2022-09-26T10:10:40.450Z</time>
      </trkpt>
      <trkpt lat="47.03063" lon="15.46677">
        <ele>392.092626</ele>
        <time>2022-09-26T10:10:43.444Z</time>
      </trkpt>
      <trkpt lat="47.03066" lon="15.46694">
        <ele>392.65864</ele>
        <time>2022-09-26T10:10:46.436Z</time>
      </trkpt>
      <trkpt lat="47.03069" lon="15.46713">
        <ele>392.626592</ele>
        <time>2022-09-26T10:10:49.452Z</time>
      </trkpt>
      <trkpt lat="47.03073" lon="15.46732">
        <ele>392.352374</ele>
        <time>2022-09-26T10:10:52.450Z</time>
      </trkpt>
      <trkpt lat="47.03074" lon="15.46745">
        <ele>392.165111</ele>
        <time>2022-09-26T10:10:54.454Z</time>
      </trkpt>
      <trkpt lat="47.03076" lon="15.46758">
        <ele>391.980839</ele>
        <time>2022-09-26T10:10:56.436Z</time>
      </trkpt>
      <trkpt lat="47.03077" lon="15.46777">
        <ele>391.711004</ele>
        <time>2022-09-26T10:10:59.494Z</time>
      </trkpt>
      <trkpt lat="47.03079" lon="15.46796">
        <ele>391.445944</ele>
        <time>2022-09-26T10:11:02.446Z</time>
      </trkpt>
      <trkpt lat="47.0308" lon="15.46814">
        <ele>391.202314</ele>
        <time>2022-09-26T10:11:05.481Z</time>
      </trkpt>
      <trkpt lat="47.03082" lon="15.4683">
        <ele>390.969134</ele>
        <time>2022-09-26T10:11:08.451Z</time>
      </trkpt>
      <trkpt lat="47.03083" lon="15.46848">
        <ele>390.72501</ele>
        <time>2022-09-26T10:11:11.474Z</time>
      </trkpt>
      <trkpt lat="47.03084" lon="15.46865">
        <ele>390.489818</ele>
        <time>2022-09-26T10:11:14.447Z</time>
      </trkpt>
      <trkpt lat="47.03085" lon="15.46882">
        <ele>390.249146</ele>
        <time>2022-09-26T10:11:17.451Z</time>
      </trkpt>
      <trkpt lat="47.03087" lon="15.469">
        <ele>390.001852</ele>
        <time>2022-09-26T10:11:20.455Z</time>
      </trkpt>
      <trkpt lat="47.03089" lon="15.46917">
        <ele>389.762551</ele>
        <time>2022-09-26T10:11:23.445Z</time>
      </trkpt>
      <trkpt lat="47.03091" lon="15.46934">
        <ele>389.520077</ele>
        <time>2022-09-26T10:11:26.437Z</time>
      </trkpt>
      <trkpt lat="47.03093" lon="15.46949">
        <ele>389.295481</ele>
        <time>2022-09-26T10:11:29.446Z</time>
      </trkpt>
      <trkpt lat="47.03096" lon="15.46966">
        <ele>389.152951</ele>
        <time>2022-09-26T10:11:32.444Z</time>
      </trkpt>
      <trkpt lat="47.03099" lon="15.46983">
        <ele>389.142393</ele>
        <time>2022-09-26T10:11:35.442Z</time>
      </trkpt>
      <trkpt lat="47.03102" lon="15.47001">
        <ele>389.131892</ele>
        <time>2022-09-26T10:11:38.461Z</time>
      </trkpt>
      <trkpt lat="47.03104" lon="15.47019">
        <ele>389.121192</ele>
        <time>2022-09-26T10:11:41.448Z</time>
      </trkpt>
      <trkpt lat="47.03107" lon="15.47036">
        <ele>389.110901</ele>
        <time>2022-09-26T10:11:44.427Z</time>
      </trkpt>
      <trkpt lat="47.0311" lon="15.47052">
        <ele>389.101151</ele>
        <time>2022-09-26T10:11:47.437Z</time>
      </trkpt>
      <trkpt lat="47.03114" lon="15.47068">
        <ele>389.091539</ele>
        <time>2022-09-26T10:11:50.448Z</time>
      </trkpt>
      <trkpt lat="47.03116" lon="15.47086">
        <ele>389.080637</ele>
        <time>2022-09-26T10:11:53.427Z</time>
      </trkpt>
      <trkpt lat="47.03119" lon="15.47104">
        <ele>389.069807</ele>
        <time>2022-09-26T10:11:56.435Z</time>
      </trkpt>
      <trkpt lat="47.03121" lon="15.47123">
        <ele>389.058587</ele>
        <time>2022-09-26T10:11:59.447Z</time>
      </trkpt>
      <trkpt lat="47.03124" lon="15.47143">
        <ele>389.04717</ele>
        <time>2022-09-26T10:12:02.441Z</time>
      </trkpt>
      <trkpt lat="47.03126" lon="15.47161">
        <ele>389.036039</ele>
        <time>2022-09-26T10:12:05.444Z</time>
      </trkpt>
      <trkpt lat="47.03128" lon="15.4718">
        <ele>389.025037</ele>
        <time>2022-09-26T10:12:08.448Z</time>
      </trkpt>
      <trkpt lat="47.0313" lon="15.47199">
        <ele>389.01389</ele>
        <time>2022-09-26T10:12:11.458Z</time>
      </trkpt>
      <trkpt lat="47.03133" lon="15.47218">
        <ele>389.002404</ele>
        <time>2022-09-26T10:12:14.452Z</time>
      </trkpt>
      <trkpt lat="47.03136" lon="15.47231">
        <ele>388.994101</ele>
        <time>2022-09-26T10:12:16.436Z</time>
      </trkpt>
      <trkpt lat="47.0314" lon="15.47249">
        <ele>388.982082</ele>
        <time>2022-09-26T10:12:19.433Z</time>
      </trkpt>
      <trkpt lat="47.03144" lon="15.47267">
        <ele>388.970153</ele>
        <time>2022-09-26T10:12:22.431Z</time>
      </trkpt>
      <trkpt lat="47.03148" lon="15.47285">
        <ele>388.958338</ele>
        <time>2022-09-26T10:12:25.450Z</time>
      </trkpt>
      <trkpt lat="47.03153" lon="15.47301">
        <ele>388.947269</ele>
        <time>2022-09-26T10:12:28.474Z</time>
      </trkpt>
      <trkpt lat="47.03158" lon="15.47317">
        <ele>388.936487</ele>
        <time>2022-09-26T10:12:31.448Z</time>
      </trkpt>
      <trkpt lat="47.03163" lon="15.47334">
        <ele>388.924965</ele>
        <time>2022-09-26T10:12:34.432Z</time>
      </trkpt>
      <trkpt lat="47.03168" lon="15.47351">
        <ele>388.913083</ele>
        <time>2022-09-26T10:12:37.443Z</time>
      </trkpt>
      <trkpt lat="47.03174" lon="15.47369">
        <ele>388.900613</ele>
        <time>2022-09-26T10:12:40.439Z</time>
      </trkpt>
      <trkpt lat="47.0318" lon="15.47387">
        <ele>388.888386</ele>
        <time>2022-09-26T10:12:43.435Z</time>
      </trkpt>
      <trkpt lat="47.03184" lon="15.47399">
        <ele>388.880088</ele>
        <time>2022-09-26T10:12:45.428Z</time>
      </trkpt>
      <trkpt lat="47.03188" lon="15.47411">
        <ele>388.871484</ele>
        <time>2022-09-26T10:12:47.448Z</time>
      </trkpt>
      <trkpt lat="47.03193" lon="15.47429">
        <ele>388.859166</ele>
        <time>2022-09-26T10:12:50.472Z</time>
      </trkpt>
      <trkpt lat="47.03197" lon="15.47442">
        <ele>388.850397</ele>
        <time>2022-09-26T10:12:52.458Z</time>
      </trkpt>
      <trkpt lat="47.03203" lon="15.47459">
        <ele>388.837247</ele>
        <time>2022-09-26T10:12:55.437Z</time>
      </trkpt>
      <trkpt lat="47.03209" lon="15.47476">
        <ele>388.613128</ele>
        <time>2022-09-26T10:12:58.446Z</time>
      </trkpt>
      <trkpt lat="47.03215" lon="15.47492">
        <ele>388.390086</ele>
        <time>2022-09-26T10:13:01.451Z</time>
      </trkpt>
      <trkpt lat="47.03221" lon="15.47507">
        <ele>388.174112</ele>
        <time>2022-09-26T10:13:04.432Z</time>
      </trkpt>
      <trkpt lat="47.03227" lon="15.47523">
        <ele>387.95873</ele>
        <time>2022-09-26T10:13:07.442Z</time>
      </trkpt>
      <trkpt lat="47.03233" lon="15.47537">
        <ele>387.749003</ele>
        <time>2022-09-26T10:13:10.430Z</time>
      </trkpt>
      <trkpt lat="47.03239" lon="15.47552">
        <ele>387.52866</ele>
        <time>2022-09-26T10:13:13.429Z</time>
      </trkpt>
      <trkpt lat="47.03246" lon="15.47568">
        <ele>387.308812</ele>
        <time>2022-09-26T10:13:16.470Z</time>
      </trkpt>
      <trkpt lat="47.03253" lon="15.47583">
        <ele>387.083739</ele>
        <time>2022-09-26T10:13:19.430Z</time>
      </trkpt>
      <trkpt lat="47.03259" lon="15.47599">
        <ele>386.852716</ele>
        <time>2022-09-26T10:13:22.435Z</time>
      </trkpt>
      <trkpt lat="47.03266" lon="15.47616">
        <ele>386.609328</ele>
        <time>2022-09-26T10:13:25.420Z</time>
      </trkpt>
      <trkpt lat="47.03271" lon="15.47628">
        <ele>386.446864</ele>
        <time>2022-09-26T10:13:27.450Z</time>
      </trkpt>
      <trkpt lat="47.03278" lon="15.47644">
        <ele>386.211595</ele>
        <time>2022-09-26T10:13:30.431Z</time>
      </trkpt>
      <trkpt lat="47.03286" lon="15.4766">
        <ele>385.977624</ele>
        <time>2022-09-26T10:13:33.442Z</time>
      </trkpt>
      <trkpt lat="47.03291" lon="15.47671">
        <ele>385.815297</ele>
        <time>2022-09-26T10:13:35.456Z</time>
      </trkpt>
      <trkpt lat="47.03298" lon="15.47686">
        <ele>385.637914</ele>
        <time>2022-09-26T10:13:38.468Z</time>
      </trkpt>
      <trkpt lat="47.03306" lon="15.47702">
        <ele>385.765668</ele>
        <time>2022-09-26T10:13:41.447Z</time>
      </trkpt>
      <trkpt lat="47.03311" lon="15.47713">
        <ele>385.856687</ele>
        <time>2022-09-26T10:13:43.443Z</time>
      </trkpt>
      <trkpt lat="47.03319" lon="15.47728">
        <ele>385.980025</ele>
        <time>2022-09-26T10:13:46.448Z</time>
      </trkpt>
      <trkpt lat="47.03326" lon="15.47742">
        <ele>386.097377</ele>
        <time>2022-09-26T10:13:49.436Z</time>
      </trkpt>
      <trkpt lat="47.03332" lon="15.47755">
        <ele>386.200391</ele>
        <time>2022-09-26T10:13:52.431Z</time>
      </trkpt>
      <trkpt lat="47.03338" lon="15.47768">
        <ele>386.305561</ele>
        <time>2022-09-26T10:13:56.434Z</time>
      </trkpt>
      <trkpt lat="47.03346" lon="15.47785">
        <ele>386.445427</ele>
        <time>2022-09-26T10:14:00.432Z</time>
      </trkpt>
      <trkpt lat="47.03352" lon="15.47798">
        <ele>386.551696</ele>
        <time>2022-09-26T10:14:02.430Z</time>
      </trkpt>
      <trkpt lat="47.03357" lon="15.47809">
        <ele>386.642004</ele>
        <time>2022-09-26T10:14:04.453Z</time>
      </trkpt>
      <trkpt lat="47.03364" lon="15.47823">
        <ele>386.748277</ele>
        <time>2022-09-26T10:14:07.437Z</time>
      </trkpt>
      <trkpt lat="47.03369" lon="15.47833">
        <ele>386.839374</ele>
        <time>2022-09-26T10:14:10.428Z</time>
      </trkpt>
      <trkpt lat="47.03376" lon="15.47843">
        <ele>386.930705</ele>
        <time>2022-09-26T10:14:13.449Z</time>
      </trkpt>
      <trkpt lat="47.03386" lon="15.47853">
        <ele>387.048591</ele>
        <time>2022-09-26T10:14:17.438Z</time>
      </trkpt>
      <trkpt lat="47.03387" lon="15.47869">
        <ele>387.153314</ele>
        <time>2022-09-26T10:14:23.444Z</time>
      </trkpt>
      <trkpt lat="47.03392" lon="15.47882">
        <ele>387.253595</ele>
        <time>2022-09-26T10:14:28.429Z</time>
      </trkpt>
      <trkpt lat="47.03381" lon="15.479">
        <ele>387.513445</ele>
        <time>2022-09-26T10:14:55.440Z</time>
      </trkpt>
      <trkpt lat="47.03376" lon="15.47915">
        <ele>387.935311</ele>
        <time>2022-09-26T10:14:59.432Z</time>
      </trkpt>
      <trkpt lat="47.03376" lon="15.4793">
        <ele>388.315817</ele>
        <time>2022-09-26T10:15:03.442Z</time>
      </trkpt>
      <trkpt lat="47.03382" lon="15.47945">
        <ele>388.755592</ele>
        <time>2022-09-26T10:15:07.428Z</time>
      </trkpt>
      <trkpt lat="47.0339" lon="15.47957">
        <ele>389.167271</ele>
        <time>2022-09-26T10:15:11.426Z</time>
      </trkpt>
      <trkpt lat="47.03398" lon="15.47968">
        <ele>389.566701</ele>
        <time>2022-09-26T10:15:15.452Z</time>
      </trkpt>
      <trkpt lat="47.03404" lon="15.47979">
        <ele>389.925007</ele>
        <time>2022-09-26T10:15:19.432Z</time>
      </trkpt>
      <trkpt lat="47.03411" lon="15.47991">
        <ele>390.323501</ele>
        <time>2022-09-26T10:15:24.435Z</time>
      </trkpt>
      <trkpt lat="47.03417" lon="15.48004">
        <ele>390.697577</ele>
        <time>2022-09-26T10:15:29.479Z</time>
      </trkpt>
      <trkpt lat="47.03421" lon="15.48017">
        <ele>391.056058</ele>
        <time>2022-09-26T10:15:34.474Z</time>
      </trkpt>
      <trkpt lat="47.03424" lon="15.48033">
        <ele>391.47623</ele>
        <time>2022-09-26T10:15:39.449Z</time>
      </trkpt>
      <trkpt lat="47.03427" lon="15.48048">
        <ele>391.859479</ele>
        <time>2022-09-26T10:15:44.458Z</time>
      </trkpt>
      <trkpt lat="47.03427" lon="15.48062">
        <ele>392.203901</ele>
        <time>2022-09-26T10:15:49.451Z</time>
      </trkpt>
      <trkpt lat="47.03427" lon="15.48076">
        <ele>392.554562</ele>
        <time>2022-09-26T10:15:54.458Z</time>
      </trkpt>
      <trkpt lat="47.03425" lon="15.48092">
        <ele>392.958776</ele>
        <time>2022-09-26T10:15:59.448Z</time>
      </trkpt>
      <trkpt lat="47.03422" lon="15.48106">
        <ele>393.318923</ele>
        <time>2022-09-26T10:16:03.462Z</time>
      </trkpt>
      <trkpt lat="47.03418" lon="15.4812">
        <ele>393.699314</ele>
        <time>2022-09-26T10:16:07.435Z</time>
      </trkpt>
      <trkpt lat="47.03413" lon="15.48134">
        <ele>393.899724</ele>
        <time>2022-09-26T10:16:11.437Z</time>
      </trkpt>
      <trkpt lat="47.03408" lon="15.48149">
        <ele>393.802361</ele>
        <time>2022-09-26T10:16:15.474Z</time>
      </trkpt>
      <trkpt lat="47.03403" lon="15.48165">
        <ele>393.702136</ele>
        <time>2022-09-26T10:16:19.474Z</time>
      </trkpt>
      <trkpt lat="47.03399" lon="15.48177">
        <ele>393.624215</ele>
        <time>2022-09-26T10:16:22.448Z</time>
      </trkpt>
      <trkpt lat="47.03395" lon="15.48189">
        <ele>393.543078</ele>
        <time>2022-09-26T10:16:25.443Z</time>
      </trkpt>
      <trkpt lat="47.03391" lon="15.48204">
        <ele>393.451782</ele>
        <time>2022-09-26T10:16:28.440Z</time>
      </trkpt>
      <trkpt lat="47.03387" lon="15.48218">
        <ele>393.35941</ele>
        <time>2022-09-26T10:16:31.452Z</time>
      </trkpt>
      <trkpt lat="47.03382" lon="15.48233">
        <ele>393.265078</ele>
        <time>2022-09-26T10:16:34.447Z</time>
      </trkpt>
      <trkpt lat="47.03378" lon="15.48248">
        <ele>393.166752</ele>
        <time>2022-09-26T10:16:37.435Z</time>
      </trkpt>
      <trkpt lat="47.03374" lon="15.48264">
        <ele>393.068514</ele>
        <time>2022-09-26T10:16:40.450Z</time>
      </trkpt>
      <trkpt lat="47.03369" lon="15.4828">
        <ele>392.967413</ele>
        <time>2022-09-26T10:16:43.441Z</time>
      </trkpt>
      <trkpt lat="47.03364" lon="15.48296">
        <ele>392.862565</ele>
        <time>2022-09-26T10:16:46.442Z</time>
      </trkpt>
      <trkpt lat="47.03359" lon="15.48312">
        <ele>392.760213</ele>
        <time>2022-09-26T10:16:49.448Z</time>
      </trkpt>
      <trkpt lat="47.03354" lon="15.48328">
        <ele>392.655899</ele>
        <time>2022-09-26T10:16:52.477Z</time>
      </trkpt>
      <trkpt lat="47.03349" lon="15.48344">
        <ele>392.550338</ele>
        <time>2022-09-26T10:16:55.443Z</time>
      </trkpt>
      <trkpt lat="47.03344" lon="15.4836">
        <ele>392.446023</ele>
        <time>2022-09-26T10:16:58.451Z</time>
      </trkpt>
      <trkpt lat="47.03339" lon="15.48375">
        <ele>392.382823</ele>
        <time>2022-09-26T10:17:01.446Z</time>
      </trkpt>
      <trkpt lat="47.03334" lon="15.48392">
        <ele>392.366339</ele>
        <time>2022-09-26T10:17:04.448Z</time>
      </trkpt>
      <trkpt lat="47.03328" lon="15.48408">
        <ele>392.349816</ele>
        <time>2022-09-26T10:17:07.435Z</time>
      </trkpt>
      <trkpt lat="47.03321" lon="15.48423">
        <ele>392.334075</ele>
        <time>2022-09-26T10:17:10.448Z</time>
      </trkpt>
      <trkpt lat="47.03314" lon="15.48436">
        <ele>392.319119</ele>
        <time>2022-09-26T10:17:13.464Z</time>
      </trkpt>
      <trkpt lat="47.03308" lon="15.48448">
        <ele>392.30527</ele>
        <time>2022-09-26T10:17:16.432Z</time>
      </trkpt>
      <trkpt lat="47.03301" lon="15.48463">
        <ele>392.289456</ele>
        <time>2022-09-26T10:17:19.430Z</time>
      </trkpt>
      <trkpt lat="47.03296" lon="15.48479">
        <ele>392.273199</ele>
        <time>2022-09-26T10:17:22.447Z</time>
      </trkpt>
      <trkpt lat="47.03292" lon="15.48494">
        <ele>392.259442</ele>
        <time>2022-09-26T10:17:25.448Z</time>
      </trkpt>
      <trkpt lat="47.03289" lon="15.48507">
        <ele>392.246998</ele>
        <time>2022-09-26T10:17:28.433Z</time>
      </trkpt>
      <trkpt lat="47.03285" lon="15.48523">
        <ele>392.23132</ele>
        <time>2022-09-26T10:17:31.485Z</time>
      </trkpt>
      <trkpt lat="47.0328" lon="15.48541">
        <ele>392.214781</ele>
        <time>2022-09-26T10:17:34.444Z</time>
      </trkpt>
      <trkpt lat="47.03275" lon="15.48558">
        <ele>392.198126</ele>
        <time>2022-09-26T10:17:37.492Z</time>
      </trkpt>
      <trkpt lat="47.03271" lon="15.48575">
        <ele>392.181587</ele>
        <time>2022-09-26T10:17:40.475Z</time>
      </trkpt>
      <trkpt lat="47.03265" lon="15.48592">
        <ele>392.164506</ele>
        <time>2022-09-26T10:17:43.455Z</time>
      </trkpt>
      <trkpt lat="47.03258" lon="15.48608">
        <ele>392.283471</ele>
        <time>2022-09-26T10:17:46.440Z</time>
      </trkpt>
      <trkpt lat="47.03252" lon="15.48619">
        <ele>392.553551</ele>
        <time>2022-09-26T10:17:48.481Z</time>
      </trkpt>
      <trkpt lat="47.03247" lon="15.4863">
        <ele>392.825424</ele>
        <time>2022-09-26T10:17:50.423Z</time>
      </trkpt>
      <trkpt lat="47.03241" lon="15.4864">
        <ele>393.099329</ele>
        <time>2022-09-26T10:17:52.442Z</time>
      </trkpt>
      <trkpt lat="47.03236" lon="15.4865">
        <ele>393.370307</ele>
        <time>2022-09-26T10:17:54.509Z</time>
      </trkpt>
      <trkpt lat="47.03228" lon="15.48665">
        <ele>393.763008</ele>
        <time>2022-09-26T10:17:57.496Z</time>
      </trkpt>
      <trkpt lat="47.0322" lon="15.48681">
        <ele>394.158623</ele>
        <time>2022-09-26T10:18:00.484Z</time>
      </trkpt>
      <trkpt lat="47.03215" lon="15.48692">
        <ele>394.440427</ele>
        <time>2022-09-26T10:18:02.443Z</time>
      </trkpt>
      <trkpt lat="47.03208" lon="15.48709">
        <ele>394.846708</ele>
        <time>2022-09-26T10:18:05.421Z</time>
      </trkpt>
      <trkpt lat="47.03201" lon="15.48726">
        <ele>395.239164</ele>
        <time>2022-09-26T10:18:08.447Z</time>
      </trkpt>
      <trkpt lat="47.03195" lon="15.48741">
        <ele>395.600634</ele>
        <time>2022-09-26T10:18:11.482Z</time>
      </trkpt>
      <trkpt lat="47.0319" lon="15.48757">
        <ele>395.970149</ele>
        <time>2022-09-26T10:18:14.463Z</time>
      </trkpt>
      <trkpt lat="47.03184" lon="15.48773">
        <ele>396.332373</ele>
        <time>2022-09-26T10:18:17.436Z</time>
      </trkpt>
      <trkpt lat="47.03178" lon="15.48788">
        <ele>396.701861</ele>
        <time>2022-09-26T10:18:20.451Z</time>
      </trkpt>
      <trkpt lat="47.03172" lon="15.48804">
        <ele>397.074918</ele>
        <time>2022-09-26T10:18:23.446Z</time>
      </trkpt>
      <trkpt lat="47.03166" lon="15.4882">
        <ele>397.454825</ele>
        <time>2022-09-26T10:18:26.430Z</time>
      </trkpt>
      <trkpt lat="47.03159" lon="15.48837">
        <ele>397.486369</ele>
        <time>2022-09-26T10:18:29.461Z</time>
      </trkpt>
      <trkpt lat="47.03155" lon="15.4885">
        <ele>397.394252</ele>
        <time>2022-09-26T10:18:31.475Z</time>
      </trkpt>
      <trkpt lat="47.03149" lon="15.48868">
        <ele>397.263793</ele>
        <time>2022-09-26T10:18:34.445Z</time>
      </trkpt>
      <trkpt lat="47.03145" lon="15.48882">
        <ele>397.168442</ele>
        <time>2022-09-26T10:18:36.431Z</time>
      </trkpt>
      <trkpt lat="47.03143" lon="15.48895">
        <ele>397.081852</ele>
        <time>2022-09-26T10:18:38.460Z</time>
      </trkpt>
      <trkpt lat="47.03139" lon="15.48914">
        <ele>396.960396</ele>
        <time>2022-09-26T10:18:41.447Z</time>
      </trkpt>
      <trkpt lat="47.03136" lon="15.4893">
        <ele>396.849694</ele>
        <time>2022-09-26T10:18:44.457Z</time>
      </trkpt>
      <trkpt lat="47.03132" lon="15.48948">
        <ele>396.73126</ele>
        <time>2022-09-26T10:18:47.469Z</time>
      </trkpt>
      <trkpt lat="47.03127" lon="15.48965">
        <ele>396.612618</ele>
        <time>2022-09-26T10:18:50.445Z</time>
      </trkpt>
      <trkpt lat="47.03122" lon="15.48983">
        <ele>396.490183</ele>
        <time>2022-09-26T10:18:53.455Z</time>
      </trkpt>
      <trkpt lat="47.03117" lon="15.49001">
        <ele>396.36527</ele>
        <time>2022-09-26T10:18:56.435Z</time>
      </trkpt>
      <trkpt lat="47.03114" lon="15.49013">
        <ele>396.27919</ele>
        <time>2022-09-26T10:18:58.448Z</time>
      </trkpt>
      <trkpt lat="47.03109" lon="15.49031">
        <ele>396.156882</ele>
        <time>2022-09-26T10:19:01.450Z</time>
      </trkpt>
      <trkpt lat="47.03105" lon="15.49049">
        <ele>396.037315</ele>
        <time>2022-09-26T10:19:04.451Z</time>
      </trkpt>
      <trkpt lat="47.03102" lon="15.49067">
        <ele>395.91672</ele>
        <time>2022-09-26T10:19:07.452Z</time>
      </trkpt>
      <trkpt lat="47.03099" lon="15.4908">
        <ele>395.849702</ele>
        <time>2022-09-26T10:19:09.443Z</time>
      </trkpt>
      <trkpt lat="47.03097" lon="15.49094">
        <ele>395.791039</ele>
        <time>2022-09-26T10:19:11.464Z</time>
      </trkpt>
      <trkpt lat="47.03096" lon="15.49108">
        <ele>395.732717</ele>
        <time>2022-09-26T10:19:13.446Z</time>
      </trkpt>
      <trkpt lat="47.03095" lon="15.49122">
        <ele>395.676565</ele>
        <time>2022-09-26T10:19:15.436Z</time>
      </trkpt>
      <trkpt lat="47.03094" lon="15.49135">
        <ele>395.621667</ele>
        <time>2022-09-26T10:19:17.440Z</time>
      </trkpt>
      <trkpt lat="47.03092" lon="15.49149">
        <ele>395.561687</ele>
        <time>2022-09-26T10:19:19.534Z</time>
      </trkpt>
      <trkpt lat="47.03089" lon="15.49163">
        <ele>395.501395</ele>
        <time>2022-09-26T10:19:21.451Z</time>
      </trkpt>
      <trkpt lat="47.03085" lon="15.49176">
        <ele>395.445705</ele>
        <time>2022-09-26T10:19:23.447Z</time>
      </trkpt>
      <trkpt lat="47.0308" lon="15.49193">
        <ele>395.368134</ele>
        <time>2022-09-26T10:19:26.430Z</time>
      </trkpt>
      <trkpt lat="47.03075" lon="15.49211">
        <ele>395.288171</ele>
        <time>2022-09-26T10:19:29.452Z</time>
      </trkpt>
      <trkpt lat="47.0307" lon="15.49223">
        <ele>395.233829</ele>
        <time>2022-09-26T10:19:31.449Z</time>
      </trkpt>
      <trkpt lat="47.03065" lon="15.4924">
        <ele>395.156341</ele>
        <time>2022-09-26T10:19:34.451Z</time>
      </trkpt>
      <trkpt lat="47.03058" lon="15.49256">
        <ele>395.077902</ele>
        <time>2022-09-26T10:19:37.472Z</time>
      </trkpt>
      <trkpt lat="47.03054" lon="15.49267">
        <ele>395.02388</ele>
        <time>2022-09-26T10:19:39.471Z</time>
      </trkpt>
      <trkpt lat="47.03048" lon="15.49278">
        <ele>394.968976</ele>
        <time>2022-09-26T10:19:41.444Z</time>
      </trkpt>
      <trkpt lat="47.03039" lon="15.49291">
        <ele>394.890959</ele>
        <time>2022-09-26T10:19:44.443Z</time>
      </trkpt>
      <trkpt lat="47.03029" lon="15.49304">
        <ele>394.814951</ele>
        <time>2022-09-26T10:19:47.426Z</time>
      </trkpt>
      <trkpt lat="47.03022" lon="15.49318">
        <ele>395.070526</ele>
        <time>2022-09-26T10:19:50.494Z</time>
      </trkpt>
      <trkpt lat="47.03017" lon="15.49334">
        <ele>395.38593</ele>
        <time>2022-09-26T10:19:53.451Z</time>
      </trkpt>
      <trkpt lat="47.03015" lon="15.49351">
        <ele>395.688486</ele>
        <time>2022-09-26T10:19:56.441Z</time>
      </trkpt>
      <trkpt lat="47.03015" lon="15.49365">
        <ele>395.936819</ele>
        <time>2022-09-26T10:19:59.503Z</time>
      </trkpt>
      <trkpt lat="47.03017" lon="15.49381">
        <ele>396.229869</ele>
        <time>2022-09-26T10:20:03.432Z</time>
      </trkpt>
      <trkpt lat="47.03017" lon="15.49395">
        <ele>396.476515</ele>
        <time>2022-09-26T10:20:06.495Z</time>
      </trkpt>
      <trkpt lat="47.03017" lon="15.49408">
        <ele>396.716153</ele>
        <time>2022-09-26T10:20:09.446Z</time>
      </trkpt>
      <trkpt lat="47.03015" lon="15.49423">
        <ele>396.975204</ele>
        <time>2022-09-26T10:20:12.434Z</time>
      </trkpt>
      <trkpt lat="47.03014" lon="15.49438">
        <ele>397.251224</ele>
        <time>2022-09-26T10:20:15.488Z</time>
      </trkpt>
      <trkpt lat="47.03012" lon="15.49454">
        <ele>397.553197</ele>
        <time>2022-09-26T10:20:18.447Z</time>
      </trkpt>
      <trkpt lat="47.03009" lon="15.49471">
        <ele>397.858135</ele>
        <time>2022-09-26T10:20:21.446Z</time>
      </trkpt>
      <trkpt lat="47.03006" lon="15.49486">
        <ele>398.127595</ele>
        <time>2022-09-26T10:20:24.429Z</time>
      </trkpt>
      <trkpt lat="47.03003" lon="15.49499">
        <ele>398.387059</ele>
        <time>2022-09-26T10:20:27.455Z</time>
      </trkpt>
      <trkpt lat="47.02999" lon="15.49512">
        <ele>398.631021</ele>
        <time>2022-09-26T10:20:30.442Z</time>
      </trkpt>
      <trkpt lat="47.02995" lon="15.49524">
        <ele>398.877863</ele>
        <time>2022-09-26T10:20:34.447Z</time>
      </trkpt>
      <trkpt lat="47.02991" lon="15.49536">
        <ele>399.118744</ele>
        <time>2022-09-26T10:20:38.448Z</time>
      </trkpt>
      <trkpt lat="47.02981" lon="15.49544">
        <ele>399.410665</ele>
        <time>2022-09-26T10:20:43.459Z</time>
      </trkpt>
      <trkpt lat="47.02969" lon="15.49548">
        <ele>399.496597</ele>
        <time>2022-09-26T10:20:47.443Z</time>
      </trkpt>
      <trkpt lat="47.02959" lon="15.49552">
        <ele>399.474317</ele>
        <time>2022-09-26T10:20:50.470Z</time>
      </trkpt>
      <trkpt lat="47.02947" lon="15.49555">
        <ele>399.448994</ele>
        <time>2022-09-26T10:20:53.439Z</time>
      </trkpt>
      <trkpt lat="47.02937" lon="15.49558">
        <ele>399.425466</ele>
        <time>2022-09-26T10:20:56.432Z</time>
      </trkpt>
      <trkpt lat="47.02924" lon="15.49563">
        <ele>399.398563</ele>
        <time>2022-09-26T10:20:59.446Z</time>
      </trkpt>
      <trkpt lat="47.02916" lon="15.49567">
        <ele>399.379064</ele>
        <time>2022-09-26T10:21:01.476Z</time>
      </trkpt>
      <trkpt lat="47.02904" lon="15.49573">
        <ele>399.352318</ele>
        <time>2022-09-26T10:21:04.455Z</time>
      </trkpt>
      <trkpt lat="47.02893" lon="15.49581">
        <ele>399.326736</ele>
        <time>2022-09-26T10:21:07.456Z</time>
      </trkpt>
      <trkpt lat="47.02882" lon="15.49589">
        <ele>399.301656</ele>
        <time>2022-09-26T10:21:10.459Z</time>
      </trkpt>
      <trkpt lat="47.02872" lon="15.49598">
        <ele>399.276744</ele>
        <time>2022-09-26T10:21:13.441Z</time>
      </trkpt>
      <trkpt lat="47.02863" lon="15.49607">
        <ele>399.252864</ele>
        <time>2022-09-26T10:21:16.426Z</time>
      </trkpt>
      <trkpt lat="47.02854" lon="15.49615">
        <ele>399.229964</ele>
        <time>2022-09-26T10:21:19.437Z</time>
      </trkpt>
      <trkpt lat="47.02845" lon="15.49624">
        <ele>399.207522</ele>
        <time>2022-09-26T10:21:22.483Z</time>
      </trkpt>
      <trkpt lat="47.02834" lon="15.49632">
        <ele>399.180474</ele>
        <time>2022-09-26T10:21:25.432Z</time>
      </trkpt>
      <trkpt lat="47.02825" lon="15.49639">
        <ele>399.158333</ele>
        <time>2022-09-26T10:21:27.418Z</time>
      </trkpt>
      <trkpt lat="47.02814" lon="15.49647">
        <ele>399.133713</ele>
        <time>2022-09-26T10:21:29.456Z</time>
      </trkpt>
      <trkpt lat="47.02804" lon="15.49654">
        <ele>398.940198</ele>
        <time>2022-09-26T10:21:31.456Z</time>
      </trkpt>
      <trkpt lat="47.02794" lon="15.49662">
        <ele>398.729769</ele>
        <time>2022-09-26T10:21:33.447Z</time>
      </trkpt>
      <trkpt lat="47.02784" lon="15.4967">
        <ele>398.518165</ele>
        <time>2022-09-26T10:21:35.492Z</time>
      </trkpt>
      <trkpt lat="47.02774" lon="15.49677">
        <ele>398.311103</ele>
        <time>2022-09-26T10:21:37.454Z</time>
      </trkpt>
      <trkpt lat="47.02764" lon="15.49684">
        <ele>398.111254</ele>
        <time>2022-09-26T10:21:39.453Z</time>
      </trkpt>
      <trkpt lat="47.02754" lon="15.49692">
        <ele>397.904685</ele>
        <time>2022-09-26T10:21:41.450Z</time>
      </trkpt>
      <trkpt lat="47.02744" lon="15.49699">
        <ele>397.696531</ele>
        <time>2022-09-26T10:21:43.466Z</time>
      </trkpt>
      <trkpt lat="47.02735" lon="15.49705">
        <ele>397.509415</ele>
        <time>2022-09-26T10:21:45.481Z</time>
      </trkpt>
      <trkpt lat="47.02727" lon="15.49711">
        <ele>397.339442</ele>
        <time>2022-09-26T10:21:47.450Z</time>
      </trkpt>
      <trkpt lat="47.02719" lon="15.49718">
        <ele>397.173542</ele>
        <time>2022-09-26T10:21:49.448Z</time>
      </trkpt>
      <trkpt lat="47.02708" lon="15.49729">
        <ele>396.934013</ele>
        <time>2022-09-26T10:21:52.625Z</time>
      </trkpt>
      <trkpt lat="47.02698" lon="15.4974">
        <ele>396.699174</ele>
        <time>2022-09-26T10:21:55.447Z</time>
      </trkpt>
      <trkpt lat="47.02691" lon="15.49749">
        <ele>396.522887</ele>
        <time>2022-09-26T10:21:57.433Z</time>
      </trkpt>
      <trkpt lat="47.02684" lon="15.49758">
        <ele>396.345336</ele>
        <time>2022-09-26T10:21:59.444Z</time>
      </trkpt>
      <trkpt lat="47.02677" lon="15.49768">
        <ele>396.174659</ele>
        <time>2022-09-26T10:22:01.450Z</time>
      </trkpt>
      <trkpt lat="47.02671" lon="15.49779">
        <ele>395.996481</ele>
        <time>2022-09-26T10:22:03.454Z</time>
      </trkpt>
      <trkpt lat="47.02664" lon="15.49789">
        <ele>395.818477</ele>
        <time>2022-09-26T10:22:05.452Z</time>
      </trkpt>
      <trkpt lat="47.02657" lon="15.49798">
        <ele>396.15982</ele>
        <time>2022-09-26T10:22:07.456Z</time>
      </trkpt>
      <trkpt lat="47.0265" lon="15.49806">
        <ele>396.53642</ele>
        <time>2022-09-26T10:22:09.512Z</time>
      </trkpt>
      <trkpt lat="47.02642" lon="15.49813">
        <ele>396.918209</ele>
        <time>2022-09-26T10:22:11.494Z</time>
      </trkpt>
      <trkpt lat="47.02633" lon="15.49822">
        <ele>397.32457</ele>
        <time>2022-09-26T10:22:13.461Z</time>
      </trkpt>
      <trkpt lat="47.02625" lon="15.49829">
        <ele>397.718255</ele>
        <time>2022-09-26T10:22:15.438Z</time>
      </trkpt>
      <trkpt lat="47.02616" lon="15.49842">
        <ele>398.218621</ele>
        <time>2022-09-26T10:22:18.451Z</time>
      </trkpt>
      <trkpt lat="47.02626" lon="15.49838">
        <ele>398.627795</ele>
        <time>2022-09-26T10:22:55.430Z</time>
      </trkpt>
      <trkpt lat="47.02634" lon="15.49831">
        <ele>399.002584</ele>
        <time>2022-09-26T10:22:59.453Z</time>
      </trkpt>
      <trkpt lat="47.02644" lon="15.49822">
        <ele>399.453698</ele>
        <time>2022-09-26T10:23:04.446Z</time>
      </trkpt>
      <trkpt lat="47.02651" lon="15.49815">
        <ele>399.829034</ele>
        <time>2022-09-26T10:23:08.431Z</time>
      </trkpt>
      <trkpt lat="47.02662" lon="15.49805">
        <ele>400.326075</ele>
        <time>2022-09-26T10:23:12.459Z</time>
      </trkpt>
      <trkpt lat="47.02669" lon="15.49794">
        <ele>400.770295</ele>
        <time>2022-09-26T10:23:16.458Z</time>
      </trkpt>
      <trkpt lat="47.02676" lon="15.4978">
        <ele>401.241486</ele>
        <time>2022-09-26T10:23:19.438Z</time>
      </trkpt>
      <trkpt lat="47.02683" lon="15.49769">
        <ele>401.666896</ele>
        <time>2022-09-26T10:23:21.448Z</time>
      </trkpt>
      <trkpt lat="47.0269" lon="15.49758">
        <ele>402.077222</ele>
        <time>2022-09-26T10:23:23.422Z</time>
      </trkpt>
      <trkpt lat="47.02698" lon="15.49749">
        <ele>402.483249</ele>
        <time>2022-09-26T10:23:25.433Z</time>
      </trkpt>
      <trkpt lat="47.02705" lon="15.49741">
        <ele>402.861499</ele>
        <time>2022-09-26T10:23:27.439Z</time>
      </trkpt>
      <trkpt lat="47.02717" lon="15.49731">
        <ele>403.048714</ele>
        <time>2022-09-26T10:23:30.495Z</time>
      </trkpt>
      <trkpt lat="47.02728" lon="15.49721">
        <ele>402.93509</ele>
        <time>2022-09-26T10:23:33.439Z</time>
      </trkpt>
      <trkpt lat="47.02738" lon="15.49712">
        <ele>402.830904</ele>
        <time>2022-09-26T10:23:36.451Z</time>
      </trkpt>
      <trkpt lat="47.02747" lon="15.49705">
        <ele>402.738597</ele>
        <time>2022-09-26T10:23:39.439Z</time>
      </trkpt>
      <trkpt lat="47.02759" lon="15.49699">
        <ele>402.630723</ele>
        <time>2022-09-26T10:23:43.453Z</time>
      </trkpt>
      <trkpt lat="47.02769" lon="15.49694">
        <ele>402.533339</ele>
        <time>2022-09-26T10:23:46.440Z</time>
      </trkpt>
      <trkpt lat="47.02781" lon="15.49694">
        <ele>402.430309</ele>
        <time>2022-09-26T10:23:49.426Z</time>
      </trkpt>
      <trkpt lat="47.02787" lon="15.49704">
        <ele>402.346945</ele>
        <time>2022-09-26T10:23:52.429Z</time>
      </trkpt>
      <trkpt lat="47.0279" lon="15.4972">
        <ele>402.248622</ele>
        <time>2022-09-26T10:23:56.412Z</time>
      </trkpt>
      <trkpt lat="47.02793" lon="15.49737">
        <ele>402.143444</ele>
        <time>2022-09-26T10:23:59.451Z</time>
      </trkpt>
      <trkpt lat="47.02798" lon="15.49761">
        <ele>401.990322</ele>
        <time>2022-09-26T10:24:03.420Z</time>
      </trkpt>
      <trkpt lat="47.02803" lon="15.49778">
        <ele>401.881497</ele>
        <time>2022-09-26T10:24:06.506Z</time>
      </trkpt>
      <trkpt lat="47.02807" lon="15.49796">
        <ele>401.768682</ele>
        <time>2022-09-26T10:24:09.491Z</time>
      </trkpt>
      <trkpt lat="47.02812" lon="15.49813">
        <ele>401.655694</ele>
        <time>2022-09-26T10:24:12.454Z</time>
      </trkpt>
      <trkpt lat="47.02817" lon="15.4983">
        <ele>401.543317</ele>
        <time>2022-09-26T10:24:15.451Z</time>
      </trkpt>
      <trkpt lat="47.02823" lon="15.49848">
        <ele>401.367794</ele>
        <time>2022-09-26T10:24:18.490Z</time>
      </trkpt>
      <trkpt lat="47.02829" lon="15.49865">
        <ele>401.176021</ele>
        <time>2022-09-26T10:24:21.446Z</time>
      </trkpt>
      <trkpt lat="47.02835" lon="15.49883">
        <ele>400.985972</ele>
        <time>2022-09-26T10:24:24.451Z</time>
      </trkpt>
      <trkpt lat="47.02842" lon="15.49899">
        <ele>400.797637</ele>
        <time>2022-09-26T10:24:27.447Z</time>
      </trkpt>
      <trkpt lat="47.02847" lon="15.49917">
        <ele>400.614563</ele>
        <time>2022-09-26T10:24:30.449Z</time>
      </trkpt>
      <trkpt lat="47.02848" lon="15.49934">
        <ele>400.440585</ele>
        <time>2022-09-26T10:24:33.442Z</time>
      </trkpt>
      <trkpt lat="47.02854" lon="15.49951">
        <ele>400.256187</ele>
        <time>2022-09-26T10:24:36.427Z</time>
      </trkpt>
      <trkpt lat="47.0286" lon="15.49961">
        <ele>400.125982</ele>
        <time>2022-09-26T10:24:38.438Z</time>
      </trkpt>
      <trkpt lat="47.02867" lon="15.49972">
        <ele>399.986113</ele>
        <time>2022-09-26T10:24:40.447Z</time>
      </trkpt>
      <trkpt lat="47.02874" lon="15.49982">
        <ele>399.843162</ele>
        <time>2022-09-26T10:24:42.439Z</time>
      </trkpt>
      <trkpt lat="47.02881" lon="15.49993">
        <ele>399.702193</ele>
        <time>2022-09-26T10:24:44.510Z</time>
      </trkpt>
      <trkpt lat="47.02887" lon="15.50003">
        <ele>399.567258</ele>
        <time>2022-09-26T10:24:46.436Z</time>
      </trkpt>
      <trkpt lat="47.02893" lon="15.50013">
        <ele>399.430161</ele>
        <time>2022-09-26T10:24:48.433Z</time>
      </trkpt>
      <trkpt lat="47.029" lon="15.50023">
        <ele>399.299309</ele>
        <time>2022-09-26T10:24:50.486Z</time>
      </trkpt>
      <trkpt lat="47.02909" lon="15.50037">
        <ele>399.112005</ele>
        <time>2022-09-26T10:24:53.471Z</time>
      </trkpt>
      <trkpt lat="47.02917" lon="15.50051">
        <ele>398.927023</ele>
        <time>2022-09-26T10:24:56.535Z</time>
      </trkpt>
      <trkpt lat="47.02925" lon="15.50063">
        <ele>398.727917</ele>
        <time>2022-09-26T10:24:59.442Z</time>
      </trkpt>
      <trkpt lat="47.02932" lon="15.50075">
        <ele>398.540739</ele>
        <time>2022-09-26T10:25:02.434Z</time>
      </trkpt>
      <trkpt lat="47.02941" lon="15.50088">
        <ele>398.334105</ele>
        <time>2022-09-26T10:25:05.426Z</time>
      </trkpt>
      <trkpt lat="47.02949" lon="15.50103">
        <ele>398.102653</ele>
        <time>2022-09-26T10:25:08.429Z</time>
      </trkpt>
      <trkpt lat="47.02956" lon="15.50119">
        <ele>397.884499</ele>
        <time>2022-09-26T10:25:11.438Z</time>
      </trkpt>
      <trkpt lat="47.02962" lon="15.50135">
        <ele>397.661284</ele>
        <time>2022-09-26T10:25:14.450Z</time>
      </trkpt>
      <trkpt lat="47.02967" lon="15.50152">
        <ele>397.442748</ele>
        <time>2022-09-26T10:25:17.451Z</time>
      </trkpt>
      <trkpt lat="47.02974" lon="15.50167">
        <ele>397.238296</ele>
        <time>2022-09-26T10:25:20.438Z</time>
      </trkpt>
      <trkpt lat="47.02982" lon="15.50179">
        <ele>397.02777</ele>
        <time>2022-09-26T10:25:23.447Z</time>
      </trkpt>
      <trkpt lat="47.02992" lon="15.50189">
        <ele>396.824939</ele>
        <time>2022-09-26T10:25:26.421Z</time>
      </trkpt>
      <trkpt lat="47.03002" lon="15.50199">
        <ele>396.611462</ele>
        <time>2022-09-26T10:25:29.448Z</time>
      </trkpt>
      <trkpt lat="47.03013" lon="15.5021">
        <ele>396.389618</ele>
        <time>2022-09-26T10:25:32.431Z</time>
      </trkpt>
      <trkpt lat="47.03024" lon="15.5022">
        <ele>396.168251</ele>
        <time>2022-09-26T10:25:35.450Z</time>
      </trkpt>
      <trkpt lat="47.03033" lon="15.5023">
        <ele>395.962663</ele>
        <time>2022-09-26T10:25:38.433Z</time>
      </trkpt>
      <trkpt lat="47.03043" lon="15.5024">
        <ele>395.915624</ele>
        <time>2022-09-26T10:25:41.451Z</time>
      </trkpt>
      <trkpt lat="47.03054" lon="15.50252">
        <ele>396.081046</ele>
        <time>2022-09-26T10:25:44.473Z</time>
      </trkpt>
      <trkpt lat="47.03061" lon="15.5026">
        <ele>396.194119</ele>
        <time>2022-09-26T10:25:46.438Z</time>
      </trkpt>
      <trkpt lat="47.03069" lon="15.50268">
        <ele>396.310838</ele>
        <time>2022-09-26T10:25:48.444Z</time>
      </trkpt>
      <trkpt lat="47.03077" lon="15.50275">
        <ele>396.427238</ele>
        <time>2022-09-26T10:25:50.558Z</time>
      </trkpt>
      <trkpt lat="47.03085" lon="15.50282">
        <ele>396.542003</ele>
        <time>2022-09-26T10:25:52.459Z</time>
      </trkpt>
      <trkpt lat="47.03096" lon="15.50293">
        <ele>396.707862</ele>
        <time>2022-09-26T10:25:55.471Z</time>
      </trkpt>
      <trkpt lat="47.03107" lon="15.50302">
        <ele>396.868553</ele>
        <time>2022-09-26T10:25:58.434Z</time>
      </trkpt>
      <trkpt lat="47.03118" lon="15.50311">
        <ele>397.014427</ele>
        <time>2022-09-26T10:26:01.474Z</time>
      </trkpt>
      <trkpt lat="47.03128" lon="15.50319">
        <ele>397.156381</ele>
        <time>2022-09-26T10:26:04.446Z</time>
      </trkpt>
      <trkpt lat="47.03138" lon="15.50328">
        <ele>397.300889</ele>
        <time>2022-09-26T10:26:07.450Z</time>
      </trkpt>
      <trkpt lat="47.03147" lon="15.50337">
        <ele>397.444984</ele>
        <time>2022-09-26T10:26:10.442Z</time>
      </trkpt>
      <trkpt lat="47.03156" lon="15.50348">
        <ele>397.58653</ele>
        <time>2022-09-26T10:26:13.546Z</time>
      </trkpt>
      <trkpt lat="47.03165" lon="15.50358">
        <ele>397.723818</ele>
        <time>2022-09-26T10:26:16.436Z</time>
      </trkpt>
      <trkpt lat="47.03172" lon="15.50369">
        <ele>397.857506</ele>
        <time>2022-09-26T10:26:19.455Z</time>
      </trkpt>
      <trkpt lat="47.03181" lon="15.50382">
        <ele>398.002397</ele>
        <time>2022-09-26T10:26:22.448Z</time>
      </trkpt>
      <trkpt lat="47.0319" lon="15.50393">
        <ele>398.147932</ele>
        <time>2022-09-26T10:26:25.446Z</time>
      </trkpt>
      <trkpt lat="47.032" lon="15.50404">
        <ele>398.294184</ele>
        <time>2022-09-26T10:26:28.438Z</time>
      </trkpt>
      <trkpt lat="47.03211" lon="15.50413">
        <ele>398.436072</ele>
        <time>2022-09-26T10:26:31.427Z</time>
      </trkpt>
      <trkpt lat="47.03223" lon="15.50421">
        <ele>398.584016</ele>
        <time>2022-09-26T10:26:34.450Z</time>
      </trkpt>
      <trkpt lat="47.03231" lon="15.50426">
        <ele>398.68963</ele>
        <time>2022-09-26T10:26:36.477Z</time>
      </trkpt>
      <trkpt lat="47.0324" lon="15.50431">
        <ele>398.795045</ele>
        <time>2022-09-26T10:26:38.441Z</time>
      </trkpt>
      <trkpt lat="47.03248" lon="15.50435">
        <ele>398.899425</ele>
        <time>2022-09-26T10:26:40.448Z</time>
      </trkpt>
      <trkpt lat="47.03257" lon="15.50439">
        <ele>399.006852</ele>
        <time>2022-09-26T10:26:42.449Z</time>
      </trkpt>
      <trkpt lat="47.0327" lon="15.50446">
        <ele>399.162541</ele>
        <time>2022-09-26T10:26:45.453Z</time>
      </trkpt>
      <trkpt lat="47.03278" lon="15.50452">
        <ele>399.267374</ele>
        <time>2022-09-26T10:26:47.492Z</time>
      </trkpt>
      <trkpt lat="47.0329" lon="15.5046">
        <ele>399.412902</ele>
        <time>2022-09-26T10:26:50.439Z</time>
      </trkpt>
      <trkpt lat="47.03301" lon="15.50468">
        <ele>399.553941</ele>
        <time>2022-09-26T10:26:53.467Z</time>
      </trkpt>
      <trkpt lat="47.03311" lon="15.50477">
        <ele>399.697216</ele>
        <time>2022-09-26T10:26:56.426Z</time>
      </trkpt>
      <trkpt lat="47.03322" lon="15.50482">
        <ele>399.8263</ele>
        <time>2022-09-26T10:26:59.448Z</time>
      </trkpt>
      <trkpt lat="47.03334" lon="15.50482">
        <ele>399.957586</ele>
        <time>2022-09-26T10:27:02.446Z</time>
      </trkpt>
      <trkpt lat="47.03344" lon="15.50484">
        <ele>400.080984</ele>
        <time>2022-09-26T10:27:05.449Z</time>
      </trkpt>
      <trkpt lat="47.03353" lon="15.50498">
        <ele>400.17433</ele>
        <time>2022-09-26T10:27:08.456Z</time>
      </trkpt>
      <trkpt lat="47.03362" lon="15.5051">
        <ele>400.225315</ele>
        <time>2022-09-26T10:27:11.460Z</time>
      </trkpt>
      <trkpt lat="47.03373" lon="15.50518">
        <ele>400.273029</ele>
        <time>2022-09-26T10:27:14.439Z</time>
      </trkpt>
      <trkpt lat="47.03383" lon="15.50529">
        <ele>400.32485</ele>
        <time>2022-09-26T10:27:17.448Z</time>
      </trkpt>
      <trkpt lat="47.03391" lon="15.50542">
        <ele>400.375679</ele>
        <time>2022-09-26T10:27:20.447Z</time>
      </trkpt>
      <trkpt lat="47.03402" lon="15.50554">
        <ele>400.431501</ele>
        <time>2022-09-26T10:27:23.428Z</time>
      </trkpt>
      <trkpt lat="47.0341" lon="15.50562">
        <ele>400.471241</ele>
        <time>2022-09-26T10:27:25.427Z</time>
      </trkpt>
      <trkpt lat="47.03419" lon="15.50568">
        <ele>400.509856</ele>
        <time>2022-09-26T10:27:27.446Z</time>
      </trkpt>
      <trkpt lat="47.0343" lon="15.50576">
        <ele>400.562142</ele>
        <time>2022-09-26T10:27:30.453Z</time>
      </trkpt>
      <trkpt lat="47.03441" lon="15.50585">
        <ele>400.612862</ele>
        <time>2022-09-26T10:27:33.437Z</time>
      </trkpt>
      <trkpt lat="47.03451" lon="15.50594">
        <ele>400.660144</ele>
        <time>2022-09-26T10:27:36.429Z</time>
      </trkpt>
      <trkpt lat="47.0346" lon="15.50604">
        <ele>400.708351</ele>
        <time>2022-09-26T10:27:39.448Z</time>
      </trkpt>
      <trkpt lat="47.0347" lon="15.50615">
        <ele>400.759602</ele>
        <time>2022-09-26T10:27:42.445Z</time>
      </trkpt>
      <trkpt lat="47.03479" lon="15.50627">
        <ele>400.809912</ele>
        <time>2022-09-26T10:27:45.448Z</time>
      </trkpt>
      <trkpt lat="47.03488" lon="15.50641">
        <ele>400.861076</ele>
        <time>2022-09-26T10:27:48.475Z</time>
      </trkpt>
      <trkpt lat="47.03495" lon="15.50653">
        <ele>400.950551</ele>
        <time>2022-09-26T10:27:51.446Z</time>
      </trkpt>
      <trkpt lat="47.03502" lon="15.50667">
        <ele>401.075447</ele>
        <time>2022-09-26T10:27:54.452Z</time>
      </trkpt>
      <trkpt lat="47.03509" lon="15.50682">
        <ele>401.209229</ele>
        <time>2022-09-26T10:27:57.458Z</time>
      </trkpt>
      <trkpt lat="47.03515" lon="15.50693">
        <ele>401.308104</ele>
        <time>2022-09-26T10:27:59.487Z</time>
      </trkpt>
      <trkpt lat="47.03521" lon="15.50703">
        <ele>401.40551</ele>
        <time>2022-09-26T10:28:01.437Z</time>
      </trkpt>
      <trkpt lat="47.03527" lon="15.50714">
        <ele>401.507771</ele>
        <time>2022-09-26T10:28:03.452Z</time>
      </trkpt>
      <trkpt lat="47.03535" lon="15.50728">
        <ele>401.644707</ele>
        <time>2022-09-26T10:28:06.435Z</time>
      </trkpt>
      <trkpt lat="47.03543" lon="15.50742">
        <ele>401.781088</ele>
        <time>2022-09-26T10:28:09.435Z</time>
      </trkpt>
      <trkpt lat="47.03551" lon="15.50756">
        <ele>401.91151</ele>
        <time>2022-09-26T10:28:12.455Z</time>
      </trkpt>
      <trkpt lat="47.03559" lon="15.50769">
        <ele>402.037813</ele>
        <time>2022-09-26T10:28:15.478Z</time>
      </trkpt>
      <trkpt lat="47.03566" lon="15.50782">
        <ele>402.161908</ele>
        <time>2022-09-26T10:28:18.504Z</time>
      </trkpt>
      <trkpt lat="47.03576" lon="15.50793">
        <ele>402.290146</ele>
        <time>2022-09-26T10:28:21.447Z</time>
      </trkpt>
      <trkpt lat="47.03586" lon="15.50802">
        <ele>402.417845</ele>
        <time>2022-09-26T10:28:24.447Z</time>
      </trkpt>
      <trkpt lat="47.03596" lon="15.50809">
        <ele>402.532898</ele>
        <time>2022-09-26T10:28:27.436Z</time>
      </trkpt>
      <trkpt lat="47.03601" lon="15.50823">
        <ele>402.648628</ele>
        <time>2022-09-26T10:28:31.475Z</time>
      </trkpt>
      <trkpt lat="47.03598" lon="15.50837">
        <ele>402.753433</ele>
        <time>2022-09-26T10:28:35.444Z</time>
      </trkpt>
      <trkpt lat="47.03598" lon="15.5085">
        <ele>402.952534</ele>
        <time>2022-09-26T10:28:38.452Z</time>
      </trkpt>
      <trkpt lat="47.03605" lon="15.5086">
        <ele>403.277205</ele>
        <time>2022-09-26T10:28:41.442Z</time>
      </trkpt>
      <trkpt lat="47.03616" lon="15.50865">
        <ele>403.70201</ele>
        <time>2022-09-26T10:28:44.451Z</time>
      </trkpt>
      <trkpt lat="47.03628" lon="15.50869">
        <ele>404.12558</ele>
        <time>2022-09-26T10:28:47.450Z</time>
      </trkpt>
      <trkpt lat="47.03639" lon="15.50876">
        <ele>404.538087</ele>
        <time>2022-09-26T10:28:50.456Z</time>
      </trkpt>
      <trkpt lat="47.03649" lon="15.50887">
        <ele>404.984416</ele>
        <time>2022-09-26T10:28:53.445Z</time>
      </trkpt>
      <trkpt lat="47.03659" lon="15.509">
        <ele>405.45178</ele>
        <time>2022-09-26T10:28:56.451Z</time>
      </trkpt>
      <trkpt lat="47.03669" lon="15.50911">
        <ele>405.86738</ele>
        <time>2022-09-26T10:28:59.460Z</time>
      </trkpt>
      <trkpt lat="47.03677" lon="15.5092">
        <ele>406.251476</ele>
        <time>2022-09-26T10:29:02.441Z</time>
      </trkpt>
      <trkpt lat="47.03685" lon="15.50929">
        <ele>406.581892</ele>
        <time>2022-09-26T10:29:05.441Z</time>
      </trkpt>
      <trkpt lat="47.03692" lon="15.50937">
        <ele>406.919456</ele>
        <time>2022-09-26T10:29:09.445Z</time>
      </trkpt>
      <trkpt lat="47.037" lon="15.50948">
        <ele>407.290602</ele>
        <time>2022-09-26T10:29:15.449Z</time>
      </trkpt>
      <trkpt lat="47.03708" lon="15.50957">
        <ele>407.644075</ele>
        <time>2022-09-26T10:29:21.452Z</time>
      </trkpt>
      <trkpt lat="47.03716" lon="15.50966">
        <ele>407.998762</ele>
        <time>2022-09-26T10:29:27.446Z</time>
      </trkpt>
      <trkpt lat="47.03724" lon="15.50977">
        <ele>408.355954</ele>
        <time>2022-09-26T10:29:33.444Z</time>
      </trkpt>
      <trkpt lat="47.03731" lon="15.50986">
        <ele>408.690298</ele>
        <time>2022-09-26T10:29:38.442Z</time>
      </trkpt>
      <trkpt lat="47.03739" lon="15.50996">
        <ele>409.052572</ele>
        <time>2022-09-26T10:29:43.473Z</time>
      </trkpt>
      <trkpt lat="47.03747" lon="15.51006">
        <ele>409.270971</ele>
        <time>2022-09-26T10:29:49.442Z</time>
      </trkpt>
      <trkpt lat="47.03754" lon="15.51014">
        <ele>409.454326</ele>
        <time>2022-09-26T10:29:55.461Z</time>
      </trkpt>
      <trkpt lat="47.03761" lon="15.51025">
        <ele>409.637057</ele>
        <time>2022-09-26T10:30:00.453Z</time>
      </trkpt>
      <trkpt lat="47.03767" lon="15.51036">
        <ele>409.819501</ele>
        <time>2022-09-26T10:30:04.453Z</time>
      </trkpt>
      <trkpt lat="47.03776" lon="15.51047">
        <ele>410.027693</ele>
        <time>2022-09-26T10:30:08.458Z</time>
      </trkpt>
      <trkpt lat="47.03784" lon="15.51058">
        <ele>410.244766</ele>
        <time>2022-09-26T10:30:12.437Z</time>
      </trkpt>
      <trkpt lat="47.03792" lon="15.51066">
        <ele>410.424247</ele>
        <time>2022-09-26T10:30:15.467Z</time>
      </trkpt>
      <trkpt lat="47.038" lon="15.51075">
        <ele>410.602298</ele>
        <time>2022-09-26T10:30:18.448Z</time>
      </trkpt>
      <trkpt lat="47.03807" lon="15.51083">
        <ele>410.780269</ele>
        <time>2022-09-26T10:30:21.445Z</time>
      </trkpt>
      <trkpt lat="47.03815" lon="15.51092">
        <ele>410.965028</ele>
        <time>2022-09-26T10:30:24.454Z</time>
      </trkpt>
      <trkpt lat="47.03823" lon="15.51101">
        <ele>411.150774</ele>
        <time>2022-09-26T10:30:27.450Z</time>
      </trkpt>
      <trkpt lat="47.03831" lon="15.51111">
        <ele>411.341442</ele>
        <time>2022-09-26T10:30:30.453Z</time>
      </trkpt>
      <trkpt lat="47.03839" lon="15.51121">
        <ele>411.545654</ele>
        <time>2022-09-26T10:30:33.489Z</time>
      </trkpt>
      <trkpt lat="47.03846" lon="15.51132">
        <ele>411.737809</ele>
        <time>2022-09-26T10:30:36.432Z</time>
      </trkpt>
      <trkpt lat="47.03854" lon="15.51142">
        <ele>411.934829</ele>
        <time>2022-09-26T10:30:39.452Z</time>
      </trkpt>
      <trkpt lat="47.03862" lon="15.51154">
        <ele>412.139866</ele>
        <time>2022-09-26T10:30:42.444Z</time>
      </trkpt>
      <trkpt lat="47.03869" lon="15.51165">
        <ele>412.348025</ele>
        <time>2022-09-26T10:30:45.450Z</time>
      </trkpt>
      <trkpt lat="47.03878" lon="15.51177">
        <ele>412.469482</ele>
        <time>2022-09-26T10:30:48.431Z</time>
      </trkpt>
      <trkpt lat="47.03885" lon="15.51189">
        <ele>412.47118</ele>
        <time>2022-09-26T10:30:51.439Z</time>
      </trkpt>
      <trkpt lat="47.03894" lon="15.51202">
        <ele>412.472976</ele>
        <time>2022-09-26T10:30:54.456Z</time>
      </trkpt>
      <trkpt lat="47.03903" lon="15.51215">
        <ele>412.47481</ele>
        <time>2022-09-26T10:30:57.446Z</time>
      </trkpt>
      <trkpt lat="47.03911" lon="15.51228">
        <ele>412.476641</ele>
        <time>2022-09-26T10:31:00.454Z</time>
      </trkpt>
      <trkpt lat="47.0392" lon="15.51241">
        <ele>412.478469</ele>
        <time>2022-09-26T10:31:03.436Z</time>
      </trkpt>
      <trkpt lat="47.03929" lon="15.51253">
        <ele>412.480292</ele>
        <time>2022-09-26T10:31:06.436Z</time>
      </trkpt>
      <trkpt lat="47.03937" lon="15.51266">
        <ele>412.482098</ele>
        <time>2022-09-26T10:31:09.453Z</time>
      </trkpt>
      <trkpt lat="47.03946" lon="15.51278">
        <ele>412.483872</ele>
        <time>2022-09-26T10:31:12.450Z</time>
      </trkpt>
      <trkpt lat="47.03954" lon="15.51291">
        <ele>412.485556</ele>
        <time>2022-09-26T10:31:15.444Z</time>
      </trkpt>
      <trkpt lat="47.03961" lon="15.51304">
        <ele>412.487295</ele>
        <time>2022-09-26T10:31:18.444Z</time>
      </trkpt>
      <trkpt lat="47.03968" lon="15.51321">
        <ele>412.489286</ele>
        <time>2022-09-26T10:31:21.448Z</time>
      </trkpt>
      <trkpt lat="47.03975" lon="15.51337">
        <ele>412.491207</ele>
        <time>2022-09-26T10:31:24.442Z</time>
      </trkpt>
      <trkpt lat="47.03983" lon="15.51352">
        <ele>412.493154</ele>
        <time>2022-09-26T10:31:27.436Z</time>
      </trkpt>
      <trkpt lat="47.03988" lon="15.51363">
        <ele>412.494517</ele>
        <time>2022-09-26T10:31:29.430Z</time>
      </trkpt>
      <trkpt lat="47.03994" lon="15.51374">
        <ele>412.460933</ele>
        <time>2022-09-26T10:31:31.445Z</time>
      </trkpt>
      <trkpt lat="47.03999" lon="15.51385">
        <ele>412.365233</ele>
        <time>2022-09-26T10:31:33.437Z</time>
      </trkpt>
      <trkpt lat="47.04005" lon="15.51396">
        <ele>412.268965</ele>
        <time>2022-09-26T10:31:35.454Z</time>
      </trkpt>
      <trkpt lat="47.0401" lon="15.51407">
        <ele>412.172081</ele>
        <time>2022-09-26T10:31:37.438Z</time>
      </trkpt>
      <trkpt lat="47.04016" lon="15.51418">
        <ele>412.076054</ele>
        <time>2022-09-26T10:31:39.441Z</time>
      </trkpt>
      <trkpt lat="47.04022" lon="15.51428">
        <ele>411.98123</ele>
        <time>2022-09-26T10:31:41.461Z</time>
      </trkpt>
      <trkpt lat="47.04028" lon="15.51438">
        <ele>411.887898</ele>
        <time>2022-09-26T10:31:43.448Z</time>
      </trkpt>
      <trkpt lat="47.04034" lon="15.51449">
        <ele>411.786911</ele>
        <time>2022-09-26T10:31:45.446Z</time>
      </trkpt>
      <trkpt lat="47.04042" lon="15.51462">
        <ele>411.663098</ele>
        <time>2022-09-26T10:31:47.434Z</time>
      </trkpt>
      <trkpt lat="47.0405" lon="15.51478">
        <ele>411.519463</ele>
        <time>2022-09-26T10:31:49.453Z</time>
      </trkpt>
      <trkpt lat="47.04057" lon="15.51494">
        <ele>411.389983</ele>
        <time>2022-09-26T10:31:51.441Z</time>
      </trkpt>
      <trkpt lat="47.04065" lon="15.51507">
        <ele>411.266305</ele>
        <time>2022-09-26T10:31:53.434Z</time>
      </trkpt>
      <trkpt lat="47.04072" lon="15.51522">
        <ele>411.139667</ele>
        <time>2022-09-26T10:31:55.452Z</time>
      </trkpt>
      <trkpt lat="47.04079" lon="15.51535">
        <ele>411.023033</ele>
        <time>2022-09-26T10:31:57.453Z</time>
      </trkpt>
      <trkpt lat="47.04085" lon="15.51547">
        <ele>410.915513</ele>
        <time>2022-09-26T10:31:59.455Z</time>
      </trkpt>
      <trkpt lat="47.04091" lon="15.51558">
        <ele>410.816817</ele>
        <time>2022-09-26T10:32:01.453Z</time>
      </trkpt>
      <trkpt lat="47.04098" lon="15.51574">
        <ele>410.688452</ele>
        <time>2022-09-26T10:32:04.429Z</time>
      </trkpt>
      <trkpt lat="47.04104" lon="15.51588">
        <ele>410.819048</ele>
        <time>2022-09-26T10:32:07.452Z</time>
      </trkpt>
      <trkpt lat="47.0411" lon="15.51603">
        <ele>411.146046</ele>
        <time>2022-09-26T10:32:10.454Z</time>
      </trkpt>
      <trkpt lat="47.04115" lon="15.51618">
        <ele>411.477818</ele>
        <time>2022-09-26T10:32:13.435Z</time>
      </trkpt>
      <trkpt lat="47.04121" lon="15.51632">
        <ele>411.798371</ele>
        <time>2022-09-26T10:32:16.438Z</time>
      </trkpt>
      <trkpt lat="47.04126" lon="15.51647">
        <ele>412.112557</ele>
        <time>2022-09-26T10:32:19.447Z</time>
      </trkpt>
      <trkpt lat="47.0413" lon="15.51662">
        <ele>412.419894</ele>
        <time>2022-09-26T10:32:22.448Z</time>
      </trkpt>
      <trkpt lat="47.04134" lon="15.51675">
        <ele>412.700729</ele>
        <time>2022-09-26T10:32:25.449Z</time>
      </trkpt>
      <trkpt lat="47.04137" lon="15.51687">
        <ele>412.961528</ele>
        <time>2022-09-26T10:32:28.442Z</time>
      </trkpt>
      <trkpt lat="47.04141" lon="15.517">
        <ele>413.235194</ele>
        <time>2022-09-26T10:32:31.473Z</time>
      </trkpt>
      <trkpt lat="47.04145" lon="15.51713">
        <ele>413.505907</ele>
        <time>2022-09-26T10:32:34.431Z</time>
      </trkpt>
      <trkpt lat="47.04149" lon="15.51725">
        <ele>413.766651</ele>
        <time>2022-09-26T10:32:37.443Z</time>
      </trkpt>
      <trkpt lat="47.04155" lon="15.5174">
        <ele>414.102694</ele>
        <time>2022-09-26T10:32:41.447Z</time>
      </trkpt>
      <trkpt lat="47.0416" lon="15.51754">
        <ele>414.396299</ele>
        <time>2022-09-26T10:32:44.433Z</time>
      </trkpt>
      <trkpt lat="47.04166" lon="15.51767">
        <ele>414.696953</ele>
        <time>2022-09-26T10:32:47.466Z</time>
      </trkpt>
      <trkpt lat="47.04172" lon="15.51781">
        <ele>415.017504</ele>
        <time>2022-09-26T10:32:50.447Z</time>
      </trkpt>
      <trkpt lat="47.04177" lon="15.51797">
        <ele>415.371213</ele>
        <time>2022-09-26T10:32:53.468Z</time>
      </trkpt>
      <trkpt lat="47.04183" lon="15.51813">
        <ele>415.724921</ele>
        <time>2022-09-26T10:32:56.437Z</time>
      </trkpt>
      <trkpt lat="47.0419" lon="15.51831">
        <ele>415.837542</ele>
        <time>2022-09-26T10:32:59.479Z</time>
      </trkpt>
      <trkpt lat="47.04193" lon="15.51845">
        <ele>415.909765</ele>
        <time>2022-09-26T10:33:01.441Z</time>
      </trkpt>
      <trkpt lat="47.04197" lon="15.51858">
        <ele>415.977081</ele>
        <time>2022-09-26T10:33:03.446Z</time>
      </trkpt>
      <trkpt lat="47.042" lon="15.51875">
        <ele>416.062536</ele>
        <time>2022-09-26T10:33:06.424Z</time>
      </trkpt>
      <trkpt lat="47.04203" lon="15.51889">
        <ele>416.137023</ele>
        <time>2022-09-26T10:33:09.436Z</time>
      </trkpt>
      <trkpt lat="47.04207" lon="15.51904">
        <ele>416.213214</ele>
        <time>2022-09-26T10:33:12.451Z</time>
      </trkpt>
      <trkpt lat="47.04211" lon="15.51918">
        <ele>416.289144</ele>
        <time>2022-09-26T10:33:15.459Z</time>
      </trkpt>
      <trkpt lat="47.04215" lon="15.51934">
        <ele>416.368277</ele>
        <time>2022-09-26T10:33:18.441Z</time>
      </trkpt>
      <trkpt lat="47.0422" lon="15.51949">
        <ele>416.452978</ele>
        <time>2022-09-26T10:33:21.463Z</time>
      </trkpt>
      <trkpt lat="47.04226" lon="15.51965">
        <ele>416.538901</ele>
        <time>2022-09-26T10:33:24.452Z</time>
      </trkpt>
      <trkpt lat="47.04232" lon="15.51978">
        <ele>416.621303</ele>
        <time>2022-09-26T10:33:27.426Z</time>
      </trkpt>
      <trkpt lat="47.04239" lon="15.51993">
        <ele>416.707343</ele>
        <time>2022-09-26T10:33:30.464Z</time>
      </trkpt>
      <trkpt lat="47.04244" lon="15.52009">
        <ele>416.793954</ele>
        <time>2022-09-26T10:33:33.450Z</time>
      </trkpt>
      <trkpt lat="47.04249" lon="15.52025">
        <ele>416.877651</ele>
        <time>2022-09-26T10:33:36.447Z</time>
      </trkpt>
      <trkpt lat="47.04253" lon="15.52041">
        <ele>416.961851</ele>
        <time>2022-09-26T10:33:39.484Z</time>
      </trkpt>
      <trkpt lat="47.04254" lon="15.52058">
        <ele>417.031804</ele>
        <time>2022-09-26T10:33:42.454Z</time>
      </trkpt>
      <trkpt lat="47.04255" lon="15.52074">
        <ele>417.039383</ele>
        <time>2022-09-26T10:33:45.457Z</time>
      </trkpt>
      <trkpt lat="47.04257" lon="15.5209">
        <ele>417.047368</ele>
        <time>2022-09-26T10:33:48.465Z</time>
      </trkpt>
      <trkpt lat="47.04257" lon="15.52106">
        <ele>417.055416</ele>
        <time>2022-09-26T10:33:51.448Z</time>
      </trkpt>
      <trkpt lat="47.04259" lon="15.52122">
        <ele>417.063354</ele>
        <time>2022-09-26T10:33:54.454Z</time>
      </trkpt>
      <trkpt lat="47.04263" lon="15.52139">
        <ele>417.071677</ele>
        <time>2022-09-26T10:33:57.456Z</time>
      </trkpt>
      <trkpt lat="47.04267" lon="15.52155">
        <ele>417.080513</ele>
        <time>2022-09-26T10:34:00.427Z</time>
      </trkpt>
      <trkpt lat="47.04271" lon="15.52172">
        <ele>417.088993</ele>
        <time>2022-09-26T10:34:03.452Z</time>
      </trkpt>
      <trkpt lat="47.04275" lon="15.52187">
        <ele>417.097102</ele>
        <time>2022-09-26T10:34:06.463Z</time>
      </trkpt>
      <trkpt lat="47.04278" lon="15.52203">
        <ele>417.105442</ele>
        <time>2022-09-26T10:34:09.511Z</time>
      </trkpt>
      <trkpt lat="47.04281" lon="15.52218">
        <ele>417.112913</ele>
        <time>2022-09-26T10:34:12.485Z</time>
      </trkpt>
      <trkpt lat="47.04283" lon="15.52235">
        <ele>417.12113</ele>
        <time>2022-09-26T10:34:16.439Z</time>
      </trkpt>
      <trkpt lat="47.04284" lon="15.52251">
        <ele>417.129173</ele>
        <time>2022-09-26T10:34:20.438Z</time>
      </trkpt>
      <trkpt lat="47.04289" lon="15.52262">
        <ele>417.135929</ele>
        <time>2022-09-26T10:34:24.453Z</time>
      </trkpt>
      <trkpt lat="47.04301" lon="15.5226">
        <ele>417.144444</ele>
        <time>2022-09-26T10:34:28.434Z</time>
      </trkpt>
      <trkpt lat="47.0431" lon="15.52256">
        <ele>417.151379</ele>
        <time>2022-09-26T10:34:31.465Z</time>
      </trkpt>
      <trkpt lat="47.04322" lon="15.52253">
        <ele>417.163614</ele>
        <time>2022-09-26T10:34:34.445Z</time>
      </trkpt>
      <trkpt lat="47.04333" lon="15.5225">
        <ele>417.265567</ele>
        <time>2022-09-26T10:34:37.452Z</time>
      </trkpt>
      <trkpt lat="47.04344" lon="15.52246">
        <ele>417.371473</ele>
        <time>2022-09-26T10:34:40.453Z</time>
      </trkpt>
      <trkpt lat="47.04356" lon="15.52242">
        <ele>417.483539</ele>
        <time>2022-09-26T10:34:43.444Z</time>
      </trkpt>
      <trkpt lat="47.04368" lon="15.52238">
        <ele>417.589902</ele>
        <time>2022-09-26T10:34:46.431Z</time>
      </trkpt>
      <trkpt lat="47.04379" lon="15.52233">
        <ele>417.69642</ele>
        <time>2022-09-26T10:34:49.448Z</time>
      </trkpt>
      <trkpt lat="47.0439" lon="15.52229">
        <ele>417.795816</ele>
        <time>2022-09-26T10:34:52.447Z</time>
      </trkpt>
      <trkpt lat="47.044" lon="15.52225">
        <ele>417.892091</ele>
        <time>2022-09-26T10:34:55.436Z</time>
      </trkpt>
      <trkpt lat="47.04411" lon="15.52222">
        <ele>417.989993</ele>
        <time>2022-09-26T10:34:58.437Z</time>
      </trkpt>
      <trkpt lat="47.04421" lon="15.52219">
        <ele>418.084372</ele>
        <time>2022-09-26T10:35:01.482Z</time>
      </trkpt>
      <trkpt lat="47.04431" lon="15.52216">
        <ele>418.179122</ele>
        <time>2022-09-26T10:35:04.458Z</time>
      </trkpt>
      <trkpt lat="47.04441" lon="15.52212">
        <ele>418.272027</ele>
        <time>2022-09-26T10:35:07.487Z</time>
      </trkpt>
      <trkpt lat="47.04451" lon="15.52208">
        <ele>418.365233</ele>
        <time>2022-09-26T10:35:10.468Z</time>
      </trkpt>
      <trkpt lat="47.04461" lon="15.52204">
        <ele>418.459161</ele>
        <time>2022-09-26T10:35:13.452Z</time>
      </trkpt>
      <trkpt lat="47.04471" lon="15.52201">
        <ele>418.550315</ele>
        <time>2022-09-26T10:35:16.433Z</time>
      </trkpt>
      <trkpt lat="47.04481" lon="15.52197">
        <ele>418.639492</ele>
        <time>2022-09-26T10:35:19.465Z</time>
      </trkpt>
      <trkpt lat="47.0449" lon="15.52193">
        <ele>418.72884</ele>
        <time>2022-09-26T10:35:22.454Z</time>
      </trkpt>
      <trkpt lat="47.04501" lon="15.52187">
        <ele>419.012653</ele>
        <time>2022-09-26T10:35:26.429Z</time>
      </trkpt>
      <trkpt lat="47.04512" lon="15.52182">
        <ele>419.474114</ele>
        <time>2022-09-26T10:35:30.450Z</time>
      </trkpt>
      <trkpt lat="47.04522" lon="15.52178">
        <ele>419.900664</ele>
        <time>2022-09-26T10:35:33.500Z</time>
      </trkpt>
      <trkpt lat="47.04532" lon="15.52173">
        <ele>420.344687</ele>
        <time>2022-09-26T10:35:36.442Z</time>
      </trkpt>
      <trkpt lat="47.0454" lon="15.52181">
        <ele>420.737226</ele>
        <time>2022-09-26T10:35:40.476Z</time>
      </trkpt>
      <trkpt lat="47.04545" lon="15.52195">
        <ele>421.191902</ele>
        <time>2022-09-26T10:35:44.437Z</time>
      </trkpt>
      <trkpt lat="47.04549" lon="15.52208">
        <ele>421.585719</ele>
        <time>2022-09-26T10:35:47.467Z</time>
      </trkpt>
      <trkpt lat="47.04553" lon="15.5222">
        <ele>421.965035</ele>
        <time>2022-09-26T10:35:50.442Z</time>
      </trkpt>
      <trkpt lat="47.04557" lon="15.52232">
        <ele>422.345113</ele>
        <time>2022-09-26T10:35:53.447Z</time>
      </trkpt>
      <trkpt lat="47.04561" lon="15.52244">
        <ele>422.727511</ele>
        <time>2022-09-26T10:35:56.432Z</time>
      </trkpt>
      <trkpt lat="47.04566" lon="15.52259">
        <ele>423.203559</ele>
        <time>2022-09-26T10:36:00.460Z</time>
      </trkpt>
      <trkpt lat="47.04571" lon="15.52271">
        <ele>423.596017</ele>
        <time>2022-09-26T10:36:03.534Z</time>
      </trkpt>
      <trkpt lat="47.04576" lon="15.52287">
        <ele>424.080768</ele>
        <time>2022-09-26T10:36:07.455Z</time>
      </trkpt>
      <trkpt lat="47.04581" lon="15.52302">
        <ele>424.553368</ele>
        <time>2022-09-26T10:36:11.436Z</time>
      </trkpt>
      <trkpt lat="47.04584" lon="15.52317">
        <ele>424.978069</ele>
        <time>2022-09-26T10:36:15.459Z</time>
      </trkpt>
      <trkpt lat="47.04588" lon="15.52332">
        <ele>425.448176</ele>
        <time>2022-09-26T10:36:19.451Z</time>
      </trkpt>
      <trkpt lat="47.04591" lon="15.52347">
        <ele>425.884877</ele>
        <time>2022-09-26T10:36:23.467Z</time>
      </trkpt>
      <trkpt lat="47.04595" lon="15.52364">
        <ele>426.151053</ele>
        <time>2022-09-26T10:36:27.444Z</time>
      </trkpt>
      <trkpt lat="47.04598" lon="15.52377">
        <ele>425.975613</ele>
        <time>2022-09-26T10:36:30.520Z</time>
      </trkpt>
      <trkpt lat="47.04602" lon="15.52389">
        <ele>425.804821</ele>
        <time>2022-09-26T10:36:33.471Z</time>
      </trkpt>
      <trkpt lat="47.04607" lon="15.52402">
        <ele>425.618451</ele>
        <time>2022-09-26T10:36:36.435Z</time>
      </trkpt>
      <trkpt lat="47.04612" lon="15.52416">
        <ele>425.41812</ele>
        <time>2022-09-26T10:36:39.451Z</time>
      </trkpt>
      <trkpt lat="47.04617" lon="15.52429">
        <ele>425.234817</ele>
        <time>2022-09-26T10:36:42.435Z</time>
      </trkpt>
      <trkpt lat="47.04622" lon="15.52441">
        <ele>425.052262</ele>
        <time>2022-09-26T10:36:45.454Z</time>
      </trkpt>
      <trkpt lat="47.04627" lon="15.52453">
        <ele>424.876616</ele>
        <time>2022-09-26T10:36:48.450Z</time>
      </trkpt>
      <trkpt lat="47.04632" lon="15.52466">
        <ele>424.68828</ele>
        <time>2022-09-26T10:36:51.448Z</time>
      </trkpt>
      <trkpt lat="47.04638" lon="15.52478">
        <ele>424.501022</ele>
        <time>2022-09-26T10:36:54.443Z</time>
      </trkpt>
      <trkpt lat="47.04643" lon="15.5249">
        <ele>424.321267</ele>
        <time>2022-09-26T10:36:57.487Z</time>
      </trkpt>
      <trkpt lat="47.04649" lon="15.52502">
        <ele>424.136273</ele>
        <time>2022-09-26T10:37:00.449Z</time>
      </trkpt>
      <trkpt lat="47.04654" lon="15.52513">
        <ele>423.960594</ele>
        <time>2022-09-26T10:37:03.453Z</time>
      </trkpt>
      <trkpt lat="47.0466" lon="15.52525">
        <ele>423.785022</ele>
        <time>2022-09-26T10:37:06.463Z</time>
      </trkpt>
      <trkpt lat="47.04666" lon="15.52538">
        <ele>423.571608</ele>
        <time>2022-09-26T10:37:10.467Z</time>
      </trkpt>
      <trkpt lat="47.04674" lon="15.52552">
        <ele>423.348536</ele>
        <time>2022-09-26T10:37:14.442Z</time>
      </trkpt>
      <trkpt lat="47.04679" lon="15.52563">
        <ele>423.179914</ele>
        <time>2022-09-26T10:37:17.454Z</time>
      </trkpt>
      <trkpt lat="47.04686" lon="15.52573">
        <ele>423.003252</ele>
        <time>2022-09-26T10:37:20.455Z</time>
      </trkpt>
      <trkpt lat="47.04695" lon="15.52584">
        <ele>422.967072</ele>
        <time>2022-09-26T10:37:24.447Z</time>
      </trkpt>
      <trkpt lat="47.04704" lon="15.52578">
        <ele>423.101814</ele>
        <time>2022-09-26T10:37:29.455Z</time>
      </trkpt>
      <trkpt lat="47.04703" lon="15.526">
        <ele>423.302634</ele>
        <time>2022-09-26T10:51:55.487Z</time>
      </trkpt>
      <trkpt lat="47.04707" lon="15.52613">
        <ele>423.431755</ele>
        <time>2022-09-26T10:52:00.446Z</time>
      </trkpt>
      <trkpt lat="47.04713" lon="15.52622">
        <ele>423.555426</ele>
        <time>2022-09-26T10:52:04.459Z</time>
      </trkpt>
      <trkpt lat="47.0472" lon="15.52635">
        <ele>423.702097</ele>
        <time>2022-09-26T10:52:08.460Z</time>
      </trkpt>
      <trkpt lat="47.04727" lon="15.52648">
        <ele>423.855276</ele>
        <time>2022-09-26T10:52:12.451Z</time>
      </trkpt>
      <trkpt lat="47.04734" lon="15.5266">
        <ele>424.005627</ele>
        <time>2022-09-26T10:52:16.443Z</time>
      </trkpt>
      <trkpt lat="47.04741" lon="15.52672">
        <ele>424.152661</ele>
        <time>2022-09-26T10:52:20.440Z</time>
      </trkpt>
      <trkpt lat="47.04749" lon="15.52685">
        <ele>424.308458</ele>
        <time>2022-09-26T10:52:24.463Z</time>
      </trkpt>
      <trkpt lat="47.04757" lon="15.52697">
        <ele>424.465416</ele>
        <time>2022-09-26T10:52:28.467Z</time>
      </trkpt>
      <trkpt lat="47.04766" lon="15.52708">
        <ele>424.628064</ele>
        <time>2022-09-26T10:52:32.471Z</time>
      </trkpt>
      <trkpt lat="47.04774" lon="15.52717">
        <ele>424.761387</ele>
        <time>2022-09-26T10:52:35.474Z</time>
      </trkpt>
      <trkpt lat="47.04781" lon="15.52727">
        <ele>424.894762</ele>
        <time>2022-09-26T10:52:38.451Z</time>
      </trkpt>
      <trkpt lat="47.04789" lon="15.52737">
        <ele>425.026142</ele>
        <time>2022-09-26T10:52:41.465Z</time>
      </trkpt>
      <trkpt lat="47.04796" lon="15.52746">
        <ele>425.160525</ele>
        <time>2022-09-26T10:52:44.452Z</time>
      </trkpt>
      <trkpt lat="47.04803" lon="15.52756">
        <ele>425.296532</ele>
        <time>2022-09-26T10:52:47.462Z</time>
      </trkpt>
      <trkpt lat="47.04811" lon="15.52766">
        <ele>425.478484</ele>
        <time>2022-09-26T10:52:50.452Z</time>
      </trkpt>
      <trkpt lat="47.04818" lon="15.52775">
        <ele>425.673498</ele>
        <time>2022-09-26T10:52:53.450Z</time>
      </trkpt>
      <trkpt lat="47.04825" lon="15.52784">
        <ele>425.857066</ele>
        <time>2022-09-26T10:52:56.430Z</time>
      </trkpt>
      <trkpt lat="47.04832" lon="15.52793">
        <ele>426.044035</ele>
        <time>2022-09-26T10:52:59.457Z</time>
      </trkpt>
      <trkpt lat="47.04839" lon="15.52802">
        <ele>426.224884</ele>
        <time>2022-09-26T10:53:02.446Z</time>
      </trkpt>
      <trkpt lat="47.04848" lon="15.52812">
        <ele>426.463366</ele>
        <time>2022-09-26T10:53:06.462Z</time>
      </trkpt>
      <trkpt lat="47.04856" lon="15.5282">
        <ele>426.654921</ele>
        <time>2022-09-26T10:53:09.448Z</time>
      </trkpt>
      <trkpt lat="47.04864" lon="15.52829">
        <ele>426.845653</ele>
        <time>2022-09-26T10:53:12.452Z</time>
      </trkpt>
      <trkpt lat="47.04872" lon="15.52836">
        <ele>427.039351</ele>
        <time>2022-09-26T10:53:15.452Z</time>
      </trkpt>
      <trkpt lat="47.0488" lon="15.52843">
        <ele>427.226836</ele>
        <time>2022-09-26T10:53:18.475Z</time>
      </trkpt>
      <trkpt lat="47.04888" lon="15.52849">
        <ele>427.412939</ele>
        <time>2022-09-26T10:53:21.452Z</time>
      </trkpt>
      <trkpt lat="47.04899" lon="15.52856">
        <ele>427.647791</ele>
        <time>2022-09-26T10:53:25.449Z</time>
      </trkpt>
      <trkpt lat="47.0491" lon="15.52861">
        <ele>427.884555</ele>
        <time>2022-09-26T10:53:29.459Z</time>
      </trkpt>
      <trkpt lat="47.04919" lon="15.52865">
        <ele>428.068839</ele>
        <time>2022-09-26T10:53:32.447Z</time>
      </trkpt>
      <trkpt lat="47.0493" lon="15.5287">
        <ele>428.291436</ele>
        <time>2022-09-26T10:53:36.444Z</time>
      </trkpt>
      <trkpt lat="47.0494" lon="15.52877">
        <ele>428.514362</ele>
        <time>2022-09-26T10:53:40.450Z</time>
      </trkpt>
      <trkpt lat="47.04951" lon="15.52881">
        <ele>428.744813</ele>
        <time>2022-09-26T10:53:44.473Z</time>
      </trkpt>
      <trkpt lat="47.04963" lon="15.52881">
        <ele>428.967442</ele>
        <time>2022-09-26T10:53:48.455Z</time>
      </trkpt>
      <trkpt lat="47.04973" lon="15.52881">
        <ele>429.117991</ele>
        <time>2022-09-26T10:53:51.463Z</time>
      </trkpt>
      <trkpt lat="47.04984" lon="15.52882">
        <ele>429.288219</ele>
        <time>2022-09-26T10:53:55.480Z</time>
      </trkpt>
      <trkpt lat="47.04996" lon="15.52882">
        <ele>429.465875</ele>
        <time>2022-09-26T10:53:59.445Z</time>
      </trkpt>
      <trkpt lat="47.05006" lon="15.52882">
        <ele>429.614947</ele>
        <time>2022-09-26T10:54:02.458Z</time>
      </trkpt>
      <trkpt lat="47.05018" lon="15.52882">
        <ele>429.794108</ele>
        <time>2022-09-26T10:54:06.443Z</time>
      </trkpt>
      <trkpt lat="47.05027" lon="15.52883">
        <ele>429.937186</ele>
        <time>2022-09-26T10:54:09.447Z</time>
      </trkpt>
      <trkpt lat="47.05039" lon="15.52883">
        <ele>430.110325</ele>
        <time>2022-09-26T10:54:13.446Z</time>
      </trkpt>
      <trkpt lat="47.05048" lon="15.52882">
        <ele>430.247383</ele>
        <time>2022-09-26T10:54:16.429Z</time>
      </trkpt>
      <trkpt lat="47.05059" lon="15.52881">
        <ele>430.417809</ele>
        <time>2022-09-26T10:54:20.448Z</time>
      </trkpt>
      <trkpt lat="47.0507" lon="15.52881">
        <ele>430.591183</ele>
        <time>2022-09-26T10:54:24.460Z</time>
      </trkpt>
      <trkpt lat="47.0508" lon="15.52879">
        <ele>430.739999</ele>
        <time>2022-09-26T10:54:28.447Z</time>
      </trkpt>
      <trkpt lat="47.0509" lon="15.52876">
        <ele>430.883637</ele>
        <time>2022-09-26T10:54:32.456Z</time>
      </trkpt>
      <trkpt lat="47.051" lon="15.52873">
        <ele>431.0489</ele>
        <time>2022-09-26T10:54:36.425Z</time>
      </trkpt>
      <trkpt lat="47.05111" lon="15.5287">
        <ele>431.208463</ele>
        <time>2022-09-26T10:54:39.436Z</time>
      </trkpt>
      <trkpt lat="47.0512" lon="15.52867">
        <ele>431.348651</ele>
        <time>2022-09-26T10:54:42.442Z</time>
      </trkpt>
      <trkpt lat="47.05129" lon="15.52863">
        <ele>431.486847</ele>
        <time>2022-09-26T10:54:45.446Z</time>
      </trkpt>
      <trkpt lat="47.05138" lon="15.52861">
        <ele>431.627703</ele>
        <time>2022-09-26T10:54:48.467Z</time>
      </trkpt>
      <trkpt lat="47.05147" lon="15.52858">
        <ele>432.036419</ele>
        <time>2022-09-26T10:54:51.472Z</time>
      </trkpt>
      <trkpt lat="47.05156" lon="15.52856">
        <ele>432.474176</ele>
        <time>2022-09-26T10:54:54.440Z</time>
      </trkpt>
      <trkpt lat="47.05168" lon="15.52854">
        <ele>433.017645</ele>
        <time>2022-09-26T10:54:58.467Z</time>
      </trkpt>
      <trkpt lat="47.05179" lon="15.52852">
        <ele>433.55064</ele>
        <time>2022-09-26T10:55:02.439Z</time>
      </trkpt>
      <trkpt lat="47.05191" lon="15.52852">
        <ele>434.077205</ele>
        <time>2022-09-26T10:55:06.439Z</time>
      </trkpt>
      <trkpt lat="47.05201" lon="15.52852">
        <ele>434.57573</ele>
        <time>2022-09-26T10:55:10.454Z</time>
      </trkpt>
      <trkpt lat="47.05211" lon="15.52853">
        <ele>435.046824</ele>
        <time>2022-09-26T10:55:14.460Z</time>
      </trkpt>
      <trkpt lat="47.05221" lon="15.52853">
        <ele>435.484792</ele>
        <time>2022-09-26T10:55:17.455Z</time>
      </trkpt>
      <trkpt lat="47.05232" lon="15.52855">
        <ele>436.032895</ele>
        <time>2022-09-26T10:55:21.472Z</time>
      </trkpt>
      <trkpt lat="47.05243" lon="15.52858">
        <ele>436.533865</ele>
        <time>2022-09-26T10:55:25.446Z</time>
      </trkpt>
      <trkpt lat="47.05253" lon="15.52862">
        <ele>437.004166</ele>
        <time>2022-09-26T10:55:28.467Z</time>
      </trkpt>
      <trkpt lat="47.05262" lon="15.52866">
        <ele>437.454803</ele>
        <time>2022-09-26T10:55:31.454Z</time>
      </trkpt>
      <trkpt lat="47.05272" lon="15.52871">
        <ele>437.969112</ele>
        <time>2022-09-26T10:55:35.433Z</time>
      </trkpt>
      <trkpt lat="47.05283" lon="15.52877">
        <ele>438.505105</ele>
        <time>2022-09-26T10:55:39.445Z</time>
      </trkpt>
      <trkpt lat="47.05295" lon="15.52882">
        <ele>439.067249</ele>
        <time>2022-09-26T10:55:43.453Z</time>
      </trkpt>
      <trkpt lat="47.05304" lon="15.52887">
        <ele>439.504647</ele>
        <time>2022-09-26T10:55:46.472Z</time>
      </trkpt>
      <trkpt lat="47.05313" lon="15.52893">
        <ele>439.957651</ele>
        <time>2022-09-26T10:55:49.448Z</time>
      </trkpt>
      <trkpt lat="47.05322" lon="15.52898">
        <ele>440.065865</ele>
        <time>2022-09-26T10:55:52.461Z</time>
      </trkpt>
      <trkpt lat="47.05332" lon="15.52905">
        <ele>440.125031</ele>
        <time>2022-09-26T10:55:55.447Z</time>
      </trkpt>
      <trkpt lat="47.05341" lon="15.52911">
        <ele>440.181855</ele>
        <time>2022-09-26T10:55:58.442Z</time>
      </trkpt>
      <trkpt lat="47.05351" lon="15.52918">
        <ele>440.238211</ele>
        <time>2022-09-26T10:56:01.455Z</time>
      </trkpt>
      <trkpt lat="47.05361" lon="15.52924">
        <ele>440.296317</ele>
        <time>2022-09-26T10:56:04.494Z</time>
      </trkpt>
      <trkpt lat="47.05372" lon="15.5293">
        <ele>440.362254</ele>
        <time>2022-09-26T10:56:07.446Z</time>
      </trkpt>
      <trkpt lat="47.05385" lon="15.52936">
        <ele>440.433508</ele>
        <time>2022-09-26T10:56:10.455Z</time>
      </trkpt>
      <trkpt lat="47.05397" lon="15.52943">
        <ele>440.503127</ele>
        <time>2022-09-26T10:56:13.435Z</time>
      </trkpt>
      <trkpt lat="47.05408" lon="15.5295">
        <ele>440.565421</ele>
        <time>2022-09-26T10:56:16.437Z</time>
      </trkpt>
      <trkpt lat="47.05418" lon="15.52956">
        <ele>440.626161</ele>
        <time>2022-09-26T10:56:19.449Z</time>
      </trkpt>
      <trkpt lat="47.05427" lon="15.52963">
        <ele>440.682707</ele>
        <time>2022-09-26T10:56:22.446Z</time>
      </trkpt>
      <trkpt lat="47.05437" lon="15.52968">
        <ele>440.738644</ele>
        <time>2022-09-26T10:56:25.462Z</time>
      </trkpt>
      <trkpt lat="47.05447" lon="15.52973">
        <ele>440.79609</ele>
        <time>2022-09-26T10:56:28.453Z</time>
      </trkpt>
      <trkpt lat="47.05457" lon="15.52979">
        <ele>440.851149</ele>
        <time>2022-09-26T10:56:31.435Z</time>
      </trkpt>
      <trkpt lat="47.05467" lon="15.52984">
        <ele>440.907715</ele>
        <time>2022-09-26T10:56:34.449Z</time>
      </trkpt>
      <trkpt lat="47.05477" lon="15.52989">
        <ele>440.96542</ele>
        <time>2022-09-26T10:56:37.475Z</time>
      </trkpt>
      <trkpt lat="47.05486" lon="15.52994">
        <ele>441.131554</ele>
        <time>2022-09-26T10:56:40.458Z</time>
      </trkpt>
      <trkpt lat="47.05495" lon="15.52998">
        <ele>441.354463</ele>
        <time>2022-09-26T10:56:43.443Z</time>
      </trkpt>
      <trkpt lat="47.05505" lon="15.53004">
        <ele>441.615123</ele>
        <time>2022-09-26T10:56:47.457Z</time>
      </trkpt>
      <trkpt lat="47.05516" lon="15.5301">
        <ele>441.899702</ele>
        <time>2022-09-26T10:56:51.452Z</time>
      </trkpt>
      <trkpt lat="47.05524" lon="15.53016">
        <ele>442.121041</ele>
        <time>2022-09-26T10:56:54.481Z</time>
      </trkpt>
      <trkpt lat="47.05535" lon="15.53023">
        <ele>442.406432</ele>
        <time>2022-09-26T10:56:58.430Z</time>
      </trkpt>
      <trkpt lat="47.05545" lon="15.5303">
        <ele>442.683998</ele>
        <time>2022-09-26T10:57:02.464Z</time>
      </trkpt>
      <trkpt lat="47.05554" lon="15.53037">
        <ele>442.940401</ele>
        <time>2022-09-26T10:57:06.444Z</time>
      </trkpt>
      <trkpt lat="47.05563" lon="15.53043">
        <ele>443.171282</ele>
        <time>2022-09-26T10:57:10.464Z</time>
      </trkpt>
      <trkpt lat="47.05571" lon="15.53049">
        <ele>443.397742</ele>
        <time>2022-09-26T10:57:14.457Z</time>
      </trkpt>
      <trkpt lat="47.05581" lon="15.53055">
        <ele>443.652052</ele>
        <time>2022-09-26T10:57:18.446Z</time>
      </trkpt>
      <trkpt lat="47.0559" lon="15.53062">
        <ele>443.910627</ele>
        <time>2022-09-26T10:57:22.484Z</time>
      </trkpt>
      <trkpt lat="47.05599" lon="15.53069">
        <ele>444.148777</ele>
        <time>2022-09-26T10:57:26.431Z</time>
      </trkpt>
      <trkpt lat="47.05608" lon="15.53076">
        <ele>444.404504</ele>
        <time>2022-09-26T10:57:30.460Z</time>
      </trkpt>
      <trkpt lat="47.05618" lon="15.53083">
        <ele>444.660895</ele>
        <time>2022-09-26T10:57:34.450Z</time>
      </trkpt>
      <trkpt lat="47.05626" lon="15.53091">
        <ele>444.91017</ele>
        <time>2022-09-26T10:57:38.474Z</time>
      </trkpt>
      <trkpt lat="47.05633" lon="15.531">
        <ele>445.13104</ele>
        <time>2022-09-26T10:57:41.449Z</time>
      </trkpt>
      <trkpt lat="47.05638" lon="15.53114">
        <ele>445.371784</ele>
        <time>2022-09-26T10:57:44.523Z</time>
      </trkpt>
      <trkpt lat="47.05642" lon="15.53129">
        <ele>445.300671</ele>
        <time>2022-09-26T10:57:47.491Z</time>
      </trkpt>
      <trkpt lat="47.05647" lon="15.53145">
        <ele>445.223969</ele>
        <time>2022-09-26T10:57:50.445Z</time>
      </trkpt>
      <trkpt lat="47.05653" lon="15.53163">
        <ele>445.140739</ele>
        <time>2022-09-26T10:57:53.440Z</time>
      </trkpt>
      <trkpt lat="47.05657" lon="15.53177">
        <ele>445.07345</ele>
        <time>2022-09-26T10:57:55.488Z</time>
      </trkpt>
      <trkpt lat="47.05661" lon="15.53192">
        <ele>445.006959</ele>
        <time>2022-09-26T10:57:57.447Z</time>
      </trkpt>
      <trkpt lat="47.05665" lon="15.53207">
        <ele>444.936061</ele>
        <time>2022-09-26T10:57:59.445Z</time>
      </trkpt>
      <trkpt lat="47.05669" lon="15.53223">
        <ele>444.863515</ele>
        <time>2022-09-26T10:58:01.485Z</time>
      </trkpt>
      <trkpt lat="47.05673" lon="15.53241">
        <ele>444.783073</ele>
        <time>2022-09-26T10:58:03.455Z</time>
      </trkpt>
      <trkpt lat="47.05678" lon="15.53258">
        <ele>444.70201</ele>
        <time>2022-09-26T10:58:05.443Z</time>
      </trkpt>
      <trkpt lat="47.05682" lon="15.53277">
        <ele>444.615895</ele>
        <time>2022-09-26T10:58:07.447Z</time>
      </trkpt>
      <trkpt lat="47.05686" lon="15.53297">
        <ele>444.527281</ele>
        <time>2022-09-26T10:58:09.482Z</time>
      </trkpt>
      <trkpt lat="47.0569" lon="15.53316">
        <ele>444.441355</ele>
        <time>2022-09-26T10:58:11.449Z</time>
      </trkpt>
      <trkpt lat="47.05694" lon="15.53334">
        <ele>444.360309</ele>
        <time>2022-09-26T10:58:13.515Z</time>
      </trkpt>
      <trkpt lat="47.05695" lon="15.53354">
        <ele>444.275975</ele>
        <time>2022-09-26T10:58:15.457Z</time>
      </trkpt>
      <trkpt lat="47.05697" lon="15.53369">
        <ele>444.17817</ele>
        <time>2022-09-26T10:58:17.456Z</time>
      </trkpt>
      <trkpt lat="47.05699" lon="15.53384">
        <ele>444.053966</ele>
        <time>2022-09-26T10:58:19.460Z</time>
      </trkpt>
      <trkpt lat="47.05702" lon="15.53396">
        <ele>443.941604</ele>
        <time>2022-09-26T10:58:21.466Z</time>
      </trkpt>
      <trkpt lat="47.05708" lon="15.53412">
        <ele>443.788811</ele>
        <time>2022-09-26T10:58:24.453Z</time>
      </trkpt>
      <trkpt lat="47.05715" lon="15.53425">
        <ele>443.647878</ele>
        <time>2022-09-26T10:58:27.451Z</time>
      </trkpt>
      <trkpt lat="47.05719" lon="15.5344">
        <ele>443.514499</ele>
        <time>2022-09-26T10:58:30.454Z</time>
      </trkpt>
      <trkpt lat="47.05723" lon="15.53453">
        <ele>443.393375</ele>
        <time>2022-09-26T10:58:33.452Z</time>
      </trkpt>
      <trkpt lat="47.05726" lon="15.53467">
        <ele>443.268742</ele>
        <time>2022-09-26T10:58:36.462Z</time>
      </trkpt>
      <trkpt lat="47.0573" lon="15.53482">
        <ele>443.138903</ele>
        <time>2022-09-26T10:58:39.444Z</time>
      </trkpt>
      <trkpt lat="47.05734" lon="15.53496">
        <ele>443.014989</ele>
        <time>2022-09-26T10:58:42.464Z</time>
      </trkpt>
      <trkpt lat="47.05737" lon="15.5351">
        <ele>442.889508</ele>
        <time>2022-09-26T10:58:45.447Z</time>
      </trkpt>
      <trkpt lat="47.05741" lon="15.53523">
        <ele>442.767487</ele>
        <time>2022-09-26T10:58:48.453Z</time>
      </trkpt>
      <trkpt lat="47.05745" lon="15.53539">
        <ele>442.628059</ele>
        <time>2022-09-26T10:58:52.480Z</time>
      </trkpt>
      <trkpt lat="47.05748" lon="15.53555">
        <ele>442.485914</ele>
        <time>2022-09-26T10:58:56.453Z</time>
      </trkpt>
      <trkpt lat="47.0575" lon="15.53569">
        <ele>442.368162</ele>
        <time>2022-09-26T10:58:59.460Z</time>
      </trkpt>
      <trkpt lat="47.05753" lon="15.53583">
        <ele>442.242504</ele>
        <time>2022-09-26T10:59:02.480Z</time>
      </trkpt>
      <trkpt lat="47.05755" lon="15.53601">
        <ele>442.093052</ele>
        <time>2022-09-26T10:59:05.447Z</time>
      </trkpt>
      <trkpt lat="47.05758" lon="15.5362">
        <ele>441.883108</ele>
        <time>2022-09-26T10:59:08.447Z</time>
      </trkpt>
      <trkpt lat="47.0576" lon="15.53633">
        <ele>441.720291</ele>
        <time>2022-09-26T10:59:10.451Z</time>
      </trkpt>
      <trkpt lat="47.05761" lon="15.53646">
        <ele>441.562012</ele>
        <time>2022-09-26T10:59:12.467Z</time>
      </trkpt>
      <trkpt lat="47.05763" lon="15.53666">
        <ele>441.323867</ele>
        <time>2022-09-26T10:59:15.438Z</time>
      </trkpt>
      <trkpt lat="47.05764" lon="15.5368">
        <ele>441.160257</ele>
        <time>2022-09-26T10:59:17.451Z</time>
      </trkpt>
      <trkpt lat="47.05766" lon="15.537">
        <ele>440.91851</ele>
        <time>2022-09-26T10:59:20.450Z</time>
      </trkpt>
      <trkpt lat="47.05767" lon="15.53714">
        <ele>440.749852</ele>
        <time>2022-09-26T10:59:22.453Z</time>
      </trkpt>
      <trkpt lat="47.05767" lon="15.53728">
        <ele>440.576883</ele>
        <time>2022-09-26T10:59:24.467Z</time>
      </trkpt>
      <trkpt lat="47.05768" lon="15.53742">
        <ele>440.404821</ele>
        <time>2022-09-26T10:59:26.451Z</time>
      </trkpt>
      <trkpt lat="47.05769" lon="15.53757">
        <ele>440.235145</ele>
        <time>2022-09-26T10:59:28.454Z</time>
      </trkpt>
      <trkpt lat="47.0577" lon="15.53776">
        <ele>439.999654</ele>
        <time>2022-09-26T10:59:31.458Z</time>
      </trkpt>
      <trkpt lat="47.05771" lon="15.53795">
        <ele>439.76984</ele>
        <time>2022-09-26T10:59:34.452Z</time>
      </trkpt>
      <trkpt lat="47.05772" lon="15.53814">
        <ele>439.545101</ele>
        <time>2022-09-26T10:59:37.451Z</time>
      </trkpt>
      <trkpt lat="47.05773" lon="15.53833">
        <ele>439.314819</ele>
        <time>2022-09-26T10:59:40.480Z</time>
      </trkpt>
      <trkpt lat="47.05774" lon="15.53852">
        <ele>439.090521</ele>
        <time>2022-09-26T10:59:43.439Z</time>
      </trkpt>
      <trkpt lat="47.05774" lon="15.53869">
        <ele>438.880377</ele>
        <time>2022-09-26T10:59:46.437Z</time>
      </trkpt>
      <trkpt lat="47.05775" lon="15.53887">
        <ele>438.923018</ele>
        <time>2022-09-26T10:59:49.435Z</time>
      </trkpt>
      <trkpt lat="47.05776" lon="15.53905">
        <ele>438.984108</ele>
        <time>2022-09-26T10:59:52.476Z</time>
      </trkpt>
      <trkpt lat="47.05778" lon="15.53923">
        <ele>439.047852</ele>
        <time>2022-09-26T10:59:55.466Z</time>
      </trkpt>
      <trkpt lat="47.05778" lon="15.53942">
        <ele>439.111864</ele>
        <time>2022-09-26T10:59:58.489Z</time>
      </trkpt>
      <trkpt lat="47.05778" lon="15.53961">
        <ele>439.175503</ele>
        <time>2022-09-26T11:00:01.450Z</time>
      </trkpt>
      <trkpt lat="47.0578" lon="15.53977">
        <ele>439.232865</ele>
        <time>2022-09-26T11:00:04.500Z</time>
      </trkpt>
      <trkpt lat="47.05781" lon="15.53994">
        <ele>439.291855</ele>
        <time>2022-09-26T11:00:07.467Z</time>
      </trkpt>
      <trkpt lat="47.05784" lon="15.54012">
        <ele>439.354851</ele>
        <time>2022-09-26T11:00:10.464Z</time>
      </trkpt>
      <trkpt lat="47.05787" lon="15.5403">
        <ele>439.418673</ele>
        <time>2022-09-26T11:00:13.459Z</time>
      </trkpt>
      <trkpt lat="47.05793" lon="15.54047">
        <ele>439.481602</ele>
        <time>2022-09-26T11:00:16.429Z</time>
      </trkpt>
      <trkpt lat="47.05798" lon="15.54061">
        <ele>439.534912</ele>
        <time>2022-09-26T11:00:19.457Z</time>
      </trkpt>
      <trkpt lat="47.05804" lon="15.54071">
        <ele>439.582859</ele>
        <time>2022-09-26T11:00:22.449Z</time>
      </trkpt>
      <trkpt lat="47.05811" lon="15.54081">
        <ele>439.632311</ele>
        <time>2022-09-26T11:00:25.451Z</time>
      </trkpt>
      <trkpt lat="47.05819" lon="15.54091">
        <ele>439.683601</ele>
        <time>2022-09-26T11:00:28.441Z</time>
      </trkpt>
      <trkpt lat="47.05826" lon="15.541">
        <ele>439.730647</ele>
        <time>2022-09-26T11:00:31.445Z</time>
      </trkpt>
      <trkpt lat="47.05835" lon="15.54112">
        <ele>439.943732</ele>
        <time>2022-09-26T11:00:35.459Z</time>
      </trkpt>
      <trkpt lat="47.05842" lon="15.54121">
        <ele>440.345218</ele>
        <time>2022-09-26T11:00:38.459Z</time>
      </trkpt>
      <trkpt lat="47.05851" lon="15.54132">
        <ele>440.847547</ele>
        <time>2022-09-26T11:00:42.456Z</time>
      </trkpt>
      <trkpt lat="47.05861" lon="15.54141">
        <ele>441.325648</ele>
        <time>2022-09-26T11:00:46.436Z</time>
      </trkpt>
      <trkpt lat="47.05871" lon="15.54148">
        <ele>441.790824</ele>
        <time>2022-09-26T11:00:50.453Z</time>
      </trkpt>
      <trkpt lat="47.0588" lon="15.54155">
        <ele>442.232876</ele>
        <time>2022-09-26T11:00:54.475Z</time>
      </trkpt>
      <trkpt lat="47.0589" lon="15.54162">
        <ele>442.678672</ele>
        <time>2022-09-26T11:00:58.427Z</time>
      </trkpt>
      <trkpt lat="47.05899" lon="15.54168">
        <ele>443.112103</ele>
        <time>2022-09-26T11:01:02.459Z</time>
      </trkpt>
      <trkpt lat="47.05908" lon="15.54175">
        <ele>443.53653</ele>
        <time>2022-09-26T11:01:07.468Z</time>
      </trkpt>
      <trkpt lat="47.05916" lon="15.54184">
        <ele>443.969041</ele>
        <time>2022-09-26T11:01:12.464Z</time>
      </trkpt>
      <trkpt lat="47.05922" lon="15.54194">
        <ele>444.360718</ele>
        <time>2022-09-26T11:01:16.430Z</time>
      </trkpt>
      <trkpt lat="47.05927" lon="15.54206">
        <ele>444.740352</ele>
        <time>2022-09-26T11:01:20.448Z</time>
      </trkpt>
      <trkpt lat="47.05931" lon="15.5422">
        <ele>445.182983</ele>
        <time>2022-09-26T11:01:25.445Z</time>
      </trkpt>
      <trkpt lat="47.05934" lon="15.54233">
        <ele>445.573932</ele>
        <time>2022-09-26T11:01:29.448Z</time>
      </trkpt>
      <trkpt lat="47.05936" lon="15.54248">
        <ele>446.005164</ele>
        <time>2022-09-26T11:01:33.484Z</time>
      </trkpt>
      <trkpt lat="47.05938" lon="15.54263">
        <ele>446.450768</ele>
        <time>2022-09-26T11:01:37.451Z</time>
      </trkpt>
      <trkpt lat="47.0594" lon="15.54279">
        <ele>446.913293</ele>
        <time>2022-09-26T11:01:41.433Z</time>
      </trkpt>
      <trkpt lat="47.05942" lon="15.54296">
        <ele>447.326714</ele>
        <time>2022-09-26T11:01:45.462Z</time>
      </trkpt>
      <trkpt lat="47.05943" lon="15.54313">
        <ele>447.271424</ele>
        <time>2022-09-26T11:01:49.481Z</time>
      </trkpt>
      <trkpt lat="47.05945" lon="15.54326">
        <ele>447.228825</ele>
        <time>2022-09-26T11:01:52.446Z</time>
      </trkpt>
      <trkpt lat="47.05946" lon="15.54339">
        <ele>447.18556</ele>
        <time>2022-09-26T11:01:55.471Z</time>
      </trkpt>
      <trkpt lat="47.05948" lon="15.54356">
        <ele>447.129681</ele>
        <time>2022-09-26T11:01:59.454Z</time>
      </trkpt>
      <trkpt lat="47.0595" lon="15.5437">
        <ele>447.08645</ele>
        <time>2022-09-26T11:02:02.463Z</time>
      </trkpt>
      <trkpt lat="47.05952" lon="15.54386">
        <ele>447.031675</ele>
        <time>2022-09-26T11:02:06.433Z</time>
      </trkpt>
      <trkpt lat="47.05955" lon="15.54402">
        <ele>446.979871</ele>
        <time>2022-09-26T11:02:10.452Z</time>
      </trkpt>
      <trkpt lat="47.05957" lon="15.54419">
        <ele>446.925259</ele>
        <time>2022-09-26T11:02:14.455Z</time>
      </trkpt>
      <trkpt lat="47.05958" lon="15.54432">
        <ele>446.883036</ele>
        <time>2022-09-26T11:02:17.446Z</time>
      </trkpt>
      <trkpt lat="47.0596" lon="15.54449">
        <ele>446.826666</ele>
        <time>2022-09-26T11:02:21.448Z</time>
      </trkpt>
      <trkpt lat="47.05962" lon="15.54463">
        <ele>446.779568</ele>
        <time>2022-09-26T11:02:24.448Z</time>
      </trkpt>
      <trkpt lat="47.05966" lon="15.54478">
        <ele>446.728409</ele>
        <time>2022-09-26T11:02:27.464Z</time>
      </trkpt>
      <trkpt lat="47.0597" lon="15.54493">
        <ele>446.678918</ele>
        <time>2022-09-26T11:02:30.483Z</time>
      </trkpt>
      <trkpt lat="47.05974" lon="15.54507">
        <ele>446.629522</ele>
        <time>2022-09-26T11:02:33.528Z</time>
      </trkpt>
      <trkpt lat="47.05978" lon="15.54522">
        <ele>446.577096</ele>
        <time>2022-09-26T11:02:36.452Z</time>
      </trkpt>
      <trkpt lat="47.05982" lon="15.54537">
        <ele>446.526751</ele>
        <time>2022-09-26T11:02:39.448Z</time>
      </trkpt>
      <trkpt lat="47.05986" lon="15.54551">
        <ele>446.600737</ele>
        <time>2022-09-26T11:02:42.459Z</time>
      </trkpt>
      <trkpt lat="47.0599" lon="15.54566">
        <ele>447.131357</ele>
        <time>2022-09-26T11:02:45.463Z</time>
      </trkpt>
      <trkpt lat="47.05994" lon="15.54581">
        <ele>447.672413</ele>
        <time>2022-09-26T11:02:48.446Z</time>
      </trkpt>
      <trkpt lat="47.05998" lon="15.54596">
        <ele>448.216168</ele>
        <time>2022-09-26T11:02:51.453Z</time>
      </trkpt>
      <trkpt lat="47.06002" lon="15.54611">
        <ele>448.733087</ele>
        <time>2022-09-26T11:02:54.432Z</time>
      </trkpt>
      <trkpt lat="47.06005" lon="15.54627">
        <ele>449.260603</ele>
        <time>2022-09-26T11:02:57.440Z</time>
      </trkpt>
      <trkpt lat="47.06008" lon="15.54642">
        <ele>449.78255</ele>
        <time>2022-09-26T11:03:00.452Z</time>
      </trkpt>
      <trkpt lat="47.0601" lon="15.54656">
        <ele>450.261544</ele>
        <time>2022-09-26T11:03:03.454Z</time>
      </trkpt>
      <trkpt lat="47.06011" lon="15.54673">
        <ele>450.847661</ele>
        <time>2022-09-26T11:03:07.440Z</time>
      </trkpt>
      <trkpt lat="47.06013" lon="15.54688">
        <ele>451.333061</ele>
        <time>2022-09-26T11:03:11.466Z</time>
      </trkpt>
      <trkpt lat="47.06017" lon="15.547">
        <ele>451.796126</ele>
        <time>2022-09-26T11:03:15.447Z</time>
      </trkpt>
      <trkpt lat="47.06021" lon="15.54716">
        <ele>452.342056</ele>
        <time>2022-09-26T11:03:20.453Z</time>
      </trkpt>
      <trkpt lat="47.06025" lon="15.54728">
        <ele>452.80512</ele>
        <time>2022-09-26T11:03:24.455Z</time>
      </trkpt>
      <trkpt lat="47.06029" lon="15.54741">
        <ele>453.258066</ele>
        <time>2022-09-26T11:03:28.454Z</time>
      </trkpt>
      <trkpt lat="47.06032" lon="15.54755">
        <ele>453.756208</ele>
        <time>2022-09-26T11:03:32.448Z</time>
      </trkpt>
      <trkpt lat="47.06035" lon="15.5477">
        <ele>454.26221</ele>
        <time>2022-09-26T11:03:36.428Z</time>
      </trkpt>
      <trkpt lat="47.06039" lon="15.54784">
        <ele>454.779472</ele>
        <time>2022-09-26T11:03:40.457Z</time>
      </trkpt>
      <trkpt lat="47.06043" lon="15.54798">
        <ele>455.254981</ele>
        <time>2022-09-26T11:03:44.473Z</time>
      </trkpt>
      <trkpt lat="47.06046" lon="15.54811">
        <ele>455.601779</ele>
        <time>2022-09-26T11:03:48.445Z</time>
      </trkpt>
      <trkpt lat="47.0605" lon="15.54825">
        <ele>455.999333</ele>
        <time>2022-09-26T11:03:53.459Z</time>
      </trkpt>
      <trkpt lat="47.06053" lon="15.54839">
        <ele>456.372448</ele>
        <time>2022-09-26T11:03:57.450Z</time>
      </trkpt>
      <trkpt lat="47.06056" lon="15.54855">
        <ele>456.796348</ele>
        <time>2022-09-26T11:04:01.475Z</time>
      </trkpt>
      <trkpt lat="47.0606" lon="15.54869">
        <ele>457.188862</ele>
        <time>2022-09-26T11:04:05.464Z</time>
      </trkpt>
      <trkpt lat="47.06063" lon="15.54884">
        <ele>457.581271</ele>
        <time>2022-09-26T11:04:09.461Z</time>
      </trkpt>
      <trkpt lat="47.06067" lon="15.54898">
        <ele>457.984689</ele>
        <time>2022-09-26T11:04:13.460Z</time>
      </trkpt>
      <trkpt lat="47.06071" lon="15.54913">
        <ele>458.394505</ele>
        <time>2022-09-26T11:04:17.435Z</time>
      </trkpt>
      <trkpt lat="47.06075" lon="15.54928">
        <ele>458.795396</ele>
        <time>2022-09-26T11:04:21.484Z</time>
      </trkpt>
      <trkpt lat="47.06077" lon="15.54942">
        <ele>459.174739</ele>
        <time>2022-09-26T11:04:25.446Z</time>
      </trkpt>
      <trkpt lat="47.06081" lon="15.54958">
        <ele>459.586737</ele>
        <time>2022-09-26T11:04:29.452Z</time>
      </trkpt>
      <trkpt lat="47.06084" lon="15.54974">
        <ele>460.021869</ele>
        <time>2022-09-26T11:04:33.447Z</time>
      </trkpt>
      <trkpt lat="47.06087" lon="15.54987">
        <ele>460.369479</ele>
        <time>2022-09-26T11:04:36.453Z</time>
      </trkpt>
      <trkpt lat="47.06091" lon="15.55003">
        <ele>460.811556</ele>
        <time>2022-09-26T11:04:40.450Z</time>
      </trkpt>
      <trkpt lat="47.06094" lon="15.55017">
        <ele>461.190072</ele>
        <time>2022-09-26T11:04:44.457Z</time>
      </trkpt>
      <trkpt lat="47.06098" lon="15.55032">
        <ele>461.587622</ele>
        <time>2022-09-26T11:04:48.450Z</time>
      </trkpt>
      <trkpt lat="47.06103" lon="15.55047">
        <ele>461.948113</ele>
        <time>2022-09-26T11:04:52.456Z</time>
      </trkpt>
      <trkpt lat="47.06106" lon="15.55061">
        <ele>461.653841</ele>
        <time>2022-09-26T11:04:55.449Z</time>
      </trkpt>
      <trkpt lat="47.0611" lon="15.55075">
        <ele>461.350858</ele>
        <time>2022-09-26T11:04:58.450Z</time>
      </trkpt>
      <trkpt lat="47.06113" lon="15.55089">
        <ele>461.050796</ele>
        <time>2022-09-26T11:05:01.446Z</time>
      </trkpt>
      <trkpt lat="47.06116" lon="15.55102">
        <ele>460.756621</ele>
        <time>2022-09-26T11:05:04.453Z</time>
      </trkpt>
      <trkpt lat="47.06119" lon="15.55116">
        <ele>460.450814</ele>
        <time>2022-09-26T11:05:07.487Z</time>
      </trkpt>
      <trkpt lat="47.06123" lon="15.55132">
        <ele>460.115937</ele>
        <time>2022-09-26T11:05:10.469Z</time>
      </trkpt>
      <trkpt lat="47.06127" lon="15.55148">
        <ele>459.754747</ele>
        <time>2022-09-26T11:05:13.447Z</time>
      </trkpt>
      <trkpt lat="47.06132" lon="15.55166">
        <ele>459.359942</ele>
        <time>2022-09-26T11:05:16.444Z</time>
      </trkpt>
      <trkpt lat="47.06136" lon="15.5518">
        <ele>459.065671</ele>
        <time>2022-09-26T11:05:18.458Z</time>
      </trkpt>
      <trkpt lat="47.06139" lon="15.55193">
        <ele>458.767362</ele>
        <time>2022-09-26T11:05:20.461Z</time>
      </trkpt>
      <trkpt lat="47.06143" lon="15.55207">
        <ele>458.461142</ele>
        <time>2022-09-26T11:05:22.460Z</time>
      </trkpt>
      <trkpt lat="47.06147" lon="15.55222">
        <ele>458.140838</ele>
        <time>2022-09-26T11:05:24.481Z</time>
      </trkpt>
      <trkpt lat="47.0615" lon="15.55237">
        <ele>457.808921</ele>
        <time>2022-09-26T11:05:26.448Z</time>
      </trkpt>
      <trkpt lat="47.06154" lon="15.55252">
        <ele>457.482817</ele>
        <time>2022-09-26T11:05:28.468Z</time>
      </trkpt>
      <trkpt lat="47.06157" lon="15.55267">
        <ele>457.174131</ele>
        <time>2022-09-26T11:05:30.480Z</time>
      </trkpt>
      <trkpt lat="47.0616" lon="15.5528">
        <ele>456.876023</ele>
        <time>2022-09-26T11:05:32.460Z</time>
      </trkpt>
      <trkpt lat="47.06164" lon="15.55293">
        <ele>456.589411</ele>
        <time>2022-09-26T11:05:34.456Z</time>
      </trkpt>
      <trkpt lat="47.06169" lon="15.55312">
        <ele>457.164377</ele>
        <time>2022-09-26T11:05:37.453Z</time>
      </trkpt>
      <trkpt lat="47.06172" lon="15.55325">
        <ele>457.559531</ele>
        <time>2022-09-26T11:05:39.438Z</time>
      </trkpt>
      <trkpt lat="47.06176" lon="15.55337">
        <ele>457.953583</ele>
        <time>2022-09-26T11:05:41.451Z</time>
      </trkpt>
      <trkpt lat="47.06181" lon="15.55355">
        <ele>458.523657</ele>
        <time>2022-09-26T11:05:44.444Z</time>
      </trkpt>
      <trkpt lat="47.06183" lon="15.55369">
        <ele>458.918888</ele>
        <time>2022-09-26T11:05:46.443Z</time>
      </trkpt>
      <trkpt lat="47.06186" lon="15.55384">
        <ele>459.389264</ele>
        <time>2022-09-26T11:05:49.447Z</time>
      </trkpt>
      <trkpt lat="47.06189" lon="15.55399">
        <ele>459.839146</ele>
        <time>2022-09-26T11:05:52.456Z</time>
      </trkpt>
      <trkpt lat="47.06193" lon="15.55413">
        <ele>460.289411</ele>
        <time>2022-09-26T11:05:55.451Z</time>
      </trkpt>
      <trkpt lat="47.06197" lon="15.55428">
        <ele>460.761502</ele>
        <time>2022-09-26T11:05:58.444Z</time>
      </trkpt>
      <trkpt lat="47.06201" lon="15.55444">
        <ele>461.261454</ele>
        <time>2022-09-26T11:06:01.434Z</time>
      </trkpt>
      <trkpt lat="47.06205" lon="15.5546">
        <ele>461.746729</ele>
        <time>2022-09-26T11:06:04.444Z</time>
      </trkpt>
      <trkpt lat="47.06209" lon="15.55476">
        <ele>462.24668</ele>
        <time>2022-09-26T11:06:07.433Z</time>
      </trkpt>
      <trkpt lat="47.06214" lon="15.55492">
        <ele>462.763804</ele>
        <time>2022-09-26T11:06:10.449Z</time>
      </trkpt>
      <trkpt lat="47.06219" lon="15.55508">
        <ele>463.276222</ele>
        <time>2022-09-26T11:06:13.445Z</time>
      </trkpt>
      <trkpt lat="47.06223" lon="15.55524">
        <ele>463.771213</ele>
        <time>2022-09-26T11:06:16.436Z</time>
      </trkpt>
      <trkpt lat="47.06227" lon="15.55541">
        <ele>464.285336</ele>
        <time>2022-09-26T11:06:19.452Z</time>
      </trkpt>
      <trkpt lat="47.06232" lon="15.55557">
        <ele>464.469688</ele>
        <time>2022-09-26T11:06:22.435Z</time>
      </trkpt>
      <trkpt lat="47.06236" lon="15.55573">
        <ele>464.652174</ele>
        <time>2022-09-26T11:06:25.440Z</time>
      </trkpt>
      <trkpt lat="47.0624" lon="15.55589">
        <ele>464.837238</ele>
        <time>2022-09-26T11:06:28.447Z</time>
      </trkpt>
      <trkpt lat="47.06244" lon="15.55605">
        <ele>465.021145</ele>
        <time>2022-09-26T11:06:31.464Z</time>
      </trkpt>
      <trkpt lat="47.06248" lon="15.5562">
        <ele>465.197362</ele>
        <time>2022-09-26T11:06:34.454Z</time>
      </trkpt>
      <trkpt lat="47.06252" lon="15.55634">
        <ele>465.362779</ele>
        <time>2022-09-26T11:06:37.450Z</time>
      </trkpt>
      <trkpt lat="47.06256" lon="15.55648">
        <ele>465.525006</ele>
        <time>2022-09-26T11:06:40.462Z</time>
      </trkpt>
      <trkpt lat="47.0626" lon="15.55662">
        <ele>465.687834</ele>
        <time>2022-09-26T11:06:43.482Z</time>
      </trkpt>
      <trkpt lat="47.06264" lon="15.55675">
        <ele>465.837591</ele>
        <time>2022-09-26T11:06:46.445Z</time>
      </trkpt>
      <trkpt lat="47.06267" lon="15.55689">
        <ele>465.995974</ele>
        <time>2022-09-26T11:06:49.480Z</time>
      </trkpt>
      <trkpt lat="47.0627" lon="15.55702">
        <ele>466.14269</ele>
        <time>2022-09-26T11:06:52.452Z</time>
      </trkpt>
      <trkpt lat="47.06274" lon="15.55716">
        <ele>466.304165</ele>
        <time>2022-09-26T11:06:55.446Z</time>
      </trkpt>
      <trkpt lat="47.06277" lon="15.5573">
        <ele>466.461575</ele>
        <time>2022-09-26T11:06:58.450Z</time>
      </trkpt>
      <trkpt lat="47.06281" lon="15.55744">
        <ele>466.621993</ele>
        <time>2022-09-26T11:07:01.452Z</time>
      </trkpt>
      <trkpt lat="47.06286" lon="15.55758">
        <ele>466.790041</ele>
        <time>2022-09-26T11:07:04.484Z</time>
      </trkpt>
      <trkpt lat="47.06291" lon="15.55772">
        <ele>466.968814</ele>
        <time>2022-09-26T11:07:07.458Z</time>
      </trkpt>
      <trkpt lat="47.06296" lon="15.55788">
        <ele>466.977147</ele>
        <time>2022-09-26T11:07:10.448Z</time>
      </trkpt>
      <trkpt lat="47.063" lon="15.55804">
        <ele>466.356038</ele>
        <time>2022-09-26T11:07:13.446Z</time>
      </trkpt>
      <trkpt lat="47.06305" lon="15.55821">
        <ele>465.691246</ele>
        <time>2022-09-26T11:07:16.451Z</time>
      </trkpt>
      <trkpt lat="47.06308" lon="15.55839">
        <ele>464.994114</ele>
        <time>2022-09-26T11:07:19.430Z</time>
      </trkpt>
      <trkpt lat="47.06312" lon="15.55856">
        <ele>464.322368</ele>
        <time>2022-09-26T11:07:22.494Z</time>
      </trkpt>
      <trkpt lat="47.06316" lon="15.55874">
        <ele>463.639861</ele>
        <time>2022-09-26T11:07:25.444Z</time>
      </trkpt>
      <trkpt lat="47.06319" lon="15.55891">
        <ele>462.969031</ele>
        <time>2022-09-26T11:07:28.467Z</time>
      </trkpt>
      <trkpt lat="47.06322" lon="15.55904">
        <ele>462.461297</ele>
        <time>2022-09-26T11:07:30.455Z</time>
      </trkpt>
      <trkpt lat="47.06325" lon="15.55918">
        <ele>461.911617</ele>
        <time>2022-09-26T11:07:32.442Z</time>
      </trkpt>
      <trkpt lat="47.06328" lon="15.55932">
        <ele>461.405092</ele>
        <time>2022-09-26T11:07:34.452Z</time>
      </trkpt>
      <trkpt lat="47.06332" lon="15.55949">
        <ele>460.719061</ele>
        <time>2022-09-26T11:07:37.458Z</time>
      </trkpt>
      <trkpt lat="47.06335" lon="15.55965">
        <ele>460.099282</ele>
        <time>2022-09-26T11:07:40.442Z</time>
      </trkpt>
      <trkpt lat="47.06339" lon="15.55982">
        <ele>459.472786</ele>
        <time>2022-09-26T11:07:43.458Z</time>
      </trkpt>
      <trkpt lat="47.06342" lon="15.55998">
        <ele>458.853313</ele>
        <time>2022-09-26T11:07:46.478Z</time>
      </trkpt>
      <trkpt lat="47.06346" lon="15.56013">
        <ele>458.242657</ele>
        <time>2022-09-26T11:07:49.455Z</time>
      </trkpt>
      <trkpt lat="47.06349" lon="15.56029">
        <ele>457.635493</ele>
        <time>2022-09-26T11:07:52.458Z</time>
      </trkpt>
      <trkpt lat="47.06352" lon="15.56044">
        <ele>457.766275</ele>
        <time>2022-09-26T11:07:55.451Z</time>
      </trkpt>
      <trkpt lat="47.06357" lon="15.5606">
        <ele>458.482084</ele>
        <time>2022-09-26T11:07:58.446Z</time>
      </trkpt>
      <trkpt lat="47.06361" lon="15.56076">
        <ele>459.213765</ele>
        <time>2022-09-26T11:08:01.480Z</time>
      </trkpt>
      <trkpt lat="47.06365" lon="15.56091">
        <ele>459.908163</ele>
        <time>2022-09-26T11:08:04.459Z</time>
      </trkpt>
      <trkpt lat="47.06368" lon="15.56106">
        <ele>460.602727</ele>
        <time>2022-09-26T11:08:07.432Z</time>
      </trkpt>
      <trkpt lat="47.06371" lon="15.56121">
        <ele>461.244435</ele>
        <time>2022-09-26T11:08:10.451Z</time>
      </trkpt>
      <trkpt lat="47.06374" lon="15.56135">
        <ele>461.904865</ele>
        <time>2022-09-26T11:08:13.441Z</time>
      </trkpt>
      <trkpt lat="47.06377" lon="15.5615">
        <ele>462.555315</ele>
        <time>2022-09-26T11:08:16.436Z</time>
      </trkpt>
      <trkpt lat="47.0638" lon="15.56165">
        <ele>463.204884</ele>
        <time>2022-09-26T11:08:19.442Z</time>
      </trkpt>
      <trkpt lat="47.06382" lon="15.56179">
        <ele>463.847252</ele>
        <time>2022-09-26T11:08:22.457Z</time>
      </trkpt>
      <trkpt lat="47.06385" lon="15.56194">
        <ele>464.479845</ele>
        <time>2022-09-26T11:08:25.459Z</time>
      </trkpt>
      <trkpt lat="47.06387" lon="15.56208">
        <ele>465.104215</ele>
        <time>2022-09-26T11:08:28.455Z</time>
      </trkpt>
      <trkpt lat="47.06388" lon="15.56221">
        <ele>465.673437</ele>
        <time>2022-09-26T11:08:31.453Z</time>
      </trkpt>
      <trkpt lat="47.06389" lon="15.56238">
        <ele>466.417185</ele>
        <time>2022-09-26T11:08:35.448Z</time>
      </trkpt>
      <trkpt lat="47.06391" lon="15.56255">
        <ele>467.130899</ele>
        <time>2022-09-26T11:08:39.450Z</time>
      </trkpt>
      <trkpt lat="47.06391" lon="15.56272">
        <ele>467.862265</ele>
        <time>2022-09-26T11:08:43.447Z</time>
      </trkpt>
      <trkpt lat="47.06391" lon="15.56285">
        <ele>468.446102</ele>
        <time>2022-09-26T11:08:46.442Z</time>
      </trkpt>
      <trkpt lat="47.06392" lon="15.56302">
        <ele>469.449184</ele>
        <time>2022-09-26T11:08:50.442Z</time>
      </trkpt>
      <trkpt lat="47.06394" lon="15.56318">
        <ele>470.611821</ele>
        <time>2022-09-26T11:08:54.454Z</time>
      </trkpt>
      <trkpt lat="47.06395" lon="15.56334">
        <ele>471.694637</ele>
        <time>2022-09-26T11:08:58.455Z</time>
      </trkpt>
      <trkpt lat="47.06395" lon="15.5635">
        <ele>472.769057</ele>
        <time>2022-09-26T11:09:02.484Z</time>
      </trkpt>
      <trkpt lat="47.06396" lon="15.56366">
        <ele>473.885748</ele>
        <time>2022-09-26T11:09:06.464Z</time>
      </trkpt>
      <trkpt lat="47.06396" lon="15.5638">
        <ele>474.859261</ele>
        <time>2022-09-26T11:09:10.439Z</time>
      </trkpt>
      <trkpt lat="47.06397" lon="15.56394">
        <ele>475.845268</ele>
        <time>2022-09-26T11:09:14.510Z</time>
      </trkpt>
      <trkpt lat="47.06397" lon="15.56408">
        <ele>476.768059</ele>
        <time>2022-09-26T11:09:18.455Z</time>
      </trkpt>
      <trkpt lat="47.06397" lon="15.56423">
        <ele>477.822406</ele>
        <time>2022-09-26T11:09:22.431Z</time>
      </trkpt>
      <trkpt lat="47.06398" lon="15.56437">
        <ele>478.773169</ele>
        <time>2022-09-26T11:09:26.444Z</time>
      </trkpt>
      <trkpt lat="47.06398" lon="15.56452">
        <ele>479.806873</ele>
        <time>2022-09-26T11:09:30.442Z</time>
      </trkpt>
      <trkpt lat="47.06398" lon="15.56466">
        <ele>480.778653</ele>
        <time>2022-09-26T11:09:34.441Z</time>
      </trkpt>
      <trkpt lat="47.06399" lon="15.5648">
        <ele>481.716033</ele>
        <time>2022-09-26T11:09:38.447Z</time>
      </trkpt>
      <trkpt lat="47.06398" lon="15.56495">
        <ele>482.783807</ele>
        <time>2022-09-26T11:09:42.446Z</time>
      </trkpt>
      <trkpt lat="47.06398" lon="15.5651">
        <ele>483.811625</ele>
        <time>2022-09-26T11:09:46.429Z</time>
      </trkpt>
      <trkpt lat="47.06398" lon="15.56525">
        <ele>484.830815</ele>
        <time>2022-09-26T11:09:50.452Z</time>
      </trkpt>
      <trkpt lat="47.06397" lon="15.5654">
        <ele>485.872382</ele>
        <time>2022-09-26T11:09:54.454Z</time>
      </trkpt>
      <trkpt lat="47.06397" lon="15.56556">
        <ele>486.798851</ele>
        <time>2022-09-26T11:09:58.493Z</time>
      </trkpt>
      <trkpt lat="47.06396" lon="15.56574">
        <ele>486.239488</ele>
        <time>2022-09-26T11:10:02.449Z</time>
      </trkpt>
      <trkpt lat="47.06397" lon="15.56588">
        <ele>485.784764</ele>
        <time>2022-09-26T11:10:05.450Z</time>
      </trkpt>
      <trkpt lat="47.06397" lon="15.56602">
        <ele>485.333504</ele>
        <time>2022-09-26T11:10:08.450Z</time>
      </trkpt>
      <trkpt lat="47.06397" lon="15.56615">
        <ele>484.910704</ele>
        <time>2022-09-26T11:10:11.463Z</time>
      </trkpt>
      <trkpt lat="47.06397" lon="15.5663">
        <ele>484.446831</ele>
        <time>2022-09-26T11:10:14.460Z</time>
      </trkpt>
      <trkpt lat="47.06396" lon="15.56644">
        <ele>484.008277</ele>
        <time>2022-09-26T11:10:17.450Z</time>
      </trkpt>
      <trkpt lat="47.06397" lon="15.56661">
        <ele>483.471248</ele>
        <time>2022-09-26T11:10:21.441Z</time>
      </trkpt>
      <trkpt lat="47.06396" lon="15.56677">
        <ele>482.943749</ele>
        <time>2022-09-26T11:10:25.449Z</time>
      </trkpt>
      <trkpt lat="47.06396" lon="15.5669">
        <ele>482.523943</ele>
        <time>2022-09-26T11:10:28.444Z</time>
      </trkpt>
      <trkpt lat="47.06396" lon="15.56708">
        <ele>481.974108</ele>
        <time>2022-09-26T11:10:32.453Z</time>
      </trkpt>
      <trkpt lat="47.06396" lon="15.56726">
        <ele>481.408545</ele>
        <time>2022-09-26T11:10:36.428Z</time>
      </trkpt>
      <trkpt lat="47.06396" lon="15.56739">
        <ele>480.973168</ele>
        <time>2022-09-26T11:10:39.454Z</time>
      </trkpt>
      <trkpt lat="47.06396" lon="15.56756">
        <ele>480.433022</ele>
        <time>2022-09-26T11:10:43.448Z</time>
      </trkpt>
      <trkpt lat="47.06396" lon="15.56773">
        <ele>479.911939</ele>
        <time>2022-09-26T11:10:47.451Z</time>
      </trkpt>
      <trkpt lat="47.06396" lon="15.5679">
        <ele>479.368316</ele>
        <time>2022-09-26T11:10:51.458Z</time>
      </trkpt>
      <trkpt lat="47.06397" lon="15.56807">
        <ele>478.824934</ele>
        <time>2022-09-26T11:10:55.460Z</time>
      </trkpt>
      <trkpt lat="47.06396" lon="15.56824">
        <ele>478.462878</ele>
        <time>2022-09-26T11:10:59.470Z</time>
      </trkpt>
      <trkpt lat="47.06397" lon="15.56842">
        <ele>478.449824</ele>
        <time>2022-09-26T11:11:03.447Z</time>
      </trkpt>
      <trkpt lat="47.06398" lon="15.56858">
        <ele>478.437451</ele>
        <time>2022-09-26T11:11:07.444Z</time>
      </trkpt>
      <trkpt lat="47.06398" lon="15.56872">
        <ele>478.42735</ele>
        <time>2022-09-26T11:11:10.507Z</time>
      </trkpt>
      <trkpt lat="47.06399" lon="15.56888">
        <ele>478.414924</ele>
        <time>2022-09-26T11:11:14.456Z</time>
      </trkpt>
      <trkpt lat="47.064" lon="15.56906">
        <ele>478.401796</ele>
        <time>2022-09-26T11:11:18.465Z</time>
      </trkpt>
      <trkpt lat="47.06401" lon="15.56923">
        <ele>478.389032</ele>
        <time>2022-09-26T11:11:22.448Z</time>
      </trkpt>
      <trkpt lat="47.06402" lon="15.56939">
        <ele>478.37652</ele>
        <time>2022-09-26T11:11:26.481Z</time>
      </trkpt>
      <trkpt lat="47.06404" lon="15.56956">
        <ele>478.363984</ele>
        <time>2022-09-26T11:11:30.446Z</time>
      </trkpt>
      <trkpt lat="47.06406" lon="15.56973">
        <ele>478.351143</ele>
        <time>2022-09-26T11:11:34.455Z</time>
      </trkpt>
      <trkpt lat="47.0641" lon="15.56989">
        <ele>478.338709</ele>
        <time>2022-09-26T11:11:38.486Z</time>
      </trkpt>
      <trkpt lat="47.06413" lon="15.57003">
        <ele>478.327094</ele>
        <time>2022-09-26T11:11:42.447Z</time>
      </trkpt>
      <trkpt lat="47.06416" lon="15.57018">
        <ele>478.315269</ele>
        <time>2022-09-26T11:11:46.446Z</time>
      </trkpt>
      <trkpt lat="47.06421" lon="15.57034">
        <ele>478.30268</ele>
        <time>2022-09-26T11:11:50.450Z</time>
      </trkpt>
      <trkpt lat="47.06424" lon="15.5705">
        <ele>478.289933</ele>
        <time>2022-09-26T11:11:54.439Z</time>
      </trkpt>
      <trkpt lat="47.06426" lon="15.57065">
        <ele>478.278967</ele>
        <time>2022-09-26T11:11:57.448Z</time>
      </trkpt>
      <trkpt lat="47.06429" lon="15.57078">
        <ele>478.286285</ele>
        <time>2022-09-26T11:12:00.473Z</time>
      </trkpt>
      <trkpt lat="47.06433" lon="15.57092">
        <ele>478.394089</ele>
        <time>2022-09-26T11:12:03.451Z</time>
      </trkpt>
      <trkpt lat="47.06436" lon="15.57105">
        <ele>478.498019</ele>
        <time>2022-09-26T11:12:06.474Z</time>
      </trkpt>
      <trkpt lat="47.0644" lon="15.57118">
        <ele>478.596778</ele>
        <time>2022-09-26T11:12:09.428Z</time>
      </trkpt>
      <trkpt lat="47.06443" lon="15.57131">
        <ele>478.697545</ele>
        <time>2022-09-26T11:12:12.481Z</time>
      </trkpt>
      <trkpt lat="47.06447" lon="15.57144">
        <ele>478.803307</ele>
        <time>2022-09-26T11:12:15.452Z</time>
      </trkpt>
      <trkpt lat="47.0645" lon="15.57157">
        <ele>478.905514</ele>
        <time>2022-09-26T11:12:18.460Z</time>
      </trkpt>
      <trkpt lat="47.06453" lon="15.5717">
        <ele>479.002931</ele>
        <time>2022-09-26T11:12:21.474Z</time>
      </trkpt>
      <trkpt lat="47.06456" lon="15.57182">
        <ele>479.100347</ele>
        <time>2022-09-26T11:12:24.427Z</time>
      </trkpt>
      <trkpt lat="47.0646" lon="15.57195">
        <ele>479.197184</ele>
        <time>2022-09-26T11:12:27.451Z</time>
      </trkpt>
      <trkpt lat="47.06463" lon="15.57207">
        <ele>479.295712</ele>
        <time>2022-09-26T11:12:30.439Z</time>
      </trkpt>
      <trkpt lat="47.06468" lon="15.57223">
        <ele>479.418083</ele>
        <time>2022-09-26T11:12:34.477Z</time>
      </trkpt>
      <trkpt lat="47.06472" lon="15.57239">
        <ele>479.545448</ele>
        <time>2022-09-26T11:12:38.440Z</time>
      </trkpt>
      <trkpt lat="47.06478" lon="15.57254">
        <ele>479.671157</ele>
        <time>2022-09-26T11:12:42.468Z</time>
      </trkpt>
      <trkpt lat="47.06482" lon="15.57269">
        <ele>479.795368</ele>
        <time>2022-09-26T11:12:46.442Z</time>
      </trkpt>
      <trkpt lat="47.06487" lon="15.57285">
        <ele>479.917385</ele>
        <time>2022-09-26T11:12:50.452Z</time>
      </trkpt>
      <trkpt lat="47.06493" lon="15.57299">
        <ele>480.040684</ele>
        <time>2022-09-26T11:12:54.451Z</time>
      </trkpt>
      <trkpt lat="47.06498" lon="15.57314">
        <ele>480.161795</ele>
        <time>2022-09-26T11:12:58.445Z</time>
      </trkpt>
      <trkpt lat="47.06501" lon="15.57327">
        <ele>480.352472</ele>
        <time>2022-09-26T11:13:01.446Z</time>
      </trkpt>
      <trkpt lat="47.06506" lon="15.5734">
        <ele>480.621274</ele>
        <time>2022-09-26T11:13:04.442Z</time>
      </trkpt>
      <trkpt lat="47.06513" lon="15.5735">
        <ele>480.867909</ele>
        <time>2022-09-26T11:13:07.448Z</time>
      </trkpt>
      <trkpt lat="47.06517" lon="15.57363">
        <ele>481.127868</ele>
        <time>2022-09-26T11:13:10.461Z</time>
      </trkpt>
      <trkpt lat="47.06523" lon="15.57376">
        <ele>481.405276</ele>
        <time>2022-09-26T11:13:13.462Z</time>
      </trkpt>
      <trkpt lat="47.06527" lon="15.57389">
        <ele>481.655817</ele>
        <time>2022-09-26T11:13:16.458Z</time>
      </trkpt>
      <trkpt lat="47.06529" lon="15.57403">
        <ele>481.91581</ele>
        <time>2022-09-26T11:13:19.455Z</time>
      </trkpt>
      <trkpt lat="47.06532" lon="15.57416">
        <ele>482.168531</ele>
        <time>2022-09-26T11:13:22.444Z</time>
      </trkpt>
      <trkpt lat="47.06536" lon="15.5743">
        <ele>482.436921</ele>
        <time>2022-09-26T11:13:25.455Z</time>
      </trkpt>
      <trkpt lat="47.06539" lon="15.57444">
        <ele>482.692767</ele>
        <time>2022-09-26T11:13:28.453Z</time>
      </trkpt>
      <trkpt lat="47.06543" lon="15.57456">
        <ele>482.935441</ele>
        <time>2022-09-26T11:13:31.473Z</time>
      </trkpt>
      <trkpt lat="47.06546" lon="15.57472">
        <ele>483.236581</ele>
        <time>2022-09-26T11:13:35.442Z</time>
      </trkpt>
      <trkpt lat="47.0655" lon="15.57489">
        <ele>483.550927</ele>
        <time>2022-09-26T11:13:39.447Z</time>
      </trkpt>
      <trkpt lat="47.06553" lon="15.57503">
        <ele>483.817966</ele>
        <time>2022-09-26T11:13:42.486Z</time>
      </trkpt>
      <trkpt lat="47.06556" lon="15.57518">
        <ele>484.084615</ele>
        <time>2022-09-26T11:13:45.458Z</time>
      </trkpt>
      <trkpt lat="47.0656" lon="15.57531">
        <ele>484.344413</ele>
        <time>2022-09-26T11:13:48.462Z</time>
      </trkpt>
      <trkpt lat="47.06564" lon="15.57547">
        <ele>484.652954</ele>
        <time>2022-09-26T11:13:52.450Z</time>
      </trkpt>
      <trkpt lat="47.06567" lon="15.57563">
        <ele>484.952831</ele>
        <time>2022-09-26T11:13:56.437Z</time>
      </trkpt>
      <trkpt lat="47.06571" lon="15.57579">
        <ele>485.333397</ele>
        <time>2022-09-26T11:14:00.452Z</time>
      </trkpt>
      <trkpt lat="47.06574" lon="15.57593">
        <ele>485.681695</ele>
        <time>2022-09-26T11:14:04.508Z</time>
      </trkpt>
      <trkpt lat="47.06576" lon="15.57606">
        <ele>485.98406</ele>
        <time>2022-09-26T11:14:08.441Z</time>
      </trkpt>
      <trkpt lat="47.06579" lon="15.57621">
        <ele>486.34576</ele>
        <time>2022-09-26T11:14:13.447Z</time>
      </trkpt>
      <trkpt lat="47.06581" lon="15.57636">
        <ele>486.684935</ele>
        <time>2022-09-26T11:14:17.461Z</time>
      </trkpt>
      <trkpt lat="47.06584" lon="15.57651">
        <ele>487.030007</ele>
        <time>2022-09-26T11:14:21.452Z</time>
      </trkpt>
      <trkpt lat="47.06586" lon="15.57665">
        <ele>487.3795</ele>
        <time>2022-09-26T11:14:25.463Z</time>
      </trkpt>
      <trkpt lat="47.06588" lon="15.57683">
        <ele>487.771758</ele>
        <time>2022-09-26T11:14:29.448Z</time>
      </trkpt>
      <trkpt lat="47.06589" lon="15.57699">
        <ele>488.156144</ele>
        <time>2022-09-26T11:14:33.448Z</time>
      </trkpt>
      <trkpt lat="47.0659" lon="15.57712">
        <ele>488.457647</ele>
        <time>2022-09-26T11:14:36.440Z</time>
      </trkpt>
      <trkpt lat="47.06592" lon="15.57729">
        <ele>488.841284</ele>
        <time>2022-09-26T11:14:40.454Z</time>
      </trkpt>
      <trkpt lat="47.06593" lon="15.57743">
        <ele>489.159055</ele>
        <time>2022-09-26T11:14:43.487Z</time>
      </trkpt>
      <trkpt lat="47.06595" lon="15.5776">
        <ele>489.556679</ele>
        <time>2022-09-26T11:14:47.452Z</time>
      </trkpt>
      <trkpt lat="47.06597" lon="15.57773">
        <ele>489.856579</ele>
        <time>2022-09-26T11:14:50.460Z</time>
      </trkpt>
      <trkpt lat="47.06599" lon="15.5779">
        <ele>490.251319</ele>
        <time>2022-09-26T11:14:54.460Z</time>
      </trkpt>
      <trkpt lat="47.06602" lon="15.57806">
        <ele>490.614094</ele>
        <time>2022-09-26T11:14:58.449Z</time>
      </trkpt>
      <trkpt lat="47.06603" lon="15.57823">
        <ele>490.940977</ele>
        <time>2022-09-26T11:15:02.467Z</time>
      </trkpt>
      <trkpt lat="47.06604" lon="15.57838">
        <ele>491.017567</ele>
        <time>2022-09-26T11:15:06.488Z</time>
      </trkpt>
      <trkpt lat="47.06606" lon="15.57854">
        <ele>491.092136</ele>
        <time>2022-09-26T11:15:10.449Z</time>
      </trkpt>
      <trkpt lat="47.06608" lon="15.57869">
        <ele>491.166971</ele>
        <time>2022-09-26T11:15:14.458Z</time>
      </trkpt>
      <trkpt lat="47.0661" lon="15.57884">
        <ele>491.240945</ele>
        <time>2022-09-26T11:15:18.452Z</time>
      </trkpt>
      <trkpt lat="47.06613" lon="15.57897">
        <ele>491.307488</ele>
        <time>2022-09-26T11:15:22.452Z</time>
      </trkpt>
      <trkpt lat="47.06616" lon="15.57911">
        <ele>491.378151</ele>
        <time>2022-09-26T11:15:26.439Z</time>
      </trkpt>
      <trkpt lat="47.06621" lon="15.57925">
        <ele>491.450186</ele>
        <time>2022-09-26T11:15:30.493Z</time>
      </trkpt>
      <trkpt lat="47.06627" lon="15.57937">
        <ele>491.52271</ele>
        <time>2022-09-26T11:15:34.484Z</time>
      </trkpt>
      <trkpt lat="47.06633" lon="15.5795">
        <ele>491.596924</ele>
        <time>2022-09-26T11:15:38.438Z</time>
      </trkpt>
      <trkpt lat="47.0664" lon="15.5796">
        <ele>491.666138</ele>
        <time>2022-09-26T11:15:42.455Z</time>
      </trkpt>
      <trkpt lat="47.06647" lon="15.5797">
        <ele>491.73618</ele>
        <time>2022-09-26T11:15:46.438Z</time>
      </trkpt>
      <trkpt lat="47.06654" lon="15.57981">
        <ele>491.808009</ele>
        <time>2022-09-26T11:15:50.449Z</time>
      </trkpt>
      <trkpt lat="47.0666" lon="15.57992">
        <ele>491.878472</ele>
        <time>2022-09-26T11:15:54.456Z</time>
      </trkpt>
      <trkpt lat="47.06667" lon="15.58005">
        <ele>491.954992</ele>
        <time>2022-09-26T11:15:59.454Z</time>
      </trkpt>
      <trkpt lat="47.06673" lon="15.58015">
        <ele>492.02034</ele>
        <time>2022-09-26T11:16:03.448Z</time>
      </trkpt>
      <trkpt lat="47.06679" lon="15.58025">
        <ele>492.086963</ele>
        <time>2022-09-26T11:16:07.464Z</time>
      </trkpt>
      <trkpt lat="47.06687" lon="15.58036">
        <ele>492.16011</ele>
        <time>2022-09-26T11:16:11.452Z</time>
      </trkpt>
      <trkpt lat="47.06693" lon="15.58049">
        <ele>492.950125</ele>
        <time>2022-09-26T11:16:15.440Z</time>
      </trkpt>
      <trkpt lat="47.067" lon="15.5806">
        <ele>494.080008</ele>
        <time>2022-09-26T11:16:19.473Z</time>
      </trkpt>
      <trkpt lat="47.06707" lon="15.5807">
        <ele>495.222103</ele>
        <time>2022-09-26T11:16:23.447Z</time>
      </trkpt>
      <trkpt lat="47.06715" lon="15.58081">
        <ele>496.458078</ele>
        <time>2022-09-26T11:16:27.472Z</time>
      </trkpt>
      <trkpt lat="47.06723" lon="15.58092">
        <ele>497.722504</ele>
        <time>2022-09-26T11:16:31.452Z</time>
      </trkpt>
      <trkpt lat="47.06731" lon="15.58102">
        <ele>498.910354</ele>
        <time>2022-09-26T11:16:35.448Z</time>
      </trkpt>
      <trkpt lat="47.06739" lon="15.58111">
        <ele>500.055922</ele>
        <time>2022-09-26T11:16:39.465Z</time>
      </trkpt>
      <trkpt lat="47.06748" lon="15.58122">
        <ele>501.356289</ele>
        <time>2022-09-26T11:16:44.439Z</time>
      </trkpt>
      <trkpt lat="47.06757" lon="15.58132">
        <ele>502.624625</ele>
        <time>2022-09-26T11:16:49.443Z</time>
      </trkpt>
      <trkpt lat="47.06765" lon="15.5814">
        <ele>503.826688</ele>
        <time>2022-09-26T11:16:55.461Z</time>
      </trkpt>
      <trkpt lat="47.06774" lon="15.58146">
        <ele>504.919252</ele>
        <time>2022-09-26T11:17:00.453Z</time>
      </trkpt>
      <trkpt lat="47.06784" lon="15.58147">
        <ele>506.095165</ele>
        <time>2022-09-26T11:17:05.430Z</time>
      </trkpt>
      <trkpt lat="47.06787" lon="15.5816">
        <ele>507.19439</ele>
        <time>2022-09-26T11:17:12.452Z</time>
      </trkpt>
      <trkpt lat="47.06796" lon="15.58168">
        <ele>508.309603</ele>
        <time>2022-09-26T11:17:22.454Z</time>
      </trkpt>
      <trkpt lat="47.06805" lon="15.58173">
        <ele>509.396015</ele>
        <time>2022-09-26T11:17:28.445Z</time>
      </trkpt>
      <trkpt lat="47.06814" lon="15.58178">
        <ele>510.482477</ele>
        <time>2022-09-26T11:17:34.462Z</time>
      </trkpt>
      <trkpt lat="47.06822" lon="15.58182">
        <ele>511.517985</ele>
        <time>2022-09-26T11:17:39.468Z</time>
      </trkpt>
      <trkpt lat="47.0683" lon="15.58189">
        <ele>512.554251</ele>
        <time>2022-09-26T11:17:43.452Z</time>
      </trkpt>
      <trkpt lat="47.06835" lon="15.58201">
        <ele>513.041869</ele>
        <time>2022-09-26T11:17:49.450Z</time>
      </trkpt>
      <trkpt lat="47.06832" lon="15.58215">
        <ele>513.470431</ele>
        <time>2022-09-26T11:17:55.459Z</time>
      </trkpt>
      <trkpt lat="47.06822" lon="15.58218">
        <ele>513.873833</ele>
        <time>2022-09-26T11:18:03.458Z</time>
      </trkpt>
      <trkpt lat="47.06812" lon="15.58217">
        <ele>514.308139</ele>
        <time>2022-09-26T11:18:07.457Z</time>
      </trkpt>
      <trkpt lat="47.06802" lon="15.58215">
        <ele>514.737961</ele>
        <time>2022-09-26T11:18:12.440Z</time>
      </trkpt>
      <trkpt lat="47.06793" lon="15.58212">
        <ele>515.170306</ele>
        <time>2022-09-26T11:18:18.445Z</time>
      </trkpt>
      <trkpt lat="47.06784" lon="15.58209">
        <ele>515.561249</ele>
        <time>2022-09-26T11:18:23.448Z</time>
      </trkpt>
      <trkpt lat="47.06774" lon="15.58207">
        <ele>515.992942</ele>
        <time>2022-09-26T11:18:29.461Z</time>
      </trkpt>
      <trkpt lat="47.06764" lon="15.58208">
        <ele>516.387561</ele>
        <time>2022-09-26T11:18:34.464Z</time>
      </trkpt>
      <trkpt lat="47.06755" lon="15.5821">
        <ele>516.805661</ele>
        <time>2022-09-26T11:18:40.449Z</time>
      </trkpt>
      <trkpt lat="47.06745" lon="15.58215">
        <ele>517.23781</ele>
        <time>2022-09-26T11:18:46.427Z</time>
      </trkpt>
      <trkpt lat="47.06737" lon="15.58221">
        <ele>517.650003</ele>
        <time>2022-09-26T11:18:52.452Z</time>
      </trkpt>
      <trkpt lat="47.06729" lon="15.58228">
        <ele>518.057044</ele>
        <time>2022-09-26T11:18:58.468Z</time>
      </trkpt>
      <trkpt lat="47.06721" lon="15.58238">
        <ele>518.510123</ele>
        <time>2022-09-26T11:19:04.443Z</time>
      </trkpt>
      <trkpt lat="47.06713" lon="15.58248">
        <ele>518.93515</ele>
        <time>2022-09-26T11:19:10.454Z</time>
      </trkpt>
      <trkpt lat="47.06706" lon="15.58259">
        <ele>519.377504</ele>
        <time>2022-09-26T11:19:17.467Z</time>
      </trkpt>
      <trkpt lat="47.06699" lon="15.58271">
        <ele>519.829548</ele>
        <time>2022-09-26T11:19:23.447Z</time>
      </trkpt>
      <trkpt lat="47.06692" lon="15.5828">
        <ele>520.224116</ele>
        <time>2022-09-26T11:19:29.448Z</time>
      </trkpt>
      <trkpt lat="47.06685" lon="15.5829">
        <ele>520.837098</ele>
        <time>2022-09-26T11:19:36.440Z</time>
      </trkpt>
      <trkpt lat="47.06677" lon="15.58298">
        <ele>521.507493</ele>
        <time>2022-09-26T11:19:42.440Z</time>
      </trkpt>
      <trkpt lat="47.0667" lon="15.58307">
        <ele>522.18322</ele>
        <time>2022-09-26T11:19:48.439Z</time>
      </trkpt>
      <trkpt lat="47.06662" lon="15.58315">
        <ele>522.881856</ele>
        <time>2022-09-26T11:19:54.443Z</time>
      </trkpt>
      <trkpt lat="47.06653" lon="15.58324">
        <ele>523.642003</ele>
        <time>2022-09-26T11:20:00.446Z</time>
      </trkpt>
      <trkpt lat="47.06645" lon="15.58331">
        <ele>524.318855</ele>
        <time>2022-09-26T11:20:06.443Z</time>
      </trkpt>
      <trkpt lat="47.06636" lon="15.58341">
        <ele>525.077678</ele>
        <time>2022-09-26T11:20:12.483Z</time>
      </trkpt>
      <trkpt lat="47.06628" lon="15.5835">
        <ele>525.780459</ele>
        <time>2022-09-26T11:20:18.447Z</time>
      </trkpt>
      <trkpt lat="47.06622" lon="15.5836">
        <ele>526.481457</ele>
        <time>2022-09-26T11:20:25.449Z</time>
      </trkpt>
      <trkpt lat="47.06616" lon="15.58372">
        <ele>527.181913</ele>
        <time>2022-09-26T11:20:32.447Z</time>
      </trkpt>
      <trkpt lat="47.06611" lon="15.58385">
        <ele>527.873591</ele>
        <time>2022-09-26T11:20:38.469Z</time>
      </trkpt>
      <trkpt lat="47.06608" lon="15.58399">
        <ele>528.59969</ele>
        <time>2022-09-26T11:20:44.446Z</time>
      </trkpt>
      <trkpt lat="47.06606" lon="15.58413">
        <ele>529.309368</ele>
        <time>2022-09-26T11:20:50.442Z</time>
      </trkpt>
      <trkpt lat="47.06604" lon="15.58428">
        <ele>530.031378</ele>
        <time>2022-09-26T11:20:57.452Z</time>
      </trkpt>
      <trkpt lat="47.06602" lon="15.58443">
        <ele>530.775296</ele>
        <time>2022-09-26T11:21:03.447Z</time>
      </trkpt>
      <trkpt lat="47.066" lon="15.58456">
        <ele>531.439546</ele>
        <time>2022-09-26T11:21:09.428Z</time>
      </trkpt>
      <trkpt lat="47.06599" lon="15.58471">
        <ele>532.131864</ele>
        <time>2022-09-26T11:21:16.441Z</time>
      </trkpt>
      <trkpt lat="47.06598" lon="15.58485">
        <ele>532.829888</ele>
        <time>2022-09-26T11:21:25.451Z</time>
      </trkpt>
      <trkpt lat="47.066" lon="15.58498">
        <ele>533.566309</ele>
        <time>2022-09-26T11:21:33.462Z</time>
      </trkpt>
      <trkpt lat="47.0661" lon="15.58504">
        <ele>534.481125</ele>
        <time>2022-09-26T11:21:42.462Z</time>
      </trkpt>
      <trkpt lat="47.06619" lon="15.58501">
        <ele>535.327009</ele>
        <time>2022-09-26T11:21:51.431Z</time>
      </trkpt>
      <trkpt lat="47.06628" lon="15.58497">
        <ele>536.1998</ele>
        <time>2022-09-26T11:22:01.438Z</time>
      </trkpt>
      <trkpt lat="47.06637" lon="15.58494">
        <ele>537.065982</ele>
        <time>2022-09-26T11:22:09.436Z</time>
      </trkpt>
      <trkpt lat="47.06644" lon="15.58503">
        <ele>537.971049</ele>
        <time>2022-09-26T11:22:16.436Z</time>
      </trkpt>
      <trkpt lat="47.06641" lon="15.58516">
        <ele>538.842162</ele>
        <time>2022-09-26T11:22:27.490Z</time>
      </trkpt>
      <trkpt lat="47.06633" lon="15.58527">
        <ele>539.771575</ele>
        <time>2022-09-26T11:22:35.463Z</time>
      </trkpt>
      <trkpt lat="47.06626" lon="15.58535">
        <ele>540.630056</ele>
        <time>2022-09-26T11:22:42.452Z</time>
      </trkpt>
      <trkpt lat="47.06618" lon="15.58544">
        <ele>541.506789</ele>
        <time>2022-09-26T11:22:51.466Z</time>
      </trkpt>
      <trkpt lat="47.06611" lon="15.58552">
        <ele>542.383522</ele>
        <time>2022-09-26T11:23:00.491Z</time>
      </trkpt>
      <trkpt lat="47.06605" lon="15.58563">
        <ele>543.20859</ele>
        <time>2022-09-26T11:23:10.444Z</time>
      </trkpt>
      <trkpt lat="47.066" lon="15.58575">
        <ele>544.104268</ele>
        <time>2022-09-26T11:23:19.463Z</time>
      </trkpt>
      <trkpt lat="47.06597" lon="15.58588">
        <ele>544.959319</ele>
        <time>2022-09-26T11:23:28.467Z</time>
      </trkpt>
      <trkpt lat="47.06591" lon="15.58599">
        <ele>545.787526</ele>
        <time>2022-09-26T11:23:36.458Z</time>
      </trkpt>
      <trkpt lat="47.06589" lon="15.58612">
        <ele>546.672636</ele>
        <time>2022-09-26T11:23:44.459Z</time>
      </trkpt>
      <trkpt lat="47.06587" lon="15.58626">
        <ele>547.532671</ele>
        <time>2022-09-26T11:23:52.464Z</time>
      </trkpt>
      <trkpt lat="47.06584" lon="15.58638">
        <ele>548.360675</ele>
        <time>2022-09-26T11:23:59.448Z</time>
      </trkpt>
      <trkpt lat="47.06581" lon="15.58652">
        <ele>549.244907</ele>
        <time>2022-09-26T11:24:06.448Z</time>
      </trkpt>
      <trkpt lat="47.06579" lon="15.58666">
        <ele>549.81583</ele>
        <time>2022-09-26T11:24:13.451Z</time>
      </trkpt>
      <trkpt lat="47.06576" lon="15.5868">
        <ele>550.14299</ele>
        <time>2022-09-26T11:24:20.443Z</time>
      </trkpt>
      <trkpt lat="47.0657" lon="15.58692">
        <ele>550.49028</ele>
        <time>2022-09-26T11:24:27.452Z</time>
      </trkpt>
      <trkpt lat="47.06564" lon="15.58704">
        <ele>550.839077</ele>
        <time>2022-09-26T11:24:33.462Z</time>
      </trkpt>
      <trkpt lat="47.06557" lon="15.58713">
        <ele>551.154245</ele>
        <time>2022-09-26T11:24:38.455Z</time>
      </trkpt>
      <trkpt lat="47.06549" lon="15.5872">
        <ele>551.463603</ele>
        <time>2022-09-26T11:24:43.469Z</time>
      </trkpt>
      <trkpt lat="47.06539" lon="15.58725">
        <ele>551.792265</ele>
        <time>2022-09-26T11:24:49.460Z</time>
      </trkpt>
      <trkpt lat="47.0653" lon="15.58727">
        <ele>552.121321</ele>
        <time>2022-09-26T11:24:55.463Z</time>
      </trkpt>
      <trkpt lat="47.06521" lon="15.58727">
        <ele>552.431467</ele>
        <time>2022-09-26T11:25:01.451Z</time>
      </trkpt>
      <trkpt lat="47.06511" lon="15.58727">
        <ele>552.75844</ele>
        <time>2022-09-26T11:25:08.451Z</time>
      </trkpt>
      <trkpt lat="47.06501" lon="15.58729">
        <ele>553.087464</ele>
        <time>2022-09-26T11:25:15.448Z</time>
      </trkpt>
      <trkpt lat="47.06492" lon="15.5873">
        <ele>553.411579</ele>
        <time>2022-09-26T11:25:21.470Z</time>
      </trkpt>
      <trkpt lat="47.06482" lon="15.58731">
        <ele>553.749602</ele>
        <time>2022-09-26T11:25:28.477Z</time>
      </trkpt>
      <trkpt lat="47.06472" lon="15.58731">
        <ele>554.063093</ele>
        <time>2022-09-26T11:25:34.468Z</time>
      </trkpt>
      <trkpt lat="47.06462" lon="15.58731">
        <ele>554.406944</ele>
        <time>2022-09-26T11:25:41.453Z</time>
      </trkpt>
      <trkpt lat="47.06452" lon="15.58731">
        <ele>554.750794</ele>
        <time>2022-09-26T11:25:49.465Z</time>
      </trkpt>
      <trkpt lat="47.06443" lon="15.5873">
        <ele>555.065116</ele>
        <time>2022-09-26T11:25:56.460Z</time>
      </trkpt>
      <trkpt lat="47.06433" lon="15.5873">
        <ele>555.382045</ele>
        <time>2022-09-26T11:26:02.455Z</time>
      </trkpt>
      <trkpt lat="47.06424" lon="15.5873">
        <ele>555.687325</ele>
        <time>2022-09-26T11:26:07.445Z</time>
      </trkpt>
      <trkpt lat="47.06414" lon="15.5873">
        <ele>556.178636</ele>
        <time>2022-09-26T11:26:13.461Z</time>
      </trkpt>
      <trkpt lat="47.06405" lon="15.58731">
        <ele>556.636284</ele>
        <time>2022-09-26T11:26:19.440Z</time>
      </trkpt>
      <trkpt lat="47.06396" lon="15.58734">
        <ele>557.096191</ele>
        <time>2022-09-26T11:26:25.482Z</time>
      </trkpt>
      <trkpt lat="47.06386" lon="15.5874">
        <ele>557.62425</ele>
        <time>2022-09-26T11:26:31.457Z</time>
      </trkpt>
      <trkpt lat="47.06379" lon="15.5875">
        <ele>558.118757</ele>
        <time>2022-09-26T11:26:37.520Z</time>
      </trkpt>
      <trkpt lat="47.06376" lon="15.58763">
        <ele>558.587391</ele>
        <time>2022-09-26T11:26:42.442Z</time>
      </trkpt>
      <trkpt lat="47.06375" lon="15.58778">
        <ele>559.073695</ele>
        <time>2022-09-26T11:26:47.462Z</time>
      </trkpt>
      <trkpt lat="47.06376" lon="15.58793">
        <ele>559.59078</ele>
        <time>2022-09-26T11:26:54.485Z</time>
      </trkpt>
      <trkpt lat="47.06377" lon="15.58808">
        <ele>560.092898</ele>
        <time>2022-09-26T11:27:00.461Z</time>
      </trkpt>
      <trkpt lat="47.06378" lon="15.58821">
        <ele>560.53907</ele>
        <time>2022-09-26T11:27:05.470Z</time>
      </trkpt>
      <trkpt lat="47.06377" lon="15.58835">
        <ele>561.002984</ele>
        <time>2022-09-26T11:27:10.500Z</time>
      </trkpt>
      <trkpt lat="47.06375" lon="15.58848">
        <ele>561.475343</ele>
        <time>2022-09-26T11:27:16.454Z</time>
      </trkpt>
      <trkpt lat="47.06371" lon="15.58863">
        <ele>562.001564</ele>
        <time>2022-09-26T11:27:23.491Z</time>
      </trkpt>
      <trkpt lat="47.06368" lon="15.58877">
        <ele>562.499582</ele>
        <time>2022-09-26T11:27:30.459Z</time>
      </trkpt>
      <trkpt lat="47.06363" lon="15.58891">
        <ele>563.020763</ele>
        <time>2022-09-26T11:27:37.519Z</time>
      </trkpt>
      <trkpt lat="47.0636" lon="15.58904">
        <ele>563.500784</ele>
        <time>2022-09-26T11:27:42.447Z</time>
      </trkpt>
      <trkpt lat="47.06354" lon="15.58917">
        <ele>564.025403</ele>
        <time>2022-09-26T11:27:48.473Z</time>
      </trkpt>
      <trkpt lat="47.06351" lon="15.58929">
        <ele>564.470522</ele>
        <time>2022-09-26T11:27:54.463Z</time>
      </trkpt>
      <trkpt lat="47.0635" lon="15.58944">
        <ele>564.771058</ele>
        <time>2022-09-26T11:28:00.455Z</time>
      </trkpt>
      <trkpt lat="47.0635" lon="15.5896">
        <ele>565.020686</ele>
        <time>2022-09-26T11:28:05.463Z</time>
      </trkpt>
      <trkpt lat="47.06359" lon="15.58967">
        <ele>565.243022</ele>
        <time>2022-09-26T11:28:10.446Z</time>
      </trkpt>
      <trkpt lat="47.06368" lon="15.58966">
        <ele>565.470629</ele>
        <time>2022-09-26T11:28:15.455Z</time>
      </trkpt>
      <trkpt lat="47.06377" lon="15.58964">
        <ele>565.679653</ele>
        <time>2022-09-26T11:28:20.463Z</time>
      </trkpt>
      <trkpt lat="47.06387" lon="15.58962">
        <ele>565.911638</ele>
        <time>2022-09-26T11:28:26.459Z</time>
      </trkpt>
      <trkpt lat="47.06398" lon="15.58961">
        <ele>566.152596</ele>
        <time>2022-09-26T11:28:31.470Z</time>
      </trkpt>
      <trkpt lat="47.06407" lon="15.58961">
        <ele>566.365528</ele>
        <time>2022-09-26T11:28:36.440Z</time>
      </trkpt>
      <trkpt lat="47.06417" lon="15.5896">
        <ele>566.593271</ele>
        <time>2022-09-26T11:28:43.464Z</time>
      </trkpt>
      <trkpt lat="47.06427" lon="15.5896">
        <ele>566.8226</ele>
        <time>2022-09-26T11:28:50.461Z</time>
      </trkpt>
      <trkpt lat="47.06437" lon="15.58958">
        <ele>567.057005</ele>
        <time>2022-09-26T11:28:56.452Z</time>
      </trkpt>
      <trkpt lat="47.06446" lon="15.58957">
        <ele>567.276619</ele>
        <time>2022-09-26T11:29:03.486Z</time>
      </trkpt>
      <trkpt lat="47.06456" lon="15.58954">
        <ele>567.504033</ele>
        <time>2022-09-26T11:29:09.444Z</time>
      </trkpt>
      <trkpt lat="47.06465" lon="15.58952">
        <ele>567.716997</ele>
        <time>2022-09-26T11:29:14.488Z</time>
      </trkpt>
      <trkpt lat="47.06474" lon="15.58949">
        <ele>567.941065</ele>
        <time>2022-09-26T11:29:20.479Z</time>
      </trkpt>
      <trkpt lat="47.06483" lon="15.58946">
        <ele>568.158013</ele>
        <time>2022-09-26T11:29:25.455Z</time>
      </trkpt>
      <trkpt lat="47.06494" lon="15.58942">
        <ele>568.411068</ele>
        <time>2022-09-26T11:29:31.446Z</time>
      </trkpt>
      <trkpt lat="47.06503" lon="15.58939">
        <ele>568.619851</ele>
        <time>2022-09-26T11:29:36.432Z</time>
      </trkpt>
      <trkpt lat="47.06512" lon="15.58935">
        <ele>568.894309</ele>
        <time>2022-09-26T11:29:42.451Z</time>
      </trkpt>
      <trkpt lat="47.06522" lon="15.5893">
        <ele>569.252896</ele>
        <time>2022-09-26T11:29:47.508Z</time>
      </trkpt>
      <trkpt lat="47.06533" lon="15.58925">
        <ele>569.644475</ele>
        <time>2022-09-26T11:29:52.458Z</time>
      </trkpt>
      <trkpt lat="47.06541" lon="15.58921">
        <ele>569.970241</ele>
        <time>2022-09-26T11:29:56.446Z</time>
      </trkpt>
      <trkpt lat="47.06551" lon="15.58917">
        <ele>570.308681</ele>
        <time>2022-09-26T11:30:01.442Z</time>
      </trkpt>
      <trkpt lat="47.0656" lon="15.58913">
        <ele>570.656701</ele>
        <time>2022-09-26T11:30:05.449Z</time>
      </trkpt>
      <trkpt lat="47.0657" lon="15.58906">
        <ele>571.045169</ele>
        <time>2022-09-26T11:30:10.455Z</time>
      </trkpt>
      <trkpt lat="47.06578" lon="15.58896">
        <ele>571.416155</ele>
        <time>2022-09-26T11:30:15.449Z</time>
      </trkpt>
      <trkpt lat="47.06588" lon="15.58889">
        <ele>571.784231</ele>
        <time>2022-09-26T11:30:20.471Z</time>
      </trkpt>
      <trkpt lat="47.06597" lon="15.58884">
        <ele>572.123405</ele>
        <time>2022-09-26T11:30:25.491Z</time>
      </trkpt>
      <trkpt lat="47.06606" lon="15.58877">
        <ele>572.471499</ele>
        <time>2022-09-26T11:30:30.445Z</time>
      </trkpt>
      <trkpt lat="47.06616" lon="15.58872">
        <ele>572.845016</ele>
        <time>2022-09-26T11:30:35.460Z</time>
      </trkpt>
      <trkpt lat="47.06624" lon="15.58867">
        <ele>573.167336</ele>
        <time>2022-09-26T11:30:40.470Z</time>
      </trkpt>
      <trkpt lat="47.06633" lon="15.58861">
        <ele>573.520402</ele>
        <time>2022-09-26T11:30:45.453Z</time>
      </trkpt>
      <trkpt lat="47.06642" lon="15.58857">
        <ele>573.855131</ele>
        <time>2022-09-26T11:30:50.453Z</time>
      </trkpt>
      <trkpt lat="47.06651" lon="15.58853">
        <ele>574.170145</ele>
        <time>2022-09-26T11:30:55.458Z</time>
      </trkpt>
      <trkpt lat="47.0666" lon="15.58848">
        <ele>574.521317</ele>
        <time>2022-09-26T11:31:01.452Z</time>
      </trkpt>
      <trkpt lat="47.06669" lon="15.58843">
        <ele>574.859365</ele>
        <time>2022-09-26T11:31:06.447Z</time>
      </trkpt>
      <trkpt lat="47.06679" lon="15.58839">
        <ele>575.244862</ele>
        <time>2022-09-26T11:31:11.450Z</time>
      </trkpt>
      <trkpt lat="47.06688" lon="15.58835">
        <ele>575.637149</ele>
        <time>2022-09-26T11:31:18.455Z</time>
      </trkpt>
      <trkpt lat="47.06697" lon="15.58832">
        <ele>576.017742</ele>
        <time>2022-09-26T11:31:24.466Z</time>
      </trkpt>
      <trkpt lat="47.06707" lon="15.58829">
        <ele>576.449487</ele>
        <time>2022-09-26T11:31:31.471Z</time>
      </trkpt>
      <trkpt lat="47.06716" lon="15.58827">
        <ele>576.844776</ele>
        <time>2022-09-26T11:31:37.468Z</time>
      </trkpt>
      <trkpt lat="47.06725" lon="15.58825">
        <ele>577.224824</ele>
        <time>2022-09-26T11:31:43.454Z</time>
      </trkpt>
      <trkpt lat="47.06736" lon="15.58824">
        <ele>577.691859</ele>
        <time>2022-09-26T11:31:49.445Z</time>
      </trkpt>
      <trkpt lat="47.06746" lon="15.58823">
        <ele>578.104997</ele>
        <time>2022-09-26T11:31:57.473Z</time>
      </trkpt>
      <trkpt lat="47.06755" lon="15.58824">
        <ele>578.496627</ele>
        <time>2022-09-26T11:32:05.464Z</time>
      </trkpt>
      <trkpt lat="47.06765" lon="15.58824">
        <ele>578.909128</ele>
        <time>2022-09-26T11:32:13.454Z</time>
      </trkpt>
      <trkpt lat="47.06775" lon="15.58825">
        <ele>579.334043</ele>
        <time>2022-09-26T11:32:19.447Z</time>
      </trkpt>
      <trkpt lat="47.06785" lon="15.58825">
        <ele>579.758842</ele>
        <time>2022-09-26T11:32:25.449Z</time>
      </trkpt>
      <trkpt lat="47.06795" lon="15.58826">
        <ele>580.150471</ele>
        <time>2022-09-26T11:32:33.455Z</time>
      </trkpt>
      <trkpt lat="47.06805" lon="15.58829">
        <ele>580.591658</ele>
        <time>2022-09-26T11:32:41.466Z</time>
      </trkpt>
      <trkpt lat="47.06815" lon="15.58833">
        <ele>581.010405</ele>
        <time>2022-09-26T11:32:47.463Z</time>
      </trkpt>
      <trkpt lat="47.06824" lon="15.58835">
        <ele>581.407517</ele>
        <time>2022-09-26T11:32:53.492Z</time>
      </trkpt>
      <trkpt lat="47.06834" lon="15.58837">
        <ele>581.825355</ele>
        <time>2022-09-26T11:32:59.463Z</time>
      </trkpt>
      <trkpt lat="47.06843" lon="15.58841">
        <ele>582.211936</ele>
        <time>2022-09-26T11:33:03.458Z</time>
      </trkpt>
      <trkpt lat="47.06853" lon="15.58845">
        <ele>582.666973</ele>
        <time>2022-09-26T11:33:07.464Z</time>
      </trkpt>
      <trkpt lat="47.06864" lon="15.58849">
        <ele>582.949707</ele>
        <time>2022-09-26T11:33:11.490Z</time>
      </trkpt>
      <trkpt lat="47.06874" lon="15.58852">
        <ele>583.204841</ele>
        <time>2022-09-26T11:33:15.450Z</time>
      </trkpt>
      <trkpt lat="47.06883" lon="15.58851">
        <ele>583.456607</ele>
        <time>2022-09-26T11:33:20.457Z</time>
      </trkpt>
      <trkpt lat="47.06893" lon="15.58856">
        <ele>583.732663</ele>
        <time>2022-09-26T11:33:23.461Z</time>
      </trkpt>
      <trkpt lat="47.06902" lon="15.58861">
        <ele>583.982067</ele>
        <time>2022-09-26T11:33:26.450Z</time>
      </trkpt>
      <trkpt lat="47.06911" lon="15.58866">
        <ele>584.22545</ele>
        <time>2022-09-26T11:33:29.458Z</time>
      </trkpt>
      <trkpt lat="47.06922" lon="15.58873">
        <ele>584.533297</ele>
        <time>2022-09-26T11:33:33.490Z</time>
      </trkpt>
      <trkpt lat="47.06931" lon="15.58882">
        <ele>584.81006</ele>
        <time>2022-09-26T11:33:37.465Z</time>
      </trkpt>
      <trkpt lat="47.0694" lon="15.58892">
        <ele>585.09183</ele>
        <time>2022-09-26T11:33:41.461Z</time>
      </trkpt>
      <trkpt lat="47.06948" lon="15.58903">
        <ele>585.391864</ele>
        <time>2022-09-26T11:33:45.458Z</time>
      </trkpt>
      <trkpt lat="47.06956" lon="15.58915">
        <ele>585.682542</ele>
        <time>2022-09-26T11:33:49.463Z</time>
      </trkpt>
      <trkpt lat="47.06963" lon="15.58926">
        <ele>585.94539</ele>
        <time>2022-09-26T11:33:53.466Z</time>
      </trkpt>
      <trkpt lat="47.06969" lon="15.58939">
        <ele>586.22307</ele>
        <time>2022-09-26T11:33:57.460Z</time>
      </trkpt>
      <trkpt lat="47.06976" lon="15.58952">
        <ele>586.510741</ele>
        <time>2022-09-26T11:34:01.451Z</time>
      </trkpt>
      <trkpt lat="47.06982" lon="15.58966">
        <ele>586.801144</ele>
        <time>2022-09-26T11:34:05.460Z</time>
      </trkpt>
      <trkpt lat="47.06988" lon="15.58977">
        <ele>587.045077</ele>
        <time>2022-09-26T11:34:08.467Z</time>
      </trkpt>
      <trkpt lat="47.06993" lon="15.58989">
        <ele>587.289109</ele>
        <time>2022-09-26T11:34:11.439Z</time>
      </trkpt>
      <trkpt lat="47.06999" lon="15.59002">
        <ele>587.223584</ele>
        <time>2022-09-26T11:34:14.464Z</time>
      </trkpt>
      <trkpt lat="47.07005" lon="15.59014">
        <ele>587.165587</ele>
        <time>2022-09-26T11:34:16.446Z</time>
      </trkpt>
      <trkpt lat="47.07012" lon="15.59028">
        <ele>587.094588</ele>
        <time>2022-09-26T11:34:18.459Z</time>
      </trkpt>
      <trkpt lat="47.0702" lon="15.59043">
        <ele>587.018821</ele>
        <time>2022-09-26T11:34:20.468Z</time>
      </trkpt>
      <trkpt lat="47.07028" lon="15.59058">
        <ele>586.940645</ele>
        <time>2022-09-26T11:34:22.458Z</time>
      </trkpt>
      <trkpt lat="47.07037" lon="15.59075">
        <ele>586.856417</ele>
        <time>2022-09-26T11:34:24.457Z</time>
      </trkpt>
      <trkpt lat="47.07046" lon="15.59092">
        <ele>586.767761</ele>
        <time>2022-09-26T11:34:26.443Z</time>
      </trkpt>
      <trkpt lat="47.07056" lon="15.59109">
        <ele>586.675044</ele>
        <time>2022-09-26T11:34:28.468Z</time>
      </trkpt>
      <trkpt lat="47.07067" lon="15.59127">
        <ele>586.581621</ele>
        <time>2022-09-26T11:34:30.464Z</time>
      </trkpt>
      <trkpt lat="47.07078" lon="15.59143">
        <ele>586.487666</ele>
        <time>2022-09-26T11:34:32.463Z</time>
      </trkpt>
      <trkpt lat="47.0709" lon="15.59159">
        <ele>586.393768</ele>
        <time>2022-09-26T11:34:34.491Z</time>
      </trkpt>
      <trkpt lat="47.07104" lon="15.59173">
        <ele>586.292519</ele>
        <time>2022-09-26T11:34:36.442Z</time>
      </trkpt>
      <trkpt lat="47.07119" lon="15.59183">
        <ele>586.207038</ele>
        <time>2022-09-26T11:34:38.548Z</time>
      </trkpt>
      <trkpt lat="47.07134" lon="15.5919">
        <ele>586.155049</ele>
        <time>2022-09-26T11:34:40.476Z</time>
      </trkpt>
      <trkpt lat="47.07148" lon="15.59197">
        <ele>586.104165</ele>
        <time>2022-09-26T11:34:42.468Z</time>
      </trkpt>
      <trkpt lat="47.07161" lon="15.59203">
        <ele>586.058346</ele>
        <time>2022-09-26T11:34:44.445Z</time>
      </trkpt>
      <trkpt lat="47.07172" lon="15.5921">
        <ele>586.016183</ele>
        <time>2022-09-26T11:34:46.437Z</time>
      </trkpt>
      <trkpt lat="47.07183" lon="15.59218">
        <ele>585.977554</ele>
        <time>2022-09-26T11:34:48.459Z</time>
      </trkpt>
      <trkpt lat="47.07191" lon="15.59224">
        <ele>585.944706</ele>
        <time>2022-09-26T11:34:50.468Z</time>
      </trkpt>
      <trkpt lat="47.072" lon="15.59229">
        <ele>585.912058</ele>
        <time>2022-09-26T11:34:52.453Z</time>
      </trkpt>
      <trkpt lat="47.07213" lon="15.59233">
        <ele>585.866983</ele>
        <time>2022-09-26T11:34:55.458Z</time>
      </trkpt>
      <trkpt lat="47.07225" lon="15.59235">
        <ele>585.827001</ele>
        <time>2022-09-26T11:34:58.458Z</time>
      </trkpt>
      <trkpt lat="47.07234" lon="15.59232">
        <ele>585.795459</ele>
        <time>2022-09-26T11:35:01.486Z</time>
      </trkpt>
      <trkpt lat="47.07243" lon="15.59228">
        <ele>585.764172</ele>
        <time>2022-09-26T11:35:04.460Z</time>
      </trkpt>
      <trkpt lat="47.07253" lon="15.59223">
        <ele>585.729753</ele>
        <time>2022-09-26T11:35:08.466Z</time>
      </trkpt>
      <trkpt lat="47.07261" lon="15.59216">
        <ele>585.698017</ele>
        <time>2022-09-26T11:35:12.470Z</time>
      </trkpt>
      <trkpt lat="47.0727" lon="15.5921">
        <ele>585.665777</ele>
        <time>2022-09-26T11:35:16.443Z</time>
      </trkpt>
      <trkpt lat="47.07279" lon="15.59204">
        <ele>585.632524</ele>
        <time>2022-09-26T11:35:20.451Z</time>
      </trkpt>
      <trkpt lat="47.07289" lon="15.59198">
        <ele>585.349779</ele>
        <time>2022-09-26T11:35:24.499Z</time>
      </trkpt>
      <trkpt lat="47.07298" lon="15.59195">
        <ele>584.952789</ele>
        <time>2022-09-26T11:35:27.454Z</time>
      </trkpt>
      <trkpt lat="47.0731" lon="15.59193">
        <ele>584.457507</ele>
        <time>2022-09-26T11:35:30.492Z</time>
      </trkpt>
      <trkpt lat="47.07319" lon="15.59193">
        <ele>584.08084</ele>
        <time>2022-09-26T11:35:32.448Z</time>
      </trkpt>
      <trkpt lat="47.07332" lon="15.59195">
        <ele>583.55679</ele>
        <time>2022-09-26T11:35:35.568Z</time>
      </trkpt>
      <trkpt lat="47.07342" lon="15.59197">
        <ele>583.123769</ele>
        <time>2022-09-26T11:35:38.449Z</time>
      </trkpt>
      <trkpt lat="47.07353" lon="15.592">
        <ele>582.647899</ele>
        <time>2022-09-26T11:35:41.437Z</time>
      </trkpt>
      <trkpt lat="47.07358" lon="15.59216">
        <ele>582.163249</ele>
        <time>2022-09-26T11:36:52.462Z</time>
      </trkpt>
      <trkpt lat="47.07356" lon="15.5923">
        <ele>581.76588</ele>
        <time>2022-09-26T11:36:55.466Z</time>
      </trkpt>
      <trkpt lat="47.07353" lon="15.59245">
        <ele>581.309858</ele>
        <time>2022-09-26T11:36:57.582Z</time>
      </trkpt>
      <trkpt lat="47.07346" lon="15.59262">
        <ele>580.744041</ele>
        <time>2022-09-26T11:36:59.456Z</time>
      </trkpt>
      <trkpt lat="47.07335" lon="15.59275">
        <ele>580.160152</ele>
        <time>2022-09-26T11:37:01.444Z</time>
      </trkpt>
      <trkpt lat="47.07325" lon="15.59292">
        <ele>579.554342</ele>
        <time>2022-09-26T11:37:03.451Z</time>
      </trkpt>
      <trkpt lat="47.07317" lon="15.59311">
        <ele>578.918059</ele>
        <time>2022-09-26T11:37:05.424Z</time>
      </trkpt>
      <trkpt lat="47.07309" lon="15.59329">
        <ele>578.303502</ele>
        <time>2022-09-26T11:37:07.491Z</time>
      </trkpt>
      <trkpt lat="47.07299" lon="15.59345">
        <ele>577.703752</ele>
        <time>2022-09-26T11:37:09.454Z</time>
      </trkpt>
      <trkpt lat="47.07286" lon="15.59355">
        <ele>577.093502</ele>
        <time>2022-09-26T11:37:11.485Z</time>
      </trkpt>
      <trkpt lat="47.07273" lon="15.59366">
        <ele>576.490147</ele>
        <time>2022-09-26T11:37:13.477Z</time>
      </trkpt>
      <trkpt lat="47.07261" lon="15.59378">
        <ele>575.875719</ele>
        <time>2022-09-26T11:37:15.488Z</time>
      </trkpt>
      <trkpt lat="47.07252" lon="15.59395">
        <ele>575.294806</ele>
        <time>2022-09-26T11:37:17.468Z</time>
      </trkpt>
      <trkpt lat="47.07247" lon="15.59413">
        <ele>574.764837</ele>
        <time>2022-09-26T11:37:19.453Z</time>
      </trkpt>
      <trkpt lat="47.07244" lon="15.5943">
        <ele>574.261242</ele>
        <time>2022-09-26T11:37:21.476Z</time>
      </trkpt>
      <trkpt lat="47.07242" lon="15.59447">
        <ele>573.787634</ele>
        <time>2022-09-26T11:37:23.462Z</time>
      </trkpt>
      <trkpt lat="47.07241" lon="15.59465">
        <ele>573.305346</ele>
        <time>2022-09-26T11:37:25.457Z</time>
      </trkpt>
      <trkpt lat="47.07241" lon="15.59482">
        <ele>572.81125</ele>
        <time>2022-09-26T11:37:27.460Z</time>
      </trkpt>
      <trkpt lat="47.07242" lon="15.595">
        <ele>572.319339</ele>
        <time>2022-09-26T11:37:29.461Z</time>
      </trkpt>
      <trkpt lat="47.07242" lon="15.59517">
        <ele>571.836208</ele>
        <time>2022-09-26T11:37:31.463Z</time>
      </trkpt>
      <trkpt lat="47.07242" lon="15.59534">
        <ele>571.386467</ele>
        <time>2022-09-26T11:37:33.483Z</time>
      </trkpt>
      <trkpt lat="47.07242" lon="15.5955">
        <ele>570.930957</ele>
        <time>2022-09-26T11:37:35.464Z</time>
      </trkpt>
      <trkpt lat="47.07243" lon="15.59566">
        <ele>570.774638</ele>
        <time>2022-09-26T11:37:37.493Z</time>
      </trkpt>
      <trkpt lat="47.07245" lon="15.59581">
        <ele>570.685327</ele>
        <time>2022-09-26T11:37:39.483Z</time>
      </trkpt>
      <trkpt lat="47.07247" lon="15.59596">
        <ele>570.599311</ele>
        <time>2022-09-26T11:37:41.462Z</time>
      </trkpt>
      <trkpt lat="47.07249" lon="15.59609">
        <ele>570.519192</ele>
        <time>2022-09-26T11:37:43.451Z</time>
      </trkpt>
      <trkpt lat="47.07254" lon="15.59626">
        <ele>570.410401</ele>
        <time>2022-09-26T11:37:46.450Z</time>
      </trkpt>
      <trkpt lat="47.07258" lon="15.59642">
        <ele>570.311933</ele>
        <time>2022-09-26T11:37:49.448Z</time>
      </trkpt>
      <trkpt lat="47.0726" lon="15.5966">
        <ele>570.210816</ele>
        <time>2022-09-26T11:37:52.463Z</time>
      </trkpt>
      <trkpt lat="47.07261" lon="15.59674">
        <ele>570.125286</ele>
        <time>2022-09-26T11:37:54.458Z</time>
      </trkpt>
      <trkpt lat="47.07261" lon="15.59692">
        <ele>570.022625</ele>
        <time>2022-09-26T11:37:56.431Z</time>
      </trkpt>
      <trkpt lat="47.07262" lon="15.59712">
        <ele>569.906712</ele>
        <time>2022-09-26T11:37:58.493Z</time>
      </trkpt>
      <trkpt lat="47.07261" lon="15.59734">
        <ele>569.780369</ele>
        <time>2022-09-26T11:38:00.472Z</time>
      </trkpt>
      <trkpt lat="47.0726" lon="15.59756">
        <ele>569.650738</ele>
        <time>2022-09-26T11:38:02.479Z</time>
      </trkpt>
      <trkpt lat="47.07258" lon="15.59779">
        <ele>569.514749</ele>
        <time>2022-09-26T11:38:04.482Z</time>
      </trkpt>
      <trkpt lat="47.07257" lon="15.59802">
        <ele>569.380495</ele>
        <time>2022-09-26T11:38:06.442Z</time>
      </trkpt>
      <trkpt lat="47.07258" lon="15.59825">
        <ele>569.349916</ele>
        <time>2022-09-26T11:38:08.469Z</time>
      </trkpt>
      <trkpt lat="47.07261" lon="15.59844">
        <ele>569.401028</ele>
        <time>2022-09-26T11:38:10.502Z</time>
      </trkpt>
      <trkpt lat="47.07263" lon="15.59862">
        <ele>569.449887</ele>
        <time>2022-09-26T11:38:12.491Z</time>
      </trkpt>
      <trkpt lat="47.07266" lon="15.59879">
        <ele>569.495391</ele>
        <time>2022-09-26T11:38:14.456Z</time>
      </trkpt>
      <trkpt lat="47.07269" lon="15.59893">
        <ele>569.535605</ele>
        <time>2022-09-26T11:38:16.446Z</time>
      </trkpt>
      <trkpt lat="47.07271" lon="15.59906">
        <ele>569.57125</ele>
        <time>2022-09-26T11:38:18.457Z</time>
      </trkpt>
      <trkpt lat="47.07275" lon="15.59921">
        <ele>569.614677</ele>
        <time>2022-09-26T11:38:21.483Z</time>
      </trkpt>
      <trkpt lat="47.0728" lon="15.59933">
        <ele>569.650059</ele>
        <time>2022-09-26T11:38:24.454Z</time>
      </trkpt>
      <trkpt lat="47.07288" lon="15.59946">
        <ele>569.697271</ele>
        <time>2022-09-26T11:38:28.464Z</time>
      </trkpt>
      <trkpt lat="47.07296" lon="15.59956">
        <ele>569.738482</ele>
        <time>2022-09-26T11:38:31.464Z</time>
      </trkpt>
      <trkpt lat="47.07305" lon="15.59964">
        <ele>569.778746</ele>
        <time>2022-09-26T11:38:34.459Z</time>
      </trkpt>
      <trkpt lat="47.07315" lon="15.59968">
        <ele>569.816354</ele>
        <time>2022-09-26T11:38:37.461Z</time>
      </trkpt>
      <trkpt lat="47.07325" lon="15.59969">
        <ele>569.856469</ele>
        <time>2022-09-26T11:38:40.451Z</time>
      </trkpt>
      <trkpt lat="47.07336" lon="15.59971">
        <ele>569.89818</ele>
        <time>2022-09-26T11:38:43.491Z</time>
      </trkpt>
      <trkpt lat="47.07345" lon="15.59971">
        <ele>569.936208</ele>
        <time>2022-09-26T11:38:46.433Z</time>
      </trkpt>
      <trkpt lat="47.07355" lon="15.59971">
        <ele>569.971891</ele>
        <time>2022-09-26T11:38:49.456Z</time>
      </trkpt>
      <trkpt lat="47.07366" lon="15.59972">
        <ele>570.015506</ele>
        <time>2022-09-26T11:38:53.461Z</time>
      </trkpt>
      <trkpt lat="47.07375" lon="15.59976">
        <ele>570.103398</ele>
        <time>2022-09-26T11:38:57.460Z</time>
      </trkpt>
      <trkpt lat="47.07384" lon="15.59983">
        <ele>570.195973</ele>
        <time>2022-09-26T11:39:01.465Z</time>
      </trkpt>
      <trkpt lat="47.0739" lon="15.59994">
        <ele>570.287116</ele>
        <time>2022-09-26T11:39:05.506Z</time>
      </trkpt>
      <trkpt lat="47.07395" lon="15.60006">
        <ele>570.380082</ele>
        <time>2022-09-26T11:39:09.449Z</time>
      </trkpt>
      <trkpt lat="47.07398" lon="15.60021">
        <ele>570.477339</ele>
        <time>2022-09-26T11:39:13.502Z</time>
      </trkpt>
      <trkpt lat="47.07398" lon="15.60036">
        <ele>570.571756</ele>
        <time>2022-09-26T11:39:16.450Z</time>
      </trkpt>
      <trkpt lat="47.07398" lon="15.60052">
        <ele>570.6778</ele>
        <time>2022-09-26T11:39:19.448Z</time>
      </trkpt>
      <trkpt lat="47.07397" lon="15.6007">
        <ele>570.79479</ele>
        <time>2022-09-26T11:39:22.460Z</time>
      </trkpt>
      <trkpt lat="47.07396" lon="15.6009">
        <ele>570.919523</ele>
        <time>2022-09-26T11:39:25.444Z</time>
      </trkpt>
      <trkpt lat="47.07395" lon="15.60103">
        <ele>571.008493</ele>
        <time>2022-09-26T11:39:27.560Z</time>
      </trkpt>
      <trkpt lat="47.07394" lon="15.60117">
        <ele>571.096186</ele>
        <time>2022-09-26T11:39:29.457Z</time>
      </trkpt>
      <trkpt lat="47.07393" lon="15.60131">
        <ele>571.186507</ele>
        <time>2022-09-26T11:39:31.467Z</time>
      </trkpt>
      <trkpt lat="47.07391" lon="15.60146">
        <ele>571.284256</ele>
        <time>2022-09-26T11:39:33.468Z</time>
      </trkpt>
      <trkpt lat="47.07389" lon="15.6016">
        <ele>571.378848</ele>
        <time>2022-09-26T11:39:35.466Z</time>
      </trkpt>
      <trkpt lat="47.07388" lon="15.60175">
        <ele>571.473907</ele>
        <time>2022-09-26T11:39:37.455Z</time>
      </trkpt>
      <trkpt lat="47.07386" lon="15.60189">
        <ele>571.564455</ele>
        <time>2022-09-26T11:39:39.457Z</time>
      </trkpt>
      <trkpt lat="47.07383" lon="15.60203">
        <ele>571.659795</ele>
        <time>2022-09-26T11:39:41.461Z</time>
      </trkpt>
      <trkpt lat="47.07383" lon="15.60219">
        <ele>571.510116</ele>
        <time>2022-09-26T11:39:43.459Z</time>
      </trkpt>
      <trkpt lat="47.07382" lon="15.60234">
        <ele>571.103576</ele>
        <time>2022-09-26T11:39:45.461Z</time>
      </trkpt>
      <trkpt lat="47.07381" lon="15.60249">
        <ele>570.688947</ele>
        <time>2022-09-26T11:39:47.472Z</time>
      </trkpt>
      <trkpt lat="47.07381" lon="15.60265">
        <ele>570.277508</ele>
        <time>2022-09-26T11:39:49.516Z</time>
      </trkpt>
      <trkpt lat="47.07381" lon="15.60279">
        <ele>569.87634</ele>
        <time>2022-09-26T11:39:51.444Z</time>
      </trkpt>
      <trkpt lat="47.07383" lon="15.60294">
        <ele>569.470707</ele>
        <time>2022-09-26T11:39:53.456Z</time>
      </trkpt>
      <trkpt lat="47.07386" lon="15.60309">
        <ele>569.064586</ele>
        <time>2022-09-26T11:39:55.463Z</time>
      </trkpt>
      <trkpt lat="47.0739" lon="15.60323">
        <ele>568.652394</ele>
        <time>2022-09-26T11:39:57.459Z</time>
      </trkpt>
      <trkpt lat="47.07395" lon="15.60336">
        <ele>568.251261</ele>
        <time>2022-09-26T11:39:59.452Z</time>
      </trkpt>
      <trkpt lat="47.07399" lon="15.60349">
        <ele>567.863897</ele>
        <time>2022-09-26T11:40:01.454Z</time>
      </trkpt>
      <trkpt lat="47.07405" lon="15.60362">
        <ele>567.456153</ele>
        <time>2022-09-26T11:40:03.467Z</time>
      </trkpt>
      <trkpt lat="47.07411" lon="15.60376">
        <ele>567.011579</ele>
        <time>2022-09-26T11:40:05.451Z</time>
      </trkpt>
      <trkpt lat="47.07417" lon="15.6039">
        <ele>566.544522</ele>
        <time>2022-09-26T11:40:07.455Z</time>
      </trkpt>
      <trkpt lat="47.07423" lon="15.60405">
        <ele>566.091581</ele>
        <time>2022-09-26T11:40:10.466Z</time>
      </trkpt>
      <trkpt lat="47.07428" lon="15.60423">
        <ele>565.561348</ele>
        <time>2022-09-26T11:40:14.445Z</time>
      </trkpt>
      <trkpt lat="47.07428" lon="15.6044">
        <ele>565.125639</ele>
        <time>2022-09-26T11:40:16.493Z</time>
      </trkpt>
      <trkpt lat="47.0742" lon="15.6045">
        <ele>564.717265</ele>
        <time>2022-09-26T11:40:18.462Z</time>
      </trkpt>
      <trkpt lat="47.07407" lon="15.60459">
        <ele>564.077572</ele>
        <time>2022-09-26T11:40:20.472Z</time>
      </trkpt>
      <trkpt lat="47.07398" lon="15.60465">
        <ele>563.67258</ele>
        <time>2022-09-26T11:40:21.471Z</time>
      </trkpt>
      <trkpt lat="47.07385" lon="15.60476">
        <ele>562.999365</ele>
        <time>2022-09-26T11:40:23.484Z</time>
      </trkpt>
      <trkpt lat="47.07373" lon="15.60488">
        <ele>562.356272</ele>
        <time>2022-09-26T11:40:25.479Z</time>
      </trkpt>
      <trkpt lat="47.07363" lon="15.60502">
        <ele>561.728573</ele>
        <time>2022-09-26T11:40:27.510Z</time>
      </trkpt>
      <trkpt lat="47.07355" lon="15.6052">
        <ele>561.091568</ele>
        <time>2022-09-26T11:40:29.490Z</time>
      </trkpt>
      <trkpt lat="47.07347" lon="15.60539">
        <ele>560.424382</ele>
        <time>2022-09-26T11:40:31.491Z</time>
      </trkpt>
      <trkpt lat="47.07341" lon="15.60561">
        <ele>559.729417</ele>
        <time>2022-09-26T11:40:33.461Z</time>
      </trkpt>
      <trkpt lat="47.07337" lon="15.60584">
        <ele>559.006172</ele>
        <time>2022-09-26T11:40:35.535Z</time>
      </trkpt>
      <trkpt lat="47.07333" lon="15.60606">
        <ele>558.311432</ele>
        <time>2022-09-26T11:40:37.480Z</time>
      </trkpt>
      <trkpt lat="47.07329" lon="15.60628">
        <ele>557.637617</ele>
        <time>2022-09-26T11:40:39.474Z</time>
      </trkpt>
      <trkpt lat="47.07326" lon="15.60648">
        <ele>556.995169</ele>
        <time>2022-09-26T11:40:41.454Z</time>
      </trkpt>
      <trkpt lat="47.07322" lon="15.60667">
        <ele>556.71832</ele>
        <time>2022-09-26T11:40:43.467Z</time>
      </trkpt>
      <trkpt lat="47.07319" lon="15.60685">
        <ele>556.83872</ele>
        <time>2022-09-26T11:40:45.467Z</time>
      </trkpt>
      <trkpt lat="47.07317" lon="15.60701">
        <ele>556.95088</ele>
        <time>2022-09-26T11:40:47.467Z</time>
      </trkpt>
      <trkpt lat="47.07318" lon="15.60717">
        <ele>557.056337</ele>
        <time>2022-09-26T11:40:49.521Z</time>
      </trkpt>
      <trkpt lat="47.0732" lon="15.60731">
        <ele>557.157857</ele>
        <time>2022-09-26T11:40:51.446Z</time>
      </trkpt>
      <trkpt lat="47.07323" lon="15.60746">
        <ele>557.262775</ele>
        <time>2022-09-26T11:40:53.455Z</time>
      </trkpt>
      <trkpt lat="47.07327" lon="15.60759">
        <ele>557.359101</ele>
        <time>2022-09-26T11:40:55.490Z</time>
      </trkpt>
      <trkpt lat="47.07331" lon="15.60771">
        <ele>557.449154</ele>
        <time>2022-09-26T11:40:57.452Z</time>
      </trkpt>
      <trkpt lat="47.07337" lon="15.60786">
        <ele>557.567478</ele>
        <time>2022-09-26T11:41:00.463Z</time>
      </trkpt>
      <trkpt lat="47.07344" lon="15.60799">
        <ele>557.679728</ele>
        <time>2022-09-26T11:41:03.462Z</time>
      </trkpt>
      <trkpt lat="47.0735" lon="15.60813">
        <ele>557.794165</ele>
        <time>2022-09-26T11:41:06.457Z</time>
      </trkpt>
      <trkpt lat="47.07357" lon="15.60827">
        <ele>557.906961</ele>
        <time>2022-09-26T11:41:09.465Z</time>
      </trkpt>
      <trkpt lat="47.07363" lon="15.60841">
        <ele>558.020292</ele>
        <time>2022-09-26T11:41:12.542Z</time>
      </trkpt>
      <trkpt lat="47.07369" lon="15.60856">
        <ele>558.133658</ele>
        <time>2022-09-26T11:41:15.462Z</time>
      </trkpt>
      <trkpt lat="47.07375" lon="15.6087">
        <ele>558.250938</ele>
        <time>2022-09-26T11:41:18.488Z</time>
      </trkpt>
      <trkpt lat="47.0738" lon="15.60884">
        <ele>558.352717</ele>
        <time>2022-09-26T11:41:21.455Z</time>
      </trkpt>
      <trkpt lat="47.07384" lon="15.60898">
        <ele>558.470699</ele>
        <time>2022-09-26T11:41:24.455Z</time>
      </trkpt>
      <trkpt lat="47.07386" lon="15.60911">
        <ele>558.703271</ele>
        <time>2022-09-26T11:41:27.470Z</time>
      </trkpt>
      <trkpt lat="47.07388" lon="15.60927">
        <ele>558.974783</ele>
        <time>2022-09-26T11:41:31.461Z</time>
      </trkpt>
      <trkpt lat="47.07389" lon="15.6094">
        <ele>559.202512</ele>
        <time>2022-09-26T11:41:35.464Z</time>
      </trkpt>
      <trkpt lat="47.0739" lon="15.60955">
        <ele>559.449526</ele>
        <time>2022-09-26T11:41:41.451Z</time>
      </trkpt>
      <trkpt lat="47.07391" lon="15.60969">
        <ele>559.688382</ele>
        <time>2022-09-26T11:41:48.459Z</time>
      </trkpt>
      <trkpt lat="47.07393" lon="15.60982">
        <ele>559.911856</ele>
        <time>2022-09-26T11:41:55.460Z</time>
      </trkpt>
      <trkpt lat="47.07395" lon="15.60995">
        <ele>560.15104</ele>
        <time>2022-09-26T11:42:01.458Z</time>
      </trkpt>
      <trkpt lat="47.074" lon="15.6101">
        <ele>560.437596</ele>
        <time>2022-09-26T11:42:06.450Z</time>
      </trkpt>
      <trkpt lat="47.07405" lon="15.61023">
        <ele>560.678116</ele>
        <time>2022-09-26T11:42:09.443Z</time>
      </trkpt>
      <trkpt lat="47.07411" lon="15.61039">
        <ele>560.994295</ele>
        <time>2022-09-26T11:42:12.461Z</time>
      </trkpt>
      <trkpt lat="47.07415" lon="15.61052">
        <ele>561.238439</ele>
        <time>2022-09-26T11:42:14.526Z</time>
      </trkpt>
      <trkpt lat="47.07417" lon="15.61068">
        <ele>561.51509</ele>
        <time>2022-09-26T11:42:16.496Z</time>
      </trkpt>
      <trkpt lat="47.07418" lon="15.61084">
        <ele>561.773298</ele>
        <time>2022-09-26T11:42:18.450Z</time>
      </trkpt>
      <trkpt lat="47.07417" lon="15.61098">
        <ele>562.019859</ele>
        <time>2022-09-26T11:42:20.448Z</time>
      </trkpt>
      <trkpt lat="47.07414" lon="15.61112">
        <ele>562.266993</ele>
        <time>2022-09-26T11:42:22.507Z</time>
      </trkpt>
      <trkpt lat="47.07408" lon="15.61125">
        <ele>562.526523</ele>
        <time>2022-09-26T11:42:24.504Z</time>
      </trkpt>
      <trkpt lat="47.07402" lon="15.61138">
        <ele>562.794122</ele>
        <time>2022-09-26T11:42:26.447Z</time>
      </trkpt>
      <trkpt lat="47.07395" lon="15.61153">
        <ele>562.556113</ele>
        <time>2022-09-26T11:42:28.464Z</time>
      </trkpt>
      <trkpt lat="47.07388" lon="15.61169">
        <ele>561.857724</ele>
        <time>2022-09-26T11:42:30.468Z</time>
      </trkpt>
      <trkpt lat="47.0738" lon="15.61184">
        <ele>561.161973</ele>
        <time>2022-09-26T11:42:32.484Z</time>
      </trkpt>
      <trkpt lat="47.07372" lon="15.61201">
        <ele>560.416155</ele>
        <time>2022-09-26T11:42:34.461Z</time>
      </trkpt>
      <trkpt lat="47.07363" lon="15.61219">
        <ele>559.610115</ele>
        <time>2022-09-26T11:42:36.467Z</time>
      </trkpt>
      <trkpt lat="47.07354" lon="15.61237">
        <ele>558.834416</ele>
        <time>2022-09-26T11:42:38.453Z</time>
      </trkpt>
      <trkpt lat="47.07346" lon="15.61254">
        <ele>558.067977</ele>
        <time>2022-09-26T11:42:40.459Z</time>
      </trkpt>
      <trkpt lat="47.07339" lon="15.61273">
        <ele>557.313133</ele>
        <time>2022-09-26T11:42:42.451Z</time>
      </trkpt>
      <trkpt lat="47.07334" lon="15.61294">
        <ele>556.507968</ele>
        <time>2022-09-26T11:42:44.479Z</time>
      </trkpt>
      <trkpt lat="47.0733" lon="15.61317">
        <ele>555.660959</ele>
        <time>2022-09-26T11:42:46.454Z</time>
      </trkpt>
      <trkpt lat="47.07326" lon="15.61341">
        <ele>554.778367</ele>
        <time>2022-09-26T11:42:48.488Z</time>
      </trkpt>
      <trkpt lat="47.07323" lon="15.61366">
        <ele>553.865921</ele>
        <time>2022-09-26T11:42:50.464Z</time>
      </trkpt>
      <trkpt lat="47.07318" lon="15.61391">
        <ele>553.312324</ele>
        <time>2022-09-26T11:42:52.447Z</time>
      </trkpt>
      <trkpt lat="47.07311" lon="15.61414">
        <ele>553.045087</ele>
        <time>2022-09-26T11:42:54.463Z</time>
      </trkpt>
      <trkpt lat="47.07308" lon="15.61438">
        <ele>552.795377</ele>
        <time>2022-09-26T11:42:56.446Z</time>
      </trkpt>
      <trkpt lat="47.07308" lon="15.61461">
        <ele>552.54563</ele>
        <time>2022-09-26T11:42:58.448Z</time>
      </trkpt>
      <trkpt lat="47.07311" lon="15.61486">
        <ele>552.286464</ele>
        <time>2022-09-26T11:43:00.495Z</time>
      </trkpt>
      <trkpt lat="47.07316" lon="15.61509">
        <ele>552.026645</ele>
        <time>2022-09-26T11:43:02.467Z</time>
      </trkpt>
      <trkpt lat="47.07325" lon="15.61527">
        <ele>551.793265</ele>
        <time>2022-09-26T11:43:04.442Z</time>
      </trkpt>
      <trkpt lat="47.07335" lon="15.61541">
        <ele>551.579114</ele>
        <time>2022-09-26T11:43:06.454Z</time>
      </trkpt>
      <trkpt lat="47.07344" lon="15.61553">
        <ele>551.393376</ele>
        <time>2022-09-26T11:43:08.457Z</time>
      </trkpt>
      <trkpt lat="47.07353" lon="15.61563">
        <ele>551.21781</ele>
        <time>2022-09-26T11:43:11.473Z</time>
      </trkpt>
      <trkpt lat="47.0736" lon="15.61572">
        <ele>551.071243</ele>
        <time>2022-09-26T11:43:15.471Z</time>
      </trkpt>
      <trkpt lat="47.07368" lon="15.61581">
        <ele>550.913391</ele>
        <time>2022-09-26T11:43:19.455Z</time>
      </trkpt>
      <trkpt lat="47.07376" lon="15.61594">
        <ele>550.725931</ele>
        <time>2022-09-26T11:43:23.457Z</time>
      </trkpt>
      <trkpt lat="47.07382" lon="15.61607">
        <ele>550.664225</ele>
        <time>2022-09-26T11:43:26.459Z</time>
      </trkpt>
      <trkpt lat="47.07386" lon="15.6162">
        <ele>550.643796</ele>
        <time>2022-09-26T11:43:29.474Z</time>
      </trkpt>
      <trkpt lat="47.0739" lon="15.61634">
        <ele>550.621054</ele>
        <time>2022-09-26T11:43:32.452Z</time>
      </trkpt>
      <trkpt lat="47.07395" lon="15.61646">
        <ele>550.599639</ele>
        <time>2022-09-26T11:43:35.459Z</time>
      </trkpt>
      <trkpt lat="47.07401" lon="15.61658">
        <ele>550.578053</ele>
        <time>2022-09-26T11:43:38.484Z</time>
      </trkpt>
      <trkpt lat="47.07407" lon="15.61669">
        <ele>550.556509</ele>
        <time>2022-09-26T11:43:41.466Z</time>
      </trkpt>
      <trkpt lat="47.07414" lon="15.61679">
        <ele>550.535004</ele>
        <time>2022-09-26T11:43:44.474Z</time>
      </trkpt>
      <trkpt lat="47.07421" lon="15.61689">
        <ele>550.514803</ele>
        <time>2022-09-26T11:43:47.467Z</time>
      </trkpt>
      <trkpt lat="47.07427" lon="15.61698">
        <ele>550.494811</ele>
        <time>2022-09-26T11:43:50.462Z</time>
      </trkpt>
      <trkpt lat="47.07434" lon="15.61709">
        <ele>550.472364</ele>
        <time>2022-09-26T11:43:53.460Z</time>
      </trkpt>
      <trkpt lat="47.07442" lon="15.6172">
        <ele>550.449607</ele>
        <time>2022-09-26T11:43:56.459Z</time>
      </trkpt>
      <trkpt lat="47.07449" lon="15.6173">
        <ele>550.426944</ele>
        <time>2022-09-26T11:43:59.456Z</time>
      </trkpt>
      <trkpt lat="47.07457" lon="15.61742">
        <ele>550.401533</ele>
        <time>2022-09-26T11:44:02.468Z</time>
      </trkpt>
      <trkpt lat="47.07463" lon="15.61753">
        <ele>550.381704</ele>
        <time>2022-09-26T11:44:04.443Z</time>
      </trkpt>
      <trkpt lat="47.07469" lon="15.61765">
        <ele>550.358885</ele>
        <time>2022-09-26T11:44:06.481Z</time>
      </trkpt>
      <trkpt lat="47.07475" lon="15.61779">
        <ele>550.33409</ele>
        <time>2022-09-26T11:44:08.461Z</time>
      </trkpt>
      <trkpt lat="47.07481" lon="15.61797">
        <ele>550.305147</ele>
        <time>2022-09-26T11:44:10.450Z</time>
      </trkpt>
      <trkpt lat="47.07484" lon="15.61819">
        <ele>550.249914</ele>
        <time>2022-09-26T11:44:12.459Z</time>
      </trkpt>
      <trkpt lat="47.07485" lon="15.61842">
        <ele>550.166609</ele>
        <time>2022-09-26T11:44:14.480Z</time>
      </trkpt>
      <trkpt lat="47.07484" lon="15.61865">
        <ele>550.085103</ele>
        <time>2022-09-26T11:44:16.443Z</time>
      </trkpt>
      <trkpt lat="47.07483" lon="15.61892">
        <ele>549.99284</ele>
        <time>2022-09-26T11:44:18.464Z</time>
      </trkpt>
      <trkpt lat="47.07482" lon="15.61905">
        <ele>549.946268</ele>
        <time>2022-09-26T11:44:19.450Z</time>
      </trkpt>
      <trkpt lat="47.07481" lon="15.61931">
        <ele>549.855363</ele>
        <time>2022-09-26T11:44:21.476Z</time>
      </trkpt>
      <trkpt lat="47.0748" lon="15.61954">
        <ele>549.772082</ele>
        <time>2022-09-26T11:44:23.447Z</time>
      </trkpt>
      <trkpt lat="47.07481" lon="15.61977">
        <ele>549.69355</ele>
        <time>2022-09-26T11:44:25.462Z</time>
      </trkpt>
      <trkpt lat="47.07485" lon="15.61998">
        <ele>549.614421</ele>
        <time>2022-09-26T11:44:27.468Z</time>
      </trkpt>
      <trkpt lat="47.07491" lon="15.62019">
        <ele>549.534612</ele>
        <time>2022-09-26T11:44:29.483Z</time>
      </trkpt>
      <trkpt lat="47.07498" lon="15.62038">
        <ele>549.458835</ele>
        <time>2022-09-26T11:44:31.466Z</time>
      </trkpt>
      <trkpt lat="47.07505" lon="15.6206">
        <ele>549.375051</ele>
        <time>2022-09-26T11:44:33.470Z</time>
      </trkpt>
      <trkpt lat="47.07507" lon="15.62086">
        <ele>548.639541</ele>
        <time>2022-09-26T11:44:35.492Z</time>
      </trkpt>
      <trkpt lat="47.07508" lon="15.621">
        <ele>548.187098</ele>
        <time>2022-09-26T11:44:36.451Z</time>
      </trkpt>
      <trkpt lat="47.0751" lon="15.62114">
        <ele>547.724408</ele>
        <time>2022-09-26T11:44:37.455Z</time>
      </trkpt>
      <trkpt lat="47.07511" lon="15.62128">
        <ele>547.274671</ele>
        <time>2022-09-26T11:44:38.464Z</time>
      </trkpt>
      <trkpt lat="47.07513" lon="15.62152">
        <ele>546.470238</ele>
        <time>2022-09-26T11:44:40.467Z</time>
      </trkpt>
      <trkpt lat="47.07516" lon="15.62173">
        <ele>545.764757</ele>
        <time>2022-09-26T11:44:42.448Z</time>
      </trkpt>
      <trkpt lat="47.07519" lon="15.62193">
        <ele>545.099229</ele>
        <time>2022-09-26T11:44:44.456Z</time>
      </trkpt>
      <trkpt lat="47.07523" lon="15.62214">
        <ele>544.407139</ele>
        <time>2022-09-26T11:44:46.458Z</time>
      </trkpt>
      <trkpt lat="47.07527" lon="15.62235">
        <ele>543.678363</ele>
        <time>2022-09-26T11:44:48.466Z</time>
      </trkpt>
      <trkpt lat="47.07532" lon="15.62256">
        <ele>542.965177</ele>
        <time>2022-09-26T11:44:50.452Z</time>
      </trkpt>
      <trkpt lat="47.07535" lon="15.62278">
        <ele>542.236065</ele>
        <time>2022-09-26T11:44:52.495Z</time>
      </trkpt>
      <trkpt lat="47.07536" lon="15.62298">
        <ele>541.582613</ele>
        <time>2022-09-26T11:44:54.460Z</time>
      </trkpt>
      <trkpt lat="47.07535" lon="15.62316">
        <ele>540.995736</ele>
        <time>2022-09-26T11:44:56.458Z</time>
      </trkpt>
      <trkpt lat="47.07533" lon="15.62334">
        <ele>540.633328</ele>
        <time>2022-09-26T11:44:58.495Z</time>
      </trkpt>
      <trkpt lat="47.07532" lon="15.62351">
        <ele>540.439695</ele>
        <time>2022-09-26T11:45:00.449Z</time>
      </trkpt>
      <trkpt lat="47.07529" lon="15.6237">
        <ele>540.232083</ele>
        <time>2022-09-26T11:45:02.453Z</time>
      </trkpt>
      <trkpt lat="47.07523" lon="15.6239">
        <ele>539.992503</ele>
        <time>2022-09-26T11:45:04.503Z</time>
      </trkpt>
      <trkpt lat="47.07516" lon="15.62404">
        <ele>539.801615</ele>
        <time>2022-09-26T11:45:06.444Z</time>
      </trkpt>
      <trkpt lat="47.07504" lon="15.62417">
        <ele>539.569471</ele>
        <time>2022-09-26T11:45:08.462Z</time>
      </trkpt>
      <trkpt lat="47.07492" lon="15.62431">
        <ele>539.318738</ele>
        <time>2022-09-26T11:45:10.446Z</time>
      </trkpt>
      <trkpt lat="47.07482" lon="15.62448">
        <ele>539.073281</ele>
        <time>2022-09-26T11:45:12.470Z</time>
      </trkpt>
      <trkpt lat="47.07479" lon="15.62463">
        <ele>538.90366</ele>
        <time>2022-09-26T11:45:14.464Z</time>
      </trkpt>
      <trkpt lat="47.0748" lon="15.62492">
        <ele>538.586666</ele>
        <time>2022-09-26T11:45:16.445Z</time>
      </trkpt>
      <trkpt lat="47.07481" lon="15.62507">
        <ele>538.416841</ele>
        <time>2022-09-26T11:45:17.457Z</time>
      </trkpt>
      <trkpt lat="47.07482" lon="15.62521">
        <ele>538.268593</ele>
        <time>2022-09-26T11:45:18.451Z</time>
      </trkpt>
      <trkpt lat="47.07483" lon="15.62535">
        <ele>538.116164</ele>
        <time>2022-09-26T11:45:19.467Z</time>
      </trkpt>
      <trkpt lat="47.07485" lon="15.6256">
        <ele>537.881394</ele>
        <time>2022-09-26T11:45:21.479Z</time>
      </trkpt>
      <trkpt lat="47.07486" lon="15.62581">
        <ele>538.017667</ele>
        <time>2022-09-26T11:45:23.443Z</time>
      </trkpt>
      <trkpt lat="47.07485" lon="15.62601">
        <ele>538.142683</ele>
        <time>2022-09-26T11:45:25.453Z</time>
      </trkpt>
      <trkpt lat="47.07484" lon="15.62616">
        <ele>538.236495</ele>
        <time>2022-09-26T11:45:27.459Z</time>
      </trkpt>
      <trkpt lat="47.07484" lon="15.62634">
        <ele>538.353817</ele>
        <time>2022-09-26T11:45:30.456Z</time>
      </trkpt>
      <trkpt lat="47.07484" lon="15.62649">
        <ele>538.447843</ele>
        <time>2022-09-26T11:45:32.508Z</time>
      </trkpt>
      <trkpt lat="47.07483" lon="15.62663">
        <ele>538.534382</ele>
        <time>2022-09-26T11:45:34.467Z</time>
      </trkpt>
      <trkpt lat="47.07482" lon="15.62679">
        <ele>538.638163</ele>
        <time>2022-09-26T11:45:37.483Z</time>
      </trkpt>
      <trkpt lat="47.07483" lon="15.62695">
        <ele>538.734325</ele>
        <time>2022-09-26T11:45:40.455Z</time>
      </trkpt>
      <trkpt lat="47.07483" lon="15.62712">
        <ele>538.843463</ele>
        <time>2022-09-26T11:45:43.486Z</time>
      </trkpt>
      <trkpt lat="47.07484" lon="15.62727">
        <ele>538.936353</ele>
        <time>2022-09-26T11:45:45.490Z</time>
      </trkpt>
      <trkpt lat="47.07482" lon="15.62741">
        <ele>539.031183</ele>
        <time>2022-09-26T11:45:47.452Z</time>
      </trkpt>
      <trkpt lat="47.07478" lon="15.62754">
        <ele>539.120996</ele>
        <time>2022-09-26T11:45:49.454Z</time>
      </trkpt>
      <trkpt lat="47.07475" lon="15.62768">
        <ele>539.20969</ele>
        <time>2022-09-26T11:45:51.463Z</time>
      </trkpt>
      <trkpt lat="47.07471" lon="15.62781">
        <ele>539.301824</ele>
        <time>2022-09-26T11:45:53.463Z</time>
      </trkpt>
      <trkpt lat="47.07465" lon="15.62794">
        <ele>539.400411</ele>
        <time>2022-09-26T11:45:55.477Z</time>
      </trkpt>
      <trkpt lat="47.07461" lon="15.62809">
        <ele>539.502711</ele>
        <time>2022-09-26T11:45:57.462Z</time>
      </trkpt>
      <trkpt lat="47.07452" lon="15.62823">
        <ele>539.080896</ele>
        <time>2022-09-26T11:45:59.463Z</time>
      </trkpt>
      <trkpt lat="47.07443" lon="15.62839">
        <ele>538.385214</ele>
        <time>2022-09-26T11:46:01.453Z</time>
      </trkpt>
      <trkpt lat="47.07437" lon="15.6286">
        <ele>537.641574</ele>
        <time>2022-09-26T11:46:03.458Z</time>
      </trkpt>
      <trkpt lat="47.07433" lon="15.6288">
        <ele>536.94488</ele>
        <time>2022-09-26T11:46:05.483Z</time>
      </trkpt>
      <trkpt lat="47.07431" lon="15.62898">
        <ele>536.315376</ele>
        <time>2022-09-26T11:46:07.479Z</time>
      </trkpt>
      <trkpt lat="47.0743" lon="15.62918">
        <ele>535.681683</ele>
        <time>2022-09-26T11:46:09.460Z</time>
      </trkpt>
      <trkpt lat="47.07431" lon="15.62936">
        <ele>535.071586</ele>
        <time>2022-09-26T11:46:11.489Z</time>
      </trkpt>
      <trkpt lat="47.07432" lon="15.62951">
        <ele>534.565312</ele>
        <time>2022-09-26T11:46:13.454Z</time>
      </trkpt>
      <trkpt lat="47.07432" lon="15.62967">
        <ele>534.033768</ele>
        <time>2022-09-26T11:46:15.466Z</time>
      </trkpt>
      <trkpt lat="47.07433" lon="15.62983">
        <ele>533.514292</ele>
        <time>2022-09-26T11:46:17.447Z</time>
      </trkpt>
      <trkpt lat="47.07434" lon="15.62997">
        <ele>533.048899</ele>
        <time>2022-09-26T11:46:19.451Z</time>
      </trkpt>
      <trkpt lat="47.07435" lon="15.63011">
        <ele>532.56191</ele>
        <time>2022-09-26T11:46:21.503Z</time>
      </trkpt>
      <trkpt lat="47.07436" lon="15.63025">
        <ele>532.090186</ele>
        <time>2022-09-26T11:46:23.460Z</time>
      </trkpt>
      <trkpt lat="47.07438" lon="15.63039">
        <ele>531.62609</ele>
        <time>2022-09-26T11:46:25.468Z</time>
      </trkpt>
      <trkpt lat="47.07443" lon="15.63053">
        <ele>531.100315</ele>
        <time>2022-09-26T11:46:27.454Z</time>
      </trkpt>
      <trkpt lat="47.07451" lon="15.6306">
        <ele>530.569239</ele>
        <time>2022-09-26T11:46:29.460Z</time>
      </trkpt>
      <trkpt lat="47.07462" lon="15.63067">
        <ele>529.680422</ele>
        <time>2022-09-26T11:46:31.460Z</time>
      </trkpt>
      <trkpt lat="47.07474" lon="15.63073">
        <ele>528.669405</ele>
        <time>2022-09-26T11:46:33.458Z</time>
      </trkpt>
      <trkpt lat="47.07486" lon="15.6308">
        <ele>527.62537</ele>
        <time>2022-09-26T11:46:35.457Z</time>
      </trkpt>
      <trkpt lat="47.07499" lon="15.63089">
        <ele>526.497623</ele>
        <time>2022-09-26T11:46:37.462Z</time>
      </trkpt>
      <trkpt lat="47.07512" lon="15.63098">
        <ele>525.423216</ele>
        <time>2022-09-26T11:46:39.451Z</time>
      </trkpt>
      <trkpt lat="47.07524" lon="15.63111">
        <ele>524.22893</ele>
        <time>2022-09-26T11:46:41.462Z</time>
      </trkpt>
      <trkpt lat="47.07536" lon="15.63118">
        <ele>523.253609</ele>
        <time>2022-09-26T11:46:43.461Z</time>
      </trkpt>
      <trkpt lat="47.07549" lon="15.63129">
        <ele>522.072526</ele>
        <time>2022-09-26T11:46:45.471Z</time>
      </trkpt>
      <trkpt lat="47.07561" lon="15.6314">
        <ele>520.925136</ele>
        <time>2022-09-26T11:46:47.466Z</time>
      </trkpt>
      <trkpt lat="47.07572" lon="15.63152">
        <ele>519.84433</ele>
        <time>2022-09-26T11:46:49.438Z</time>
      </trkpt>
      <trkpt lat="47.07581" lon="15.63166">
        <ele>518.819404</ele>
        <time>2022-09-26T11:46:51.453Z</time>
      </trkpt>
      <trkpt lat="47.07588" lon="15.63184">
        <ele>517.733547</ele>
        <time>2022-09-26T11:46:53.470Z</time>
      </trkpt>
      <trkpt lat="47.07586" lon="15.63205">
        <ele>516.572702</ele>
        <time>2022-09-26T11:46:55.452Z</time>
      </trkpt>
      <trkpt lat="47.07581" lon="15.63225">
        <ele>514.955615</ele>
        <time>2022-09-26T11:46:57.452Z</time>
      </trkpt>
      <trkpt lat="47.07573" lon="15.63243">
        <ele>513.210833</ele>
        <time>2022-09-26T11:46:59.450Z</time>
      </trkpt>
      <trkpt lat="47.07563" lon="15.63265">
        <ele>511.183349</ele>
        <time>2022-09-26T11:47:01.455Z</time>
      </trkpt>
      <trkpt lat="47.07559" lon="15.63277">
        <ele>510.152862</ele>
        <time>2022-09-26T11:47:02.460Z</time>
      </trkpt>
      <trkpt lat="47.07552" lon="15.633">
        <ele>508.194381</ele>
        <time>2022-09-26T11:47:04.471Z</time>
      </trkpt>
      <trkpt lat="47.07543" lon="15.63319">
        <ele>506.398273</ele>
        <time>2022-09-26T11:47:06.455Z</time>
      </trkpt>
      <trkpt lat="47.07531" lon="15.63334">
        <ele>504.62727</ele>
        <time>2022-09-26T11:47:08.461Z</time>
      </trkpt>
      <trkpt lat="47.0752" lon="15.63338">
        <ele>503.363464</ele>
        <time>2022-09-26T11:47:10.466Z</time>
      </trkpt>
      <trkpt lat="47.07506" lon="15.63337">
        <ele>501.766517</ele>
        <time>2022-09-26T11:47:12.461Z</time>
      </trkpt>
      <trkpt lat="47.07491" lon="15.63338">
        <ele>500.031413</ele>
        <time>2022-09-26T11:47:14.482Z</time>
      </trkpt>
      <trkpt lat="47.0748" lon="15.63345">
        <ele>498.590127</ele>
        <time>2022-09-26T11:47:16.474Z</time>
      </trkpt>
      <trkpt lat="47.07472" lon="15.63359">
        <ele>497.176216</ele>
        <time>2022-09-26T11:47:18.464Z</time>
      </trkpt>
      <trkpt lat="47.07467" lon="15.63376">
        <ele>496.056107</ele>
        <time>2022-09-26T11:47:20.469Z</time>
      </trkpt>
      <trkpt lat="47.07465" lon="15.63397">
        <ele>495.453262</ele>
        <time>2022-09-26T11:47:22.467Z</time>
      </trkpt>
      <trkpt lat="47.07468" lon="15.63421">
        <ele>494.778032</ele>
        <time>2022-09-26T11:47:24.466Z</time>
      </trkpt>
      <trkpt lat="47.07474" lon="15.63441">
        <ele>494.157048</ele>
        <time>2022-09-26T11:47:26.446Z</time>
      </trkpt>
      <trkpt lat="47.07481" lon="15.63461">
        <ele>493.509245</ele>
        <time>2022-09-26T11:47:28.468Z</time>
      </trkpt>
      <trkpt lat="47.07486" lon="15.63485">
        <ele>492.819055</ele>
        <time>2022-09-26T11:47:30.455Z</time>
      </trkpt>
      <trkpt lat="47.07488" lon="15.63498">
        <ele>492.433556</ele>
        <time>2022-09-26T11:47:31.460Z</time>
      </trkpt>
      <trkpt lat="47.0749" lon="15.63521">
        <ele>491.764689</ele>
        <time>2022-09-26T11:47:33.460Z</time>
      </trkpt>
      <trkpt lat="47.07484" lon="15.63541">
        <ele>491.17612</ele>
        <time>2022-09-26T11:47:35.456Z</time>
      </trkpt>
      <trkpt lat="47.07474" lon="15.63557">
        <ele>490.536974</ele>
        <time>2022-09-26T11:47:37.464Z</time>
      </trkpt>
      <trkpt lat="47.0746" lon="15.63567">
        <ele>489.886223</ele>
        <time>2022-09-26T11:47:39.464Z</time>
      </trkpt>
      <trkpt lat="47.07446" lon="15.63574">
        <ele>489.295143</ele>
        <time>2022-09-26T11:47:41.474Z</time>
      </trkpt>
      <trkpt lat="47.07435" lon="15.63582">
        <ele>488.768693</ele>
        <time>2022-09-26T11:47:43.465Z</time>
      </trkpt>
      <trkpt lat="47.07426" lon="15.63588">
        <ele>489.180213</ele>
        <time>2022-09-26T11:47:45.464Z</time>
      </trkpt>
      <trkpt lat="47.07417" lon="15.63593">
        <ele>489.611077</ele>
        <time>2022-09-26T11:47:47.488Z</time>
      </trkpt>
      <trkpt lat="47.07407" lon="15.63597">
        <ele>490.086702</ele>
        <time>2022-09-26T11:47:50.477Z</time>
      </trkpt>
      <trkpt lat="47.07396" lon="15.63595">
        <ele>490.579728</ele>
        <time>2022-09-26T11:47:53.470Z</time>
      </trkpt>
      <trkpt lat="47.07388" lon="15.63589">
        <ele>491.007769</ele>
        <time>2022-09-26T11:47:56.437Z</time>
      </trkpt>
      <trkpt lat="47.0738" lon="15.63581">
        <ele>491.451862</ele>
        <time>2022-09-26T11:47:59.463Z</time>
      </trkpt>
      <trkpt lat="47.07372" lon="15.63574">
        <ele>491.888752</ele>
        <time>2022-09-26T11:48:02.471Z</time>
      </trkpt>
      <trkpt lat="47.07363" lon="15.63569">
        <ele>492.329634</ele>
        <time>2022-09-26T11:48:05.471Z</time>
      </trkpt>
      <trkpt lat="47.07352" lon="15.63564">
        <ele>492.837053</ele>
        <time>2022-09-26T11:48:09.454Z</time>
      </trkpt>
      <trkpt lat="47.07344" lon="15.63559">
        <ele>493.268742</ele>
        <time>2022-09-26T11:48:12.465Z</time>
      </trkpt>
      <trkpt lat="47.07335" lon="15.63553">
        <ele>493.70378</ele>
        <time>2022-09-26T11:48:15.471Z</time>
      </trkpt>
      <trkpt lat="47.07328" lon="15.63544">
        <ele>494.127609</ele>
        <time>2022-09-26T11:48:18.479Z</time>
      </trkpt>
      <trkpt lat="47.07321" lon="15.63533">
        <ele>494.611245</ele>
        <time>2022-09-26T11:48:21.464Z</time>
      </trkpt>
      <trkpt lat="47.07315" lon="15.6352">
        <ele>495.113627</ele>
        <time>2022-09-26T11:48:24.472Z</time>
      </trkpt>
      <trkpt lat="47.07308" lon="15.63505">
        <ele>495.670092</ele>
        <time>2022-09-26T11:48:27.452Z</time>
      </trkpt>
      <trkpt lat="47.07301" lon="15.63491">
        <ele>496.210923</ele>
        <time>2022-09-26T11:48:30.466Z</time>
      </trkpt>
      <trkpt lat="47.07295" lon="15.63475">
        <ele>496.775286</ele>
        <time>2022-09-26T11:48:33.554Z</time>
      </trkpt>
      <trkpt lat="47.07289" lon="15.63458">
        <ele>496.964425</ele>
        <time>2022-09-26T11:48:36.427Z</time>
      </trkpt>
      <trkpt lat="47.07286" lon="15.6344">
        <ele>496.891285</ele>
        <time>2022-09-26T11:48:39.461Z</time>
      </trkpt>
      <trkpt lat="47.0729" lon="15.63423">
        <ele>496.823526</ele>
        <time>2022-09-26T11:48:42.491Z</time>
      </trkpt>
      <trkpt lat="47.07295" lon="15.63407">
        <ele>496.754875</ele>
        <time>2022-09-26T11:48:45.470Z</time>
      </trkpt>
      <trkpt lat="47.07302" lon="15.63392">
        <ele>496.68521</ele>
        <time>2022-09-26T11:48:48.457Z</time>
      </trkpt>
      <trkpt lat="47.07307" lon="15.63377">
        <ele>496.622004</ele>
        <time>2022-09-26T11:48:51.445Z</time>
      </trkpt>
      <trkpt lat="47.0731" lon="15.63363">
        <ele>496.563246</ele>
        <time>2022-09-26T11:48:54.467Z</time>
      </trkpt>
      <trkpt lat="47.07309" lon="15.63346">
        <ele>496.49669</ele>
        <time>2022-09-26T11:48:57.470Z</time>
      </trkpt>
      <trkpt lat="47.07304" lon="15.63331">
        <ele>496.430209</ele>
        <time>2022-09-26T11:49:00.459Z</time>
      </trkpt>
      <trkpt lat="47.07298" lon="15.63318">
        <ele>496.371554</ele>
        <time>2022-09-26T11:49:03.466Z</time>
      </trkpt>
      <trkpt lat="47.07293" lon="15.63308">
        <ele>496.319285</ele>
        <time>2022-09-26T11:49:06.464Z</time>
      </trkpt>
      <trkpt lat="47.07287" lon="15.63292">
        <ele>496.25172</ele>
        <time>2022-09-26T11:49:10.464Z</time>
      </trkpt>
      <trkpt lat="47.07283" lon="15.63279">
        <ele>496.195789</ele>
        <time>2022-09-26T11:49:13.481Z</time>
      </trkpt>
      <trkpt lat="47.07279" lon="15.63266">
        <ele>496.140273</ele>
        <time>2022-09-26T11:49:16.454Z</time>
      </trkpt>
      <trkpt lat="47.07272" lon="15.63253">
        <ele>496.078083</ele>
        <time>2022-09-26T11:49:19.459Z</time>
      </trkpt>
      <trkpt lat="47.07263" lon="15.63242">
        <ele>496.006409</ele>
        <time>2022-09-26T11:49:22.450Z</time>
      </trkpt>
      <trkpt lat="47.0725" lon="15.63235">
        <ele>495.533257</ele>
        <time>2022-09-26T11:49:25.460Z</time>
      </trkpt>
      <trkpt lat="47.07241" lon="15.63234">
        <ele>495.115573</ele>
        <time>2022-09-26T11:49:27.490Z</time>
      </trkpt>
      <trkpt lat="47.07229" lon="15.63233">
        <ele>494.551512</ele>
        <time>2022-09-26T11:49:30.454Z</time>
      </trkpt>
      <trkpt lat="47.07217" lon="15.63229">
        <ele>493.974928</ele>
        <time>2022-09-26T11:49:33.479Z</time>
      </trkpt>
      <trkpt lat="47.07205" lon="15.63221">
        <ele>493.385274</ele>
        <time>2022-09-26T11:49:36.451Z</time>
      </trkpt>
      <trkpt lat="47.07196" lon="15.6321">
        <ele>492.824592</ele>
        <time>2022-09-26T11:49:39.474Z</time>
      </trkpt>
      <trkpt lat="47.07188" lon="15.63196">
        <ele>492.273964</ele>
        <time>2022-09-26T11:49:42.461Z</time>
      </trkpt>
      <trkpt lat="47.07181" lon="15.63181">
        <ele>491.66914</ele>
        <time>2022-09-26T11:49:45.461Z</time>
      </trkpt>
      <trkpt lat="47.07176" lon="15.63169">
        <ele>491.240164</ele>
        <time>2022-09-26T11:49:47.464Z</time>
      </trkpt>
      <trkpt lat="47.07171" lon="15.63156">
        <ele>490.796697</ele>
        <time>2022-09-26T11:49:49.453Z</time>
      </trkpt>
      <trkpt lat="47.07166" lon="15.63143">
        <ele>490.322324</ele>
        <time>2022-09-26T11:49:51.487Z</time>
      </trkpt>
      <trkpt lat="47.07161" lon="15.63129">
        <ele>489.801532</ele>
        <time>2022-09-26T11:49:53.455Z</time>
      </trkpt>
      <trkpt lat="47.07154" lon="15.63114">
        <ele>489.246026</ele>
        <time>2022-09-26T11:49:55.466Z</time>
      </trkpt>
      <trkpt lat="47.07146" lon="15.631">
        <ele>488.661882</ele>
        <time>2022-09-26T11:49:57.466Z</time>
      </trkpt>
      <trkpt lat="47.07137" lon="15.63086">
        <ele>488.071289</ele>
        <time>2022-09-26T11:49:59.459Z</time>
      </trkpt>
      <trkpt lat="47.07126" lon="15.63071">
        <ele>487.015154</ele>
        <time>2022-09-26T11:50:01.536Z</time>
      </trkpt>
      <trkpt lat="47.07114" lon="15.63055">
        <ele>485.538612</ele>
        <time>2022-09-26T11:50:03.468Z</time>
      </trkpt>
      <trkpt lat="47.07102" lon="15.63038">
        <ele>483.98873</ele>
        <time>2022-09-26T11:50:05.455Z</time>
      </trkpt>
      <trkpt lat="47.07091" lon="15.6302">
        <ele>482.447884</ele>
        <time>2022-09-26T11:50:07.466Z</time>
      </trkpt>
      <trkpt lat="47.07081" lon="15.63004">
        <ele>481.087431</ele>
        <time>2022-09-26T11:50:09.462Z</time>
      </trkpt>
      <trkpt lat="47.07071" lon="15.62992">
        <ele>479.830166</ele>
        <time>2022-09-26T11:50:11.461Z</time>
      </trkpt>
      <trkpt lat="47.0706" lon="15.62986">
        <ele>478.745436</ele>
        <time>2022-09-26T11:50:13.506Z</time>
      </trkpt>
      <trkpt lat="47.07048" lon="15.6299">
        <ele>477.624055</ele>
        <time>2022-09-26T11:50:15.461Z</time>
      </trkpt>
      <trkpt lat="47.07034" lon="15.63001">
        <ele>476.142443</ele>
        <time>2022-09-26T11:50:17.432Z</time>
      </trkpt>
      <trkpt lat="47.07019" lon="15.63012">
        <ele>474.543708</ele>
        <time>2022-09-26T11:50:19.443Z</time>
      </trkpt>
      <trkpt lat="47.07007" lon="15.63023">
        <ele>473.313419</ele>
        <time>2022-09-26T11:50:21.512Z</time>
      </trkpt>
      <trkpt lat="47.06999" lon="15.63032">
        <ele>472.357465</ele>
        <time>2022-09-26T11:50:23.456Z</time>
      </trkpt>
      <trkpt lat="47.06991" lon="15.63043">
        <ele>471.323461</ele>
        <time>2022-09-26T11:50:26.455Z</time>
      </trkpt>
      <trkpt lat="47.06985" lon="15.63052">
        <ele>470.765061</ele>
        <time>2022-09-26T11:50:30.467Z</time>
      </trkpt>
      <trkpt lat="47.06983" lon="15.63068">
        <ele>470.418431</ele>
        <time>2022-09-26T11:50:34.458Z</time>
      </trkpt>
      <trkpt lat="47.06989" lon="15.63082">
        <ele>470.069501</ele>
        <time>2022-09-26T11:50:37.459Z</time>
      </trkpt>
      <trkpt lat="47.06996" lon="15.63097">
        <ele>469.711868</ele>
        <time>2022-09-26T11:50:40.504Z</time>
      </trkpt>
      <trkpt lat="47.07001" lon="15.63108">
        <ele>469.425133</ele>
        <time>2022-09-26T11:50:42.484Z</time>
      </trkpt>
      <trkpt lat="47.07007" lon="15.6312">
        <ele>469.12295</ele>
        <time>2022-09-26T11:50:44.520Z</time>
      </trkpt>
      <trkpt lat="47.07012" lon="15.63133">
        <ele>468.806656</ele>
        <time>2022-09-26T11:50:46.446Z</time>
      </trkpt>
      <trkpt lat="47.07017" lon="15.63147">
        <ele>468.47601</ele>
        <time>2022-09-26T11:50:48.441Z</time>
      </trkpt>
      <trkpt lat="47.07022" lon="15.63161">
        <ele>468.144336</ele>
        <time>2022-09-26T11:50:50.528Z</time>
      </trkpt>
      <trkpt lat="47.07027" lon="15.63176">
        <ele>467.80004</ele>
        <time>2022-09-26T11:50:52.454Z</time>
      </trkpt>
      <trkpt lat="47.0703" lon="15.63192">
        <ele>467.448989</ele>
        <time>2022-09-26T11:50:54.455Z</time>
      </trkpt>
      <trkpt lat="47.07034" lon="15.63206">
        <ele>467.139525</ele>
        <time>2022-09-26T11:50:56.466Z</time>
      </trkpt>
      <trkpt lat="47.07037" lon="15.63219">
        <ele>466.851678</ele>
        <time>2022-09-26T11:50:58.482Z</time>
      </trkpt>
      <trkpt lat="47.0704" lon="15.63232">
        <ele>466.557956</ele>
        <time>2022-09-26T11:51:00.463Z</time>
      </trkpt>
      <trkpt lat="47.07043" lon="15.63244">
        <ele>466.280074</ele>
        <time>2022-09-26T11:51:02.488Z</time>
      </trkpt>
      <trkpt lat="47.07049" lon="15.6326">
        <ele>465.912952</ele>
        <time>2022-09-26T11:51:05.462Z</time>
      </trkpt>
      <trkpt lat="47.07054" lon="15.63275">
        <ele>465.551123</ele>
        <time>2022-09-26T11:51:08.460Z</time>
      </trkpt>
      <trkpt lat="47.07061" lon="15.6329">
        <ele>465.428429</ele>
        <time>2022-09-26T11:51:11.469Z</time>
      </trkpt>
      <trkpt lat="47.07068" lon="15.63303">
        <ele>465.500235</ele>
        <time>2022-09-26T11:51:14.478Z</time>
      </trkpt>
      <trkpt lat="47.07076" lon="15.63314">
        <ele>465.567173</ele>
        <time>2022-09-26T11:51:17.462Z</time>
      </trkpt>
      <trkpt lat="47.07083" lon="15.63324">
        <ele>465.62635</ele>
        <time>2022-09-26T11:51:20.471Z</time>
      </trkpt>
      <trkpt lat="47.0709" lon="15.63333">
        <ele>465.685137</ele>
        <time>2022-09-26T11:51:23.477Z</time>
      </trkpt>
      <trkpt lat="47.07096" lon="15.63343">
        <ele>465.743129</ele>
        <time>2022-09-26T11:51:26.456Z</time>
      </trkpt>
      <trkpt lat="47.07104" lon="15.63356">
        <ele>465.819498</ele>
        <time>2022-09-26T11:51:30.448Z</time>
      </trkpt>
      <trkpt lat="47.07112" lon="15.63367">
        <ele>465.886877</ele>
        <time>2022-09-26T11:51:33.465Z</time>
      </trkpt>
      <trkpt lat="47.07121" lon="15.63378">
        <ele>465.959377</ele>
        <time>2022-09-26T11:51:36.484Z</time>
      </trkpt>
      <trkpt lat="47.0713" lon="15.6339">
        <ele>466.034655</ele>
        <time>2022-09-26T11:51:39.458Z</time>
      </trkpt>
      <trkpt lat="47.07137" lon="15.63404">
        <ele>466.108243</ele>
        <time>2022-09-26T11:51:42.491Z</time>
      </trkpt>
      <trkpt lat="47.07143" lon="15.63417">
        <ele>466.173775</ele>
        <time>2022-09-26T11:51:45.462Z</time>
      </trkpt>
      <trkpt lat="47.07147" lon="15.63429">
        <ele>466.235748</ele>
        <time>2022-09-26T11:51:48.500Z</time>
      </trkpt>
      <trkpt lat="47.07151" lon="15.63443">
        <ele>466.298885</ele>
        <time>2022-09-26T11:51:51.468Z</time>
      </trkpt>
      <trkpt lat="47.07153" lon="15.63459">
        <ele>466.365675</ele>
        <time>2022-09-26T11:51:54.455Z</time>
      </trkpt>
      <trkpt lat="47.07155" lon="15.63476">
        <ele>466.440166</ele>
        <time>2022-09-26T11:51:57.456Z</time>
      </trkpt>
      <trkpt lat="47.07156" lon="15.63494">
        <ele>466.488977</ele>
        <time>2022-09-26T11:52:00.462Z</time>
      </trkpt>
      <trkpt lat="47.07156" lon="15.63508">
        <ele>466.3081</ele>
        <time>2022-09-26T11:52:02.465Z</time>
      </trkpt>
      <trkpt lat="47.07156" lon="15.63522">
        <ele>466.116357</ele>
        <time>2022-09-26T11:52:04.454Z</time>
      </trkpt>
      <trkpt lat="47.07157" lon="15.63537">
        <ele>465.911942</ele>
        <time>2022-09-26T11:52:06.455Z</time>
      </trkpt>
      <trkpt lat="47.07158" lon="15.63554">
        <ele>465.678422</ele>
        <time>2022-09-26T11:52:08.472Z</time>
      </trkpt>
      <trkpt lat="47.07159" lon="15.63571">
        <ele>465.432789</ele>
        <time>2022-09-26T11:52:10.482Z</time>
      </trkpt>
      <trkpt lat="47.07161" lon="15.6359">
        <ele>465.17849</ele>
        <time>2022-09-26T11:52:12.484Z</time>
      </trkpt>
      <trkpt lat="47.07163" lon="15.63608">
        <ele>464.922265</ele>
        <time>2022-09-26T11:52:14.460Z</time>
      </trkpt>
      <trkpt lat="47.07165" lon="15.63626">
        <ele>464.672021</ele>
        <time>2022-09-26T11:52:16.444Z</time>
      </trkpt>
      <trkpt lat="47.07168" lon="15.63643">
        <ele>464.431361</ele>
        <time>2022-09-26T11:52:18.498Z</time>
      </trkpt>
      <trkpt lat="47.0717" lon="15.6366">
        <ele>464.205132</ele>
        <time>2022-09-26T11:52:20.475Z</time>
      </trkpt>
      <trkpt lat="47.07172" lon="15.63677">
        <ele>463.967402</ele>
        <time>2022-09-26T11:52:22.461Z</time>
      </trkpt>
      <trkpt lat="47.07176" lon="15.63692">
        <ele>463.750897</ele>
        <time>2022-09-26T11:52:24.462Z</time>
      </trkpt>
      <trkpt lat="47.0718" lon="15.63706">
        <ele>463.53555</ele>
        <time>2022-09-26T11:52:26.447Z</time>
      </trkpt>
      <trkpt lat="47.07187" lon="15.63719">
        <ele>463.311423</ele>
        <time>2022-09-26T11:52:28.468Z</time>
      </trkpt>
      <trkpt lat="47.07193" lon="15.63732">
        <ele>463.089456</ele>
        <time>2022-09-26T11:52:30.463Z</time>
      </trkpt>
      <trkpt lat="47.072" lon="15.63745">
        <ele>462.90118</ele>
        <time>2022-09-26T11:52:32.482Z</time>
      </trkpt>
      <trkpt lat="47.07207" lon="15.63756">
        <ele>462.951805</ele>
        <time>2022-09-26T11:52:34.474Z</time>
      </trkpt>
      <trkpt lat="47.07214" lon="15.63767">
        <ele>462.999211</ele>
        <time>2022-09-26T11:52:36.453Z</time>
      </trkpt>
      <trkpt lat="47.0722" lon="15.63778">
        <ele>463.046588</ele>
        <time>2022-09-26T11:52:38.450Z</time>
      </trkpt>
      <trkpt lat="47.07226" lon="15.63788">
        <ele>463.091344</ele>
        <time>2022-09-26T11:52:40.462Z</time>
      </trkpt>
      <trkpt lat="47.07233" lon="15.63799">
        <ele>463.138427</ele>
        <time>2022-09-26T11:52:42.468Z</time>
      </trkpt>
      <trkpt lat="47.07239" lon="15.63809">
        <ele>463.183421</ele>
        <time>2022-09-26T11:52:44.453Z</time>
      </trkpt>
      <trkpt lat="47.07249" lon="15.63823">
        <ele>463.246305</ele>
        <time>2022-09-26T11:52:47.459Z</time>
      </trkpt>
      <trkpt lat="47.07257" lon="15.63836">
        <ele>463.306922</ele>
        <time>2022-09-26T11:52:50.468Z</time>
      </trkpt>
      <trkpt lat="47.07266" lon="15.63851">
        <ele>463.36978</ele>
        <time>2022-09-26T11:52:53.472Z</time>
      </trkpt>
      <trkpt lat="47.07273" lon="15.63861">
        <ele>463.417511</ele>
        <time>2022-09-26T11:52:55.454Z</time>
      </trkpt>
      <trkpt lat="47.07281" lon="15.63872">
        <ele>463.468853</ele>
        <time>2022-09-26T11:52:57.457Z</time>
      </trkpt>
      <trkpt lat="47.07289" lon="15.63884">
        <ele>463.524998</ele>
        <time>2022-09-26T11:52:59.471Z</time>
      </trkpt>
      <trkpt lat="47.07299" lon="15.63896">
        <ele>463.584798</ele>
        <time>2022-09-26T11:53:01.467Z</time>
      </trkpt>
      <trkpt lat="47.07309" lon="15.63907">
        <ele>463.646369</ele>
        <time>2022-09-26T11:53:03.451Z</time>
      </trkpt>
      <trkpt lat="47.07321" lon="15.63918">
        <ele>463.714758</ele>
        <time>2022-09-26T11:53:05.463Z</time>
      </trkpt>
      <trkpt lat="47.07335" lon="15.63928">
        <ele>463.343258</ele>
        <time>2022-09-26T11:53:07.465Z</time>
      </trkpt>
      <trkpt lat="47.07349" lon="15.63937">
        <ele>462.307607</ele>
        <time>2022-09-26T11:53:09.464Z</time>
      </trkpt>
      <trkpt lat="47.07363" lon="15.63944">
        <ele>461.259977</ele>
        <time>2022-09-26T11:53:11.503Z</time>
      </trkpt>
      <trkpt lat="47.07378" lon="15.63949">
        <ele>460.219115</ele>
        <time>2022-09-26T11:53:13.472Z</time>
      </trkpt>
      <trkpt lat="47.07395" lon="15.63951">
        <ele>459.074939</ele>
        <time>2022-09-26T11:53:15.462Z</time>
      </trkpt>
      <trkpt lat="47.07411" lon="15.6395">
        <ele>457.974397</ele>
        <time>2022-09-26T11:53:17.459Z</time>
      </trkpt>
      <trkpt lat="47.07426" lon="15.6395">
        <ele>456.989439</ele>
        <time>2022-09-26T11:53:19.457Z</time>
      </trkpt>
      <trkpt lat="47.07439" lon="15.63952">
        <ele>456.055147</ele>
        <time>2022-09-26T11:53:21.451Z</time>
      </trkpt>
      <trkpt lat="47.07454" lon="15.63957">
        <ele>455.04788</ele>
        <time>2022-09-26T11:53:23.468Z</time>
      </trkpt>
      <trkpt lat="47.0747" lon="15.63964">
        <ele>453.909942</ele>
        <time>2022-09-26T11:53:25.454Z</time>
      </trkpt>
      <trkpt lat="47.07479" lon="15.63968">
        <ele>453.246447</ele>
        <time>2022-09-26T11:53:26.463Z</time>
      </trkpt>
      <trkpt lat="47.07488" lon="15.63972">
        <ele>452.59064</ele>
        <time>2022-09-26T11:53:27.458Z</time>
      </trkpt>
      <trkpt lat="47.07498" lon="15.63977">
        <ele>451.919066</ele>
        <time>2022-09-26T11:53:28.503Z</time>
      </trkpt>
      <trkpt lat="47.07507" lon="15.63982">
        <ele>451.285652</ele>
        <time>2022-09-26T11:53:29.451Z</time>
      </trkpt>
      <trkpt lat="47.07516" lon="15.63988">
        <ele>450.710107</ele>
        <time>2022-09-26T11:53:30.456Z</time>
      </trkpt>
      <trkpt lat="47.07524" lon="15.63995">
        <ele>450.137361</ele>
        <time>2022-09-26T11:53:31.445Z</time>
      </trkpt>
      <trkpt lat="47.07533" lon="15.64004">
        <ele>449.522685</ele>
        <time>2022-09-26T11:53:32.469Z</time>
      </trkpt>
      <trkpt lat="47.07541" lon="15.64012">
        <ele>448.944726</ele>
        <time>2022-09-26T11:53:33.459Z</time>
      </trkpt>
      <trkpt lat="47.07549" lon="15.64022">
        <ele>448.359077</ele>
        <time>2022-09-26T11:53:34.501Z</time>
      </trkpt>
      <trkpt lat="47.07554" lon="15.64032">
        <ele>447.827238</ele>
        <time>2022-09-26T11:53:35.462Z</time>
      </trkpt>
      <trkpt lat="47.07564" lon="15.64053">
        <ele>446.847955</ele>
        <time>2022-09-26T11:53:37.483Z</time>
      </trkpt>
      <trkpt lat="47.0757" lon="15.64076">
        <ele>445.852596</ele>
        <time>2022-09-26T11:53:39.472Z</time>
      </trkpt>
      <trkpt lat="47.07577" lon="15.64098">
        <ele>444.886813</ele>
        <time>2022-09-26T11:53:41.457Z</time>
      </trkpt>
      <trkpt lat="47.07585" lon="15.64117">
        <ele>443.956795</ele>
        <time>2022-09-26T11:53:43.473Z</time>
      </trkpt>
      <trkpt lat="47.07595" lon="15.64135">
        <ele>443.060523</ele>
        <time>2022-09-26T11:53:45.500Z</time>
      </trkpt>
      <trkpt lat="47.07604" lon="15.64152">
        <ele>442.182452</ele>
        <time>2022-09-26T11:53:47.466Z</time>
      </trkpt>
      <trkpt lat="47.07613" lon="15.64168">
        <ele>441.335877</ele>
        <time>2022-09-26T11:53:49.454Z</time>
      </trkpt>
      <trkpt lat="47.07623" lon="15.64183">
        <ele>440.935612</ele>
        <time>2022-09-26T11:53:51.463Z</time>
      </trkpt>
      <trkpt lat="47.07632" lon="15.64197">
        <ele>440.879477</ele>
        <time>2022-09-26T11:53:53.481Z</time>
      </trkpt>
      <trkpt lat="47.07643" lon="15.64207">
        <ele>440.824459</ele>
        <time>2022-09-26T11:53:55.454Z</time>
      </trkpt>
      <trkpt lat="47.07654" lon="15.64215">
        <ele>440.774389</ele>
        <time>2022-09-26T11:53:57.484Z</time>
      </trkpt>
      <trkpt lat="47.07663" lon="15.64221">
        <ele>440.73065</ele>
        <time>2022-09-26T11:53:59.457Z</time>
      </trkpt>
      <trkpt lat="47.07672" lon="15.64226">
        <ele>440.692116</ele>
        <time>2022-09-26T11:54:01.454Z</time>
      </trkpt>
      <trkpt lat="47.07681" lon="15.64231">
        <ele>440.651064</ele>
        <time>2022-09-26T11:54:03.460Z</time>
      </trkpt>
      <trkpt lat="47.07692" lon="15.64236">
        <ele>440.601291</ele>
        <time>2022-09-26T11:54:06.452Z</time>
      </trkpt>
      <trkpt lat="47.07703" lon="15.64241">
        <ele>440.550384</ele>
        <time>2022-09-26T11:54:09.470Z</time>
      </trkpt>
      <trkpt lat="47.07715" lon="15.64246">
        <ele>440.497609</ele>
        <time>2022-09-26T11:54:12.455Z</time>
      </trkpt>
      <trkpt lat="47.07727" lon="15.64249">
        <ele>440.448467</ele>
        <time>2022-09-26T11:54:15.471Z</time>
      </trkpt>
      <trkpt lat="47.07737" lon="15.64253">
        <ele>440.402474</ele>
        <time>2022-09-26T11:54:18.459Z</time>
      </trkpt>
      <trkpt lat="47.07747" lon="15.64256">
        <ele>440.359093</ele>
        <time>2022-09-26T11:54:21.448Z</time>
      </trkpt>
      <trkpt lat="47.07756" lon="15.64259">
        <ele>440.319212</ele>
        <time>2022-09-26T11:54:24.491Z</time>
      </trkpt>
      <trkpt lat="47.07768" lon="15.64262">
        <ele>440.268697</ele>
        <time>2022-09-26T11:54:28.462Z</time>
      </trkpt>
      <trkpt lat="47.07778" lon="15.64265">
        <ele>440.2249</ele>
        <time>2022-09-26T11:54:31.462Z</time>
      </trkpt>
      <trkpt lat="47.07788" lon="15.64268">
        <ele>440.353026</ele>
        <time>2022-09-26T11:54:34.473Z</time>
      </trkpt>
      <trkpt lat="47.07798" lon="15.64271">
        <ele>440.635925</ele>
        <time>2022-09-26T11:54:37.471Z</time>
      </trkpt>
      <trkpt lat="47.07809" lon="15.64275">
        <ele>440.947572</ele>
        <time>2022-09-26T11:54:40.470Z</time>
      </trkpt>
      <trkpt lat="47.0782" lon="15.64279">
        <ele>441.251643</ele>
        <time>2022-09-26T11:54:43.447Z</time>
      </trkpt>
      <trkpt lat="47.0783" lon="15.64282">
        <ele>441.547732</ele>
        <time>2022-09-26T11:54:46.440Z</time>
      </trkpt>
      <trkpt lat="47.0784" lon="15.64285">
        <ele>441.811512</ele>
        <time>2022-09-26T11:54:49.453Z</time>
      </trkpt>
      <trkpt lat="47.07849" lon="15.64289">
        <ele>442.057075</ele>
        <time>2022-09-26T11:54:52.533Z</time>
      </trkpt>
      <trkpt lat="47.07857" lon="15.64292">
        <ele>442.306698</ele>
        <time>2022-09-26T11:54:55.460Z</time>
      </trkpt>
      <trkpt lat="47.07867" lon="15.64295">
        <ele>442.564329</ele>
        <time>2022-09-26T11:54:58.447Z</time>
      </trkpt>
      <trkpt lat="47.07876" lon="15.64298">
        <ele>442.816216</ele>
        <time>2022-09-26T11:55:01.451Z</time>
      </trkpt>
      <trkpt lat="47.07886" lon="15.643">
        <ele>443.115284</ele>
        <time>2022-09-26T11:55:05.465Z</time>
      </trkpt>
      <trkpt lat="47.07897" lon="15.64303">
        <ele>443.42221</ele>
        <time>2022-09-26T11:55:09.459Z</time>
      </trkpt>
      <trkpt lat="47.07909" lon="15.64306">
        <ele>443.747399</ele>
        <time>2022-09-26T11:55:13.468Z</time>
      </trkpt>
      <trkpt lat="47.07918" lon="15.64309">
        <ele>444.001382</ele>
        <time>2022-09-26T11:55:16.447Z</time>
      </trkpt>
      <trkpt lat="47.07927" lon="15.64314">
        <ele>444.257765</ele>
        <time>2022-09-26T11:55:19.465Z</time>
      </trkpt>
      <trkpt lat="47.07937" lon="15.64321">
        <ele>444.572637</ele>
        <time>2022-09-26T11:55:23.460Z</time>
      </trkpt>
      <trkpt lat="47.07946" lon="15.6433">
        <ele>444.848808</ele>
        <time>2022-09-26T11:55:26.448Z</time>
      </trkpt>
      <trkpt lat="47.07953" lon="15.6434">
        <ele>445.128612</ele>
        <time>2022-09-26T11:55:29.459Z</time>
      </trkpt>
      <trkpt lat="47.07961" lon="15.64351">
        <ele>445.063253</ele>
        <time>2022-09-26T11:55:32.468Z</time>
      </trkpt>
      <trkpt lat="47.07969" lon="15.64364">
        <ele>444.995487</ele>
        <time>2022-09-26T11:55:35.484Z</time>
      </trkpt>
      <trkpt lat="47.07977" lon="15.64378">
        <ele>444.918853</ele>
        <time>2022-09-26T11:55:38.467Z</time>
      </trkpt>
      <trkpt lat="47.07986" lon="15.64393">
        <ele>444.839585</ele>
        <time>2022-09-26T11:55:41.465Z</time>
      </trkpt>
      <trkpt lat="47.07994" lon="15.64408">
        <ele>444.759377</ele>
        <time>2022-09-26T11:55:44.474Z</time>
      </trkpt>
      <trkpt lat="47.08002" lon="15.64424">
        <ele>444.678961</ele>
        <time>2022-09-26T11:55:47.459Z</time>
      </trkpt>
      <trkpt lat="47.08008" lon="15.64435">
        <ele>444.623136</ele>
        <time>2022-09-26T11:55:49.467Z</time>
      </trkpt>
      <trkpt lat="47.08014" lon="15.64446">
        <ele>444.565617</ele>
        <time>2022-09-26T11:55:51.466Z</time>
      </trkpt>
      <trkpt lat="47.08021" lon="15.64457">
        <ele>444.506151</ele>
        <time>2022-09-26T11:55:53.470Z</time>
      </trkpt>
      <trkpt lat="47.08028" lon="15.64468">
        <ele>444.444586</ele>
        <time>2022-09-26T11:55:55.457Z</time>
      </trkpt>
      <trkpt lat="47.08035" lon="15.64479">
        <ele>444.381783</ele>
        <time>2022-09-26T11:55:57.455Z</time>
      </trkpt>
      <trkpt lat="47.08043" lon="15.6449">
        <ele>444.314982</ele>
        <time>2022-09-26T11:55:59.486Z</time>
      </trkpt>
      <trkpt lat="47.08052" lon="15.64502">
        <ele>444.244172</ele>
        <time>2022-09-26T11:56:01.471Z</time>
      </trkpt>
      <trkpt lat="47.08061" lon="15.64514">
        <ele>444.169999</ele>
        <time>2022-09-26T11:56:03.454Z</time>
      </trkpt>
      <trkpt lat="47.08071" lon="15.64527">
        <ele>444.090153</ele>
        <time>2022-09-26T11:56:05.489Z</time>
      </trkpt>
      <trkpt lat="47.08082" lon="15.6454">
        <ele>443.867562</ele>
        <time>2022-09-26T11:56:07.474Z</time>
      </trkpt>
      <trkpt lat="47.08094" lon="15.64552">
        <ele>443.545611</ele>
        <time>2022-09-26T11:56:09.469Z</time>
      </trkpt>
      <trkpt lat="47.08108" lon="15.64563">
        <ele>443.211066</ele>
        <time>2022-09-26T11:56:11.463Z</time>
      </trkpt>
      <trkpt lat="47.08123" lon="15.64572">
        <ele>442.849926</ele>
        <time>2022-09-26T11:56:13.539Z</time>
      </trkpt>
      <trkpt lat="47.08139" lon="15.64582">
        <ele>442.468384</ele>
        <time>2022-09-26T11:56:15.460Z</time>
      </trkpt>
      <trkpt lat="47.08155" lon="15.64591">
        <ele>442.076574</ele>
        <time>2022-09-26T11:56:17.473Z</time>
      </trkpt>
      <trkpt lat="47.08172" lon="15.64599">
        <ele>441.694674</ele>
        <time>2022-09-26T11:56:19.457Z</time>
      </trkpt>
      <trkpt lat="47.08189" lon="15.64607">
        <ele>441.301814</ele>
        <time>2022-09-26T11:56:21.460Z</time>
      </trkpt>
      <trkpt lat="47.08206" lon="15.64613">
        <ele>440.910492</ele>
        <time>2022-09-26T11:56:23.459Z</time>
      </trkpt>
      <trkpt lat="47.08223" lon="15.64618">
        <ele>440.53245</ele>
        <time>2022-09-26T11:56:25.494Z</time>
      </trkpt>
      <trkpt lat="47.08238" lon="15.64626">
        <ele>440.175475</ele>
        <time>2022-09-26T11:56:27.462Z</time>
      </trkpt>
      <trkpt lat="47.08248" lon="15.64637">
        <ele>440.339397</ele>
        <time>2022-09-26T11:56:29.491Z</time>
      </trkpt>
      <trkpt lat="47.08255" lon="15.64647">
        <ele>440.633765</ele>
        <time>2022-09-26T11:56:31.461Z</time>
      </trkpt>
      <trkpt lat="47.08263" lon="15.64658">
        <ele>440.982022</ele>
        <time>2022-09-26T11:56:34.465Z</time>
      </trkpt>
      <trkpt lat="47.0827" lon="15.64667">
        <ele>441.281983</ele>
        <time>2022-09-26T11:56:37.462Z</time>
      </trkpt>
      <trkpt lat="47.08278" lon="15.64676">
        <ele>441.5803</ele>
        <time>2022-09-26T11:56:40.460Z</time>
      </trkpt>
      <trkpt lat="47.08288" lon="15.64686">
        <ele>441.96102</ele>
        <time>2022-09-26T11:56:43.440Z</time>
      </trkpt>
      <trkpt lat="47.08296" lon="15.64695">
        <ele>442.265574</ele>
        <time>2022-09-26T11:56:45.446Z</time>
      </trkpt>
      <trkpt lat="47.08305" lon="15.64704">
        <ele>442.600435</ele>
        <time>2022-09-26T11:56:47.459Z</time>
      </trkpt>
      <trkpt lat="47.08313" lon="15.64713">
        <ele>442.926339</ele>
        <time>2022-09-26T11:56:49.495Z</time>
      </trkpt>
      <trkpt lat="47.08321" lon="15.64722">
        <ele>443.233423</ele>
        <time>2022-09-26T11:56:51.449Z</time>
      </trkpt>
      <trkpt lat="47.08328" lon="15.64731">
        <ele>443.525278</ele>
        <time>2022-09-26T11:56:53.452Z</time>
      </trkpt>
      <trkpt lat="47.08338" lon="15.64744">
        <ele>443.936576</ele>
        <time>2022-09-26T11:56:56.456Z</time>
      </trkpt>
      <trkpt lat="47.08345" lon="15.64753">
        <ele>444.219214</ele>
        <time>2022-09-26T11:56:58.475Z</time>
      </trkpt>
      <trkpt lat="47.08351" lon="15.64763">
        <ele>444.508627</ele>
        <time>2022-09-26T11:57:00.462Z</time>
      </trkpt>
      <trkpt lat="47.08357" lon="15.64773">
        <ele>444.786072</ele>
        <time>2022-09-26T11:57:02.464Z</time>
      </trkpt>
      <trkpt lat="47.08365" lon="15.64786">
        <ele>445.140589</ele>
        <time>2022-09-26T11:57:05.454Z</time>
      </trkpt>
      <trkpt lat="47.08372" lon="15.64798">
        <ele>445.497622</ele>
        <time>2022-09-26T11:57:08.471Z</time>
      </trkpt>
      <trkpt lat="47.08382" lon="15.64811">
        <ele>445.684594</ele>
        <time>2022-09-26T11:57:11.452Z</time>
      </trkpt>
      <trkpt lat="47.08391" lon="15.64821">
        <ele>445.735556</ele>
        <time>2022-09-26T11:57:14.465Z</time>
      </trkpt>
      <trkpt lat="47.084" lon="15.6483">
        <ele>445.785637</ele>
        <time>2022-09-26T11:57:17.514Z</time>
      </trkpt>
      <trkpt lat="47.08409" lon="15.64839">
        <ele>445.832002</ele>
        <time>2022-09-26T11:57:20.464Z</time>
      </trkpt>
      <trkpt lat="47.08418" lon="15.64847">
        <ele>445.876754</ele>
        <time>2022-09-26T11:57:23.461Z</time>
      </trkpt>
      <trkpt lat="47.08426" lon="15.64855">
        <ele>445.920602</ele>
        <time>2022-09-26T11:57:26.451Z</time>
      </trkpt>
      <trkpt lat="47.08435" lon="15.64861">
        <ele>445.962541</ele>
        <time>2022-09-26T11:57:29.463Z</time>
      </trkpt>
      <trkpt lat="47.08443" lon="15.64869">
        <ele>446.007356</ele>
        <time>2022-09-26T11:57:33.523Z</time>
      </trkpt>
      <trkpt lat="47.08451" lon="15.64877">
        <ele>446.048454</ele>
        <time>2022-09-26T11:57:37.463Z</time>
      </trkpt>
      <trkpt lat="47.0846" lon="15.64886">
        <ele>446.095366</ele>
        <time>2022-09-26T11:57:42.466Z</time>
      </trkpt>
      <trkpt lat="47.08467" lon="15.64896">
        <ele>446.137827</ele>
        <time>2022-09-26T11:57:47.502Z</time>
      </trkpt>
      <trkpt lat="47.08473" lon="15.64906">
        <ele>446.178247</ele>
        <time>2022-09-26T11:57:52.459Z</time>
      </trkpt>
      <trkpt lat="47.08478" lon="15.64919">
        <ele>446.221073</ele>
        <time>2022-09-26T11:57:58.476Z</time>
      </trkpt>
      <trkpt lat="47.08483" lon="15.64932">
        <ele>446.266019</ele>
        <time>2022-09-26T11:58:04.478Z</time>
      </trkpt>
      <trkpt lat="47.08488" lon="15.64946">
        <ele>446.314642</ele>
        <time>2022-09-26T11:58:09.475Z</time>
      </trkpt>
      <trkpt lat="47.08494" lon="15.6496">
        <ele>446.365829</ele>
        <time>2022-09-26T11:58:13.454Z</time>
      </trkpt>
      <trkpt lat="47.085" lon="15.64973">
        <ele>446.411817</ele>
        <time>2022-09-26T11:58:16.446Z</time>
      </trkpt>
      <trkpt lat="47.08506" lon="15.64988">
        <ele>446.34907</ele>
        <time>2022-09-26T11:58:19.453Z</time>
      </trkpt>
      <trkpt lat="47.08513" lon="15.65004">
        <ele>446.122153</ele>
        <time>2022-09-26T11:58:22.442Z</time>
      </trkpt>
      <trkpt lat="47.08518" lon="15.65015">
        <ele>445.955293</ele>
        <time>2022-09-26T11:58:24.504Z</time>
      </trkpt>
      <trkpt lat="47.08523" lon="15.65027">
        <ele>445.779268</ele>
        <time>2022-09-26T11:58:26.450Z</time>
      </trkpt>
      <trkpt lat="47.08529" lon="15.65039">
        <ele>445.601058</ele>
        <time>2022-09-26T11:58:28.514Z</time>
      </trkpt>
      <trkpt lat="47.08534" lon="15.65051">
        <ele>445.421982</ele>
        <time>2022-09-26T11:58:30.464Z</time>
      </trkpt>
      <trkpt lat="47.08539" lon="15.65063">
        <ele>445.244817</ele>
        <time>2022-09-26T11:58:32.467Z</time>
      </trkpt>
      <trkpt lat="47.08544" lon="15.65076">
        <ele>445.064729</ele>
        <time>2022-09-26T11:58:34.487Z</time>
      </trkpt>
      <trkpt lat="47.08549" lon="15.6509">
        <ele>444.879715</ele>
        <time>2022-09-26T11:58:36.450Z</time>
      </trkpt>
      <trkpt lat="47.08552" lon="15.65104">
        <ele>444.689784</ele>
        <time>2022-09-26T11:58:38.464Z</time>
      </trkpt>
      <trkpt lat="47.08555" lon="15.6512">
        <ele>444.494773</ele>
        <time>2022-09-26T11:58:40.453Z</time>
      </trkpt>
      <trkpt lat="47.08556" lon="15.65135">
        <ele>444.303285</ele>
        <time>2022-09-26T11:58:42.462Z</time>
      </trkpt>
      <trkpt lat="47.08557" lon="15.65151">
        <ele>444.108393</ele>
        <time>2022-09-26T11:58:44.467Z</time>
      </trkpt>
      <trkpt lat="47.08558" lon="15.65166">
        <ele>443.915524</ele>
        <time>2022-09-26T11:58:46.451Z</time>
      </trkpt>
      <trkpt lat="47.08559" lon="15.65182">
        <ele>443.720631</ele>
        <time>2022-09-26T11:58:48.445Z</time>
      </trkpt>
      <trkpt lat="47.0856" lon="15.65199">
        <ele>443.516731</ele>
        <time>2022-09-26T11:58:50.464Z</time>
      </trkpt>
      <trkpt lat="47.08562" lon="15.65216">
        <ele>443.299217</ele>
        <time>2022-09-26T11:58:52.464Z</time>
      </trkpt>
      <trkpt lat="47.08565" lon="15.65234">
        <ele>443.030855</ele>
        <time>2022-09-26T11:58:54.475Z</time>
      </trkpt>
      <trkpt lat="47.0857" lon="15.65252">
        <ele>442.723179</ele>
        <time>2022-09-26T11:58:56.494Z</time>
      </trkpt>
      <trkpt lat="47.08576" lon="15.6527">
        <ele>442.392496</ele>
        <time>2022-09-26T11:58:58.467Z</time>
      </trkpt>
      <trkpt lat="47.08584" lon="15.65289">
        <ele>442.051158</ele>
        <time>2022-09-26T11:59:00.471Z</time>
      </trkpt>
      <trkpt lat="47.0859" lon="15.65308">
        <ele>441.703729</ele>
        <time>2022-09-26T11:59:02.501Z</time>
      </trkpt>
      <trkpt lat="47.08596" lon="15.65328">
        <ele>441.360451</ele>
        <time>2022-09-26T11:59:04.480Z</time>
      </trkpt>
      <trkpt lat="47.08601" lon="15.65348">
        <ele>441.016267</ele>
        <time>2022-09-26T11:59:06.453Z</time>
      </trkpt>
      <trkpt lat="47.08607" lon="15.65367">
        <ele>440.688462</ele>
        <time>2022-09-26T11:59:08.460Z</time>
      </trkpt>
      <trkpt lat="47.08613" lon="15.65385">
        <ele>440.357932</ele>
        <time>2022-09-26T11:59:10.466Z</time>
      </trkpt>
      <trkpt lat="47.0862" lon="15.65404">
        <ele>440.022706</ele>
        <time>2022-09-26T11:59:12.463Z</time>
      </trkpt>
      <trkpt lat="47.08627" lon="15.65422">
        <ele>439.680433</ele>
        <time>2022-09-26T11:59:14.478Z</time>
      </trkpt>
      <trkpt lat="47.08636" lon="15.65439">
        <ele>439.338297</ele>
        <time>2022-09-26T11:59:16.445Z</time>
      </trkpt>
      <trkpt lat="47.08645" lon="15.65456">
        <ele>438.998523</ele>
        <time>2022-09-26T11:59:18.454Z</time>
      </trkpt>
      <trkpt lat="47.08653" lon="15.65472">
        <ele>439.031371</ele>
        <time>2022-09-26T11:59:20.462Z</time>
      </trkpt>
      <trkpt lat="47.08661" lon="15.65487">
        <ele>439.117561</ele>
        <time>2022-09-26T11:59:22.472Z</time>
      </trkpt>
      <trkpt lat="47.08668" lon="15.65503">
        <ele>439.201486</ele>
        <time>2022-09-26T11:59:24.488Z</time>
      </trkpt>
      <trkpt lat="47.08674" lon="15.65519">
        <ele>439.284782</ele>
        <time>2022-09-26T11:59:26.449Z</time>
      </trkpt>
      <trkpt lat="47.0868" lon="15.65535">
        <ele>439.365158</ele>
        <time>2022-09-26T11:59:28.473Z</time>
      </trkpt>
      <trkpt lat="47.08687" lon="15.6555">
        <ele>439.444282</ele>
        <time>2022-09-26T11:59:30.502Z</time>
      </trkpt>
      <trkpt lat="47.08693" lon="15.65566">
        <ele>439.528552</ele>
        <time>2022-09-26T11:59:32.468Z</time>
      </trkpt>
      <trkpt lat="47.087" lon="15.65582">
        <ele>439.61463</ele>
        <time>2022-09-26T11:59:34.478Z</time>
      </trkpt>
      <trkpt lat="47.08708" lon="15.65598">
        <ele>439.700333</ele>
        <time>2022-09-26T11:59:36.447Z</time>
      </trkpt>
      <trkpt lat="47.08715" lon="15.65614">
        <ele>439.785275</ele>
        <time>2022-09-26T11:59:38.440Z</time>
      </trkpt>
      <trkpt lat="47.08722" lon="15.6563">
        <ele>439.871697</ele>
        <time>2022-09-26T11:59:40.454Z</time>
      </trkpt>
      <trkpt lat="47.0873" lon="15.65646">
        <ele>439.959602</ele>
        <time>2022-09-26T11:59:42.463Z</time>
      </trkpt>
      <trkpt lat="47.08738" lon="15.65662">
        <ele>440.047128</ele>
        <time>2022-09-26T11:59:44.473Z</time>
      </trkpt>
      <trkpt lat="47.08744" lon="15.65678">
        <ele>440.129495</ele>
        <time>2022-09-26T11:59:46.452Z</time>
      </trkpt>
      <trkpt lat="47.08752" lon="15.65692">
        <ele>440.15536</ele>
        <time>2022-09-26T11:59:48.444Z</time>
      </trkpt>
      <trkpt lat="47.08758" lon="15.65707">
        <ele>440.177369</ele>
        <time>2022-09-26T11:59:50.508Z</time>
      </trkpt>
      <trkpt lat="47.08765" lon="15.65721">
        <ele>440.199486</ele>
        <time>2022-09-26T11:59:52.450Z</time>
      </trkpt>
      <trkpt lat="47.08772" lon="15.65734">
        <ele>440.220676</ele>
        <time>2022-09-26T11:59:54.467Z</time>
      </trkpt>
      <trkpt lat="47.08778" lon="15.65748">
        <ele>440.241537</ele>
        <time>2022-09-26T11:59:56.456Z</time>
      </trkpt>
      <trkpt lat="47.08784" lon="15.65762">
        <ele>440.261775</ele>
        <time>2022-09-26T11:59:58.460Z</time>
      </trkpt>
      <trkpt lat="47.0879" lon="15.65774">
        <ele>440.281176</ele>
        <time>2022-09-26T12:00:00.471Z</time>
      </trkpt>
      <trkpt lat="47.08795" lon="15.65787">
        <ele>440.299527</ele>
        <time>2022-09-26T12:00:02.467Z</time>
      </trkpt>
      <trkpt lat="47.08799" lon="15.65801">
        <ele>440.31795</ele>
        <time>2022-09-26T12:00:04.461Z</time>
      </trkpt>
      <trkpt lat="47.08802" lon="15.65815">
        <ele>440.3369</ele>
        <time>2022-09-26T12:00:06.448Z</time>
      </trkpt>
      <trkpt lat="47.08805" lon="15.65829">
        <ele>440.355334</ele>
        <time>2022-09-26T12:00:08.492Z</time>
      </trkpt>
      <trkpt lat="47.08807" lon="15.65844">
        <ele>440.375188</ele>
        <time>2022-09-26T12:00:10.451Z</time>
      </trkpt>
      <trkpt lat="47.0881" lon="15.6586">
        <ele>440.395622</ele>
        <time>2022-09-26T12:00:12.502Z</time>
      </trkpt>
      <trkpt lat="47.08813" lon="15.65877">
        <ele>440.417447</ele>
        <time>2022-09-26T12:00:14.540Z</time>
      </trkpt>
      <trkpt lat="47.08816" lon="15.65893">
        <ele>440.438753</ele>
        <time>2022-09-26T12:00:16.446Z</time>
      </trkpt>
      <trkpt lat="47.08819" lon="15.65909">
        <ele>440.459451</ele>
        <time>2022-09-26T12:00:18.459Z</time>
      </trkpt>
      <trkpt lat="47.08822" lon="15.65923">
        <ele>440.180447</ele>
        <time>2022-09-26T12:00:20.472Z</time>
      </trkpt>
      <trkpt lat="47.08825" lon="15.65937">
        <ele>439.763819</ele>
        <time>2022-09-26T12:00:22.462Z</time>
      </trkpt>
      <trkpt lat="47.08829" lon="15.65955">
        <ele>439.172534</ele>
        <time>2022-09-26T12:00:25.490Z</time>
      </trkpt>
      <trkpt lat="47.08832" lon="15.65968">
        <ele>438.764962</ele>
        <time>2022-09-26T12:00:27.458Z</time>
      </trkpt>
      <trkpt lat="47.08836" lon="15.65985">
        <ele>438.210944</ele>
        <time>2022-09-26T12:00:30.460Z</time>
      </trkpt>
      <trkpt lat="47.08839" lon="15.65998">
        <ele>437.801631</ele>
        <time>2022-09-26T12:00:32.471Z</time>
      </trkpt>
      <trkpt lat="47.08844" lon="15.66015">
        <ele>437.231626</ele>
        <time>2022-09-26T12:00:35.470Z</time>
      </trkpt>
      <trkpt lat="47.08848" lon="15.66033">
        <ele>436.674708</ele>
        <time>2022-09-26T12:00:38.470Z</time>
      </trkpt>
      <trkpt lat="47.08852" lon="15.66049">
        <ele>436.150876</ele>
        <time>2022-09-26T12:00:41.452Z</time>
      </trkpt>
      <trkpt lat="47.08856" lon="15.66066">
        <ele>435.595486</ele>
        <time>2022-09-26T12:00:44.485Z</time>
      </trkpt>
      <trkpt lat="47.08858" lon="15.66079">
        <ele>435.190028</ele>
        <time>2022-09-26T12:00:46.486Z</time>
      </trkpt>
      <trkpt lat="47.08861" lon="15.66095">
        <ele>434.703083</ele>
        <time>2022-09-26T12:00:48.464Z</time>
      </trkpt>
      <trkpt lat="47.08863" lon="15.66111">
        <ele>434.187361</ele>
        <time>2022-09-26T12:00:50.463Z</time>
      </trkpt>
      <trkpt lat="47.08865" lon="15.66128">
        <ele>433.682213</ele>
        <time>2022-09-26T12:00:52.477Z</time>
      </trkpt>
      <trkpt lat="47.08867" lon="15.66144">
        <ele>433.196224</ele>
        <time>2022-09-26T12:00:54.467Z</time>
      </trkpt>
      <trkpt lat="47.08869" lon="15.66159">
        <ele>432.726845</ele>
        <time>2022-09-26T12:00:56.444Z</time>
      </trkpt>
      <trkpt lat="47.08871" lon="15.66174">
        <ele>432.439346</ele>
        <time>2022-09-26T12:00:58.488Z</time>
      </trkpt>
      <trkpt lat="47.08874" lon="15.66187">
        <ele>432.39858</ele>
        <time>2022-09-26T12:01:00.465Z</time>
      </trkpt>
      <trkpt lat="47.08877" lon="15.662">
        <ele>432.358534</ele>
        <time>2022-09-26T12:01:02.463Z</time>
      </trkpt>
      <trkpt lat="47.08882" lon="15.66218">
        <ele>432.3021</ele>
        <time>2022-09-26T12:01:05.471Z</time>
      </trkpt>
      <trkpt lat="47.08887" lon="15.66235">
        <ele>432.249865</ele>
        <time>2022-09-26T12:01:08.469Z</time>
      </trkpt>
      <trkpt lat="47.08894" lon="15.66252">
        <ele>432.194622</ele>
        <time>2022-09-26T12:01:11.464Z</time>
      </trkpt>
      <trkpt lat="47.089" lon="15.6627">
        <ele>432.137147</ele>
        <time>2022-09-26T12:01:14.448Z</time>
      </trkpt>
      <trkpt lat="47.08905" lon="15.66281">
        <ele>432.098085</ele>
        <time>2022-09-26T12:01:16.450Z</time>
      </trkpt>
      <trkpt lat="47.0891" lon="15.66293">
        <ele>432.058107</ele>
        <time>2022-09-26T12:01:18.466Z</time>
      </trkpt>
      <trkpt lat="47.08915" lon="15.66305">
        <ele>432.01691</ele>
        <time>2022-09-26T12:01:20.466Z</time>
      </trkpt>
      <trkpt lat="47.0892" lon="15.66318">
        <ele>431.974729</ele>
        <time>2022-09-26T12:01:22.450Z</time>
      </trkpt>
      <trkpt lat="47.08925" lon="15.66331">
        <ele>431.930958</ele>
        <time>2022-09-26T12:01:24.471Z</time>
      </trkpt>
      <trkpt lat="47.0893" lon="15.66346">
        <ele>431.883859</ele>
        <time>2022-09-26T12:01:26.447Z</time>
      </trkpt>
      <trkpt lat="47.08934" lon="15.66361">
        <ele>431.835162</ele>
        <time>2022-09-26T12:01:28.443Z</time>
      </trkpt>
      <trkpt lat="47.08939" lon="15.66377">
        <ele>431.786598</ele>
        <time>2022-09-26T12:01:30.469Z</time>
      </trkpt>
      <trkpt lat="47.08943" lon="15.66392">
        <ele>431.739781</ele>
        <time>2022-09-26T12:01:32.465Z</time>
      </trkpt>
      <trkpt lat="47.08948" lon="15.66406">
        <ele>431.705276</ele>
        <time>2022-09-26T12:01:34.450Z</time>
      </trkpt>
      <trkpt lat="47.08954" lon="15.6642">
        <ele>431.807718</ele>
        <time>2022-09-26T12:01:36.456Z</time>
      </trkpt>
      <trkpt lat="47.0896" lon="15.66434">
        <ele>431.906189</ele>
        <time>2022-09-26T12:01:38.500Z</time>
      </trkpt>
      <trkpt lat="47.08965" lon="15.66447">
        <ele>432.002542</ele>
        <time>2022-09-26T12:01:40.448Z</time>
      </trkpt>
      <trkpt lat="47.08971" lon="15.6646">
        <ele>432.097228</ele>
        <time>2022-09-26T12:01:42.490Z</time>
      </trkpt>
      <trkpt lat="47.08976" lon="15.66471">
        <ele>432.178673</ele>
        <time>2022-09-26T12:01:44.448Z</time>
      </trkpt>
      <trkpt lat="47.08984" lon="15.66485">
        <ele>432.285804</ele>
        <time>2022-09-26T12:01:47.456Z</time>
      </trkpt>
      <trkpt lat="47.08992" lon="15.665">
        <ele>432.404052</ele>
        <time>2022-09-26T12:01:50.473Z</time>
      </trkpt>
      <trkpt lat="47.08998" lon="15.66512">
        <ele>432.495239</ele>
        <time>2022-09-26T12:01:52.441Z</time>
      </trkpt>
      <trkpt lat="47.09003" lon="15.66526">
        <ele>432.598345</ele>
        <time>2022-09-26T12:01:54.463Z</time>
      </trkpt>
      <trkpt lat="47.09009" lon="15.66542">
        <ele>432.707763</ele>
        <time>2022-09-26T12:01:56.462Z</time>
      </trkpt>
      <trkpt lat="47.09013" lon="15.66559">
        <ele>432.816989</ele>
        <time>2022-09-26T12:01:58.460Z</time>
      </trkpt>
      <trkpt lat="47.09018" lon="15.66575">
        <ele>432.92759</ele>
        <time>2022-09-26T12:02:00.471Z</time>
      </trkpt>
      <trkpt lat="47.09023" lon="15.66591">
        <ele>433.036751</ele>
        <time>2022-09-26T12:02:02.450Z</time>
      </trkpt>
      <trkpt lat="47.09028" lon="15.66607">
        <ele>433.142762</ele>
        <time>2022-09-26T12:02:04.450Z</time>
      </trkpt>
      <trkpt lat="47.09032" lon="15.66622">
        <ele>433.242986</ele>
        <time>2022-09-26T12:02:06.488Z</time>
      </trkpt>
      <trkpt lat="47.09036" lon="15.66636">
        <ele>433.262114</ele>
        <time>2022-09-26T12:02:08.452Z</time>
      </trkpt>
      <trkpt lat="47.0904" lon="15.66651">
        <ele>432.866439</ele>
        <time>2022-09-26T12:02:10.447Z</time>
      </trkpt>
      <trkpt lat="47.09045" lon="15.66666">
        <ele>432.46157</ele>
        <time>2022-09-26T12:02:12.487Z</time>
      </trkpt>
      <trkpt lat="47.09049" lon="15.6668">
        <ele>432.068155</ele>
        <time>2022-09-26T12:02:14.471Z</time>
      </trkpt>
      <trkpt lat="47.09054" lon="15.66694">
        <ele>431.670218</ele>
        <time>2022-09-26T12:02:16.458Z</time>
      </trkpt>
      <trkpt lat="47.09059" lon="15.66707">
        <ele>431.30682</ele>
        <time>2022-09-26T12:02:18.443Z</time>
      </trkpt>
      <trkpt lat="47.09063" lon="15.6672">
        <ele>430.955283</ele>
        <time>2022-09-26T12:02:20.451Z</time>
      </trkpt>
      <trkpt lat="47.09068" lon="15.66732">
        <ele>430.605953</ele>
        <time>2022-09-26T12:02:22.442Z</time>
      </trkpt>
      <trkpt lat="47.09072" lon="15.66744">
        <ele>430.252207</ele>
        <time>2022-09-26T12:02:24.469Z</time>
      </trkpt>
      <trkpt lat="47.09079" lon="15.6676">
        <ele>429.786082</ele>
        <time>2022-09-26T12:02:27.464Z</time>
      </trkpt>
      <trkpt lat="47.09086" lon="15.66777">
        <ele>429.298031</ele>
        <time>2022-09-26T12:02:30.470Z</time>
      </trkpt>
      <trkpt lat="47.09092" lon="15.66789">
        <ele>428.931972</ele>
        <time>2022-09-26T12:02:32.471Z</time>
      </trkpt>
      <trkpt lat="47.09098" lon="15.66802">
        <ele>428.536985</ele>
        <time>2022-09-26T12:02:34.443Z</time>
      </trkpt>
      <trkpt lat="47.09104" lon="15.66814">
        <ele>428.138985</ele>
        <time>2022-09-26T12:02:36.440Z</time>
      </trkpt>
      <trkpt lat="47.09111" lon="15.66826">
        <ele>427.759257</ele>
        <time>2022-09-26T12:02:38.464Z</time>
      </trkpt>
      <trkpt lat="47.09117" lon="15.66837">
        <ele>427.402722</ele>
        <time>2022-09-26T12:02:40.474Z</time>
      </trkpt>
      <trkpt lat="47.09123" lon="15.66848">
        <ele>427.051662</ele>
        <time>2022-09-26T12:02:42.453Z</time>
      </trkpt>
      <trkpt lat="47.09129" lon="15.66859">
        <ele>426.717652</ele>
        <time>2022-09-26T12:02:44.460Z</time>
      </trkpt>
      <trkpt lat="47.09135" lon="15.66868">
        <ele>426.541434</ele>
        <time>2022-09-26T12:02:46.451Z</time>
      </trkpt>
      <trkpt lat="47.09145" lon="15.66881">
        <ele>426.294363</ele>
        <time>2022-09-26T12:02:49.449Z</time>
      </trkpt>
      <trkpt lat="47.09155" lon="15.66893">
        <ele>426.049302</ele>
        <time>2022-09-26T12:02:52.466Z</time>
      </trkpt>
      <trkpt lat="47.09164" lon="15.66905">
        <ele>425.800492</ele>
        <time>2022-09-26T12:02:55.453Z</time>
      </trkpt>
      <trkpt lat="47.09174" lon="15.66918">
        <ele>425.553589</ele>
        <time>2022-09-26T12:02:58.448Z</time>
      </trkpt>
      <trkpt lat="47.09182" lon="15.6693">
        <ele>425.327681</ele>
        <time>2022-09-26T12:03:01.466Z</time>
      </trkpt>
      <trkpt lat="47.0919" lon="15.66943">
        <ele>425.108208</ele>
        <time>2022-09-26T12:03:04.463Z</time>
      </trkpt>
      <trkpt lat="47.09196" lon="15.66956">
        <ele>424.90249</ele>
        <time>2022-09-26T12:03:07.473Z</time>
      </trkpt>
      <trkpt lat="47.09202" lon="15.6697">
        <ele>424.682041</ele>
        <time>2022-09-26T12:03:10.458Z</time>
      </trkpt>
      <trkpt lat="47.09208" lon="15.66985">
        <ele>424.457624</ele>
        <time>2022-09-26T12:03:13.451Z</time>
      </trkpt>
      <trkpt lat="47.09214" lon="15.67001">
        <ele>424.218106</ele>
        <time>2022-09-26T12:03:16.482Z</time>
      </trkpt>
      <trkpt lat="47.09221" lon="15.67018">
        <ele>423.966327</ele>
        <time>2022-09-26T12:03:19.466Z</time>
      </trkpt>
      <trkpt lat="47.09225" lon="15.6703">
        <ele>423.792504</ele>
        <time>2022-09-26T12:03:21.506Z</time>
      </trkpt>
      <trkpt lat="47.09232" lon="15.67047">
        <ele>423.535448</ele>
        <time>2022-09-26T12:03:24.455Z</time>
      </trkpt>
      <trkpt lat="47.09236" lon="15.67059">
        <ele>423.363242</ele>
        <time>2022-09-26T12:03:26.449Z</time>
      </trkpt>
      <trkpt lat="47.0924" lon="15.67071">
        <ele>423.25729</ele>
        <time>2022-09-26T12:03:28.461Z</time>
      </trkpt>
      <trkpt lat="47.09245" lon="15.67084">
        <ele>423.220175</ele>
        <time>2022-09-26T12:03:30.468Z</time>
      </trkpt>
      <trkpt lat="47.0925" lon="15.67098">
        <ele>423.180855</ele>
        <time>2022-09-26T12:03:32.466Z</time>
      </trkpt>
      <trkpt lat="47.09255" lon="15.67112">
        <ele>423.139624</ele>
        <time>2022-09-26T12:03:34.490Z</time>
      </trkpt>
      <trkpt lat="47.0926" lon="15.67126">
        <ele>423.098261</ele>
        <time>2022-09-26T12:03:36.447Z</time>
      </trkpt>
      <trkpt lat="47.09266" lon="15.67141">
        <ele>423.056275</ele>
        <time>2022-09-26T12:03:38.505Z</time>
      </trkpt>
      <trkpt lat="47.09271" lon="15.67155">
        <ele>423.014911</ele>
        <time>2022-09-26T12:03:40.461Z</time>
      </trkpt>
      <trkpt lat="47.09277" lon="15.67171">
        <ele>422.969681</ele>
        <time>2022-09-26T12:03:42.466Z</time>
      </trkpt>
      <trkpt lat="47.09283" lon="15.67186">
        <ele>422.92553</ele>
        <time>2022-09-26T12:03:44.460Z</time>
      </trkpt>
      <trkpt lat="47.09289" lon="15.67201">
        <ele>422.881052</ele>
        <time>2022-09-26T12:03:46.459Z</time>
      </trkpt>
      <trkpt lat="47.09293" lon="15.67218">
        <ele>422.835606</ele>
        <time>2022-09-26T12:03:48.465Z</time>
      </trkpt>
      <trkpt lat="47.09293" lon="15.67237">
        <ele>422.787223</ele>
        <time>2022-09-26T12:03:50.465Z</time>
      </trkpt>
      <trkpt lat="47.09296" lon="15.67256">
        <ele>422.739768</ele>
        <time>2022-09-26T12:03:52.468Z</time>
      </trkpt>
      <trkpt lat="47.09303" lon="15.67268">
        <ele>422.699744</ele>
        <time>2022-09-26T12:03:54.462Z</time>
      </trkpt>
      <trkpt lat="47.09313" lon="15.67272">
        <ele>422.66374</ele>
        <time>2022-09-26T12:03:56.448Z</time>
      </trkpt>
      <trkpt lat="47.09324" lon="15.67267">
        <ele>422.620133</ele>
        <time>2022-09-26T12:03:58.462Z</time>
      </trkpt>
      <trkpt lat="47.09333" lon="15.67263">
        <ele>422.948542</ele>
        <time>2022-09-26T12:04:00.463Z</time>
      </trkpt>
      <trkpt lat="47.09343" lon="15.67261">
        <ele>423.588629</ele>
        <time>2022-09-26T12:04:04.488Z</time>
      </trkpt>
      <trkpt lat="47.09353" lon="15.67268">
        <ele>424.239518</ele>
        <time>2022-09-26T12:04:09.459Z</time>
      </trkpt>
      <trkpt lat="47.09362" lon="15.67275">
        <ele>424.818671</ele>
        <time>2022-09-26T12:04:13.478Z</time>
      </trkpt>
      <trkpt lat="47.0937" lon="15.67283">
        <ele>425.406039</ele>
        <time>2022-09-26T12:04:17.499Z</time>
      </trkpt>
      <trkpt lat="47.09378" lon="15.6729">
        <ele>425.958233</ele>
        <time>2022-09-26T12:04:22.441Z</time>
      </trkpt>
      <trkpt lat="47.09386" lon="15.67298">
        <ele>426.591575</ele>
        <time>2022-09-26T12:04:27.476Z</time>
      </trkpt>
      <trkpt lat="47.09394" lon="15.67306">
        <ele>427.17441</ele>
        <time>2022-09-26T12:04:32.480Z</time>
      </trkpt>
      <trkpt lat="47.09403" lon="15.67315">
        <ele>427.824394</ele>
        <time>2022-09-26T12:04:37.472Z</time>
      </trkpt>
      <trkpt lat="47.09412" lon="15.67324">
        <ele>428.447823</ele>
        <time>2022-09-26T12:04:42.464Z</time>
      </trkpt>
      <trkpt lat="47.0942" lon="15.67331">
        <ele>428.999968</ele>
        <time>2022-09-26T12:04:47.506Z</time>
      </trkpt>
      <trkpt lat="47.09429" lon="15.6734">
        <ele>429.662427</ele>
        <time>2022-09-26T12:04:52.467Z</time>
      </trkpt>
      <trkpt lat="47.09437" lon="15.67349">
        <ele>430.271136</ele>
        <time>2022-09-26T12:04:56.451Z</time>
      </trkpt>
      <trkpt lat="47.09444" lon="15.67358">
        <ele>430.839416</ele>
        <time>2022-09-26T12:05:00.472Z</time>
      </trkpt>
      <trkpt lat="47.09451" lon="15.67367">
        <ele>431.401927</ele>
        <time>2022-09-26T12:05:04.461Z</time>
      </trkpt>
      <trkpt lat="47.09457" lon="15.67378">
        <ele>432.003458</ele>
        <time>2022-09-26T12:05:08.454Z</time>
      </trkpt>
      <trkpt lat="47.09465" lon="15.6739">
        <ele>432.666763</ele>
        <time>2022-09-26T12:05:12.466Z</time>
      </trkpt>
      <trkpt lat="47.09472" lon="15.67405">
        <ele>433.398307</ele>
        <time>2022-09-26T12:05:16.443Z</time>
      </trkpt>
      <trkpt lat="47.09476" lon="15.67421">
        <ele>433.327228</ele>
        <time>2022-09-26T12:05:19.470Z</time>
      </trkpt>
      <trkpt lat="47.09479" lon="15.67434">
        <ele>433.241403</ele>
        <time>2022-09-26T12:05:21.464Z</time>
      </trkpt>
      <trkpt lat="47.09481" lon="15.67448">
        <ele>433.148543</ele>
        <time>2022-09-26T12:05:23.462Z</time>
      </trkpt>
      <trkpt lat="47.09484" lon="15.67463">
        <ele>433.055073</ele>
        <time>2022-09-26T12:05:25.463Z</time>
      </trkpt>
      <trkpt lat="47.09486" lon="15.67478">
        <ele>432.955487</ele>
        <time>2022-09-26T12:05:27.467Z</time>
      </trkpt>
      <trkpt lat="47.09488" lon="15.67495">
        <ele>432.850353</ele>
        <time>2022-09-26T12:05:29.488Z</time>
      </trkpt>
      <trkpt lat="47.09491" lon="15.6751">
        <ele>432.747665</ele>
        <time>2022-09-26T12:05:31.468Z</time>
      </trkpt>
      <trkpt lat="47.09494" lon="15.67527">
        <ele>432.637815</ele>
        <time>2022-09-26T12:05:33.466Z</time>
      </trkpt>
      <trkpt lat="47.09497" lon="15.67545">
        <ele>432.52263</ele>
        <time>2022-09-26T12:05:35.474Z</time>
      </trkpt>
      <trkpt lat="47.095" lon="15.67562">
        <ele>432.410583</ele>
        <time>2022-09-26T12:05:37.485Z</time>
      </trkpt>
      <trkpt lat="47.09504" lon="15.67579">
        <ele>432.297458</ele>
        <time>2022-09-26T12:05:39.467Z</time>
      </trkpt>
      <trkpt lat="47.09507" lon="15.67597">
        <ele>432.183724</ele>
        <time>2022-09-26T12:05:41.467Z</time>
      </trkpt>
      <trkpt lat="47.0951" lon="15.67615">
        <ele>432.065114</ele>
        <time>2022-09-26T12:05:43.473Z</time>
      </trkpt>
      <trkpt lat="47.09513" lon="15.67635">
        <ele>431.937185</ele>
        <time>2022-09-26T12:05:45.464Z</time>
      </trkpt>
      <trkpt lat="47.09517" lon="15.67654">
        <ele>431.810715</ele>
        <time>2022-09-26T12:05:47.461Z</time>
      </trkpt>
      <trkpt lat="47.09521" lon="15.67675">
        <ele>431.193711</ele>
        <time>2022-09-26T12:05:49.473Z</time>
      </trkpt>
      <trkpt lat="47.09525" lon="15.67698">
        <ele>430.238218</ele>
        <time>2022-09-26T12:05:51.484Z</time>
      </trkpt>
      <trkpt lat="47.09528" lon="15.67711">
        <ele>429.707221</ele>
        <time>2022-09-26T12:05:52.462Z</time>
      </trkpt>
      <trkpt lat="47.0953" lon="15.67725">
        <ele>429.155685</ele>
        <time>2022-09-26T12:05:53.464Z</time>
      </trkpt>
      <trkpt lat="47.09533" lon="15.67739">
        <ele>428.584233</ele>
        <time>2022-09-26T12:05:54.476Z</time>
      </trkpt>
      <trkpt lat="47.09536" lon="15.67753">
        <ele>428.003865</ele>
        <time>2022-09-26T12:05:55.471Z</time>
      </trkpt>
      <trkpt lat="47.0954" lon="15.67766">
        <ele>427.430158</ele>
        <time>2022-09-26T12:05:56.455Z</time>
      </trkpt>
      <trkpt lat="47.09544" lon="15.6778">
        <ele>426.835248</ele>
        <time>2022-09-26T12:05:57.467Z</time>
      </trkpt>
      <trkpt lat="47.09548" lon="15.67794">
        <ele>426.253486</ele>
        <time>2022-09-26T12:05:58.460Z</time>
      </trkpt>
      <trkpt lat="47.09551" lon="15.67807">
        <ele>425.671724</ele>
        <time>2022-09-26T12:05:59.469Z</time>
      </trkpt>
      <trkpt lat="47.09555" lon="15.6782">
        <ele>425.105325</ele>
        <time>2022-09-26T12:06:00.470Z</time>
      </trkpt>
      <trkpt lat="47.09559" lon="15.67833">
        <ele>424.557257</ele>
        <time>2022-09-26T12:06:01.478Z</time>
      </trkpt>
      <trkpt lat="47.09564" lon="15.67845">
        <ele>424.003309</ele>
        <time>2022-09-26T12:06:02.490Z</time>
      </trkpt>
      <trkpt lat="47.09568" lon="15.67858">
        <ele>423.455554</ele>
        <time>2022-09-26T12:06:03.471Z</time>
      </trkpt>
      <trkpt lat="47.09577" lon="15.6788">
        <ele>422.427623</ele>
        <time>2022-09-26T12:06:05.482Z</time>
      </trkpt>
      <trkpt lat="47.09587" lon="15.67901">
        <ele>421.417342</ele>
        <time>2022-09-26T12:06:07.471Z</time>
      </trkpt>
      <trkpt lat="47.09597" lon="15.67923">
        <ele>420.448183</ele>
        <time>2022-09-26T12:06:09.453Z</time>
      </trkpt>
      <trkpt lat="47.09608" lon="15.67944">
        <ele>419.517016</ele>
        <time>2022-09-26T12:06:11.469Z</time>
      </trkpt>
      <trkpt lat="47.09617" lon="15.67963">
        <ele>418.666564</ele>
        <time>2022-09-26T12:06:13.498Z</time>
      </trkpt>
      <trkpt lat="47.09626" lon="15.67982">
        <ele>417.827506</ele>
        <time>2022-09-26T12:06:15.459Z</time>
      </trkpt>
      <trkpt lat="47.09637" lon="15.68001">
        <ele>416.924468</ele>
        <time>2022-09-26T12:06:17.471Z</time>
      </trkpt>
      <trkpt lat="47.09649" lon="15.68021">
        <ele>415.964057</ele>
        <time>2022-09-26T12:06:19.484Z</time>
      </trkpt>
      <trkpt lat="47.09655" lon="15.68031">
        <ele>415.484748</ele>
        <time>2022-09-26T12:06:20.466Z</time>
      </trkpt>
      <trkpt lat="47.09662" lon="15.68041">
        <ele>414.997162</ele>
        <time>2022-09-26T12:06:21.482Z</time>
      </trkpt>
      <trkpt lat="47.09675" lon="15.68058">
        <ele>414.07001</ele>
        <time>2022-09-26T12:06:23.474Z</time>
      </trkpt>
      <trkpt lat="47.09687" lon="15.68077">
        <ele>413.121672</ele>
        <time>2022-09-26T12:06:25.468Z</time>
      </trkpt>
      <trkpt lat="47.09694" lon="15.68087">
        <ele>412.612955</ele>
        <time>2022-09-26T12:06:26.458Z</time>
      </trkpt>
      <trkpt lat="47.097" lon="15.68099">
        <ele>412.066601</ele>
        <time>2022-09-26T12:06:27.468Z</time>
      </trkpt>
      <trkpt lat="47.09707" lon="15.6811">
        <ele>411.614399</ele>
        <time>2022-09-26T12:06:28.472Z</time>
      </trkpt>
      <trkpt lat="47.09712" lon="15.68122">
        <ele>411.23987</ele>
        <time>2022-09-26T12:06:29.507Z</time>
      </trkpt>
      <trkpt lat="47.09717" lon="15.68135">
        <ele>410.863117</ele>
        <time>2022-09-26T12:06:30.460Z</time>
      </trkpt>
      <trkpt lat="47.0972" lon="15.68149">
        <ele>410.485072</ele>
        <time>2022-09-26T12:06:31.471Z</time>
      </trkpt>
      <trkpt lat="47.09723" lon="15.68163">
        <ele>410.132291</ele>
        <time>2022-09-26T12:06:32.467Z</time>
      </trkpt>
      <trkpt lat="47.09725" lon="15.68176">
        <ele>409.781601</ele>
        <time>2022-09-26T12:06:33.483Z</time>
      </trkpt>
      <trkpt lat="47.09727" lon="15.68189">
        <ele>409.422972</ele>
        <time>2022-09-26T12:06:34.477Z</time>
      </trkpt>
      <trkpt lat="47.09729" lon="15.68203">
        <ele>409.07087</ele>
        <time>2022-09-26T12:06:35.466Z</time>
      </trkpt>
      <trkpt lat="47.09731" lon="15.68217">
        <ele>408.715519</ele>
        <time>2022-09-26T12:06:36.455Z</time>
      </trkpt>
      <trkpt lat="47.09733" lon="15.6823">
        <ele>408.361808</ele>
        <time>2022-09-26T12:06:37.474Z</time>
      </trkpt>
      <trkpt lat="47.09736" lon="15.68243">
        <ele>408.020492</ele>
        <time>2022-09-26T12:06:38.468Z</time>
      </trkpt>
      <trkpt lat="47.09738" lon="15.68256">
        <ele>407.683139</ele>
        <time>2022-09-26T12:06:39.474Z</time>
      </trkpt>
      <trkpt lat="47.09741" lon="15.68268">
        <ele>407.341324</ele>
        <time>2022-09-26T12:06:40.500Z</time>
      </trkpt>
      <trkpt lat="47.0975" lon="15.68292">
        <ele>406.663144</ele>
        <time>2022-09-26T12:06:42.471Z</time>
      </trkpt>
      <trkpt lat="47.09761" lon="15.68313">
        <ele>405.978594</ele>
        <time>2022-09-26T12:06:44.464Z</time>
      </trkpt>
      <trkpt lat="47.09767" lon="15.68322">
        <ele>405.638317</ele>
        <time>2022-09-26T12:06:45.467Z</time>
      </trkpt>
      <trkpt lat="47.09774" lon="15.68331">
        <ele>405.297584</ele>
        <time>2022-09-26T12:06:46.453Z</time>
      </trkpt>
      <trkpt lat="47.09781" lon="15.68339">
        <ele>405.004832</ele>
        <time>2022-09-26T12:06:47.479Z</time>
      </trkpt>
      <trkpt lat="47.09795" lon="15.68352">
        <ele>404.680516</ele>
        <time>2022-09-26T12:06:49.467Z</time>
      </trkpt>
      <trkpt lat="47.09809" lon="15.68363">
        <ele>404.371909</ele>
        <time>2022-09-26T12:06:51.504Z</time>
      </trkpt>
      <trkpt lat="47.09824" lon="15.68371">
        <ele>404.079237</ele>
        <time>2022-09-26T12:06:53.462Z</time>
      </trkpt>
      <trkpt lat="47.09836" lon="15.68378">
        <ele>403.820587</ele>
        <time>2022-09-26T12:06:55.468Z</time>
      </trkpt>
      <trkpt lat="47.09848" lon="15.68386">
        <ele>403.568632</ele>
        <time>2022-09-26T12:06:57.461Z</time>
      </trkpt>
      <trkpt lat="47.09859" lon="15.68392">
        <ele>403.337792</ele>
        <time>2022-09-26T12:06:59.464Z</time>
      </trkpt>
      <trkpt lat="47.0987" lon="15.68399">
        <ele>403.121179</ele>
        <time>2022-09-26T12:07:01.464Z</time>
      </trkpt>
      <trkpt lat="47.09879" lon="15.68405">
        <ele>402.91856</ele>
        <time>2022-09-26T12:07:03.471Z</time>
      </trkpt>
      <trkpt lat="47.0989" lon="15.68411">
        <ele>402.699664</ele>
        <time>2022-09-26T12:07:05.464Z</time>
      </trkpt>
      <trkpt lat="47.09902" lon="15.68419">
        <ele>402.441106</ele>
        <time>2022-09-26T12:07:07.454Z</time>
      </trkpt>
      <trkpt lat="47.09914" lon="15.68426">
        <ele>402.190149</ele>
        <time>2022-09-26T12:07:09.466Z</time>
      </trkpt>
      <trkpt lat="47.09925" lon="15.68434">
        <ele>401.949219</ele>
        <time>2022-09-26T12:07:11.469Z</time>
      </trkpt>
      <trkpt lat="47.09937" lon="15.68443">
        <ele>401.70134</ele>
        <time>2022-09-26T12:07:13.453Z</time>
      </trkpt>
      <trkpt lat="47.09948" lon="15.68451">
        <ele>401.80348</ele>
        <time>2022-09-26T12:07:15.466Z</time>
      </trkpt>
      <trkpt lat="47.09959" lon="15.68458">
        <ele>402.212346</ele>
        <time>2022-09-26T12:07:17.484Z</time>
      </trkpt>
      <trkpt lat="47.0997" lon="15.68465">
        <ele>402.602167</ele>
        <time>2022-09-26T12:07:19.505Z</time>
      </trkpt>
      <trkpt lat="47.0998" lon="15.68472">
        <ele>402.98588</ele>
        <time>2022-09-26T12:07:21.463Z</time>
      </trkpt>
      <trkpt lat="47.09991" lon="15.68479">
        <ele>403.387541</ele>
        <time>2022-09-26T12:07:23.461Z</time>
      </trkpt>
      <trkpt lat="47.10002" lon="15.68486">
        <ele>403.779162</ele>
        <time>2022-09-26T12:07:25.504Z</time>
      </trkpt>
      <trkpt lat="47.10012" lon="15.68493">
        <ele>404.146693</ele>
        <time>2022-09-26T12:07:27.448Z</time>
      </trkpt>
      <trkpt lat="47.10021" lon="15.68501">
        <ele>404.500376</ele>
        <time>2022-09-26T12:07:29.464Z</time>
      </trkpt>
      <trkpt lat="47.1003" lon="15.68507">
        <ele>404.845823</ele>
        <time>2022-09-26T12:07:31.458Z</time>
      </trkpt>
      <trkpt lat="47.10039" lon="15.68513">
        <ele>405.157121</ele>
        <time>2022-09-26T12:07:33.459Z</time>
      </trkpt>
      <trkpt lat="47.10047" lon="15.68519">
        <ele>405.462389</ele>
        <time>2022-09-26T12:07:35.462Z</time>
      </trkpt>
      <trkpt lat="47.10058" lon="15.68527">
        <ele>405.888421</ele>
        <time>2022-09-26T12:07:38.452Z</time>
      </trkpt>
      <trkpt lat="47.10068" lon="15.68533">
        <ele>406.244161</ele>
        <time>2022-09-26T12:07:41.457Z</time>
      </trkpt>
      <trkpt lat="47.10079" lon="15.68542">
        <ele>406.675062</ele>
        <time>2022-09-26T12:07:44.472Z</time>
      </trkpt>
      <trkpt lat="47.10089" lon="15.68548">
        <ele>407.027551</ele>
        <time>2022-09-26T12:07:46.461Z</time>
      </trkpt>
      <trkpt lat="47.10099" lon="15.68554">
        <ele>407.386769</ele>
        <time>2022-09-26T12:07:48.542Z</time>
      </trkpt>
      <trkpt lat="47.10108" lon="15.68559">
        <ele>407.658317</ele>
        <time>2022-09-26T12:07:50.510Z</time>
      </trkpt>
      <trkpt lat="47.1012" lon="15.68567">
        <ele>407.8646</ele>
        <time>2022-09-26T12:07:53.472Z</time>
      </trkpt>
      <trkpt lat="47.10129" lon="15.68571">
        <ele>408.014408</ele>
        <time>2022-09-26T12:07:55.448Z</time>
      </trkpt>
      <trkpt lat="47.10141" lon="15.68578">
        <ele>408.213131</ele>
        <time>2022-09-26T12:07:58.475Z</time>
      </trkpt>
      <trkpt lat="47.10151" lon="15.68585">
        <ele>408.391704</ele>
        <time>2022-09-26T12:08:01.477Z</time>
      </trkpt>
      <trkpt lat="47.10161" lon="15.68595">
        <ele>408.584511</ele>
        <time>2022-09-26T12:08:05.470Z</time>
      </trkpt>
      <trkpt lat="47.1017" lon="15.68607">
        <ele>408.775675</ele>
        <time>2022-09-26T12:08:08.461Z</time>
      </trkpt>
      <trkpt lat="47.10181" lon="15.68619">
        <ele>408.986294</ele>
        <time>2022-09-26T12:08:11.528Z</time>
      </trkpt>
      <trkpt lat="47.10192" lon="15.6863">
        <ele>409.191226</ele>
        <time>2022-09-26T12:08:14.470Z</time>
      </trkpt>
      <trkpt lat="47.10201" lon="15.68641">
        <ele>409.383238</ele>
        <time>2022-09-26T12:08:17.477Z</time>
      </trkpt>
      <trkpt lat="47.1021" lon="15.68653">
        <ele>409.573367</ele>
        <time>2022-09-26T12:08:20.485Z</time>
      </trkpt>
      <trkpt lat="47.10217" lon="15.68665">
        <ele>409.744663</ele>
        <time>2022-09-26T12:08:23.438Z</time>
      </trkpt>
      <trkpt lat="47.10221" lon="15.68678">
        <ele>409.898825</ele>
        <time>2022-09-26T12:08:26.447Z</time>
      </trkpt>
      <trkpt lat="47.10222" lon="15.68693">
        <ele>410.061698</ele>
        <time>2022-09-26T12:08:29.501Z</time>
      </trkpt>
      <trkpt lat="47.10226" lon="15.68709">
        <ele>410.243417</ele>
        <time>2022-09-26T12:08:32.443Z</time>
      </trkpt>
      <trkpt lat="47.10233" lon="15.68718">
        <ele>410.386044</ele>
        <time>2022-09-26T12:08:34.451Z</time>
      </trkpt>
      <trkpt lat="47.10244" lon="15.68726">
        <ele>410.349597</ele>
        <time>2022-09-26T12:08:37.451Z</time>
      </trkpt>
      <trkpt lat="47.10252" lon="15.68741">
        <ele>410.213777</ele>
        <time>2022-09-26T12:08:40.457Z</time>
      </trkpt>
      <trkpt lat="47.10255" lon="15.68759">
        <ele>410.082522</ele>
        <time>2022-09-26T12:08:43.447Z</time>
      </trkpt>
      <trkpt lat="47.10256" lon="15.68775">
        <ele>409.961868</ele>
        <time>2022-09-26T12:08:46.448Z</time>
      </trkpt>
      <trkpt lat="47.10258" lon="15.68791">
        <ele>409.844209</ele>
        <time>2022-09-26T12:08:49.456Z</time>
      </trkpt>
      <trkpt lat="47.10259" lon="15.68808">
        <ele>409.724138</ele>
        <time>2022-09-26T12:08:52.460Z</time>
      </trkpt>
      <trkpt lat="47.10259" lon="15.68825">
        <ele>409.603771</ele>
        <time>2022-09-26T12:08:55.456Z</time>
      </trkpt>
      <trkpt lat="47.1026" lon="15.68843">
        <ele>409.475364</ele>
        <time>2022-09-26T12:08:58.469Z</time>
      </trkpt>
      <trkpt lat="47.1026" lon="15.68857">
        <ele>409.370885</ele>
        <time>2022-09-26T12:09:01.465Z</time>
      </trkpt>
      <trkpt lat="47.1026" lon="15.68872">
        <ele>409.26196</ele>
        <time>2022-09-26T12:09:04.476Z</time>
      </trkpt>
      <trkpt lat="47.10261" lon="15.68889">
        <ele>409.143324</ele>
        <time>2022-09-26T12:09:07.469Z</time>
      </trkpt>
      <trkpt lat="47.10264" lon="15.68908">
        <ele>409.003751</ele>
        <time>2022-09-26T12:09:10.473Z</time>
      </trkpt>
      <trkpt lat="47.10266" lon="15.68925">
        <ele>408.87399</ele>
        <time>2022-09-26T12:09:13.459Z</time>
      </trkpt>
      <trkpt lat="47.10269" lon="15.6894">
        <ele>408.760534</ele>
        <time>2022-09-26T12:09:16.450Z</time>
      </trkpt>
      <trkpt lat="47.10271" lon="15.68954">
        <ele>408.662323</ele>
        <time>2022-09-26T12:09:19.481Z</time>
      </trkpt>
      <trkpt lat="47.10272" lon="15.68969">
        <ele>408.549427</ele>
        <time>2022-09-26T12:09:23.444Z</time>
      </trkpt>
      <trkpt lat="47.10275" lon="15.68985">
        <ele>408.30589</ele>
        <time>2022-09-26T12:10:39.469Z</time>
      </trkpt>
      <trkpt lat="47.10283" lon="15.68993">
        <ele>408.077075</ele>
        <time>2022-09-26T12:10:44.474Z</time>
      </trkpt>
      <trkpt lat="47.1029" lon="15.69005">
        <ele>407.827904</ele>
        <time>2022-09-26T12:10:48.470Z</time>
      </trkpt>
      <trkpt lat="47.10296" lon="15.69016">
        <ele>407.612229</ele>
        <time>2022-09-26T12:10:51.467Z</time>
      </trkpt>
      <trkpt lat="47.10301" lon="15.69027">
        <ele>407.397904</ele>
        <time>2022-09-26T12:10:54.468Z</time>
      </trkpt>
      <trkpt lat="47.10307" lon="15.69038">
        <ele>407.183497</ele>
        <time>2022-09-26T12:10:57.469Z</time>
      </trkpt>
      <trkpt lat="47.10312" lon="15.69051">
        <ele>406.950929</ele>
        <time>2022-09-26T12:11:00.458Z</time>
      </trkpt>
      <trkpt lat="47.10318" lon="15.69063">
        <ele>406.722375</ele>
        <time>2022-09-26T12:11:03.470Z</time>
      </trkpt>
      <trkpt lat="47.10324" lon="15.69077">
        <ele>406.454842</ele>
        <time>2022-09-26T12:11:07.458Z</time>
      </trkpt>
      <trkpt lat="47.1033" lon="15.69089">
        <ele>406.223686</ele>
        <time>2022-09-26T12:11:10.478Z</time>
      </trkpt>
      <trkpt lat="47.10336" lon="15.69103">
        <ele>405.965251</ele>
        <time>2022-09-26T12:11:13.540Z</time>
      </trkpt>
      <trkpt lat="47.10342" lon="15.69118">
        <ele>405.691518</ele>
        <time>2022-09-26T12:11:16.438Z</time>
      </trkpt>
      <trkpt lat="47.10347" lon="15.69134">
        <ele>405.410583</ele>
        <time>2022-09-26T12:11:19.464Z</time>
      </trkpt>
      <trkpt lat="47.10352" lon="15.69149">
        <ele>405.140905</ele>
        <time>2022-09-26T12:11:22.470Z</time>
      </trkpt>
      <trkpt lat="47.10357" lon="15.69165">
        <ele>404.8747</ele>
        <time>2022-09-26T12:11:25.460Z</time>
      </trkpt>
      <trkpt lat="47.10363" lon="15.6918">
        <ele>404.600814</ele>
        <time>2022-09-26T12:11:28.478Z</time>
      </trkpt>
      <trkpt lat="47.10368" lon="15.69194">
        <ele>404.396138</ele>
        <time>2022-09-26T12:11:31.470Z</time>
      </trkpt>
      <trkpt lat="47.10373" lon="15.69209">
        <ele>404.420353</ele>
        <time>2022-09-26T12:11:34.466Z</time>
      </trkpt>
      <trkpt lat="47.10377" lon="15.69224">
        <ele>404.443097</ele>
        <time>2022-09-26T12:11:37.452Z</time>
      </trkpt>
      <trkpt lat="47.10382" lon="15.6924">
        <ele>404.468747</ele>
        <time>2022-09-26T12:11:40.463Z</time>
      </trkpt>
      <trkpt lat="47.10386" lon="15.69255">
        <ele>404.493743</ele>
        <time>2022-09-26T12:11:43.461Z</time>
      </trkpt>
      <trkpt lat="47.10389" lon="15.69272">
        <ele>404.519131</ele>
        <time>2022-09-26T12:11:46.466Z</time>
      </trkpt>
      <trkpt lat="47.10392" lon="15.69289">
        <ele>404.545168</ele>
        <time>2022-09-26T12:11:49.464Z</time>
      </trkpt>
      <trkpt lat="47.10394" lon="15.69307">
        <ele>404.571783</ele>
        <time>2022-09-26T12:11:52.502Z</time>
      </trkpt>
      <trkpt lat="47.10396" lon="15.69324">
        <ele>404.597126</ele>
        <time>2022-09-26T12:11:55.490Z</time>
      </trkpt>
      <trkpt lat="47.10398" lon="15.69342">
        <ele>404.623637</ele>
        <time>2022-09-26T12:11:58.458Z</time>
      </trkpt>
      <trkpt lat="47.10401" lon="15.69359">
        <ele>404.649573</ele>
        <time>2022-09-26T12:12:01.471Z</time>
      </trkpt>
      <trkpt lat="47.10403" lon="15.69376">
        <ele>404.674376</ele>
        <time>2022-09-26T12:12:04.459Z</time>
      </trkpt>
      <trkpt lat="47.10406" lon="15.69393">
        <ele>404.700878</ele>
        <time>2022-09-26T12:12:07.473Z</time>
      </trkpt>
      <trkpt lat="47.10409" lon="15.69412">
        <ele>404.729203</ele>
        <time>2022-09-26T12:12:10.485Z</time>
      </trkpt>
      <trkpt lat="47.10413" lon="15.69429">
        <ele>404.756194</ele>
        <time>2022-09-26T12:12:13.480Z</time>
      </trkpt>
      <trkpt lat="47.10419" lon="15.69445">
        <ele>404.764854</ele>
        <time>2022-09-26T12:12:16.457Z</time>
      </trkpt>
      <trkpt lat="47.10424" lon="15.69458">
        <ele>404.505221</ele>
        <time>2022-09-26T12:12:19.450Z</time>
      </trkpt>
      <trkpt lat="47.10429" lon="15.69471">
        <ele>404.261647</ele>
        <time>2022-09-26T12:12:22.501Z</time>
      </trkpt>
      <trkpt lat="47.10437" lon="15.69484">
        <ele>403.973768</ele>
        <time>2022-09-26T12:12:25.467Z</time>
      </trkpt>
      <trkpt lat="47.10443" lon="15.69493">
        <ele>403.75423</ele>
        <time>2022-09-26T12:12:27.462Z</time>
      </trkpt>
      <trkpt lat="47.10449" lon="15.69504">
        <ele>403.532329</ele>
        <time>2022-09-26T12:12:29.456Z</time>
      </trkpt>
      <trkpt lat="47.10455" lon="15.69519">
        <ele>403.234525</ele>
        <time>2022-09-26T12:12:32.452Z</time>
      </trkpt>
      <trkpt lat="47.10462" lon="15.69532">
        <ele>402.984027</ele>
        <time>2022-09-26T12:12:35.474Z</time>
      </trkpt>
      <trkpt lat="47.10469" lon="15.69545">
        <ele>402.708394</ele>
        <time>2022-09-26T12:12:38.466Z</time>
      </trkpt>
      <trkpt lat="47.10466" lon="15.69561">
        <ele>402.427897</ele>
        <time>2022-09-26T12:12:42.463Z</time>
      </trkpt>
      <trkpt lat="47.10469" lon="15.69576">
        <ele>402.169987</ele>
        <time>2022-09-26T12:12:46.462Z</time>
      </trkpt>
      <trkpt lat="47.10474" lon="15.69592">
        <ele>401.878576</ele>
        <time>2022-09-26T12:12:49.481Z</time>
      </trkpt>
      <trkpt lat="47.10479" lon="15.69603">
        <ele>401.654031</ele>
        <time>2022-09-26T12:12:52.465Z</time>
      </trkpt>
      <trkpt lat="47.10486" lon="15.69616">
        <ele>401.387598</ele>
        <time>2022-09-26T12:12:55.468Z</time>
      </trkpt>
      <trkpt lat="47.10491" lon="15.69631">
        <ele>401.125185</ele>
        <time>2022-09-26T12:12:58.456Z</time>
      </trkpt>
      <trkpt lat="47.1049" lon="15.69645">
        <ele>400.89305</ele>
        <time>2022-09-26T12:13:00.500Z</time>
      </trkpt>
      <trkpt lat="47.10487" lon="15.69659">
        <ele>400.634227</ele>
        <time>2022-09-26T12:13:03.460Z</time>
      </trkpt>
      <trkpt lat="47.10481" lon="15.69673">
        <ele>400.454007</ele>
        <time>2022-09-26T12:13:08.471Z</time>
      </trkpt>
      <trkpt lat="47.10488" lon="15.69684">
        <ele>400.58293</ele>
        <time>2022-09-26T12:13:12.481Z</time>
      </trkpt>
      <trkpt lat="47.10498" lon="15.69693">
        <ele>400.722785</ele>
        <time>2022-09-26T12:13:15.457Z</time>
      </trkpt>
      <trkpt lat="47.10507" lon="15.69703">
        <ele>400.861393</ele>
        <time>2022-09-26T12:13:18.470Z</time>
      </trkpt>
      <trkpt lat="47.10516" lon="15.69712">
        <ele>400.993097</ele>
        <time>2022-09-26T12:13:21.477Z</time>
      </trkpt>
      <trkpt lat="47.10522" lon="15.69723">
        <ele>401.121066</ele>
        <time>2022-09-26T12:13:24.440Z</time>
      </trkpt>
      <trkpt lat="47.1053" lon="15.69737">
        <ele>401.264948</ele>
        <time>2022-09-26T12:13:27.424Z</time>
      </trkpt>
      <trkpt lat="47.10536" lon="15.6975">
        <ele>401.402848</ele>
        <time>2022-09-26T12:13:30.450Z</time>
      </trkpt>
      <trkpt lat="47.10542" lon="15.69764">
        <ele>401.544171</ele>
        <time>2022-09-26T12:13:33.489Z</time>
      </trkpt>
      <trkpt lat="47.10548" lon="15.69779">
        <ele>401.688327</ele>
        <time>2022-09-26T12:13:36.445Z</time>
      </trkpt>
      <trkpt lat="47.10554" lon="15.69792">
        <ele>401.8203</ele>
        <time>2022-09-26T12:13:39.468Z</time>
      </trkpt>
      <trkpt lat="47.10556" lon="15.69806">
        <ele>401.93845</ele>
        <time>2022-09-26T12:13:42.476Z</time>
      </trkpt>
      <trkpt lat="47.10561" lon="15.69821">
        <ele>402.076494</ele>
        <time>2022-09-26T12:13:47.520Z</time>
      </trkpt>
      <trkpt lat="47.10568" lon="15.69833">
        <ele>402.2075</ele>
        <time>2022-09-26T12:13:51.461Z</time>
      </trkpt>
      <trkpt lat="47.10571" lon="15.69849">
        <ele>402.35465</ele>
        <time>2022-09-26T12:13:55.483Z</time>
      </trkpt>
      <trkpt lat="47.10573" lon="15.69863">
        <ele>402.475376</ele>
        <time>2022-09-26T12:13:58.458Z</time>
      </trkpt>
      <trkpt lat="47.10574" lon="15.6988">
        <ele>402.613932</ele>
        <time>2022-09-26T12:14:01.465Z</time>
      </trkpt>
      <trkpt lat="47.10574" lon="15.69898">
        <ele>403.225299</ele>
        <time>2022-09-26T12:14:04.469Z</time>
      </trkpt>
      <trkpt lat="47.10574" lon="15.69911">
        <ele>403.806812</ele>
        <time>2022-09-26T12:14:06.441Z</time>
      </trkpt>
      <trkpt lat="47.10573" lon="15.69926">
        <ele>404.438734</ele>
        <time>2022-09-26T12:14:08.460Z</time>
      </trkpt>
      <trkpt lat="47.10572" lon="15.69941">
        <ele>405.107318</ele>
        <time>2022-09-26T12:14:10.478Z</time>
      </trkpt>
      <trkpt lat="47.1057" lon="15.69957">
        <ele>405.78493</ele>
        <time>2022-09-26T12:14:12.464Z</time>
      </trkpt>
      <trkpt lat="47.10566" lon="15.69974">
        <ele>406.575844</ele>
        <time>2022-09-26T12:14:15.463Z</time>
      </trkpt>
      <trkpt lat="47.10562" lon="15.6999">
        <ele>407.291984</ele>
        <time>2022-09-26T12:14:18.451Z</time>
      </trkpt>
      <trkpt lat="47.10559" lon="15.70008">
        <ele>408.116912</ele>
        <time>2022-09-26T12:14:21.462Z</time>
      </trkpt>
      <trkpt lat="47.10557" lon="15.70027">
        <ele>408.926795</ele>
        <time>2022-09-26T12:14:24.464Z</time>
      </trkpt>
      <trkpt lat="47.10555" lon="15.70043">
        <ele>409.628528</ele>
        <time>2022-09-26T12:14:27.471Z</time>
      </trkpt>
      <trkpt lat="47.10554" lon="15.70057">
        <ele>410.237023</ele>
        <time>2022-09-26T12:14:30.466Z</time>
      </trkpt>
      <trkpt lat="47.10551" lon="15.70072">
        <ele>410.925138</ele>
        <time>2022-09-26T12:14:33.464Z</time>
      </trkpt>
      <trkpt lat="47.10549" lon="15.70087">
        <ele>411.562273</ele>
        <time>2022-09-26T12:14:36.445Z</time>
      </trkpt>
      <trkpt lat="47.10546" lon="15.70103">
        <ele>412.272185</ele>
        <time>2022-09-26T12:14:39.452Z</time>
      </trkpt>
      <trkpt lat="47.10542" lon="15.70118">
        <ele>412.990089</ele>
        <time>2022-09-26T12:14:42.494Z</time>
      </trkpt>
      <trkpt lat="47.10537" lon="15.70133">
        <ele>413.683404</ele>
        <time>2022-09-26T12:14:45.453Z</time>
      </trkpt>
      <trkpt lat="47.10534" lon="15.70147">
        <ele>413.768373</ele>
        <time>2022-09-26T12:14:48.452Z</time>
      </trkpt>
      <trkpt lat="47.10532" lon="15.70162">
        <ele>413.185693</ele>
        <time>2022-09-26T12:14:51.458Z</time>
      </trkpt>
      <trkpt lat="47.10529" lon="15.7018">
        <ele>412.496109</ele>
        <time>2022-09-26T12:14:54.462Z</time>
      </trkpt>
      <trkpt lat="47.10526" lon="15.70193">
        <ele>411.974354</ele>
        <time>2022-09-26T12:14:56.455Z</time>
      </trkpt>
      <trkpt lat="47.10523" lon="15.70207">
        <ele>411.441184</ele>
        <time>2022-09-26T12:14:58.447Z</time>
      </trkpt>
      <trkpt lat="47.10522" lon="15.70224">
        <ele>410.782855</ele>
        <time>2022-09-26T12:15:01.462Z</time>
      </trkpt>
      <trkpt lat="47.10521" lon="15.7024">
        <ele>410.158081</ele>
        <time>2022-09-26T12:15:04.451Z</time>
      </trkpt>
      <trkpt lat="47.10519" lon="15.70257">
        <ele>409.532688</ele>
        <time>2022-09-26T12:15:07.452Z</time>
      </trkpt>
      <trkpt lat="47.10518" lon="15.70273">
        <ele>408.898401</ele>
        <time>2022-09-26T12:15:10.497Z</time>
      </trkpt>
      <trkpt lat="47.10516" lon="15.70289">
        <ele>408.304561</ele>
        <time>2022-09-26T12:15:13.467Z</time>
      </trkpt>
      <trkpt lat="47.10511" lon="15.70303">
        <ele>407.701995</ele>
        <time>2022-09-26T12:15:17.460Z</time>
      </trkpt>
      <trkpt lat="47.10508" lon="15.70318">
        <ele>407.113811</ele>
        <time>2022-09-26T12:15:20.461Z</time>
      </trkpt>
      <trkpt lat="47.10508" lon="15.70334">
        <ele>406.522812</ele>
        <time>2022-09-26T12:15:23.471Z</time>
      </trkpt>
      <trkpt lat="47.1051" lon="15.7035">
        <ele>405.884266</ele>
        <time>2022-09-26T12:15:26.452Z</time>
      </trkpt>
      <trkpt lat="47.10505" lon="15.70361">
        <ele>405.379958</ele>
        <time>2022-09-26T12:15:32.477Z</time>
      </trkpt>
      <trkpt lat="47.10494" lon="15.70369">
        <ele>404.686931</ele>
        <time>2022-09-26T12:15:36.461Z</time>
      </trkpt>
      <trkpt lat="47.10486" lon="15.70382">
        <ele>404.041435</ele>
        <time>2022-09-26T12:15:39.470Z</time>
      </trkpt>
      <trkpt lat="47.10479" lon="15.70395">
        <ele>404.324965</ele>
        <time>2022-09-26T12:15:42.467Z</time>
      </trkpt>
      <trkpt lat="47.10473" lon="15.70409">
        <ele>404.620818</ele>
        <time>2022-09-26T12:15:45.467Z</time>
      </trkpt>
      <trkpt lat="47.10467" lon="15.7042">
        <ele>404.900599</ele>
        <time>2022-09-26T12:15:48.511Z</time>
      </trkpt>
      <trkpt lat="47.10461" lon="15.70432">
        <ele>405.167637</ele>
        <time>2022-09-26T12:15:51.453Z</time>
      </trkpt>
      <trkpt lat="47.10455" lon="15.70445">
        <ele>405.465068</ele>
        <time>2022-09-26T12:15:55.468Z</time>
      </trkpt>
      <trkpt lat="47.10448" lon="15.70458">
        <ele>405.770563</ele>
        <time>2022-09-26T12:15:59.461Z</time>
      </trkpt>
      <trkpt lat="47.10441" lon="15.70469">
        <ele>406.04825</ele>
        <time>2022-09-26T12:16:03.491Z</time>
      </trkpt>
      <trkpt lat="47.1043" lon="15.70477">
        <ele>406.36721</ele>
        <time>2022-09-26T12:16:06.447Z</time>
      </trkpt>
      <trkpt lat="47.10419" lon="15.70485">
        <ele>406.704254</ele>
        <time>2022-09-26T12:16:09.450Z</time>
      </trkpt>
      <trkpt lat="47.10411" lon="15.70494">
        <ele>406.985659</ele>
        <time>2022-09-26T12:16:13.451Z</time>
      </trkpt>
      <trkpt lat="47.10412" lon="15.7051">
        <ele>407.273416</ele>
        <time>2022-09-26T12:16:18.471Z</time>
      </trkpt>
      <trkpt lat="47.10416" lon="15.70524">
        <ele>407.561535</ele>
        <time>2022-09-26T12:16:21.468Z</time>
      </trkpt>
      <trkpt lat="47.1042" lon="15.70539">
        <ele>407.843328</ele>
        <time>2022-09-26T12:16:24.468Z</time>
      </trkpt>
      <trkpt lat="47.10424" lon="15.70554">
        <ele>408.151499</ele>
        <time>2022-09-26T12:16:27.469Z</time>
      </trkpt>
      <trkpt lat="47.10429" lon="15.70571">
        <ele>408.48416</ele>
        <time>2022-09-26T12:16:30.451Z</time>
      </trkpt>
      <trkpt lat="47.10435" lon="15.70583">
        <ele>408.76978</ele>
        <time>2022-09-26T12:16:33.458Z</time>
      </trkpt>
      <trkpt lat="47.1044" lon="15.70598">
        <ele>409.024418</ele>
        <time>2022-09-26T12:16:36.450Z</time>
      </trkpt>
      <trkpt lat="47.10445" lon="15.70611">
        <ele>409.193902</ele>
        <time>2022-09-26T12:16:39.455Z</time>
      </trkpt>
      <trkpt lat="47.1045" lon="15.70626">
        <ele>409.394605</ele>
        <time>2022-09-26T12:16:42.464Z</time>
      </trkpt>
      <trkpt lat="47.10455" lon="15.70641">
        <ele>409.593065</ele>
        <time>2022-09-26T12:16:45.460Z</time>
      </trkpt>
      <trkpt lat="47.10461" lon="15.70655">
        <ele>409.788448</ele>
        <time>2022-09-26T12:16:48.500Z</time>
      </trkpt>
      <trkpt lat="47.10466" lon="15.70669">
        <ele>409.97945</ele>
        <time>2022-09-26T12:16:51.454Z</time>
      </trkpt>
      <trkpt lat="47.10471" lon="15.70683">
        <ele>410.158885</ele>
        <time>2022-09-26T12:16:54.498Z</time>
      </trkpt>
      <trkpt lat="47.10474" lon="15.70695">
        <ele>410.316619</ele>
        <time>2022-09-26T12:16:57.455Z</time>
      </trkpt>
      <trkpt lat="47.10478" lon="15.7071">
        <ele>410.502427</ele>
        <time>2022-09-26T12:17:00.485Z</time>
      </trkpt>
      <trkpt lat="47.10482" lon="15.70724">
        <ele>410.68134</ele>
        <time>2022-09-26T12:17:03.490Z</time>
      </trkpt>
      <trkpt lat="47.10486" lon="15.70737">
        <ele>410.846933</ele>
        <time>2022-09-26T12:17:06.477Z</time>
      </trkpt>
      <trkpt lat="47.10489" lon="15.70751">
        <ele>411.021101</ele>
        <time>2022-09-26T12:17:09.451Z</time>
      </trkpt>
      <trkpt lat="47.10488" lon="15.70767">
        <ele>411.215979</ele>
        <time>2022-09-26T12:17:12.465Z</time>
      </trkpt>
      <trkpt lat="47.10484" lon="15.70781">
        <ele>411.395144</ele>
        <time>2022-09-26T12:17:15.488Z</time>
      </trkpt>
      <trkpt lat="47.10478" lon="15.70792">
        <ele>411.558014</ele>
        <time>2022-09-26T12:17:18.506Z</time>
      </trkpt>
      <trkpt lat="47.1047" lon="15.70802">
        <ele>411.745026</ele>
        <time>2022-09-26T12:17:21.446Z</time>
      </trkpt>
      <trkpt lat="47.10461" lon="15.70813">
        <ele>411.940305</ele>
        <time>2022-09-26T12:17:24.464Z</time>
      </trkpt>
      <trkpt lat="47.10455" lon="15.70825">
        <ele>411.772012</ele>
        <time>2022-09-26T12:17:27.469Z</time>
      </trkpt>
      <trkpt lat="47.10446" lon="15.70833">
        <ele>411.180833</ele>
        <time>2022-09-26T12:17:30.467Z</time>
      </trkpt>
      <trkpt lat="47.10436" lon="15.70843">
        <ele>410.490408</ele>
        <time>2022-09-26T12:17:33.457Z</time>
      </trkpt>
      <trkpt lat="47.10426" lon="15.70853">
        <ele>409.820122</ele>
        <time>2022-09-26T12:17:36.444Z</time>
      </trkpt>
      <trkpt lat="47.10418" lon="15.7086">
        <ele>409.27957</ele>
        <time>2022-09-26T12:17:38.460Z</time>
      </trkpt>
      <trkpt lat="47.10409" lon="15.70867">
        <ele>408.725778</ele>
        <time>2022-09-26T12:17:40.458Z</time>
      </trkpt>
      <trkpt lat="47.10397" lon="15.70877">
        <ele>407.955847</ele>
        <time>2022-09-26T12:17:43.457Z</time>
      </trkpt>
      <trkpt lat="47.10389" lon="15.70884">
        <ele>407.410465</ele>
        <time>2022-09-26T12:17:45.462Z</time>
      </trkpt>
      <trkpt lat="47.10378" lon="15.70893">
        <ele>406.717246</ele>
        <time>2022-09-26T12:17:48.466Z</time>
      </trkpt>
      <trkpt lat="47.10368" lon="15.70896">
        <ele>406.120447</ele>
        <time>2022-09-26T12:17:51.457Z</time>
      </trkpt>
      <trkpt lat="47.10356" lon="15.70901">
        <ele>405.42768</ele>
        <time>2022-09-26T12:17:54.486Z</time>
      </trkpt>
      <trkpt lat="47.10346" lon="15.70901">
        <ele>404.863261</ele>
        <time>2022-09-26T12:17:57.475Z</time>
      </trkpt>
      <trkpt lat="47.10338" lon="15.70891">
        <ele>404.27198</ele>
        <time>2022-09-26T12:18:00.461Z</time>
      </trkpt>
      <trkpt lat="47.10332" lon="15.70876">
        <ele>403.608347</ele>
        <time>2022-09-26T12:18:03.460Z</time>
      </trkpt>
      <trkpt lat="47.10326" lon="15.70864">
        <ele>403.023322</ele>
        <time>2022-09-26T12:18:06.447Z</time>
      </trkpt>
      <trkpt lat="47.10319" lon="15.70852">
        <ele>402.445494</ele>
        <time>2022-09-26T12:18:09.475Z</time>
      </trkpt>
      <trkpt lat="47.10315" lon="15.70839">
        <ele>401.905517</ele>
        <time>2022-09-26T12:18:12.461Z</time>
      </trkpt>
      <trkpt lat="47.10314" lon="15.70826">
        <ele>402.109534</ele>
        <time>2022-09-26T12:18:28.487Z</time>
      </trkpt>
      <trkpt lat="47.10321" lon="15.70857">
        <ele>402.603888</ele>
        <time>2022-09-26T12:41:51.470Z</time>
      </trkpt>
      <trkpt lat="47.10324" lon="15.7087">
        <ele>402.815856</ele>
        <time>2022-09-26T12:41:53.466Z</time>
      </trkpt>
      <trkpt lat="47.10328" lon="15.70886">
        <ele>403.063189</ele>
        <time>2022-09-26T12:41:56.461Z</time>
      </trkpt>
      <trkpt lat="47.10327" lon="15.70899">
        <ele>403.265716</ele>
        <time>2022-09-26T12:42:01.453Z</time>
      </trkpt>
      <trkpt lat="47.10327" lon="15.70918">
        <ele>403.544848</ele>
        <time>2022-09-26T12:42:06.448Z</time>
      </trkpt>
      <trkpt lat="47.10332" lon="15.70934">
        <ele>403.810138</ele>
        <time>2022-09-26T12:42:09.470Z</time>
      </trkpt>
      <trkpt lat="47.10338" lon="15.70948">
        <ele>404.056834</ele>
        <time>2022-09-26T12:42:12.463Z</time>
      </trkpt>
      <trkpt lat="47.10344" lon="15.7096">
        <ele>404.286769</ele>
        <time>2022-09-26T12:42:15.462Z</time>
      </trkpt>
      <trkpt lat="47.1035" lon="15.70974">
        <ele>404.529909</ele>
        <time>2022-09-26T12:42:19.475Z</time>
      </trkpt>
      <trkpt lat="47.10356" lon="15.70987">
        <ele>404.773049</ele>
        <time>2022-09-26T12:42:23.467Z</time>
      </trkpt>
      <trkpt lat="47.10359" lon="15.71001">
        <ele>404.996813</ele>
        <time>2022-09-26T12:42:27.466Z</time>
      </trkpt>
      <trkpt lat="47.10352" lon="15.71012">
        <ele>405.225699</ele>
        <time>2022-09-26T12:42:31.463Z</time>
      </trkpt>
      <trkpt lat="47.10343" lon="15.71018">
        <ele>405.435694</ele>
        <time>2022-09-26T12:42:34.466Z</time>
      </trkpt>
      <trkpt lat="47.10333" lon="15.71026">
        <ele>405.697131</ele>
        <time>2022-09-26T12:42:37.453Z</time>
      </trkpt>
      <trkpt lat="47.10321" lon="15.71034">
        <ele>405.836514</ele>
        <time>2022-09-26T12:42:40.530Z</time>
      </trkpt>
      <trkpt lat="47.10313" lon="15.71041">
        <ele>405.790185</ele>
        <time>2022-09-26T12:42:42.459Z</time>
      </trkpt>
      <trkpt lat="47.10304" lon="15.71047">
        <ele>405.743168</ele>
        <time>2022-09-26T12:42:44.476Z</time>
      </trkpt>
      <trkpt lat="47.10295" lon="15.71054">
        <ele>405.695599</ele>
        <time>2022-09-26T12:42:46.488Z</time>
      </trkpt>
      <trkpt lat="47.10286" lon="15.7106">
        <ele>405.647595</ele>
        <time>2022-09-26T12:42:48.455Z</time>
      </trkpt>
      <trkpt lat="47.10278" lon="15.71066">
        <ele>405.599862</ele>
        <time>2022-09-26T12:42:50.468Z</time>
      </trkpt>
      <trkpt lat="47.10268" lon="15.71072">
        <ele>405.55096</ele>
        <time>2022-09-26T12:42:52.474Z</time>
      </trkpt>
      <trkpt lat="47.10256" lon="15.71079">
        <ele>405.485797</ele>
        <time>2022-09-26T12:42:55.455Z</time>
      </trkpt>
      <trkpt lat="47.10244" lon="15.71085">
        <ele>405.424069</ele>
        <time>2022-09-26T12:42:58.463Z</time>
      </trkpt>
      <trkpt lat="47.10233" lon="15.7109">
        <ele>405.368376</ele>
        <time>2022-09-26T12:43:01.451Z</time>
      </trkpt>
      <trkpt lat="47.10221" lon="15.71096">
        <ele>405.304836</ele>
        <time>2022-09-26T12:43:04.456Z</time>
      </trkpt>
      <trkpt lat="47.10211" lon="15.71101">
        <ele>405.255363</ele>
        <time>2022-09-26T12:43:06.453Z</time>
      </trkpt>
      <trkpt lat="47.10203" lon="15.71106">
        <ele>405.210275</ele>
        <time>2022-09-26T12:43:08.465Z</time>
      </trkpt>
      <trkpt lat="47.10195" lon="15.71111">
        <ele>405.165841</ele>
        <time>2022-09-26T12:43:10.471Z</time>
      </trkpt>
      <trkpt lat="47.10182" lon="15.71117">
        <ele>405.102088</ele>
        <time>2022-09-26T12:43:13.454Z</time>
      </trkpt>
      <trkpt lat="47.1017" lon="15.71122">
        <ele>405.041408</ele>
        <time>2022-09-26T12:43:16.452Z</time>
      </trkpt>
      <trkpt lat="47.1016" lon="15.71126">
        <ele>404.987736</ele>
        <time>2022-09-26T12:43:19.466Z</time>
      </trkpt>
      <trkpt lat="47.10151" lon="15.71126">
        <ele>404.67935</ele>
        <time>2022-09-26T12:43:21.473Z</time>
      </trkpt>
      <trkpt lat="47.10139" lon="15.71127">
        <ele>404.229992</ele>
        <time>2022-09-26T12:43:24.470Z</time>
      </trkpt>
      <trkpt lat="47.10128" lon="15.71127">
        <ele>403.811241</ele>
        <time>2022-09-26T12:43:27.469Z</time>
      </trkpt>
      <trkpt lat="47.10119" lon="15.71126">
        <ele>403.452827</ele>
        <time>2022-09-26T12:43:30.475Z</time>
      </trkpt>
      <trkpt lat="47.10109" lon="15.71125">
        <ele>403.090085</ele>
        <time>2022-09-26T12:43:33.463Z</time>
      </trkpt>
      <trkpt lat="47.10099" lon="15.71126">
        <ele>402.716317</ele>
        <time>2022-09-26T12:43:36.450Z</time>
      </trkpt>
      <trkpt lat="47.10088" lon="15.71124">
        <ele>402.276843</ele>
        <time>2022-09-26T12:43:40.470Z</time>
      </trkpt>
      <trkpt lat="47.10077" lon="15.71127">
        <ele>401.878577</ele>
        <time>2022-09-26T12:43:43.482Z</time>
      </trkpt>
      <trkpt lat="47.10066" lon="15.71129">
        <ele>401.446446</ele>
        <time>2022-09-26T12:43:46.475Z</time>
      </trkpt>
      <trkpt lat="47.10054" lon="15.71131">
        <ele>400.990212</ele>
        <time>2022-09-26T12:43:49.463Z</time>
      </trkpt>
      <trkpt lat="47.10043" lon="15.71136">
        <ele>400.525655</ele>
        <time>2022-09-26T12:43:52.455Z</time>
      </trkpt>
      <trkpt lat="47.10031" lon="15.71141">
        <ele>400.071278</ele>
        <time>2022-09-26T12:43:55.482Z</time>
      </trkpt>
      <trkpt lat="47.10021" lon="15.71144">
        <ele>399.659642</ele>
        <time>2022-09-26T12:43:58.466Z</time>
      </trkpt>
      <trkpt lat="47.10011" lon="15.71148">
        <ele>399.282739</ele>
        <time>2022-09-26T12:44:01.473Z</time>
      </trkpt>
      <trkpt lat="47.10002" lon="15.71152">
        <ele>398.912303</ele>
        <time>2022-09-26T12:44:04.471Z</time>
      </trkpt>
      <trkpt lat="47.0999" lon="15.71154">
        <ele>398.470856</ele>
        <time>2022-09-26T12:44:08.451Z</time>
      </trkpt>
      <trkpt lat="47.09979" lon="15.71157">
        <ele>398.127867</ele>
        <time>2022-09-26T12:44:16.461Z</time>
      </trkpt>
      <trkpt lat="47.09969" lon="15.71158">
        <ele>398.092569</ele>
        <time>2022-09-26T12:44:19.469Z</time>
      </trkpt>
      <trkpt lat="47.09957" lon="15.7116">
        <ele>398.054334</ele>
        <time>2022-09-26T12:44:22.476Z</time>
      </trkpt>
      <trkpt lat="47.09948" lon="15.71162">
        <ele>398.022562</ele>
        <time>2022-09-26T12:44:24.454Z</time>
      </trkpt>
      <trkpt lat="47.09936" lon="15.71164">
        <ele>397.982751</ele>
        <time>2022-09-26T12:44:27.475Z</time>
      </trkpt>
      <trkpt lat="47.09926" lon="15.71166">
        <ele>397.948319</ele>
        <time>2022-09-26T12:44:30.523Z</time>
      </trkpt>
      <trkpt lat="47.09915" lon="15.71169">
        <ele>397.909705</ele>
        <time>2022-09-26T12:44:34.449Z</time>
      </trkpt>
      <trkpt lat="47.09904" lon="15.71173">
        <ele>397.874762</ele>
        <time>2022-09-26T12:44:37.479Z</time>
      </trkpt>
      <trkpt lat="47.09893" lon="15.7118">
        <ele>397.833232</ele>
        <time>2022-09-26T12:44:40.484Z</time>
      </trkpt>
      <trkpt lat="47.09892" lon="15.71196">
        <ele>397.795406</ele>
        <time>2022-09-26T12:44:44.484Z</time>
      </trkpt>
      <trkpt lat="47.09903" lon="15.71202">
        <ele>397.754872</ele>
        <time>2022-09-26T12:44:47.474Z</time>
      </trkpt>
      <trkpt lat="47.09912" lon="15.71208">
        <ele>397.720557</ele>
        <time>2022-09-26T12:44:50.449Z</time>
      </trkpt>
      <trkpt lat="47.09921" lon="15.71217">
        <ele>397.685978</ele>
        <time>2022-09-26T12:44:53.478Z</time>
      </trkpt>
      <trkpt lat="47.09928" lon="15.71229">
        <ele>397.651269</ele>
        <time>2022-09-26T12:44:56.434Z</time>
      </trkpt>
      <trkpt lat="47.09933" lon="15.7124">
        <ele>397.61901</ele>
        <time>2022-09-26T12:44:59.466Z</time>
      </trkpt>
      <trkpt lat="47.09937" lon="15.71253">
        <ele>397.587147</ele>
        <time>2022-09-26T12:45:02.456Z</time>
      </trkpt>
      <trkpt lat="47.09942" lon="15.71265">
        <ele>397.554677</ele>
        <time>2022-09-26T12:45:05.456Z</time>
      </trkpt>
      <trkpt lat="47.09952" lon="15.71277">
        <ele>397.633683</ele>
        <time>2022-09-26T12:45:08.468Z</time>
      </trkpt>
      <trkpt lat="47.09961" lon="15.71288">
        <ele>397.834424</ele>
        <time>2022-09-26T12:45:11.495Z</time>
      </trkpt>
      <trkpt lat="47.09968" lon="15.71299">
        <ele>398.011278</ele>
        <time>2022-09-26T12:45:14.463Z</time>
      </trkpt>
      <trkpt lat="47.09978" lon="15.71307">
        <ele>398.194314</ele>
        <time>2022-09-26T12:45:17.522Z</time>
      </trkpt>
      <trkpt lat="47.09988" lon="15.71315">
        <ele>398.384932</ele>
        <time>2022-09-26T12:45:20.464Z</time>
      </trkpt>
      <trkpt lat="47.09996" lon="15.71323">
        <ele>398.557682</ele>
        <time>2022-09-26T12:45:23.458Z</time>
      </trkpt>
      <trkpt lat="47.10004" lon="15.71332">
        <ele>398.72837</ele>
        <time>2022-09-26T12:45:26.453Z</time>
      </trkpt>
      <trkpt lat="47.10013" lon="15.71343">
        <ele>398.912393</ele>
        <time>2022-09-26T12:45:29.445Z</time>
      </trkpt>
      <trkpt lat="47.10021" lon="15.7135">
        <ele>399.078692</ele>
        <time>2022-09-26T12:45:32.456Z</time>
      </trkpt>
      <trkpt lat="47.10029" lon="15.71359">
        <ele>399.247287</ele>
        <time>2022-09-26T12:45:35.462Z</time>
      </trkpt>
      <trkpt lat="47.10038" lon="15.71368">
        <ele>399.430322</ele>
        <time>2022-09-26T12:45:38.452Z</time>
      </trkpt>
      <trkpt lat="47.10047" lon="15.71376">
        <ele>399.60849</ele>
        <time>2022-09-26T12:45:41.478Z</time>
      </trkpt>
      <trkpt lat="47.10057" lon="15.71384">
        <ele>399.789874</ele>
        <time>2022-09-26T12:45:44.446Z</time>
      </trkpt>
      <trkpt lat="47.10066" lon="15.71394">
        <ele>399.986221</ele>
        <time>2022-09-26T12:45:47.454Z</time>
      </trkpt>
      <trkpt lat="47.10076" lon="15.71404">
        <ele>400.193186</ele>
        <time>2022-09-26T12:45:50.469Z</time>
      </trkpt>
      <trkpt lat="47.10086" lon="15.71413">
        <ele>400.383099</ele>
        <time>2022-09-26T12:45:53.450Z</time>
      </trkpt>
      <trkpt lat="47.10096" lon="15.71422">
        <ele>400.614438</ele>
        <time>2022-09-26T12:45:56.437Z</time>
      </trkpt>
      <trkpt lat="47.10105" lon="15.71433">
        <ele>401.045352</ele>
        <time>2022-09-26T12:45:59.496Z</time>
      </trkpt>
      <trkpt lat="47.10113" lon="15.71442">
        <ele>401.46376</ele>
        <time>2022-09-26T12:46:02.452Z</time>
      </trkpt>
      <trkpt lat="47.10121" lon="15.71451">
        <ele>401.838668</ele>
        <time>2022-09-26T12:46:05.477Z</time>
      </trkpt>
      <trkpt lat="47.10129" lon="15.71459">
        <ele>402.204269</ele>
        <time>2022-09-26T12:46:08.474Z</time>
      </trkpt>
      <trkpt lat="47.10138" lon="15.71469">
        <ele>402.642671</ele>
        <time>2022-09-26T12:46:12.472Z</time>
      </trkpt>
      <trkpt lat="47.10145" lon="15.71479">
        <ele>403.026284</ele>
        <time>2022-09-26T12:46:17.458Z</time>
      </trkpt>
      <trkpt lat="47.10153" lon="15.71485">
        <ele>403.377726</ele>
        <time>2022-09-26T12:46:23.501Z</time>
      </trkpt>
      <trkpt lat="47.1016" lon="15.71494">
        <ele>403.725188</ele>
        <time>2022-09-26T12:46:30.470Z</time>
      </trkpt>
      <trkpt lat="47.10174" lon="15.71511">
        <ele>404.403476</ele>
        <time>2022-09-26T12:47:11.479Z</time>
      </trkpt>
      <trkpt lat="47.10181" lon="15.71524">
        <ele>404.849643</ele>
        <time>2022-09-26T12:47:16.461Z</time>
      </trkpt>
      <trkpt lat="47.10187" lon="15.71535">
        <ele>405.219848</ele>
        <time>2022-09-26T12:47:20.485Z</time>
      </trkpt>
      <trkpt lat="47.10192" lon="15.71548">
        <ele>405.593989</ele>
        <time>2022-09-26T12:47:24.449Z</time>
      </trkpt>
      <trkpt lat="47.10197" lon="15.71559">
        <ele>405.966418</ele>
        <time>2022-09-26T12:47:28.455Z</time>
      </trkpt>
      <trkpt lat="47.10204" lon="15.71573">
        <ele>406.396915</ele>
        <time>2022-09-26T12:47:32.467Z</time>
      </trkpt>
      <trkpt lat="47.10208" lon="15.71586">
        <ele>406.792651</ele>
        <time>2022-09-26T12:47:36.466Z</time>
      </trkpt>
      <trkpt lat="47.10215" lon="15.71596">
        <ele>407.170005</ele>
        <time>2022-09-26T12:47:39.462Z</time>
      </trkpt>
      <trkpt lat="47.10222" lon="15.7161">
        <ele>407.536841</ele>
        <time>2022-09-26T12:47:43.473Z</time>
      </trkpt>
      <trkpt lat="47.10228" lon="15.71621">
        <ele>407.736996</ele>
        <time>2022-09-26T12:47:47.456Z</time>
      </trkpt>
      <trkpt lat="47.10233" lon="15.71635">
        <ele>407.937817</ele>
        <time>2022-09-26T12:47:51.479Z</time>
      </trkpt>
      <trkpt lat="47.10236" lon="15.7165">
        <ele>408.148663</ele>
        <time>2022-09-26T12:47:55.471Z</time>
      </trkpt>
      <trkpt lat="47.10239" lon="15.71664">
        <ele>408.350145</ele>
        <time>2022-09-26T12:47:59.457Z</time>
      </trkpt>
      <trkpt lat="47.1024" lon="15.71677">
        <ele>408.527491</ele>
        <time>2022-09-26T12:48:02.458Z</time>
      </trkpt>
      <trkpt lat="47.10242" lon="15.71691">
        <ele>408.709383</ele>
        <time>2022-09-26T12:48:05.456Z</time>
      </trkpt>
      <trkpt lat="47.10242" lon="15.71708">
        <ele>408.945923</ele>
        <time>2022-09-26T12:48:09.476Z</time>
      </trkpt>
      <trkpt lat="47.10243" lon="15.71726">
        <ele>409.179237</ele>
        <time>2022-09-26T12:48:13.471Z</time>
      </trkpt>
      <trkpt lat="47.10244" lon="15.71743">
        <ele>409.412185</ele>
        <time>2022-09-26T12:48:17.466Z</time>
      </trkpt>
      <trkpt lat="47.10246" lon="15.71758">
        <ele>409.621829</ele>
        <time>2022-09-26T12:48:21.479Z</time>
      </trkpt>
      <trkpt lat="47.10248" lon="15.71772">
        <ele>409.805682</ele>
        <time>2022-09-26T12:48:24.471Z</time>
      </trkpt>
      <trkpt lat="47.10249" lon="15.71786">
        <ele>409.996587</ele>
        <time>2022-09-26T12:48:27.464Z</time>
      </trkpt>
      <trkpt lat="47.10251" lon="15.71801">
        <ele>410.199622</ele>
        <time>2022-09-26T12:48:30.458Z</time>
      </trkpt>
      <trkpt lat="47.10251" lon="15.71815">
        <ele>410.395756</ele>
        <time>2022-09-26T12:48:33.457Z</time>
      </trkpt>
      <trkpt lat="47.10253" lon="15.7183">
        <ele>410.589592</ele>
        <time>2022-09-26T12:48:36.458Z</time>
      </trkpt>
      <trkpt lat="47.10254" lon="15.71845">
        <ele>410.791976</ele>
        <time>2022-09-26T12:48:39.514Z</time>
      </trkpt>
      <trkpt lat="47.10256" lon="15.71858">
        <ele>410.977061</ele>
        <time>2022-09-26T12:48:42.464Z</time>
      </trkpt>
      <trkpt lat="47.10256" lon="15.71872">
        <ele>411.319917</ele>
        <time>2022-09-26T12:48:45.456Z</time>
      </trkpt>
      <trkpt lat="47.10255" lon="15.71888">
        <ele>411.788018</ele>
        <time>2022-09-26T12:48:49.475Z</time>
      </trkpt>
      <trkpt lat="47.10255" lon="15.71902">
        <ele>412.170927</ele>
        <time>2022-09-26T12:48:52.482Z</time>
      </trkpt>
      <trkpt lat="47.10254" lon="15.71916">
        <ele>412.583927</ele>
        <time>2022-09-26T12:48:55.503Z</time>
      </trkpt>
      <trkpt lat="47.10253" lon="15.7193">
        <ele>412.994089</ele>
        <time>2022-09-26T12:48:58.466Z</time>
      </trkpt>
      <trkpt lat="47.10252" lon="15.71944">
        <ele>413.377548</ele>
        <time>2022-09-26T12:49:01.465Z</time>
      </trkpt>
      <trkpt lat="47.10251" lon="15.71958">
        <ele>413.801904</ele>
        <time>2022-09-26T12:49:04.453Z</time>
      </trkpt>
      <trkpt lat="47.10249" lon="15.71974">
        <ele>414.242112</ele>
        <time>2022-09-26T12:49:07.455Z</time>
      </trkpt>
      <trkpt lat="47.10248" lon="15.71989">
        <ele>414.695705</ele>
        <time>2022-09-26T12:49:10.473Z</time>
      </trkpt>
      <trkpt lat="47.10247" lon="15.72004">
        <ele>415.125352</ele>
        <time>2022-09-26T12:49:13.460Z</time>
      </trkpt>
      <trkpt lat="47.10245" lon="15.72019">
        <ele>415.546039</ele>
        <time>2022-09-26T12:49:16.461Z</time>
      </trkpt>
      <trkpt lat="47.10242" lon="15.72035">
        <ele>416.019562</ele>
        <time>2022-09-26T12:49:19.482Z</time>
      </trkpt>
      <trkpt lat="47.10239" lon="15.7205">
        <ele>416.46838</ele>
        <time>2022-09-26T12:49:22.461Z</time>
      </trkpt>
      <trkpt lat="47.10236" lon="15.72064">
        <ele>416.899308</ele>
        <time>2022-09-26T12:49:25.467Z</time>
      </trkpt>
      <trkpt lat="47.10234" lon="15.72078">
        <ele>417.315649</ele>
        <time>2022-09-26T12:49:28.470Z</time>
      </trkpt>
      <trkpt lat="47.10231" lon="15.72093">
        <ele>417.761729</ele>
        <time>2022-09-26T12:49:31.467Z</time>
      </trkpt>
      <trkpt lat="47.10227" lon="15.72109">
        <ele>418.243876</ele>
        <time>2022-09-26T12:49:34.502Z</time>
      </trkpt>
      <trkpt lat="47.10224" lon="15.72126">
        <ele>418.422864</ele>
        <time>2022-09-26T12:49:37.489Z</time>
      </trkpt>
      <trkpt lat="47.10221" lon="15.72142">
        <ele>418.071033</ele>
        <time>2022-09-26T12:49:40.498Z</time>
      </trkpt>
      <trkpt lat="47.10219" lon="15.7216">
        <ele>417.695939</ele>
        <time>2022-09-26T12:49:43.479Z</time>
      </trkpt>
      <trkpt lat="47.10216" lon="15.72179">
        <ele>417.284302</ele>
        <time>2022-09-26T12:49:46.450Z</time>
      </trkpt>
      <trkpt lat="47.10213" lon="15.72191">
        <ele>417.004937</ele>
        <time>2022-09-26T12:49:48.490Z</time>
      </trkpt>
      <trkpt lat="47.10209" lon="15.72203">
        <ele>416.724311</ele>
        <time>2022-09-26T12:49:50.468Z</time>
      </trkpt>
      <trkpt lat="47.10205" lon="15.72222">
        <ele>416.314196</ele>
        <time>2022-09-26T12:49:53.475Z</time>
      </trkpt>
      <trkpt lat="47.10201" lon="15.72237">
        <ele>415.964518</ele>
        <time>2022-09-26T12:49:56.436Z</time>
      </trkpt>
      <trkpt lat="47.10197" lon="15.72254">
        <ele>415.588151</ele>
        <time>2022-09-26T12:49:59.449Z</time>
      </trkpt>
      <trkpt lat="47.10194" lon="15.7227">
        <ele>415.234632</ele>
        <time>2022-09-26T12:50:02.466Z</time>
      </trkpt>
      <trkpt lat="47.10191" lon="15.72287">
        <ele>414.875446</ele>
        <time>2022-09-26T12:50:05.453Z</time>
      </trkpt>
      <trkpt lat="47.10188" lon="15.72303">
        <ele>414.519545</ele>
        <time>2022-09-26T12:50:08.468Z</time>
      </trkpt>
      <trkpt lat="47.10184" lon="15.72321">
        <ele>414.122945</ele>
        <time>2022-09-26T12:50:11.470Z</time>
      </trkpt>
      <trkpt lat="47.1018" lon="15.72338">
        <ele>413.744786</ele>
        <time>2022-09-26T12:50:14.486Z</time>
      </trkpt>
      <trkpt lat="47.10178" lon="15.72354">
        <ele>413.401426</ele>
        <time>2022-09-26T12:50:17.455Z</time>
      </trkpt>
      <trkpt lat="47.10175" lon="15.7237">
        <ele>413.051624</ele>
        <time>2022-09-26T12:50:20.468Z</time>
      </trkpt>
      <trkpt lat="47.10171" lon="15.72385">
        <ele>412.859203</ele>
        <time>2022-09-26T12:50:23.475Z</time>
      </trkpt>
      <trkpt lat="47.10168" lon="15.724">
        <ele>412.696046</ele>
        <time>2022-09-26T12:50:26.507Z</time>
      </trkpt>
      <trkpt lat="47.10165" lon="15.72416">
        <ele>412.531914</ele>
        <time>2022-09-26T12:50:29.467Z</time>
      </trkpt>
      <trkpt lat="47.10161" lon="15.72431">
        <ele>412.364978</ele>
        <time>2022-09-26T12:50:32.484Z</time>
      </trkpt>
      <trkpt lat="47.10157" lon="15.72446">
        <ele>412.199812</ele>
        <time>2022-09-26T12:50:35.457Z</time>
      </trkpt>
      <trkpt lat="47.10154" lon="15.72462">
        <ele>412.035254</ele>
        <time>2022-09-26T12:50:38.483Z</time>
      </trkpt>
      <trkpt lat="47.1015" lon="15.72479">
        <ele>411.85102</ele>
        <time>2022-09-26T12:50:41.465Z</time>
      </trkpt>
      <trkpt lat="47.10146" lon="15.72495">
        <ele>411.673949</ele>
        <time>2022-09-26T12:50:44.454Z</time>
      </trkpt>
      <trkpt lat="47.10142" lon="15.72511">
        <ele>411.500329</ele>
        <time>2022-09-26T12:50:47.462Z</time>
      </trkpt>
      <trkpt lat="47.10138" lon="15.72528">
        <ele>411.326227</ele>
        <time>2022-09-26T12:50:50.459Z</time>
      </trkpt>
      <trkpt lat="47.10136" lon="15.72543">
        <ele>411.16108</ele>
        <time>2022-09-26T12:50:53.455Z</time>
      </trkpt>
      <trkpt lat="47.10134" lon="15.72559">
        <ele>410.994297</ele>
        <time>2022-09-26T12:50:56.484Z</time>
      </trkpt>
      <trkpt lat="47.10131" lon="15.72576">
        <ele>410.819582</ele>
        <time>2022-09-26T12:50:59.464Z</time>
      </trkpt>
      <trkpt lat="47.10128" lon="15.72592">
        <ele>410.650133</ele>
        <time>2022-09-26T12:51:02.454Z</time>
      </trkpt>
      <trkpt lat="47.10127" lon="15.72607">
        <ele>410.500112</ele>
        <time>2022-09-26T12:51:05.475Z</time>
      </trkpt>
      <trkpt lat="47.10125" lon="15.72621">
        <ele>410.360137</ele>
        <time>2022-09-26T12:51:08.472Z</time>
      </trkpt>
      <trkpt lat="47.10123" lon="15.72638">
        <ele>410.497408</ele>
        <time>2022-09-26T12:51:12.458Z</time>
      </trkpt>
      <trkpt lat="47.10123" lon="15.72653">
        <ele>410.77014</ele>
        <time>2022-09-26T12:51:16.452Z</time>
      </trkpt>
      <trkpt lat="47.10122" lon="15.72668">
        <ele>411.038119</ele>
        <time>2022-09-26T12:51:20.473Z</time>
      </trkpt>
      <trkpt lat="47.10121" lon="15.72684">
        <ele>411.306798</ele>
        <time>2022-09-26T12:51:24.456Z</time>
      </trkpt>
      <trkpt lat="47.10121" lon="15.72698">
        <ele>411.551408</ele>
        <time>2022-09-26T12:51:28.455Z</time>
      </trkpt>
      <trkpt lat="47.10119" lon="15.72713">
        <ele>411.822734</ele>
        <time>2022-09-26T12:51:32.465Z</time>
      </trkpt>
      <trkpt lat="47.10119" lon="15.7273">
        <ele>412.114477</ele>
        <time>2022-09-26T12:51:37.460Z</time>
      </trkpt>
      <trkpt lat="47.10118" lon="15.72744">
        <ele>412.362066</ele>
        <time>2022-09-26T12:51:41.455Z</time>
      </trkpt>
      <trkpt lat="47.10115" lon="15.72757">
        <ele>412.599659</ele>
        <time>2022-09-26T12:51:44.513Z</time>
      </trkpt>
      <trkpt lat="47.10114" lon="15.72773">
        <ele>412.889447</ele>
        <time>2022-09-26T12:51:48.453Z</time>
      </trkpt>
      <trkpt lat="47.10115" lon="15.72788">
        <ele>413.150676</ele>
        <time>2022-09-26T12:51:52.463Z</time>
      </trkpt>
      <trkpt lat="47.10116" lon="15.72803">
        <ele>413.411691</ele>
        <time>2022-09-26T12:51:56.456Z</time>
      </trkpt>
      <trkpt lat="47.10117" lon="15.72818">
        <ele>413.669684</ele>
        <time>2022-09-26T12:52:00.468Z</time>
      </trkpt>
      <trkpt lat="47.10117" lon="15.72832">
        <ele>413.916401</ele>
        <time>2022-09-26T12:52:04.456Z</time>
      </trkpt>
      <trkpt lat="47.10118" lon="15.72846">
        <ele>414.159483</ele>
        <time>2022-09-26T12:52:08.469Z</time>
      </trkpt>
      <trkpt lat="47.10119" lon="15.72862">
        <ele>414.446086</ele>
        <time>2022-09-26T12:52:13.460Z</time>
      </trkpt>
      <trkpt lat="47.10121" lon="15.72875">
        <ele>414.682246</ele>
        <time>2022-09-26T12:52:17.470Z</time>
      </trkpt>
      <trkpt lat="47.10125" lon="15.7289">
        <ele>414.993386</ele>
        <time>2022-09-26T12:52:21.463Z</time>
      </trkpt>
      <trkpt lat="47.10127" lon="15.72905">
        <ele>415.485099</ele>
        <time>2022-09-26T12:52:25.479Z</time>
      </trkpt>
      <trkpt lat="47.10127" lon="15.72919">
        <ele>415.956603</ele>
        <time>2022-09-26T12:52:29.535Z</time>
      </trkpt>
      <trkpt lat="47.10128" lon="15.72932">
        <ele>416.400655</ele>
        <time>2022-09-26T12:52:33.452Z</time>
      </trkpt>
      <trkpt lat="47.10129" lon="15.72946">
        <ele>416.853439</ele>
        <time>2022-09-26T12:52:37.470Z</time>
      </trkpt>
      <trkpt lat="47.10132" lon="15.72961">
        <ele>417.372972</ele>
        <time>2022-09-26T12:52:41.452Z</time>
      </trkpt>
      <trkpt lat="47.10134" lon="15.72975">
        <ele>417.845955</ele>
        <time>2022-09-26T12:52:45.467Z</time>
      </trkpt>
      <trkpt lat="47.10135" lon="15.7299">
        <ele>418.321617</ele>
        <time>2022-09-26T12:52:49.462Z</time>
      </trkpt>
      <trkpt lat="47.10136" lon="15.73004">
        <ele>418.809387</ele>
        <time>2022-09-26T12:52:53.479Z</time>
      </trkpt>
      <trkpt lat="47.10137" lon="15.73018">
        <ele>419.250392</ele>
        <time>2022-09-26T12:52:57.466Z</time>
      </trkpt>
      <trkpt lat="47.10137" lon="15.73032">
        <ele>419.704523</ele>
        <time>2022-09-26T12:53:01.455Z</time>
      </trkpt>
      <trkpt lat="47.10139" lon="15.73046">
        <ele>420.166271</ele>
        <time>2022-09-26T12:53:05.480Z</time>
      </trkpt>
      <trkpt lat="47.10139" lon="15.73061">
        <ele>420.673809</ele>
        <time>2022-09-26T12:53:10.488Z</time>
      </trkpt>
      <trkpt lat="47.1014" lon="15.73074">
        <ele>421.113525</ele>
        <time>2022-09-26T12:53:14.465Z</time>
      </trkpt>
      <trkpt lat="47.1014" lon="15.73088">
        <ele>421.557182</ele>
        <time>2022-09-26T12:53:18.458Z</time>
      </trkpt>
      <trkpt lat="47.10141" lon="15.73104">
        <ele>422.107686</ele>
        <time>2022-09-26T12:53:23.449Z</time>
      </trkpt>
      <trkpt lat="47.10142" lon="15.7312">
        <ele>422.609995</ele>
        <time>2022-09-26T12:53:28.452Z</time>
      </trkpt>
      <trkpt lat="47.10144" lon="15.73135">
        <ele>423.12447</ele>
        <time>2022-09-26T12:53:33.462Z</time>
      </trkpt>
      <trkpt lat="47.10145" lon="15.73151">
        <ele>423.673982</ele>
        <time>2022-09-26T12:53:38.461Z</time>
      </trkpt>
      <trkpt lat="47.10147" lon="15.73166">
        <ele>424.47141</ele>
        <time>2022-09-26T12:53:43.475Z</time>
      </trkpt>
      <trkpt lat="47.10149" lon="15.7318">
        <ele>425.253039</ele>
        <time>2022-09-26T12:53:48.471Z</time>
      </trkpt>
      <trkpt lat="47.10152" lon="15.73195">
        <ele>426.073241</ele>
        <time>2022-09-26T12:53:54.456Z</time>
      </trkpt>
      <trkpt lat="47.10154" lon="15.73209">
        <ele>426.837645</ele>
        <time>2022-09-26T12:54:00.461Z</time>
      </trkpt>
      <trkpt lat="47.10158" lon="15.73223">
        <ele>427.66205</ele>
        <time>2022-09-26T12:54:06.462Z</time>
      </trkpt>
      <trkpt lat="47.1016" lon="15.73236">
        <ele>428.374619</ele>
        <time>2022-09-26T12:54:12.441Z</time>
      </trkpt>
      <trkpt lat="47.10162" lon="15.73249">
        <ele>429.093069</ele>
        <time>2022-09-26T12:54:18.469Z</time>
      </trkpt>
      <trkpt lat="47.10165" lon="15.73263">
        <ele>429.876203</ele>
        <time>2022-09-26T12:54:24.474Z</time>
      </trkpt>
      <trkpt lat="47.10169" lon="15.73277">
        <ele>430.65143</ele>
        <time>2022-09-26T12:54:30.460Z</time>
      </trkpt>
      <trkpt lat="47.10173" lon="15.7329">
        <ele>431.409945</ele>
        <time>2022-09-26T12:54:36.458Z</time>
      </trkpt>
      <trkpt lat="47.10176" lon="15.73303">
        <ele>432.150214</ele>
        <time>2022-09-26T12:54:42.459Z</time>
      </trkpt>
      <trkpt lat="47.10179" lon="15.73316">
        <ele>432.895995</ele>
        <time>2022-09-26T12:54:48.468Z</time>
      </trkpt>
      <trkpt lat="47.1018" lon="15.73329">
        <ele>433.601376</ele>
        <time>2022-09-26T12:54:54.473Z</time>
      </trkpt>
      <trkpt lat="47.10184" lon="15.73343">
        <ele>434.394347</ele>
        <time>2022-09-26T12:55:00.460Z</time>
      </trkpt>
      <trkpt lat="47.10188" lon="15.73356">
        <ele>435.124303</ele>
        <time>2022-09-26T12:55:06.464Z</time>
      </trkpt>
      <trkpt lat="47.10194" lon="15.73367">
        <ele>435.871933</ele>
        <time>2022-09-26T12:55:11.475Z</time>
      </trkpt>
      <trkpt lat="47.10197" lon="15.7338">
        <ele>436.622774</ele>
        <time>2022-09-26T12:55:17.468Z</time>
      </trkpt>
      <trkpt lat="47.10201" lon="15.73395">
        <ele>437.436136</ele>
        <time>2022-09-26T12:55:24.468Z</time>
      </trkpt>
      <trkpt lat="47.10206" lon="15.73406">
        <ele>438.099899</ele>
        <time>2022-09-26T12:55:30.509Z</time>
      </trkpt>
      <trkpt lat="47.10212" lon="15.73418">
        <ele>438.763533</ele>
        <time>2022-09-26T12:55:37.454Z</time>
      </trkpt>
      <trkpt lat="47.10218" lon="15.73429">
        <ele>439.41869</ele>
        <time>2022-09-26T12:55:46.460Z</time>
      </trkpt>
      <trkpt lat="47.10226" lon="15.73448">
        <ele>440.416988</ele>
        <time>2022-09-26T12:57:00.476Z</time>
      </trkpt>
      <trkpt lat="47.10232" lon="15.7346">
        <ele>441.122779</ele>
        <time>2022-09-26T12:57:06.486Z</time>
      </trkpt>
      <trkpt lat="47.10239" lon="15.73472">
        <ele>441.812592</ele>
        <time>2022-09-26T12:57:11.466Z</time>
      </trkpt>
      <trkpt lat="47.10245" lon="15.73484">
        <ele>442.494721</ele>
        <time>2022-09-26T12:57:16.482Z</time>
      </trkpt>
      <trkpt lat="47.10248" lon="15.73497">
        <ele>443.126269</ele>
        <time>2022-09-26T12:57:21.462Z</time>
      </trkpt>
      <trkpt lat="47.10254" lon="15.7351">
        <ele>443.833964</ele>
        <time>2022-09-26T12:57:26.448Z</time>
      </trkpt>
      <trkpt lat="47.10261" lon="15.73521">
        <ele>444.526447</ele>
        <time>2022-09-26T12:57:32.474Z</time>
      </trkpt>
      <trkpt lat="47.10266" lon="15.73533">
        <ele>445.174658</ele>
        <time>2022-09-26T12:57:38.496Z</time>
      </trkpt>
      <trkpt lat="47.10272" lon="15.73544">
        <ele>445.817745</ele>
        <time>2022-09-26T12:57:44.462Z</time>
      </trkpt>
      <trkpt lat="47.10278" lon="15.73555">
        <ele>446.429731</ele>
        <time>2022-09-26T12:57:49.481Z</time>
      </trkpt>
      <trkpt lat="47.10285" lon="15.73565">
        <ele>447.072403</ele>
        <time>2022-09-26T12:57:55.469Z</time>
      </trkpt>
      <trkpt lat="47.10289" lon="15.73577">
        <ele>447.680598</ele>
        <time>2022-09-26T12:58:01.456Z</time>
      </trkpt>
      <trkpt lat="47.10294" lon="15.73589">
        <ele>448.331594</ele>
        <time>2022-09-26T12:58:07.493Z</time>
      </trkpt>
      <trkpt lat="47.10298" lon="15.73602">
        <ele>448.973167</ele>
        <time>2022-09-26T12:58:13.493Z</time>
      </trkpt>
      <trkpt lat="47.10306" lon="15.73611">
        <ele>449.642448</ele>
        <time>2022-09-26T12:58:18.464Z</time>
      </trkpt>
      <trkpt lat="47.10313" lon="15.73621">
        <ele>450.1765</ele>
        <time>2022-09-26T12:58:23.462Z</time>
      </trkpt>
      <trkpt lat="47.10318" lon="15.73634">
        <ele>450.761142</ele>
        <time>2022-09-26T12:58:29.493Z</time>
      </trkpt>
      <trkpt lat="47.10322" lon="15.73646">
        <ele>451.278309</ele>
        <time>2022-09-26T12:58:35.518Z</time>
      </trkpt>
      <trkpt lat="47.10327" lon="15.73657">
        <ele>451.791844</ele>
        <time>2022-09-26T12:58:40.468Z</time>
      </trkpt>
      <trkpt lat="47.10332" lon="15.73669">
        <ele>452.353301</ele>
        <time>2022-09-26T12:58:46.455Z</time>
      </trkpt>
      <trkpt lat="47.10338" lon="15.73682">
        <ele>452.941714</ele>
        <time>2022-09-26T12:58:52.442Z</time>
      </trkpt>
      <trkpt lat="47.10343" lon="15.73694">
        <ele>453.497024</ele>
        <time>2022-09-26T12:58:58.476Z</time>
      </trkpt>
      <trkpt lat="47.10349" lon="15.73705">
        <ele>454.026553</ele>
        <time>2022-09-26T12:59:03.456Z</time>
      </trkpt>
      <trkpt lat="47.10357" lon="15.73715">
        <ele>454.63298</ele>
        <time>2022-09-26T12:59:09.450Z</time>
      </trkpt>
      <trkpt lat="47.1036" lon="15.73729">
        <ele>455.183742</ele>
        <time>2022-09-26T12:59:15.483Z</time>
      </trkpt>
      <trkpt lat="47.10365" lon="15.73742">
        <ele>455.761216</ele>
        <time>2022-09-26T12:59:20.464Z</time>
      </trkpt>
      <trkpt lat="47.10369" lon="15.73756">
        <ele>456.341161</ele>
        <time>2022-09-26T12:59:26.469Z</time>
      </trkpt>
      <trkpt lat="47.10373" lon="15.73769">
        <ele>456.896337</ele>
        <time>2022-09-26T12:59:31.462Z</time>
      </trkpt>
      <trkpt lat="47.10377" lon="15.73782">
        <ele>457.43887</ele>
        <time>2022-09-26T12:59:36.456Z</time>
      </trkpt>
      <trkpt lat="47.10381" lon="15.73795">
        <ele>457.995148</ele>
        <time>2022-09-26T12:59:41.474Z</time>
      </trkpt>
      <trkpt lat="47.10383" lon="15.73809">
        <ele>458.55955</ele>
        <time>2022-09-26T12:59:46.463Z</time>
      </trkpt>
      <trkpt lat="47.10383" lon="15.73824">
        <ele>459.119088</ele>
        <time>2022-09-26T12:59:51.463Z</time>
      </trkpt>
      <trkpt lat="47.10384" lon="15.73839">
        <ele>459.706859</ele>
        <time>2022-09-26T12:59:56.466Z</time>
      </trkpt>
      <trkpt lat="47.10386" lon="15.73854">
        <ele>460.116075</ele>
        <time>2022-09-26T13:00:01.453Z</time>
      </trkpt>
      <trkpt lat="47.10389" lon="15.73869">
        <ele>460.44321</ele>
        <time>2022-09-26T13:00:06.464Z</time>
      </trkpt>
      <trkpt lat="47.10391" lon="15.73885">
        <ele>460.790183</ele>
        <time>2022-09-26T13:00:11.471Z</time>
      </trkpt>
      <trkpt lat="47.10391" lon="15.73901">
        <ele>461.143341</ele>
        <time>2022-09-26T13:00:16.448Z</time>
      </trkpt>
      <trkpt lat="47.10389" lon="15.73917">
        <ele>461.493792</ele>
        <time>2022-09-26T13:00:21.503Z</time>
      </trkpt>
      <trkpt lat="47.10387" lon="15.73931">
        <ele>461.780047</ele>
        <time>2022-09-26T13:00:25.481Z</time>
      </trkpt>
      <trkpt lat="47.10388" lon="15.73946">
        <ele>462.11919</ele>
        <time>2022-09-26T13:00:30.470Z</time>
      </trkpt>
      <trkpt lat="47.10386" lon="15.73961">
        <ele>462.442542</ele>
        <time>2022-09-26T13:00:35.467Z</time>
      </trkpt>
      <trkpt lat="47.10385" lon="15.73975">
        <ele>462.752156</ele>
        <time>2022-09-26T13:00:41.466Z</time>
      </trkpt>
      <trkpt lat="47.10383" lon="15.73989">
        <ele>463.050609</ele>
        <time>2022-09-26T13:00:47.474Z</time>
      </trkpt>
      <trkpt lat="47.10381" lon="15.74002">
        <ele>463.338974</ele>
        <time>2022-09-26T13:00:54.477Z</time>
      </trkpt>
      <trkpt lat="47.10382" lon="15.74016">
        <ele>463.632842</ele>
        <time>2022-09-26T13:01:00.460Z</time>
      </trkpt>
      <trkpt lat="47.1038" lon="15.74029">
        <ele>463.919097</ele>
        <time>2022-09-26T13:01:05.483Z</time>
      </trkpt>
      <trkpt lat="47.10379" lon="15.74044">
        <ele>464.227498</ele>
        <time>2022-09-26T13:01:10.471Z</time>
      </trkpt>
      <trkpt lat="47.10376" lon="15.74057">
        <ele>464.536309</ele>
        <time>2022-09-26T13:01:16.453Z</time>
      </trkpt>
      <trkpt lat="47.10371" lon="15.7407">
        <ele>464.85117</ele>
        <time>2022-09-26T13:01:23.454Z</time>
      </trkpt>
      <trkpt lat="47.10367" lon="15.74084">
        <ele>465.174406</ele>
        <time>2022-09-26T13:01:30.466Z</time>
      </trkpt>
      <trkpt lat="47.10365" lon="15.74099">
        <ele>465.484579</ele>
        <time>2022-09-26T13:01:37.444Z</time>
      </trkpt>
      <trkpt lat="47.10362" lon="15.74111">
        <ele>466.23717</ele>
        <time>2022-09-26T13:01:43.462Z</time>
      </trkpt>
      <trkpt lat="47.10358" lon="15.74124">
        <ele>467.033013</ele>
        <time>2022-09-26T13:01:49.461Z</time>
      </trkpt>
      <trkpt lat="47.10355" lon="15.74138">
        <ele>467.924197</ele>
        <time>2022-09-26T13:01:56.458Z</time>
      </trkpt>
      <trkpt lat="47.10352" lon="15.74151">
        <ele>468.763631</ele>
        <time>2022-09-26T13:02:02.462Z</time>
      </trkpt>
      <trkpt lat="47.10349" lon="15.74165">
        <ele>469.643308</ele>
        <time>2022-09-26T13:02:09.460Z</time>
      </trkpt>
      <trkpt lat="47.10348" lon="15.74179">
        <ele>470.533289</ele>
        <time>2022-09-26T13:02:16.461Z</time>
      </trkpt>
      <trkpt lat="47.10345" lon="15.74192">
        <ele>471.351124</ele>
        <time>2022-09-26T13:02:22.493Z</time>
      </trkpt>
      <trkpt lat="47.10343" lon="15.74206">
        <ele>472.218974</ele>
        <time>2022-09-26T13:02:29.514Z</time>
      </trkpt>
      <trkpt lat="47.10339" lon="15.74219">
        <ele>473.01482</ele>
        <time>2022-09-26T13:02:35.466Z</time>
      </trkpt>
      <trkpt lat="47.10334" lon="15.74232">
        <ele>473.955437</ele>
        <time>2022-09-26T13:02:42.483Z</time>
      </trkpt>
      <trkpt lat="47.1033" lon="15.74245">
        <ele>474.806392</ele>
        <time>2022-09-26T13:02:48.470Z</time>
      </trkpt>
      <trkpt lat="47.10328" lon="15.74259">
        <ele>475.670426</ele>
        <time>2022-09-26T13:02:54.452Z</time>
      </trkpt>
      <trkpt lat="47.10326" lon="15.74273">
        <ele>476.524482</ele>
        <time>2022-09-26T13:02:59.469Z</time>
      </trkpt>
      <trkpt lat="47.10322" lon="15.74287">
        <ele>477.455183</ele>
        <time>2022-09-26T13:03:05.467Z</time>
      </trkpt>
      <trkpt lat="47.10319" lon="15.74301">
        <ele>478.286998</ele>
        <time>2022-09-26T13:03:11.461Z</time>
      </trkpt>
      <trkpt lat="47.10317" lon="15.74314">
        <ele>479.1253</ele>
        <time>2022-09-26T13:03:17.473Z</time>
      </trkpt>
      <trkpt lat="47.10314" lon="15.74328">
        <ele>480.000133</ele>
        <time>2022-09-26T13:03:23.472Z</time>
      </trkpt>
      <trkpt lat="47.10311" lon="15.74342">
        <ele>480.865243</ele>
        <time>2022-09-26T13:03:29.478Z</time>
      </trkpt>
      <trkpt lat="47.10307" lon="15.74356">
        <ele>481.559966</ele>
        <time>2022-09-26T13:03:35.463Z</time>
      </trkpt>
      <trkpt lat="47.10303" lon="15.74369">
        <ele>481.91114</ele>
        <time>2022-09-26T13:03:41.460Z</time>
      </trkpt>
      <trkpt lat="47.10298" lon="15.74382">
        <ele>482.257243</ele>
        <time>2022-09-26T13:03:47.455Z</time>
      </trkpt>
      <trkpt lat="47.10293" lon="15.74394">
        <ele>482.581408</ele>
        <time>2022-09-26T13:03:53.464Z</time>
      </trkpt>
      <trkpt lat="47.10288" lon="15.74407">
        <ele>482.926858</ele>
        <time>2022-09-26T13:03:59.442Z</time>
      </trkpt>
      <trkpt lat="47.10283" lon="15.74418">
        <ele>483.250853</ele>
        <time>2022-09-26T13:04:04.487Z</time>
      </trkpt>
      <trkpt lat="47.10277" lon="15.74429">
        <ele>483.582915</ele>
        <time>2022-09-26T13:04:09.471Z</time>
      </trkpt>
      <trkpt lat="47.10272" lon="15.74442">
        <ele>483.926992</ele>
        <time>2022-09-26T13:04:15.461Z</time>
      </trkpt>
      <trkpt lat="47.10267" lon="15.74454">
        <ele>484.258875</ele>
        <time>2022-09-26T13:04:20.487Z</time>
      </trkpt>
      <trkpt lat="47.10262" lon="15.74468">
        <ele>484.630165</ele>
        <time>2022-09-26T13:04:27.470Z</time>
      </trkpt>
      <trkpt lat="47.10258" lon="15.74481">
        <ele>484.975058</ele>
        <time>2022-09-26T13:04:33.456Z</time>
      </trkpt>
      <trkpt lat="47.10252" lon="15.74494">
        <ele>485.342475</ele>
        <time>2022-09-26T13:04:39.484Z</time>
      </trkpt>
      <trkpt lat="47.10249" lon="15.74508">
        <ele>485.683545</ele>
        <time>2022-09-26T13:04:45.478Z</time>
      </trkpt>
      <trkpt lat="47.10244" lon="15.74521">
        <ele>486.039983</ele>
        <time>2022-09-26T13:04:50.487Z</time>
      </trkpt>
      <trkpt lat="47.10238" lon="15.74534">
        <ele>486.410815</ele>
        <time>2022-09-26T13:04:55.468Z</time>
      </trkpt>
      <trkpt lat="47.10233" lon="15.74546">
        <ele>486.725488</ele>
        <time>2022-09-26T13:05:00.451Z</time>
      </trkpt>
      <trkpt lat="47.10228" lon="15.74557">
        <ele>487.047814</ele>
        <time>2022-09-26T13:05:05.481Z</time>
      </trkpt>
      <trkpt lat="47.10222" lon="15.74568">
        <ele>487.391265</ele>
        <time>2022-09-26T13:05:11.472Z</time>
      </trkpt>
      <trkpt lat="47.10213" lon="15.74573">
        <ele>487.651098</ele>
        <time>2022-09-26T13:05:18.469Z</time>
      </trkpt>
      <trkpt lat="47.10209" lon="15.74588">
        <ele>487.651098</ele>
        <time>2022-09-26T13:05:26.462Z</time>
      </trkpt>
      <trkpt lat="47.10201" lon="15.746">
        <ele>487.651098</ele>
        <time>2022-09-26T13:05:31.470Z</time>
      </trkpt>
      <trkpt lat="47.10197" lon="15.74612">
        <ele>487.651098</ele>
        <time>2022-09-26T13:05:37.464Z</time>
      </trkpt>
      <trkpt lat="47.10193" lon="15.74627">
        <ele>487.651098</ele>
        <time>2022-09-26T13:05:43.453Z</time>
      </trkpt>
      <trkpt lat="47.10187" lon="15.7464">
        <ele>487.651098</ele>
        <time>2022-09-26T13:05:49.472Z</time>
      </trkpt>
      <trkpt lat="47.1018" lon="15.74653">
        <ele>487.651098</ele>
        <time>2022-09-26T13:05:54.477Z</time>
      </trkpt>
      <trkpt lat="47.10173" lon="15.74664">
        <ele>487.651098</ele>
        <time>2022-09-26T13:06:00.454Z</time>
      </trkpt>
      <trkpt lat="47.10167" lon="15.74674">
        <ele>487.651098</ele>
        <time>2022-09-26T13:06:06.455Z</time>
      </trkpt>
      <trkpt lat="47.10159" lon="15.74684">
        <ele>487.651098</ele>
        <time>2022-09-26T13:06:13.471Z</time>
      </trkpt>
      <trkpt lat="47.10153" lon="15.74695">
        <ele>487.651098</ele>
        <time>2022-09-26T13:06:19.474Z</time>
      </trkpt>
      <trkpt lat="47.10147" lon="15.74705">
        <ele>487.651098</ele>
        <time>2022-09-26T13:06:26.453Z</time>
      </trkpt>
      <trkpt lat="47.10141" lon="15.74716">
        <ele>487.651098</ele>
        <time>2022-09-26T13:06:32.460Z</time>
      </trkpt>
      <trkpt lat="47.10134" lon="15.74727">
        <ele>487.651098</ele>
        <time>2022-09-26T13:06:38.478Z</time>
      </trkpt>
      <trkpt lat="47.10128" lon="15.7474">
        <ele>487.651098</ele>
        <time>2022-09-26T13:06:44.468Z</time>
      </trkpt>
      <trkpt lat="47.10123" lon="15.74751">
        <ele>487.651098</ele>
        <time>2022-09-26T13:06:49.459Z</time>
      </trkpt>
      <trkpt lat="47.10118" lon="15.74762">
        <ele>487.651098</ele>
        <time>2022-09-26T13:06:54.451Z</time>
      </trkpt>
      <trkpt lat="47.10112" lon="15.74775">
        <ele>487.651098</ele>
        <time>2022-09-26T13:07:00.470Z</time>
      </trkpt>
      <trkpt lat="47.10109" lon="15.74791">
        <ele>487.651098</ele>
        <time>2022-09-26T13:07:07.470Z</time>
      </trkpt>
      <trkpt lat="47.10103" lon="15.74803">
        <ele>487.651098</ele>
        <time>2022-09-26T13:07:14.453Z</time>
      </trkpt>
      <trkpt lat="47.10097" lon="15.74814">
        <ele>487.651098</ele>
        <time>2022-09-26T13:07:19.470Z</time>
      </trkpt>
      <trkpt lat="47.10092" lon="15.74826">
        <ele>487.651098</ele>
        <time>2022-09-26T13:07:29.467Z</time>
      </trkpt>
      <trkpt lat="47.10084" lon="15.74837">
        <ele>487.651098</ele>
        <time>2022-09-26T13:07:36.452Z</time>
      </trkpt>
      <trkpt lat="47.10083" lon="15.74841">
        <ele>487.651098</ele>
        <time>2022-09-26T13:08:44.405Z</time>
      </trkpt>
    </trkseg>
  </trk>
</gpx>